<?xml version='1.0' encoding='UTF-8' ?>
<gpx version="1.1" creator="S Health_0.2" n0:schemaLocation="http://www.topografix.com/GPX/1/1 http://www.topografix.com/GPX/1/1/gpx.xsd" xmlns="http://www.topografix.com/GPX/1/1" n1:xsi="http://www.w3.org/2001/XMLSchema-instance" n1:gpx1="http://www.topografix.com/GPX/1/0" n1:ogt10="http://gpstracker.android.sogeti.n1/GPX/1/0" xmlns:n0="xsi" xmlns:n1="xmlns">
  <metadate>2022-01-13T08:01:47Z</metadate>
  <trk>
    <name>vannessurcosson.gpx</name>
    <trkseg>
      <trkpt lat="47.71277" lon="2.2110846">
        <ele>178.0</ele>
        <time>2022-01-13T08:01:47Z</time>
      </trkpt>
      <trkpt lat="47.71277" lon="2.2110846">
        <ele>178.0</ele>
        <time>2022-01-13T08:01:48Z</time>
      </trkpt>
      <trkpt lat="47.71277" lon="2.2110846">
        <ele>178.0</ele>
        <time>2022-01-13T08:01:49Z</time>
      </trkpt>
      <trkpt lat="47.71277" lon="2.2110846">
        <ele>178.0</ele>
        <time>2022-01-13T08:01:50Z</time>
      </trkpt>
      <trkpt lat="47.71277" lon="2.2110846">
        <ele>178.0</ele>
        <time>2022-01-13T08:01:51Z</time>
      </trkpt>
      <trkpt lat="47.71277" lon="2.2110846">
        <ele>178.0</ele>
        <time>2022-01-13T08:01:52Z</time>
      </trkpt>
      <trkpt lat="47.71277" lon="2.2110846">
        <ele>178.0</ele>
        <time>2022-01-13T08:01:53Z</time>
      </trkpt>
      <trkpt lat="47.71277" lon="2.2110846">
        <ele>178.0</ele>
        <time>2022-01-13T08:01:54Z</time>
      </trkpt>
      <trkpt lat="47.71277" lon="2.2110846">
        <ele>178.0</ele>
        <time>2022-01-13T08:01:55Z</time>
      </trkpt>
      <trkpt lat="47.71277" lon="2.2110846">
        <ele>178.0</ele>
        <time>2022-01-13T08:01:56Z</time>
      </trkpt>
      <trkpt lat="47.71277" lon="2.2110846">
        <ele>178.0</ele>
        <time>2022-01-13T08:01:57Z</time>
      </trkpt>
      <trkpt lat="47.71277" lon="2.2110846">
        <ele>178.0</ele>
        <time>2022-01-13T08:01:58Z</time>
      </trkpt>
      <trkpt lat="47.71277" lon="2.2110846">
        <ele>178.0</ele>
        <time>2022-01-13T08:01:59Z</time>
      </trkpt>
      <trkpt lat="47.71277" lon="2.2110846">
        <ele>178.0</ele>
        <time>2022-01-13T08:01:59Z</time>
      </trkpt>
    </trkseg>
    <trkseg>
      <trkpt lat="47.712692" lon="2.2110837">
        <ele>177.0</ele>
        <time>2022-01-13T08:02:31Z</time>
      </trkpt>
      <trkpt lat="47.71268" lon="2.2110877">
        <ele>176.0</ele>
        <time>2022-01-13T08:02:32Z</time>
      </trkpt>
      <trkpt lat="47.712666" lon="2.2110975">
        <ele>176.0</ele>
        <time>2022-01-13T08:02:34Z</time>
      </trkpt>
      <trkpt lat="47.712654" lon="2.2111032">
        <ele>177.0</ele>
        <time>2022-01-13T08:02:36Z</time>
      </trkpt>
      <trkpt lat="47.71265" lon="2.2111025">
        <ele>177.0</ele>
        <time>2022-01-13T08:02:37Z</time>
      </trkpt>
      <trkpt lat="47.712643" lon="2.211101">
        <ele>177.0</ele>
        <time>2022-01-13T08:02:38Z</time>
      </trkpt>
      <trkpt lat="47.71264" lon="2.2111018">
        <ele>177.0</ele>
        <time>2022-01-13T08:02:39Z</time>
      </trkpt>
      <trkpt lat="47.712635" lon="2.2111025">
        <ele>177.0</ele>
        <time>2022-01-13T08:02:40Z</time>
      </trkpt>
      <trkpt lat="47.71263" lon="2.2111027">
        <ele>177.0</ele>
        <time>2022-01-13T08:02:41Z</time>
      </trkpt>
      <trkpt lat="47.712624" lon="2.211103">
        <ele>177.0</ele>
        <time>2022-01-13T08:02:42Z</time>
      </trkpt>
      <trkpt lat="47.712616" lon="2.2111037">
        <ele>177.0</ele>
        <time>2022-01-13T08:02:43Z</time>
      </trkpt>
      <trkpt lat="47.71261" lon="2.211103">
        <ele>177.0</ele>
        <time>2022-01-13T08:02:44Z</time>
      </trkpt>
      <trkpt lat="47.7126" lon="2.2111022">
        <ele>177.0</ele>
        <time>2022-01-13T08:02:45Z</time>
      </trkpt>
      <trkpt lat="47.712593" lon="2.2110994">
        <ele>177.0</ele>
        <time>2022-01-13T08:02:46Z</time>
      </trkpt>
      <trkpt lat="47.71259" lon="2.2110946">
        <ele>176.0</ele>
        <time>2022-01-13T08:02:47Z</time>
      </trkpt>
      <trkpt lat="47.71259" lon="2.2110903">
        <ele>176.0</ele>
        <time>2022-01-13T08:02:48Z</time>
      </trkpt>
      <trkpt lat="47.71259" lon="2.2110848">
        <ele>176.0</ele>
        <time>2022-01-13T08:02:49Z</time>
      </trkpt>
      <trkpt lat="47.71259" lon="2.2110803">
        <ele>177.0</ele>
        <time>2022-01-13T08:02:50Z</time>
      </trkpt>
      <trkpt lat="47.71259" lon="2.2110803">
        <ele>177.0</ele>
        <time>2022-01-13T08:02:51Z</time>
      </trkpt>
      <trkpt lat="47.71259" lon="2.2110803">
        <ele>177.0</ele>
        <time>2022-01-13T08:02:52Z</time>
      </trkpt>
      <trkpt lat="47.71259" lon="2.2110803">
        <ele>177.0</ele>
        <time>2022-01-13T08:02:52Z</time>
      </trkpt>
    </trkseg>
    <trkseg>
      <trkpt lat="47.71259" lon="2.2110803">
        <ele>177.0</ele>
        <time>2022-01-13T08:02:52Z</time>
      </trkpt>
      <trkpt lat="47.712578" lon="2.2110107">
        <ele>177.0</ele>
        <time>2022-01-13T08:03:15Z</time>
      </trkpt>
      <trkpt lat="47.712574" lon="2.210996">
        <ele>177.0</ele>
        <time>2022-01-13T08:03:16Z</time>
      </trkpt>
      <trkpt lat="47.712566" lon="2.2109659">
        <ele>177.0</ele>
        <time>2022-01-13T08:03:18Z</time>
      </trkpt>
      <trkpt lat="47.712563" lon="2.2109377">
        <ele>177.0</ele>
        <time>2022-01-13T08:03:20Z</time>
      </trkpt>
      <trkpt lat="47.712566" lon="2.2109265">
        <ele>177.0</ele>
        <time>2022-01-13T08:03:21Z</time>
      </trkpt>
      <trkpt lat="47.712566" lon="2.2109163">
        <ele>177.0</ele>
        <time>2022-01-13T08:03:22Z</time>
      </trkpt>
      <trkpt lat="47.71257" lon="2.2109046">
        <ele>177.0</ele>
        <time>2022-01-13T08:03:23Z</time>
      </trkpt>
      <trkpt lat="47.71257" lon="2.2108886">
        <ele>176.0</ele>
        <time>2022-01-13T08:03:24Z</time>
      </trkpt>
      <trkpt lat="47.71257" lon="2.2108707">
        <ele>176.0</ele>
        <time>2022-01-13T08:03:25Z</time>
      </trkpt>
      <trkpt lat="47.712574" lon="2.2108564">
        <ele>175.0</ele>
        <time>2022-01-13T08:03:26Z</time>
      </trkpt>
      <trkpt lat="47.712574" lon="2.2108395">
        <ele>176.0</ele>
        <time>2022-01-13T08:03:27Z</time>
      </trkpt>
      <trkpt lat="47.71257" lon="2.2108223">
        <ele>175.0</ele>
        <time>2022-01-13T08:03:28Z</time>
      </trkpt>
      <trkpt lat="47.712566" lon="2.2107868">
        <ele>176.0</ele>
        <time>2022-01-13T08:03:30Z</time>
      </trkpt>
      <trkpt lat="47.712555" lon="2.2107558">
        <ele>175.0</ele>
        <time>2022-01-13T08:03:32Z</time>
      </trkpt>
      <trkpt lat="47.712547" lon="2.2107306">
        <ele>175.0</ele>
        <time>2022-01-13T08:03:34Z</time>
      </trkpt>
      <trkpt lat="47.71255" lon="2.210721">
        <ele>176.0</ele>
        <time>2022-01-13T08:03:35Z</time>
      </trkpt>
      <trkpt lat="47.71255" lon="2.2106922">
        <ele>176.0</ele>
        <time>2022-01-13T08:03:36Z</time>
      </trkpt>
      <trkpt lat="47.71255" lon="2.2106922">
        <ele>176.0</ele>
        <time>2022-01-13T08:03:36Z</time>
      </trkpt>
      <trkpt lat="47.712547" lon="2.2106776">
        <ele>175.0</ele>
        <time>2022-01-13T08:03:38Z</time>
      </trkpt>
      <trkpt lat="47.712547" lon="2.2106714">
        <ele>175.0</ele>
        <time>2022-01-13T08:03:39Z</time>
      </trkpt>
      <trkpt lat="47.71255" lon="2.2106671">
        <ele>175.0</ele>
        <time>2022-01-13T08:03:40Z</time>
      </trkpt>
      <trkpt lat="47.712547" lon="2.2106707">
        <ele>174.0</ele>
        <time>2022-01-13T08:03:41Z</time>
      </trkpt>
      <trkpt lat="47.712547" lon="2.2106707">
        <ele>174.0</ele>
        <time>2022-01-13T08:03:41Z</time>
      </trkpt>
    </trkseg>
    <trkseg>
      <trkpt lat="47.712547" lon="2.2106707">
        <ele>174.0</ele>
        <time>2022-01-13T08:03:41Z</time>
      </trkpt>
      <trkpt lat="47.71252" lon="2.210625">
        <ele>175.0</ele>
        <time>2022-01-13T08:03:50Z</time>
      </trkpt>
      <trkpt lat="47.712513" lon="2.2106154">
        <ele>175.0</ele>
        <time>2022-01-13T08:03:51Z</time>
      </trkpt>
      <trkpt lat="47.712513" lon="2.2106154">
        <ele>175.0</ele>
        <time>2022-01-13T08:03:51Z</time>
      </trkpt>
      <trkpt lat="47.71251" lon="2.210605">
        <ele>175.0</ele>
        <time>2022-01-13T08:03:53Z</time>
      </trkpt>
      <trkpt lat="47.7125" lon="2.2105944">
        <ele>174.0</ele>
        <time>2022-01-13T08:03:54Z</time>
      </trkpt>
      <trkpt lat="47.7125" lon="2.2105806">
        <ele>175.0</ele>
        <time>2022-01-13T08:03:55Z</time>
      </trkpt>
      <trkpt lat="47.712498" lon="2.2105649">
        <ele>175.0</ele>
        <time>2022-01-13T08:03:56Z</time>
      </trkpt>
      <trkpt lat="47.712494" lon="2.210555">
        <ele>175.0</ele>
        <time>2022-01-13T08:03:57Z</time>
      </trkpt>
      <trkpt lat="47.712486" lon="2.2105398">
        <ele>175.0</ele>
        <time>2022-01-13T08:03:58Z</time>
      </trkpt>
      <trkpt lat="47.712486" lon="2.2105253">
        <ele>175.0</ele>
        <time>2022-01-13T08:03:59Z</time>
      </trkpt>
      <trkpt lat="47.71249" lon="2.210506">
        <ele>176.0</ele>
        <time>2022-01-13T08:04:00Z</time>
      </trkpt>
      <trkpt lat="47.712482" lon="2.2104757">
        <ele>174.0</ele>
        <time>2022-01-13T08:04:01Z</time>
      </trkpt>
      <trkpt lat="47.71248" lon="2.210462">
        <ele>174.0</ele>
        <time>2022-01-13T08:04:03Z</time>
      </trkpt>
      <trkpt lat="47.71247" lon="2.2104516">
        <ele>173.0</ele>
        <time>2022-01-13T08:04:04Z</time>
      </trkpt>
      <trkpt lat="47.71247" lon="2.2104392">
        <ele>173.0</ele>
        <time>2022-01-13T08:04:05Z</time>
      </trkpt>
      <trkpt lat="47.712467" lon="2.2104256">
        <ele>173.0</ele>
        <time>2022-01-13T08:04:06Z</time>
      </trkpt>
      <trkpt lat="47.712463" lon="2.210411">
        <ele>173.0</ele>
        <time>2022-01-13T08:04:07Z</time>
      </trkpt>
      <trkpt lat="47.712456" lon="2.2104042">
        <ele>173.0</ele>
        <time>2022-01-13T08:04:08Z</time>
      </trkpt>
      <trkpt lat="47.712452" lon="2.2103899">
        <ele>173.0</ele>
        <time>2022-01-13T08:04:09Z</time>
      </trkpt>
      <trkpt lat="47.71245" lon="2.210378">
        <ele>172.0</ele>
        <time>2022-01-13T08:04:10Z</time>
      </trkpt>
      <trkpt lat="47.71245" lon="2.2103672">
        <ele>173.0</ele>
        <time>2022-01-13T08:04:11Z</time>
      </trkpt>
      <trkpt lat="47.712444" lon="2.2103515">
        <ele>173.0</ele>
        <time>2022-01-13T08:04:12Z</time>
      </trkpt>
      <trkpt lat="47.71244" lon="2.210334">
        <ele>172.0</ele>
        <time>2022-01-13T08:04:13Z</time>
      </trkpt>
      <trkpt lat="47.71244" lon="2.2103164">
        <ele>172.0</ele>
        <time>2022-01-13T08:04:14Z</time>
      </trkpt>
      <trkpt lat="47.712433" lon="2.210294">
        <ele>173.0</ele>
        <time>2022-01-13T08:04:15Z</time>
      </trkpt>
      <trkpt lat="47.71242" lon="2.2102563">
        <ele>173.0</ele>
        <time>2022-01-13T08:04:16Z</time>
      </trkpt>
      <trkpt lat="47.712418" lon="2.2102373">
        <ele>173.0</ele>
        <time>2022-01-13T08:04:17Z</time>
      </trkpt>
      <trkpt lat="47.71242" lon="2.2102227">
        <ele>173.0</ele>
        <time>2022-01-13T08:04:18Z</time>
      </trkpt>
      <trkpt lat="47.71242" lon="2.2102091">
        <ele>173.0</ele>
        <time>2022-01-13T08:04:19Z</time>
      </trkpt>
      <trkpt lat="47.712425" lon="2.2101965">
        <ele>173.0</ele>
        <time>2022-01-13T08:04:20Z</time>
      </trkpt>
      <trkpt lat="47.71243" lon="2.2101774">
        <ele>173.0</ele>
        <time>2022-01-13T08:04:22Z</time>
      </trkpt>
      <trkpt lat="47.71243" lon="2.2101774">
        <ele>173.0</ele>
        <time>2022-01-13T08:04:22Z</time>
      </trkpt>
      <trkpt lat="47.712433" lon="2.210167">
        <ele>173.0</ele>
        <time>2022-01-13T08:04:24Z</time>
      </trkpt>
      <trkpt lat="47.71244" lon="2.2101562">
        <ele>173.0</ele>
        <time>2022-01-13T08:04:25Z</time>
      </trkpt>
      <trkpt lat="47.71245" lon="2.210146">
        <ele>173.0</ele>
        <time>2022-01-13T08:04:26Z</time>
      </trkpt>
      <trkpt lat="47.71247" lon="2.2101262">
        <ele>172.0</ele>
        <time>2022-01-13T08:04:27Z</time>
      </trkpt>
      <trkpt lat="47.71247" lon="2.2101262">
        <ele>172.0</ele>
        <time>2022-01-13T08:04:27Z</time>
      </trkpt>
      <trkpt lat="47.71248" lon="2.2101212">
        <ele>172.0</ele>
        <time>2022-01-13T08:04:29Z</time>
      </trkpt>
      <trkpt lat="47.712494" lon="2.2101161">
        <ele>172.0</ele>
        <time>2022-01-13T08:04:31Z</time>
      </trkpt>
      <trkpt lat="47.7125" lon="2.210117">
        <ele>172.0</ele>
        <time>2022-01-13T08:04:32Z</time>
      </trkpt>
      <trkpt lat="47.71251" lon="2.2101192">
        <ele>171.0</ele>
        <time>2022-01-13T08:04:33Z</time>
      </trkpt>
      <trkpt lat="47.712517" lon="2.2101223">
        <ele>172.0</ele>
        <time>2022-01-13T08:04:34Z</time>
      </trkpt>
      <trkpt lat="47.71253" lon="2.210126">
        <ele>172.0</ele>
        <time>2022-01-13T08:04:35Z</time>
      </trkpt>
      <trkpt lat="47.712547" lon="2.2101252">
        <ele>171.0</ele>
        <time>2022-01-13T08:04:36Z</time>
      </trkpt>
      <trkpt lat="47.71256" lon="2.2101235">
        <ele>171.0</ele>
        <time>2022-01-13T08:04:37Z</time>
      </trkpt>
      <trkpt lat="47.712566" lon="2.210122">
        <ele>171.0</ele>
        <time>2022-01-13T08:04:38Z</time>
      </trkpt>
      <trkpt lat="47.712566" lon="2.210122">
        <ele>171.0</ele>
        <time>2022-01-13T08:04:38Z</time>
      </trkpt>
      <trkpt lat="47.712593" lon="2.2101145">
        <ele>171.0</ele>
        <time>2022-01-13T08:04:40Z</time>
      </trkpt>
      <trkpt lat="47.712593" lon="2.2101145">
        <ele>171.0</ele>
        <time>2022-01-13T08:04:40Z</time>
      </trkpt>
      <trkpt lat="47.712605" lon="2.2101128">
        <ele>171.0</ele>
        <time>2022-01-13T08:04:42Z</time>
      </trkpt>
      <trkpt lat="47.712624" lon="2.210108">
        <ele>171.0</ele>
        <time>2022-01-13T08:04:43Z</time>
      </trkpt>
      <trkpt lat="47.71263" lon="2.2101023">
        <ele>171.0</ele>
        <time>2022-01-13T08:04:44Z</time>
      </trkpt>
      <trkpt lat="47.712646" lon="2.2100976">
        <ele>171.0</ele>
        <time>2022-01-13T08:04:45Z</time>
      </trkpt>
      <trkpt lat="47.712658" lon="2.2100947">
        <ele>171.0</ele>
        <time>2022-01-13T08:04:46Z</time>
      </trkpt>
      <trkpt lat="47.712658" lon="2.2100947">
        <ele>171.0</ele>
        <time>2022-01-13T08:04:46Z</time>
      </trkpt>
      <trkpt lat="47.71268" lon="2.2100887">
        <ele>171.0</ele>
        <time>2022-01-13T08:04:48Z</time>
      </trkpt>
      <trkpt lat="47.712692" lon="2.210089">
        <ele>171.0</ele>
        <time>2022-01-13T08:04:49Z</time>
      </trkpt>
      <trkpt lat="47.712708" lon="2.210093">
        <ele>171.0</ele>
        <time>2022-01-13T08:04:50Z</time>
      </trkpt>
      <trkpt lat="47.71272" lon="2.210096">
        <ele>170.0</ele>
        <time>2022-01-13T08:04:51Z</time>
      </trkpt>
      <trkpt lat="47.71273" lon="2.210098">
        <ele>170.0</ele>
        <time>2022-01-13T08:04:52Z</time>
      </trkpt>
      <trkpt lat="47.712746" lon="2.2100964">
        <ele>170.0</ele>
        <time>2022-01-13T08:04:53Z</time>
      </trkpt>
      <trkpt lat="47.712757" lon="2.210094">
        <ele>170.0</ele>
        <time>2022-01-13T08:04:54Z</time>
      </trkpt>
      <trkpt lat="47.71277" lon="2.2100942">
        <ele>170.0</ele>
        <time>2022-01-13T08:04:55Z</time>
      </trkpt>
      <trkpt lat="47.712776" lon="2.2100973">
        <ele>170.0</ele>
        <time>2022-01-13T08:04:56Z</time>
      </trkpt>
      <trkpt lat="47.712788" lon="2.2100976">
        <ele>170.0</ele>
        <time>2022-01-13T08:04:57Z</time>
      </trkpt>
      <trkpt lat="47.7128" lon="2.2100952">
        <ele>170.0</ele>
        <time>2022-01-13T08:04:58Z</time>
      </trkpt>
      <trkpt lat="47.712807" lon="2.210091">
        <ele>170.0</ele>
        <time>2022-01-13T08:04:59Z</time>
      </trkpt>
      <trkpt lat="47.71282" lon="2.2100868">
        <ele>170.0</ele>
        <time>2022-01-13T08:05:00Z</time>
      </trkpt>
      <trkpt lat="47.71283" lon="2.2100804">
        <ele>170.0</ele>
        <time>2022-01-13T08:05:01Z</time>
      </trkpt>
      <trkpt lat="47.712845" lon="2.2100747">
        <ele>170.0</ele>
        <time>2022-01-13T08:05:02Z</time>
      </trkpt>
      <trkpt lat="47.712852" lon="2.2100725">
        <ele>170.0</ele>
        <time>2022-01-13T08:05:03Z</time>
      </trkpt>
      <trkpt lat="47.712864" lon="2.2100716">
        <ele>171.0</ele>
        <time>2022-01-13T08:05:04Z</time>
      </trkpt>
      <trkpt lat="47.71288" lon="2.2100708">
        <ele>171.0</ele>
        <time>2022-01-13T08:05:05Z</time>
      </trkpt>
      <trkpt lat="47.71289" lon="2.210065">
        <ele>171.0</ele>
        <time>2022-01-13T08:05:06Z</time>
      </trkpt>
      <trkpt lat="47.7129" lon="2.2100594">
        <ele>171.0</ele>
        <time>2022-01-13T08:05:07Z</time>
      </trkpt>
      <trkpt lat="47.71291" lon="2.2100575">
        <ele>171.0</ele>
        <time>2022-01-13T08:05:09Z</time>
      </trkpt>
      <trkpt lat="47.712925" lon="2.2100542">
        <ele>171.0</ele>
        <time>2022-01-13T08:05:09Z</time>
      </trkpt>
      <trkpt lat="47.712936" lon="2.2100554">
        <ele>171.0</ele>
        <time>2022-01-13T08:05:11Z</time>
      </trkpt>
      <trkpt lat="47.712944" lon="2.2100546">
        <ele>170.0</ele>
        <time>2022-01-13T08:05:11Z</time>
      </trkpt>
      <trkpt lat="47.712948" lon="2.2100523">
        <ele>171.0</ele>
        <time>2022-01-13T08:05:12Z</time>
      </trkpt>
      <trkpt lat="47.712948" lon="2.2100523">
        <ele>171.0</ele>
        <time>2022-01-13T08:05:12Z</time>
      </trkpt>
      <trkpt lat="47.712967" lon="2.210054">
        <ele>170.0</ele>
        <time>2022-01-13T08:05:15Z</time>
      </trkpt>
      <trkpt lat="47.712975" lon="2.2100563">
        <ele>170.0</ele>
        <time>2022-01-13T08:05:16Z</time>
      </trkpt>
      <trkpt lat="47.71298" lon="2.210056">
        <ele>171.0</ele>
        <time>2022-01-13T08:05:17Z</time>
      </trkpt>
      <trkpt lat="47.71299" lon="2.2100515">
        <ele>170.0</ele>
        <time>2022-01-13T08:05:18Z</time>
      </trkpt>
      <trkpt lat="47.712997" lon="2.2100463">
        <ele>170.0</ele>
        <time>2022-01-13T08:05:19Z</time>
      </trkpt>
      <trkpt lat="47.71301" lon="2.210045">
        <ele>170.0</ele>
        <time>2022-01-13T08:05:20Z</time>
      </trkpt>
      <trkpt lat="47.713017" lon="2.2100494">
        <ele>171.0</ele>
        <time>2022-01-13T08:05:21Z</time>
      </trkpt>
      <trkpt lat="47.713024" lon="2.2100515">
        <ele>171.0</ele>
        <time>2022-01-13T08:05:22Z</time>
      </trkpt>
      <trkpt lat="47.713036" lon="2.2100527">
        <ele>171.0</ele>
        <time>2022-01-13T08:05:23Z</time>
      </trkpt>
      <trkpt lat="47.713047" lon="2.2100532">
        <ele>171.0</ele>
        <time>2022-01-13T08:05:24Z</time>
      </trkpt>
      <trkpt lat="47.71306" lon="2.210049">
        <ele>171.0</ele>
        <time>2022-01-13T08:05:25Z</time>
      </trkpt>
      <trkpt lat="47.71307" lon="2.2100446">
        <ele>171.0</ele>
        <time>2022-01-13T08:05:26Z</time>
      </trkpt>
      <trkpt lat="47.713078" lon="2.2100413">
        <ele>171.0</ele>
        <time>2022-01-13T08:05:27Z</time>
      </trkpt>
      <trkpt lat="47.71309" lon="2.2100422">
        <ele>171.0</ele>
        <time>2022-01-13T08:05:28Z</time>
      </trkpt>
      <trkpt lat="47.7131" lon="2.210041">
        <ele>171.0</ele>
        <time>2022-01-13T08:05:29Z</time>
      </trkpt>
      <trkpt lat="47.713108" lon="2.210042">
        <ele>171.0</ele>
        <time>2022-01-13T08:05:30Z</time>
      </trkpt>
      <trkpt lat="47.71312" lon="2.2100418">
        <ele>171.0</ele>
        <time>2022-01-13T08:05:31Z</time>
      </trkpt>
      <trkpt lat="47.713127" lon="2.2100437">
        <ele>171.0</ele>
        <time>2022-01-13T08:05:32Z</time>
      </trkpt>
      <trkpt lat="47.71314" lon="2.210041">
        <ele>171.0</ele>
        <time>2022-01-13T08:05:33Z</time>
      </trkpt>
      <trkpt lat="47.71315" lon="2.2100346">
        <ele>171.0</ele>
        <time>2022-01-13T08:05:34Z</time>
      </trkpt>
      <trkpt lat="47.71316" lon="2.2100291">
        <ele>172.0</ele>
        <time>2022-01-13T08:05:35Z</time>
      </trkpt>
      <trkpt lat="47.71317" lon="2.2100248">
        <ele>172.0</ele>
        <time>2022-01-13T08:05:36Z</time>
      </trkpt>
      <trkpt lat="47.71318" lon="2.2100246">
        <ele>172.0</ele>
        <time>2022-01-13T08:05:37Z</time>
      </trkpt>
      <trkpt lat="47.71319" lon="2.2100239">
        <ele>172.0</ele>
        <time>2022-01-13T08:05:38Z</time>
      </trkpt>
      <trkpt lat="47.7132" lon="2.210022">
        <ele>172.0</ele>
        <time>2022-01-13T08:05:39Z</time>
      </trkpt>
      <trkpt lat="47.713215" lon="2.2100186">
        <ele>172.0</ele>
        <time>2022-01-13T08:05:40Z</time>
      </trkpt>
      <trkpt lat="47.713226" lon="2.2100172">
        <ele>172.0</ele>
        <time>2022-01-13T08:05:41Z</time>
      </trkpt>
      <trkpt lat="47.713234" lon="2.210014">
        <ele>171.0</ele>
        <time>2022-01-13T08:05:42Z</time>
      </trkpt>
      <trkpt lat="47.71324" lon="2.2100117">
        <ele>171.0</ele>
        <time>2022-01-13T08:05:43Z</time>
      </trkpt>
      <trkpt lat="47.713253" lon="2.210009">
        <ele>171.0</ele>
        <time>2022-01-13T08:05:44Z</time>
      </trkpt>
      <trkpt lat="47.713264" lon="2.2100098">
        <ele>171.0</ele>
        <time>2022-01-13T08:05:45Z</time>
      </trkpt>
      <trkpt lat="47.713272" lon="2.21001">
        <ele>170.0</ele>
        <time>2022-01-13T08:05:46Z</time>
      </trkpt>
      <trkpt lat="47.713284" lon="2.210006">
        <ele>170.0</ele>
        <time>2022-01-13T08:05:47Z</time>
      </trkpt>
      <trkpt lat="47.713295" lon="2.21001">
        <ele>170.0</ele>
        <time>2022-01-13T08:05:48Z</time>
      </trkpt>
      <trkpt lat="47.713306" lon="2.210012">
        <ele>170.0</ele>
        <time>2022-01-13T08:05:49Z</time>
      </trkpt>
      <trkpt lat="47.713314" lon="2.2100074">
        <ele>170.0</ele>
        <time>2022-01-13T08:05:50Z</time>
      </trkpt>
      <trkpt lat="47.713326" lon="2.2100017">
        <ele>170.0</ele>
        <time>2022-01-13T08:05:51Z</time>
      </trkpt>
      <trkpt lat="47.713337" lon="2.2099977">
        <ele>171.0</ele>
        <time>2022-01-13T08:05:52Z</time>
      </trkpt>
      <trkpt lat="47.713345" lon="2.209995">
        <ele>171.0</ele>
        <time>2022-01-13T08:05:53Z</time>
      </trkpt>
      <trkpt lat="47.713356" lon="2.2099936">
        <ele>171.0</ele>
        <time>2022-01-13T08:05:54Z</time>
      </trkpt>
      <trkpt lat="47.713367" lon="2.2099912">
        <ele>171.0</ele>
        <time>2022-01-13T08:05:55Z</time>
      </trkpt>
      <trkpt lat="47.71338" lon="2.2099879">
        <ele>171.0</ele>
        <time>2022-01-13T08:05:56Z</time>
      </trkpt>
      <trkpt lat="47.713387" lon="2.2099824">
        <ele>172.0</ele>
        <time>2022-01-13T08:05:57Z</time>
      </trkpt>
      <trkpt lat="47.713398" lon="2.2099805">
        <ele>171.0</ele>
        <time>2022-01-13T08:05:58Z</time>
      </trkpt>
      <trkpt lat="47.713406" lon="2.2099774">
        <ele>171.0</ele>
        <time>2022-01-13T08:05:59Z</time>
      </trkpt>
      <trkpt lat="47.713417" lon="2.2099771">
        <ele>171.0</ele>
        <time>2022-01-13T08:06:00Z</time>
      </trkpt>
      <trkpt lat="47.71343" lon="2.209973">
        <ele>171.0</ele>
        <time>2022-01-13T08:06:01Z</time>
      </trkpt>
      <trkpt lat="47.71344" lon="2.2099745">
        <ele>171.0</ele>
        <time>2022-01-13T08:06:02Z</time>
      </trkpt>
      <trkpt lat="47.71345" lon="2.2099702">
        <ele>171.0</ele>
        <time>2022-01-13T08:06:03Z</time>
      </trkpt>
      <trkpt lat="47.713463" lon="2.2099664">
        <ele>171.0</ele>
        <time>2022-01-13T08:06:04Z</time>
      </trkpt>
      <trkpt lat="47.713474" lon="2.2099638">
        <ele>171.0</ele>
        <time>2022-01-13T08:06:05Z</time>
      </trkpt>
      <trkpt lat="47.71348" lon="2.2099617">
        <ele>171.0</ele>
        <time>2022-01-13T08:06:06Z</time>
      </trkpt>
      <trkpt lat="47.713497" lon="2.209952">
        <ele>171.0</ele>
        <time>2022-01-13T08:06:07Z</time>
      </trkpt>
      <trkpt lat="47.713505" lon="2.2099445">
        <ele>171.0</ele>
        <time>2022-01-13T08:06:08Z</time>
      </trkpt>
      <trkpt lat="47.713516" lon="2.2099364">
        <ele>171.0</ele>
        <time>2022-01-13T08:06:09Z</time>
      </trkpt>
      <trkpt lat="47.713524" lon="2.2099283">
        <ele>171.0</ele>
        <time>2022-01-13T08:06:10Z</time>
      </trkpt>
      <trkpt lat="47.71353" lon="2.2099206">
        <ele>171.0</ele>
        <time>2022-01-13T08:06:11Z</time>
      </trkpt>
      <trkpt lat="47.71354" lon="2.209909">
        <ele>171.0</ele>
        <time>2022-01-13T08:06:12Z</time>
      </trkpt>
      <trkpt lat="47.713543" lon="2.2098954">
        <ele>171.0</ele>
        <time>2022-01-13T08:06:13Z</time>
      </trkpt>
      <trkpt lat="47.713547" lon="2.2098856">
        <ele>170.0</ele>
        <time>2022-01-13T08:06:14Z</time>
      </trkpt>
      <trkpt lat="47.713547" lon="2.209882">
        <ele>170.0</ele>
        <time>2022-01-13T08:06:15Z</time>
      </trkpt>
      <trkpt lat="47.71355" lon="2.2098718">
        <ele>169.0</ele>
        <time>2022-01-13T08:06:16Z</time>
      </trkpt>
      <trkpt lat="47.71356" lon="2.2098606">
        <ele>169.0</ele>
        <time>2022-01-13T08:06:17Z</time>
      </trkpt>
      <trkpt lat="47.713562" lon="2.2098505">
        <ele>169.0</ele>
        <time>2022-01-13T08:06:18Z</time>
      </trkpt>
      <trkpt lat="47.713566" lon="2.209837">
        <ele>168.0</ele>
        <time>2022-01-13T08:06:19Z</time>
      </trkpt>
      <trkpt lat="47.71357" lon="2.209823">
        <ele>168.0</ele>
        <time>2022-01-13T08:06:20Z</time>
      </trkpt>
      <trkpt lat="47.713573" lon="2.2098162">
        <ele>168.0</ele>
        <time>2022-01-13T08:06:21Z</time>
      </trkpt>
      <trkpt lat="47.713577" lon="2.209803">
        <ele>168.0</ele>
        <time>2022-01-13T08:06:22Z</time>
      </trkpt>
      <trkpt lat="47.71358" lon="2.2097888">
        <ele>168.0</ele>
        <time>2022-01-13T08:06:23Z</time>
      </trkpt>
      <trkpt lat="47.71359" lon="2.2097766">
        <ele>168.0</ele>
        <time>2022-01-13T08:06:24Z</time>
      </trkpt>
      <trkpt lat="47.713593" lon="2.2097578">
        <ele>168.0</ele>
        <time>2022-01-13T08:06:25Z</time>
      </trkpt>
      <trkpt lat="47.713596" lon="2.209739">
        <ele>169.0</ele>
        <time>2022-01-13T08:06:26Z</time>
      </trkpt>
      <trkpt lat="47.7136" lon="2.2097197">
        <ele>169.0</ele>
        <time>2022-01-13T08:06:27Z</time>
      </trkpt>
      <trkpt lat="47.713608" lon="2.2097063">
        <ele>169.0</ele>
        <time>2022-01-13T08:06:28Z</time>
      </trkpt>
      <trkpt lat="47.71361" lon="2.2096891">
        <ele>169.0</ele>
        <time>2022-01-13T08:06:29Z</time>
      </trkpt>
      <trkpt lat="47.713615" lon="2.209671">
        <ele>169.0</ele>
        <time>2022-01-13T08:06:30Z</time>
      </trkpt>
      <trkpt lat="47.713615" lon="2.2096543">
        <ele>169.0</ele>
        <time>2022-01-13T08:06:31Z</time>
      </trkpt>
      <trkpt lat="47.71362" lon="2.209637">
        <ele>169.0</ele>
        <time>2022-01-13T08:06:32Z</time>
      </trkpt>
      <trkpt lat="47.713627" lon="2.2096193">
        <ele>170.0</ele>
        <time>2022-01-13T08:06:33Z</time>
      </trkpt>
      <trkpt lat="47.71363" lon="2.2096045">
        <ele>171.0</ele>
        <time>2022-01-13T08:06:34Z</time>
      </trkpt>
      <trkpt lat="47.713634" lon="2.2095869">
        <ele>171.0</ele>
        <time>2022-01-13T08:06:35Z</time>
      </trkpt>
      <trkpt lat="47.71364" lon="2.209566">
        <ele>171.0</ele>
        <time>2022-01-13T08:06:36Z</time>
      </trkpt>
      <trkpt lat="47.713642" lon="2.209548">
        <ele>171.0</ele>
        <time>2022-01-13T08:06:37Z</time>
      </trkpt>
      <trkpt lat="47.71365" lon="2.2095299">
        <ele>171.0</ele>
        <time>2022-01-13T08:06:38Z</time>
      </trkpt>
      <trkpt lat="47.713654" lon="2.2095127">
        <ele>171.0</ele>
        <time>2022-01-13T08:06:39Z</time>
      </trkpt>
      <trkpt lat="47.713654" lon="2.209494">
        <ele>171.0</ele>
        <time>2022-01-13T08:06:40Z</time>
      </trkpt>
      <trkpt lat="47.713657" lon="2.209478">
        <ele>171.0</ele>
        <time>2022-01-13T08:06:41Z</time>
      </trkpt>
      <trkpt lat="47.71366" lon="2.20946">
        <ele>171.0</ele>
        <time>2022-01-13T08:06:42Z</time>
      </trkpt>
      <trkpt lat="47.713665" lon="2.2094426">
        <ele>171.0</ele>
        <time>2022-01-13T08:06:43Z</time>
      </trkpt>
      <trkpt lat="47.71367" lon="2.2094269">
        <ele>171.0</ele>
        <time>2022-01-13T08:06:44Z</time>
      </trkpt>
      <trkpt lat="47.713673" lon="2.2094092">
        <ele>171.0</ele>
        <time>2022-01-13T08:06:45Z</time>
      </trkpt>
      <trkpt lat="47.713676" lon="2.2093968">
        <ele>171.0</ele>
        <time>2022-01-13T08:06:46Z</time>
      </trkpt>
      <trkpt lat="47.713676" lon="2.2093763">
        <ele>171.0</ele>
        <time>2022-01-13T08:06:47Z</time>
      </trkpt>
      <trkpt lat="47.713684" lon="2.2093587">
        <ele>172.0</ele>
        <time>2022-01-13T08:06:48Z</time>
      </trkpt>
      <trkpt lat="47.713684" lon="2.209345">
        <ele>172.0</ele>
        <time>2022-01-13T08:06:49Z</time>
      </trkpt>
      <trkpt lat="47.713688" lon="2.2093277">
        <ele>172.0</ele>
        <time>2022-01-13T08:06:50Z</time>
      </trkpt>
      <trkpt lat="47.713688" lon="2.2093277">
        <ele>172.0</ele>
        <time>2022-01-13T08:06:51Z</time>
      </trkpt>
      <trkpt lat="47.71369" lon="2.2093205">
        <ele>171.0</ele>
        <time>2022-01-13T08:06:52Z</time>
      </trkpt>
      <trkpt lat="47.713696" lon="2.2093077">
        <ele>171.0</ele>
        <time>2022-01-13T08:06:53Z</time>
      </trkpt>
      <trkpt lat="47.713696" lon="2.2092936">
        <ele>171.0</ele>
        <time>2022-01-13T08:06:54Z</time>
      </trkpt>
      <trkpt lat="47.7137" lon="2.2092807">
        <ele>171.0</ele>
        <time>2022-01-13T08:06:55Z</time>
      </trkpt>
      <trkpt lat="47.713703" lon="2.2092671">
        <ele>171.0</ele>
        <time>2022-01-13T08:06:56Z</time>
      </trkpt>
      <trkpt lat="47.713707" lon="2.2092528">
        <ele>171.0</ele>
        <time>2022-01-13T08:06:57Z</time>
      </trkpt>
      <trkpt lat="47.71371" lon="2.2092385">
        <ele>171.0</ele>
        <time>2022-01-13T08:06:58Z</time>
      </trkpt>
      <trkpt lat="47.71372" lon="2.2092223">
        <ele>171.0</ele>
        <time>2022-01-13T08:06:59Z</time>
      </trkpt>
      <trkpt lat="47.713722" lon="2.209212">
        <ele>171.0</ele>
        <time>2022-01-13T08:07:00Z</time>
      </trkpt>
      <trkpt lat="47.713722" lon="2.2091954">
        <ele>171.0</ele>
        <time>2022-01-13T08:07:01Z</time>
      </trkpt>
      <trkpt lat="47.71373" lon="2.2091808">
        <ele>171.0</ele>
        <time>2022-01-13T08:07:02Z</time>
      </trkpt>
      <trkpt lat="47.713734" lon="2.2091665">
        <ele>171.0</ele>
        <time>2022-01-13T08:07:03Z</time>
      </trkpt>
      <trkpt lat="47.713734" lon="2.209152">
        <ele>172.0</ele>
        <time>2022-01-13T08:07:04Z</time>
      </trkpt>
      <trkpt lat="47.713737" lon="2.2091393">
        <ele>172.0</ele>
        <time>2022-01-13T08:07:05Z</time>
      </trkpt>
      <trkpt lat="47.71374" lon="2.2091224">
        <ele>172.0</ele>
        <time>2022-01-13T08:07:06Z</time>
      </trkpt>
      <trkpt lat="47.713745" lon="2.2091043">
        <ele>172.0</ele>
        <time>2022-01-13T08:07:07Z</time>
      </trkpt>
      <trkpt lat="47.71375" lon="2.209086">
        <ele>172.0</ele>
        <time>2022-01-13T08:07:08Z</time>
      </trkpt>
      <trkpt lat="47.713753" lon="2.2090647">
        <ele>172.0</ele>
        <time>2022-01-13T08:07:09Z</time>
      </trkpt>
      <trkpt lat="47.713753" lon="2.2090497">
        <ele>172.0</ele>
        <time>2022-01-13T08:07:10Z</time>
      </trkpt>
      <trkpt lat="47.713757" lon="2.2090347">
        <ele>172.0</ele>
        <time>2022-01-13T08:07:11Z</time>
      </trkpt>
      <trkpt lat="47.71376" lon="2.2090168">
        <ele>172.0</ele>
        <time>2022-01-13T08:07:12Z</time>
      </trkpt>
      <trkpt lat="47.713764" lon="2.2090018">
        <ele>172.0</ele>
        <time>2022-01-13T08:07:13Z</time>
      </trkpt>
      <trkpt lat="47.713768" lon="2.2089865">
        <ele>172.0</ele>
        <time>2022-01-13T08:07:14Z</time>
      </trkpt>
      <trkpt lat="47.713768" lon="2.2089703">
        <ele>172.0</ele>
        <time>2022-01-13T08:07:15Z</time>
      </trkpt>
      <trkpt lat="47.71377" lon="2.2089527">
        <ele>172.0</ele>
        <time>2022-01-13T08:07:16Z</time>
      </trkpt>
      <trkpt lat="47.713776" lon="2.2089362">
        <ele>172.0</ele>
        <time>2022-01-13T08:07:17Z</time>
      </trkpt>
      <trkpt lat="47.71378" lon="2.2089198">
        <ele>172.0</ele>
        <time>2022-01-13T08:07:18Z</time>
      </trkpt>
      <trkpt lat="47.71378" lon="2.2089014">
        <ele>172.0</ele>
        <time>2022-01-13T08:07:19Z</time>
      </trkpt>
      <trkpt lat="47.713783" lon="2.208884">
        <ele>172.0</ele>
        <time>2022-01-13T08:07:20Z</time>
      </trkpt>
      <trkpt lat="47.713787" lon="2.2088726">
        <ele>173.0</ele>
        <time>2022-01-13T08:07:21Z</time>
      </trkpt>
      <trkpt lat="47.713787" lon="2.2088597">
        <ele>173.0</ele>
        <time>2022-01-13T08:07:22Z</time>
      </trkpt>
      <trkpt lat="47.71379" lon="2.2088442">
        <ele>173.0</ele>
        <time>2022-01-13T08:07:23Z</time>
      </trkpt>
      <trkpt lat="47.71379" lon="2.2088263">
        <ele>173.0</ele>
        <time>2022-01-13T08:07:24Z</time>
      </trkpt>
      <trkpt lat="47.713795" lon="2.2088077">
        <ele>173.0</ele>
        <time>2022-01-13T08:07:25Z</time>
      </trkpt>
      <trkpt lat="47.713795" lon="2.2087884">
        <ele>173.0</ele>
        <time>2022-01-13T08:07:26Z</time>
      </trkpt>
      <trkpt lat="47.7138" lon="2.2087743">
        <ele>173.0</ele>
        <time>2022-01-13T08:07:27Z</time>
      </trkpt>
      <trkpt lat="47.713802" lon="2.2087553">
        <ele>173.0</ele>
        <time>2022-01-13T08:07:28Z</time>
      </trkpt>
      <trkpt lat="47.713806" lon="2.2087395">
        <ele>173.0</ele>
        <time>2022-01-13T08:07:29Z</time>
      </trkpt>
      <trkpt lat="47.713814" lon="2.208723">
        <ele>173.0</ele>
        <time>2022-01-13T08:07:30Z</time>
      </trkpt>
      <trkpt lat="47.71382" lon="2.2087057">
        <ele>173.0</ele>
        <time>2022-01-13T08:07:31Z</time>
      </trkpt>
      <trkpt lat="47.713825" lon="2.208687">
        <ele>173.0</ele>
        <time>2022-01-13T08:07:32Z</time>
      </trkpt>
      <trkpt lat="47.71383" lon="2.2086706">
        <ele>173.0</ele>
        <time>2022-01-13T08:07:33Z</time>
      </trkpt>
      <trkpt lat="47.713833" lon="2.2086542">
        <ele>173.0</ele>
        <time>2022-01-13T08:07:34Z</time>
      </trkpt>
      <trkpt lat="47.713833" lon="2.2086394">
        <ele>173.0</ele>
        <time>2022-01-13T08:07:35Z</time>
      </trkpt>
      <trkpt lat="47.713837" lon="2.2086275">
        <ele>173.0</ele>
        <time>2022-01-13T08:07:36Z</time>
      </trkpt>
      <trkpt lat="47.713844" lon="2.2086127">
        <ele>173.0</ele>
        <time>2022-01-13T08:07:37Z</time>
      </trkpt>
      <trkpt lat="47.71385" lon="2.2085984">
        <ele>173.0</ele>
        <time>2022-01-13T08:07:38Z</time>
      </trkpt>
      <trkpt lat="47.713852" lon="2.2085805">
        <ele>172.0</ele>
        <time>2022-01-13T08:07:39Z</time>
      </trkpt>
      <trkpt lat="47.71386" lon="2.2085648">
        <ele>172.0</ele>
        <time>2022-01-13T08:07:40Z</time>
      </trkpt>
      <trkpt lat="47.71386" lon="2.2085476">
        <ele>172.0</ele>
        <time>2022-01-13T08:07:41Z</time>
      </trkpt>
      <trkpt lat="47.713863" lon="2.2085307">
        <ele>172.0</ele>
        <time>2022-01-13T08:07:42Z</time>
      </trkpt>
      <trkpt lat="47.713867" lon="2.2085123">
        <ele>171.0</ele>
        <time>2022-01-13T08:07:43Z</time>
      </trkpt>
      <trkpt lat="47.71387" lon="2.2084982">
        <ele>171.0</ele>
        <time>2022-01-13T08:07:44Z</time>
      </trkpt>
      <trkpt lat="47.713875" lon="2.2084801">
        <ele>171.0</ele>
        <time>2022-01-13T08:07:45Z</time>
      </trkpt>
      <trkpt lat="47.71388" lon="2.208465">
        <ele>171.0</ele>
        <time>2022-01-13T08:07:46Z</time>
      </trkpt>
      <trkpt lat="47.713882" lon="2.208453">
        <ele>171.0</ele>
        <time>2022-01-13T08:07:47Z</time>
      </trkpt>
      <trkpt lat="47.713886" lon="2.2084386">
        <ele>171.0</ele>
        <time>2022-01-13T08:07:48Z</time>
      </trkpt>
      <trkpt lat="47.71389" lon="2.2084267">
        <ele>171.0</ele>
        <time>2022-01-13T08:07:49Z</time>
      </trkpt>
      <trkpt lat="47.71389" lon="2.2084208">
        <ele>172.0</ele>
        <time>2022-01-13T08:07:50Z</time>
      </trkpt>
      <trkpt lat="47.71389" lon="2.208416">
        <ele>172.0</ele>
        <time>2022-01-13T08:07:51Z</time>
      </trkpt>
      <trkpt lat="47.713894" lon="2.2084079">
        <ele>172.0</ele>
        <time>2022-01-13T08:07:52Z</time>
      </trkpt>
      <trkpt lat="47.713894" lon="2.2083929">
        <ele>172.0</ele>
        <time>2022-01-13T08:07:53Z</time>
      </trkpt>
      <trkpt lat="47.713898" lon="2.2083755">
        <ele>172.0</ele>
        <time>2022-01-13T08:07:54Z</time>
      </trkpt>
      <trkpt lat="47.713905" lon="2.2083664">
        <ele>172.0</ele>
        <time>2022-01-13T08:07:55Z</time>
      </trkpt>
      <trkpt lat="47.713905" lon="2.2083533">
        <ele>172.0</ele>
        <time>2022-01-13T08:07:56Z</time>
      </trkpt>
      <trkpt lat="47.71391" lon="2.208335">
        <ele>172.0</ele>
        <time>2022-01-13T08:07:57Z</time>
      </trkpt>
      <trkpt lat="47.713913" lon="2.2083158">
        <ele>171.0</ele>
        <time>2022-01-13T08:07:58Z</time>
      </trkpt>
      <trkpt lat="47.71392" lon="2.2082992">
        <ele>171.0</ele>
        <time>2022-01-13T08:07:59Z</time>
      </trkpt>
      <trkpt lat="47.713924" lon="2.208281">
        <ele>172.0</ele>
        <time>2022-01-13T08:08:00Z</time>
      </trkpt>
      <trkpt lat="47.713924" lon="2.2082622">
        <ele>172.0</ele>
        <time>2022-01-13T08:08:01Z</time>
      </trkpt>
      <trkpt lat="47.71393" lon="2.2082405">
        <ele>171.0</ele>
        <time>2022-01-13T08:08:02Z</time>
      </trkpt>
      <trkpt lat="47.713932" lon="2.2082229">
        <ele>171.0</ele>
        <time>2022-01-13T08:08:03Z</time>
      </trkpt>
      <trkpt lat="47.71394" lon="2.2081892">
        <ele>172.0</ele>
        <time>2022-01-13T08:08:05Z</time>
      </trkpt>
      <trkpt lat="47.713947" lon="2.2081738">
        <ele>172.0</ele>
        <time>2022-01-13T08:08:06Z</time>
      </trkpt>
      <trkpt lat="47.713947" lon="2.208161">
        <ele>172.0</ele>
        <time>2022-01-13T08:08:07Z</time>
      </trkpt>
      <trkpt lat="47.713947" lon="2.2081482">
        <ele>172.0</ele>
        <time>2022-01-13T08:08:08Z</time>
      </trkpt>
      <trkpt lat="47.71395" lon="2.208133">
        <ele>172.0</ele>
        <time>2022-01-13T08:08:09Z</time>
      </trkpt>
      <trkpt lat="47.71395" lon="2.2081134">
        <ele>172.0</ele>
        <time>2022-01-13T08:08:10Z</time>
      </trkpt>
      <trkpt lat="47.713955" lon="2.2080965">
        <ele>172.0</ele>
        <time>2022-01-13T08:08:11Z</time>
      </trkpt>
      <trkpt lat="47.713955" lon="2.2080815">
        <ele>171.0</ele>
        <time>2022-01-13T08:08:12Z</time>
      </trkpt>
      <trkpt lat="47.713966" lon="2.2080421">
        <ele>171.0</ele>
        <time>2022-01-13T08:08:14Z</time>
      </trkpt>
      <trkpt lat="47.71397" lon="2.2080255">
        <ele>171.0</ele>
        <time>2022-01-13T08:08:15Z</time>
      </trkpt>
      <trkpt lat="47.713974" lon="2.2080083">
        <ele>171.0</ele>
        <time>2022-01-13T08:08:16Z</time>
      </trkpt>
      <trkpt lat="47.713974" lon="2.2079926">
        <ele>171.0</ele>
        <time>2022-01-13T08:08:17Z</time>
      </trkpt>
      <trkpt lat="47.713978" lon="2.2079763">
        <ele>170.0</ele>
        <time>2022-01-13T08:08:18Z</time>
      </trkpt>
      <trkpt lat="47.713985" lon="2.2079554">
        <ele>170.0</ele>
        <time>2022-01-13T08:08:19Z</time>
      </trkpt>
      <trkpt lat="47.71399" lon="2.2079372">
        <ele>170.0</ele>
        <time>2022-01-13T08:08:20Z</time>
      </trkpt>
      <trkpt lat="47.713997" lon="2.2079186">
        <ele>170.0</ele>
        <time>2022-01-13T08:08:21Z</time>
      </trkpt>
      <trkpt lat="47.714" lon="2.2079022">
        <ele>170.0</ele>
        <time>2022-01-13T08:08:22Z</time>
      </trkpt>
      <trkpt lat="47.71401" lon="2.2078803">
        <ele>170.0</ele>
        <time>2022-01-13T08:08:23Z</time>
      </trkpt>
      <trkpt lat="47.714012" lon="2.2078626">
        <ele>170.0</ele>
        <time>2022-01-13T08:08:24Z</time>
      </trkpt>
      <trkpt lat="47.714012" lon="2.2078485">
        <ele>169.0</ele>
        <time>2022-01-13T08:08:25Z</time>
      </trkpt>
      <trkpt lat="47.714016" lon="2.2078328">
        <ele>169.0</ele>
        <time>2022-01-13T08:08:26Z</time>
      </trkpt>
      <trkpt lat="47.71402" lon="2.2078207">
        <ele>169.0</ele>
        <time>2022-01-13T08:08:27Z</time>
      </trkpt>
      <trkpt lat="47.71402" lon="2.207804">
        <ele>169.0</ele>
        <time>2022-01-13T08:08:28Z</time>
      </trkpt>
      <trkpt lat="47.714027" lon="2.20779">
        <ele>169.0</ele>
        <time>2022-01-13T08:08:29Z</time>
      </trkpt>
      <trkpt lat="47.71403" lon="2.207777">
        <ele>169.0</ele>
        <time>2022-01-13T08:08:30Z</time>
      </trkpt>
      <trkpt lat="47.714035" lon="2.2077649">
        <ele>169.0</ele>
        <time>2022-01-13T08:08:31Z</time>
      </trkpt>
      <trkpt lat="47.71404" lon="2.207751">
        <ele>168.0</ele>
        <time>2022-01-13T08:08:32Z</time>
      </trkpt>
      <trkpt lat="47.714043" lon="2.2077384">
        <ele>168.0</ele>
        <time>2022-01-13T08:08:33Z</time>
      </trkpt>
      <trkpt lat="47.714046" lon="2.2077222">
        <ele>169.0</ele>
        <time>2022-01-13T08:08:34Z</time>
      </trkpt>
      <trkpt lat="47.71405" lon="2.2077096">
        <ele>169.0</ele>
        <time>2022-01-13T08:08:35Z</time>
      </trkpt>
      <trkpt lat="47.714054" lon="2.2076948">
        <ele>169.0</ele>
        <time>2022-01-13T08:08:36Z</time>
      </trkpt>
      <trkpt lat="47.714054" lon="2.2076774">
        <ele>169.0</ele>
        <time>2022-01-13T08:08:37Z</time>
      </trkpt>
      <trkpt lat="47.714058" lon="2.2076604">
        <ele>168.0</ele>
        <time>2022-01-13T08:08:38Z</time>
      </trkpt>
      <trkpt lat="47.71406" lon="2.2076445">
        <ele>168.0</ele>
        <time>2022-01-13T08:08:39Z</time>
      </trkpt>
      <trkpt lat="47.714066" lon="2.207631">
        <ele>168.0</ele>
        <time>2022-01-13T08:08:40Z</time>
      </trkpt>
      <trkpt lat="47.714066" lon="2.2076166">
        <ele>168.0</ele>
        <time>2022-01-13T08:08:41Z</time>
      </trkpt>
      <trkpt lat="47.714073" lon="2.2075996">
        <ele>169.0</ele>
        <time>2022-01-13T08:08:42Z</time>
      </trkpt>
      <trkpt lat="47.714077" lon="2.207585">
        <ele>169.0</ele>
        <time>2022-01-13T08:08:43Z</time>
      </trkpt>
      <trkpt lat="47.71408" lon="2.2075686">
        <ele>169.0</ele>
        <time>2022-01-13T08:08:44Z</time>
      </trkpt>
      <trkpt lat="47.714085" lon="2.2075508">
        <ele>170.0</ele>
        <time>2022-01-13T08:08:45Z</time>
      </trkpt>
      <trkpt lat="47.714085" lon="2.207536">
        <ele>169.0</ele>
        <time>2022-01-13T08:08:46Z</time>
      </trkpt>
      <trkpt lat="47.714085" lon="2.2075188">
        <ele>170.0</ele>
        <time>2022-01-13T08:08:47Z</time>
      </trkpt>
      <trkpt lat="47.71409" lon="2.207504">
        <ele>170.0</ele>
        <time>2022-01-13T08:08:48Z</time>
      </trkpt>
      <trkpt lat="47.714092" lon="2.2074897">
        <ele>170.0</ele>
        <time>2022-01-13T08:08:49Z</time>
      </trkpt>
      <trkpt lat="47.714096" lon="2.207475">
        <ele>169.0</ele>
        <time>2022-01-13T08:08:50Z</time>
      </trkpt>
      <trkpt lat="47.714104" lon="2.2074573">
        <ele>169.0</ele>
        <time>2022-01-13T08:08:51Z</time>
      </trkpt>
      <trkpt lat="47.714108" lon="2.2074392">
        <ele>169.0</ele>
        <time>2022-01-13T08:08:52Z</time>
      </trkpt>
      <trkpt lat="47.71411" lon="2.2074196">
        <ele>169.0</ele>
        <time>2022-01-13T08:08:53Z</time>
      </trkpt>
      <trkpt lat="47.71412" lon="2.2073994">
        <ele>169.0</ele>
        <time>2022-01-13T08:08:54Z</time>
      </trkpt>
      <trkpt lat="47.71412" lon="2.207384">
        <ele>169.0</ele>
        <time>2022-01-13T08:08:55Z</time>
      </trkpt>
      <trkpt lat="47.714123" lon="2.2073696">
        <ele>169.0</ele>
        <time>2022-01-13T08:08:56Z</time>
      </trkpt>
      <trkpt lat="47.714123" lon="2.2073576">
        <ele>169.0</ele>
        <time>2022-01-13T08:08:57Z</time>
      </trkpt>
      <trkpt lat="47.71413" lon="2.2073457">
        <ele>169.0</ele>
        <time>2022-01-13T08:08:58Z</time>
      </trkpt>
      <trkpt lat="47.714134" lon="2.2073295">
        <ele>169.0</ele>
        <time>2022-01-13T08:08:59Z</time>
      </trkpt>
      <trkpt lat="47.71414" lon="2.2073147">
        <ele>169.0</ele>
        <time>2022-01-13T08:09:00Z</time>
      </trkpt>
      <trkpt lat="47.714146" lon="2.2072961">
        <ele>169.0</ele>
        <time>2022-01-13T08:09:01Z</time>
      </trkpt>
      <trkpt lat="47.71415" lon="2.2072783">
        <ele>169.0</ele>
        <time>2022-01-13T08:09:02Z</time>
      </trkpt>
      <trkpt lat="47.71415" lon="2.2072608">
        <ele>169.0</ele>
        <time>2022-01-13T08:09:03Z</time>
      </trkpt>
      <trkpt lat="47.714153" lon="2.207238">
        <ele>168.0</ele>
        <time>2022-01-13T08:09:04Z</time>
      </trkpt>
      <trkpt lat="47.714157" lon="2.207218">
        <ele>168.0</ele>
        <time>2022-01-13T08:09:05Z</time>
      </trkpt>
      <trkpt lat="47.71416" lon="2.207197">
        <ele>168.0</ele>
        <time>2022-01-13T08:09:06Z</time>
      </trkpt>
      <trkpt lat="47.714165" lon="2.2071836">
        <ele>168.0</ele>
        <time>2022-01-13T08:09:07Z</time>
      </trkpt>
      <trkpt lat="47.714172" lon="2.207166">
        <ele>168.0</ele>
        <time>2022-01-13T08:09:08Z</time>
      </trkpt>
      <trkpt lat="47.714176" lon="2.2071536">
        <ele>168.0</ele>
        <time>2022-01-13T08:09:09Z</time>
      </trkpt>
      <trkpt lat="47.71418" lon="2.2071407">
        <ele>168.0</ele>
        <time>2022-01-13T08:09:10Z</time>
      </trkpt>
      <trkpt lat="47.714184" lon="2.207131">
        <ele>169.0</ele>
        <time>2022-01-13T08:09:11Z</time>
      </trkpt>
      <trkpt lat="47.714188" lon="2.2071154">
        <ele>169.0</ele>
        <time>2022-01-13T08:09:12Z</time>
      </trkpt>
      <trkpt lat="47.71419" lon="2.2071018">
        <ele>169.0</ele>
        <time>2022-01-13T08:09:13Z</time>
      </trkpt>
      <trkpt lat="47.714195" lon="2.2070932">
        <ele>169.0</ele>
        <time>2022-01-13T08:09:14Z</time>
      </trkpt>
      <trkpt lat="47.714195" lon="2.2070835">
        <ele>169.0</ele>
        <time>2022-01-13T08:09:15Z</time>
      </trkpt>
      <trkpt lat="47.714195" lon="2.207074">
        <ele>169.0</ele>
        <time>2022-01-13T08:09:16Z</time>
      </trkpt>
      <trkpt lat="47.7142" lon="2.2070603">
        <ele>169.0</ele>
        <time>2022-01-13T08:09:17Z</time>
      </trkpt>
      <trkpt lat="47.7142" lon="2.2070496">
        <ele>169.0</ele>
        <time>2022-01-13T08:09:18Z</time>
      </trkpt>
      <trkpt lat="47.7142" lon="2.2070339">
        <ele>169.0</ele>
        <time>2022-01-13T08:09:19Z</time>
      </trkpt>
      <trkpt lat="47.714203" lon="2.2070193">
        <ele>169.0</ele>
        <time>2022-01-13T08:09:20Z</time>
      </trkpt>
      <trkpt lat="47.714203" lon="2.2069979">
        <ele>169.0</ele>
        <time>2022-01-13T08:09:21Z</time>
      </trkpt>
      <trkpt lat="47.714207" lon="2.2069783">
        <ele>169.0</ele>
        <time>2022-01-13T08:09:22Z</time>
      </trkpt>
      <trkpt lat="47.714207" lon="2.2069662">
        <ele>169.0</ele>
        <time>2022-01-13T08:09:23Z</time>
      </trkpt>
      <trkpt lat="47.714214" lon="2.2069526">
        <ele>169.0</ele>
        <time>2022-01-13T08:09:24Z</time>
      </trkpt>
      <trkpt lat="47.714222" lon="2.2069354">
        <ele>168.0</ele>
        <time>2022-01-13T08:09:25Z</time>
      </trkpt>
      <trkpt lat="47.714226" lon="2.2069247">
        <ele>168.0</ele>
        <time>2022-01-13T08:09:26Z</time>
      </trkpt>
      <trkpt lat="47.714233" lon="2.206916">
        <ele>168.0</ele>
        <time>2022-01-13T08:09:27Z</time>
      </trkpt>
      <trkpt lat="47.714237" lon="2.2069058">
        <ele>169.0</ele>
        <time>2022-01-13T08:09:28Z</time>
      </trkpt>
      <trkpt lat="47.71424" lon="2.206892">
        <ele>169.0</ele>
        <time>2022-01-13T08:09:29Z</time>
      </trkpt>
      <trkpt lat="47.714245" lon="2.2068732">
        <ele>168.0</ele>
        <time>2022-01-13T08:09:30Z</time>
      </trkpt>
      <trkpt lat="47.71425" lon="2.2068563">
        <ele>168.0</ele>
        <time>2022-01-13T08:09:31Z</time>
      </trkpt>
      <trkpt lat="47.71425" lon="2.2068448">
        <ele>168.0</ele>
        <time>2022-01-13T08:09:32Z</time>
      </trkpt>
      <trkpt lat="47.714252" lon="2.2068427">
        <ele>168.0</ele>
        <time>2022-01-13T08:09:33Z</time>
      </trkpt>
      <trkpt lat="47.714264" lon="2.2068346">
        <ele>168.0</ele>
        <time>2022-01-13T08:09:34Z</time>
      </trkpt>
      <trkpt lat="47.71428" lon="2.2068245">
        <ele>168.0</ele>
        <time>2022-01-13T08:09:35Z</time>
      </trkpt>
      <trkpt lat="47.71429" lon="2.2068114">
        <ele>168.0</ele>
        <time>2022-01-13T08:09:36Z</time>
      </trkpt>
      <trkpt lat="47.71431" lon="2.2067783">
        <ele>168.0</ele>
        <time>2022-01-13T08:09:38Z</time>
      </trkpt>
      <trkpt lat="47.714314" lon="2.2067583">
        <ele>167.0</ele>
        <time>2022-01-13T08:09:39Z</time>
      </trkpt>
      <trkpt lat="47.714317" lon="2.2067401">
        <ele>167.0</ele>
        <time>2022-01-13T08:09:40Z</time>
      </trkpt>
      <trkpt lat="47.71432" lon="2.206718">
        <ele>167.0</ele>
        <time>2022-01-13T08:09:41Z</time>
      </trkpt>
      <trkpt lat="47.71433" lon="2.2066984">
        <ele>167.0</ele>
        <time>2022-01-13T08:09:42Z</time>
      </trkpt>
      <trkpt lat="47.714333" lon="2.2066777">
        <ele>166.0</ele>
        <time>2022-01-13T08:09:43Z</time>
      </trkpt>
      <trkpt lat="47.714336" lon="2.2066565">
        <ele>166.0</ele>
        <time>2022-01-13T08:09:44Z</time>
      </trkpt>
      <trkpt lat="47.71434" lon="2.2066345">
        <ele>166.0</ele>
        <time>2022-01-13T08:09:45Z</time>
      </trkpt>
      <trkpt lat="47.714344" lon="2.206615">
        <ele>166.0</ele>
        <time>2022-01-13T08:09:46Z</time>
      </trkpt>
      <trkpt lat="47.714348" lon="2.2065966">
        <ele>166.0</ele>
        <time>2022-01-13T08:09:47Z</time>
      </trkpt>
      <trkpt lat="47.71435" lon="2.2065773">
        <ele>166.0</ele>
        <time>2022-01-13T08:09:48Z</time>
      </trkpt>
      <trkpt lat="47.71436" lon="2.206555">
        <ele>166.0</ele>
        <time>2022-01-13T08:09:49Z</time>
      </trkpt>
      <trkpt lat="47.714367" lon="2.2065344">
        <ele>165.0</ele>
        <time>2022-01-13T08:09:50Z</time>
      </trkpt>
      <trkpt lat="47.714375" lon="2.206519">
        <ele>165.0</ele>
        <time>2022-01-13T08:09:51Z</time>
      </trkpt>
      <trkpt lat="47.71438" lon="2.2064977">
        <ele>165.0</ele>
        <time>2022-01-13T08:09:52Z</time>
      </trkpt>
      <trkpt lat="47.714386" lon="2.2064767">
        <ele>166.0</ele>
        <time>2022-01-13T08:09:53Z</time>
      </trkpt>
      <trkpt lat="47.714397" lon="2.2064645">
        <ele>165.0</ele>
        <time>2022-01-13T08:09:54Z</time>
      </trkpt>
      <trkpt lat="47.714405" lon="2.206466">
        <ele>165.0</ele>
        <time>2022-01-13T08:09:55Z</time>
      </trkpt>
      <trkpt lat="47.71441" lon="2.2064579">
        <ele>165.0</ele>
        <time>2022-01-13T08:09:56Z</time>
      </trkpt>
      <trkpt lat="47.714417" lon="2.2064543">
        <ele>165.0</ele>
        <time>2022-01-13T08:09:57Z</time>
      </trkpt>
      <trkpt lat="47.714428" lon="2.206449">
        <ele>165.0</ele>
        <time>2022-01-13T08:09:58Z</time>
      </trkpt>
      <trkpt lat="47.71444" lon="2.206448">
        <ele>165.0</ele>
        <time>2022-01-13T08:09:59Z</time>
      </trkpt>
      <trkpt lat="47.714455" lon="2.2064464">
        <ele>166.0</ele>
        <time>2022-01-13T08:10:00Z</time>
      </trkpt>
      <trkpt lat="47.714462" lon="2.206445">
        <ele>166.0</ele>
        <time>2022-01-13T08:10:01Z</time>
      </trkpt>
      <trkpt lat="47.714462" lon="2.2064443">
        <ele>166.0</ele>
        <time>2022-01-13T08:10:02Z</time>
      </trkpt>
      <trkpt lat="47.714466" lon="2.206441">
        <ele>166.0</ele>
        <time>2022-01-13T08:10:03Z</time>
      </trkpt>
      <trkpt lat="47.714474" lon="2.2064414">
        <ele>165.0</ele>
        <time>2022-01-13T08:10:04Z</time>
      </trkpt>
      <trkpt lat="47.71448" lon="2.206446">
        <ele>165.0</ele>
        <time>2022-01-13T08:10:05Z</time>
      </trkpt>
      <trkpt lat="47.71449" lon="2.2064514">
        <ele>165.0</ele>
        <time>2022-01-13T08:10:06Z</time>
      </trkpt>
      <trkpt lat="47.714497" lon="2.2064562">
        <ele>166.0</ele>
        <time>2022-01-13T08:10:07Z</time>
      </trkpt>
      <trkpt lat="47.714504" lon="2.2064621">
        <ele>165.0</ele>
        <time>2022-01-13T08:10:08Z</time>
      </trkpt>
      <trkpt lat="47.71451" lon="2.2064679">
        <ele>165.0</ele>
        <time>2022-01-13T08:10:09Z</time>
      </trkpt>
      <trkpt lat="47.71452" lon="2.2064776">
        <ele>165.0</ele>
        <time>2022-01-13T08:10:10Z</time>
      </trkpt>
      <trkpt lat="47.714523" lon="2.2064888">
        <ele>165.0</ele>
        <time>2022-01-13T08:10:11Z</time>
      </trkpt>
      <trkpt lat="47.71453" lon="2.2064996">
        <ele>165.0</ele>
        <time>2022-01-13T08:10:12Z</time>
      </trkpt>
      <trkpt lat="47.714535" lon="2.2065089">
        <ele>165.0</ele>
        <time>2022-01-13T08:10:13Z</time>
      </trkpt>
      <trkpt lat="47.714546" lon="2.2065167">
        <ele>165.0</ele>
        <time>2022-01-13T08:10:14Z</time>
      </trkpt>
      <trkpt lat="47.714558" lon="2.2065244">
        <ele>165.0</ele>
        <time>2022-01-13T08:10:15Z</time>
      </trkpt>
      <trkpt lat="47.714565" lon="2.2065294">
        <ele>165.0</ele>
        <time>2022-01-13T08:10:16Z</time>
      </trkpt>
      <trkpt lat="47.714573" lon="2.2065415">
        <ele>164.0</ele>
        <time>2022-01-13T08:10:17Z</time>
      </trkpt>
      <trkpt lat="47.714577" lon="2.206554">
        <ele>164.0</ele>
        <time>2022-01-13T08:10:18Z</time>
      </trkpt>
      <trkpt lat="47.714584" lon="2.206565">
        <ele>164.0</ele>
        <time>2022-01-13T08:10:19Z</time>
      </trkpt>
      <trkpt lat="47.714592" lon="2.2065718">
        <ele>163.0</ele>
        <time>2022-01-13T08:10:20Z</time>
      </trkpt>
      <trkpt lat="47.714603" lon="2.2065804">
        <ele>163.0</ele>
        <time>2022-01-13T08:10:21Z</time>
      </trkpt>
      <trkpt lat="47.714615" lon="2.2065878">
        <ele>163.0</ele>
        <time>2022-01-13T08:10:22Z</time>
      </trkpt>
      <trkpt lat="47.714626" lon="2.2065916">
        <ele>163.0</ele>
        <time>2022-01-13T08:10:23Z</time>
      </trkpt>
      <trkpt lat="47.714634" lon="2.206595">
        <ele>163.0</ele>
        <time>2022-01-13T08:10:24Z</time>
      </trkpt>
      <trkpt lat="47.714638" lon="2.2066002">
        <ele>163.0</ele>
        <time>2022-01-13T08:10:25Z</time>
      </trkpt>
      <trkpt lat="47.714645" lon="2.2066054">
        <ele>163.0</ele>
        <time>2022-01-13T08:10:26Z</time>
      </trkpt>
      <trkpt lat="47.71465" lon="2.2066162">
        <ele>163.0</ele>
        <time>2022-01-13T08:10:27Z</time>
      </trkpt>
      <trkpt lat="47.714653" lon="2.206623">
        <ele>163.0</ele>
        <time>2022-01-13T08:10:28Z</time>
      </trkpt>
      <trkpt lat="47.71466" lon="2.2066271">
        <ele>163.0</ele>
        <time>2022-01-13T08:10:29Z</time>
      </trkpt>
      <trkpt lat="47.71467" lon="2.2066338">
        <ele>163.0</ele>
        <time>2022-01-13T08:10:30Z</time>
      </trkpt>
      <trkpt lat="47.714676" lon="2.206642">
        <ele>163.0</ele>
        <time>2022-01-13T08:10:31Z</time>
      </trkpt>
      <trkpt lat="47.714684" lon="2.2066453">
        <ele>163.0</ele>
        <time>2022-01-13T08:10:32Z</time>
      </trkpt>
      <trkpt lat="47.71469" lon="2.2066529">
        <ele>162.0</ele>
        <time>2022-01-13T08:10:33Z</time>
      </trkpt>
      <trkpt lat="47.714703" lon="2.2066627">
        <ele>162.0</ele>
        <time>2022-01-13T08:10:34Z</time>
      </trkpt>
      <trkpt lat="47.71471" lon="2.2066712">
        <ele>162.0</ele>
        <time>2022-01-13T08:10:35Z</time>
      </trkpt>
      <trkpt lat="47.71472" lon="2.206679">
        <ele>162.0</ele>
        <time>2022-01-13T08:10:36Z</time>
      </trkpt>
      <trkpt lat="47.714733" lon="2.2066877">
        <ele>162.0</ele>
        <time>2022-01-13T08:10:37Z</time>
      </trkpt>
      <trkpt lat="47.714745" lon="2.2066913">
        <ele>162.0</ele>
        <time>2022-01-13T08:10:38Z</time>
      </trkpt>
      <trkpt lat="47.714756" lon="2.2066984">
        <ele>161.0</ele>
        <time>2022-01-13T08:10:39Z</time>
      </trkpt>
      <trkpt lat="47.714764" lon="2.20671">
        <ele>161.0</ele>
        <time>2022-01-13T08:10:40Z</time>
      </trkpt>
      <trkpt lat="47.714775" lon="2.2067144">
        <ele>161.0</ele>
        <time>2022-01-13T08:10:41Z</time>
      </trkpt>
      <trkpt lat="47.71478" lon="2.206721">
        <ele>161.0</ele>
        <time>2022-01-13T08:10:42Z</time>
      </trkpt>
      <trkpt lat="47.714787" lon="2.2067285">
        <ele>161.0</ele>
        <time>2022-01-13T08:10:43Z</time>
      </trkpt>
      <trkpt lat="47.71479" lon="2.2067363">
        <ele>162.0</ele>
        <time>2022-01-13T08:10:44Z</time>
      </trkpt>
      <trkpt lat="47.7148" lon="2.2067416">
        <ele>162.0</ele>
        <time>2022-01-13T08:10:45Z</time>
      </trkpt>
      <trkpt lat="47.714813" lon="2.2067456">
        <ele>162.0</ele>
        <time>2022-01-13T08:10:46Z</time>
      </trkpt>
      <trkpt lat="47.71482" lon="2.2067516">
        <ele>161.0</ele>
        <time>2022-01-13T08:10:47Z</time>
      </trkpt>
      <trkpt lat="47.714825" lon="2.206756">
        <ele>162.0</ele>
        <time>2022-01-13T08:10:48Z</time>
      </trkpt>
      <trkpt lat="47.714836" lon="2.2067633">
        <ele>162.0</ele>
        <time>2022-01-13T08:10:49Z</time>
      </trkpt>
      <trkpt lat="47.714848" lon="2.2067678">
        <ele>162.0</ele>
        <time>2022-01-13T08:10:50Z</time>
      </trkpt>
      <trkpt lat="47.71486" lon="2.2067716">
        <ele>162.0</ele>
        <time>2022-01-13T08:10:51Z</time>
      </trkpt>
      <trkpt lat="47.71487" lon="2.2067747">
        <ele>162.0</ele>
        <time>2022-01-13T08:10:52Z</time>
      </trkpt>
      <trkpt lat="47.71488" lon="2.2067807">
        <ele>163.0</ele>
        <time>2022-01-13T08:10:53Z</time>
      </trkpt>
      <trkpt lat="47.714893" lon="2.2067893">
        <ele>163.0</ele>
        <time>2022-01-13T08:10:54Z</time>
      </trkpt>
      <trkpt lat="47.714905" lon="2.2067935">
        <ele>162.0</ele>
        <time>2022-01-13T08:10:55Z</time>
      </trkpt>
      <trkpt lat="47.714916" lon="2.2068002">
        <ele>162.0</ele>
        <time>2022-01-13T08:10:56Z</time>
      </trkpt>
      <trkpt lat="47.714924" lon="2.2068079">
        <ele>162.0</ele>
        <time>2022-01-13T08:10:57Z</time>
      </trkpt>
      <trkpt lat="47.71494" lon="2.2068098">
        <ele>162.0</ele>
        <time>2022-01-13T08:10:58Z</time>
      </trkpt>
      <trkpt lat="47.71495" lon="2.2068148">
        <ele>162.0</ele>
        <time>2022-01-13T08:10:59Z</time>
      </trkpt>
      <trkpt lat="47.714954" lon="2.2068183">
        <ele>162.0</ele>
        <time>2022-01-13T08:11:00Z</time>
      </trkpt>
      <trkpt lat="47.714966" lon="2.2068264">
        <ele>161.0</ele>
        <time>2022-01-13T08:11:01Z</time>
      </trkpt>
      <trkpt lat="47.71498" lon="2.206832">
        <ele>161.0</ele>
        <time>2022-01-13T08:11:02Z</time>
      </trkpt>
      <trkpt lat="47.714996" lon="2.20684">
        <ele>161.0</ele>
        <time>2022-01-13T08:11:03Z</time>
      </trkpt>
      <trkpt lat="47.715008" lon="2.206847">
        <ele>161.0</ele>
        <time>2022-01-13T08:11:04Z</time>
      </trkpt>
      <trkpt lat="47.715027" lon="2.2068517">
        <ele>161.0</ele>
        <time>2022-01-13T08:11:05Z</time>
      </trkpt>
      <trkpt lat="47.71504" lon="2.206853">
        <ele>161.0</ele>
        <time>2022-01-13T08:11:06Z</time>
      </trkpt>
      <trkpt lat="47.71505" lon="2.2068548">
        <ele>161.0</ele>
        <time>2022-01-13T08:11:07Z</time>
      </trkpt>
      <trkpt lat="47.71506" lon="2.2068615">
        <ele>161.0</ele>
        <time>2022-01-13T08:11:08Z</time>
      </trkpt>
      <trkpt lat="47.71507" lon="2.2068665">
        <ele>160.0</ele>
        <time>2022-01-13T08:11:09Z</time>
      </trkpt>
      <trkpt lat="47.71508" lon="2.206869">
        <ele>160.0</ele>
        <time>2022-01-13T08:11:10Z</time>
      </trkpt>
      <trkpt lat="47.715088" lon="2.206874">
        <ele>160.0</ele>
        <time>2022-01-13T08:11:11Z</time>
      </trkpt>
      <trkpt lat="47.715096" lon="2.2068825">
        <ele>160.0</ele>
        <time>2022-01-13T08:11:12Z</time>
      </trkpt>
      <trkpt lat="47.715107" lon="2.2068918">
        <ele>159.0</ele>
        <time>2022-01-13T08:11:13Z</time>
      </trkpt>
      <trkpt lat="47.715115" lon="2.2068985">
        <ele>159.0</ele>
        <time>2022-01-13T08:11:14Z</time>
      </trkpt>
      <trkpt lat="47.715126" lon="2.2069044">
        <ele>159.0</ele>
        <time>2022-01-13T08:11:15Z</time>
      </trkpt>
      <trkpt lat="47.71514" lon="2.2069092">
        <ele>159.0</ele>
        <time>2022-01-13T08:11:16Z</time>
      </trkpt>
      <trkpt lat="47.71515" lon="2.2069132">
        <ele>159.0</ele>
        <time>2022-01-13T08:11:17Z</time>
      </trkpt>
      <trkpt lat="47.715153" lon="2.2069201">
        <ele>159.0</ele>
        <time>2022-01-13T08:11:18Z</time>
      </trkpt>
      <trkpt lat="47.71516" lon="2.2069328">
        <ele>158.0</ele>
        <time>2022-01-13T08:11:19Z</time>
      </trkpt>
      <trkpt lat="47.715164" lon="2.2069407">
        <ele>158.0</ele>
        <time>2022-01-13T08:11:20Z</time>
      </trkpt>
      <trkpt lat="47.715176" lon="2.2069466">
        <ele>158.0</ele>
        <time>2022-01-13T08:11:21Z</time>
      </trkpt>
      <trkpt lat="47.715187" lon="2.2069542">
        <ele>158.0</ele>
        <time>2022-01-13T08:11:22Z</time>
      </trkpt>
      <trkpt lat="47.715195" lon="2.206961">
        <ele>159.0</ele>
        <time>2022-01-13T08:11:23Z</time>
      </trkpt>
      <trkpt lat="47.715206" lon="2.2069643">
        <ele>159.0</ele>
        <time>2022-01-13T08:11:24Z</time>
      </trkpt>
      <trkpt lat="47.715214" lon="2.2069695">
        <ele>159.0</ele>
        <time>2022-01-13T08:11:25Z</time>
      </trkpt>
      <trkpt lat="47.71522" lon="2.2069736">
        <ele>159.0</ele>
        <time>2022-01-13T08:11:26Z</time>
      </trkpt>
      <trkpt lat="47.715233" lon="2.2069767">
        <ele>159.0</ele>
        <time>2022-01-13T08:11:27Z</time>
      </trkpt>
      <trkpt lat="47.715244" lon="2.2069788">
        <ele>159.0</ele>
        <time>2022-01-13T08:11:28Z</time>
      </trkpt>
      <trkpt lat="47.715256" lon="2.2069817">
        <ele>159.0</ele>
        <time>2022-01-13T08:11:29Z</time>
      </trkpt>
      <trkpt lat="47.715267" lon="2.206986">
        <ele>159.0</ele>
        <time>2022-01-13T08:11:30Z</time>
      </trkpt>
      <trkpt lat="47.715282" lon="2.2069907">
        <ele>159.0</ele>
        <time>2022-01-13T08:11:31Z</time>
      </trkpt>
      <trkpt lat="47.715294" lon="2.2070024">
        <ele>160.0</ele>
        <time>2022-01-13T08:11:32Z</time>
      </trkpt>
      <trkpt lat="47.715305" lon="2.2070117">
        <ele>160.0</ele>
        <time>2022-01-13T08:11:33Z</time>
      </trkpt>
      <trkpt lat="47.71532" lon="2.207016">
        <ele>160.0</ele>
        <time>2022-01-13T08:11:34Z</time>
      </trkpt>
      <trkpt lat="47.715336" lon="2.2070224">
        <ele>160.0</ele>
        <time>2022-01-13T08:11:35Z</time>
      </trkpt>
      <trkpt lat="47.715355" lon="2.2070267">
        <ele>161.0</ele>
        <time>2022-01-13T08:11:36Z</time>
      </trkpt>
      <trkpt lat="47.715378" lon="2.2070339">
        <ele>161.0</ele>
        <time>2022-01-13T08:11:37Z</time>
      </trkpt>
      <trkpt lat="47.715397" lon="2.2070436">
        <ele>162.0</ele>
        <time>2022-01-13T08:11:38Z</time>
      </trkpt>
      <trkpt lat="47.715416" lon="2.2070491">
        <ele>162.0</ele>
        <time>2022-01-13T08:11:39Z</time>
      </trkpt>
      <trkpt lat="47.715427" lon="2.207051">
        <ele>163.0</ele>
        <time>2022-01-13T08:11:40Z</time>
      </trkpt>
      <trkpt lat="47.715443" lon="2.2070534">
        <ele>163.0</ele>
        <time>2022-01-13T08:11:41Z</time>
      </trkpt>
      <trkpt lat="47.715458" lon="2.2070549">
        <ele>164.0</ele>
        <time>2022-01-13T08:11:42Z</time>
      </trkpt>
      <trkpt lat="47.715473" lon="2.2070596">
        <ele>164.0</ele>
        <time>2022-01-13T08:11:43Z</time>
      </trkpt>
      <trkpt lat="47.715485" lon="2.207064">
        <ele>164.0</ele>
        <time>2022-01-13T08:11:44Z</time>
      </trkpt>
      <trkpt lat="47.715492" lon="2.2070692">
        <ele>165.0</ele>
        <time>2022-01-13T08:11:45Z</time>
      </trkpt>
      <trkpt lat="47.715504" lon="2.2070684">
        <ele>165.0</ele>
        <time>2022-01-13T08:11:46Z</time>
      </trkpt>
      <trkpt lat="47.71551" lon="2.2070704">
        <ele>165.0</ele>
        <time>2022-01-13T08:11:47Z</time>
      </trkpt>
      <trkpt lat="47.715515" lon="2.2070735">
        <ele>164.0</ele>
        <time>2022-01-13T08:11:48Z</time>
      </trkpt>
      <trkpt lat="47.715523" lon="2.2070756">
        <ele>164.0</ele>
        <time>2022-01-13T08:11:49Z</time>
      </trkpt>
      <trkpt lat="47.715534" lon="2.2070808">
        <ele>164.0</ele>
        <time>2022-01-13T08:11:50Z</time>
      </trkpt>
      <trkpt lat="47.71554" lon="2.2070851">
        <ele>164.0</ele>
        <time>2022-01-13T08:11:51Z</time>
      </trkpt>
      <trkpt lat="47.715546" lon="2.2070866">
        <ele>164.0</ele>
        <time>2022-01-13T08:11:52Z</time>
      </trkpt>
      <trkpt lat="47.715553" lon="2.207087">
        <ele>164.0</ele>
        <time>2022-01-13T08:11:53Z</time>
      </trkpt>
      <trkpt lat="47.715553" lon="2.207087">
        <ele>164.0</ele>
        <time>2022-01-13T08:11:54Z</time>
      </trkpt>
      <trkpt lat="47.71556" lon="2.2070918">
        <ele>164.0</ele>
        <time>2022-01-13T08:11:55Z</time>
      </trkpt>
      <trkpt lat="47.71557" lon="2.2070947">
        <ele>164.0</ele>
        <time>2022-01-13T08:11:56Z</time>
      </trkpt>
      <trkpt lat="47.715576" lon="2.207097">
        <ele>164.0</ele>
        <time>2022-01-13T08:11:57Z</time>
      </trkpt>
      <trkpt lat="47.715584" lon="2.2070963">
        <ele>164.0</ele>
        <time>2022-01-13T08:11:58Z</time>
      </trkpt>
      <trkpt lat="47.71559" lon="2.2070968">
        <ele>164.0</ele>
        <time>2022-01-13T08:11:59Z</time>
      </trkpt>
      <trkpt lat="47.7156" lon="2.2071052">
        <ele>164.0</ele>
        <time>2022-01-13T08:12:00Z</time>
      </trkpt>
      <trkpt lat="47.715607" lon="2.2071126">
        <ele>163.0</ele>
        <time>2022-01-13T08:12:01Z</time>
      </trkpt>
      <trkpt lat="47.71562" lon="2.207117">
        <ele>163.0</ele>
        <time>2022-01-13T08:12:02Z</time>
      </trkpt>
      <trkpt lat="47.715626" lon="2.2071187">
        <ele>163.0</ele>
        <time>2022-01-13T08:12:03Z</time>
      </trkpt>
      <trkpt lat="47.715633" lon="2.2071166">
        <ele>164.0</ele>
        <time>2022-01-13T08:12:04Z</time>
      </trkpt>
      <trkpt lat="47.715633" lon="2.2071166">
        <ele>164.0</ele>
        <time>2022-01-13T08:12:05Z</time>
      </trkpt>
      <trkpt lat="47.715633" lon="2.2071166">
        <ele>164.0</ele>
        <time>2022-01-13T08:12:06Z</time>
      </trkpt>
      <trkpt lat="47.71565" lon="2.2071228">
        <ele>163.0</ele>
        <time>2022-01-13T08:12:07Z</time>
      </trkpt>
      <trkpt lat="47.71566" lon="2.2071269">
        <ele>163.0</ele>
        <time>2022-01-13T08:12:08Z</time>
      </trkpt>
      <trkpt lat="47.715668" lon="2.2071342">
        <ele>163.0</ele>
        <time>2022-01-13T08:12:09Z</time>
      </trkpt>
      <trkpt lat="47.71568" lon="2.2071433">
        <ele>164.0</ele>
        <time>2022-01-13T08:12:10Z</time>
      </trkpt>
      <trkpt lat="47.71569" lon="2.2071443">
        <ele>164.0</ele>
        <time>2022-01-13T08:12:11Z</time>
      </trkpt>
      <trkpt lat="47.715702" lon="2.2071486">
        <ele>164.0</ele>
        <time>2022-01-13T08:12:12Z</time>
      </trkpt>
      <trkpt lat="47.71571" lon="2.2071536">
        <ele>164.0</ele>
        <time>2022-01-13T08:12:13Z</time>
      </trkpt>
      <trkpt lat="47.71572" lon="2.2071579">
        <ele>164.0</ele>
        <time>2022-01-13T08:12:14Z</time>
      </trkpt>
      <trkpt lat="47.715736" lon="2.2071652">
        <ele>163.0</ele>
        <time>2022-01-13T08:12:15Z</time>
      </trkpt>
      <trkpt lat="47.715755" lon="2.2071664">
        <ele>163.0</ele>
        <time>2022-01-13T08:12:16Z</time>
      </trkpt>
      <trkpt lat="47.715767" lon="2.2071729">
        <ele>162.0</ele>
        <time>2022-01-13T08:12:17Z</time>
      </trkpt>
      <trkpt lat="47.715782" lon="2.2071807">
        <ele>162.0</ele>
        <time>2022-01-13T08:12:18Z</time>
      </trkpt>
      <trkpt lat="47.715794" lon="2.2071877">
        <ele>161.0</ele>
        <time>2022-01-13T08:12:19Z</time>
      </trkpt>
      <trkpt lat="47.715805" lon="2.207196">
        <ele>161.0</ele>
        <time>2022-01-13T08:12:20Z</time>
      </trkpt>
      <trkpt lat="47.715813" lon="2.2072003">
        <ele>161.0</ele>
        <time>2022-01-13T08:12:21Z</time>
      </trkpt>
      <trkpt lat="47.715824" lon="2.207202">
        <ele>160.0</ele>
        <time>2022-01-13T08:12:22Z</time>
      </trkpt>
      <trkpt lat="47.71584" lon="2.2072046">
        <ele>161.0</ele>
        <time>2022-01-13T08:12:23Z</time>
      </trkpt>
      <trkpt lat="47.71585" lon="2.207208">
        <ele>161.0</ele>
        <time>2022-01-13T08:12:24Z</time>
      </trkpt>
      <trkpt lat="47.715866" lon="2.2072082">
        <ele>160.0</ele>
        <time>2022-01-13T08:12:25Z</time>
      </trkpt>
      <trkpt lat="47.715878" lon="2.207215">
        <ele>160.0</ele>
        <time>2022-01-13T08:12:26Z</time>
      </trkpt>
      <trkpt lat="47.715893" lon="2.207218">
        <ele>160.0</ele>
        <time>2022-01-13T08:12:27Z</time>
      </trkpt>
      <trkpt lat="47.715904" lon="2.2072196">
        <ele>160.0</ele>
        <time>2022-01-13T08:12:28Z</time>
      </trkpt>
      <trkpt lat="47.715916" lon="2.2072232">
        <ele>160.0</ele>
        <time>2022-01-13T08:12:29Z</time>
      </trkpt>
      <trkpt lat="47.715923" lon="2.2072284">
        <ele>160.0</ele>
        <time>2022-01-13T08:12:30Z</time>
      </trkpt>
      <trkpt lat="47.71593" lon="2.2072277">
        <ele>160.0</ele>
        <time>2022-01-13T08:12:31Z</time>
      </trkpt>
      <trkpt lat="47.71593" lon="2.2072322">
        <ele>160.0</ele>
        <time>2022-01-13T08:12:32Z</time>
      </trkpt>
      <trkpt lat="47.71594" lon="2.2072356">
        <ele>159.0</ele>
        <time>2022-01-13T08:12:33Z</time>
      </trkpt>
      <trkpt lat="47.715946" lon="2.2072356">
        <ele>159.0</ele>
        <time>2022-01-13T08:12:34Z</time>
      </trkpt>
      <trkpt lat="47.715958" lon="2.2072415">
        <ele>159.0</ele>
        <time>2022-01-13T08:12:35Z</time>
      </trkpt>
      <trkpt lat="47.715973" lon="2.207246">
        <ele>159.0</ele>
        <time>2022-01-13T08:12:36Z</time>
      </trkpt>
      <trkpt lat="47.715984" lon="2.207251">
        <ele>159.0</ele>
        <time>2022-01-13T08:12:37Z</time>
      </trkpt>
      <trkpt lat="47.715992" lon="2.2072537">
        <ele>159.0</ele>
        <time>2022-01-13T08:12:38Z</time>
      </trkpt>
      <trkpt lat="47.716003" lon="2.2072568">
        <ele>159.0</ele>
        <time>2022-01-13T08:12:39Z</time>
      </trkpt>
      <trkpt lat="47.71601" lon="2.2072635">
        <ele>159.0</ele>
        <time>2022-01-13T08:12:40Z</time>
      </trkpt>
      <trkpt lat="47.716022" lon="2.207269">
        <ele>159.0</ele>
        <time>2022-01-13T08:12:41Z</time>
      </trkpt>
      <trkpt lat="47.716034" lon="2.2072713">
        <ele>159.0</ele>
        <time>2022-01-13T08:12:42Z</time>
      </trkpt>
      <trkpt lat="47.716045" lon="2.2072735">
        <ele>160.0</ele>
        <time>2022-01-13T08:12:43Z</time>
      </trkpt>
      <trkpt lat="47.716057" lon="2.2072818">
        <ele>159.0</ele>
        <time>2022-01-13T08:12:44Z</time>
      </trkpt>
      <trkpt lat="47.71607" lon="2.207283">
        <ele>160.0</ele>
        <time>2022-01-13T08:12:45Z</time>
      </trkpt>
      <trkpt lat="47.71608" lon="2.2072878">
        <ele>159.0</ele>
        <time>2022-01-13T08:12:46Z</time>
      </trkpt>
      <trkpt lat="47.7161" lon="2.2072906">
        <ele>159.0</ele>
        <time>2022-01-13T08:12:47Z</time>
      </trkpt>
      <trkpt lat="47.71611" lon="2.2072942">
        <ele>159.0</ele>
        <time>2022-01-13T08:12:48Z</time>
      </trkpt>
      <trkpt lat="47.716118" lon="2.2073">
        <ele>159.0</ele>
        <time>2022-01-13T08:12:49Z</time>
      </trkpt>
      <trkpt lat="47.71613" lon="2.207306">
        <ele>160.0</ele>
        <time>2022-01-13T08:12:50Z</time>
      </trkpt>
      <trkpt lat="47.71614" lon="2.2073066">
        <ele>160.0</ele>
        <time>2022-01-13T08:12:51Z</time>
      </trkpt>
      <trkpt lat="47.716156" lon="2.207309">
        <ele>160.0</ele>
        <time>2022-01-13T08:12:52Z</time>
      </trkpt>
      <trkpt lat="47.71617" lon="2.2073092">
        <ele>160.0</ele>
        <time>2022-01-13T08:12:53Z</time>
      </trkpt>
      <trkpt lat="47.716183" lon="2.2073143">
        <ele>160.0</ele>
        <time>2022-01-13T08:12:54Z</time>
      </trkpt>
      <trkpt lat="47.716198" lon="2.207321">
        <ele>160.0</ele>
        <time>2022-01-13T08:12:55Z</time>
      </trkpt>
      <trkpt lat="47.716213" lon="2.2073214">
        <ele>159.0</ele>
        <time>2022-01-13T08:12:56Z</time>
      </trkpt>
      <trkpt lat="47.71622" lon="2.207317">
        <ele>159.0</ele>
        <time>2022-01-13T08:12:57Z</time>
      </trkpt>
      <trkpt lat="47.71623" lon="2.2073185">
        <ele>159.0</ele>
        <time>2022-01-13T08:12:58Z</time>
      </trkpt>
      <trkpt lat="47.716236" lon="2.2073145">
        <ele>159.0</ele>
        <time>2022-01-13T08:12:59Z</time>
      </trkpt>
      <trkpt lat="47.716244" lon="2.2073128">
        <ele>159.0</ele>
        <time>2022-01-13T08:13:00Z</time>
      </trkpt>
      <trkpt lat="47.71625" lon="2.2073166">
        <ele>159.0</ele>
        <time>2022-01-13T08:13:01Z</time>
      </trkpt>
      <trkpt lat="47.71626" lon="2.2073162">
        <ele>159.0</ele>
        <time>2022-01-13T08:13:02Z</time>
      </trkpt>
      <trkpt lat="47.71627" lon="2.207315">
        <ele>159.0</ele>
        <time>2022-01-13T08:13:03Z</time>
      </trkpt>
      <trkpt lat="47.71628" lon="2.2073197">
        <ele>159.0</ele>
        <time>2022-01-13T08:13:04Z</time>
      </trkpt>
      <trkpt lat="47.716286" lon="2.2073271">
        <ele>159.0</ele>
        <time>2022-01-13T08:13:05Z</time>
      </trkpt>
      <trkpt lat="47.716297" lon="2.2073333">
        <ele>159.0</ele>
        <time>2022-01-13T08:13:06Z</time>
      </trkpt>
      <trkpt lat="47.71631" lon="2.2073374">
        <ele>159.0</ele>
        <time>2022-01-13T08:13:07Z</time>
      </trkpt>
      <trkpt lat="47.71632" lon="2.2073436">
        <ele>160.0</ele>
        <time>2022-01-13T08:13:08Z</time>
      </trkpt>
      <trkpt lat="47.716328" lon="2.2073486">
        <ele>160.0</ele>
        <time>2022-01-13T08:13:09Z</time>
      </trkpt>
      <trkpt lat="47.716343" lon="2.2073503">
        <ele>160.0</ele>
        <time>2022-01-13T08:13:10Z</time>
      </trkpt>
      <trkpt lat="47.716347" lon="2.2073534">
        <ele>160.0</ele>
        <time>2022-01-13T08:13:11Z</time>
      </trkpt>
      <trkpt lat="47.716354" lon="2.207356">
        <ele>160.0</ele>
        <time>2022-01-13T08:13:12Z</time>
      </trkpt>
      <trkpt lat="47.716354" lon="2.207356">
        <ele>160.0</ele>
        <time>2022-01-13T08:13:13Z</time>
      </trkpt>
      <trkpt lat="47.716354" lon="2.207356">
        <ele>160.0</ele>
        <time>2022-01-13T08:13:14Z</time>
      </trkpt>
      <trkpt lat="47.716385" lon="2.2073703">
        <ele>159.0</ele>
        <time>2022-01-13T08:13:15Z</time>
      </trkpt>
      <trkpt lat="47.7164" lon="2.2073803">
        <ele>159.0</ele>
        <time>2022-01-13T08:13:16Z</time>
      </trkpt>
      <trkpt lat="47.716415" lon="2.2073865">
        <ele>159.0</ele>
        <time>2022-01-13T08:13:17Z</time>
      </trkpt>
      <trkpt lat="47.71643" lon="2.2073903">
        <ele>159.0</ele>
        <time>2022-01-13T08:13:18Z</time>
      </trkpt>
      <trkpt lat="47.716442" lon="2.2073917">
        <ele>159.0</ele>
        <time>2022-01-13T08:13:19Z</time>
      </trkpt>
      <trkpt lat="47.716454" lon="2.2073946">
        <ele>159.0</ele>
        <time>2022-01-13T08:13:20Z</time>
      </trkpt>
      <trkpt lat="47.716465" lon="2.2073944">
        <ele>159.0</ele>
        <time>2022-01-13T08:13:21Z</time>
      </trkpt>
      <trkpt lat="47.716476" lon="2.2074008">
        <ele>159.0</ele>
        <time>2022-01-13T08:13:22Z</time>
      </trkpt>
      <trkpt lat="47.716488" lon="2.2074053">
        <ele>159.0</ele>
        <time>2022-01-13T08:13:23Z</time>
      </trkpt>
      <trkpt lat="47.716503" lon="2.2074072">
        <ele>159.0</ele>
        <time>2022-01-13T08:13:24Z</time>
      </trkpt>
      <trkpt lat="47.71652" lon="2.2074084">
        <ele>159.0</ele>
        <time>2022-01-13T08:13:25Z</time>
      </trkpt>
      <trkpt lat="47.716534" lon="2.207407">
        <ele>159.0</ele>
        <time>2022-01-13T08:13:26Z</time>
      </trkpt>
      <trkpt lat="47.716545" lon="2.2074072">
        <ele>159.0</ele>
        <time>2022-01-13T08:13:27Z</time>
      </trkpt>
      <trkpt lat="47.716564" lon="2.2074108">
        <ele>158.0</ele>
        <time>2022-01-13T08:13:28Z</time>
      </trkpt>
      <trkpt lat="47.716576" lon="2.2074177">
        <ele>158.0</ele>
        <time>2022-01-13T08:13:29Z</time>
      </trkpt>
      <trkpt lat="47.71659" lon="2.2074187">
        <ele>158.0</ele>
        <time>2022-01-13T08:13:30Z</time>
      </trkpt>
      <trkpt lat="47.716602" lon="2.207421">
        <ele>158.0</ele>
        <time>2022-01-13T08:13:31Z</time>
      </trkpt>
      <trkpt lat="47.716614" lon="2.2074246">
        <ele>158.0</ele>
        <time>2022-01-13T08:13:32Z</time>
      </trkpt>
      <trkpt lat="47.716625" lon="2.2074249">
        <ele>158.0</ele>
        <time>2022-01-13T08:13:33Z</time>
      </trkpt>
      <trkpt lat="47.716637" lon="2.207427">
        <ele>159.0</ele>
        <time>2022-01-13T08:13:34Z</time>
      </trkpt>
      <trkpt lat="47.71665" lon="2.207432">
        <ele>159.0</ele>
        <time>2022-01-13T08:13:35Z</time>
      </trkpt>
      <trkpt lat="47.716663" lon="2.2074335">
        <ele>159.0</ele>
        <time>2022-01-13T08:13:36Z</time>
      </trkpt>
      <trkpt lat="47.71667" lon="2.207439">
        <ele>159.0</ele>
        <time>2022-01-13T08:13:37Z</time>
      </trkpt>
      <trkpt lat="47.716682" lon="2.2074397">
        <ele>159.0</ele>
        <time>2022-01-13T08:13:38Z</time>
      </trkpt>
      <trkpt lat="47.71669" lon="2.2074394">
        <ele>159.0</ele>
        <time>2022-01-13T08:13:39Z</time>
      </trkpt>
      <trkpt lat="47.7167" lon="2.2074437">
        <ele>159.0</ele>
        <time>2022-01-13T08:13:40Z</time>
      </trkpt>
      <trkpt lat="47.716713" lon="2.2074409">
        <ele>159.0</ele>
        <time>2022-01-13T08:13:41Z</time>
      </trkpt>
      <trkpt lat="47.716724" lon="2.20744">
        <ele>160.0</ele>
        <time>2022-01-13T08:13:42Z</time>
      </trkpt>
      <trkpt lat="47.716732" lon="2.20744">
        <ele>160.0</ele>
        <time>2022-01-13T08:13:43Z</time>
      </trkpt>
      <trkpt lat="47.716743" lon="2.2074418">
        <ele>160.0</ele>
        <time>2022-01-13T08:13:44Z</time>
      </trkpt>
      <trkpt lat="47.71676" lon="2.207446">
        <ele>160.0</ele>
        <time>2022-01-13T08:13:45Z</time>
      </trkpt>
      <trkpt lat="47.716766" lon="2.207446">
        <ele>160.0</ele>
        <time>2022-01-13T08:13:46Z</time>
      </trkpt>
      <trkpt lat="47.716774" lon="2.2074466">
        <ele>160.0</ele>
        <time>2022-01-13T08:13:47Z</time>
      </trkpt>
      <trkpt lat="47.71678" lon="2.2074494">
        <ele>160.0</ele>
        <time>2022-01-13T08:13:48Z</time>
      </trkpt>
      <trkpt lat="47.716797" lon="2.2074516">
        <ele>160.0</ele>
        <time>2022-01-13T08:13:49Z</time>
      </trkpt>
      <trkpt lat="47.716805" lon="2.207452">
        <ele>160.0</ele>
        <time>2022-01-13T08:13:50Z</time>
      </trkpt>
      <trkpt lat="47.716816" lon="2.207449">
        <ele>160.0</ele>
        <time>2022-01-13T08:13:51Z</time>
      </trkpt>
      <trkpt lat="47.71682" lon="2.207444">
        <ele>160.0</ele>
        <time>2022-01-13T08:13:52Z</time>
      </trkpt>
      <trkpt lat="47.716827" lon="2.2074413">
        <ele>160.0</ele>
        <time>2022-01-13T08:13:53Z</time>
      </trkpt>
      <trkpt lat="47.716835" lon="2.207443">
        <ele>160.0</ele>
        <time>2022-01-13T08:13:54Z</time>
      </trkpt>
      <trkpt lat="47.716835" lon="2.207443">
        <ele>160.0</ele>
        <time>2022-01-13T08:13:55Z</time>
      </trkpt>
      <trkpt lat="47.716835" lon="2.207443">
        <ele>160.0</ele>
        <time>2022-01-13T08:13:56Z</time>
      </trkpt>
      <trkpt lat="47.716866" lon="2.2074351">
        <ele>160.0</ele>
        <time>2022-01-13T08:13:57Z</time>
      </trkpt>
      <trkpt lat="47.716873" lon="2.2074323">
        <ele>160.0</ele>
        <time>2022-01-13T08:13:58Z</time>
      </trkpt>
      <trkpt lat="47.716885" lon="2.2074325">
        <ele>160.0</ele>
        <time>2022-01-13T08:13:59Z</time>
      </trkpt>
      <trkpt lat="47.716896" lon="2.2074287">
        <ele>161.0</ele>
        <time>2022-01-13T08:14:00Z</time>
      </trkpt>
      <trkpt lat="47.71691" lon="2.2074296">
        <ele>161.0</ele>
        <time>2022-01-13T08:14:01Z</time>
      </trkpt>
      <trkpt lat="47.716927" lon="2.2074292">
        <ele>161.0</ele>
        <time>2022-01-13T08:14:02Z</time>
      </trkpt>
      <trkpt lat="47.71694" lon="2.2074249">
        <ele>161.0</ele>
        <time>2022-01-13T08:14:03Z</time>
      </trkpt>
      <trkpt lat="47.716953" lon="2.207423">
        <ele>161.0</ele>
        <time>2022-01-13T08:14:04Z</time>
      </trkpt>
      <trkpt lat="47.716965" lon="2.2074246">
        <ele>161.0</ele>
        <time>2022-01-13T08:14:05Z</time>
      </trkpt>
      <trkpt lat="47.716976" lon="2.2074249">
        <ele>161.0</ele>
        <time>2022-01-13T08:14:06Z</time>
      </trkpt>
      <trkpt lat="47.716988" lon="2.2074208">
        <ele>161.0</ele>
        <time>2022-01-13T08:14:07Z</time>
      </trkpt>
      <trkpt lat="47.717003" lon="2.207427">
        <ele>161.0</ele>
        <time>2022-01-13T08:14:08Z</time>
      </trkpt>
      <trkpt lat="47.717014" lon="2.2074308">
        <ele>161.0</ele>
        <time>2022-01-13T08:14:09Z</time>
      </trkpt>
      <trkpt lat="47.71703" lon="2.2074318">
        <ele>161.0</ele>
        <time>2022-01-13T08:14:10Z</time>
      </trkpt>
      <trkpt lat="47.717045" lon="2.207434">
        <ele>161.0</ele>
        <time>2022-01-13T08:14:11Z</time>
      </trkpt>
      <trkpt lat="47.717056" lon="2.2074351">
        <ele>161.0</ele>
        <time>2022-01-13T08:14:12Z</time>
      </trkpt>
      <trkpt lat="47.717068" lon="2.2074316">
        <ele>161.0</ele>
        <time>2022-01-13T08:14:13Z</time>
      </trkpt>
      <trkpt lat="47.71708" lon="2.2074296">
        <ele>161.0</ele>
        <time>2022-01-13T08:14:14Z</time>
      </trkpt>
      <trkpt lat="47.717087" lon="2.207431">
        <ele>161.0</ele>
        <time>2022-01-13T08:14:15Z</time>
      </trkpt>
      <trkpt lat="47.717094" lon="2.2074287">
        <ele>161.0</ele>
        <time>2022-01-13T08:14:16Z</time>
      </trkpt>
      <trkpt lat="47.717113" lon="2.2074292">
        <ele>162.0</ele>
        <time>2022-01-13T08:14:17Z</time>
      </trkpt>
      <trkpt lat="47.71713" lon="2.207425">
        <ele>162.0</ele>
        <time>2022-01-13T08:14:18Z</time>
      </trkpt>
      <trkpt lat="47.717144" lon="2.207419">
        <ele>162.0</ele>
        <time>2022-01-13T08:14:19Z</time>
      </trkpt>
      <trkpt lat="47.71716" lon="2.207411">
        <ele>162.0</ele>
        <time>2022-01-13T08:14:20Z</time>
      </trkpt>
      <trkpt lat="47.71717" lon="2.2074065">
        <ele>162.0</ele>
        <time>2022-01-13T08:14:21Z</time>
      </trkpt>
      <trkpt lat="47.717182" lon="2.2074084">
        <ele>162.0</ele>
        <time>2022-01-13T08:14:22Z</time>
      </trkpt>
      <trkpt lat="47.717194" lon="2.2074046">
        <ele>163.0</ele>
        <time>2022-01-13T08:14:23Z</time>
      </trkpt>
      <trkpt lat="47.717205" lon="2.2074022">
        <ele>163.0</ele>
        <time>2022-01-13T08:14:24Z</time>
      </trkpt>
      <trkpt lat="47.717216" lon="2.2074077">
        <ele>163.0</ele>
        <time>2022-01-13T08:14:25Z</time>
      </trkpt>
      <trkpt lat="47.71723" lon="2.2074125">
        <ele>163.0</ele>
        <time>2022-01-13T08:14:26Z</time>
      </trkpt>
      <trkpt lat="47.717247" lon="2.2074146">
        <ele>163.0</ele>
        <time>2022-01-13T08:14:27Z</time>
      </trkpt>
      <trkpt lat="47.717262" lon="2.207412">
        <ele>163.0</ele>
        <time>2022-01-13T08:14:28Z</time>
      </trkpt>
      <trkpt lat="47.717278" lon="2.2074177">
        <ele>163.0</ele>
        <time>2022-01-13T08:14:29Z</time>
      </trkpt>
      <trkpt lat="47.71729" lon="2.2074242">
        <ele>163.0</ele>
        <time>2022-01-13T08:14:30Z</time>
      </trkpt>
      <trkpt lat="47.717304" lon="2.20743">
        <ele>163.0</ele>
        <time>2022-01-13T08:14:31Z</time>
      </trkpt>
      <trkpt lat="47.717323" lon="2.2074358">
        <ele>163.0</ele>
        <time>2022-01-13T08:14:32Z</time>
      </trkpt>
      <trkpt lat="47.71734" lon="2.2074406">
        <ele>163.0</ele>
        <time>2022-01-13T08:14:33Z</time>
      </trkpt>
      <trkpt lat="47.71735" lon="2.207441">
        <ele>163.0</ele>
        <time>2022-01-13T08:14:34Z</time>
      </trkpt>
      <trkpt lat="47.71736" lon="2.2074378">
        <ele>163.0</ele>
        <time>2022-01-13T08:14:35Z</time>
      </trkpt>
      <trkpt lat="47.717373" lon="2.2074418">
        <ele>163.0</ele>
        <time>2022-01-13T08:14:36Z</time>
      </trkpt>
      <trkpt lat="47.717396" lon="2.2074423">
        <ele>164.0</ele>
        <time>2022-01-13T08:14:37Z</time>
      </trkpt>
      <trkpt lat="47.717415" lon="2.2074444">
        <ele>164.0</ele>
        <time>2022-01-13T08:14:38Z</time>
      </trkpt>
      <trkpt lat="47.717434" lon="2.207442">
        <ele>164.0</ele>
        <time>2022-01-13T08:14:39Z</time>
      </trkpt>
      <trkpt lat="47.717445" lon="2.2074401">
        <ele>164.0</ele>
        <time>2022-01-13T08:14:40Z</time>
      </trkpt>
      <trkpt lat="47.71746" lon="2.2074394">
        <ele>164.0</ele>
        <time>2022-01-13T08:14:41Z</time>
      </trkpt>
      <trkpt lat="47.717476" lon="2.2074423">
        <ele>165.0</ele>
        <time>2022-01-13T08:14:42Z</time>
      </trkpt>
      <trkpt lat="47.717487" lon="2.2074447">
        <ele>165.0</ele>
        <time>2022-01-13T08:14:43Z</time>
      </trkpt>
      <trkpt lat="47.717495" lon="2.207447">
        <ele>165.0</ele>
        <time>2022-01-13T08:14:44Z</time>
      </trkpt>
      <trkpt lat="47.717506" lon="2.207447">
        <ele>165.0</ele>
        <time>2022-01-13T08:14:45Z</time>
      </trkpt>
      <trkpt lat="47.717518" lon="2.207442">
        <ele>165.0</ele>
        <time>2022-01-13T08:14:46Z</time>
      </trkpt>
      <trkpt lat="47.71753" lon="2.2074401">
        <ele>165.0</ele>
        <time>2022-01-13T08:14:47Z</time>
      </trkpt>
      <trkpt lat="47.717537" lon="2.207444">
        <ele>165.0</ele>
        <time>2022-01-13T08:14:48Z</time>
      </trkpt>
      <trkpt lat="47.717545" lon="2.2074482">
        <ele>164.0</ele>
        <time>2022-01-13T08:14:49Z</time>
      </trkpt>
      <trkpt lat="47.717552" lon="2.2074523">
        <ele>164.0</ele>
        <time>2022-01-13T08:14:50Z</time>
      </trkpt>
      <trkpt lat="47.71756" lon="2.207457">
        <ele>164.0</ele>
        <time>2022-01-13T08:14:51Z</time>
      </trkpt>
      <trkpt lat="47.717567" lon="2.2074614">
        <ele>164.0</ele>
        <time>2022-01-13T08:14:52Z</time>
      </trkpt>
      <trkpt lat="47.717567" lon="2.2074614">
        <ele>164.0</ele>
        <time>2022-01-13T08:14:53Z</time>
      </trkpt>
      <trkpt lat="47.717587" lon="2.207467">
        <ele>164.0</ele>
        <time>2022-01-13T08:14:54Z</time>
      </trkpt>
      <trkpt lat="47.717598" lon="2.207469">
        <ele>164.0</ele>
        <time>2022-01-13T08:14:55Z</time>
      </trkpt>
      <trkpt lat="47.71761" lon="2.20747">
        <ele>164.0</ele>
        <time>2022-01-13T08:14:56Z</time>
      </trkpt>
      <trkpt lat="47.717625" lon="2.2074766">
        <ele>164.0</ele>
        <time>2022-01-13T08:14:57Z</time>
      </trkpt>
      <trkpt lat="47.717632" lon="2.2074919">
        <ele>163.0</ele>
        <time>2022-01-13T08:14:58Z</time>
      </trkpt>
      <trkpt lat="47.71764" lon="2.2074993">
        <ele>164.0</ele>
        <time>2022-01-13T08:14:59Z</time>
      </trkpt>
      <trkpt lat="47.71765" lon="2.207503">
        <ele>164.0</ele>
        <time>2022-01-13T08:15:00Z</time>
      </trkpt>
      <trkpt lat="47.717674" lon="2.2075067">
        <ele>164.0</ele>
        <time>2022-01-13T08:15:01Z</time>
      </trkpt>
      <trkpt lat="47.717686" lon="2.2075183">
        <ele>165.0</ele>
        <time>2022-01-13T08:15:02Z</time>
      </trkpt>
      <trkpt lat="47.717693" lon="2.2075331">
        <ele>165.0</ele>
        <time>2022-01-13T08:15:03Z</time>
      </trkpt>
      <trkpt lat="47.717705" lon="2.2075403">
        <ele>166.0</ele>
        <time>2022-01-13T08:15:04Z</time>
      </trkpt>
      <trkpt lat="47.717724" lon="2.2075503">
        <ele>166.0</ele>
        <time>2022-01-13T08:15:05Z</time>
      </trkpt>
      <trkpt lat="47.717743" lon="2.207555">
        <ele>166.0</ele>
        <time>2022-01-13T08:15:06Z</time>
      </trkpt>
      <trkpt lat="47.71776" lon="2.207568">
        <ele>167.0</ele>
        <time>2022-01-13T08:15:07Z</time>
      </trkpt>
      <trkpt lat="47.71777" lon="2.2075768">
        <ele>167.0</ele>
        <time>2022-01-13T08:15:08Z</time>
      </trkpt>
      <trkpt lat="47.717785" lon="2.2075863">
        <ele>167.0</ele>
        <time>2022-01-13T08:15:09Z</time>
      </trkpt>
      <trkpt lat="47.717796" lon="2.2075915">
        <ele>168.0</ele>
        <time>2022-01-13T08:15:10Z</time>
      </trkpt>
      <trkpt lat="47.717808" lon="2.2075996">
        <ele>168.0</ele>
        <time>2022-01-13T08:15:11Z</time>
      </trkpt>
      <trkpt lat="47.71782" lon="2.2076116">
        <ele>168.0</ele>
        <time>2022-01-13T08:15:12Z</time>
      </trkpt>
      <trkpt lat="47.71783" lon="2.2076192">
        <ele>168.0</ele>
        <time>2022-01-13T08:15:13Z</time>
      </trkpt>
      <trkpt lat="47.71784" lon="2.207621">
        <ele>168.0</ele>
        <time>2022-01-13T08:15:14Z</time>
      </trkpt>
      <trkpt lat="47.717854" lon="2.2076273">
        <ele>167.0</ele>
        <time>2022-01-13T08:15:15Z</time>
      </trkpt>
      <trkpt lat="47.717865" lon="2.2076354">
        <ele>167.0</ele>
        <time>2022-01-13T08:15:16Z</time>
      </trkpt>
      <trkpt lat="47.717873" lon="2.2076447">
        <ele>167.0</ele>
        <time>2022-01-13T08:15:17Z</time>
      </trkpt>
      <trkpt lat="47.717888" lon="2.207654">
        <ele>168.0</ele>
        <time>2022-01-13T08:15:18Z</time>
      </trkpt>
      <trkpt lat="47.7179" lon="2.2076633">
        <ele>168.0</ele>
        <time>2022-01-13T08:15:19Z</time>
      </trkpt>
      <trkpt lat="47.717915" lon="2.2076745">
        <ele>168.0</ele>
        <time>2022-01-13T08:15:20Z</time>
      </trkpt>
      <trkpt lat="47.71793" lon="2.207682">
        <ele>168.0</ele>
        <time>2022-01-13T08:15:21Z</time>
      </trkpt>
      <trkpt lat="47.71794" lon="2.2076886">
        <ele>169.0</ele>
        <time>2022-01-13T08:15:22Z</time>
      </trkpt>
      <trkpt lat="47.717953" lon="2.2076967">
        <ele>169.0</ele>
        <time>2022-01-13T08:15:23Z</time>
      </trkpt>
      <trkpt lat="47.717964" lon="2.207702">
        <ele>170.0</ele>
        <time>2022-01-13T08:15:24Z</time>
      </trkpt>
      <trkpt lat="47.717976" lon="2.2077081">
        <ele>170.0</ele>
        <time>2022-01-13T08:15:25Z</time>
      </trkpt>
      <trkpt lat="47.71799" lon="2.2077215">
        <ele>170.0</ele>
        <time>2022-01-13T08:15:26Z</time>
      </trkpt>
      <trkpt lat="47.718002" lon="2.2077322">
        <ele>171.0</ele>
        <time>2022-01-13T08:15:27Z</time>
      </trkpt>
      <trkpt lat="47.71801" lon="2.207743">
        <ele>171.0</ele>
        <time>2022-01-13T08:15:28Z</time>
      </trkpt>
      <trkpt lat="47.718018" lon="2.2077518">
        <ele>170.0</ele>
        <time>2022-01-13T08:15:29Z</time>
      </trkpt>
      <trkpt lat="47.71803" lon="2.2077615">
        <ele>170.0</ele>
        <time>2022-01-13T08:15:30Z</time>
      </trkpt>
      <trkpt lat="47.71804" lon="2.2077734">
        <ele>170.0</ele>
        <time>2022-01-13T08:15:31Z</time>
      </trkpt>
      <trkpt lat="47.718052" lon="2.2077863">
        <ele>170.0</ele>
        <time>2022-01-13T08:15:32Z</time>
      </trkpt>
      <trkpt lat="47.718063" lon="2.207793">
        <ele>169.0</ele>
        <time>2022-01-13T08:15:33Z</time>
      </trkpt>
      <trkpt lat="47.71807" lon="2.2077992">
        <ele>169.0</ele>
        <time>2022-01-13T08:15:34Z</time>
      </trkpt>
      <trkpt lat="47.718082" lon="2.2078013">
        <ele>170.0</ele>
        <time>2022-01-13T08:15:35Z</time>
      </trkpt>
      <trkpt lat="47.718094" lon="2.2078106">
        <ele>169.0</ele>
        <time>2022-01-13T08:15:36Z</time>
      </trkpt>
      <trkpt lat="47.71811" lon="2.2078238">
        <ele>170.0</ele>
        <time>2022-01-13T08:15:37Z</time>
      </trkpt>
      <trkpt lat="47.71812" lon="2.207834">
        <ele>170.0</ele>
        <time>2022-01-13T08:15:38Z</time>
      </trkpt>
      <trkpt lat="47.718132" lon="2.2078443">
        <ele>170.0</ele>
        <time>2022-01-13T08:15:39Z</time>
      </trkpt>
      <trkpt lat="47.718143" lon="2.207854">
        <ele>170.0</ele>
        <time>2022-01-13T08:15:40Z</time>
      </trkpt>
      <trkpt lat="47.71816" lon="2.2078621">
        <ele>171.0</ele>
        <time>2022-01-13T08:15:41Z</time>
      </trkpt>
      <trkpt lat="47.71817" lon="2.2078793">
        <ele>172.0</ele>
        <time>2022-01-13T08:15:42Z</time>
      </trkpt>
      <trkpt lat="47.718185" lon="2.2078972">
        <ele>171.0</ele>
        <time>2022-01-13T08:15:43Z</time>
      </trkpt>
      <trkpt lat="47.7182" lon="2.20791">
        <ele>172.0</ele>
        <time>2022-01-13T08:15:44Z</time>
      </trkpt>
      <trkpt lat="47.718216" lon="2.2079253">
        <ele>172.0</ele>
        <time>2022-01-13T08:15:45Z</time>
      </trkpt>
      <trkpt lat="47.718224" lon="2.2079377">
        <ele>171.0</ele>
        <time>2022-01-13T08:15:46Z</time>
      </trkpt>
      <trkpt lat="47.718235" lon="2.2079487">
        <ele>172.0</ele>
        <time>2022-01-13T08:15:47Z</time>
      </trkpt>
      <trkpt lat="47.718246" lon="2.2079551">
        <ele>172.0</ele>
        <time>2022-01-13T08:15:48Z</time>
      </trkpt>
      <trkpt lat="47.718258" lon="2.2079656">
        <ele>172.0</ele>
        <time>2022-01-13T08:15:49Z</time>
      </trkpt>
      <trkpt lat="47.71827" lon="2.2079682">
        <ele>172.0</ele>
        <time>2022-01-13T08:15:50Z</time>
      </trkpt>
      <trkpt lat="47.71828" lon="2.2079735">
        <ele>172.0</ele>
        <time>2022-01-13T08:15:51Z</time>
      </trkpt>
      <trkpt lat="47.7183" lon="2.2079759">
        <ele>173.0</ele>
        <time>2022-01-13T08:15:52Z</time>
      </trkpt>
      <trkpt lat="47.718307" lon="2.207985">
        <ele>173.0</ele>
        <time>2022-01-13T08:15:53Z</time>
      </trkpt>
      <trkpt lat="47.71832" lon="2.207995">
        <ele>173.0</ele>
        <time>2022-01-13T08:15:54Z</time>
      </trkpt>
      <trkpt lat="47.71833" lon="2.2080085">
        <ele>173.0</ele>
        <time>2022-01-13T08:15:55Z</time>
      </trkpt>
      <trkpt lat="47.71834" lon="2.2080188">
        <ele>173.0</ele>
        <time>2022-01-13T08:15:56Z</time>
      </trkpt>
      <trkpt lat="47.71835" lon="2.2080204">
        <ele>173.0</ele>
        <time>2022-01-13T08:15:57Z</time>
      </trkpt>
      <trkpt lat="47.718346" lon="2.2080185">
        <ele>173.0</ele>
        <time>2022-01-13T08:15:58Z</time>
      </trkpt>
      <trkpt lat="47.718346" lon="2.2080183">
        <ele>173.0</ele>
        <time>2022-01-13T08:15:59Z</time>
      </trkpt>
      <trkpt lat="47.718346" lon="2.2080188">
        <ele>173.0</ele>
        <time>2022-01-13T08:16:00Z</time>
      </trkpt>
      <trkpt lat="47.718346" lon="2.2080188">
        <ele>173.0</ele>
        <time>2022-01-13T08:16:00Z</time>
      </trkpt>
    </trkseg>
    <trkseg>
      <trkpt lat="47.718346" lon="2.2080188">
        <ele>173.0</ele>
        <time>2022-01-13T08:16:00Z</time>
      </trkpt>
      <trkpt lat="47.71839" lon="2.2080894">
        <ele>174.0</ele>
        <time>2022-01-13T08:16:07Z</time>
      </trkpt>
      <trkpt lat="47.718403" lon="2.2081008">
        <ele>174.0</ele>
        <time>2022-01-13T08:16:08Z</time>
      </trkpt>
      <trkpt lat="47.71841" lon="2.2081163">
        <ele>173.0</ele>
        <time>2022-01-13T08:16:09Z</time>
      </trkpt>
      <trkpt lat="47.718414" lon="2.208136">
        <ele>173.0</ele>
        <time>2022-01-13T08:16:10Z</time>
      </trkpt>
      <trkpt lat="47.718422" lon="2.208154">
        <ele>172.0</ele>
        <time>2022-01-13T08:16:11Z</time>
      </trkpt>
      <trkpt lat="47.718422" lon="2.208175">
        <ele>172.0</ele>
        <time>2022-01-13T08:16:12Z</time>
      </trkpt>
      <trkpt lat="47.71842" lon="2.208192">
        <ele>172.0</ele>
        <time>2022-01-13T08:16:13Z</time>
      </trkpt>
      <trkpt lat="47.71842" lon="2.2082062">
        <ele>171.0</ele>
        <time>2022-01-13T08:16:14Z</time>
      </trkpt>
      <trkpt lat="47.71842" lon="2.208218">
        <ele>171.0</ele>
        <time>2022-01-13T08:16:15Z</time>
      </trkpt>
      <trkpt lat="47.718414" lon="2.208231">
        <ele>172.0</ele>
        <time>2022-01-13T08:16:16Z</time>
      </trkpt>
      <trkpt lat="47.71841" lon="2.2082427">
        <ele>171.0</ele>
        <time>2022-01-13T08:16:17Z</time>
      </trkpt>
      <trkpt lat="47.71841" lon="2.208255">
        <ele>171.0</ele>
        <time>2022-01-13T08:16:18Z</time>
      </trkpt>
      <trkpt lat="47.71841" lon="2.208272">
        <ele>171.0</ele>
        <time>2022-01-13T08:16:19Z</time>
      </trkpt>
      <trkpt lat="47.71841" lon="2.2082925">
        <ele>170.0</ele>
        <time>2022-01-13T08:16:20Z</time>
      </trkpt>
      <trkpt lat="47.718414" lon="2.2083127">
        <ele>170.0</ele>
        <time>2022-01-13T08:16:21Z</time>
      </trkpt>
      <trkpt lat="47.718414" lon="2.2083297">
        <ele>170.0</ele>
        <time>2022-01-13T08:16:22Z</time>
      </trkpt>
      <trkpt lat="47.718422" lon="2.2083461">
        <ele>170.0</ele>
        <time>2022-01-13T08:16:23Z</time>
      </trkpt>
      <trkpt lat="47.718433" lon="2.2083645">
        <ele>170.0</ele>
        <time>2022-01-13T08:16:24Z</time>
      </trkpt>
      <trkpt lat="47.71844" lon="2.2083805">
        <ele>169.0</ele>
        <time>2022-01-13T08:16:25Z</time>
      </trkpt>
      <trkpt lat="47.71846" lon="2.2083993">
        <ele>169.0</ele>
        <time>2022-01-13T08:16:27Z</time>
      </trkpt>
      <trkpt lat="47.718475" lon="2.2084017">
        <ele>169.0</ele>
        <time>2022-01-13T08:16:28Z</time>
      </trkpt>
      <trkpt lat="47.718487" lon="2.2084112">
        <ele>169.0</ele>
        <time>2022-01-13T08:16:29Z</time>
      </trkpt>
      <trkpt lat="47.7185" lon="2.2084177">
        <ele>169.0</ele>
        <time>2022-01-13T08:16:30Z</time>
      </trkpt>
      <trkpt lat="47.718506" lon="2.2084248">
        <ele>169.0</ele>
        <time>2022-01-13T08:16:31Z</time>
      </trkpt>
      <trkpt lat="47.718513" lon="2.2084296">
        <ele>169.0</ele>
        <time>2022-01-13T08:16:32Z</time>
      </trkpt>
      <trkpt lat="47.71852" lon="2.208435">
        <ele>169.0</ele>
        <time>2022-01-13T08:16:33Z</time>
      </trkpt>
      <trkpt lat="47.718533" lon="2.2084432">
        <ele>168.0</ele>
        <time>2022-01-13T08:16:34Z</time>
      </trkpt>
      <trkpt lat="47.718544" lon="2.2084534">
        <ele>168.0</ele>
        <time>2022-01-13T08:16:35Z</time>
      </trkpt>
      <trkpt lat="47.71855" lon="2.2084663">
        <ele>167.0</ele>
        <time>2022-01-13T08:16:36Z</time>
      </trkpt>
      <trkpt lat="47.718555" lon="2.2084768">
        <ele>167.0</ele>
        <time>2022-01-13T08:16:37Z</time>
      </trkpt>
      <trkpt lat="47.718563" lon="2.208484">
        <ele>167.0</ele>
        <time>2022-01-13T08:16:38Z</time>
      </trkpt>
      <trkpt lat="47.718567" lon="2.2084885">
        <ele>167.0</ele>
        <time>2022-01-13T08:16:39Z</time>
      </trkpt>
      <trkpt lat="47.71857" lon="2.2084985">
        <ele>167.0</ele>
        <time>2022-01-13T08:16:40Z</time>
      </trkpt>
      <trkpt lat="47.718582" lon="2.2085006">
        <ele>167.0</ele>
        <time>2022-01-13T08:16:41Z</time>
      </trkpt>
      <trkpt lat="47.718597" lon="2.2085016">
        <ele>167.0</ele>
        <time>2022-01-13T08:16:42Z</time>
      </trkpt>
      <trkpt lat="47.718613" lon="2.2085042">
        <ele>167.0</ele>
        <time>2022-01-13T08:16:43Z</time>
      </trkpt>
      <trkpt lat="47.71862" lon="2.2084968">
        <ele>168.0</ele>
        <time>2022-01-13T08:16:44Z</time>
      </trkpt>
      <trkpt lat="47.718628" lon="2.2085009">
        <ele>167.0</ele>
        <time>2022-01-13T08:16:45Z</time>
      </trkpt>
      <trkpt lat="47.71863" lon="2.2085102">
        <ele>167.0</ele>
        <time>2022-01-13T08:16:46Z</time>
      </trkpt>
      <trkpt lat="47.71864" lon="2.2085192">
        <ele>167.0</ele>
        <time>2022-01-13T08:16:47Z</time>
      </trkpt>
      <trkpt lat="47.718647" lon="2.2085202">
        <ele>166.0</ele>
        <time>2022-01-13T08:16:48Z</time>
      </trkpt>
      <trkpt lat="47.71866" lon="2.208521">
        <ele>166.0</ele>
        <time>2022-01-13T08:16:49Z</time>
      </trkpt>
      <trkpt lat="47.71867" lon="2.2085276">
        <ele>166.0</ele>
        <time>2022-01-13T08:16:50Z</time>
      </trkpt>
      <trkpt lat="47.71868" lon="2.208531">
        <ele>165.0</ele>
        <time>2022-01-13T08:16:51Z</time>
      </trkpt>
      <trkpt lat="47.71869" lon="2.2085373">
        <ele>165.0</ele>
        <time>2022-01-13T08:16:52Z</time>
      </trkpt>
      <trkpt lat="47.7187" lon="2.2085404">
        <ele>165.0</ele>
        <time>2022-01-13T08:16:53Z</time>
      </trkpt>
      <trkpt lat="47.718708" lon="2.2085435">
        <ele>165.0</ele>
        <time>2022-01-13T08:16:54Z</time>
      </trkpt>
      <trkpt lat="47.71871" lon="2.208549">
        <ele>164.0</ele>
        <time>2022-01-13T08:16:55Z</time>
      </trkpt>
      <trkpt lat="47.71872" lon="2.20855">
        <ele>164.0</ele>
        <time>2022-01-13T08:16:56Z</time>
      </trkpt>
      <trkpt lat="47.71872" lon="2.20855">
        <ele>164.0</ele>
        <time>2022-01-13T08:16:57Z</time>
      </trkpt>
      <trkpt lat="47.71872" lon="2.20855">
        <ele>164.0</ele>
        <time>2022-01-13T08:16:58Z</time>
      </trkpt>
      <trkpt lat="47.718746" lon="2.2085733">
        <ele>163.0</ele>
        <time>2022-01-13T08:16:59Z</time>
      </trkpt>
      <trkpt lat="47.718746" lon="2.2085865">
        <ele>163.0</ele>
        <time>2022-01-13T08:17:00Z</time>
      </trkpt>
      <trkpt lat="47.718754" lon="2.2086005">
        <ele>163.0</ele>
        <time>2022-01-13T08:17:01Z</time>
      </trkpt>
      <trkpt lat="47.718754" lon="2.208611">
        <ele>163.0</ele>
        <time>2022-01-13T08:17:02Z</time>
      </trkpt>
      <trkpt lat="47.71876" lon="2.2086234">
        <ele>162.0</ele>
        <time>2022-01-13T08:17:03Z</time>
      </trkpt>
      <trkpt lat="47.718765" lon="2.2086442">
        <ele>163.0</ele>
        <time>2022-01-13T08:17:04Z</time>
      </trkpt>
      <trkpt lat="47.71877" lon="2.208661">
        <ele>163.0</ele>
        <time>2022-01-13T08:17:05Z</time>
      </trkpt>
      <trkpt lat="47.718773" lon="2.2086802">
        <ele>164.0</ele>
        <time>2022-01-13T08:17:06Z</time>
      </trkpt>
      <trkpt lat="47.718773" lon="2.2087">
        <ele>164.0</ele>
        <time>2022-01-13T08:17:07Z</time>
      </trkpt>
      <trkpt lat="47.718777" lon="2.2087166">
        <ele>164.0</ele>
        <time>2022-01-13T08:17:08Z</time>
      </trkpt>
      <trkpt lat="47.71878" lon="2.2087252">
        <ele>164.0</ele>
        <time>2022-01-13T08:17:09Z</time>
      </trkpt>
      <trkpt lat="47.71878" lon="2.2087412">
        <ele>164.0</ele>
        <time>2022-01-13T08:17:10Z</time>
      </trkpt>
      <trkpt lat="47.71879" lon="2.2087545">
        <ele>164.0</ele>
        <time>2022-01-13T08:17:11Z</time>
      </trkpt>
      <trkpt lat="47.718796" lon="2.2087724">
        <ele>164.0</ele>
        <time>2022-01-13T08:17:12Z</time>
      </trkpt>
      <trkpt lat="47.7188" lon="2.2087934">
        <ele>164.0</ele>
        <time>2022-01-13T08:17:13Z</time>
      </trkpt>
      <trkpt lat="47.7188" lon="2.2088099">
        <ele>164.0</ele>
        <time>2022-01-13T08:17:14Z</time>
      </trkpt>
      <trkpt lat="47.718796" lon="2.2088265">
        <ele>164.0</ele>
        <time>2022-01-13T08:17:15Z</time>
      </trkpt>
      <trkpt lat="47.7188" lon="2.2088416">
        <ele>164.0</ele>
        <time>2022-01-13T08:17:16Z</time>
      </trkpt>
      <trkpt lat="47.7188" lon="2.208859">
        <ele>164.0</ele>
        <time>2022-01-13T08:17:17Z</time>
      </trkpt>
      <trkpt lat="47.7188" lon="2.2088742">
        <ele>164.0</ele>
        <time>2022-01-13T08:17:18Z</time>
      </trkpt>
      <trkpt lat="47.718803" lon="2.208893">
        <ele>164.0</ele>
        <time>2022-01-13T08:17:19Z</time>
      </trkpt>
      <trkpt lat="47.7188" lon="2.2089097">
        <ele>165.0</ele>
        <time>2022-01-13T08:17:20Z</time>
      </trkpt>
      <trkpt lat="47.718792" lon="2.2089257">
        <ele>165.0</ele>
        <time>2022-01-13T08:17:21Z</time>
      </trkpt>
      <trkpt lat="47.71879" lon="2.208943">
        <ele>165.0</ele>
        <time>2022-01-13T08:17:22Z</time>
      </trkpt>
      <trkpt lat="47.718784" lon="2.208957">
        <ele>165.0</ele>
        <time>2022-01-13T08:17:23Z</time>
      </trkpt>
      <trkpt lat="47.71878" lon="2.2089727">
        <ele>165.0</ele>
        <time>2022-01-13T08:17:24Z</time>
      </trkpt>
      <trkpt lat="47.71878" lon="2.208986">
        <ele>165.0</ele>
        <time>2022-01-13T08:17:25Z</time>
      </trkpt>
      <trkpt lat="47.718784" lon="2.2089984">
        <ele>165.0</ele>
        <time>2022-01-13T08:17:26Z</time>
      </trkpt>
      <trkpt lat="47.718784" lon="2.2090123">
        <ele>165.0</ele>
        <time>2022-01-13T08:17:27Z</time>
      </trkpt>
      <trkpt lat="47.718784" lon="2.2090273">
        <ele>165.0</ele>
        <time>2022-01-13T08:17:28Z</time>
      </trkpt>
      <trkpt lat="47.71878" lon="2.209041">
        <ele>166.0</ele>
        <time>2022-01-13T08:17:29Z</time>
      </trkpt>
      <trkpt lat="47.718777" lon="2.2090526">
        <ele>166.0</ele>
        <time>2022-01-13T08:17:30Z</time>
      </trkpt>
      <trkpt lat="47.718777" lon="2.209065">
        <ele>166.0</ele>
        <time>2022-01-13T08:17:31Z</time>
      </trkpt>
      <trkpt lat="47.71877" lon="2.2090783">
        <ele>166.0</ele>
        <time>2022-01-13T08:17:32Z</time>
      </trkpt>
      <trkpt lat="47.71877" lon="2.2090883">
        <ele>166.0</ele>
        <time>2022-01-13T08:17:33Z</time>
      </trkpt>
      <trkpt lat="47.718765" lon="2.2091036">
        <ele>166.0</ele>
        <time>2022-01-13T08:17:34Z</time>
      </trkpt>
      <trkpt lat="47.718758" lon="2.2091205">
        <ele>166.0</ele>
        <time>2022-01-13T08:17:35Z</time>
      </trkpt>
      <trkpt lat="47.718754" lon="2.2091374">
        <ele>166.0</ele>
        <time>2022-01-13T08:17:36Z</time>
      </trkpt>
      <trkpt lat="47.71875" lon="2.2091513">
        <ele>167.0</ele>
        <time>2022-01-13T08:17:37Z</time>
      </trkpt>
      <trkpt lat="47.71875" lon="2.2091637">
        <ele>167.0</ele>
        <time>2022-01-13T08:17:38Z</time>
      </trkpt>
      <trkpt lat="47.718754" lon="2.2091775">
        <ele>167.0</ele>
        <time>2022-01-13T08:17:39Z</time>
      </trkpt>
      <trkpt lat="47.71876" lon="2.2091897">
        <ele>167.0</ele>
        <time>2022-01-13T08:17:40Z</time>
      </trkpt>
      <trkpt lat="47.718765" lon="2.2092009">
        <ele>166.0</ele>
        <time>2022-01-13T08:17:41Z</time>
      </trkpt>
      <trkpt lat="47.718773" lon="2.2092104">
        <ele>166.0</ele>
        <time>2022-01-13T08:17:42Z</time>
      </trkpt>
      <trkpt lat="47.718773" lon="2.2092104">
        <ele>166.0</ele>
        <time>2022-01-13T08:17:43Z</time>
      </trkpt>
      <trkpt lat="47.718773" lon="2.2092104">
        <ele>166.0</ele>
        <time>2022-01-13T08:17:44Z</time>
      </trkpt>
      <trkpt lat="47.718784" lon="2.2092297">
        <ele>165.0</ele>
        <time>2022-01-13T08:17:45Z</time>
      </trkpt>
      <trkpt lat="47.718796" lon="2.209238">
        <ele>164.0</ele>
        <time>2022-01-13T08:17:46Z</time>
      </trkpt>
      <trkpt lat="47.718803" lon="2.209247">
        <ele>164.0</ele>
        <time>2022-01-13T08:17:47Z</time>
      </trkpt>
      <trkpt lat="47.71881" lon="2.2092578">
        <ele>164.0</ele>
        <time>2022-01-13T08:17:48Z</time>
      </trkpt>
      <trkpt lat="47.718822" lon="2.209269">
        <ele>163.0</ele>
        <time>2022-01-13T08:17:49Z</time>
      </trkpt>
      <trkpt lat="47.71883" lon="2.2092783">
        <ele>163.0</ele>
        <time>2022-01-13T08:17:50Z</time>
      </trkpt>
      <trkpt lat="47.718838" lon="2.2092843">
        <ele>163.0</ele>
        <time>2022-01-13T08:17:51Z</time>
      </trkpt>
      <trkpt lat="47.718845" lon="2.2092943">
        <ele>162.0</ele>
        <time>2022-01-13T08:17:52Z</time>
      </trkpt>
      <trkpt lat="47.718853" lon="2.209303">
        <ele>162.0</ele>
        <time>2022-01-13T08:17:53Z</time>
      </trkpt>
      <trkpt lat="47.718857" lon="2.2093081">
        <ele>162.0</ele>
        <time>2022-01-13T08:17:54Z</time>
      </trkpt>
      <trkpt lat="47.71887" lon="2.2093158">
        <ele>162.0</ele>
        <time>2022-01-13T08:17:55Z</time>
      </trkpt>
      <trkpt lat="47.718876" lon="2.209322">
        <ele>162.0</ele>
        <time>2022-01-13T08:17:56Z</time>
      </trkpt>
      <trkpt lat="47.71889" lon="2.2093294">
        <ele>162.0</ele>
        <time>2022-01-13T08:17:57Z</time>
      </trkpt>
      <trkpt lat="47.718906" lon="2.2093337">
        <ele>162.0</ele>
        <time>2022-01-13T08:17:58Z</time>
      </trkpt>
      <trkpt lat="47.71892" lon="2.209351">
        <ele>162.0</ele>
        <time>2022-01-13T08:17:59Z</time>
      </trkpt>
      <trkpt lat="47.71893" lon="2.2093644">
        <ele>162.0</ele>
        <time>2022-01-13T08:18:00Z</time>
      </trkpt>
      <trkpt lat="47.71894" lon="2.209375">
        <ele>162.0</ele>
        <time>2022-01-13T08:18:01Z</time>
      </trkpt>
      <trkpt lat="47.71895" lon="2.20938">
        <ele>162.0</ele>
        <time>2022-01-13T08:18:02Z</time>
      </trkpt>
      <trkpt lat="47.718964" lon="2.2093852">
        <ele>161.0</ele>
        <time>2022-01-13T08:18:03Z</time>
      </trkpt>
      <trkpt lat="47.718975" lon="2.2093976">
        <ele>161.0</ele>
        <time>2022-01-13T08:18:04Z</time>
      </trkpt>
      <trkpt lat="47.71898" lon="2.2094042">
        <ele>161.0</ele>
        <time>2022-01-13T08:18:05Z</time>
      </trkpt>
      <trkpt lat="47.718987" lon="2.2094164">
        <ele>161.0</ele>
        <time>2022-01-13T08:18:06Z</time>
      </trkpt>
      <trkpt lat="47.718994" lon="2.2094274">
        <ele>161.0</ele>
        <time>2022-01-13T08:18:07Z</time>
      </trkpt>
      <trkpt lat="47.719" lon="2.209434">
        <ele>161.0</ele>
        <time>2022-01-13T08:18:08Z</time>
      </trkpt>
      <trkpt lat="47.71901" lon="2.2094388">
        <ele>161.0</ele>
        <time>2022-01-13T08:18:09Z</time>
      </trkpt>
      <trkpt lat="47.71902" lon="2.2094426">
        <ele>160.0</ele>
        <time>2022-01-13T08:18:10Z</time>
      </trkpt>
      <trkpt lat="47.719032" lon="2.209449">
        <ele>161.0</ele>
        <time>2022-01-13T08:18:11Z</time>
      </trkpt>
      <trkpt lat="47.719048" lon="2.2094548">
        <ele>161.0</ele>
        <time>2022-01-13T08:18:12Z</time>
      </trkpt>
      <trkpt lat="47.719055" lon="2.209458">
        <ele>161.0</ele>
        <time>2022-01-13T08:18:13Z</time>
      </trkpt>
      <trkpt lat="47.71906" lon="2.2094688">
        <ele>161.0</ele>
        <time>2022-01-13T08:18:14Z</time>
      </trkpt>
      <trkpt lat="47.719067" lon="2.209478">
        <ele>161.0</ele>
        <time>2022-01-13T08:18:15Z</time>
      </trkpt>
      <trkpt lat="47.719067" lon="2.209478">
        <ele>161.0</ele>
        <time>2022-01-13T08:18:16Z</time>
      </trkpt>
      <trkpt lat="47.719067" lon="2.209478">
        <ele>161.0</ele>
        <time>2022-01-13T08:18:17Z</time>
      </trkpt>
      <trkpt lat="47.71908" lon="2.209514">
        <ele>161.0</ele>
        <time>2022-01-13T08:18:18Z</time>
      </trkpt>
      <trkpt lat="47.71909" lon="2.2095234">
        <ele>161.0</ele>
        <time>2022-01-13T08:18:19Z</time>
      </trkpt>
      <trkpt lat="47.719105" lon="2.2095318">
        <ele>160.0</ele>
        <time>2022-01-13T08:18:20Z</time>
      </trkpt>
      <trkpt lat="47.719112" lon="2.209541">
        <ele>160.0</ele>
        <time>2022-01-13T08:18:21Z</time>
      </trkpt>
      <trkpt lat="47.719128" lon="2.2095487">
        <ele>160.0</ele>
        <time>2022-01-13T08:18:22Z</time>
      </trkpt>
      <trkpt lat="47.719135" lon="2.209555">
        <ele>159.0</ele>
        <time>2022-01-13T08:18:23Z</time>
      </trkpt>
      <trkpt lat="47.719143" lon="2.2095625">
        <ele>159.0</ele>
        <time>2022-01-13T08:18:24Z</time>
      </trkpt>
      <trkpt lat="47.71915" lon="2.2095714">
        <ele>159.0</ele>
        <time>2022-01-13T08:18:25Z</time>
      </trkpt>
      <trkpt lat="47.719162" lon="2.2095792">
        <ele>159.0</ele>
        <time>2022-01-13T08:18:26Z</time>
      </trkpt>
      <trkpt lat="47.71917" lon="2.2095854">
        <ele>159.0</ele>
        <time>2022-01-13T08:18:27Z</time>
      </trkpt>
      <trkpt lat="47.71918" lon="2.209589">
        <ele>159.0</ele>
        <time>2022-01-13T08:18:28Z</time>
      </trkpt>
      <trkpt lat="47.71919" lon="2.209594">
        <ele>159.0</ele>
        <time>2022-01-13T08:18:29Z</time>
      </trkpt>
      <trkpt lat="47.7192" lon="2.2096019">
        <ele>158.0</ele>
        <time>2022-01-13T08:18:30Z</time>
      </trkpt>
      <trkpt lat="47.71921" lon="2.2096143">
        <ele>158.0</ele>
        <time>2022-01-13T08:18:31Z</time>
      </trkpt>
      <trkpt lat="47.719223" lon="2.2096236">
        <ele>158.0</ele>
        <time>2022-01-13T08:18:32Z</time>
      </trkpt>
      <trkpt lat="47.719234" lon="2.2096329">
        <ele>158.0</ele>
        <time>2022-01-13T08:18:33Z</time>
      </trkpt>
      <trkpt lat="47.719242" lon="2.2096403">
        <ele>159.0</ele>
        <time>2022-01-13T08:18:34Z</time>
      </trkpt>
      <trkpt lat="47.719254" lon="2.2096467">
        <ele>158.0</ele>
        <time>2022-01-13T08:18:35Z</time>
      </trkpt>
      <trkpt lat="47.719257" lon="2.2096555">
        <ele>158.0</ele>
        <time>2022-01-13T08:18:36Z</time>
      </trkpt>
      <trkpt lat="47.71927" lon="2.2096655">
        <ele>158.0</ele>
        <time>2022-01-13T08:18:37Z</time>
      </trkpt>
      <trkpt lat="47.719273" lon="2.2096753">
        <ele>158.0</ele>
        <time>2022-01-13T08:18:38Z</time>
      </trkpt>
      <trkpt lat="47.719276" lon="2.2096868">
        <ele>158.0</ele>
        <time>2022-01-13T08:18:39Z</time>
      </trkpt>
      <trkpt lat="47.71928" lon="2.2096953">
        <ele>158.0</ele>
        <time>2022-01-13T08:18:40Z</time>
      </trkpt>
      <trkpt lat="47.719288" lon="2.2097037">
        <ele>158.0</ele>
        <time>2022-01-13T08:18:41Z</time>
      </trkpt>
      <trkpt lat="47.719296" lon="2.2097147">
        <ele>158.0</ele>
        <time>2022-01-13T08:18:42Z</time>
      </trkpt>
      <trkpt lat="47.719296" lon="2.2097147">
        <ele>158.0</ele>
        <time>2022-01-13T08:18:43Z</time>
      </trkpt>
      <trkpt lat="47.719296" lon="2.2097147">
        <ele>158.0</ele>
        <time>2022-01-13T08:18:44Z</time>
      </trkpt>
      <trkpt lat="47.71931" lon="2.2097335">
        <ele>158.0</ele>
        <time>2022-01-13T08:18:45Z</time>
      </trkpt>
      <trkpt lat="47.71932" lon="2.209743">
        <ele>158.0</ele>
        <time>2022-01-13T08:18:46Z</time>
      </trkpt>
      <trkpt lat="47.71932" lon="2.2097523">
        <ele>158.0</ele>
        <time>2022-01-13T08:18:47Z</time>
      </trkpt>
      <trkpt lat="47.719322" lon="2.209762">
        <ele>158.0</ele>
        <time>2022-01-13T08:18:48Z</time>
      </trkpt>
      <trkpt lat="47.719322" lon="2.209762">
        <ele>158.0</ele>
        <time>2022-01-13T08:18:49Z</time>
      </trkpt>
      <trkpt lat="47.719334" lon="2.2097821">
        <ele>158.0</ele>
        <time>2022-01-13T08:18:50Z</time>
      </trkpt>
      <trkpt lat="47.719345" lon="2.209797">
        <ele>158.0</ele>
        <time>2022-01-13T08:18:51Z</time>
      </trkpt>
      <trkpt lat="47.719364" lon="2.2098098">
        <ele>157.0</ele>
        <time>2022-01-13T08:18:52Z</time>
      </trkpt>
      <trkpt lat="47.719368" lon="2.2098255">
        <ele>157.0</ele>
        <time>2022-01-13T08:18:53Z</time>
      </trkpt>
      <trkpt lat="47.71938" lon="2.2098484">
        <ele>157.0</ele>
        <time>2022-01-13T08:18:54Z</time>
      </trkpt>
      <trkpt lat="47.71939" lon="2.2098687">
        <ele>157.0</ele>
        <time>2022-01-13T08:18:55Z</time>
      </trkpt>
      <trkpt lat="47.719402" lon="2.2098885">
        <ele>156.0</ele>
        <time>2022-01-13T08:18:56Z</time>
      </trkpt>
      <trkpt lat="47.719414" lon="2.2099097">
        <ele>156.0</ele>
        <time>2022-01-13T08:18:57Z</time>
      </trkpt>
      <trkpt lat="47.71943" lon="2.2099285">
        <ele>155.0</ele>
        <time>2022-01-13T08:18:58Z</time>
      </trkpt>
      <trkpt lat="47.71944" lon="2.209947">
        <ele>155.0</ele>
        <time>2022-01-13T08:18:59Z</time>
      </trkpt>
      <trkpt lat="47.71945" lon="2.209961">
        <ele>154.0</ele>
        <time>2022-01-13T08:19:00Z</time>
      </trkpt>
      <trkpt lat="47.719463" lon="2.2099767">
        <ele>154.0</ele>
        <time>2022-01-13T08:19:01Z</time>
      </trkpt>
      <trkpt lat="47.71947" lon="2.20999">
        <ele>154.0</ele>
        <time>2022-01-13T08:19:02Z</time>
      </trkpt>
      <trkpt lat="47.71948" lon="2.2100012">
        <ele>153.0</ele>
        <time>2022-01-13T08:19:03Z</time>
      </trkpt>
      <trkpt lat="47.719486" lon="2.21002">
        <ele>154.0</ele>
        <time>2022-01-13T08:19:04Z</time>
      </trkpt>
      <trkpt lat="47.719498" lon="2.2100377">
        <ele>154.0</ele>
        <time>2022-01-13T08:19:05Z</time>
      </trkpt>
      <trkpt lat="47.719505" lon="2.2100525">
        <ele>153.0</ele>
        <time>2022-01-13T08:19:06Z</time>
      </trkpt>
      <trkpt lat="47.719517" lon="2.2100658">
        <ele>153.0</ele>
        <time>2022-01-13T08:19:07Z</time>
      </trkpt>
      <trkpt lat="47.71953" lon="2.2100804">
        <ele>153.0</ele>
        <time>2022-01-13T08:19:08Z</time>
      </trkpt>
      <trkpt lat="47.719536" lon="2.2100964">
        <ele>153.0</ele>
        <time>2022-01-13T08:19:09Z</time>
      </trkpt>
      <trkpt lat="47.719547" lon="2.2101138">
        <ele>153.0</ele>
        <time>2022-01-13T08:19:10Z</time>
      </trkpt>
      <trkpt lat="47.719555" lon="2.2101288">
        <ele>153.0</ele>
        <time>2022-01-13T08:19:11Z</time>
      </trkpt>
      <trkpt lat="47.71956" lon="2.2101429">
        <ele>153.0</ele>
        <time>2022-01-13T08:19:12Z</time>
      </trkpt>
      <trkpt lat="47.71957" lon="2.2101495">
        <ele>153.0</ele>
        <time>2022-01-13T08:19:13Z</time>
      </trkpt>
      <trkpt lat="47.719578" lon="2.2101538">
        <ele>152.0</ele>
        <time>2022-01-13T08:19:14Z</time>
      </trkpt>
      <trkpt lat="47.71959" lon="2.210166">
        <ele>152.0</ele>
        <time>2022-01-13T08:19:15Z</time>
      </trkpt>
      <trkpt lat="47.7196" lon="2.2101693">
        <ele>151.0</ele>
        <time>2022-01-13T08:19:16Z</time>
      </trkpt>
      <trkpt lat="47.71961" lon="2.2101734">
        <ele>151.0</ele>
        <time>2022-01-13T08:19:17Z</time>
      </trkpt>
      <trkpt lat="47.71962" lon="2.210185">
        <ele>152.0</ele>
        <time>2022-01-13T08:19:18Z</time>
      </trkpt>
      <trkpt lat="47.719635" lon="2.210194">
        <ele>152.0</ele>
        <time>2022-01-13T08:19:19Z</time>
      </trkpt>
      <trkpt lat="47.719643" lon="2.2102082">
        <ele>152.0</ele>
        <time>2022-01-13T08:19:20Z</time>
      </trkpt>
      <trkpt lat="47.71965" lon="2.2102256">
        <ele>152.0</ele>
        <time>2022-01-13T08:19:21Z</time>
      </trkpt>
      <trkpt lat="47.71966" lon="2.2102432">
        <ele>152.0</ele>
        <time>2022-01-13T08:19:22Z</time>
      </trkpt>
      <trkpt lat="47.71967" lon="2.2102592">
        <ele>152.0</ele>
        <time>2022-01-13T08:19:23Z</time>
      </trkpt>
      <trkpt lat="47.71968" lon="2.21027">
        <ele>153.0</ele>
        <time>2022-01-13T08:19:24Z</time>
      </trkpt>
      <trkpt lat="47.71969" lon="2.2102776">
        <ele>152.0</ele>
        <time>2022-01-13T08:19:25Z</time>
      </trkpt>
      <trkpt lat="47.719696" lon="2.2102838">
        <ele>152.0</ele>
        <time>2022-01-13T08:19:26Z</time>
      </trkpt>
      <trkpt lat="47.719707" lon="2.210292">
        <ele>152.0</ele>
        <time>2022-01-13T08:19:27Z</time>
      </trkpt>
      <trkpt lat="47.719715" lon="2.210303">
        <ele>152.0</ele>
        <time>2022-01-13T08:19:28Z</time>
      </trkpt>
      <trkpt lat="47.719727" lon="2.2103162">
        <ele>152.0</ele>
        <time>2022-01-13T08:19:29Z</time>
      </trkpt>
      <trkpt lat="47.719738" lon="2.2103233">
        <ele>152.0</ele>
        <time>2022-01-13T08:19:30Z</time>
      </trkpt>
      <trkpt lat="47.71975" lon="2.2103343">
        <ele>152.0</ele>
        <time>2022-01-13T08:19:31Z</time>
      </trkpt>
      <trkpt lat="47.71976" lon="2.2103431">
        <ele>152.0</ele>
        <time>2022-01-13T08:19:32Z</time>
      </trkpt>
      <trkpt lat="47.71977" lon="2.2103567">
        <ele>152.0</ele>
        <time>2022-01-13T08:19:33Z</time>
      </trkpt>
      <trkpt lat="47.719772" lon="2.2103686">
        <ele>152.0</ele>
        <time>2022-01-13T08:19:34Z</time>
      </trkpt>
      <trkpt lat="47.71978" lon="2.2103813">
        <ele>151.0</ele>
        <time>2022-01-13T08:19:35Z</time>
      </trkpt>
      <trkpt lat="47.719788" lon="2.210391">
        <ele>151.0</ele>
        <time>2022-01-13T08:19:36Z</time>
      </trkpt>
      <trkpt lat="47.71979" lon="2.2103982">
        <ele>151.0</ele>
        <time>2022-01-13T08:19:37Z</time>
      </trkpt>
      <trkpt lat="47.71979" lon="2.210406">
        <ele>151.0</ele>
        <time>2022-01-13T08:19:38Z</time>
      </trkpt>
      <trkpt lat="47.71979" lon="2.2104177">
        <ele>151.0</ele>
        <time>2022-01-13T08:19:39Z</time>
      </trkpt>
      <trkpt lat="47.719795" lon="2.21043">
        <ele>151.0</ele>
        <time>2022-01-13T08:19:40Z</time>
      </trkpt>
      <trkpt lat="47.719803" lon="2.210442">
        <ele>151.0</ele>
        <time>2022-01-13T08:19:41Z</time>
      </trkpt>
      <trkpt lat="47.71981" lon="2.2104478">
        <ele>151.0</ele>
        <time>2022-01-13T08:19:42Z</time>
      </trkpt>
      <trkpt lat="47.719814" lon="2.210454">
        <ele>151.0</ele>
        <time>2022-01-13T08:19:43Z</time>
      </trkpt>
      <trkpt lat="47.719822" lon="2.2104619">
        <ele>151.0</ele>
        <time>2022-01-13T08:19:44Z</time>
      </trkpt>
      <trkpt lat="47.71983" lon="2.2104688">
        <ele>151.0</ele>
        <time>2022-01-13T08:19:45Z</time>
      </trkpt>
      <trkpt lat="47.719837" lon="2.2104833">
        <ele>151.0</ele>
        <time>2022-01-13T08:19:46Z</time>
      </trkpt>
      <trkpt lat="47.71985" lon="2.2104893">
        <ele>152.0</ele>
        <time>2022-01-13T08:19:47Z</time>
      </trkpt>
      <trkpt lat="47.71986" lon="2.2104974">
        <ele>152.0</ele>
        <time>2022-01-13T08:19:48Z</time>
      </trkpt>
      <trkpt lat="47.71987" lon="2.21051">
        <ele>152.0</ele>
        <time>2022-01-13T08:19:49Z</time>
      </trkpt>
      <trkpt lat="47.719887" lon="2.2105184">
        <ele>152.0</ele>
        <time>2022-01-13T08:19:50Z</time>
      </trkpt>
      <trkpt lat="47.719902" lon="2.21052">
        <ele>151.0</ele>
        <time>2022-01-13T08:19:51Z</time>
      </trkpt>
      <trkpt lat="47.719917" lon="2.2105265">
        <ele>151.0</ele>
        <time>2022-01-13T08:19:52Z</time>
      </trkpt>
      <trkpt lat="47.719933" lon="2.2105343">
        <ele>151.0</ele>
        <time>2022-01-13T08:19:53Z</time>
      </trkpt>
      <trkpt lat="47.71994" lon="2.21054">
        <ele>152.0</ele>
        <time>2022-01-13T08:19:54Z</time>
      </trkpt>
      <trkpt lat="47.719948" lon="2.210549">
        <ele>152.0</ele>
        <time>2022-01-13T08:19:55Z</time>
      </trkpt>
      <trkpt lat="47.71996" lon="2.2105558">
        <ele>152.0</ele>
        <time>2022-01-13T08:19:56Z</time>
      </trkpt>
      <trkpt lat="47.719967" lon="2.2105627">
        <ele>152.0</ele>
        <time>2022-01-13T08:19:57Z</time>
      </trkpt>
      <trkpt lat="47.719967" lon="2.2105627">
        <ele>152.0</ele>
        <time>2022-01-13T08:19:58Z</time>
      </trkpt>
      <trkpt lat="47.719967" lon="2.2105627">
        <ele>152.0</ele>
        <time>2022-01-13T08:19:59Z</time>
      </trkpt>
      <trkpt lat="47.719986" lon="2.2105846">
        <ele>152.0</ele>
        <time>2022-01-13T08:20:00Z</time>
      </trkpt>
      <trkpt lat="47.71999" lon="2.2105932">
        <ele>152.0</ele>
        <time>2022-01-13T08:20:01Z</time>
      </trkpt>
      <trkpt lat="47.72" lon="2.2105987">
        <ele>152.0</ele>
        <time>2022-01-13T08:20:02Z</time>
      </trkpt>
      <trkpt lat="47.720013" lon="2.2106102">
        <ele>153.0</ele>
        <time>2022-01-13T08:20:03Z</time>
      </trkpt>
      <trkpt lat="47.720024" lon="2.2106202">
        <ele>152.0</ele>
        <time>2022-01-13T08:20:04Z</time>
      </trkpt>
      <trkpt lat="47.72003" lon="2.2106261">
        <ele>153.0</ele>
        <time>2022-01-13T08:20:05Z</time>
      </trkpt>
      <trkpt lat="47.720043" lon="2.2106283">
        <ele>153.0</ele>
        <time>2022-01-13T08:20:06Z</time>
      </trkpt>
      <trkpt lat="47.72005" lon="2.2106357">
        <ele>153.0</ele>
        <time>2022-01-13T08:20:07Z</time>
      </trkpt>
      <trkpt lat="47.720066" lon="2.210637">
        <ele>153.0</ele>
        <time>2022-01-13T08:20:08Z</time>
      </trkpt>
      <trkpt lat="47.72008" lon="2.2106376">
        <ele>153.0</ele>
        <time>2022-01-13T08:20:09Z</time>
      </trkpt>
      <trkpt lat="47.72009" lon="2.210638">
        <ele>153.0</ele>
        <time>2022-01-13T08:20:10Z</time>
      </trkpt>
      <trkpt lat="47.720097" lon="2.210643">
        <ele>154.0</ele>
        <time>2022-01-13T08:20:11Z</time>
      </trkpt>
      <trkpt lat="47.7201" lon="2.210651">
        <ele>154.0</ele>
        <time>2022-01-13T08:20:12Z</time>
      </trkpt>
      <trkpt lat="47.72011" lon="2.2106564">
        <ele>154.0</ele>
        <time>2022-01-13T08:20:13Z</time>
      </trkpt>
      <trkpt lat="47.720127" lon="2.2106597">
        <ele>154.0</ele>
        <time>2022-01-13T08:20:14Z</time>
      </trkpt>
      <trkpt lat="47.72014" lon="2.2106643">
        <ele>154.0</ele>
        <time>2022-01-13T08:20:15Z</time>
      </trkpt>
      <trkpt lat="47.720158" lon="2.2106645">
        <ele>154.0</ele>
        <time>2022-01-13T08:20:16Z</time>
      </trkpt>
      <trkpt lat="47.720173" lon="2.2106707">
        <ele>154.0</ele>
        <time>2022-01-13T08:20:17Z</time>
      </trkpt>
      <trkpt lat="47.720192" lon="2.2106748">
        <ele>154.0</ele>
        <time>2022-01-13T08:20:18Z</time>
      </trkpt>
      <trkpt lat="47.720203" lon="2.2106788">
        <ele>154.0</ele>
        <time>2022-01-13T08:20:19Z</time>
      </trkpt>
      <trkpt lat="47.72022" lon="2.2106838">
        <ele>154.0</ele>
        <time>2022-01-13T08:20:20Z</time>
      </trkpt>
      <trkpt lat="47.720226" lon="2.21069">
        <ele>153.0</ele>
        <time>2022-01-13T08:20:21Z</time>
      </trkpt>
      <trkpt lat="47.720238" lon="2.2106879">
        <ele>153.0</ele>
        <time>2022-01-13T08:20:22Z</time>
      </trkpt>
      <trkpt lat="47.72024" lon="2.2106907">
        <ele>153.0</ele>
        <time>2022-01-13T08:20:23Z</time>
      </trkpt>
      <trkpt lat="47.720257" lon="2.210695">
        <ele>153.0</ele>
        <time>2022-01-13T08:20:24Z</time>
      </trkpt>
      <trkpt lat="47.720272" lon="2.2107">
        <ele>153.0</ele>
        <time>2022-01-13T08:20:25Z</time>
      </trkpt>
      <trkpt lat="47.720284" lon="2.2107058">
        <ele>153.0</ele>
        <time>2022-01-13T08:20:26Z</time>
      </trkpt>
      <trkpt lat="47.720295" lon="2.2107062">
        <ele>153.0</ele>
        <time>2022-01-13T08:20:27Z</time>
      </trkpt>
      <trkpt lat="47.720306" lon="2.2107027">
        <ele>153.0</ele>
        <time>2022-01-13T08:20:28Z</time>
      </trkpt>
      <trkpt lat="47.72032" lon="2.2107058">
        <ele>153.0</ele>
        <time>2022-01-13T08:20:29Z</time>
      </trkpt>
      <trkpt lat="47.720337" lon="2.2107093">
        <ele>153.0</ele>
        <time>2022-01-13T08:20:30Z</time>
      </trkpt>
      <trkpt lat="47.720345" lon="2.2107186">
        <ele>152.0</ele>
        <time>2022-01-13T08:20:31Z</time>
      </trkpt>
      <trkpt lat="47.72036" lon="2.2107248">
        <ele>152.0</ele>
        <time>2022-01-13T08:20:32Z</time>
      </trkpt>
      <trkpt lat="47.72037" lon="2.210734">
        <ele>152.0</ele>
        <time>2022-01-13T08:20:33Z</time>
      </trkpt>
      <trkpt lat="47.720383" lon="2.2107382">
        <ele>152.0</ele>
        <time>2022-01-13T08:20:34Z</time>
      </trkpt>
      <trkpt lat="47.720394" lon="2.2107406">
        <ele>152.0</ele>
        <time>2022-01-13T08:20:35Z</time>
      </trkpt>
      <trkpt lat="47.720413" lon="2.2107434">
        <ele>151.0</ele>
        <time>2022-01-13T08:20:36Z</time>
      </trkpt>
      <trkpt lat="47.720425" lon="2.210748">
        <ele>151.0</ele>
        <time>2022-01-13T08:20:37Z</time>
      </trkpt>
      <trkpt lat="47.720432" lon="2.2107506">
        <ele>151.0</ele>
        <time>2022-01-13T08:20:38Z</time>
      </trkpt>
      <trkpt lat="47.720444" lon="2.2107556">
        <ele>151.0</ele>
        <time>2022-01-13T08:20:39Z</time>
      </trkpt>
      <trkpt lat="47.720444" lon="2.2107556">
        <ele>151.0</ele>
        <time>2022-01-13T08:20:40Z</time>
      </trkpt>
      <trkpt lat="47.720444" lon="2.2107556">
        <ele>151.0</ele>
        <time>2022-01-13T08:20:41Z</time>
      </trkpt>
      <trkpt lat="47.72047" lon="2.2107666">
        <ele>151.0</ele>
        <time>2022-01-13T08:20:42Z</time>
      </trkpt>
      <trkpt lat="47.720486" lon="2.210775">
        <ele>151.0</ele>
        <time>2022-01-13T08:20:43Z</time>
      </trkpt>
      <trkpt lat="47.720497" lon="2.2107782">
        <ele>151.0</ele>
        <time>2022-01-13T08:20:44Z</time>
      </trkpt>
      <trkpt lat="47.720512" lon="2.2107823">
        <ele>151.0</ele>
        <time>2022-01-13T08:20:45Z</time>
      </trkpt>
      <trkpt lat="47.720528" lon="2.2107794">
        <ele>151.0</ele>
        <time>2022-01-13T08:20:46Z</time>
      </trkpt>
      <trkpt lat="47.72054" lon="2.2107778">
        <ele>151.0</ele>
        <time>2022-01-13T08:20:47Z</time>
      </trkpt>
      <trkpt lat="47.720547" lon="2.210773">
        <ele>151.0</ele>
        <time>2022-01-13T08:20:48Z</time>
      </trkpt>
      <trkpt lat="47.720562" lon="2.2107713">
        <ele>151.0</ele>
        <time>2022-01-13T08:20:49Z</time>
      </trkpt>
      <trkpt lat="47.720573" lon="2.2107751">
        <ele>151.0</ele>
        <time>2022-01-13T08:20:50Z</time>
      </trkpt>
      <trkpt lat="47.720585" lon="2.2107766">
        <ele>151.0</ele>
        <time>2022-01-13T08:20:51Z</time>
      </trkpt>
      <trkpt lat="47.720592" lon="2.2107792">
        <ele>151.0</ele>
        <time>2022-01-13T08:20:52Z</time>
      </trkpt>
      <trkpt lat="47.720604" lon="2.2107828">
        <ele>151.0</ele>
        <time>2022-01-13T08:20:53Z</time>
      </trkpt>
      <trkpt lat="47.720604" lon="2.2107828">
        <ele>151.0</ele>
        <time>2022-01-13T08:20:54Z</time>
      </trkpt>
      <trkpt lat="47.720627" lon="2.2107868">
        <ele>152.0</ele>
        <time>2022-01-13T08:20:55Z</time>
      </trkpt>
      <trkpt lat="47.72064" lon="2.2107856">
        <ele>151.0</ele>
        <time>2022-01-13T08:20:56Z</time>
      </trkpt>
      <trkpt lat="47.72065" lon="2.2107852">
        <ele>151.0</ele>
        <time>2022-01-13T08:20:57Z</time>
      </trkpt>
      <trkpt lat="47.72066" lon="2.210784">
        <ele>151.0</ele>
        <time>2022-01-13T08:20:58Z</time>
      </trkpt>
      <trkpt lat="47.720673" lon="2.210785">
        <ele>151.0</ele>
        <time>2022-01-13T08:20:59Z</time>
      </trkpt>
      <trkpt lat="47.720684" lon="2.210779">
        <ele>152.0</ele>
        <time>2022-01-13T08:21:00Z</time>
      </trkpt>
      <trkpt lat="47.7207" lon="2.210775">
        <ele>152.0</ele>
        <time>2022-01-13T08:21:01Z</time>
      </trkpt>
      <trkpt lat="47.720715" lon="2.210776">
        <ele>152.0</ele>
        <time>2022-01-13T08:21:02Z</time>
      </trkpt>
      <trkpt lat="47.720726" lon="2.2107742">
        <ele>151.0</ele>
        <time>2022-01-13T08:21:03Z</time>
      </trkpt>
      <trkpt lat="47.720737" lon="2.2107737">
        <ele>151.0</ele>
        <time>2022-01-13T08:21:04Z</time>
      </trkpt>
      <trkpt lat="47.72075" lon="2.2107759">
        <ele>152.0</ele>
        <time>2022-01-13T08:21:05Z</time>
      </trkpt>
      <trkpt lat="47.72076" lon="2.2107792">
        <ele>152.0</ele>
        <time>2022-01-13T08:21:06Z</time>
      </trkpt>
      <trkpt lat="47.72077" lon="2.210783">
        <ele>152.0</ele>
        <time>2022-01-13T08:21:07Z</time>
      </trkpt>
      <trkpt lat="47.720783" lon="2.2107844">
        <ele>152.0</ele>
        <time>2022-01-13T08:21:08Z</time>
      </trkpt>
      <trkpt lat="47.7208" lon="2.2107897">
        <ele>151.0</ele>
        <time>2022-01-13T08:21:09Z</time>
      </trkpt>
      <trkpt lat="47.720818" lon="2.2107859">
        <ele>151.0</ele>
        <time>2022-01-13T08:21:10Z</time>
      </trkpt>
      <trkpt lat="47.720833" lon="2.210787">
        <ele>151.0</ele>
        <time>2022-01-13T08:21:11Z</time>
      </trkpt>
      <trkpt lat="47.720848" lon="2.2107882">
        <ele>151.0</ele>
        <time>2022-01-13T08:21:12Z</time>
      </trkpt>
      <trkpt lat="47.72086" lon="2.2107894">
        <ele>151.0</ele>
        <time>2022-01-13T08:21:13Z</time>
      </trkpt>
      <trkpt lat="47.720875" lon="2.2107868">
        <ele>151.0</ele>
        <time>2022-01-13T08:21:14Z</time>
      </trkpt>
      <trkpt lat="47.720894" lon="2.2107775">
        <ele>151.0</ele>
        <time>2022-01-13T08:21:15Z</time>
      </trkpt>
      <trkpt lat="47.720905" lon="2.2107666">
        <ele>152.0</ele>
        <time>2022-01-13T08:21:16Z</time>
      </trkpt>
      <trkpt lat="47.720913" lon="2.2107627">
        <ele>152.0</ele>
        <time>2022-01-13T08:21:17Z</time>
      </trkpt>
      <trkpt lat="47.72093" lon="2.2107584">
        <ele>152.0</ele>
        <time>2022-01-13T08:21:18Z</time>
      </trkpt>
      <trkpt lat="47.720943" lon="2.210757">
        <ele>152.0</ele>
        <time>2022-01-13T08:21:19Z</time>
      </trkpt>
      <trkpt lat="47.720955" lon="2.2107565">
        <ele>152.0</ele>
        <time>2022-01-13T08:21:20Z</time>
      </trkpt>
      <trkpt lat="47.720963" lon="2.2107491">
        <ele>152.0</ele>
        <time>2022-01-13T08:21:21Z</time>
      </trkpt>
      <trkpt lat="47.72097" lon="2.2107425">
        <ele>151.0</ele>
        <time>2022-01-13T08:21:22Z</time>
      </trkpt>
      <trkpt lat="47.720985" lon="2.2107315">
        <ele>151.0</ele>
        <time>2022-01-13T08:21:23Z</time>
      </trkpt>
      <trkpt lat="47.720997" lon="2.2107315">
        <ele>151.0</ele>
        <time>2022-01-13T08:21:24Z</time>
      </trkpt>
      <trkpt lat="47.721012" lon="2.210731">
        <ele>151.0</ele>
        <time>2022-01-13T08:21:25Z</time>
      </trkpt>
      <trkpt lat="47.721024" lon="2.2107275">
        <ele>150.0</ele>
        <time>2022-01-13T08:21:26Z</time>
      </trkpt>
      <trkpt lat="47.721035" lon="2.210728">
        <ele>151.0</ele>
        <time>2022-01-13T08:21:27Z</time>
      </trkpt>
      <trkpt lat="47.72105" lon="2.2107239">
        <ele>150.0</ele>
        <time>2022-01-13T08:21:28Z</time>
      </trkpt>
      <trkpt lat="47.72107" lon="2.2107203">
        <ele>150.0</ele>
        <time>2022-01-13T08:21:29Z</time>
      </trkpt>
      <trkpt lat="47.72109" lon="2.2107196">
        <ele>149.0</ele>
        <time>2022-01-13T08:21:30Z</time>
      </trkpt>
      <trkpt lat="47.7211" lon="2.2107127">
        <ele>149.0</ele>
        <time>2022-01-13T08:21:31Z</time>
      </trkpt>
      <trkpt lat="47.72111" lon="2.2107134">
        <ele>149.0</ele>
        <time>2022-01-13T08:21:32Z</time>
      </trkpt>
      <trkpt lat="47.721123" lon="2.210707">
        <ele>149.0</ele>
        <time>2022-01-13T08:21:33Z</time>
      </trkpt>
      <trkpt lat="47.721134" lon="2.2106993">
        <ele>150.0</ele>
        <time>2022-01-13T08:21:34Z</time>
      </trkpt>
      <trkpt lat="47.721146" lon="2.2107003">
        <ele>150.0</ele>
        <time>2022-01-13T08:21:35Z</time>
      </trkpt>
      <trkpt lat="47.721165" lon="2.2106943">
        <ele>150.0</ele>
        <time>2022-01-13T08:21:36Z</time>
      </trkpt>
      <trkpt lat="47.721176" lon="2.2106917">
        <ele>150.0</ele>
        <time>2022-01-13T08:21:37Z</time>
      </trkpt>
      <trkpt lat="47.72119" lon="2.210686">
        <ele>150.0</ele>
        <time>2022-01-13T08:21:38Z</time>
      </trkpt>
      <trkpt lat="47.721203" lon="2.2106857">
        <ele>150.0</ele>
        <time>2022-01-13T08:21:39Z</time>
      </trkpt>
      <trkpt lat="47.72122" lon="2.2106888">
        <ele>150.0</ele>
        <time>2022-01-13T08:21:40Z</time>
      </trkpt>
      <trkpt lat="47.72123" lon="2.2106895">
        <ele>151.0</ele>
        <time>2022-01-13T08:21:41Z</time>
      </trkpt>
      <trkpt lat="47.72124" lon="2.2106876">
        <ele>151.0</ele>
        <time>2022-01-13T08:21:42Z</time>
      </trkpt>
      <trkpt lat="47.72125" lon="2.2106888">
        <ele>150.0</ele>
        <time>2022-01-13T08:21:43Z</time>
      </trkpt>
      <trkpt lat="47.721264" lon="2.2106955">
        <ele>150.0</ele>
        <time>2022-01-13T08:21:44Z</time>
      </trkpt>
      <trkpt lat="47.72128" lon="2.2106907">
        <ele>150.0</ele>
        <time>2022-01-13T08:21:45Z</time>
      </trkpt>
      <trkpt lat="47.721287" lon="2.2106886">
        <ele>150.0</ele>
        <time>2022-01-13T08:21:46Z</time>
      </trkpt>
      <trkpt lat="47.7213" lon="2.2106917">
        <ele>150.0</ele>
        <time>2022-01-13T08:21:47Z</time>
      </trkpt>
      <trkpt lat="47.721302" lon="2.2106938">
        <ele>150.0</ele>
        <time>2022-01-13T08:21:48Z</time>
      </trkpt>
      <trkpt lat="47.721302" lon="2.2106938">
        <ele>150.0</ele>
        <time>2022-01-13T08:21:49Z</time>
      </trkpt>
      <trkpt lat="47.721302" lon="2.2106938">
        <ele>150.0</ele>
        <time>2022-01-13T08:21:50Z</time>
      </trkpt>
      <trkpt lat="47.72132" lon="2.2106993">
        <ele>149.0</ele>
        <time>2022-01-13T08:21:51Z</time>
      </trkpt>
      <trkpt lat="47.72133" lon="2.2107022">
        <ele>149.0</ele>
        <time>2022-01-13T08:21:52Z</time>
      </trkpt>
      <trkpt lat="47.72134" lon="2.2107108">
        <ele>149.0</ele>
        <time>2022-01-13T08:21:53Z</time>
      </trkpt>
      <trkpt lat="47.72135" lon="2.210715">
        <ele>148.0</ele>
        <time>2022-01-13T08:21:54Z</time>
      </trkpt>
      <trkpt lat="47.721367" lon="2.210724">
        <ele>148.0</ele>
        <time>2022-01-13T08:21:55Z</time>
      </trkpt>
      <trkpt lat="47.721375" lon="2.210732">
        <ele>148.0</ele>
        <time>2022-01-13T08:21:56Z</time>
      </trkpt>
      <trkpt lat="47.72139" lon="2.2107394">
        <ele>147.0</ele>
        <time>2022-01-13T08:21:57Z</time>
      </trkpt>
      <trkpt lat="47.721405" lon="2.2107449">
        <ele>147.0</ele>
        <time>2022-01-13T08:21:58Z</time>
      </trkpt>
      <trkpt lat="47.72142" lon="2.2107449">
        <ele>148.0</ele>
        <time>2022-01-13T08:21:59Z</time>
      </trkpt>
      <trkpt lat="47.72143" lon="2.2107449">
        <ele>148.0</ele>
        <time>2022-01-13T08:22:00Z</time>
      </trkpt>
      <trkpt lat="47.721443" lon="2.210747">
        <ele>148.0</ele>
        <time>2022-01-13T08:22:01Z</time>
      </trkpt>
      <trkpt lat="47.721455" lon="2.2107494">
        <ele>148.0</ele>
        <time>2022-01-13T08:22:02Z</time>
      </trkpt>
      <trkpt lat="47.72147" lon="2.2107565">
        <ele>148.0</ele>
        <time>2022-01-13T08:22:03Z</time>
      </trkpt>
      <trkpt lat="47.72148" lon="2.21076">
        <ele>147.0</ele>
        <time>2022-01-13T08:22:04Z</time>
      </trkpt>
      <trkpt lat="47.72149" lon="2.2107625">
        <ele>147.0</ele>
        <time>2022-01-13T08:22:05Z</time>
      </trkpt>
      <trkpt lat="47.7215" lon="2.2107666">
        <ele>147.0</ele>
        <time>2022-01-13T08:22:06Z</time>
      </trkpt>
      <trkpt lat="47.721516" lon="2.2107794">
        <ele>147.0</ele>
        <time>2022-01-13T08:22:07Z</time>
      </trkpt>
      <trkpt lat="47.721527" lon="2.210783">
        <ele>147.0</ele>
        <time>2022-01-13T08:22:08Z</time>
      </trkpt>
      <trkpt lat="47.72154" lon="2.210795">
        <ele>146.0</ele>
        <time>2022-01-13T08:22:09Z</time>
      </trkpt>
      <trkpt lat="47.721554" lon="2.210805">
        <ele>147.0</ele>
        <time>2022-01-13T08:22:10Z</time>
      </trkpt>
      <trkpt lat="47.721558" lon="2.210812">
        <ele>147.0</ele>
        <time>2022-01-13T08:22:11Z</time>
      </trkpt>
      <trkpt lat="47.72157" lon="2.2108123">
        <ele>147.0</ele>
        <time>2022-01-13T08:22:12Z</time>
      </trkpt>
      <trkpt lat="47.72158" lon="2.2108142">
        <ele>147.0</ele>
        <time>2022-01-13T08:22:13Z</time>
      </trkpt>
      <trkpt lat="47.721592" lon="2.2108192">
        <ele>147.0</ele>
        <time>2022-01-13T08:22:14Z</time>
      </trkpt>
      <trkpt lat="47.721603" lon="2.2108278">
        <ele>147.0</ele>
        <time>2022-01-13T08:22:15Z</time>
      </trkpt>
      <trkpt lat="47.72162" lon="2.210831">
        <ele>147.0</ele>
        <time>2022-01-13T08:22:16Z</time>
      </trkpt>
      <trkpt lat="47.72163" lon="2.2108366">
        <ele>147.0</ele>
        <time>2022-01-13T08:22:17Z</time>
      </trkpt>
      <trkpt lat="47.72164" lon="2.210839">
        <ele>148.0</ele>
        <time>2022-01-13T08:22:18Z</time>
      </trkpt>
      <trkpt lat="47.72165" lon="2.2108462">
        <ele>148.0</ele>
        <time>2022-01-13T08:22:19Z</time>
      </trkpt>
      <trkpt lat="47.72166" lon="2.2108502">
        <ele>148.0</ele>
        <time>2022-01-13T08:22:20Z</time>
      </trkpt>
      <trkpt lat="47.721676" lon="2.2108526">
        <ele>148.0</ele>
        <time>2022-01-13T08:22:21Z</time>
      </trkpt>
      <trkpt lat="47.72169" lon="2.2108555">
        <ele>148.0</ele>
        <time>2022-01-13T08:22:22Z</time>
      </trkpt>
      <trkpt lat="47.7217" lon="2.2108603">
        <ele>148.0</ele>
        <time>2022-01-13T08:22:23Z</time>
      </trkpt>
      <trkpt lat="47.72171" lon="2.210864">
        <ele>148.0</ele>
        <time>2022-01-13T08:22:24Z</time>
      </trkpt>
      <trkpt lat="47.72172" lon="2.2108665">
        <ele>148.0</ele>
        <time>2022-01-13T08:22:25Z</time>
      </trkpt>
      <trkpt lat="47.721737" lon="2.2108715">
        <ele>149.0</ele>
        <time>2022-01-13T08:22:26Z</time>
      </trkpt>
      <trkpt lat="47.721745" lon="2.2108784">
        <ele>149.0</ele>
        <time>2022-01-13T08:22:27Z</time>
      </trkpt>
      <trkpt lat="47.721752" lon="2.2108855">
        <ele>149.0</ele>
        <time>2022-01-13T08:22:28Z</time>
      </trkpt>
      <trkpt lat="47.721764" lon="2.2108939">
        <ele>149.0</ele>
        <time>2022-01-13T08:22:29Z</time>
      </trkpt>
      <trkpt lat="47.721767" lon="2.2109">
        <ele>149.0</ele>
        <time>2022-01-13T08:22:30Z</time>
      </trkpt>
      <trkpt lat="47.72178" lon="2.2109041">
        <ele>149.0</ele>
        <time>2022-01-13T08:22:31Z</time>
      </trkpt>
      <trkpt lat="47.721794" lon="2.2109032">
        <ele>149.0</ele>
        <time>2022-01-13T08:22:32Z</time>
      </trkpt>
      <trkpt lat="47.721813" lon="2.2109041">
        <ele>149.0</ele>
        <time>2022-01-13T08:22:33Z</time>
      </trkpt>
      <trkpt lat="47.721825" lon="2.210907">
        <ele>149.0</ele>
        <time>2022-01-13T08:22:34Z</time>
      </trkpt>
      <trkpt lat="47.721836" lon="2.210903">
        <ele>149.0</ele>
        <time>2022-01-13T08:22:35Z</time>
      </trkpt>
      <trkpt lat="47.721848" lon="2.2108996">
        <ele>149.0</ele>
        <time>2022-01-13T08:22:36Z</time>
      </trkpt>
      <trkpt lat="47.72186" lon="2.2108967">
        <ele>149.0</ele>
        <time>2022-01-13T08:22:37Z</time>
      </trkpt>
      <trkpt lat="47.721867" lon="2.2108939">
        <ele>149.0</ele>
        <time>2022-01-13T08:22:38Z</time>
      </trkpt>
      <trkpt lat="47.721878" lon="2.210891">
        <ele>149.0</ele>
        <time>2022-01-13T08:22:39Z</time>
      </trkpt>
      <trkpt lat="47.721897" lon="2.2108858">
        <ele>149.0</ele>
        <time>2022-01-13T08:22:40Z</time>
      </trkpt>
      <trkpt lat="47.721912" lon="2.21089">
        <ele>149.0</ele>
        <time>2022-01-13T08:22:41Z</time>
      </trkpt>
      <trkpt lat="47.721928" lon="2.2108915">
        <ele>149.0</ele>
        <time>2022-01-13T08:22:42Z</time>
      </trkpt>
      <trkpt lat="47.72194" lon="2.2108924">
        <ele>149.0</ele>
        <time>2022-01-13T08:22:43Z</time>
      </trkpt>
      <trkpt lat="47.721947" lon="2.2108903">
        <ele>149.0</ele>
        <time>2022-01-13T08:22:44Z</time>
      </trkpt>
      <trkpt lat="47.721962" lon="2.210889">
        <ele>149.0</ele>
        <time>2022-01-13T08:22:45Z</time>
      </trkpt>
      <trkpt lat="47.721973" lon="2.210887">
        <ele>149.0</ele>
        <time>2022-01-13T08:22:46Z</time>
      </trkpt>
      <trkpt lat="47.721992" lon="2.2108812">
        <ele>149.0</ele>
        <time>2022-01-13T08:22:47Z</time>
      </trkpt>
      <trkpt lat="47.722004" lon="2.210877">
        <ele>149.0</ele>
        <time>2022-01-13T08:22:48Z</time>
      </trkpt>
      <trkpt lat="47.722015" lon="2.210873">
        <ele>148.0</ele>
        <time>2022-01-13T08:22:49Z</time>
      </trkpt>
      <trkpt lat="47.72203" lon="2.210876">
        <ele>148.0</ele>
        <time>2022-01-13T08:22:50Z</time>
      </trkpt>
      <trkpt lat="47.722042" lon="2.2108686">
        <ele>148.0</ele>
        <time>2022-01-13T08:22:51Z</time>
      </trkpt>
      <trkpt lat="47.722057" lon="2.2108634">
        <ele>149.0</ele>
        <time>2022-01-13T08:22:52Z</time>
      </trkpt>
      <trkpt lat="47.72207" lon="2.2108593">
        <ele>149.0</ele>
        <time>2022-01-13T08:22:53Z</time>
      </trkpt>
      <trkpt lat="47.72208" lon="2.2108536">
        <ele>149.0</ele>
        <time>2022-01-13T08:22:54Z</time>
      </trkpt>
      <trkpt lat="47.722088" lon="2.2108483">
        <ele>148.0</ele>
        <time>2022-01-13T08:22:55Z</time>
      </trkpt>
      <trkpt lat="47.7221" lon="2.210838">
        <ele>149.0</ele>
        <time>2022-01-13T08:22:56Z</time>
      </trkpt>
      <trkpt lat="47.722115" lon="2.2108297">
        <ele>149.0</ele>
        <time>2022-01-13T08:22:57Z</time>
      </trkpt>
      <trkpt lat="47.722126" lon="2.210824">
        <ele>149.0</ele>
        <time>2022-01-13T08:22:58Z</time>
      </trkpt>
      <trkpt lat="47.722137" lon="2.2108173">
        <ele>149.0</ele>
        <time>2022-01-13T08:22:59Z</time>
      </trkpt>
      <trkpt lat="47.72215" lon="2.2108142">
        <ele>149.0</ele>
        <time>2022-01-13T08:23:00Z</time>
      </trkpt>
      <trkpt lat="47.722157" lon="2.2108076">
        <ele>149.0</ele>
        <time>2022-01-13T08:23:01Z</time>
      </trkpt>
      <trkpt lat="47.72217" lon="2.2108011">
        <ele>149.0</ele>
        <time>2022-01-13T08:23:02Z</time>
      </trkpt>
      <trkpt lat="47.722183" lon="2.2107978">
        <ele>149.0</ele>
        <time>2022-01-13T08:23:03Z</time>
      </trkpt>
      <trkpt lat="47.7222" lon="2.2107928">
        <ele>150.0</ele>
        <time>2022-01-13T08:23:04Z</time>
      </trkpt>
      <trkpt lat="47.722214" lon="2.2107952">
        <ele>150.0</ele>
        <time>2022-01-13T08:23:05Z</time>
      </trkpt>
      <trkpt lat="47.72223" lon="2.21079">
        <ele>150.0</ele>
        <time>2022-01-13T08:23:06Z</time>
      </trkpt>
      <trkpt lat="47.72224" lon="2.210781">
        <ele>150.0</ele>
        <time>2022-01-13T08:23:07Z</time>
      </trkpt>
      <trkpt lat="47.72225" lon="2.2107792">
        <ele>150.0</ele>
        <time>2022-01-13T08:23:08Z</time>
      </trkpt>
      <trkpt lat="47.722267" lon="2.2107806">
        <ele>150.0</ele>
        <time>2022-01-13T08:23:09Z</time>
      </trkpt>
      <trkpt lat="47.722282" lon="2.2107756">
        <ele>150.0</ele>
        <time>2022-01-13T08:23:10Z</time>
      </trkpt>
      <trkpt lat="47.722298" lon="2.210773">
        <ele>150.0</ele>
        <time>2022-01-13T08:23:11Z</time>
      </trkpt>
      <trkpt lat="47.72231" lon="2.2107732">
        <ele>150.0</ele>
        <time>2022-01-13T08:23:12Z</time>
      </trkpt>
      <trkpt lat="47.722324" lon="2.210774">
        <ele>151.0</ele>
        <time>2022-01-13T08:23:13Z</time>
      </trkpt>
      <trkpt lat="47.722336" lon="2.2107759">
        <ele>151.0</ele>
        <time>2022-01-13T08:23:14Z</time>
      </trkpt>
      <trkpt lat="47.722347" lon="2.210776">
        <ele>151.0</ele>
        <time>2022-01-13T08:23:15Z</time>
      </trkpt>
      <trkpt lat="47.72236" lon="2.2107744">
        <ele>151.0</ele>
        <time>2022-01-13T08:23:16Z</time>
      </trkpt>
      <trkpt lat="47.722366" lon="2.2107716">
        <ele>151.0</ele>
        <time>2022-01-13T08:23:17Z</time>
      </trkpt>
      <trkpt lat="47.722374" lon="2.210762">
        <ele>151.0</ele>
        <time>2022-01-13T08:23:18Z</time>
      </trkpt>
      <trkpt lat="47.722385" lon="2.2107565">
        <ele>151.0</ele>
        <time>2022-01-13T08:23:19Z</time>
      </trkpt>
      <trkpt lat="47.7224" lon="2.2107513">
        <ele>151.0</ele>
        <time>2022-01-13T08:23:20Z</time>
      </trkpt>
      <trkpt lat="47.722412" lon="2.2107427">
        <ele>151.0</ele>
        <time>2022-01-13T08:23:21Z</time>
      </trkpt>
      <trkpt lat="47.722424" lon="2.2107313">
        <ele>151.0</ele>
        <time>2022-01-13T08:23:22Z</time>
      </trkpt>
      <trkpt lat="47.72244" lon="2.210717">
        <ele>151.0</ele>
        <time>2022-01-13T08:23:23Z</time>
      </trkpt>
      <trkpt lat="47.72245" lon="2.210709">
        <ele>151.0</ele>
        <time>2022-01-13T08:23:24Z</time>
      </trkpt>
      <trkpt lat="47.722458" lon="2.2107034">
        <ele>151.0</ele>
        <time>2022-01-13T08:23:25Z</time>
      </trkpt>
      <trkpt lat="47.722466" lon="2.2106993">
        <ele>151.0</ele>
        <time>2022-01-13T08:23:26Z</time>
      </trkpt>
      <trkpt lat="47.72247" lon="2.2106967">
        <ele>151.0</ele>
        <time>2022-01-13T08:23:27Z</time>
      </trkpt>
      <trkpt lat="47.72248" lon="2.2106967">
        <ele>151.0</ele>
        <time>2022-01-13T08:23:28Z</time>
      </trkpt>
      <trkpt lat="47.72248" lon="2.2106967">
        <ele>151.0</ele>
        <time>2022-01-13T08:23:29Z</time>
      </trkpt>
      <trkpt lat="47.72248" lon="2.2106967">
        <ele>151.0</ele>
        <time>2022-01-13T08:23:30Z</time>
      </trkpt>
      <trkpt lat="47.722507" lon="2.210674">
        <ele>151.0</ele>
        <time>2022-01-13T08:23:31Z</time>
      </trkpt>
      <trkpt lat="47.722515" lon="2.2106662">
        <ele>152.0</ele>
        <time>2022-01-13T08:23:32Z</time>
      </trkpt>
      <trkpt lat="47.72253" lon="2.2106545">
        <ele>152.0</ele>
        <time>2022-01-13T08:23:33Z</time>
      </trkpt>
      <trkpt lat="47.722538" lon="2.2106485">
        <ele>152.0</ele>
        <time>2022-01-13T08:23:34Z</time>
      </trkpt>
      <trkpt lat="47.72255" lon="2.2106457">
        <ele>152.0</ele>
        <time>2022-01-13T08:23:35Z</time>
      </trkpt>
      <trkpt lat="47.722557" lon="2.21064">
        <ele>151.0</ele>
        <time>2022-01-13T08:23:36Z</time>
      </trkpt>
      <trkpt lat="47.72257" lon="2.210632">
        <ele>151.0</ele>
        <time>2022-01-13T08:23:37Z</time>
      </trkpt>
      <trkpt lat="47.722572" lon="2.210626">
        <ele>151.0</ele>
        <time>2022-01-13T08:23:38Z</time>
      </trkpt>
      <trkpt lat="47.722584" lon="2.21062">
        <ele>151.0</ele>
        <time>2022-01-13T08:23:39Z</time>
      </trkpt>
      <trkpt lat="47.722595" lon="2.210614">
        <ele>151.0</ele>
        <time>2022-01-13T08:23:40Z</time>
      </trkpt>
      <trkpt lat="47.722603" lon="2.2106092">
        <ele>151.0</ele>
        <time>2022-01-13T08:23:41Z</time>
      </trkpt>
      <trkpt lat="47.722614" lon="2.2106078">
        <ele>152.0</ele>
        <time>2022-01-13T08:23:42Z</time>
      </trkpt>
      <trkpt lat="47.722626" lon="2.2106054">
        <ele>152.0</ele>
        <time>2022-01-13T08:23:43Z</time>
      </trkpt>
      <trkpt lat="47.722637" lon="2.2105997">
        <ele>153.0</ele>
        <time>2022-01-13T08:23:44Z</time>
      </trkpt>
      <trkpt lat="47.72265" lon="2.2106001">
        <ele>153.0</ele>
        <time>2022-01-13T08:23:45Z</time>
      </trkpt>
      <trkpt lat="47.722652" lon="2.2105956">
        <ele>153.0</ele>
        <time>2022-01-13T08:23:46Z</time>
      </trkpt>
      <trkpt lat="47.722668" lon="2.2105944">
        <ele>153.0</ele>
        <time>2022-01-13T08:23:47Z</time>
      </trkpt>
      <trkpt lat="47.722683" lon="2.210586">
        <ele>153.0</ele>
        <time>2022-01-13T08:23:48Z</time>
      </trkpt>
      <trkpt lat="47.722694" lon="2.2105772">
        <ele>153.0</ele>
        <time>2022-01-13T08:23:49Z</time>
      </trkpt>
      <trkpt lat="47.72271" lon="2.2105725">
        <ele>154.0</ele>
        <time>2022-01-13T08:23:50Z</time>
      </trkpt>
      <trkpt lat="47.72272" lon="2.2105658">
        <ele>153.0</ele>
        <time>2022-01-13T08:23:51Z</time>
      </trkpt>
      <trkpt lat="47.722736" lon="2.21056">
        <ele>153.0</ele>
        <time>2022-01-13T08:23:52Z</time>
      </trkpt>
      <trkpt lat="47.722748" lon="2.2105556">
        <ele>153.0</ele>
        <time>2022-01-13T08:23:53Z</time>
      </trkpt>
      <trkpt lat="47.72276" lon="2.2105389">
        <ele>153.0</ele>
        <time>2022-01-13T08:23:54Z</time>
      </trkpt>
      <trkpt lat="47.722775" lon="2.2105298">
        <ele>153.0</ele>
        <time>2022-01-13T08:23:55Z</time>
      </trkpt>
      <trkpt lat="47.722782" lon="2.2105262">
        <ele>153.0</ele>
        <time>2022-01-13T08:23:56Z</time>
      </trkpt>
      <trkpt lat="47.722782" lon="2.2105262">
        <ele>153.0</ele>
        <time>2022-01-13T08:23:57Z</time>
      </trkpt>
      <trkpt lat="47.722805" lon="2.2105153">
        <ele>153.0</ele>
        <time>2022-01-13T08:23:58Z</time>
      </trkpt>
      <trkpt lat="47.722813" lon="2.2105098">
        <ele>153.0</ele>
        <time>2022-01-13T08:23:59Z</time>
      </trkpt>
      <trkpt lat="47.722824" lon="2.2105043">
        <ele>153.0</ele>
        <time>2022-01-13T08:24:00Z</time>
      </trkpt>
      <trkpt lat="47.72283" lon="2.2104952">
        <ele>153.0</ele>
        <time>2022-01-13T08:24:01Z</time>
      </trkpt>
      <trkpt lat="47.722847" lon="2.2104886">
        <ele>153.0</ele>
        <time>2022-01-13T08:24:02Z</time>
      </trkpt>
      <trkpt lat="47.72286" lon="2.2104838">
        <ele>153.0</ele>
        <time>2022-01-13T08:24:03Z</time>
      </trkpt>
      <trkpt lat="47.72287" lon="2.2104785">
        <ele>153.0</ele>
        <time>2022-01-13T08:24:04Z</time>
      </trkpt>
      <trkpt lat="47.72288" lon="2.210472">
        <ele>153.0</ele>
        <time>2022-01-13T08:24:05Z</time>
      </trkpt>
      <trkpt lat="47.722893" lon="2.2104676">
        <ele>153.0</ele>
        <time>2022-01-13T08:24:06Z</time>
      </trkpt>
      <trkpt lat="47.722904" lon="2.2104678">
        <ele>154.0</ele>
        <time>2022-01-13T08:24:07Z</time>
      </trkpt>
      <trkpt lat="47.722916" lon="2.2104678">
        <ele>154.0</ele>
        <time>2022-01-13T08:24:08Z</time>
      </trkpt>
      <trkpt lat="47.722927" lon="2.2104642">
        <ele>154.0</ele>
        <time>2022-01-13T08:24:09Z</time>
      </trkpt>
      <trkpt lat="47.722942" lon="2.210461">
        <ele>154.0</ele>
        <time>2022-01-13T08:24:10Z</time>
      </trkpt>
      <trkpt lat="47.722954" lon="2.2104568">
        <ele>155.0</ele>
        <time>2022-01-13T08:24:11Z</time>
      </trkpt>
      <trkpt lat="47.72296" lon="2.2104568">
        <ele>155.0</ele>
        <time>2022-01-13T08:24:12Z</time>
      </trkpt>
      <trkpt lat="47.72297" lon="2.2104585">
        <ele>155.0</ele>
        <time>2022-01-13T08:24:13Z</time>
      </trkpt>
      <trkpt lat="47.722977" lon="2.2104578">
        <ele>155.0</ele>
        <time>2022-01-13T08:24:14Z</time>
      </trkpt>
      <trkpt lat="47.722984" lon="2.2104566">
        <ele>155.0</ele>
        <time>2022-01-13T08:24:15Z</time>
      </trkpt>
      <trkpt lat="47.722996" lon="2.2104537">
        <ele>155.0</ele>
        <time>2022-01-13T08:24:16Z</time>
      </trkpt>
      <trkpt lat="47.722996" lon="2.2104537">
        <ele>155.0</ele>
        <time>2022-01-13T08:24:17Z</time>
      </trkpt>
      <trkpt lat="47.722996" lon="2.2104537">
        <ele>155.0</ele>
        <time>2022-01-13T08:24:18Z</time>
      </trkpt>
      <trkpt lat="47.723026" lon="2.2104533">
        <ele>155.0</ele>
        <time>2022-01-13T08:24:19Z</time>
      </trkpt>
      <trkpt lat="47.723038" lon="2.210455">
        <ele>155.0</ele>
        <time>2022-01-13T08:24:20Z</time>
      </trkpt>
      <trkpt lat="47.723045" lon="2.2104552">
        <ele>155.0</ele>
        <time>2022-01-13T08:24:21Z</time>
      </trkpt>
      <trkpt lat="47.723057" lon="2.2104487">
        <ele>155.0</ele>
        <time>2022-01-13T08:24:22Z</time>
      </trkpt>
      <trkpt lat="47.72307" lon="2.210442">
        <ele>156.0</ele>
        <time>2022-01-13T08:24:23Z</time>
      </trkpt>
      <trkpt lat="47.72308" lon="2.210439">
        <ele>156.0</ele>
        <time>2022-01-13T08:24:24Z</time>
      </trkpt>
      <trkpt lat="47.72309" lon="2.2104366">
        <ele>156.0</ele>
        <time>2022-01-13T08:24:25Z</time>
      </trkpt>
      <trkpt lat="47.723103" lon="2.2104344">
        <ele>156.0</ele>
        <time>2022-01-13T08:24:26Z</time>
      </trkpt>
      <trkpt lat="47.723118" lon="2.2104332">
        <ele>156.0</ele>
        <time>2022-01-13T08:24:27Z</time>
      </trkpt>
      <trkpt lat="47.72313" lon="2.2104335">
        <ele>156.0</ele>
        <time>2022-01-13T08:24:28Z</time>
      </trkpt>
      <trkpt lat="47.72314" lon="2.2104335">
        <ele>156.0</ele>
        <time>2022-01-13T08:24:29Z</time>
      </trkpt>
      <trkpt lat="47.723156" lon="2.2104304">
        <ele>156.0</ele>
        <time>2022-01-13T08:24:30Z</time>
      </trkpt>
      <trkpt lat="47.723167" lon="2.2104297">
        <ele>156.0</ele>
        <time>2022-01-13T08:24:31Z</time>
      </trkpt>
      <trkpt lat="47.723175" lon="2.21043">
        <ele>155.0</ele>
        <time>2022-01-13T08:24:32Z</time>
      </trkpt>
      <trkpt lat="47.723183" lon="2.2104337">
        <ele>156.0</ele>
        <time>2022-01-13T08:24:33Z</time>
      </trkpt>
      <trkpt lat="47.723198" lon="2.2104385">
        <ele>156.0</ele>
        <time>2022-01-13T08:24:34Z</time>
      </trkpt>
      <trkpt lat="47.723206" lon="2.2104425">
        <ele>156.0</ele>
        <time>2022-01-13T08:24:35Z</time>
      </trkpt>
      <trkpt lat="47.723217" lon="2.2104433">
        <ele>157.0</ele>
        <time>2022-01-13T08:24:36Z</time>
      </trkpt>
      <trkpt lat="47.723225" lon="2.210442">
        <ele>157.0</ele>
        <time>2022-01-13T08:24:37Z</time>
      </trkpt>
      <trkpt lat="47.72324" lon="2.210442">
        <ele>156.0</ele>
        <time>2022-01-13T08:24:38Z</time>
      </trkpt>
      <trkpt lat="47.72325" lon="2.2104447">
        <ele>156.0</ele>
        <time>2022-01-13T08:24:39Z</time>
      </trkpt>
      <trkpt lat="47.72327" lon="2.210445">
        <ele>157.0</ele>
        <time>2022-01-13T08:24:40Z</time>
      </trkpt>
      <trkpt lat="47.723286" lon="2.21045">
        <ele>156.0</ele>
        <time>2022-01-13T08:24:41Z</time>
      </trkpt>
      <trkpt lat="47.7233" lon="2.2104523">
        <ele>156.0</ele>
        <time>2022-01-13T08:24:42Z</time>
      </trkpt>
      <trkpt lat="47.72331" lon="2.2104518">
        <ele>157.0</ele>
        <time>2022-01-13T08:24:43Z</time>
      </trkpt>
      <trkpt lat="47.723316" lon="2.2104506">
        <ele>157.0</ele>
        <time>2022-01-13T08:24:44Z</time>
      </trkpt>
      <trkpt lat="47.72332" lon="2.2104502">
        <ele>157.0</ele>
        <time>2022-01-13T08:24:45Z</time>
      </trkpt>
      <trkpt lat="47.723328" lon="2.210448">
        <ele>157.0</ele>
        <time>2022-01-13T08:24:46Z</time>
      </trkpt>
      <trkpt lat="47.723328" lon="2.210448">
        <ele>157.0</ele>
        <time>2022-01-13T08:24:47Z</time>
      </trkpt>
      <trkpt lat="47.723328" lon="2.210448">
        <ele>157.0</ele>
        <time>2022-01-13T08:24:48Z</time>
      </trkpt>
      <trkpt lat="47.723354" lon="2.2104514">
        <ele>158.0</ele>
        <time>2022-01-13T08:24:49Z</time>
      </trkpt>
      <trkpt lat="47.723366" lon="2.210455">
        <ele>158.0</ele>
        <time>2022-01-13T08:24:50Z</time>
      </trkpt>
      <trkpt lat="47.723377" lon="2.2104554">
        <ele>158.0</ele>
        <time>2022-01-13T08:24:51Z</time>
      </trkpt>
      <trkpt lat="47.72339" lon="2.2104561">
        <ele>158.0</ele>
        <time>2022-01-13T08:24:52Z</time>
      </trkpt>
      <trkpt lat="47.723404" lon="2.2104485">
        <ele>158.0</ele>
        <time>2022-01-13T08:24:53Z</time>
      </trkpt>
      <trkpt lat="47.72342" lon="2.2104456">
        <ele>158.0</ele>
        <time>2022-01-13T08:24:54Z</time>
      </trkpt>
      <trkpt lat="47.72343" lon="2.2104442">
        <ele>157.0</ele>
        <time>2022-01-13T08:24:55Z</time>
      </trkpt>
      <trkpt lat="47.72345" lon="2.2104447">
        <ele>158.0</ele>
        <time>2022-01-13T08:24:56Z</time>
      </trkpt>
      <trkpt lat="47.723465" lon="2.210443">
        <ele>158.0</ele>
        <time>2022-01-13T08:24:57Z</time>
      </trkpt>
      <trkpt lat="47.723473" lon="2.2104428">
        <ele>158.0</ele>
        <time>2022-01-13T08:24:58Z</time>
      </trkpt>
      <trkpt lat="47.72348" lon="2.2104437">
        <ele>158.0</ele>
        <time>2022-01-13T08:24:59Z</time>
      </trkpt>
      <trkpt lat="47.723488" lon="2.2104406">
        <ele>157.0</ele>
        <time>2022-01-13T08:25:00Z</time>
      </trkpt>
      <trkpt lat="47.7235" lon="2.2104392">
        <ele>157.0</ele>
        <time>2022-01-13T08:25:01Z</time>
      </trkpt>
      <trkpt lat="47.723515" lon="2.2104323">
        <ele>157.0</ele>
        <time>2022-01-13T08:25:02Z</time>
      </trkpt>
      <trkpt lat="47.723522" lon="2.2104309">
        <ele>157.0</ele>
        <time>2022-01-13T08:25:03Z</time>
      </trkpt>
      <trkpt lat="47.723534" lon="2.2104294">
        <ele>157.0</ele>
        <time>2022-01-13T08:25:04Z</time>
      </trkpt>
      <trkpt lat="47.72354" lon="2.2104294">
        <ele>157.0</ele>
        <time>2022-01-13T08:25:05Z</time>
      </trkpt>
      <trkpt lat="47.72354" lon="2.2104294">
        <ele>157.0</ele>
        <time>2022-01-13T08:25:06Z</time>
      </trkpt>
      <trkpt lat="47.72354" lon="2.2104294">
        <ele>157.0</ele>
        <time>2022-01-13T08:25:07Z</time>
      </trkpt>
      <trkpt lat="47.723568" lon="2.2104416">
        <ele>157.0</ele>
        <time>2022-01-13T08:25:08Z</time>
      </trkpt>
      <trkpt lat="47.72358" lon="2.2104428">
        <ele>157.0</ele>
        <time>2022-01-13T08:25:09Z</time>
      </trkpt>
      <trkpt lat="47.72359" lon="2.2104518">
        <ele>157.0</ele>
        <time>2022-01-13T08:25:10Z</time>
      </trkpt>
      <trkpt lat="47.7236" lon="2.210457">
        <ele>157.0</ele>
        <time>2022-01-13T08:25:11Z</time>
      </trkpt>
      <trkpt lat="47.7236" lon="2.210457">
        <ele>157.0</ele>
        <time>2022-01-13T08:25:12Z</time>
      </trkpt>
      <trkpt lat="47.7236" lon="2.210457">
        <ele>157.0</ele>
        <time>2022-01-13T08:25:13Z</time>
      </trkpt>
      <trkpt lat="47.723625" lon="2.2104762">
        <ele>157.0</ele>
        <time>2022-01-13T08:25:14Z</time>
      </trkpt>
      <trkpt lat="47.723633" lon="2.2104857">
        <ele>157.0</ele>
        <time>2022-01-13T08:25:15Z</time>
      </trkpt>
      <trkpt lat="47.723648" lon="2.2104926">
        <ele>157.0</ele>
        <time>2022-01-13T08:25:16Z</time>
      </trkpt>
      <trkpt lat="47.723656" lon="2.2104988">
        <ele>157.0</ele>
        <time>2022-01-13T08:25:17Z</time>
      </trkpt>
      <trkpt lat="47.72367" lon="2.2104983">
        <ele>157.0</ele>
        <time>2022-01-13T08:25:18Z</time>
      </trkpt>
      <trkpt lat="47.72368" lon="2.2104948">
        <ele>157.0</ele>
        <time>2022-01-13T08:25:19Z</time>
      </trkpt>
      <trkpt lat="47.72369" lon="2.210497">
        <ele>157.0</ele>
        <time>2022-01-13T08:25:20Z</time>
      </trkpt>
      <trkpt lat="47.7237" lon="2.2105048">
        <ele>157.0</ele>
        <time>2022-01-13T08:25:21Z</time>
      </trkpt>
      <trkpt lat="47.723705" lon="2.21051">
        <ele>157.0</ele>
        <time>2022-01-13T08:25:22Z</time>
      </trkpt>
      <trkpt lat="47.723705" lon="2.21051">
        <ele>157.0</ele>
        <time>2022-01-13T08:25:23Z</time>
      </trkpt>
      <trkpt lat="47.723732" lon="2.2105083">
        <ele>156.0</ele>
        <time>2022-01-13T08:25:24Z</time>
      </trkpt>
      <trkpt lat="47.723747" lon="2.2105083">
        <ele>156.0</ele>
        <time>2022-01-13T08:25:25Z</time>
      </trkpt>
      <trkpt lat="47.723755" lon="2.2105114">
        <ele>156.0</ele>
        <time>2022-01-13T08:25:26Z</time>
      </trkpt>
      <trkpt lat="47.723766" lon="2.210509">
        <ele>156.0</ele>
        <time>2022-01-13T08:25:27Z</time>
      </trkpt>
      <trkpt lat="47.723778" lon="2.2105122">
        <ele>156.0</ele>
        <time>2022-01-13T08:25:28Z</time>
      </trkpt>
      <trkpt lat="47.72379" lon="2.2105212">
        <ele>156.0</ele>
        <time>2022-01-13T08:25:29Z</time>
      </trkpt>
      <trkpt lat="47.723804" lon="2.210526">
        <ele>155.0</ele>
        <time>2022-01-13T08:25:30Z</time>
      </trkpt>
      <trkpt lat="47.723816" lon="2.2105308">
        <ele>155.0</ele>
        <time>2022-01-13T08:25:31Z</time>
      </trkpt>
      <trkpt lat="47.72383" lon="2.2105372">
        <ele>155.0</ele>
        <time>2022-01-13T08:25:32Z</time>
      </trkpt>
      <trkpt lat="47.723843" lon="2.2105439">
        <ele>154.0</ele>
        <time>2022-01-13T08:25:33Z</time>
      </trkpt>
      <trkpt lat="47.723854" lon="2.210547">
        <ele>154.0</ele>
        <time>2022-01-13T08:25:34Z</time>
      </trkpt>
      <trkpt lat="47.723866" lon="2.2105496">
        <ele>153.0</ele>
        <time>2022-01-13T08:25:35Z</time>
      </trkpt>
      <trkpt lat="47.723877" lon="2.2105544">
        <ele>153.0</ele>
        <time>2022-01-13T08:25:36Z</time>
      </trkpt>
      <trkpt lat="47.72389" lon="2.2105596">
        <ele>153.0</ele>
        <time>2022-01-13T08:25:37Z</time>
      </trkpt>
      <trkpt lat="47.723904" lon="2.2105622">
        <ele>153.0</ele>
        <time>2022-01-13T08:25:38Z</time>
      </trkpt>
      <trkpt lat="47.723915" lon="2.2105646">
        <ele>153.0</ele>
        <time>2022-01-13T08:25:39Z</time>
      </trkpt>
      <trkpt lat="47.723927" lon="2.2105672">
        <ele>153.0</ele>
        <time>2022-01-13T08:25:40Z</time>
      </trkpt>
      <trkpt lat="47.72393" lon="2.2105713">
        <ele>153.0</ele>
        <time>2022-01-13T08:25:41Z</time>
      </trkpt>
      <trkpt lat="47.723938" lon="2.2105734">
        <ele>153.0</ele>
        <time>2022-01-13T08:25:42Z</time>
      </trkpt>
      <trkpt lat="47.723946" lon="2.2105803">
        <ele>153.0</ele>
        <time>2022-01-13T08:25:43Z</time>
      </trkpt>
      <trkpt lat="47.723946" lon="2.2105803">
        <ele>153.0</ele>
        <time>2022-01-13T08:25:44Z</time>
      </trkpt>
      <trkpt lat="47.723946" lon="2.2105803">
        <ele>153.0</ele>
        <time>2022-01-13T08:25:45Z</time>
      </trkpt>
      <trkpt lat="47.723972" lon="2.2106004">
        <ele>153.0</ele>
        <time>2022-01-13T08:25:46Z</time>
      </trkpt>
      <trkpt lat="47.723988" lon="2.2106128">
        <ele>154.0</ele>
        <time>2022-01-13T08:25:47Z</time>
      </trkpt>
      <trkpt lat="47.724" lon="2.210623">
        <ele>154.0</ele>
        <time>2022-01-13T08:25:48Z</time>
      </trkpt>
      <trkpt lat="47.724007" lon="2.2106328">
        <ele>154.0</ele>
        <time>2022-01-13T08:25:49Z</time>
      </trkpt>
      <trkpt lat="47.724014" lon="2.2106414">
        <ele>154.0</ele>
        <time>2022-01-13T08:25:50Z</time>
      </trkpt>
      <trkpt lat="47.72402" lon="2.2106457">
        <ele>154.0</ele>
        <time>2022-01-13T08:25:51Z</time>
      </trkpt>
      <trkpt lat="47.724033" lon="2.2106457">
        <ele>154.0</ele>
        <time>2022-01-13T08:25:52Z</time>
      </trkpt>
      <trkpt lat="47.72404" lon="2.21065">
        <ele>154.0</ele>
        <time>2022-01-13T08:25:53Z</time>
      </trkpt>
      <trkpt lat="47.72405" lon="2.2106655">
        <ele>154.0</ele>
        <time>2022-01-13T08:25:54Z</time>
      </trkpt>
      <trkpt lat="47.724068" lon="2.2106705">
        <ele>153.0</ele>
        <time>2022-01-13T08:25:55Z</time>
      </trkpt>
      <trkpt lat="47.724083" lon="2.2106724">
        <ele>154.0</ele>
        <time>2022-01-13T08:25:56Z</time>
      </trkpt>
      <trkpt lat="47.724094" lon="2.2106733">
        <ele>153.0</ele>
        <time>2022-01-13T08:25:57Z</time>
      </trkpt>
      <trkpt lat="47.724106" lon="2.2106795">
        <ele>154.0</ele>
        <time>2022-01-13T08:25:58Z</time>
      </trkpt>
      <trkpt lat="47.724113" lon="2.2106817">
        <ele>154.0</ele>
        <time>2022-01-13T08:25:59Z</time>
      </trkpt>
      <trkpt lat="47.724113" lon="2.2106817">
        <ele>154.0</ele>
        <time>2022-01-13T08:26:00Z</time>
      </trkpt>
      <trkpt lat="47.724113" lon="2.2106817">
        <ele>154.0</ele>
        <time>2022-01-13T08:26:01Z</time>
      </trkpt>
      <trkpt lat="47.724136" lon="2.2106755">
        <ele>153.0</ele>
        <time>2022-01-13T08:26:02Z</time>
      </trkpt>
      <trkpt lat="47.724148" lon="2.210675">
        <ele>153.0</ele>
        <time>2022-01-13T08:26:03Z</time>
      </trkpt>
      <trkpt lat="47.724155" lon="2.2106702">
        <ele>154.0</ele>
        <time>2022-01-13T08:26:04Z</time>
      </trkpt>
      <trkpt lat="47.724167" lon="2.210669">
        <ele>153.0</ele>
        <time>2022-01-13T08:26:05Z</time>
      </trkpt>
      <trkpt lat="47.724174" lon="2.2106693">
        <ele>153.0</ele>
        <time>2022-01-13T08:26:06Z</time>
      </trkpt>
      <trkpt lat="47.724186" lon="2.210677">
        <ele>154.0</ele>
        <time>2022-01-13T08:26:07Z</time>
      </trkpt>
      <trkpt lat="47.7242" lon="2.2106824">
        <ele>153.0</ele>
        <time>2022-01-13T08:26:08Z</time>
      </trkpt>
      <trkpt lat="47.724216" lon="2.2106905">
        <ele>153.0</ele>
        <time>2022-01-13T08:26:09Z</time>
      </trkpt>
      <trkpt lat="47.72423" lon="2.210686">
        <ele>153.0</ele>
        <time>2022-01-13T08:26:10Z</time>
      </trkpt>
      <trkpt lat="47.724243" lon="2.210686">
        <ele>153.0</ele>
        <time>2022-01-13T08:26:11Z</time>
      </trkpt>
      <trkpt lat="47.72425" lon="2.2106895">
        <ele>153.0</ele>
        <time>2022-01-13T08:26:12Z</time>
      </trkpt>
      <trkpt lat="47.724262" lon="2.2106946">
        <ele>154.0</ele>
        <time>2022-01-13T08:26:13Z</time>
      </trkpt>
      <trkpt lat="47.724274" lon="2.2106977">
        <ele>153.0</ele>
        <time>2022-01-13T08:26:14Z</time>
      </trkpt>
      <trkpt lat="47.72428" lon="2.210702">
        <ele>153.0</ele>
        <time>2022-01-13T08:26:15Z</time>
      </trkpt>
      <trkpt lat="47.724297" lon="2.2107034">
        <ele>153.0</ele>
        <time>2022-01-13T08:26:16Z</time>
      </trkpt>
      <trkpt lat="47.724308" lon="2.2107034">
        <ele>153.0</ele>
        <time>2022-01-13T08:26:17Z</time>
      </trkpt>
      <trkpt lat="47.724316" lon="2.210703">
        <ele>153.0</ele>
        <time>2022-01-13T08:26:18Z</time>
      </trkpt>
      <trkpt lat="47.724327" lon="2.210706">
        <ele>152.0</ele>
        <time>2022-01-13T08:26:19Z</time>
      </trkpt>
      <trkpt lat="47.72434" lon="2.210708">
        <ele>152.0</ele>
        <time>2022-01-13T08:26:20Z</time>
      </trkpt>
      <trkpt lat="47.72435" lon="2.2107112">
        <ele>152.0</ele>
        <time>2022-01-13T08:26:21Z</time>
      </trkpt>
      <trkpt lat="47.724358" lon="2.210711">
        <ele>152.0</ele>
        <time>2022-01-13T08:26:22Z</time>
      </trkpt>
      <trkpt lat="47.724358" lon="2.210711">
        <ele>152.0</ele>
        <time>2022-01-13T08:26:23Z</time>
      </trkpt>
      <trkpt lat="47.724358" lon="2.210711">
        <ele>152.0</ele>
        <time>2022-01-13T08:26:24Z</time>
      </trkpt>
      <trkpt lat="47.724384" lon="2.210721">
        <ele>153.0</ele>
        <time>2022-01-13T08:26:25Z</time>
      </trkpt>
      <trkpt lat="47.7244" lon="2.210727">
        <ele>153.0</ele>
        <time>2022-01-13T08:26:26Z</time>
      </trkpt>
      <trkpt lat="47.724407" lon="2.2107322">
        <ele>152.0</ele>
        <time>2022-01-13T08:26:27Z</time>
      </trkpt>
      <trkpt lat="47.72442" lon="2.2107384">
        <ele>153.0</ele>
        <time>2022-01-13T08:26:28Z</time>
      </trkpt>
      <trkpt lat="47.724426" lon="2.210744">
        <ele>153.0</ele>
        <time>2022-01-13T08:26:29Z</time>
      </trkpt>
      <trkpt lat="47.72443" lon="2.2107508">
        <ele>153.0</ele>
        <time>2022-01-13T08:26:30Z</time>
      </trkpt>
      <trkpt lat="47.72443" lon="2.2107508">
        <ele>153.0</ele>
        <time>2022-01-13T08:26:31Z</time>
      </trkpt>
      <trkpt lat="47.724453" lon="2.2107527">
        <ele>152.0</ele>
        <time>2022-01-13T08:26:32Z</time>
      </trkpt>
      <trkpt lat="47.724464" lon="2.2107563">
        <ele>152.0</ele>
        <time>2022-01-13T08:26:33Z</time>
      </trkpt>
      <trkpt lat="47.72448" lon="2.2107673">
        <ele>152.0</ele>
        <time>2022-01-13T08:26:34Z</time>
      </trkpt>
      <trkpt lat="47.724495" lon="2.210773">
        <ele>151.0</ele>
        <time>2022-01-13T08:26:35Z</time>
      </trkpt>
      <trkpt lat="47.72451" lon="2.2107804">
        <ele>151.0</ele>
        <time>2022-01-13T08:26:36Z</time>
      </trkpt>
      <trkpt lat="47.724525" lon="2.2107837">
        <ele>151.0</ele>
        <time>2022-01-13T08:26:37Z</time>
      </trkpt>
      <trkpt lat="47.724545" lon="2.2107837">
        <ele>151.0</ele>
        <time>2022-01-13T08:26:38Z</time>
      </trkpt>
      <trkpt lat="47.72456" lon="2.2107863">
        <ele>151.0</ele>
        <time>2022-01-13T08:26:39Z</time>
      </trkpt>
      <trkpt lat="47.72457" lon="2.210788">
        <ele>151.0</ele>
        <time>2022-01-13T08:26:40Z</time>
      </trkpt>
      <trkpt lat="47.724586" lon="2.210791">
        <ele>151.0</ele>
        <time>2022-01-13T08:26:41Z</time>
      </trkpt>
      <trkpt lat="47.7246" lon="2.2107942">
        <ele>151.0</ele>
        <time>2022-01-13T08:26:42Z</time>
      </trkpt>
      <trkpt lat="47.724613" lon="2.2107944">
        <ele>151.0</ele>
        <time>2022-01-13T08:26:43Z</time>
      </trkpt>
      <trkpt lat="47.724625" lon="2.2107909">
        <ele>151.0</ele>
        <time>2022-01-13T08:26:44Z</time>
      </trkpt>
      <trkpt lat="47.72464" lon="2.2107887">
        <ele>151.0</ele>
        <time>2022-01-13T08:26:45Z</time>
      </trkpt>
      <trkpt lat="47.724648" lon="2.2107902">
        <ele>151.0</ele>
        <time>2022-01-13T08:26:46Z</time>
      </trkpt>
      <trkpt lat="47.72466" lon="2.2107918">
        <ele>151.0</ele>
        <time>2022-01-13T08:26:47Z</time>
      </trkpt>
      <trkpt lat="47.724667" lon="2.2108004">
        <ele>151.0</ele>
        <time>2022-01-13T08:26:48Z</time>
      </trkpt>
      <trkpt lat="47.724667" lon="2.2108004">
        <ele>151.0</ele>
        <time>2022-01-13T08:26:49Z</time>
      </trkpt>
      <trkpt lat="47.724667" lon="2.2108004">
        <ele>151.0</ele>
        <time>2022-01-13T08:26:50Z</time>
      </trkpt>
      <trkpt lat="47.72469" lon="2.2108185">
        <ele>151.0</ele>
        <time>2022-01-13T08:26:51Z</time>
      </trkpt>
      <trkpt lat="47.7247" lon="2.2108214">
        <ele>152.0</ele>
        <time>2022-01-13T08:26:52Z</time>
      </trkpt>
      <trkpt lat="47.724716" lon="2.2108235">
        <ele>152.0</ele>
        <time>2022-01-13T08:26:53Z</time>
      </trkpt>
      <trkpt lat="47.724728" lon="2.2108269">
        <ele>152.0</ele>
        <time>2022-01-13T08:26:54Z</time>
      </trkpt>
      <trkpt lat="47.72474" lon="2.2108276">
        <ele>152.0</ele>
        <time>2022-01-13T08:26:55Z</time>
      </trkpt>
      <trkpt lat="47.72475" lon="2.2108302">
        <ele>152.0</ele>
        <time>2022-01-13T08:26:56Z</time>
      </trkpt>
      <trkpt lat="47.724762" lon="2.2108333">
        <ele>152.0</ele>
        <time>2022-01-13T08:26:57Z</time>
      </trkpt>
      <trkpt lat="47.724773" lon="2.2108374">
        <ele>151.0</ele>
        <time>2022-01-13T08:26:58Z</time>
      </trkpt>
      <trkpt lat="47.724785" lon="2.2108421">
        <ele>151.0</ele>
        <time>2022-01-13T08:26:59Z</time>
      </trkpt>
      <trkpt lat="47.724792" lon="2.210847">
        <ele>151.0</ele>
        <time>2022-01-13T08:27:00Z</time>
      </trkpt>
      <trkpt lat="47.724792" lon="2.210847">
        <ele>151.0</ele>
        <time>2022-01-13T08:27:01Z</time>
      </trkpt>
      <trkpt lat="47.72482" lon="2.2108529">
        <ele>151.0</ele>
        <time>2022-01-13T08:27:02Z</time>
      </trkpt>
      <trkpt lat="47.724834" lon="2.2108548">
        <ele>151.0</ele>
        <time>2022-01-13T08:27:03Z</time>
      </trkpt>
      <trkpt lat="47.724846" lon="2.2108564">
        <ele>152.0</ele>
        <time>2022-01-13T08:27:04Z</time>
      </trkpt>
      <trkpt lat="47.724857" lon="2.2108538">
        <ele>152.0</ele>
        <time>2022-01-13T08:27:05Z</time>
      </trkpt>
      <trkpt lat="47.72487" lon="2.2108479">
        <ele>152.0</ele>
        <time>2022-01-13T08:27:06Z</time>
      </trkpt>
      <trkpt lat="47.72487" lon="2.2108479">
        <ele>152.0</ele>
        <time>2022-01-13T08:27:07Z</time>
      </trkpt>
      <trkpt lat="47.72487" lon="2.2108479">
        <ele>152.0</ele>
        <time>2022-01-13T08:27:08Z</time>
      </trkpt>
      <trkpt lat="47.7249" lon="2.2108414">
        <ele>152.0</ele>
        <time>2022-01-13T08:27:09Z</time>
      </trkpt>
      <trkpt lat="47.724907" lon="2.2108355">
        <ele>152.0</ele>
        <time>2022-01-13T08:27:10Z</time>
      </trkpt>
      <trkpt lat="47.724922" lon="2.210824">
        <ele>153.0</ele>
        <time>2022-01-13T08:27:11Z</time>
      </trkpt>
      <trkpt lat="47.724934" lon="2.210816">
        <ele>152.0</ele>
        <time>2022-01-13T08:27:12Z</time>
      </trkpt>
      <trkpt lat="47.72495" lon="2.2108138">
        <ele>152.0</ele>
        <time>2022-01-13T08:27:13Z</time>
      </trkpt>
      <trkpt lat="47.724964" lon="2.2108104">
        <ele>153.0</ele>
        <time>2022-01-13T08:27:14Z</time>
      </trkpt>
      <trkpt lat="47.72498" lon="2.2108014">
        <ele>153.0</ele>
        <time>2022-01-13T08:27:15Z</time>
      </trkpt>
      <trkpt lat="47.725006" lon="2.2107894">
        <ele>153.0</ele>
        <time>2022-01-13T08:27:16Z</time>
      </trkpt>
      <trkpt lat="47.725037" lon="2.210776">
        <ele>154.0</ele>
        <time>2022-01-13T08:27:17Z</time>
      </trkpt>
      <trkpt lat="47.72506" lon="2.210764">
        <ele>154.0</ele>
        <time>2022-01-13T08:27:18Z</time>
      </trkpt>
      <trkpt lat="47.725082" lon="2.2107546">
        <ele>155.0</ele>
        <time>2022-01-13T08:27:19Z</time>
      </trkpt>
      <trkpt lat="47.7251" lon="2.2107532">
        <ele>155.0</ele>
        <time>2022-01-13T08:27:20Z</time>
      </trkpt>
      <trkpt lat="47.725113" lon="2.2107432">
        <ele>156.0</ele>
        <time>2022-01-13T08:27:21Z</time>
      </trkpt>
      <trkpt lat="47.725124" lon="2.2107337">
        <ele>157.0</ele>
        <time>2022-01-13T08:27:22Z</time>
      </trkpt>
      <trkpt lat="47.725163" lon="2.2107148">
        <ele>158.0</ele>
        <time>2022-01-13T08:27:23Z</time>
      </trkpt>
      <trkpt lat="47.725178" lon="2.2107084">
        <ele>158.0</ele>
        <time>2022-01-13T08:27:24Z</time>
      </trkpt>
      <trkpt lat="47.725178" lon="2.2107084">
        <ele>158.0</ele>
        <time>2022-01-13T08:27:24Z</time>
      </trkpt>
      <trkpt lat="47.72519" lon="2.2106895">
        <ele>157.0</ele>
        <time>2022-01-13T08:27:26Z</time>
      </trkpt>
      <trkpt lat="47.72519" lon="2.2106895">
        <ele>157.0</ele>
        <time>2022-01-13T08:27:26Z</time>
      </trkpt>
      <trkpt lat="47.725197" lon="2.2106779">
        <ele>158.0</ele>
        <time>2022-01-13T08:27:28Z</time>
      </trkpt>
      <trkpt lat="47.725216" lon="2.2106583">
        <ele>158.0</ele>
        <time>2022-01-13T08:27:29Z</time>
      </trkpt>
      <trkpt lat="47.72522" lon="2.2106462">
        <ele>158.0</ele>
        <time>2022-01-13T08:27:30Z</time>
      </trkpt>
      <trkpt lat="47.725227" lon="2.21063">
        <ele>159.0</ele>
        <time>2022-01-13T08:27:31Z</time>
      </trkpt>
      <trkpt lat="47.72523" lon="2.2106118">
        <ele>159.0</ele>
        <time>2022-01-13T08:27:32Z</time>
      </trkpt>
      <trkpt lat="47.72523" lon="2.2106118">
        <ele>159.0</ele>
        <time>2022-01-13T08:27:32Z</time>
      </trkpt>
      <trkpt lat="47.72524" lon="2.2105973">
        <ele>159.0</ele>
        <time>2022-01-13T08:27:34Z</time>
      </trkpt>
      <trkpt lat="47.725243" lon="2.2105858">
        <ele>160.0</ele>
        <time>2022-01-13T08:27:35Z</time>
      </trkpt>
      <trkpt lat="47.725246" lon="2.2105775">
        <ele>160.0</ele>
        <time>2022-01-13T08:27:36Z</time>
      </trkpt>
      <trkpt lat="47.72525" lon="2.210565">
        <ele>160.0</ele>
        <time>2022-01-13T08:27:37Z</time>
      </trkpt>
      <trkpt lat="47.725246" lon="2.210545">
        <ele>161.0</ele>
        <time>2022-01-13T08:27:38Z</time>
      </trkpt>
      <trkpt lat="47.72525" lon="2.2105274">
        <ele>161.0</ele>
        <time>2022-01-13T08:27:39Z</time>
      </trkpt>
      <trkpt lat="47.725254" lon="2.2105079">
        <ele>162.0</ele>
        <time>2022-01-13T08:27:40Z</time>
      </trkpt>
      <trkpt lat="47.725258" lon="2.2104888">
        <ele>163.0</ele>
        <time>2022-01-13T08:27:41Z</time>
      </trkpt>
      <trkpt lat="47.72526" lon="2.210471">
        <ele>163.0</ele>
        <time>2022-01-13T08:27:42Z</time>
      </trkpt>
      <trkpt lat="47.725258" lon="2.2104564">
        <ele>163.0</ele>
        <time>2022-01-13T08:27:43Z</time>
      </trkpt>
      <trkpt lat="47.72527" lon="2.2104332">
        <ele>163.0</ele>
        <time>2022-01-13T08:27:44Z</time>
      </trkpt>
      <trkpt lat="47.725277" lon="2.2104194">
        <ele>163.0</ele>
        <time>2022-01-13T08:27:45Z</time>
      </trkpt>
      <trkpt lat="47.725277" lon="2.2104194">
        <ele>163.0</ele>
        <time>2022-01-13T08:27:45Z</time>
      </trkpt>
      <trkpt lat="47.725285" lon="2.2104104">
        <ele>163.0</ele>
        <time>2022-01-13T08:27:47Z</time>
      </trkpt>
      <trkpt lat="47.72529" lon="2.2103968">
        <ele>163.0</ele>
        <time>2022-01-13T08:27:48Z</time>
      </trkpt>
      <trkpt lat="47.725292" lon="2.2103832">
        <ele>163.0</ele>
        <time>2022-01-13T08:27:49Z</time>
      </trkpt>
      <trkpt lat="47.725304" lon="2.2103658">
        <ele>164.0</ele>
        <time>2022-01-13T08:27:50Z</time>
      </trkpt>
      <trkpt lat="47.725304" lon="2.2103658">
        <ele>164.0</ele>
        <time>2022-01-13T08:27:50Z</time>
      </trkpt>
      <trkpt lat="47.725304" lon="2.2103515">
        <ele>164.0</ele>
        <time>2022-01-13T08:27:52Z</time>
      </trkpt>
      <trkpt lat="47.725304" lon="2.2103362">
        <ele>164.0</ele>
        <time>2022-01-13T08:27:53Z</time>
      </trkpt>
      <trkpt lat="47.72531" lon="2.2103195">
        <ele>164.0</ele>
        <time>2022-01-13T08:27:54Z</time>
      </trkpt>
      <trkpt lat="47.725315" lon="2.2103045">
        <ele>165.0</ele>
        <time>2022-01-13T08:27:55Z</time>
      </trkpt>
      <trkpt lat="47.725327" lon="2.2102742">
        <ele>164.0</ele>
        <time>2022-01-13T08:27:56Z</time>
      </trkpt>
      <trkpt lat="47.725327" lon="2.2102742">
        <ele>164.0</ele>
        <time>2022-01-13T08:27:56Z</time>
      </trkpt>
      <trkpt lat="47.725334" lon="2.210252">
        <ele>164.0</ele>
        <time>2022-01-13T08:27:58Z</time>
      </trkpt>
      <trkpt lat="47.725338" lon="2.2102299">
        <ele>163.0</ele>
        <time>2022-01-13T08:27:59Z</time>
      </trkpt>
      <trkpt lat="47.725346" lon="2.2101955">
        <ele>163.0</ele>
        <time>2022-01-13T08:28:00Z</time>
      </trkpt>
      <trkpt lat="47.725346" lon="2.2101955">
        <ele>163.0</ele>
        <time>2022-01-13T08:28:00Z</time>
      </trkpt>
      <trkpt lat="47.72535" lon="2.210183">
        <ele>163.0</ele>
        <time>2022-01-13T08:28:02Z</time>
      </trkpt>
      <trkpt lat="47.72535" lon="2.2101638">
        <ele>163.0</ele>
        <time>2022-01-13T08:28:03Z</time>
      </trkpt>
      <trkpt lat="47.725353" lon="2.2101328">
        <ele>163.0</ele>
        <time>2022-01-13T08:28:04Z</time>
      </trkpt>
      <trkpt lat="47.725353" lon="2.2101328">
        <ele>163.0</ele>
        <time>2022-01-13T08:28:04Z</time>
      </trkpt>
      <trkpt lat="47.725353" lon="2.210116">
        <ele>163.0</ele>
        <time>2022-01-13T08:28:06Z</time>
      </trkpt>
      <trkpt lat="47.72536" lon="2.2101">
        <ele>163.0</ele>
        <time>2022-01-13T08:28:07Z</time>
      </trkpt>
      <trkpt lat="47.725365" lon="2.2100809">
        <ele>163.0</ele>
        <time>2022-01-13T08:28:08Z</time>
      </trkpt>
      <trkpt lat="47.72537" lon="2.2100627">
        <ele>163.0</ele>
        <time>2022-01-13T08:28:09Z</time>
      </trkpt>
      <trkpt lat="47.725376" lon="2.210045">
        <ele>162.0</ele>
        <time>2022-01-13T08:28:10Z</time>
      </trkpt>
      <trkpt lat="47.725384" lon="2.2100136">
        <ele>162.0</ele>
        <time>2022-01-13T08:28:11Z</time>
      </trkpt>
      <trkpt lat="47.725384" lon="2.2100136">
        <ele>162.0</ele>
        <time>2022-01-13T08:28:11Z</time>
      </trkpt>
      <trkpt lat="47.72539" lon="2.2099965">
        <ele>163.0</ele>
        <time>2022-01-13T08:28:13Z</time>
      </trkpt>
      <trkpt lat="47.725395" lon="2.2099786">
        <ele>162.0</ele>
        <time>2022-01-13T08:28:14Z</time>
      </trkpt>
      <trkpt lat="47.7254" lon="2.2099617">
        <ele>162.0</ele>
        <time>2022-01-13T08:28:15Z</time>
      </trkpt>
      <trkpt lat="47.72541" lon="2.2099295">
        <ele>162.0</ele>
        <time>2022-01-13T08:28:16Z</time>
      </trkpt>
      <trkpt lat="47.72541" lon="2.2099166">
        <ele>163.0</ele>
        <time>2022-01-13T08:28:17Z</time>
      </trkpt>
      <trkpt lat="47.72541" lon="2.2099166">
        <ele>163.0</ele>
        <time>2022-01-13T08:28:17Z</time>
      </trkpt>
      <trkpt lat="47.72541" lon="2.2099018">
        <ele>163.0</ele>
        <time>2022-01-13T08:28:19Z</time>
      </trkpt>
      <trkpt lat="47.725414" lon="2.2098863">
        <ele>163.0</ele>
        <time>2022-01-13T08:28:20Z</time>
      </trkpt>
      <trkpt lat="47.72542" lon="2.2098453">
        <ele>163.0</ele>
        <time>2022-01-13T08:28:21Z</time>
      </trkpt>
      <trkpt lat="47.72542" lon="2.2098453">
        <ele>163.0</ele>
        <time>2022-01-13T08:28:21Z</time>
      </trkpt>
      <trkpt lat="47.725426" lon="2.2098253">
        <ele>163.0</ele>
        <time>2022-01-13T08:28:23Z</time>
      </trkpt>
      <trkpt lat="47.72543" lon="2.209805">
        <ele>164.0</ele>
        <time>2022-01-13T08:28:24Z</time>
      </trkpt>
      <trkpt lat="47.72544" lon="2.209776">
        <ele>164.0</ele>
        <time>2022-01-13T08:28:25Z</time>
      </trkpt>
      <trkpt lat="47.72544" lon="2.209776">
        <ele>164.0</ele>
        <time>2022-01-13T08:28:25Z</time>
      </trkpt>
      <trkpt lat="47.725445" lon="2.2097611">
        <ele>164.0</ele>
        <time>2022-01-13T08:28:27Z</time>
      </trkpt>
      <trkpt lat="47.72545" lon="2.2097402">
        <ele>164.0</ele>
        <time>2022-01-13T08:28:28Z</time>
      </trkpt>
      <trkpt lat="47.725452" lon="2.209711">
        <ele>163.0</ele>
        <time>2022-01-13T08:28:29Z</time>
      </trkpt>
      <trkpt lat="47.725452" lon="2.209711">
        <ele>163.0</ele>
        <time>2022-01-13T08:28:29Z</time>
      </trkpt>
      <trkpt lat="47.725456" lon="2.2096992">
        <ele>163.0</ele>
        <time>2022-01-13T08:28:31Z</time>
      </trkpt>
      <trkpt lat="47.725464" lon="2.209668">
        <ele>163.0</ele>
        <time>2022-01-13T08:28:32Z</time>
      </trkpt>
      <trkpt lat="47.725464" lon="2.209668">
        <ele>163.0</ele>
        <time>2022-01-13T08:28:32Z</time>
      </trkpt>
      <trkpt lat="47.725464" lon="2.2096457">
        <ele>162.0</ele>
        <time>2022-01-13T08:28:34Z</time>
      </trkpt>
      <trkpt lat="47.725468" lon="2.2096105">
        <ele>162.0</ele>
        <time>2022-01-13T08:28:35Z</time>
      </trkpt>
      <trkpt lat="47.72547" lon="2.209591">
        <ele>162.0</ele>
        <time>2022-01-13T08:28:36Z</time>
      </trkpt>
      <trkpt lat="47.72547" lon="2.209591">
        <ele>162.0</ele>
        <time>2022-01-13T08:28:36Z</time>
      </trkpt>
      <trkpt lat="47.725475" lon="2.2095432">
        <ele>162.0</ele>
        <time>2022-01-13T08:28:38Z</time>
      </trkpt>
      <trkpt lat="47.72548" lon="2.2095256">
        <ele>163.0</ele>
        <time>2022-01-13T08:28:39Z</time>
      </trkpt>
      <trkpt lat="47.725483" lon="2.2095108">
        <ele>163.0</ele>
        <time>2022-01-13T08:28:40Z</time>
      </trkpt>
      <trkpt lat="47.725487" lon="2.2094975">
        <ele>163.0</ele>
        <time>2022-01-13T08:28:41Z</time>
      </trkpt>
      <trkpt lat="47.725487" lon="2.2094784">
        <ele>163.0</ele>
        <time>2022-01-13T08:28:42Z</time>
      </trkpt>
      <trkpt lat="47.725487" lon="2.2094784">
        <ele>163.0</ele>
        <time>2022-01-13T08:28:42Z</time>
      </trkpt>
      <trkpt lat="47.725483" lon="2.2094612">
        <ele>163.0</ele>
        <time>2022-01-13T08:28:44Z</time>
      </trkpt>
      <trkpt lat="47.72548" lon="2.2094426">
        <ele>163.0</ele>
        <time>2022-01-13T08:28:45Z</time>
      </trkpt>
      <trkpt lat="47.72547" lon="2.2094004">
        <ele>163.0</ele>
        <time>2022-01-13T08:28:46Z</time>
      </trkpt>
      <trkpt lat="47.72547" lon="2.2094004">
        <ele>163.0</ele>
        <time>2022-01-13T08:28:46Z</time>
      </trkpt>
      <trkpt lat="47.725464" lon="2.209362">
        <ele>164.0</ele>
        <time>2022-01-13T08:28:48Z</time>
      </trkpt>
      <trkpt lat="47.72546" lon="2.2093456">
        <ele>164.0</ele>
        <time>2022-01-13T08:28:49Z</time>
      </trkpt>
      <trkpt lat="47.72546" lon="2.2093456">
        <ele>164.0</ele>
        <time>2022-01-13T08:28:49Z</time>
      </trkpt>
      <trkpt lat="47.72544" lon="2.2093163">
        <ele>164.0</ele>
        <time>2022-01-13T08:28:51Z</time>
      </trkpt>
      <trkpt lat="47.725433" lon="2.2093046">
        <ele>164.0</ele>
        <time>2022-01-13T08:28:52Z</time>
      </trkpt>
      <trkpt lat="47.725426" lon="2.2092917">
        <ele>165.0</ele>
        <time>2022-01-13T08:28:53Z</time>
      </trkpt>
      <trkpt lat="47.725414" lon="2.2092853">
        <ele>165.0</ele>
        <time>2022-01-13T08:28:54Z</time>
      </trkpt>
      <trkpt lat="47.725407" lon="2.2092807">
        <ele>165.0</ele>
        <time>2022-01-13T08:28:55Z</time>
      </trkpt>
      <trkpt lat="47.725395" lon="2.2092757">
        <ele>165.0</ele>
        <time>2022-01-13T08:28:56Z</time>
      </trkpt>
      <trkpt lat="47.725388" lon="2.209268">
        <ele>165.0</ele>
        <time>2022-01-13T08:28:57Z</time>
      </trkpt>
      <trkpt lat="47.725388" lon="2.209268">
        <ele>165.0</ele>
        <time>2022-01-13T08:28:57Z</time>
      </trkpt>
      <trkpt lat="47.725365" lon="2.2092597">
        <ele>165.0</ele>
        <time>2022-01-13T08:28:59Z</time>
      </trkpt>
      <trkpt lat="47.725353" lon="2.2092578">
        <ele>165.0</ele>
        <time>2022-01-13T08:29:00Z</time>
      </trkpt>
      <trkpt lat="47.72534" lon="2.2092528">
        <ele>164.0</ele>
        <time>2022-01-13T08:29:01Z</time>
      </trkpt>
      <trkpt lat="47.725334" lon="2.209248">
        <ele>165.0</ele>
        <time>2022-01-13T08:29:02Z</time>
      </trkpt>
      <trkpt lat="47.725323" lon="2.2092438">
        <ele>164.0</ele>
        <time>2022-01-13T08:29:03Z</time>
      </trkpt>
      <trkpt lat="47.725315" lon="2.209239">
        <ele>164.0</ele>
        <time>2022-01-13T08:29:04Z</time>
      </trkpt>
      <trkpt lat="47.725307" lon="2.2092328">
        <ele>164.0</ele>
        <time>2022-01-13T08:29:05Z</time>
      </trkpt>
      <trkpt lat="47.7253" lon="2.2092257">
        <ele>164.0</ele>
        <time>2022-01-13T08:29:06Z</time>
      </trkpt>
      <trkpt lat="47.72529" lon="2.2092185">
        <ele>165.0</ele>
        <time>2022-01-13T08:29:07Z</time>
      </trkpt>
      <trkpt lat="47.72529" lon="2.2092185">
        <ele>165.0</ele>
        <time>2022-01-13T08:29:07Z</time>
      </trkpt>
      <trkpt lat="47.725273" lon="2.2092125">
        <ele>165.0</ele>
        <time>2022-01-13T08:29:09Z</time>
      </trkpt>
      <trkpt lat="47.72527" lon="2.2092083">
        <ele>165.0</ele>
        <time>2022-01-13T08:29:10Z</time>
      </trkpt>
      <trkpt lat="47.72526" lon="2.209208">
        <ele>164.0</ele>
        <time>2022-01-13T08:29:11Z</time>
      </trkpt>
      <trkpt lat="47.725254" lon="2.2092063">
        <ele>164.0</ele>
        <time>2022-01-13T08:29:12Z</time>
      </trkpt>
      <trkpt lat="47.725246" lon="2.2092023">
        <ele>164.0</ele>
        <time>2022-01-13T08:29:13Z</time>
      </trkpt>
      <trkpt lat="47.72524" lon="2.2091982">
        <ele>165.0</ele>
        <time>2022-01-13T08:29:14Z</time>
      </trkpt>
      <trkpt lat="47.72523" lon="2.2091928">
        <ele>165.0</ele>
        <time>2022-01-13T08:29:15Z</time>
      </trkpt>
      <trkpt lat="47.725216" lon="2.2091913">
        <ele>165.0</ele>
        <time>2022-01-13T08:29:16Z</time>
      </trkpt>
      <trkpt lat="47.725204" lon="2.20919">
        <ele>165.0</ele>
        <time>2022-01-13T08:29:17Z</time>
      </trkpt>
      <trkpt lat="47.725193" lon="2.209188">
        <ele>164.0</ele>
        <time>2022-01-13T08:29:18Z</time>
      </trkpt>
      <trkpt lat="47.725178" lon="2.2091866">
        <ele>164.0</ele>
        <time>2022-01-13T08:29:19Z</time>
      </trkpt>
      <trkpt lat="47.725166" lon="2.2091813">
        <ele>164.0</ele>
        <time>2022-01-13T08:29:20Z</time>
      </trkpt>
      <trkpt lat="47.725155" lon="2.2091732">
        <ele>164.0</ele>
        <time>2022-01-13T08:29:21Z</time>
      </trkpt>
      <trkpt lat="47.72514" lon="2.209165">
        <ele>163.0</ele>
        <time>2022-01-13T08:29:22Z</time>
      </trkpt>
      <trkpt lat="47.725124" lon="2.2091532">
        <ele>163.0</ele>
        <time>2022-01-13T08:29:23Z</time>
      </trkpt>
      <trkpt lat="47.725113" lon="2.2091413">
        <ele>163.0</ele>
        <time>2022-01-13T08:29:24Z</time>
      </trkpt>
      <trkpt lat="47.725098" lon="2.2091339">
        <ele>163.0</ele>
        <time>2022-01-13T08:29:25Z</time>
      </trkpt>
      <trkpt lat="47.72509" lon="2.2091198">
        <ele>163.0</ele>
        <time>2022-01-13T08:29:26Z</time>
      </trkpt>
      <trkpt lat="47.725082" lon="2.2090986">
        <ele>164.0</ele>
        <time>2022-01-13T08:29:27Z</time>
      </trkpt>
      <trkpt lat="47.725075" lon="2.2090857">
        <ele>164.0</ele>
        <time>2022-01-13T08:29:28Z</time>
      </trkpt>
      <trkpt lat="47.72507" lon="2.2090745">
        <ele>164.0</ele>
        <time>2022-01-13T08:29:29Z</time>
      </trkpt>
      <trkpt lat="47.725067" lon="2.2090614">
        <ele>164.0</ele>
        <time>2022-01-13T08:29:30Z</time>
      </trkpt>
      <trkpt lat="47.725063" lon="2.2090569">
        <ele>165.0</ele>
        <time>2022-01-13T08:29:31Z</time>
      </trkpt>
      <trkpt lat="47.725067" lon="2.2090516">
        <ele>165.0</ele>
        <time>2022-01-13T08:29:32Z</time>
      </trkpt>
      <trkpt lat="47.725067" lon="2.2090473">
        <ele>165.0</ele>
        <time>2022-01-13T08:29:33Z</time>
      </trkpt>
      <trkpt lat="47.725067" lon="2.209029">
        <ele>166.0</ele>
        <time>2022-01-13T08:29:34Z</time>
      </trkpt>
      <trkpt lat="47.72507" lon="2.209017">
        <ele>166.0</ele>
        <time>2022-01-13T08:29:35Z</time>
      </trkpt>
      <trkpt lat="47.72507" lon="2.2090104">
        <ele>165.0</ele>
        <time>2022-01-13T08:29:36Z</time>
      </trkpt>
      <trkpt lat="47.725082" lon="2.208999">
        <ele>166.0</ele>
        <time>2022-01-13T08:29:37Z</time>
      </trkpt>
      <trkpt lat="47.72509" lon="2.2089844">
        <ele>165.0</ele>
        <time>2022-01-13T08:29:38Z</time>
      </trkpt>
      <trkpt lat="47.725094" lon="2.2089722">
        <ele>165.0</ele>
        <time>2022-01-13T08:29:39Z</time>
      </trkpt>
      <trkpt lat="47.725098" lon="2.2089562">
        <ele>165.0</ele>
        <time>2022-01-13T08:29:40Z</time>
      </trkpt>
      <trkpt lat="47.725098" lon="2.2089398">
        <ele>165.0</ele>
        <time>2022-01-13T08:29:41Z</time>
      </trkpt>
      <trkpt lat="47.7251" lon="2.2089272">
        <ele>165.0</ele>
        <time>2022-01-13T08:29:42Z</time>
      </trkpt>
      <trkpt lat="47.725105" lon="2.2089152">
        <ele>165.0</ele>
        <time>2022-01-13T08:29:43Z</time>
      </trkpt>
      <trkpt lat="47.725105" lon="2.2089152">
        <ele>165.0</ele>
        <time>2022-01-13T08:29:44Z</time>
      </trkpt>
      <trkpt lat="47.725113" lon="2.2089002">
        <ele>165.0</ele>
        <time>2022-01-13T08:29:45Z</time>
      </trkpt>
      <trkpt lat="47.725113" lon="2.2088869">
        <ele>164.0</ele>
        <time>2022-01-13T08:29:46Z</time>
      </trkpt>
      <trkpt lat="47.725113" lon="2.208873">
        <ele>164.0</ele>
        <time>2022-01-13T08:29:47Z</time>
      </trkpt>
      <trkpt lat="47.725117" lon="2.2088614">
        <ele>164.0</ele>
        <time>2022-01-13T08:29:48Z</time>
      </trkpt>
      <trkpt lat="47.725124" lon="2.2088501">
        <ele>164.0</ele>
        <time>2022-01-13T08:29:49Z</time>
      </trkpt>
      <trkpt lat="47.725132" lon="2.208839">
        <ele>163.0</ele>
        <time>2022-01-13T08:29:50Z</time>
      </trkpt>
      <trkpt lat="47.725136" lon="2.208825">
        <ele>163.0</ele>
        <time>2022-01-13T08:29:51Z</time>
      </trkpt>
      <trkpt lat="47.72514" lon="2.2088125">
        <ele>163.0</ele>
        <time>2022-01-13T08:29:52Z</time>
      </trkpt>
      <trkpt lat="47.72514" lon="2.2087972">
        <ele>163.0</ele>
        <time>2022-01-13T08:29:53Z</time>
      </trkpt>
      <trkpt lat="47.725143" lon="2.208781">
        <ele>163.0</ele>
        <time>2022-01-13T08:29:54Z</time>
      </trkpt>
      <trkpt lat="47.72515" lon="2.208761">
        <ele>163.0</ele>
        <time>2022-01-13T08:29:55Z</time>
      </trkpt>
      <trkpt lat="47.725155" lon="2.2087457">
        <ele>163.0</ele>
        <time>2022-01-13T08:29:56Z</time>
      </trkpt>
      <trkpt lat="47.72516" lon="2.208732">
        <ele>163.0</ele>
        <time>2022-01-13T08:29:57Z</time>
      </trkpt>
      <trkpt lat="47.725163" lon="2.2087166">
        <ele>163.0</ele>
        <time>2022-01-13T08:29:58Z</time>
      </trkpt>
      <trkpt lat="47.72517" lon="2.2087069">
        <ele>163.0</ele>
        <time>2022-01-13T08:29:59Z</time>
      </trkpt>
      <trkpt lat="47.725178" lon="2.2086945">
        <ele>162.0</ele>
        <time>2022-01-13T08:30:00Z</time>
      </trkpt>
      <trkpt lat="47.725185" lon="2.2086837">
        <ele>162.0</ele>
        <time>2022-01-13T08:30:01Z</time>
      </trkpt>
      <trkpt lat="47.72519" lon="2.2086716">
        <ele>163.0</ele>
        <time>2022-01-13T08:30:03Z</time>
      </trkpt>
      <trkpt lat="47.725193" lon="2.2086601">
        <ele>164.0</ele>
        <time>2022-01-13T08:30:04Z</time>
      </trkpt>
      <trkpt lat="47.725193" lon="2.2086468">
        <ele>164.0</ele>
        <time>2022-01-13T08:30:05Z</time>
      </trkpt>
      <trkpt lat="47.725197" lon="2.208636">
        <ele>164.0</ele>
        <time>2022-01-13T08:30:06Z</time>
      </trkpt>
      <trkpt lat="47.725204" lon="2.2086222">
        <ele>164.0</ele>
        <time>2022-01-13T08:30:07Z</time>
      </trkpt>
      <trkpt lat="47.72521" lon="2.2086155">
        <ele>164.0</ele>
        <time>2022-01-13T08:30:08Z</time>
      </trkpt>
      <trkpt lat="47.72522" lon="2.208609">
        <ele>165.0</ele>
        <time>2022-01-13T08:30:09Z</time>
      </trkpt>
      <trkpt lat="47.72523" lon="2.2085972">
        <ele>165.0</ele>
        <time>2022-01-13T08:30:10Z</time>
      </trkpt>
      <trkpt lat="47.72524" lon="2.208592">
        <ele>165.0</ele>
        <time>2022-01-13T08:30:11Z</time>
      </trkpt>
      <trkpt lat="47.725246" lon="2.2085805">
        <ele>164.0</ele>
        <time>2022-01-13T08:30:12Z</time>
      </trkpt>
      <trkpt lat="47.72526" lon="2.208564">
        <ele>165.0</ele>
        <time>2022-01-13T08:30:13Z</time>
      </trkpt>
      <trkpt lat="47.725266" lon="2.208551">
        <ele>164.0</ele>
        <time>2022-01-13T08:30:14Z</time>
      </trkpt>
      <trkpt lat="47.72527" lon="2.2085395">
        <ele>164.0</ele>
        <time>2022-01-13T08:30:15Z</time>
      </trkpt>
      <trkpt lat="47.725277" lon="2.2085278">
        <ele>164.0</ele>
        <time>2022-01-13T08:30:16Z</time>
      </trkpt>
      <trkpt lat="47.725285" lon="2.2085142">
        <ele>164.0</ele>
        <time>2022-01-13T08:30:17Z</time>
      </trkpt>
      <trkpt lat="47.725296" lon="2.2085059">
        <ele>165.0</ele>
        <time>2022-01-13T08:30:18Z</time>
      </trkpt>
      <trkpt lat="47.7253" lon="2.2084978">
        <ele>164.0</ele>
        <time>2022-01-13T08:30:19Z</time>
      </trkpt>
      <trkpt lat="47.72531" lon="2.2084894">
        <ele>165.0</ele>
        <time>2022-01-13T08:30:20Z</time>
      </trkpt>
      <trkpt lat="47.72532" lon="2.2084835">
        <ele>165.0</ele>
        <time>2022-01-13T08:30:21Z</time>
      </trkpt>
      <trkpt lat="47.725323" lon="2.2084787">
        <ele>165.0</ele>
        <time>2022-01-13T08:30:22Z</time>
      </trkpt>
      <trkpt lat="47.725327" lon="2.2084777">
        <ele>165.0</ele>
        <time>2022-01-13T08:30:23Z</time>
      </trkpt>
      <trkpt lat="47.72533" lon="2.2084763">
        <ele>164.0</ele>
        <time>2022-01-13T08:30:24Z</time>
      </trkpt>
      <trkpt lat="47.725334" lon="2.2084746">
        <ele>165.0</ele>
        <time>2022-01-13T08:30:25Z</time>
      </trkpt>
      <trkpt lat="47.725338" lon="2.2084692">
        <ele>165.0</ele>
        <time>2022-01-13T08:30:26Z</time>
      </trkpt>
      <trkpt lat="47.725346" lon="2.20846">
        <ele>165.0</ele>
        <time>2022-01-13T08:30:27Z</time>
      </trkpt>
      <trkpt lat="47.72535" lon="2.208459">
        <ele>164.0</ele>
        <time>2022-01-13T08:30:28Z</time>
      </trkpt>
      <trkpt lat="47.725353" lon="2.2084603">
        <ele>164.0</ele>
        <time>2022-01-13T08:30:29Z</time>
      </trkpt>
      <trkpt lat="47.725353" lon="2.2084603">
        <ele>164.0</ele>
        <time>2022-01-13T08:30:30Z</time>
      </trkpt>
      <trkpt lat="47.725353" lon="2.2084603">
        <ele>164.0</ele>
        <time>2022-01-13T08:30:31Z</time>
      </trkpt>
      <trkpt lat="47.72538" lon="2.2084484">
        <ele>163.0</ele>
        <time>2022-01-13T08:30:32Z</time>
      </trkpt>
      <trkpt lat="47.725388" lon="2.2084444">
        <ele>163.0</ele>
        <time>2022-01-13T08:30:33Z</time>
      </trkpt>
      <trkpt lat="47.725403" lon="2.2084458">
        <ele>163.0</ele>
        <time>2022-01-13T08:30:34Z</time>
      </trkpt>
      <trkpt lat="47.72541" lon="2.2084446">
        <ele>162.0</ele>
        <time>2022-01-13T08:30:35Z</time>
      </trkpt>
      <trkpt lat="47.72541" lon="2.2084446">
        <ele>162.0</ele>
        <time>2022-01-13T08:30:36Z</time>
      </trkpt>
      <trkpt lat="47.725433" lon="2.208447">
        <ele>162.0</ele>
        <time>2022-01-13T08:30:37Z</time>
      </trkpt>
      <trkpt lat="47.725445" lon="2.2084463">
        <ele>162.0</ele>
        <time>2022-01-13T08:30:38Z</time>
      </trkpt>
      <trkpt lat="47.725452" lon="2.2084448">
        <ele>162.0</ele>
        <time>2022-01-13T08:30:39Z</time>
      </trkpt>
      <trkpt lat="47.725464" lon="2.208439">
        <ele>162.0</ele>
        <time>2022-01-13T08:30:40Z</time>
      </trkpt>
      <trkpt lat="47.725464" lon="2.208439">
        <ele>162.0</ele>
        <time>2022-01-13T08:30:41Z</time>
      </trkpt>
      <trkpt lat="47.725464" lon="2.208439">
        <ele>162.0</ele>
        <time>2022-01-13T08:30:42Z</time>
      </trkpt>
      <trkpt lat="47.72549" lon="2.2084217">
        <ele>162.0</ele>
        <time>2022-01-13T08:30:43Z</time>
      </trkpt>
      <trkpt lat="47.7255" lon="2.2084181">
        <ele>163.0</ele>
        <time>2022-01-13T08:30:44Z</time>
      </trkpt>
      <trkpt lat="47.725502" lon="2.20842">
        <ele>162.0</ele>
        <time>2022-01-13T08:30:45Z</time>
      </trkpt>
      <trkpt lat="47.725513" lon="2.208416">
        <ele>162.0</ele>
        <time>2022-01-13T08:30:46Z</time>
      </trkpt>
      <trkpt lat="47.725517" lon="2.2084186">
        <ele>162.0</ele>
        <time>2022-01-13T08:30:47Z</time>
      </trkpt>
      <trkpt lat="47.725517" lon="2.2084186">
        <ele>162.0</ele>
        <time>2022-01-13T08:30:48Z</time>
      </trkpt>
      <trkpt lat="47.725517" lon="2.2084186">
        <ele>162.0</ele>
        <time>2022-01-13T08:30:49Z</time>
      </trkpt>
      <trkpt lat="47.72554" lon="2.2084079">
        <ele>161.0</ele>
        <time>2022-01-13T08:30:50Z</time>
      </trkpt>
      <trkpt lat="47.725548" lon="2.208403">
        <ele>162.0</ele>
        <time>2022-01-13T08:30:51Z</time>
      </trkpt>
      <trkpt lat="47.725555" lon="2.2083983">
        <ele>162.0</ele>
        <time>2022-01-13T08:30:52Z</time>
      </trkpt>
      <trkpt lat="47.725563" lon="2.2084007">
        <ele>162.0</ele>
        <time>2022-01-13T08:30:53Z</time>
      </trkpt>
      <trkpt lat="47.725563" lon="2.2084007">
        <ele>162.0</ele>
        <time>2022-01-13T08:30:54Z</time>
      </trkpt>
      <trkpt lat="47.725563" lon="2.2084007">
        <ele>162.0</ele>
        <time>2022-01-13T08:30:55Z</time>
      </trkpt>
      <trkpt lat="47.725582" lon="2.208395">
        <ele>162.0</ele>
        <time>2022-01-13T08:30:56Z</time>
      </trkpt>
      <trkpt lat="47.725586" lon="2.2083972">
        <ele>162.0</ele>
        <time>2022-01-13T08:30:57Z</time>
      </trkpt>
      <trkpt lat="47.72559" lon="2.2083945">
        <ele>162.0</ele>
        <time>2022-01-13T08:30:58Z</time>
      </trkpt>
      <trkpt lat="47.7256" lon="2.2083902">
        <ele>162.0</ele>
        <time>2022-01-13T08:30:59Z</time>
      </trkpt>
      <trkpt lat="47.7256" lon="2.2083902">
        <ele>162.0</ele>
        <time>2022-01-13T08:31:00Z</time>
      </trkpt>
      <trkpt lat="47.725613" lon="2.2083855">
        <ele>162.0</ele>
        <time>2022-01-13T08:31:01Z</time>
      </trkpt>
      <trkpt lat="47.72562" lon="2.208386">
        <ele>162.0</ele>
        <time>2022-01-13T08:31:02Z</time>
      </trkpt>
      <trkpt lat="47.725624" lon="2.2083864">
        <ele>162.0</ele>
        <time>2022-01-13T08:31:03Z</time>
      </trkpt>
      <trkpt lat="47.72563" lon="2.2083807">
        <ele>162.0</ele>
        <time>2022-01-13T08:31:04Z</time>
      </trkpt>
      <trkpt lat="47.72564" lon="2.2083812">
        <ele>161.0</ele>
        <time>2022-01-13T08:31:05Z</time>
      </trkpt>
      <trkpt lat="47.72565" lon="2.208387">
        <ele>161.0</ele>
        <time>2022-01-13T08:31:06Z</time>
      </trkpt>
      <trkpt lat="47.725662" lon="2.2083921">
        <ele>161.0</ele>
        <time>2022-01-13T08:31:07Z</time>
      </trkpt>
      <trkpt lat="47.725677" lon="2.208387">
        <ele>161.0</ele>
        <time>2022-01-13T08:31:08Z</time>
      </trkpt>
      <trkpt lat="47.72569" lon="2.2083738">
        <ele>160.0</ele>
        <time>2022-01-13T08:31:09Z</time>
      </trkpt>
      <trkpt lat="47.725697" lon="2.2083638">
        <ele>160.0</ele>
        <time>2022-01-13T08:31:10Z</time>
      </trkpt>
      <trkpt lat="47.725697" lon="2.2083597">
        <ele>159.0</ele>
        <time>2022-01-13T08:31:11Z</time>
      </trkpt>
      <trkpt lat="47.725704" lon="2.2083526">
        <ele>159.0</ele>
        <time>2022-01-13T08:31:12Z</time>
      </trkpt>
      <trkpt lat="47.72571" lon="2.2083423">
        <ele>159.0</ele>
        <time>2022-01-13T08:31:13Z</time>
      </trkpt>
      <trkpt lat="47.72571" lon="2.2083423">
        <ele>159.0</ele>
        <time>2022-01-13T08:31:14Z</time>
      </trkpt>
      <trkpt lat="47.72571" lon="2.2083423">
        <ele>159.0</ele>
        <time>2022-01-13T08:31:15Z</time>
      </trkpt>
      <trkpt lat="47.725735" lon="2.208325">
        <ele>160.0</ele>
        <time>2022-01-13T08:31:16Z</time>
      </trkpt>
      <trkpt lat="47.725742" lon="2.2083187">
        <ele>159.0</ele>
        <time>2022-01-13T08:31:17Z</time>
      </trkpt>
      <trkpt lat="47.725754" lon="2.2083087">
        <ele>160.0</ele>
        <time>2022-01-13T08:31:18Z</time>
      </trkpt>
      <trkpt lat="47.725758" lon="2.208301">
        <ele>160.0</ele>
        <time>2022-01-13T08:31:19Z</time>
      </trkpt>
      <trkpt lat="47.725758" lon="2.208301">
        <ele>160.0</ele>
        <time>2022-01-13T08:31:20Z</time>
      </trkpt>
      <trkpt lat="47.725758" lon="2.208301">
        <ele>160.0</ele>
        <time>2022-01-13T08:31:21Z</time>
      </trkpt>
      <trkpt lat="47.72578" lon="2.208304">
        <ele>160.0</ele>
        <time>2022-01-13T08:31:22Z</time>
      </trkpt>
      <trkpt lat="47.725792" lon="2.20831">
        <ele>160.0</ele>
        <time>2022-01-13T08:31:23Z</time>
      </trkpt>
      <trkpt lat="47.725803" lon="2.2083085">
        <ele>160.0</ele>
        <time>2022-01-13T08:31:24Z</time>
      </trkpt>
      <trkpt lat="47.72582" lon="2.2083116">
        <ele>160.0</ele>
        <time>2022-01-13T08:31:25Z</time>
      </trkpt>
      <trkpt lat="47.72583" lon="2.2083147">
        <ele>160.0</ele>
        <time>2022-01-13T08:31:26Z</time>
      </trkpt>
      <trkpt lat="47.72584" lon="2.208323">
        <ele>159.0</ele>
        <time>2022-01-13T08:31:27Z</time>
      </trkpt>
      <trkpt lat="47.725857" lon="2.2083216">
        <ele>159.0</ele>
        <time>2022-01-13T08:31:28Z</time>
      </trkpt>
      <trkpt lat="47.72587" lon="2.2083216">
        <ele>159.0</ele>
        <time>2022-01-13T08:31:29Z</time>
      </trkpt>
      <trkpt lat="47.72588" lon="2.2083228">
        <ele>159.0</ele>
        <time>2022-01-13T08:31:30Z</time>
      </trkpt>
      <trkpt lat="47.72589" lon="2.208321">
        <ele>159.0</ele>
        <time>2022-01-13T08:31:31Z</time>
      </trkpt>
      <trkpt lat="47.725903" lon="2.2083223">
        <ele>158.0</ele>
        <time>2022-01-13T08:31:32Z</time>
      </trkpt>
      <trkpt lat="47.725914" lon="2.2083228">
        <ele>158.0</ele>
        <time>2022-01-13T08:31:33Z</time>
      </trkpt>
      <trkpt lat="47.72593" lon="2.2083237">
        <ele>157.0</ele>
        <time>2022-01-13T08:31:34Z</time>
      </trkpt>
      <trkpt lat="47.72594" lon="2.2083225">
        <ele>157.0</ele>
        <time>2022-01-13T08:31:35Z</time>
      </trkpt>
      <trkpt lat="47.725952" lon="2.20832">
        <ele>157.0</ele>
        <time>2022-01-13T08:31:36Z</time>
      </trkpt>
      <trkpt lat="47.72596" lon="2.2083194">
        <ele>157.0</ele>
        <time>2022-01-13T08:31:37Z</time>
      </trkpt>
      <trkpt lat="47.725975" lon="2.2083151">
        <ele>157.0</ele>
        <time>2022-01-13T08:31:38Z</time>
      </trkpt>
      <trkpt lat="47.725975" lon="2.2083151">
        <ele>157.0</ele>
        <time>2022-01-13T08:31:39Z</time>
      </trkpt>
      <trkpt lat="47.725998" lon="2.2083123">
        <ele>157.0</ele>
        <time>2022-01-13T08:31:40Z</time>
      </trkpt>
      <trkpt lat="47.726017" lon="2.2083044">
        <ele>157.0</ele>
        <time>2022-01-13T08:31:41Z</time>
      </trkpt>
      <trkpt lat="47.726036" lon="2.2083006">
        <ele>157.0</ele>
        <time>2022-01-13T08:31:42Z</time>
      </trkpt>
      <trkpt lat="47.72605" lon="2.2082977">
        <ele>157.0</ele>
        <time>2022-01-13T08:31:43Z</time>
      </trkpt>
      <trkpt lat="47.726063" lon="2.2082987">
        <ele>157.0</ele>
        <time>2022-01-13T08:31:44Z</time>
      </trkpt>
      <trkpt lat="47.726074" lon="2.2083008">
        <ele>157.0</ele>
        <time>2022-01-13T08:31:45Z</time>
      </trkpt>
      <trkpt lat="47.726086" lon="2.2083">
        <ele>156.0</ele>
        <time>2022-01-13T08:31:46Z</time>
      </trkpt>
      <trkpt lat="47.726097" lon="2.2083008">
        <ele>156.0</ele>
        <time>2022-01-13T08:31:47Z</time>
      </trkpt>
      <trkpt lat="47.7261" lon="2.2082956">
        <ele>156.0</ele>
        <time>2022-01-13T08:31:48Z</time>
      </trkpt>
      <trkpt lat="47.726112" lon="2.2082956">
        <ele>156.0</ele>
        <time>2022-01-13T08:31:49Z</time>
      </trkpt>
      <trkpt lat="47.726112" lon="2.2082956">
        <ele>156.0</ele>
        <time>2022-01-13T08:31:50Z</time>
      </trkpt>
      <trkpt lat="47.72613" lon="2.2082758">
        <ele>156.0</ele>
        <time>2022-01-13T08:31:51Z</time>
      </trkpt>
      <trkpt lat="47.726143" lon="2.2082686">
        <ele>156.0</ele>
        <time>2022-01-13T08:31:52Z</time>
      </trkpt>
      <trkpt lat="47.72616" lon="2.2082632">
        <ele>156.0</ele>
        <time>2022-01-13T08:31:53Z</time>
      </trkpt>
      <trkpt lat="47.72617" lon="2.208261">
        <ele>156.0</ele>
        <time>2022-01-13T08:31:54Z</time>
      </trkpt>
      <trkpt lat="47.72618" lon="2.208263">
        <ele>157.0</ele>
        <time>2022-01-13T08:31:55Z</time>
      </trkpt>
      <trkpt lat="47.726192" lon="2.2082632">
        <ele>157.0</ele>
        <time>2022-01-13T08:31:56Z</time>
      </trkpt>
      <trkpt lat="47.7262" lon="2.2082577">
        <ele>157.0</ele>
        <time>2022-01-13T08:31:57Z</time>
      </trkpt>
      <trkpt lat="47.726208" lon="2.2082546">
        <ele>157.0</ele>
        <time>2022-01-13T08:31:58Z</time>
      </trkpt>
      <trkpt lat="47.72622" lon="2.2082448">
        <ele>157.0</ele>
        <time>2022-01-13T08:31:59Z</time>
      </trkpt>
      <trkpt lat="47.72623" lon="2.2082372">
        <ele>157.0</ele>
        <time>2022-01-13T08:32:00Z</time>
      </trkpt>
      <trkpt lat="47.726242" lon="2.2082264">
        <ele>157.0</ele>
        <time>2022-01-13T08:32:01Z</time>
      </trkpt>
      <trkpt lat="47.726257" lon="2.2082217">
        <ele>156.0</ele>
        <time>2022-01-13T08:32:02Z</time>
      </trkpt>
      <trkpt lat="47.72626" lon="2.2082214">
        <ele>156.0</ele>
        <time>2022-01-13T08:32:03Z</time>
      </trkpt>
      <trkpt lat="47.72628" lon="2.2082188">
        <ele>156.0</ele>
        <time>2022-01-13T08:32:04Z</time>
      </trkpt>
      <trkpt lat="47.72629" lon="2.2082193">
        <ele>156.0</ele>
        <time>2022-01-13T08:32:05Z</time>
      </trkpt>
      <trkpt lat="47.726303" lon="2.2082179">
        <ele>156.0</ele>
        <time>2022-01-13T08:32:06Z</time>
      </trkpt>
      <trkpt lat="47.726315" lon="2.2082133">
        <ele>157.0</ele>
        <time>2022-01-13T08:32:07Z</time>
      </trkpt>
      <trkpt lat="47.726326" lon="2.2082083">
        <ele>157.0</ele>
        <time>2022-01-13T08:32:08Z</time>
      </trkpt>
      <trkpt lat="47.726337" lon="2.208206">
        <ele>156.0</ele>
        <time>2022-01-13T08:32:09Z</time>
      </trkpt>
      <trkpt lat="47.726353" lon="2.2082093">
        <ele>157.0</ele>
        <time>2022-01-13T08:32:10Z</time>
      </trkpt>
      <trkpt lat="47.726368" lon="2.208204">
        <ele>156.0</ele>
        <time>2022-01-13T08:32:11Z</time>
      </trkpt>
      <trkpt lat="47.726383" lon="2.208201">
        <ele>156.0</ele>
        <time>2022-01-13T08:32:12Z</time>
      </trkpt>
      <trkpt lat="47.72639" lon="2.2081978">
        <ele>156.0</ele>
        <time>2022-01-13T08:32:13Z</time>
      </trkpt>
      <trkpt lat="47.7264" lon="2.208197">
        <ele>156.0</ele>
        <time>2022-01-13T08:32:14Z</time>
      </trkpt>
      <trkpt lat="47.726406" lon="2.2081957">
        <ele>156.0</ele>
        <time>2022-01-13T08:32:15Z</time>
      </trkpt>
      <trkpt lat="47.726414" lon="2.208195">
        <ele>156.0</ele>
        <time>2022-01-13T08:32:16Z</time>
      </trkpt>
      <trkpt lat="47.726425" lon="2.20819">
        <ele>156.0</ele>
        <time>2022-01-13T08:32:17Z</time>
      </trkpt>
      <trkpt lat="47.726437" lon="2.208183">
        <ele>156.0</ele>
        <time>2022-01-13T08:32:18Z</time>
      </trkpt>
      <trkpt lat="47.72645" lon="2.20817">
        <ele>156.0</ele>
        <time>2022-01-13T08:32:19Z</time>
      </trkpt>
      <trkpt lat="47.726463" lon="2.2081642">
        <ele>156.0</ele>
        <time>2022-01-13T08:32:20Z</time>
      </trkpt>
      <trkpt lat="47.726475" lon="2.2081559">
        <ele>156.0</ele>
        <time>2022-01-13T08:32:21Z</time>
      </trkpt>
      <trkpt lat="47.726482" lon="2.2081468">
        <ele>156.0</ele>
        <time>2022-01-13T08:32:22Z</time>
      </trkpt>
      <trkpt lat="47.72649" lon="2.2081437">
        <ele>156.0</ele>
        <time>2022-01-13T08:32:23Z</time>
      </trkpt>
      <trkpt lat="47.72649" lon="2.2081437">
        <ele>156.0</ele>
        <time>2022-01-13T08:32:24Z</time>
      </trkpt>
      <trkpt lat="47.72649" lon="2.2081437">
        <ele>156.0</ele>
        <time>2022-01-13T08:32:25Z</time>
      </trkpt>
      <trkpt lat="47.72649" lon="2.2081437">
        <ele>156.0</ele>
        <time>2022-01-13T08:32:26Z</time>
      </trkpt>
      <trkpt lat="47.72649" lon="2.2081437">
        <ele>156.0</ele>
        <time>2022-01-13T08:32:27Z</time>
      </trkpt>
      <trkpt lat="47.72649" lon="2.2081437">
        <ele>156.0</ele>
        <time>2022-01-13T08:32:27Z</time>
      </trkpt>
    </trkseg>
    <trkseg>
      <trkpt lat="47.72649" lon="2.2081437">
        <ele>156.0</ele>
        <time>2022-01-13T08:32:27Z</time>
      </trkpt>
      <trkpt lat="47.726543" lon="2.2082174">
        <ele>165.0</ele>
        <time>2022-01-13T08:32:38Z</time>
      </trkpt>
      <trkpt lat="47.72655" lon="2.208231">
        <ele>164.0</ele>
        <time>2022-01-13T08:32:39Z</time>
      </trkpt>
      <trkpt lat="47.726566" lon="2.2082486">
        <ele>164.0</ele>
        <time>2022-01-13T08:32:40Z</time>
      </trkpt>
      <trkpt lat="47.726578" lon="2.2082646">
        <ele>164.0</ele>
        <time>2022-01-13T08:32:41Z</time>
      </trkpt>
      <trkpt lat="47.72659" lon="2.2082806">
        <ele>164.0</ele>
        <time>2022-01-13T08:32:42Z</time>
      </trkpt>
      <trkpt lat="47.726593" lon="2.208295">
        <ele>164.0</ele>
        <time>2022-01-13T08:32:43Z</time>
      </trkpt>
      <trkpt lat="47.726593" lon="2.208308">
        <ele>164.0</ele>
        <time>2022-01-13T08:32:44Z</time>
      </trkpt>
      <trkpt lat="47.7266" lon="2.208324">
        <ele>164.0</ele>
        <time>2022-01-13T08:32:45Z</time>
      </trkpt>
      <trkpt lat="47.72661" lon="2.2083428">
        <ele>164.0</ele>
        <time>2022-01-13T08:32:46Z</time>
      </trkpt>
      <trkpt lat="47.726612" lon="2.2083652">
        <ele>164.0</ele>
        <time>2022-01-13T08:32:47Z</time>
      </trkpt>
      <trkpt lat="47.72662" lon="2.208386">
        <ele>165.0</ele>
        <time>2022-01-13T08:32:48Z</time>
      </trkpt>
      <trkpt lat="47.726627" lon="2.2084045">
        <ele>165.0</ele>
        <time>2022-01-13T08:32:49Z</time>
      </trkpt>
      <trkpt lat="47.726635" lon="2.2084231">
        <ele>165.0</ele>
        <time>2022-01-13T08:32:50Z</time>
      </trkpt>
      <trkpt lat="47.72664" lon="2.208436">
        <ele>165.0</ele>
        <time>2022-01-13T08:32:51Z</time>
      </trkpt>
      <trkpt lat="47.726643" lon="2.2084455">
        <ele>165.0</ele>
        <time>2022-01-13T08:32:52Z</time>
      </trkpt>
      <trkpt lat="47.72665" lon="2.208448">
        <ele>166.0</ele>
        <time>2022-01-13T08:32:53Z</time>
      </trkpt>
      <trkpt lat="47.72665" lon="2.2084491">
        <ele>167.0</ele>
        <time>2022-01-13T08:32:54Z</time>
      </trkpt>
      <trkpt lat="47.726654" lon="2.208443">
        <ele>167.0</ele>
        <time>2022-01-13T08:32:55Z</time>
      </trkpt>
      <trkpt lat="47.72666" lon="2.2084322">
        <ele>168.0</ele>
        <time>2022-01-13T08:32:56Z</time>
      </trkpt>
      <trkpt lat="47.726665" lon="2.2084181">
        <ele>169.0</ele>
        <time>2022-01-13T08:32:57Z</time>
      </trkpt>
      <trkpt lat="47.72667" lon="2.208402">
        <ele>169.0</ele>
        <time>2022-01-13T08:32:58Z</time>
      </trkpt>
      <trkpt lat="47.726673" lon="2.2083857">
        <ele>170.0</ele>
        <time>2022-01-13T08:32:59Z</time>
      </trkpt>
      <trkpt lat="47.726677" lon="2.2083738">
        <ele>171.0</ele>
        <time>2022-01-13T08:33:00Z</time>
      </trkpt>
      <trkpt lat="47.72668" lon="2.2083566">
        <ele>172.0</ele>
        <time>2022-01-13T08:33:01Z</time>
      </trkpt>
      <trkpt lat="47.726685" lon="2.2083368">
        <ele>172.0</ele>
        <time>2022-01-13T08:33:02Z</time>
      </trkpt>
      <trkpt lat="47.726685" lon="2.2083142">
        <ele>172.0</ele>
        <time>2022-01-13T08:33:03Z</time>
      </trkpt>
      <trkpt lat="47.72669" lon="2.2082913">
        <ele>173.0</ele>
        <time>2022-01-13T08:33:04Z</time>
      </trkpt>
      <trkpt lat="47.726692" lon="2.2082696">
        <ele>174.0</ele>
        <time>2022-01-13T08:33:05Z</time>
      </trkpt>
      <trkpt lat="47.726696" lon="2.208247">
        <ele>174.0</ele>
        <time>2022-01-13T08:33:06Z</time>
      </trkpt>
      <trkpt lat="47.726704" lon="2.2082262">
        <ele>174.0</ele>
        <time>2022-01-13T08:33:07Z</time>
      </trkpt>
      <trkpt lat="47.72671" lon="2.208206">
        <ele>174.0</ele>
        <time>2022-01-13T08:33:08Z</time>
      </trkpt>
      <trkpt lat="47.72672" lon="2.2081907">
        <ele>174.0</ele>
        <time>2022-01-13T08:33:09Z</time>
      </trkpt>
      <trkpt lat="47.726727" lon="2.2081769">
        <ele>174.0</ele>
        <time>2022-01-13T08:33:10Z</time>
      </trkpt>
      <trkpt lat="47.726738" lon="2.208164">
        <ele>174.0</ele>
        <time>2022-01-13T08:33:11Z</time>
      </trkpt>
      <trkpt lat="47.726753" lon="2.208156">
        <ele>174.0</ele>
        <time>2022-01-13T08:33:12Z</time>
      </trkpt>
      <trkpt lat="47.726765" lon="2.208155">
        <ele>174.0</ele>
        <time>2022-01-13T08:33:13Z</time>
      </trkpt>
      <trkpt lat="47.726776" lon="2.2081523">
        <ele>174.0</ele>
        <time>2022-01-13T08:33:14Z</time>
      </trkpt>
      <trkpt lat="47.726788" lon="2.2081525">
        <ele>174.0</ele>
        <time>2022-01-13T08:33:15Z</time>
      </trkpt>
      <trkpt lat="47.7268" lon="2.2081554">
        <ele>174.0</ele>
        <time>2022-01-13T08:33:16Z</time>
      </trkpt>
      <trkpt lat="47.72681" lon="2.2081568">
        <ele>174.0</ele>
        <time>2022-01-13T08:33:17Z</time>
      </trkpt>
      <trkpt lat="47.726818" lon="2.2081532">
        <ele>174.0</ele>
        <time>2022-01-13T08:33:18Z</time>
      </trkpt>
      <trkpt lat="47.726826" lon="2.2081478">
        <ele>174.0</ele>
        <time>2022-01-13T08:33:19Z</time>
      </trkpt>
      <trkpt lat="47.726833" lon="2.2081454">
        <ele>174.0</ele>
        <time>2022-01-13T08:33:20Z</time>
      </trkpt>
      <trkpt lat="47.72684" lon="2.2081459">
        <ele>173.0</ele>
        <time>2022-01-13T08:33:21Z</time>
      </trkpt>
      <trkpt lat="47.72685" lon="2.2081435">
        <ele>173.0</ele>
        <time>2022-01-13T08:33:22Z</time>
      </trkpt>
      <trkpt lat="47.726856" lon="2.2081366">
        <ele>174.0</ele>
        <time>2022-01-13T08:33:23Z</time>
      </trkpt>
      <trkpt lat="47.726864" lon="2.2081285">
        <ele>174.0</ele>
        <time>2022-01-13T08:33:24Z</time>
      </trkpt>
      <trkpt lat="47.726875" lon="2.2081208">
        <ele>174.0</ele>
        <time>2022-01-13T08:33:25Z</time>
      </trkpt>
      <trkpt lat="47.726887" lon="2.2081158">
        <ele>174.0</ele>
        <time>2022-01-13T08:33:26Z</time>
      </trkpt>
      <trkpt lat="47.726894" lon="2.2081094">
        <ele>174.0</ele>
        <time>2022-01-13T08:33:27Z</time>
      </trkpt>
      <trkpt lat="47.726902" lon="2.2081058">
        <ele>174.0</ele>
        <time>2022-01-13T08:33:28Z</time>
      </trkpt>
      <trkpt lat="47.726906" lon="2.2081027">
        <ele>173.0</ele>
        <time>2022-01-13T08:33:29Z</time>
      </trkpt>
      <trkpt lat="47.72691" lon="2.2080967">
        <ele>173.0</ele>
        <time>2022-01-13T08:33:30Z</time>
      </trkpt>
      <trkpt lat="47.726917" lon="2.208091">
        <ele>173.0</ele>
        <time>2022-01-13T08:33:31Z</time>
      </trkpt>
      <trkpt lat="47.726917" lon="2.208091">
        <ele>173.0</ele>
        <time>2022-01-13T08:33:32Z</time>
      </trkpt>
      <trkpt lat="47.726917" lon="2.208091">
        <ele>173.0</ele>
        <time>2022-01-13T08:33:33Z</time>
      </trkpt>
      <trkpt lat="47.726933" lon="2.2080836">
        <ele>173.0</ele>
        <time>2022-01-13T08:33:34Z</time>
      </trkpt>
      <trkpt lat="47.72694" lon="2.208085">
        <ele>173.0</ele>
        <time>2022-01-13T08:33:35Z</time>
      </trkpt>
      <trkpt lat="47.726944" lon="2.2080872">
        <ele>173.0</ele>
        <time>2022-01-13T08:33:36Z</time>
      </trkpt>
      <trkpt lat="47.726948" lon="2.2080843">
        <ele>173.0</ele>
        <time>2022-01-13T08:33:37Z</time>
      </trkpt>
      <trkpt lat="47.726948" lon="2.2080843">
        <ele>173.0</ele>
        <time>2022-01-13T08:33:38Z</time>
      </trkpt>
      <trkpt lat="47.726948" lon="2.2080843">
        <ele>173.0</ele>
        <time>2022-01-13T08:33:39Z</time>
      </trkpt>
      <trkpt lat="47.726963" lon="2.2080674">
        <ele>174.0</ele>
        <time>2022-01-13T08:33:40Z</time>
      </trkpt>
      <trkpt lat="47.726974" lon="2.2080574">
        <ele>173.0</ele>
        <time>2022-01-13T08:33:41Z</time>
      </trkpt>
      <trkpt lat="47.726982" lon="2.2080522">
        <ele>173.0</ele>
        <time>2022-01-13T08:33:42Z</time>
      </trkpt>
      <trkpt lat="47.72699" lon="2.2080505">
        <ele>173.0</ele>
        <time>2022-01-13T08:33:43Z</time>
      </trkpt>
      <trkpt lat="47.72699" lon="2.2080505">
        <ele>173.0</ele>
        <time>2022-01-13T08:33:44Z</time>
      </trkpt>
      <trkpt lat="47.72699" lon="2.2080505">
        <ele>173.0</ele>
        <time>2022-01-13T08:33:45Z</time>
      </trkpt>
      <trkpt lat="47.72701" lon="2.2080526">
        <ele>173.0</ele>
        <time>2022-01-13T08:33:46Z</time>
      </trkpt>
      <trkpt lat="47.727024" lon="2.208047">
        <ele>173.0</ele>
        <time>2022-01-13T08:33:47Z</time>
      </trkpt>
      <trkpt lat="47.72703" lon="2.2080393">
        <ele>173.0</ele>
        <time>2022-01-13T08:33:48Z</time>
      </trkpt>
      <trkpt lat="47.727043" lon="2.2080288">
        <ele>173.0</ele>
        <time>2022-01-13T08:33:49Z</time>
      </trkpt>
      <trkpt lat="47.727055" lon="2.208024">
        <ele>172.0</ele>
        <time>2022-01-13T08:33:50Z</time>
      </trkpt>
      <trkpt lat="47.727062" lon="2.2080224">
        <ele>172.0</ele>
        <time>2022-01-13T08:33:51Z</time>
      </trkpt>
      <trkpt lat="47.727074" lon="2.2080188">
        <ele>172.0</ele>
        <time>2022-01-13T08:33:52Z</time>
      </trkpt>
      <trkpt lat="47.72708" lon="2.2080178">
        <ele>172.0</ele>
        <time>2022-01-13T08:33:53Z</time>
      </trkpt>
      <trkpt lat="47.72708" lon="2.2080178">
        <ele>172.0</ele>
        <time>2022-01-13T08:33:54Z</time>
      </trkpt>
      <trkpt lat="47.7271" lon="2.2080026">
        <ele>171.0</ele>
        <time>2022-01-13T08:33:55Z</time>
      </trkpt>
      <trkpt lat="47.72711" lon="2.2080004">
        <ele>171.0</ele>
        <time>2022-01-13T08:33:56Z</time>
      </trkpt>
      <trkpt lat="47.727123" lon="2.207998">
        <ele>171.0</ele>
        <time>2022-01-13T08:33:57Z</time>
      </trkpt>
      <trkpt lat="47.727135" lon="2.207992">
        <ele>170.0</ele>
        <time>2022-01-13T08:33:58Z</time>
      </trkpt>
      <trkpt lat="47.727146" lon="2.207985">
        <ele>170.0</ele>
        <time>2022-01-13T08:33:59Z</time>
      </trkpt>
      <trkpt lat="47.727158" lon="2.2079732">
        <ele>170.0</ele>
        <time>2022-01-13T08:34:00Z</time>
      </trkpt>
      <trkpt lat="47.727165" lon="2.2079644">
        <ele>170.0</ele>
        <time>2022-01-13T08:34:01Z</time>
      </trkpt>
      <trkpt lat="47.727165" lon="2.2079644">
        <ele>170.0</ele>
        <time>2022-01-13T08:34:02Z</time>
      </trkpt>
      <trkpt lat="47.72719" lon="2.2079463">
        <ele>170.0</ele>
        <time>2022-01-13T08:34:03Z</time>
      </trkpt>
      <trkpt lat="47.727203" lon="2.2079399">
        <ele>170.0</ele>
        <time>2022-01-13T08:34:04Z</time>
      </trkpt>
      <trkpt lat="47.727215" lon="2.2079353">
        <ele>170.0</ele>
        <time>2022-01-13T08:34:05Z</time>
      </trkpt>
      <trkpt lat="47.72723" lon="2.2079284">
        <ele>170.0</ele>
        <time>2022-01-13T08:34:06Z</time>
      </trkpt>
      <trkpt lat="47.72724" lon="2.2079241">
        <ele>169.0</ele>
        <time>2022-01-13T08:34:07Z</time>
      </trkpt>
      <trkpt lat="47.727253" lon="2.2079237">
        <ele>170.0</ele>
        <time>2022-01-13T08:34:08Z</time>
      </trkpt>
      <trkpt lat="47.72727" lon="2.2079182">
        <ele>170.0</ele>
        <time>2022-01-13T08:34:09Z</time>
      </trkpt>
      <trkpt lat="47.72728" lon="2.2079177">
        <ele>169.0</ele>
        <time>2022-01-13T08:34:10Z</time>
      </trkpt>
      <trkpt lat="47.7273" lon="2.2079194">
        <ele>169.0</ele>
        <time>2022-01-13T08:34:11Z</time>
      </trkpt>
      <trkpt lat="47.727314" lon="2.2079191">
        <ele>169.0</ele>
        <time>2022-01-13T08:34:12Z</time>
      </trkpt>
      <trkpt lat="47.72732" lon="2.2079196">
        <ele>169.0</ele>
        <time>2022-01-13T08:34:13Z</time>
      </trkpt>
      <trkpt lat="47.727333" lon="2.2079184">
        <ele>169.0</ele>
        <time>2022-01-13T08:34:14Z</time>
      </trkpt>
      <trkpt lat="47.727345" lon="2.2079175">
        <ele>169.0</ele>
        <time>2022-01-13T08:34:15Z</time>
      </trkpt>
      <trkpt lat="47.72736" lon="2.207916">
        <ele>168.0</ele>
        <time>2022-01-13T08:34:16Z</time>
      </trkpt>
      <trkpt lat="47.727375" lon="2.2079144">
        <ele>168.0</ele>
        <time>2022-01-13T08:34:17Z</time>
      </trkpt>
      <trkpt lat="47.727386" lon="2.207904">
        <ele>168.0</ele>
        <time>2022-01-13T08:34:18Z</time>
      </trkpt>
      <trkpt lat="47.7274" lon="2.207895">
        <ele>167.0</ele>
        <time>2022-01-13T08:34:19Z</time>
      </trkpt>
      <trkpt lat="47.727413" lon="2.2078907">
        <ele>167.0</ele>
        <time>2022-01-13T08:34:20Z</time>
      </trkpt>
      <trkpt lat="47.727425" lon="2.2078824">
        <ele>167.0</ele>
        <time>2022-01-13T08:34:21Z</time>
      </trkpt>
      <trkpt lat="47.727436" lon="2.2078762">
        <ele>166.0</ele>
        <time>2022-01-13T08:34:22Z</time>
      </trkpt>
      <trkpt lat="47.727448" lon="2.2078686">
        <ele>166.0</ele>
        <time>2022-01-13T08:34:23Z</time>
      </trkpt>
      <trkpt lat="47.72746" lon="2.207861">
        <ele>167.0</ele>
        <time>2022-01-13T08:34:24Z</time>
      </trkpt>
      <trkpt lat="47.727467" lon="2.2078533">
        <ele>166.0</ele>
        <time>2022-01-13T08:34:25Z</time>
      </trkpt>
      <trkpt lat="47.727478" lon="2.207847">
        <ele>166.0</ele>
        <time>2022-01-13T08:34:26Z</time>
      </trkpt>
      <trkpt lat="47.727493" lon="2.2078407">
        <ele>166.0</ele>
        <time>2022-01-13T08:34:27Z</time>
      </trkpt>
      <trkpt lat="47.72751" lon="2.2078326">
        <ele>166.0</ele>
        <time>2022-01-13T08:34:28Z</time>
      </trkpt>
      <trkpt lat="47.727524" lon="2.2078226">
        <ele>166.0</ele>
        <time>2022-01-13T08:34:29Z</time>
      </trkpt>
      <trkpt lat="47.72754" lon="2.2078142">
        <ele>166.0</ele>
        <time>2022-01-13T08:34:30Z</time>
      </trkpt>
      <trkpt lat="47.72755" lon="2.2078047">
        <ele>166.0</ele>
        <time>2022-01-13T08:34:31Z</time>
      </trkpt>
      <trkpt lat="47.727566" lon="2.2078025">
        <ele>166.0</ele>
        <time>2022-01-13T08:34:32Z</time>
      </trkpt>
      <trkpt lat="47.727577" lon="2.2077987">
        <ele>166.0</ele>
        <time>2022-01-13T08:34:33Z</time>
      </trkpt>
      <trkpt lat="47.72759" lon="2.2077954">
        <ele>166.0</ele>
        <time>2022-01-13T08:34:34Z</time>
      </trkpt>
      <trkpt lat="47.7276" lon="2.2077918">
        <ele>166.0</ele>
        <time>2022-01-13T08:34:35Z</time>
      </trkpt>
      <trkpt lat="47.727608" lon="2.2077837">
        <ele>166.0</ele>
        <time>2022-01-13T08:34:36Z</time>
      </trkpt>
      <trkpt lat="47.72762" lon="2.207779">
        <ele>166.0</ele>
        <time>2022-01-13T08:34:37Z</time>
      </trkpt>
      <trkpt lat="47.72763" lon="2.2077746">
        <ele>166.0</ele>
        <time>2022-01-13T08:34:38Z</time>
      </trkpt>
      <trkpt lat="47.72763" lon="2.2077746">
        <ele>166.0</ele>
        <time>2022-01-13T08:34:39Z</time>
      </trkpt>
      <trkpt lat="47.72763" lon="2.2077746">
        <ele>166.0</ele>
        <time>2022-01-13T08:34:40Z</time>
      </trkpt>
      <trkpt lat="47.72765" lon="2.207775">
        <ele>166.0</ele>
        <time>2022-01-13T08:34:41Z</time>
      </trkpt>
      <trkpt lat="47.72766" lon="2.2077696">
        <ele>166.0</ele>
        <time>2022-01-13T08:34:42Z</time>
      </trkpt>
      <trkpt lat="47.727673" lon="2.2077594">
        <ele>166.0</ele>
        <time>2022-01-13T08:34:43Z</time>
      </trkpt>
      <trkpt lat="47.727688" lon="2.2077556">
        <ele>165.0</ele>
        <time>2022-01-13T08:34:44Z</time>
      </trkpt>
      <trkpt lat="47.7277" lon="2.2077498">
        <ele>165.0</ele>
        <time>2022-01-13T08:34:45Z</time>
      </trkpt>
      <trkpt lat="47.72771" lon="2.2077465">
        <ele>165.0</ele>
        <time>2022-01-13T08:34:46Z</time>
      </trkpt>
      <trkpt lat="47.727722" lon="2.207743">
        <ele>165.0</ele>
        <time>2022-01-13T08:34:47Z</time>
      </trkpt>
      <trkpt lat="47.727737" lon="2.2077353">
        <ele>164.0</ele>
        <time>2022-01-13T08:34:48Z</time>
      </trkpt>
      <trkpt lat="47.727745" lon="2.2077267">
        <ele>164.0</ele>
        <time>2022-01-13T08:34:49Z</time>
      </trkpt>
      <trkpt lat="47.727757" lon="2.207716">
        <ele>164.0</ele>
        <time>2022-01-13T08:34:50Z</time>
      </trkpt>
      <trkpt lat="47.727768" lon="2.2077105">
        <ele>164.0</ele>
        <time>2022-01-13T08:34:51Z</time>
      </trkpt>
      <trkpt lat="47.72778" lon="2.207703">
        <ele>164.0</ele>
        <time>2022-01-13T08:34:52Z</time>
      </trkpt>
      <trkpt lat="47.727795" lon="2.2076983">
        <ele>164.0</ele>
        <time>2022-01-13T08:34:53Z</time>
      </trkpt>
      <trkpt lat="47.72781" lon="2.2076907">
        <ele>164.0</ele>
        <time>2022-01-13T08:34:54Z</time>
      </trkpt>
      <trkpt lat="47.727825" lon="2.207682">
        <ele>164.0</ele>
        <time>2022-01-13T08:34:55Z</time>
      </trkpt>
      <trkpt lat="47.727837" lon="2.2076766">
        <ele>163.0</ele>
        <time>2022-01-13T08:34:56Z</time>
      </trkpt>
      <trkpt lat="47.72785" lon="2.207671">
        <ele>163.0</ele>
        <time>2022-01-13T08:34:57Z</time>
      </trkpt>
      <trkpt lat="47.727863" lon="2.2076657">
        <ele>163.0</ele>
        <time>2022-01-13T08:34:58Z</time>
      </trkpt>
      <trkpt lat="47.727875" lon="2.207663">
        <ele>162.0</ele>
        <time>2022-01-13T08:34:59Z</time>
      </trkpt>
      <trkpt lat="47.727882" lon="2.2076578">
        <ele>162.0</ele>
        <time>2022-01-13T08:35:00Z</time>
      </trkpt>
      <trkpt lat="47.727898" lon="2.2076507">
        <ele>162.0</ele>
        <time>2022-01-13T08:35:01Z</time>
      </trkpt>
      <trkpt lat="47.727913" lon="2.2076404">
        <ele>162.0</ele>
        <time>2022-01-13T08:35:02Z</time>
      </trkpt>
      <trkpt lat="47.72792" lon="2.2076352">
        <ele>162.0</ele>
        <time>2022-01-13T08:35:03Z</time>
      </trkpt>
      <trkpt lat="47.727932" lon="2.207629">
        <ele>162.0</ele>
        <time>2022-01-13T08:35:04Z</time>
      </trkpt>
      <trkpt lat="47.727943" lon="2.207626">
        <ele>162.0</ele>
        <time>2022-01-13T08:35:05Z</time>
      </trkpt>
      <trkpt lat="47.72796" lon="2.2076204">
        <ele>162.0</ele>
        <time>2022-01-13T08:35:06Z</time>
      </trkpt>
      <trkpt lat="47.727974" lon="2.2076159">
        <ele>162.0</ele>
        <time>2022-01-13T08:35:07Z</time>
      </trkpt>
      <trkpt lat="47.72799" lon="2.207612">
        <ele>162.0</ele>
        <time>2022-01-13T08:35:08Z</time>
      </trkpt>
      <trkpt lat="47.728004" lon="2.20761">
        <ele>161.0</ele>
        <time>2022-01-13T08:35:09Z</time>
      </trkpt>
      <trkpt lat="47.728012" lon="2.2076032">
        <ele>161.0</ele>
        <time>2022-01-13T08:35:10Z</time>
      </trkpt>
      <trkpt lat="47.728024" lon="2.2075982">
        <ele>161.0</ele>
        <time>2022-01-13T08:35:11Z</time>
      </trkpt>
      <trkpt lat="47.728024" lon="2.2075982">
        <ele>161.0</ele>
        <time>2022-01-13T08:35:12Z</time>
      </trkpt>
      <trkpt lat="47.72805" lon="2.2075984">
        <ele>161.0</ele>
        <time>2022-01-13T08:35:13Z</time>
      </trkpt>
      <trkpt lat="47.728065" lon="2.2075963">
        <ele>161.0</ele>
        <time>2022-01-13T08:35:14Z</time>
      </trkpt>
      <trkpt lat="47.728085" lon="2.2075937">
        <ele>160.0</ele>
        <time>2022-01-13T08:35:15Z</time>
      </trkpt>
      <trkpt lat="47.7281" lon="2.2075894">
        <ele>160.0</ele>
        <time>2022-01-13T08:35:16Z</time>
      </trkpt>
      <trkpt lat="47.72811" lon="2.2075868">
        <ele>160.0</ele>
        <time>2022-01-13T08:35:17Z</time>
      </trkpt>
      <trkpt lat="47.728123" lon="2.2075796">
        <ele>160.0</ele>
        <time>2022-01-13T08:35:18Z</time>
      </trkpt>
      <trkpt lat="47.72813" lon="2.207577">
        <ele>160.0</ele>
        <time>2022-01-13T08:35:19Z</time>
      </trkpt>
      <trkpt lat="47.72813" lon="2.207577">
        <ele>160.0</ele>
        <time>2022-01-13T08:35:20Z</time>
      </trkpt>
      <trkpt lat="47.72813" lon="2.207577">
        <ele>160.0</ele>
        <time>2022-01-13T08:35:21Z</time>
      </trkpt>
      <trkpt lat="47.728153" lon="2.2075593">
        <ele>159.0</ele>
        <time>2022-01-13T08:35:22Z</time>
      </trkpt>
      <trkpt lat="47.728165" lon="2.2075484">
        <ele>159.0</ele>
        <time>2022-01-13T08:35:23Z</time>
      </trkpt>
      <trkpt lat="47.72818" lon="2.2075486">
        <ele>159.0</ele>
        <time>2022-01-13T08:35:24Z</time>
      </trkpt>
      <trkpt lat="47.728195" lon="2.207553">
        <ele>160.0</ele>
        <time>2022-01-13T08:35:25Z</time>
      </trkpt>
      <trkpt lat="47.72821" lon="2.2075484">
        <ele>160.0</ele>
        <time>2022-01-13T08:35:26Z</time>
      </trkpt>
      <trkpt lat="47.72822" lon="2.207544">
        <ele>160.0</ele>
        <time>2022-01-13T08:35:27Z</time>
      </trkpt>
      <trkpt lat="47.72823" lon="2.207538">
        <ele>159.0</ele>
        <time>2022-01-13T08:35:28Z</time>
      </trkpt>
      <trkpt lat="47.728233" lon="2.2075274">
        <ele>159.0</ele>
        <time>2022-01-13T08:35:29Z</time>
      </trkpt>
      <trkpt lat="47.72824" lon="2.2075217">
        <ele>159.0</ele>
        <time>2022-01-13T08:35:30Z</time>
      </trkpt>
      <trkpt lat="47.72824" lon="2.2075217">
        <ele>159.0</ele>
        <time>2022-01-13T08:35:31Z</time>
      </trkpt>
      <trkpt lat="47.72824" lon="2.2075217">
        <ele>159.0</ele>
        <time>2022-01-13T08:35:32Z</time>
      </trkpt>
      <trkpt lat="47.728264" lon="2.2074986">
        <ele>159.0</ele>
        <time>2022-01-13T08:35:33Z</time>
      </trkpt>
      <trkpt lat="47.728275" lon="2.2074928">
        <ele>159.0</ele>
        <time>2022-01-13T08:35:34Z</time>
      </trkpt>
      <trkpt lat="47.728287" lon="2.2074835">
        <ele>160.0</ele>
        <time>2022-01-13T08:35:35Z</time>
      </trkpt>
      <trkpt lat="47.728302" lon="2.2074702">
        <ele>159.0</ele>
        <time>2022-01-13T08:35:36Z</time>
      </trkpt>
      <trkpt lat="47.728317" lon="2.2074609">
        <ele>159.0</ele>
        <time>2022-01-13T08:35:37Z</time>
      </trkpt>
      <trkpt lat="47.728325" lon="2.2074506">
        <ele>160.0</ele>
        <time>2022-01-13T08:35:38Z</time>
      </trkpt>
      <trkpt lat="47.728336" lon="2.2074416">
        <ele>160.0</ele>
        <time>2022-01-13T08:35:39Z</time>
      </trkpt>
      <trkpt lat="47.728344" lon="2.2074294">
        <ele>160.0</ele>
        <time>2022-01-13T08:35:40Z</time>
      </trkpt>
      <trkpt lat="47.728355" lon="2.207415">
        <ele>160.0</ele>
        <time>2022-01-13T08:35:41Z</time>
      </trkpt>
      <trkpt lat="47.728363" lon="2.2074065">
        <ele>160.0</ele>
        <time>2022-01-13T08:35:42Z</time>
      </trkpt>
      <trkpt lat="47.72837" lon="2.2073934">
        <ele>159.0</ele>
        <time>2022-01-13T08:35:43Z</time>
      </trkpt>
      <trkpt lat="47.72838" lon="2.2073855">
        <ele>160.0</ele>
        <time>2022-01-13T08:35:44Z</time>
      </trkpt>
      <trkpt lat="47.728386" lon="2.2073815">
        <ele>160.0</ele>
        <time>2022-01-13T08:35:45Z</time>
      </trkpt>
      <trkpt lat="47.728386" lon="2.2073815">
        <ele>160.0</ele>
        <time>2022-01-13T08:35:46Z</time>
      </trkpt>
      <trkpt lat="47.728386" lon="2.2073815">
        <ele>160.0</ele>
        <time>2022-01-13T08:35:47Z</time>
      </trkpt>
      <trkpt lat="47.728405" lon="2.207386">
        <ele>160.0</ele>
        <time>2022-01-13T08:35:48Z</time>
      </trkpt>
      <trkpt lat="47.72841" lon="2.2073803">
        <ele>160.0</ele>
        <time>2022-01-13T08:35:49Z</time>
      </trkpt>
      <trkpt lat="47.728416" lon="2.2073705">
        <ele>160.0</ele>
        <time>2022-01-13T08:35:50Z</time>
      </trkpt>
      <trkpt lat="47.728424" lon="2.2073658">
        <ele>159.0</ele>
        <time>2022-01-13T08:35:51Z</time>
      </trkpt>
      <trkpt lat="47.72843" lon="2.207357">
        <ele>159.0</ele>
        <time>2022-01-13T08:35:52Z</time>
      </trkpt>
      <trkpt lat="47.728443" lon="2.2073421">
        <ele>159.0</ele>
        <time>2022-01-13T08:35:53Z</time>
      </trkpt>
      <trkpt lat="47.728455" lon="2.2073307">
        <ele>159.0</ele>
        <time>2022-01-13T08:35:54Z</time>
      </trkpt>
      <trkpt lat="47.72847" lon="2.2073228">
        <ele>159.0</ele>
        <time>2022-01-13T08:35:55Z</time>
      </trkpt>
      <trkpt lat="47.728477" lon="2.2073145">
        <ele>160.0</ele>
        <time>2022-01-13T08:35:56Z</time>
      </trkpt>
      <trkpt lat="47.728477" lon="2.2073145">
        <ele>160.0</ele>
        <time>2022-01-13T08:35:57Z</time>
      </trkpt>
      <trkpt lat="47.728477" lon="2.2073145">
        <ele>160.0</ele>
        <time>2022-01-13T08:35:58Z</time>
      </trkpt>
      <trkpt lat="47.728516" lon="2.2072902">
        <ele>160.0</ele>
        <time>2022-01-13T08:35:59Z</time>
      </trkpt>
      <trkpt lat="47.728527" lon="2.20728">
        <ele>159.0</ele>
        <time>2022-01-13T08:36:00Z</time>
      </trkpt>
      <trkpt lat="47.72854" lon="2.2072666">
        <ele>159.0</ele>
        <time>2022-01-13T08:36:01Z</time>
      </trkpt>
      <trkpt lat="47.72855" lon="2.207257">
        <ele>159.0</ele>
        <time>2022-01-13T08:36:02Z</time>
      </trkpt>
      <trkpt lat="47.72855" lon="2.207257">
        <ele>159.0</ele>
        <time>2022-01-13T08:36:03Z</time>
      </trkpt>
      <trkpt lat="47.72855" lon="2.207257">
        <ele>159.0</ele>
        <time>2022-01-13T08:36:04Z</time>
      </trkpt>
      <trkpt lat="47.728577" lon="2.2072308">
        <ele>159.0</ele>
        <time>2022-01-13T08:36:05Z</time>
      </trkpt>
      <trkpt lat="47.728592" lon="2.2072213">
        <ele>159.0</ele>
        <time>2022-01-13T08:36:06Z</time>
      </trkpt>
      <trkpt lat="47.728603" lon="2.2072148">
        <ele>159.0</ele>
        <time>2022-01-13T08:36:07Z</time>
      </trkpt>
      <trkpt lat="47.728615" lon="2.207203">
        <ele>160.0</ele>
        <time>2022-01-13T08:36:08Z</time>
      </trkpt>
      <trkpt lat="47.728626" lon="2.2071943">
        <ele>160.0</ele>
        <time>2022-01-13T08:36:09Z</time>
      </trkpt>
      <trkpt lat="47.728638" lon="2.207182">
        <ele>160.0</ele>
        <time>2022-01-13T08:36:10Z</time>
      </trkpt>
      <trkpt lat="47.728657" lon="2.2071602">
        <ele>160.0</ele>
        <time>2022-01-13T08:36:11Z</time>
      </trkpt>
      <trkpt lat="47.728672" lon="2.2071488">
        <ele>160.0</ele>
        <time>2022-01-13T08:36:12Z</time>
      </trkpt>
      <trkpt lat="47.728683" lon="2.2071524">
        <ele>160.0</ele>
        <time>2022-01-13T08:36:13Z</time>
      </trkpt>
      <trkpt lat="47.728695" lon="2.2071447">
        <ele>159.0</ele>
        <time>2022-01-13T08:36:14Z</time>
      </trkpt>
      <trkpt lat="47.728703" lon="2.2071393">
        <ele>159.0</ele>
        <time>2022-01-13T08:36:15Z</time>
      </trkpt>
      <trkpt lat="47.728703" lon="2.2071393">
        <ele>159.0</ele>
        <time>2022-01-13T08:36:16Z</time>
      </trkpt>
      <trkpt lat="47.728703" lon="2.2071393">
        <ele>159.0</ele>
        <time>2022-01-13T08:36:17Z</time>
      </trkpt>
      <trkpt lat="47.728725" lon="2.2071345">
        <ele>160.0</ele>
        <time>2022-01-13T08:36:18Z</time>
      </trkpt>
      <trkpt lat="47.72874" lon="2.2071304">
        <ele>160.0</ele>
        <time>2022-01-13T08:36:19Z</time>
      </trkpt>
      <trkpt lat="47.72876" lon="2.2071195">
        <ele>160.0</ele>
        <time>2022-01-13T08:36:20Z</time>
      </trkpt>
      <trkpt lat="47.72878" lon="2.2071102">
        <ele>160.0</ele>
        <time>2022-01-13T08:36:21Z</time>
      </trkpt>
      <trkpt lat="47.728794" lon="2.2070932">
        <ele>160.0</ele>
        <time>2022-01-13T08:36:22Z</time>
      </trkpt>
      <trkpt lat="47.7288" lon="2.207088">
        <ele>160.0</ele>
        <time>2022-01-13T08:36:23Z</time>
      </trkpt>
      <trkpt lat="47.728817" lon="2.2070792">
        <ele>160.0</ele>
        <time>2022-01-13T08:36:24Z</time>
      </trkpt>
      <trkpt lat="47.72883" lon="2.2070735">
        <ele>160.0</ele>
        <time>2022-01-13T08:36:25Z</time>
      </trkpt>
      <trkpt lat="47.728836" lon="2.2070663">
        <ele>160.0</ele>
        <time>2022-01-13T08:36:26Z</time>
      </trkpt>
      <trkpt lat="47.728844" lon="2.2070594">
        <ele>160.0</ele>
        <time>2022-01-13T08:36:27Z</time>
      </trkpt>
      <trkpt lat="47.72885" lon="2.2070496">
        <ele>159.0</ele>
        <time>2022-01-13T08:36:28Z</time>
      </trkpt>
      <trkpt lat="47.728855" lon="2.2070343">
        <ele>159.0</ele>
        <time>2022-01-13T08:36:29Z</time>
      </trkpt>
      <trkpt lat="47.728867" lon="2.2070203">
        <ele>159.0</ele>
        <time>2022-01-13T08:36:30Z</time>
      </trkpt>
      <trkpt lat="47.728878" lon="2.2070098">
        <ele>159.0</ele>
        <time>2022-01-13T08:36:31Z</time>
      </trkpt>
      <trkpt lat="47.72888" lon="2.2070055">
        <ele>159.0</ele>
        <time>2022-01-13T08:36:32Z</time>
      </trkpt>
      <trkpt lat="47.72889" lon="2.2070026">
        <ele>159.0</ele>
        <time>2022-01-13T08:36:33Z</time>
      </trkpt>
      <trkpt lat="47.7289" lon="2.2069945">
        <ele>158.0</ele>
        <time>2022-01-13T08:36:34Z</time>
      </trkpt>
      <trkpt lat="47.728912" lon="2.2069871">
        <ele>158.0</ele>
        <time>2022-01-13T08:36:35Z</time>
      </trkpt>
      <trkpt lat="47.728924" lon="2.2069824">
        <ele>158.0</ele>
        <time>2022-01-13T08:36:36Z</time>
      </trkpt>
      <trkpt lat="47.72893" lon="2.206983">
        <ele>159.0</ele>
        <time>2022-01-13T08:36:37Z</time>
      </trkpt>
      <trkpt lat="47.72894" lon="2.20698">
        <ele>159.0</ele>
        <time>2022-01-13T08:36:38Z</time>
      </trkpt>
      <trkpt lat="47.72895" lon="2.2069726">
        <ele>158.0</ele>
        <time>2022-01-13T08:36:39Z</time>
      </trkpt>
      <trkpt lat="47.728966" lon="2.206958">
        <ele>159.0</ele>
        <time>2022-01-13T08:36:40Z</time>
      </trkpt>
      <trkpt lat="47.72898" lon="2.2069416">
        <ele>159.0</ele>
        <time>2022-01-13T08:36:41Z</time>
      </trkpt>
      <trkpt lat="47.728992" lon="2.2069278">
        <ele>159.0</ele>
        <time>2022-01-13T08:36:42Z</time>
      </trkpt>
      <trkpt lat="47.729008" lon="2.2069173">
        <ele>159.0</ele>
        <time>2022-01-13T08:36:43Z</time>
      </trkpt>
      <trkpt lat="47.72902" lon="2.206909">
        <ele>159.0</ele>
        <time>2022-01-13T08:36:44Z</time>
      </trkpt>
      <trkpt lat="47.729034" lon="2.2069075">
        <ele>159.0</ele>
        <time>2022-01-13T08:36:45Z</time>
      </trkpt>
      <trkpt lat="47.729046" lon="2.2069054">
        <ele>159.0</ele>
        <time>2022-01-13T08:36:46Z</time>
      </trkpt>
      <trkpt lat="47.729053" lon="2.206908">
        <ele>159.0</ele>
        <time>2022-01-13T08:36:47Z</time>
      </trkpt>
      <trkpt lat="47.729065" lon="2.2069058">
        <ele>159.0</ele>
        <time>2022-01-13T08:36:48Z</time>
      </trkpt>
      <trkpt lat="47.729076" lon="2.206901">
        <ele>159.0</ele>
        <time>2022-01-13T08:36:49Z</time>
      </trkpt>
      <trkpt lat="47.72909" lon="2.2068942">
        <ele>159.0</ele>
        <time>2022-01-13T08:36:50Z</time>
      </trkpt>
      <trkpt lat="47.729103" lon="2.2068844">
        <ele>160.0</ele>
        <time>2022-01-13T08:36:51Z</time>
      </trkpt>
      <trkpt lat="47.72911" lon="2.2068782">
        <ele>160.0</ele>
        <time>2022-01-13T08:36:52Z</time>
      </trkpt>
      <trkpt lat="47.72912" lon="2.2068703">
        <ele>160.0</ele>
        <time>2022-01-13T08:36:53Z</time>
      </trkpt>
      <trkpt lat="47.72913" lon="2.2068627">
        <ele>159.0</ele>
        <time>2022-01-13T08:36:54Z</time>
      </trkpt>
      <trkpt lat="47.729137" lon="2.206855">
        <ele>160.0</ele>
        <time>2022-01-13T08:36:55Z</time>
      </trkpt>
      <trkpt lat="47.729145" lon="2.206849">
        <ele>159.0</ele>
        <time>2022-01-13T08:36:56Z</time>
      </trkpt>
      <trkpt lat="47.729156" lon="2.2068439">
        <ele>159.0</ele>
        <time>2022-01-13T08:36:57Z</time>
      </trkpt>
      <trkpt lat="47.72917" lon="2.206833">
        <ele>160.0</ele>
        <time>2022-01-13T08:36:58Z</time>
      </trkpt>
      <trkpt lat="47.72918" lon="2.2068248">
        <ele>160.0</ele>
        <time>2022-01-13T08:36:59Z</time>
      </trkpt>
      <trkpt lat="47.72919" lon="2.2068167">
        <ele>160.0</ele>
        <time>2022-01-13T08:37:00Z</time>
      </trkpt>
      <trkpt lat="47.729202" lon="2.2068062">
        <ele>159.0</ele>
        <time>2022-01-13T08:37:01Z</time>
      </trkpt>
      <trkpt lat="47.729214" lon="2.2067928">
        <ele>159.0</ele>
        <time>2022-01-13T08:37:02Z</time>
      </trkpt>
      <trkpt lat="47.729225" lon="2.2067819">
        <ele>159.0</ele>
        <time>2022-01-13T08:37:03Z</time>
      </trkpt>
      <trkpt lat="47.72924" lon="2.2067697">
        <ele>159.0</ele>
        <time>2022-01-13T08:37:04Z</time>
      </trkpt>
      <trkpt lat="47.72925" lon="2.2067626">
        <ele>159.0</ele>
        <time>2022-01-13T08:37:05Z</time>
      </trkpt>
      <trkpt lat="47.729267" lon="2.2067502">
        <ele>159.0</ele>
        <time>2022-01-13T08:37:06Z</time>
      </trkpt>
      <trkpt lat="47.729282" lon="2.2067356">
        <ele>159.0</ele>
        <time>2022-01-13T08:37:07Z</time>
      </trkpt>
      <trkpt lat="47.729298" lon="2.2067287">
        <ele>159.0</ele>
        <time>2022-01-13T08:37:08Z</time>
      </trkpt>
      <trkpt lat="47.729313" lon="2.2067165">
        <ele>158.0</ele>
        <time>2022-01-13T08:37:09Z</time>
      </trkpt>
      <trkpt lat="47.72933" lon="2.2067">
        <ele>159.0</ele>
        <time>2022-01-13T08:37:10Z</time>
      </trkpt>
      <trkpt lat="47.729332" lon="2.2066827">
        <ele>159.0</ele>
        <time>2022-01-13T08:37:11Z</time>
      </trkpt>
      <trkpt lat="47.72934" lon="2.2066672">
        <ele>159.0</ele>
        <time>2022-01-13T08:37:12Z</time>
      </trkpt>
      <trkpt lat="47.729347" lon="2.2066596">
        <ele>159.0</ele>
        <time>2022-01-13T08:37:13Z</time>
      </trkpt>
      <trkpt lat="47.72935" lon="2.2066505">
        <ele>159.0</ele>
        <time>2022-01-13T08:37:14Z</time>
      </trkpt>
      <trkpt lat="47.729355" lon="2.2066426">
        <ele>159.0</ele>
        <time>2022-01-13T08:37:15Z</time>
      </trkpt>
      <trkpt lat="47.729355" lon="2.2066455">
        <ele>158.0</ele>
        <time>2022-01-13T08:37:16Z</time>
      </trkpt>
      <trkpt lat="47.729362" lon="2.2066426">
        <ele>158.0</ele>
        <time>2022-01-13T08:37:17Z</time>
      </trkpt>
      <trkpt lat="47.729362" lon="2.2066426">
        <ele>158.0</ele>
        <time>2022-01-13T08:37:18Z</time>
      </trkpt>
      <trkpt lat="47.729362" lon="2.2066426">
        <ele>158.0</ele>
        <time>2022-01-13T08:37:19Z</time>
      </trkpt>
      <trkpt lat="47.729397" lon="2.2066278">
        <ele>158.0</ele>
        <time>2022-01-13T08:37:20Z</time>
      </trkpt>
      <trkpt lat="47.72941" lon="2.206619">
        <ele>157.0</ele>
        <time>2022-01-13T08:37:21Z</time>
      </trkpt>
      <trkpt lat="47.729416" lon="2.206612">
        <ele>157.0</ele>
        <time>2022-01-13T08:37:22Z</time>
      </trkpt>
      <trkpt lat="47.729424" lon="2.2066057">
        <ele>157.0</ele>
        <time>2022-01-13T08:37:23Z</time>
      </trkpt>
      <trkpt lat="47.729435" lon="2.2065985">
        <ele>158.0</ele>
        <time>2022-01-13T08:37:24Z</time>
      </trkpt>
      <trkpt lat="47.729446" lon="2.2065952">
        <ele>158.0</ele>
        <time>2022-01-13T08:37:25Z</time>
      </trkpt>
      <trkpt lat="47.72946" lon="2.2065911">
        <ele>158.0</ele>
        <time>2022-01-13T08:37:26Z</time>
      </trkpt>
      <trkpt lat="47.729473" lon="2.2065856">
        <ele>158.0</ele>
        <time>2022-01-13T08:37:27Z</time>
      </trkpt>
      <trkpt lat="47.72948" lon="2.2065818">
        <ele>158.0</ele>
        <time>2022-01-13T08:37:28Z</time>
      </trkpt>
      <trkpt lat="47.729496" lon="2.2065737">
        <ele>158.0</ele>
        <time>2022-01-13T08:37:29Z</time>
      </trkpt>
      <trkpt lat="47.72951" lon="2.2065587">
        <ele>158.0</ele>
        <time>2022-01-13T08:37:30Z</time>
      </trkpt>
      <trkpt lat="47.72953" lon="2.2065465">
        <ele>157.0</ele>
        <time>2022-01-13T08:37:31Z</time>
      </trkpt>
      <trkpt lat="47.729546" lon="2.206532">
        <ele>156.0</ele>
        <time>2022-01-13T08:37:32Z</time>
      </trkpt>
      <trkpt lat="47.72956" lon="2.2065206">
        <ele>156.0</ele>
        <time>2022-01-13T08:37:33Z</time>
      </trkpt>
      <trkpt lat="47.72957" lon="2.2065077">
        <ele>156.0</ele>
        <time>2022-01-13T08:37:34Z</time>
      </trkpt>
      <trkpt lat="47.72958" lon="2.2064958">
        <ele>156.0</ele>
        <time>2022-01-13T08:37:35Z</time>
      </trkpt>
      <trkpt lat="47.729595" lon="2.2064817">
        <ele>156.0</ele>
        <time>2022-01-13T08:37:36Z</time>
      </trkpt>
      <trkpt lat="47.72961" lon="2.2064736">
        <ele>156.0</ele>
        <time>2022-01-13T08:37:37Z</time>
      </trkpt>
      <trkpt lat="47.72962" lon="2.2064624">
        <ele>156.0</ele>
        <time>2022-01-13T08:37:38Z</time>
      </trkpt>
      <trkpt lat="47.729633" lon="2.206449">
        <ele>156.0</ele>
        <time>2022-01-13T08:37:39Z</time>
      </trkpt>
      <trkpt lat="47.72965" lon="2.2064428">
        <ele>156.0</ele>
        <time>2022-01-13T08:37:40Z</time>
      </trkpt>
      <trkpt lat="47.72966" lon="2.2064347">
        <ele>156.0</ele>
        <time>2022-01-13T08:37:41Z</time>
      </trkpt>
      <trkpt lat="47.72967" lon="2.206426">
        <ele>156.0</ele>
        <time>2022-01-13T08:37:42Z</time>
      </trkpt>
      <trkpt lat="47.729683" lon="2.2064178">
        <ele>157.0</ele>
        <time>2022-01-13T08:37:43Z</time>
      </trkpt>
      <trkpt lat="47.729694" lon="2.2064104">
        <ele>157.0</ele>
        <time>2022-01-13T08:37:44Z</time>
      </trkpt>
      <trkpt lat="47.729694" lon="2.2064104">
        <ele>157.0</ele>
        <time>2022-01-13T08:37:45Z</time>
      </trkpt>
      <trkpt lat="47.729694" lon="2.2064104">
        <ele>157.0</ele>
        <time>2022-01-13T08:37:46Z</time>
      </trkpt>
      <trkpt lat="47.729725" lon="2.2063892">
        <ele>156.0</ele>
        <time>2022-01-13T08:37:47Z</time>
      </trkpt>
      <trkpt lat="47.72973" lon="2.2063832">
        <ele>156.0</ele>
        <time>2022-01-13T08:37:48Z</time>
      </trkpt>
      <trkpt lat="47.729736" lon="2.2063797">
        <ele>156.0</ele>
        <time>2022-01-13T08:37:49Z</time>
      </trkpt>
      <trkpt lat="47.729744" lon="2.2063744">
        <ele>156.0</ele>
        <time>2022-01-13T08:37:50Z</time>
      </trkpt>
      <trkpt lat="47.729748" lon="2.2063594">
        <ele>156.0</ele>
        <time>2022-01-13T08:37:51Z</time>
      </trkpt>
      <trkpt lat="47.729755" lon="2.206347">
        <ele>156.0</ele>
        <time>2022-01-13T08:37:52Z</time>
      </trkpt>
      <trkpt lat="47.72977" lon="2.2063324">
        <ele>156.0</ele>
        <time>2022-01-13T08:37:53Z</time>
      </trkpt>
      <trkpt lat="47.729786" lon="2.206328">
        <ele>156.0</ele>
        <time>2022-01-13T08:37:54Z</time>
      </trkpt>
      <trkpt lat="47.729794" lon="2.2063296">
        <ele>155.0</ele>
        <time>2022-01-13T08:37:55Z</time>
      </trkpt>
      <trkpt lat="47.72981" lon="2.2063277">
        <ele>155.0</ele>
        <time>2022-01-13T08:37:56Z</time>
      </trkpt>
      <trkpt lat="47.729816" lon="2.2063189">
        <ele>155.0</ele>
        <time>2022-01-13T08:37:57Z</time>
      </trkpt>
      <trkpt lat="47.729828" lon="2.2063065">
        <ele>156.0</ele>
        <time>2022-01-13T08:37:58Z</time>
      </trkpt>
      <trkpt lat="47.729843" lon="2.206298">
        <ele>156.0</ele>
        <time>2022-01-13T08:37:59Z</time>
      </trkpt>
      <trkpt lat="47.729855" lon="2.206279">
        <ele>156.0</ele>
        <time>2022-01-13T08:38:00Z</time>
      </trkpt>
      <trkpt lat="47.729862" lon="2.206262">
        <ele>156.0</ele>
        <time>2022-01-13T08:38:01Z</time>
      </trkpt>
      <trkpt lat="47.729874" lon="2.2062495">
        <ele>156.0</ele>
        <time>2022-01-13T08:38:02Z</time>
      </trkpt>
      <trkpt lat="47.729885" lon="2.206236">
        <ele>156.0</ele>
        <time>2022-01-13T08:38:03Z</time>
      </trkpt>
      <trkpt lat="47.729897" lon="2.2062225">
        <ele>156.0</ele>
        <time>2022-01-13T08:38:04Z</time>
      </trkpt>
      <trkpt lat="47.729904" lon="2.2062109">
        <ele>156.0</ele>
        <time>2022-01-13T08:38:05Z</time>
      </trkpt>
      <trkpt lat="47.729916" lon="2.2061973">
        <ele>156.0</ele>
        <time>2022-01-13T08:38:06Z</time>
      </trkpt>
      <trkpt lat="47.729927" lon="2.2061784">
        <ele>156.0</ele>
        <time>2022-01-13T08:38:07Z</time>
      </trkpt>
      <trkpt lat="47.729942" lon="2.2061694">
        <ele>156.0</ele>
        <time>2022-01-13T08:38:08Z</time>
      </trkpt>
      <trkpt lat="47.729954" lon="2.206163">
        <ele>155.0</ele>
        <time>2022-01-13T08:38:09Z</time>
      </trkpt>
      <trkpt lat="47.72997" lon="2.2061565">
        <ele>155.0</ele>
        <time>2022-01-13T08:38:10Z</time>
      </trkpt>
      <trkpt lat="47.729984" lon="2.2061505">
        <ele>155.0</ele>
        <time>2022-01-13T08:38:11Z</time>
      </trkpt>
      <trkpt lat="47.729996" lon="2.2061417">
        <ele>155.0</ele>
        <time>2022-01-13T08:38:12Z</time>
      </trkpt>
      <trkpt lat="47.730007" lon="2.206131">
        <ele>156.0</ele>
        <time>2022-01-13T08:38:13Z</time>
      </trkpt>
      <trkpt lat="47.73002" lon="2.2061234">
        <ele>156.0</ele>
        <time>2022-01-13T08:38:14Z</time>
      </trkpt>
      <trkpt lat="47.73003" lon="2.2061162">
        <ele>156.0</ele>
        <time>2022-01-13T08:38:15Z</time>
      </trkpt>
      <trkpt lat="47.73004" lon="2.2061024">
        <ele>157.0</ele>
        <time>2022-01-13T08:38:16Z</time>
      </trkpt>
      <trkpt lat="47.73005" lon="2.2060885">
        <ele>157.0</ele>
        <time>2022-01-13T08:38:17Z</time>
      </trkpt>
      <trkpt lat="47.73006" lon="2.2060783">
        <ele>157.0</ele>
        <time>2022-01-13T08:38:18Z</time>
      </trkpt>
      <trkpt lat="47.730072" lon="2.2060745">
        <ele>157.0</ele>
        <time>2022-01-13T08:38:19Z</time>
      </trkpt>
      <trkpt lat="47.730083" lon="2.2060697">
        <ele>157.0</ele>
        <time>2022-01-13T08:38:20Z</time>
      </trkpt>
      <trkpt lat="47.730095" lon="2.2060647">
        <ele>158.0</ele>
        <time>2022-01-13T08:38:21Z</time>
      </trkpt>
      <trkpt lat="47.7301" lon="2.2060592">
        <ele>158.0</ele>
        <time>2022-01-13T08:38:22Z</time>
      </trkpt>
      <trkpt lat="47.730106" lon="2.2060518">
        <ele>159.0</ele>
        <time>2022-01-13T08:38:23Z</time>
      </trkpt>
      <trkpt lat="47.73011" lon="2.206042">
        <ele>159.0</ele>
        <time>2022-01-13T08:38:24Z</time>
      </trkpt>
      <trkpt lat="47.73011" lon="2.206042">
        <ele>159.0</ele>
        <time>2022-01-13T08:38:25Z</time>
      </trkpt>
      <trkpt lat="47.73011" lon="2.206042">
        <ele>159.0</ele>
        <time>2022-01-13T08:38:26Z</time>
      </trkpt>
      <trkpt lat="47.73013" lon="2.206025">
        <ele>159.0</ele>
        <time>2022-01-13T08:38:27Z</time>
      </trkpt>
      <trkpt lat="47.730137" lon="2.206012">
        <ele>159.0</ele>
        <time>2022-01-13T08:38:28Z</time>
      </trkpt>
      <trkpt lat="47.730145" lon="2.2060041">
        <ele>159.0</ele>
        <time>2022-01-13T08:38:29Z</time>
      </trkpt>
      <trkpt lat="47.73015" lon="2.2059932">
        <ele>160.0</ele>
        <time>2022-01-13T08:38:30Z</time>
      </trkpt>
      <trkpt lat="47.73016" lon="2.2059834">
        <ele>160.0</ele>
        <time>2022-01-13T08:38:31Z</time>
      </trkpt>
      <trkpt lat="47.730167" lon="2.2059739">
        <ele>160.0</ele>
        <time>2022-01-13T08:38:32Z</time>
      </trkpt>
      <trkpt lat="47.730175" lon="2.2059622">
        <ele>160.0</ele>
        <time>2022-01-13T08:38:33Z</time>
      </trkpt>
      <trkpt lat="47.730183" lon="2.2059515">
        <ele>160.0</ele>
        <time>2022-01-13T08:38:34Z</time>
      </trkpt>
      <trkpt lat="47.730183" lon="2.2059515">
        <ele>160.0</ele>
        <time>2022-01-13T08:38:35Z</time>
      </trkpt>
      <trkpt lat="47.730183" lon="2.2059515">
        <ele>160.0</ele>
        <time>2022-01-13T08:38:36Z</time>
      </trkpt>
      <trkpt lat="47.730213" lon="2.2059135">
        <ele>160.0</ele>
        <time>2022-01-13T08:38:37Z</time>
      </trkpt>
      <trkpt lat="47.73023" lon="2.205904">
        <ele>160.0</ele>
        <time>2022-01-13T08:38:38Z</time>
      </trkpt>
      <trkpt lat="47.730247" lon="2.2058861">
        <ele>160.0</ele>
        <time>2022-01-13T08:38:39Z</time>
      </trkpt>
      <trkpt lat="47.730267" lon="2.205869">
        <ele>160.0</ele>
        <time>2022-01-13T08:38:40Z</time>
      </trkpt>
      <trkpt lat="47.73028" lon="2.2058578">
        <ele>160.0</ele>
        <time>2022-01-13T08:38:41Z</time>
      </trkpt>
      <trkpt lat="47.730293" lon="2.2058437">
        <ele>160.0</ele>
        <time>2022-01-13T08:38:42Z</time>
      </trkpt>
      <trkpt lat="47.730305" lon="2.2058337">
        <ele>161.0</ele>
        <time>2022-01-13T08:38:43Z</time>
      </trkpt>
      <trkpt lat="47.730316" lon="2.2058225">
        <ele>162.0</ele>
        <time>2022-01-13T08:38:44Z</time>
      </trkpt>
      <trkpt lat="47.730328" lon="2.2058134">
        <ele>162.0</ele>
        <time>2022-01-13T08:38:45Z</time>
      </trkpt>
      <trkpt lat="47.730335" lon="2.2058074">
        <ele>162.0</ele>
        <time>2022-01-13T08:38:46Z</time>
      </trkpt>
      <trkpt lat="47.730347" lon="2.205804">
        <ele>162.0</ele>
        <time>2022-01-13T08:38:47Z</time>
      </trkpt>
      <trkpt lat="47.73036" lon="2.2057958">
        <ele>162.0</ele>
        <time>2022-01-13T08:38:48Z</time>
      </trkpt>
      <trkpt lat="47.73037" lon="2.2057867">
        <ele>162.0</ele>
        <time>2022-01-13T08:38:49Z</time>
      </trkpt>
      <trkpt lat="47.73038" lon="2.2057781">
        <ele>162.0</ele>
        <time>2022-01-13T08:38:50Z</time>
      </trkpt>
      <trkpt lat="47.730396" lon="2.2057714">
        <ele>163.0</ele>
        <time>2022-01-13T08:38:51Z</time>
      </trkpt>
      <trkpt lat="47.730408" lon="2.205766">
        <ele>163.0</ele>
        <time>2022-01-13T08:38:52Z</time>
      </trkpt>
      <trkpt lat="47.730415" lon="2.205758">
        <ele>164.0</ele>
        <time>2022-01-13T08:38:53Z</time>
      </trkpt>
      <trkpt lat="47.73043" lon="2.2057438">
        <ele>164.0</ele>
        <time>2022-01-13T08:38:54Z</time>
      </trkpt>
      <trkpt lat="47.730442" lon="2.2057393">
        <ele>163.0</ele>
        <time>2022-01-13T08:38:55Z</time>
      </trkpt>
      <trkpt lat="47.730453" lon="2.2057347">
        <ele>164.0</ele>
        <time>2022-01-13T08:38:56Z</time>
      </trkpt>
      <trkpt lat="47.730465" lon="2.2057245">
        <ele>163.0</ele>
        <time>2022-01-13T08:38:57Z</time>
      </trkpt>
      <trkpt lat="47.730473" lon="2.2057142">
        <ele>163.0</ele>
        <time>2022-01-13T08:38:58Z</time>
      </trkpt>
      <trkpt lat="47.730484" lon="2.2056997">
        <ele>163.0</ele>
        <time>2022-01-13T08:38:59Z</time>
      </trkpt>
      <trkpt lat="47.730495" lon="2.2056873">
        <ele>163.0</ele>
        <time>2022-01-13T08:39:00Z</time>
      </trkpt>
      <trkpt lat="47.73051" lon="2.2056742">
        <ele>163.0</ele>
        <time>2022-01-13T08:39:01Z</time>
      </trkpt>
      <trkpt lat="47.730522" lon="2.2056653">
        <ele>164.0</ele>
        <time>2022-01-13T08:39:02Z</time>
      </trkpt>
      <trkpt lat="47.730534" lon="2.20566">
        <ele>164.0</ele>
        <time>2022-01-13T08:39:03Z</time>
      </trkpt>
      <trkpt lat="47.73055" lon="2.205661">
        <ele>163.0</ele>
        <time>2022-01-13T08:39:04Z</time>
      </trkpt>
      <trkpt lat="47.730564" lon="2.2056534">
        <ele>164.0</ele>
        <time>2022-01-13T08:39:05Z</time>
      </trkpt>
      <trkpt lat="47.730576" lon="2.2056494">
        <ele>164.0</ele>
        <time>2022-01-13T08:39:06Z</time>
      </trkpt>
      <trkpt lat="47.730587" lon="2.205644">
        <ele>164.0</ele>
        <time>2022-01-13T08:39:07Z</time>
      </trkpt>
      <trkpt lat="47.730595" lon="2.2056367">
        <ele>164.0</ele>
        <time>2022-01-13T08:39:08Z</time>
      </trkpt>
      <trkpt lat="47.730602" lon="2.2056303">
        <ele>164.0</ele>
        <time>2022-01-13T08:39:09Z</time>
      </trkpt>
      <trkpt lat="47.730618" lon="2.2056198">
        <ele>164.0</ele>
        <time>2022-01-13T08:39:10Z</time>
      </trkpt>
      <trkpt lat="47.73063" lon="2.2056167">
        <ele>164.0</ele>
        <time>2022-01-13T08:39:11Z</time>
      </trkpt>
      <trkpt lat="47.730637" lon="2.2056122">
        <ele>164.0</ele>
        <time>2022-01-13T08:39:12Z</time>
      </trkpt>
      <trkpt lat="47.730644" lon="2.205607">
        <ele>164.0</ele>
        <time>2022-01-13T08:39:13Z</time>
      </trkpt>
      <trkpt lat="47.73065" lon="2.2055974">
        <ele>164.0</ele>
        <time>2022-01-13T08:39:14Z</time>
      </trkpt>
      <trkpt lat="47.730663" lon="2.2055817">
        <ele>164.0</ele>
        <time>2022-01-13T08:39:15Z</time>
      </trkpt>
      <trkpt lat="47.73067" lon="2.2055676">
        <ele>164.0</ele>
        <time>2022-01-13T08:39:16Z</time>
      </trkpt>
      <trkpt lat="47.730682" lon="2.2055535">
        <ele>164.0</ele>
        <time>2022-01-13T08:39:17Z</time>
      </trkpt>
      <trkpt lat="47.730694" lon="2.2055354">
        <ele>164.0</ele>
        <time>2022-01-13T08:39:18Z</time>
      </trkpt>
      <trkpt lat="47.730705" lon="2.2055197">
        <ele>164.0</ele>
        <time>2022-01-13T08:39:19Z</time>
      </trkpt>
      <trkpt lat="47.730713" lon="2.205509">
        <ele>164.0</ele>
        <time>2022-01-13T08:39:20Z</time>
      </trkpt>
      <trkpt lat="47.730717" lon="2.2055027">
        <ele>164.0</ele>
        <time>2022-01-13T08:39:21Z</time>
      </trkpt>
      <trkpt lat="47.73073" lon="2.2054899">
        <ele>164.0</ele>
        <time>2022-01-13T08:39:22Z</time>
      </trkpt>
      <trkpt lat="47.73074" lon="2.2054737">
        <ele>164.0</ele>
        <time>2022-01-13T08:39:23Z</time>
      </trkpt>
      <trkpt lat="47.730747" lon="2.2054572">
        <ele>164.0</ele>
        <time>2022-01-13T08:39:24Z</time>
      </trkpt>
      <trkpt lat="47.73076" lon="2.2054503">
        <ele>164.0</ele>
        <time>2022-01-13T08:39:25Z</time>
      </trkpt>
      <trkpt lat="47.730766" lon="2.2054393">
        <ele>164.0</ele>
        <time>2022-01-13T08:39:26Z</time>
      </trkpt>
      <trkpt lat="47.730774" lon="2.205429">
        <ele>164.0</ele>
        <time>2022-01-13T08:39:27Z</time>
      </trkpt>
      <trkpt lat="47.730785" lon="2.2054188">
        <ele>164.0</ele>
        <time>2022-01-13T08:39:28Z</time>
      </trkpt>
      <trkpt lat="47.730797" lon="2.2054107">
        <ele>165.0</ele>
        <time>2022-01-13T08:39:29Z</time>
      </trkpt>
      <trkpt lat="47.730804" lon="2.205401">
        <ele>165.0</ele>
        <time>2022-01-13T08:39:30Z</time>
      </trkpt>
      <trkpt lat="47.730816" lon="2.2053854">
        <ele>166.0</ele>
        <time>2022-01-13T08:39:31Z</time>
      </trkpt>
      <trkpt lat="47.730827" lon="2.2053726">
        <ele>166.0</ele>
        <time>2022-01-13T08:39:32Z</time>
      </trkpt>
      <trkpt lat="47.730835" lon="2.2053552">
        <ele>166.0</ele>
        <time>2022-01-13T08:39:33Z</time>
      </trkpt>
      <trkpt lat="47.730843" lon="2.2053413">
        <ele>166.0</ele>
        <time>2022-01-13T08:39:34Z</time>
      </trkpt>
      <trkpt lat="47.73085" lon="2.2053335">
        <ele>166.0</ele>
        <time>2022-01-13T08:39:35Z</time>
      </trkpt>
      <trkpt lat="47.730858" lon="2.205321">
        <ele>166.0</ele>
        <time>2022-01-13T08:39:36Z</time>
      </trkpt>
      <trkpt lat="47.730865" lon="2.2053087">
        <ele>166.0</ele>
        <time>2022-01-13T08:39:37Z</time>
      </trkpt>
      <trkpt lat="47.730877" lon="2.2052984">
        <ele>166.0</ele>
        <time>2022-01-13T08:39:38Z</time>
      </trkpt>
      <trkpt lat="47.73089" lon="2.2052898">
        <ele>165.0</ele>
        <time>2022-01-13T08:39:39Z</time>
      </trkpt>
      <trkpt lat="47.730907" lon="2.2052805">
        <ele>165.0</ele>
        <time>2022-01-13T08:39:40Z</time>
      </trkpt>
      <trkpt lat="47.73092" lon="2.2052753">
        <ele>166.0</ele>
        <time>2022-01-13T08:39:41Z</time>
      </trkpt>
      <trkpt lat="47.730934" lon="2.2052653">
        <ele>166.0</ele>
        <time>2022-01-13T08:39:42Z</time>
      </trkpt>
      <trkpt lat="47.730946" lon="2.2052531">
        <ele>166.0</ele>
        <time>2022-01-13T08:39:43Z</time>
      </trkpt>
      <trkpt lat="47.730965" lon="2.2052367">
        <ele>166.0</ele>
        <time>2022-01-13T08:39:44Z</time>
      </trkpt>
      <trkpt lat="47.730972" lon="2.205227">
        <ele>166.0</ele>
        <time>2022-01-13T08:39:45Z</time>
      </trkpt>
      <trkpt lat="47.730988" lon="2.205217">
        <ele>166.0</ele>
        <time>2022-01-13T08:39:46Z</time>
      </trkpt>
      <trkpt lat="47.731003" lon="2.2052057">
        <ele>166.0</ele>
        <time>2022-01-13T08:39:47Z</time>
      </trkpt>
      <trkpt lat="47.73101" lon="2.2051983">
        <ele>166.0</ele>
        <time>2022-01-13T08:39:48Z</time>
      </trkpt>
      <trkpt lat="47.73102" lon="2.2051961">
        <ele>165.0</ele>
        <time>2022-01-13T08:39:49Z</time>
      </trkpt>
      <trkpt lat="47.731033" lon="2.2051902">
        <ele>165.0</ele>
        <time>2022-01-13T08:39:50Z</time>
      </trkpt>
      <trkpt lat="47.731045" lon="2.2051795">
        <ele>165.0</ele>
        <time>2022-01-13T08:39:51Z</time>
      </trkpt>
      <trkpt lat="47.731056" lon="2.205166">
        <ele>165.0</ele>
        <time>2022-01-13T08:39:52Z</time>
      </trkpt>
      <trkpt lat="47.731064" lon="2.2051558">
        <ele>165.0</ele>
        <time>2022-01-13T08:39:53Z</time>
      </trkpt>
      <trkpt lat="47.731075" lon="2.2051513">
        <ele>165.0</ele>
        <time>2022-01-13T08:39:54Z</time>
      </trkpt>
      <trkpt lat="47.731087" lon="2.2051387">
        <ele>165.0</ele>
        <time>2022-01-13T08:39:55Z</time>
      </trkpt>
      <trkpt lat="47.731094" lon="2.2051232">
        <ele>164.0</ele>
        <time>2022-01-13T08:39:56Z</time>
      </trkpt>
      <trkpt lat="47.731106" lon="2.2051117">
        <ele>165.0</ele>
        <time>2022-01-13T08:39:57Z</time>
      </trkpt>
      <trkpt lat="47.731117" lon="2.2051">
        <ele>165.0</ele>
        <time>2022-01-13T08:39:58Z</time>
      </trkpt>
      <trkpt lat="47.73113" lon="2.2050927">
        <ele>165.0</ele>
        <time>2022-01-13T08:39:59Z</time>
      </trkpt>
      <trkpt lat="47.73114" lon="2.2050834">
        <ele>165.0</ele>
        <time>2022-01-13T08:40:00Z</time>
      </trkpt>
      <trkpt lat="47.731148" lon="2.2050726">
        <ele>165.0</ele>
        <time>2022-01-13T08:40:01Z</time>
      </trkpt>
      <trkpt lat="47.731155" lon="2.2050614">
        <ele>164.0</ele>
        <time>2022-01-13T08:40:02Z</time>
      </trkpt>
      <trkpt lat="47.731167" lon="2.2050548">
        <ele>164.0</ele>
        <time>2022-01-13T08:40:03Z</time>
      </trkpt>
      <trkpt lat="47.73118" lon="2.2050447">
        <ele>165.0</ele>
        <time>2022-01-13T08:40:04Z</time>
      </trkpt>
      <trkpt lat="47.731194" lon="2.2050354">
        <ele>165.0</ele>
        <time>2022-01-13T08:40:05Z</time>
      </trkpt>
      <trkpt lat="47.731205" lon="2.2050238">
        <ele>165.0</ele>
        <time>2022-01-13T08:40:06Z</time>
      </trkpt>
      <trkpt lat="47.731216" lon="2.2050116">
        <ele>165.0</ele>
        <time>2022-01-13T08:40:07Z</time>
      </trkpt>
      <trkpt lat="47.73122" lon="2.2050018">
        <ele>165.0</ele>
        <time>2022-01-13T08:40:08Z</time>
      </trkpt>
      <trkpt lat="47.731224" lon="2.2049887">
        <ele>165.0</ele>
        <time>2022-01-13T08:40:09Z</time>
      </trkpt>
      <trkpt lat="47.731236" lon="2.2049723">
        <ele>165.0</ele>
        <time>2022-01-13T08:40:10Z</time>
      </trkpt>
      <trkpt lat="47.731243" lon="2.2049582">
        <ele>165.0</ele>
        <time>2022-01-13T08:40:11Z</time>
      </trkpt>
      <trkpt lat="47.73125" lon="2.2049425">
        <ele>165.0</ele>
        <time>2022-01-13T08:40:12Z</time>
      </trkpt>
      <trkpt lat="47.731255" lon="2.2049305">
        <ele>164.0</ele>
        <time>2022-01-13T08:40:13Z</time>
      </trkpt>
      <trkpt lat="47.73126" lon="2.2049148">
        <ele>164.0</ele>
        <time>2022-01-13T08:40:14Z</time>
      </trkpt>
      <trkpt lat="47.73127" lon="2.2049003">
        <ele>165.0</ele>
        <time>2022-01-13T08:40:15Z</time>
      </trkpt>
      <trkpt lat="47.731277" lon="2.2048912">
        <ele>165.0</ele>
        <time>2022-01-13T08:40:16Z</time>
      </trkpt>
      <trkpt lat="47.73129" lon="2.2048752">
        <ele>165.0</ele>
        <time>2022-01-13T08:40:17Z</time>
      </trkpt>
      <trkpt lat="47.731297" lon="2.2048624">
        <ele>165.0</ele>
        <time>2022-01-13T08:40:18Z</time>
      </trkpt>
      <trkpt lat="47.73131" lon="2.2048533">
        <ele>165.0</ele>
        <time>2022-01-13T08:40:19Z</time>
      </trkpt>
      <trkpt lat="47.731323" lon="2.2048461">
        <ele>165.0</ele>
        <time>2022-01-13T08:40:20Z</time>
      </trkpt>
      <trkpt lat="47.73134" lon="2.2048364">
        <ele>165.0</ele>
        <time>2022-01-13T08:40:21Z</time>
      </trkpt>
      <trkpt lat="47.73135" lon="2.2048275">
        <ele>165.0</ele>
        <time>2022-01-13T08:40:22Z</time>
      </trkpt>
      <trkpt lat="47.73136" lon="2.2048273">
        <ele>165.0</ele>
        <time>2022-01-13T08:40:23Z</time>
      </trkpt>
      <trkpt lat="47.731373" lon="2.2048192">
        <ele>165.0</ele>
        <time>2022-01-13T08:40:24Z</time>
      </trkpt>
      <trkpt lat="47.73138" lon="2.2048135">
        <ele>165.0</ele>
        <time>2022-01-13T08:40:25Z</time>
      </trkpt>
      <trkpt lat="47.731388" lon="2.2048051">
        <ele>165.0</ele>
        <time>2022-01-13T08:40:26Z</time>
      </trkpt>
      <trkpt lat="47.731388" lon="2.2048051">
        <ele>165.0</ele>
        <time>2022-01-13T08:40:27Z</time>
      </trkpt>
      <trkpt lat="47.731388" lon="2.2048051">
        <ele>165.0</ele>
        <time>2022-01-13T08:40:28Z</time>
      </trkpt>
      <trkpt lat="47.73141" lon="2.2047794">
        <ele>166.0</ele>
        <time>2022-01-13T08:40:29Z</time>
      </trkpt>
      <trkpt lat="47.731422" lon="2.2047708">
        <ele>165.0</ele>
        <time>2022-01-13T08:40:30Z</time>
      </trkpt>
      <trkpt lat="47.73143" lon="2.2047663">
        <ele>165.0</ele>
        <time>2022-01-13T08:40:31Z</time>
      </trkpt>
      <trkpt lat="47.731438" lon="2.2047548">
        <ele>165.0</ele>
        <time>2022-01-13T08:40:32Z</time>
      </trkpt>
      <trkpt lat="47.73145" lon="2.2047465">
        <ele>164.0</ele>
        <time>2022-01-13T08:40:33Z</time>
      </trkpt>
      <trkpt lat="47.731457" lon="2.2047338">
        <ele>165.0</ele>
        <time>2022-01-13T08:40:34Z</time>
      </trkpt>
      <trkpt lat="47.73147" lon="2.2047262">
        <ele>165.0</ele>
        <time>2022-01-13T08:40:35Z</time>
      </trkpt>
      <trkpt lat="47.731472" lon="2.204717">
        <ele>165.0</ele>
        <time>2022-01-13T08:40:36Z</time>
      </trkpt>
      <trkpt lat="47.731476" lon="2.2047021">
        <ele>165.0</ele>
        <time>2022-01-13T08:40:37Z</time>
      </trkpt>
      <trkpt lat="47.731476" lon="2.2047021">
        <ele>165.0</ele>
        <time>2022-01-13T08:40:38Z</time>
      </trkpt>
      <trkpt lat="47.731476" lon="2.2047021">
        <ele>165.0</ele>
        <time>2022-01-13T08:40:39Z</time>
      </trkpt>
      <trkpt lat="47.73149" lon="2.2046766">
        <ele>166.0</ele>
        <time>2022-01-13T08:40:40Z</time>
      </trkpt>
      <trkpt lat="47.7315" lon="2.2046652">
        <ele>166.0</ele>
        <time>2022-01-13T08:40:41Z</time>
      </trkpt>
      <trkpt lat="47.731506" lon="2.2046497">
        <ele>166.0</ele>
        <time>2022-01-13T08:40:42Z</time>
      </trkpt>
      <trkpt lat="47.731514" lon="2.2046373">
        <ele>166.0</ele>
        <time>2022-01-13T08:40:43Z</time>
      </trkpt>
      <trkpt lat="47.731525" lon="2.2046177">
        <ele>166.0</ele>
        <time>2022-01-13T08:40:44Z</time>
      </trkpt>
      <trkpt lat="47.731533" lon="2.2045956">
        <ele>167.0</ele>
        <time>2022-01-13T08:40:45Z</time>
      </trkpt>
      <trkpt lat="47.731537" lon="2.204567">
        <ele>167.0</ele>
        <time>2022-01-13T08:40:46Z</time>
      </trkpt>
      <trkpt lat="47.731544" lon="2.2045498">
        <ele>167.0</ele>
        <time>2022-01-13T08:40:47Z</time>
      </trkpt>
      <trkpt lat="47.731552" lon="2.2045338">
        <ele>168.0</ele>
        <time>2022-01-13T08:40:48Z</time>
      </trkpt>
      <trkpt lat="47.73156" lon="2.2045252">
        <ele>168.0</ele>
        <time>2022-01-13T08:40:49Z</time>
      </trkpt>
      <trkpt lat="47.73156" lon="2.2045252">
        <ele>168.0</ele>
        <time>2022-01-13T08:40:50Z</time>
      </trkpt>
      <trkpt lat="47.73156" lon="2.2045252">
        <ele>168.0</ele>
        <time>2022-01-13T08:40:51Z</time>
      </trkpt>
      <trkpt lat="47.73158" lon="2.2044964">
        <ele>168.0</ele>
        <time>2022-01-13T08:40:52Z</time>
      </trkpt>
      <trkpt lat="47.731586" lon="2.2044833">
        <ele>168.0</ele>
        <time>2022-01-13T08:40:53Z</time>
      </trkpt>
      <trkpt lat="47.73159" lon="2.2044728">
        <ele>169.0</ele>
        <time>2022-01-13T08:40:54Z</time>
      </trkpt>
      <trkpt lat="47.73159" lon="2.2044613">
        <ele>170.0</ele>
        <time>2022-01-13T08:40:55Z</time>
      </trkpt>
      <trkpt lat="47.73159" lon="2.2044613">
        <ele>170.0</ele>
        <time>2022-01-13T08:40:56Z</time>
      </trkpt>
      <trkpt lat="47.73159" lon="2.2044613">
        <ele>170.0</ele>
        <time>2022-01-13T08:40:57Z</time>
      </trkpt>
      <trkpt lat="47.73161" lon="2.2044313">
        <ele>170.0</ele>
        <time>2022-01-13T08:40:58Z</time>
      </trkpt>
      <trkpt lat="47.731625" lon="2.2044156">
        <ele>170.0</ele>
        <time>2022-01-13T08:40:59Z</time>
      </trkpt>
      <trkpt lat="47.731632" lon="2.2044032">
        <ele>170.0</ele>
        <time>2022-01-13T08:41:00Z</time>
      </trkpt>
      <trkpt lat="47.73164" lon="2.20439">
        <ele>170.0</ele>
        <time>2022-01-13T08:41:01Z</time>
      </trkpt>
      <trkpt lat="47.73165" lon="2.204376">
        <ele>170.0</ele>
        <time>2022-01-13T08:41:02Z</time>
      </trkpt>
      <trkpt lat="47.73166" lon="2.2043617">
        <ele>170.0</ele>
        <time>2022-01-13T08:41:03Z</time>
      </trkpt>
      <trkpt lat="47.731674" lon="2.204348">
        <ele>170.0</ele>
        <time>2022-01-13T08:41:04Z</time>
      </trkpt>
      <trkpt lat="47.731686" lon="2.2043362">
        <ele>170.0</ele>
        <time>2022-01-13T08:41:05Z</time>
      </trkpt>
      <trkpt lat="47.731697" lon="2.2043247">
        <ele>170.0</ele>
        <time>2022-01-13T08:41:06Z</time>
      </trkpt>
      <trkpt lat="47.73171" lon="2.2043114">
        <ele>170.0</ele>
        <time>2022-01-13T08:41:07Z</time>
      </trkpt>
      <trkpt lat="47.731724" lon="2.204299">
        <ele>170.0</ele>
        <time>2022-01-13T08:41:08Z</time>
      </trkpt>
      <trkpt lat="47.73174" lon="2.2042856">
        <ele>170.0</ele>
        <time>2022-01-13T08:41:09Z</time>
      </trkpt>
      <trkpt lat="47.73175" lon="2.2042766">
        <ele>170.0</ele>
        <time>2022-01-13T08:41:10Z</time>
      </trkpt>
      <trkpt lat="47.731762" lon="2.2042637">
        <ele>170.0</ele>
        <time>2022-01-13T08:41:11Z</time>
      </trkpt>
      <trkpt lat="47.731773" lon="2.2042463">
        <ele>170.0</ele>
        <time>2022-01-13T08:41:12Z</time>
      </trkpt>
      <trkpt lat="47.731785" lon="2.204234">
        <ele>170.0</ele>
        <time>2022-01-13T08:41:13Z</time>
      </trkpt>
      <trkpt lat="47.731792" lon="2.2042196">
        <ele>170.0</ele>
        <time>2022-01-13T08:41:14Z</time>
      </trkpt>
      <trkpt lat="47.731796" lon="2.2042053">
        <ele>170.0</ele>
        <time>2022-01-13T08:41:15Z</time>
      </trkpt>
      <trkpt lat="47.731804" lon="2.2041907">
        <ele>170.0</ele>
        <time>2022-01-13T08:41:16Z</time>
      </trkpt>
      <trkpt lat="47.731815" lon="2.204183">
        <ele>170.0</ele>
        <time>2022-01-13T08:41:17Z</time>
      </trkpt>
      <trkpt lat="47.731827" lon="2.204177">
        <ele>170.0</ele>
        <time>2022-01-13T08:41:18Z</time>
      </trkpt>
      <trkpt lat="47.731834" lon="2.2041726">
        <ele>170.0</ele>
        <time>2022-01-13T08:41:19Z</time>
      </trkpt>
      <trkpt lat="47.731846" lon="2.2041688">
        <ele>170.0</ele>
        <time>2022-01-13T08:41:20Z</time>
      </trkpt>
      <trkpt lat="47.731846" lon="2.2041688">
        <ele>170.0</ele>
        <time>2022-01-13T08:41:21Z</time>
      </trkpt>
      <trkpt lat="47.731853" lon="2.2041602">
        <ele>169.0</ele>
        <time>2022-01-13T08:41:22Z</time>
      </trkpt>
      <trkpt lat="47.731865" lon="2.2041476">
        <ele>169.0</ele>
        <time>2022-01-13T08:41:23Z</time>
      </trkpt>
      <trkpt lat="47.731876" lon="2.20413">
        <ele>168.0</ele>
        <time>2022-01-13T08:41:24Z</time>
      </trkpt>
      <trkpt lat="47.731888" lon="2.2041147">
        <ele>168.0</ele>
        <time>2022-01-13T08:41:25Z</time>
      </trkpt>
      <trkpt lat="47.7319" lon="2.204105">
        <ele>167.0</ele>
        <time>2022-01-13T08:41:26Z</time>
      </trkpt>
      <trkpt lat="47.731907" lon="2.2040968">
        <ele>168.0</ele>
        <time>2022-01-13T08:41:27Z</time>
      </trkpt>
      <trkpt lat="47.73191" lon="2.2040904">
        <ele>167.0</ele>
        <time>2022-01-13T08:41:28Z</time>
      </trkpt>
      <trkpt lat="47.731922" lon="2.2040813">
        <ele>167.0</ele>
        <time>2022-01-13T08:41:29Z</time>
      </trkpt>
      <trkpt lat="47.73193" lon="2.2040646">
        <ele>167.0</ele>
        <time>2022-01-13T08:41:30Z</time>
      </trkpt>
      <trkpt lat="47.73194" lon="2.2040515">
        <ele>167.0</ele>
        <time>2022-01-13T08:41:31Z</time>
      </trkpt>
      <trkpt lat="47.731953" lon="2.2040381">
        <ele>167.0</ele>
        <time>2022-01-13T08:41:32Z</time>
      </trkpt>
      <trkpt lat="47.731964" lon="2.2040288">
        <ele>166.0</ele>
        <time>2022-01-13T08:41:33Z</time>
      </trkpt>
      <trkpt lat="47.731976" lon="2.2040145">
        <ele>167.0</ele>
        <time>2022-01-13T08:41:34Z</time>
      </trkpt>
      <trkpt lat="47.731983" lon="2.2040048">
        <ele>167.0</ele>
        <time>2022-01-13T08:41:35Z</time>
      </trkpt>
      <trkpt lat="47.73199" lon="2.203999">
        <ele>167.0</ele>
        <time>2022-01-13T08:41:36Z</time>
      </trkpt>
      <trkpt lat="47.732002" lon="2.2039921">
        <ele>167.0</ele>
        <time>2022-01-13T08:41:37Z</time>
      </trkpt>
      <trkpt lat="47.732006" lon="2.2039864">
        <ele>167.0</ele>
        <time>2022-01-13T08:41:38Z</time>
      </trkpt>
      <trkpt lat="47.732014" lon="2.2039747">
        <ele>167.0</ele>
        <time>2022-01-13T08:41:39Z</time>
      </trkpt>
      <trkpt lat="47.732018" lon="2.2039585">
        <ele>167.0</ele>
        <time>2022-01-13T08:41:40Z</time>
      </trkpt>
      <trkpt lat="47.732025" lon="2.2039378">
        <ele>166.0</ele>
        <time>2022-01-13T08:41:41Z</time>
      </trkpt>
      <trkpt lat="47.732033" lon="2.2039196">
        <ele>166.0</ele>
        <time>2022-01-13T08:41:42Z</time>
      </trkpt>
      <trkpt lat="47.732044" lon="2.2039015">
        <ele>166.0</ele>
        <time>2022-01-13T08:41:43Z</time>
      </trkpt>
      <trkpt lat="47.73205" lon="2.2038882">
        <ele>166.0</ele>
        <time>2022-01-13T08:41:44Z</time>
      </trkpt>
      <trkpt lat="47.73205" lon="2.2038724">
        <ele>166.0</ele>
        <time>2022-01-13T08:41:45Z</time>
      </trkpt>
      <trkpt lat="47.732056" lon="2.203855">
        <ele>166.0</ele>
        <time>2022-01-13T08:41:46Z</time>
      </trkpt>
      <trkpt lat="47.73206" lon="2.203839">
        <ele>166.0</ele>
        <time>2022-01-13T08:41:47Z</time>
      </trkpt>
      <trkpt lat="47.732063" lon="2.2038248">
        <ele>166.0</ele>
        <time>2022-01-13T08:41:48Z</time>
      </trkpt>
      <trkpt lat="47.732063" lon="2.203807">
        <ele>166.0</ele>
        <time>2022-01-13T08:41:49Z</time>
      </trkpt>
      <trkpt lat="47.732067" lon="2.2037938">
        <ele>167.0</ele>
        <time>2022-01-13T08:41:50Z</time>
      </trkpt>
      <trkpt lat="47.732067" lon="2.2037764">
        <ele>167.0</ele>
        <time>2022-01-13T08:41:51Z</time>
      </trkpt>
      <trkpt lat="47.73207" lon="2.2037568">
        <ele>166.0</ele>
        <time>2022-01-13T08:41:52Z</time>
      </trkpt>
      <trkpt lat="47.73207" lon="2.203737">
        <ele>166.0</ele>
        <time>2022-01-13T08:41:53Z</time>
      </trkpt>
      <trkpt lat="47.73207" lon="2.2037182">
        <ele>166.0</ele>
        <time>2022-01-13T08:41:54Z</time>
      </trkpt>
      <trkpt lat="47.73207" lon="2.2037">
        <ele>166.0</ele>
        <time>2022-01-13T08:41:55Z</time>
      </trkpt>
      <trkpt lat="47.73207" lon="2.2036817">
        <ele>166.0</ele>
        <time>2022-01-13T08:41:56Z</time>
      </trkpt>
      <trkpt lat="47.732067" lon="2.2036645">
        <ele>166.0</ele>
        <time>2022-01-13T08:41:57Z</time>
      </trkpt>
      <trkpt lat="47.732063" lon="2.2036426">
        <ele>166.0</ele>
        <time>2022-01-13T08:41:58Z</time>
      </trkpt>
      <trkpt lat="47.73206" lon="2.2036192">
        <ele>165.0</ele>
        <time>2022-01-13T08:41:59Z</time>
      </trkpt>
      <trkpt lat="47.73206" lon="2.203596">
        <ele>165.0</ele>
        <time>2022-01-13T08:42:00Z</time>
      </trkpt>
      <trkpt lat="47.73205" lon="2.203565">
        <ele>165.0</ele>
        <time>2022-01-13T08:42:01Z</time>
      </trkpt>
      <trkpt lat="47.732048" lon="2.2035375">
        <ele>164.0</ele>
        <time>2022-01-13T08:42:02Z</time>
      </trkpt>
      <trkpt lat="47.73204" lon="2.203517">
        <ele>164.0</ele>
        <time>2022-01-13T08:42:03Z</time>
      </trkpt>
      <trkpt lat="47.732037" lon="2.203498">
        <ele>164.0</ele>
        <time>2022-01-13T08:42:04Z</time>
      </trkpt>
      <trkpt lat="47.732033" lon="2.2034767">
        <ele>164.0</ele>
        <time>2022-01-13T08:42:05Z</time>
      </trkpt>
      <trkpt lat="47.732033" lon="2.2034574">
        <ele>163.0</ele>
        <time>2022-01-13T08:42:06Z</time>
      </trkpt>
      <trkpt lat="47.73203" lon="2.2034388">
        <ele>163.0</ele>
        <time>2022-01-13T08:42:07Z</time>
      </trkpt>
      <trkpt lat="47.732018" lon="2.2034185">
        <ele>163.0</ele>
        <time>2022-01-13T08:42:08Z</time>
      </trkpt>
      <trkpt lat="47.732018" lon="2.2034004">
        <ele>164.0</ele>
        <time>2022-01-13T08:42:09Z</time>
      </trkpt>
      <trkpt lat="47.73201" lon="2.2033827">
        <ele>164.0</ele>
        <time>2022-01-13T08:42:10Z</time>
      </trkpt>
      <trkpt lat="47.732002" lon="2.2033596">
        <ele>164.0</ele>
        <time>2022-01-13T08:42:11Z</time>
      </trkpt>
      <trkpt lat="47.732" lon="2.2033417">
        <ele>165.0</ele>
        <time>2022-01-13T08:42:12Z</time>
      </trkpt>
      <trkpt lat="47.731995" lon="2.2033184">
        <ele>165.0</ele>
        <time>2022-01-13T08:42:13Z</time>
      </trkpt>
      <trkpt lat="47.731995" lon="2.2032976">
        <ele>166.0</ele>
        <time>2022-01-13T08:42:14Z</time>
      </trkpt>
      <trkpt lat="47.732" lon="2.2032793">
        <ele>166.0</ele>
        <time>2022-01-13T08:42:15Z</time>
      </trkpt>
      <trkpt lat="47.732" lon="2.2032597">
        <ele>167.0</ele>
        <time>2022-01-13T08:42:16Z</time>
      </trkpt>
      <trkpt lat="47.731995" lon="2.2032459">
        <ele>166.0</ele>
        <time>2022-01-13T08:42:17Z</time>
      </trkpt>
      <trkpt lat="47.731995" lon="2.2032347">
        <ele>166.0</ele>
        <time>2022-01-13T08:42:18Z</time>
      </trkpt>
      <trkpt lat="47.73199" lon="2.2032197">
        <ele>167.0</ele>
        <time>2022-01-13T08:42:19Z</time>
      </trkpt>
      <trkpt lat="47.731983" lon="2.2032073">
        <ele>167.0</ele>
        <time>2022-01-13T08:42:20Z</time>
      </trkpt>
      <trkpt lat="47.73198" lon="2.203191">
        <ele>167.0</ele>
        <time>2022-01-13T08:42:21Z</time>
      </trkpt>
      <trkpt lat="47.731976" lon="2.2031717">
        <ele>167.0</ele>
        <time>2022-01-13T08:42:22Z</time>
      </trkpt>
      <trkpt lat="47.73197" lon="2.2031507">
        <ele>168.0</ele>
        <time>2022-01-13T08:42:23Z</time>
      </trkpt>
      <trkpt lat="47.731964" lon="2.203136">
        <ele>169.0</ele>
        <time>2022-01-13T08:42:24Z</time>
      </trkpt>
      <trkpt lat="47.731956" lon="2.2031257">
        <ele>169.0</ele>
        <time>2022-01-13T08:42:25Z</time>
      </trkpt>
      <trkpt lat="47.73195" lon="2.2031116">
        <ele>169.0</ele>
        <time>2022-01-13T08:42:26Z</time>
      </trkpt>
      <trkpt lat="47.731937" lon="2.203096">
        <ele>168.0</ele>
        <time>2022-01-13T08:42:27Z</time>
      </trkpt>
      <trkpt lat="47.73193" lon="2.2030802">
        <ele>168.0</ele>
        <time>2022-01-13T08:42:28Z</time>
      </trkpt>
      <trkpt lat="47.731926" lon="2.203062">
        <ele>168.0</ele>
        <time>2022-01-13T08:42:29Z</time>
      </trkpt>
      <trkpt lat="47.73192" lon="2.2030456">
        <ele>169.0</ele>
        <time>2022-01-13T08:42:30Z</time>
      </trkpt>
      <trkpt lat="47.73191" lon="2.2030249">
        <ele>169.0</ele>
        <time>2022-01-13T08:42:31Z</time>
      </trkpt>
      <trkpt lat="47.731903" lon="2.2030087">
        <ele>170.0</ele>
        <time>2022-01-13T08:42:32Z</time>
      </trkpt>
      <trkpt lat="47.7319" lon="2.2029896">
        <ele>170.0</ele>
        <time>2022-01-13T08:42:33Z</time>
      </trkpt>
      <trkpt lat="47.73189" lon="2.2029746">
        <ele>171.0</ele>
        <time>2022-01-13T08:42:34Z</time>
      </trkpt>
      <trkpt lat="47.731884" lon="2.2029598">
        <ele>171.0</ele>
        <time>2022-01-13T08:42:35Z</time>
      </trkpt>
      <trkpt lat="47.73188" lon="2.2029474">
        <ele>172.0</ele>
        <time>2022-01-13T08:42:36Z</time>
      </trkpt>
      <trkpt lat="47.731876" lon="2.202938">
        <ele>171.0</ele>
        <time>2022-01-13T08:42:37Z</time>
      </trkpt>
      <trkpt lat="47.731873" lon="2.202926">
        <ele>171.0</ele>
        <time>2022-01-13T08:42:38Z</time>
      </trkpt>
      <trkpt lat="47.73187" lon="2.2029123">
        <ele>171.0</ele>
        <time>2022-01-13T08:42:39Z</time>
      </trkpt>
      <trkpt lat="47.73187" lon="2.2029004">
        <ele>171.0</ele>
        <time>2022-01-13T08:42:40Z</time>
      </trkpt>
      <trkpt lat="47.731865" lon="2.202884">
        <ele>170.0</ele>
        <time>2022-01-13T08:42:41Z</time>
      </trkpt>
      <trkpt lat="47.73186" lon="2.202863">
        <ele>170.0</ele>
        <time>2022-01-13T08:42:42Z</time>
      </trkpt>
      <trkpt lat="47.731857" lon="2.20284">
        <ele>170.0</ele>
        <time>2022-01-13T08:42:43Z</time>
      </trkpt>
      <trkpt lat="47.731853" lon="2.2028174">
        <ele>170.0</ele>
        <time>2022-01-13T08:42:44Z</time>
      </trkpt>
      <trkpt lat="47.731842" lon="2.202799">
        <ele>170.0</ele>
        <time>2022-01-13T08:42:45Z</time>
      </trkpt>
      <trkpt lat="47.73183" lon="2.20278">
        <ele>170.0</ele>
        <time>2022-01-13T08:42:46Z</time>
      </trkpt>
      <trkpt lat="47.731827" lon="2.2027652">
        <ele>169.0</ele>
        <time>2022-01-13T08:42:47Z</time>
      </trkpt>
      <trkpt lat="47.73182" lon="2.2027462">
        <ele>169.0</ele>
        <time>2022-01-13T08:42:48Z</time>
      </trkpt>
      <trkpt lat="47.731815" lon="2.2027273">
        <ele>169.0</ele>
        <time>2022-01-13T08:42:49Z</time>
      </trkpt>
      <trkpt lat="47.73181" lon="2.2027116">
        <ele>169.0</ele>
        <time>2022-01-13T08:42:50Z</time>
      </trkpt>
      <trkpt lat="47.731808" lon="2.2026968">
        <ele>169.0</ele>
        <time>2022-01-13T08:42:51Z</time>
      </trkpt>
      <trkpt lat="47.731804" lon="2.2026784">
        <ele>169.0</ele>
        <time>2022-01-13T08:42:52Z</time>
      </trkpt>
      <trkpt lat="47.731804" lon="2.202659">
        <ele>169.0</ele>
        <time>2022-01-13T08:42:53Z</time>
      </trkpt>
      <trkpt lat="47.7318" lon="2.202643">
        <ele>169.0</ele>
        <time>2022-01-13T08:42:54Z</time>
      </trkpt>
      <trkpt lat="47.7318" lon="2.2026215">
        <ele>169.0</ele>
        <time>2022-01-13T08:42:55Z</time>
      </trkpt>
      <trkpt lat="47.731796" lon="2.2026036">
        <ele>169.0</ele>
        <time>2022-01-13T08:42:56Z</time>
      </trkpt>
      <trkpt lat="47.731796" lon="2.202585">
        <ele>169.0</ele>
        <time>2022-01-13T08:42:57Z</time>
      </trkpt>
      <trkpt lat="47.731792" lon="2.20257">
        <ele>168.0</ele>
        <time>2022-01-13T08:42:58Z</time>
      </trkpt>
      <trkpt lat="47.731792" lon="2.202552">
        <ele>168.0</ele>
        <time>2022-01-13T08:42:59Z</time>
      </trkpt>
      <trkpt lat="47.73179" lon="2.2025378">
        <ele>168.0</ele>
        <time>2022-01-13T08:43:00Z</time>
      </trkpt>
      <trkpt lat="47.731785" lon="2.202516">
        <ele>168.0</ele>
        <time>2022-01-13T08:43:01Z</time>
      </trkpt>
      <trkpt lat="47.731785" lon="2.2024984">
        <ele>167.0</ele>
        <time>2022-01-13T08:43:02Z</time>
      </trkpt>
      <trkpt lat="47.73178" lon="2.2024834">
        <ele>167.0</ele>
        <time>2022-01-13T08:43:03Z</time>
      </trkpt>
      <trkpt lat="47.731777" lon="2.2024684">
        <ele>167.0</ele>
        <time>2022-01-13T08:43:04Z</time>
      </trkpt>
      <trkpt lat="47.731773" lon="2.20245">
        <ele>167.0</ele>
        <time>2022-01-13T08:43:05Z</time>
      </trkpt>
      <trkpt lat="47.73178" lon="2.2024348">
        <ele>167.0</ele>
        <time>2022-01-13T08:43:06Z</time>
      </trkpt>
      <trkpt lat="47.731792" lon="2.2024257">
        <ele>167.0</ele>
        <time>2022-01-13T08:43:07Z</time>
      </trkpt>
      <trkpt lat="47.731796" lon="2.202417">
        <ele>167.0</ele>
        <time>2022-01-13T08:43:08Z</time>
      </trkpt>
      <trkpt lat="47.731804" lon="2.2024045">
        <ele>167.0</ele>
        <time>2022-01-13T08:43:09Z</time>
      </trkpt>
      <trkpt lat="47.731808" lon="2.2023885">
        <ele>167.0</ele>
        <time>2022-01-13T08:43:10Z</time>
      </trkpt>
      <trkpt lat="47.73182" lon="2.2023773">
        <ele>167.0</ele>
        <time>2022-01-13T08:43:11Z</time>
      </trkpt>
      <trkpt lat="47.731827" lon="2.2023664">
        <ele>167.0</ele>
        <time>2022-01-13T08:43:12Z</time>
      </trkpt>
      <trkpt lat="47.731834" lon="2.2023566">
        <ele>167.0</ele>
        <time>2022-01-13T08:43:13Z</time>
      </trkpt>
      <trkpt lat="47.731846" lon="2.202353">
        <ele>167.0</ele>
        <time>2022-01-13T08:43:14Z</time>
      </trkpt>
      <trkpt lat="47.73185" lon="2.2023518">
        <ele>167.0</ele>
        <time>2022-01-13T08:43:15Z</time>
      </trkpt>
      <trkpt lat="47.73185" lon="2.2023485">
        <ele>168.0</ele>
        <time>2022-01-13T08:43:16Z</time>
      </trkpt>
      <trkpt lat="47.731857" lon="2.202343">
        <ele>168.0</ele>
        <time>2022-01-13T08:43:17Z</time>
      </trkpt>
      <trkpt lat="47.731865" lon="2.2023454">
        <ele>168.0</ele>
        <time>2022-01-13T08:43:18Z</time>
      </trkpt>
      <trkpt lat="47.73187" lon="2.2023416">
        <ele>168.0</ele>
        <time>2022-01-13T08:43:19Z</time>
      </trkpt>
      <trkpt lat="47.73188" lon="2.202336">
        <ele>168.0</ele>
        <time>2022-01-13T08:43:20Z</time>
      </trkpt>
      <trkpt lat="47.731888" lon="2.202333">
        <ele>169.0</ele>
        <time>2022-01-13T08:43:21Z</time>
      </trkpt>
      <trkpt lat="47.731895" lon="2.2023282">
        <ele>169.0</ele>
        <time>2022-01-13T08:43:22Z</time>
      </trkpt>
      <trkpt lat="47.731903" lon="2.2023232">
        <ele>169.0</ele>
        <time>2022-01-13T08:43:23Z</time>
      </trkpt>
      <trkpt lat="47.731915" lon="2.2023194">
        <ele>169.0</ele>
        <time>2022-01-13T08:43:24Z</time>
      </trkpt>
      <trkpt lat="47.731926" lon="2.2023137">
        <ele>169.0</ele>
        <time>2022-01-13T08:43:25Z</time>
      </trkpt>
      <trkpt lat="47.731937" lon="2.2023048">
        <ele>169.0</ele>
        <time>2022-01-13T08:43:26Z</time>
      </trkpt>
      <trkpt lat="47.731945" lon="2.2023034">
        <ele>169.0</ele>
        <time>2022-01-13T08:43:27Z</time>
      </trkpt>
      <trkpt lat="47.731956" lon="2.2023036">
        <ele>169.0</ele>
        <time>2022-01-13T08:43:28Z</time>
      </trkpt>
      <trkpt lat="47.731968" lon="2.202301">
        <ele>170.0</ele>
        <time>2022-01-13T08:43:29Z</time>
      </trkpt>
      <trkpt lat="47.73198" lon="2.2022943">
        <ele>170.0</ele>
        <time>2022-01-13T08:43:30Z</time>
      </trkpt>
      <trkpt lat="47.731987" lon="2.2022853">
        <ele>170.0</ele>
        <time>2022-01-13T08:43:31Z</time>
      </trkpt>
      <trkpt lat="47.731995" lon="2.2022805">
        <ele>170.0</ele>
        <time>2022-01-13T08:43:32Z</time>
      </trkpt>
      <trkpt lat="47.732002" lon="2.2022731">
        <ele>170.0</ele>
        <time>2022-01-13T08:43:33Z</time>
      </trkpt>
      <trkpt lat="47.73201" lon="2.2022681">
        <ele>170.0</ele>
        <time>2022-01-13T08:43:34Z</time>
      </trkpt>
      <trkpt lat="47.732018" lon="2.2022603">
        <ele>170.0</ele>
        <time>2022-01-13T08:43:35Z</time>
      </trkpt>
      <trkpt lat="47.73203" lon="2.202254">
        <ele>170.0</ele>
        <time>2022-01-13T08:43:36Z</time>
      </trkpt>
      <trkpt lat="47.73203" lon="2.202254">
        <ele>170.0</ele>
        <time>2022-01-13T08:43:37Z</time>
      </trkpt>
      <trkpt lat="47.73203" lon="2.202254">
        <ele>170.0</ele>
        <time>2022-01-13T08:43:38Z</time>
      </trkpt>
      <trkpt lat="47.732048" lon="2.2022371">
        <ele>170.0</ele>
        <time>2022-01-13T08:43:39Z</time>
      </trkpt>
      <trkpt lat="47.73205" lon="2.2022333">
        <ele>170.0</ele>
        <time>2022-01-13T08:43:40Z</time>
      </trkpt>
      <trkpt lat="47.73206" lon="2.2022302">
        <ele>170.0</ele>
        <time>2022-01-13T08:43:41Z</time>
      </trkpt>
      <trkpt lat="47.732075" lon="2.2022262">
        <ele>170.0</ele>
        <time>2022-01-13T08:43:42Z</time>
      </trkpt>
      <trkpt lat="47.732086" lon="2.2022195">
        <ele>170.0</ele>
        <time>2022-01-13T08:43:43Z</time>
      </trkpt>
      <trkpt lat="47.732098" lon="2.202213">
        <ele>170.0</ele>
        <time>2022-01-13T08:43:44Z</time>
      </trkpt>
      <trkpt lat="47.73211" lon="2.2022035">
        <ele>171.0</ele>
        <time>2022-01-13T08:43:45Z</time>
      </trkpt>
      <trkpt lat="47.732117" lon="2.2021966">
        <ele>170.0</ele>
        <time>2022-01-13T08:43:46Z</time>
      </trkpt>
      <trkpt lat="47.73213" lon="2.202196">
        <ele>170.0</ele>
        <time>2022-01-13T08:43:47Z</time>
      </trkpt>
      <trkpt lat="47.73214" lon="2.2021904">
        <ele>170.0</ele>
        <time>2022-01-13T08:43:48Z</time>
      </trkpt>
      <trkpt lat="47.73215" lon="2.2021823">
        <ele>170.0</ele>
        <time>2022-01-13T08:43:49Z</time>
      </trkpt>
      <trkpt lat="47.73216" lon="2.202179">
        <ele>170.0</ele>
        <time>2022-01-13T08:43:50Z</time>
      </trkpt>
      <trkpt lat="47.73216" lon="2.202179">
        <ele>170.0</ele>
        <time>2022-01-13T08:43:51Z</time>
      </trkpt>
      <trkpt lat="47.73216" lon="2.202179">
        <ele>170.0</ele>
        <time>2022-01-13T08:43:52Z</time>
      </trkpt>
      <trkpt lat="47.73219" lon="2.2021713">
        <ele>170.0</ele>
        <time>2022-01-13T08:43:53Z</time>
      </trkpt>
      <trkpt lat="47.732204" lon="2.2021704">
        <ele>170.0</ele>
        <time>2022-01-13T08:43:54Z</time>
      </trkpt>
      <trkpt lat="47.732212" lon="2.2021654">
        <ele>170.0</ele>
        <time>2022-01-13T08:43:55Z</time>
      </trkpt>
      <trkpt lat="47.732224" lon="2.2021608">
        <ele>170.0</ele>
        <time>2022-01-13T08:43:56Z</time>
      </trkpt>
      <trkpt lat="47.732224" lon="2.2021608">
        <ele>170.0</ele>
        <time>2022-01-13T08:43:57Z</time>
      </trkpt>
      <trkpt lat="47.732224" lon="2.2021608">
        <ele>170.0</ele>
        <time>2022-01-13T08:43:58Z</time>
      </trkpt>
      <trkpt lat="47.73225" lon="2.2021475">
        <ele>171.0</ele>
        <time>2022-01-13T08:43:59Z</time>
      </trkpt>
      <trkpt lat="47.732258" lon="2.2021384">
        <ele>171.0</ele>
        <time>2022-01-13T08:44:00Z</time>
      </trkpt>
      <trkpt lat="47.73227" lon="2.2021334">
        <ele>171.0</ele>
        <time>2022-01-13T08:44:01Z</time>
      </trkpt>
      <trkpt lat="47.732277" lon="2.2021282">
        <ele>171.0</ele>
        <time>2022-01-13T08:44:02Z</time>
      </trkpt>
      <trkpt lat="47.732277" lon="2.2021282">
        <ele>171.0</ele>
        <time>2022-01-13T08:44:03Z</time>
      </trkpt>
      <trkpt lat="47.732277" lon="2.2021282">
        <ele>171.0</ele>
        <time>2022-01-13T08:44:04Z</time>
      </trkpt>
      <trkpt lat="47.732304" lon="2.2021139">
        <ele>171.0</ele>
        <time>2022-01-13T08:44:05Z</time>
      </trkpt>
      <trkpt lat="47.732315" lon="2.202102">
        <ele>171.0</ele>
        <time>2022-01-13T08:44:06Z</time>
      </trkpt>
      <trkpt lat="47.732327" lon="2.2020986">
        <ele>170.0</ele>
        <time>2022-01-13T08:44:07Z</time>
      </trkpt>
      <trkpt lat="47.732338" lon="2.20209">
        <ele>171.0</ele>
        <time>2022-01-13T08:44:08Z</time>
      </trkpt>
      <trkpt lat="47.73235" lon="2.2020879">
        <ele>170.0</ele>
        <time>2022-01-13T08:44:09Z</time>
      </trkpt>
      <trkpt lat="47.732353" lon="2.2020884">
        <ele>170.0</ele>
        <time>2022-01-13T08:44:10Z</time>
      </trkpt>
      <trkpt lat="47.732365" lon="2.2020826">
        <ele>170.0</ele>
        <time>2022-01-13T08:44:11Z</time>
      </trkpt>
      <trkpt lat="47.732365" lon="2.2020826">
        <ele>170.0</ele>
        <time>2022-01-13T08:44:12Z</time>
      </trkpt>
      <trkpt lat="47.732365" lon="2.2020826">
        <ele>170.0</ele>
        <time>2022-01-13T08:44:13Z</time>
      </trkpt>
      <trkpt lat="47.73239" lon="2.2020717">
        <ele>170.0</ele>
        <time>2022-01-13T08:44:14Z</time>
      </trkpt>
      <trkpt lat="47.732403" lon="2.2020648">
        <ele>170.0</ele>
        <time>2022-01-13T08:44:15Z</time>
      </trkpt>
      <trkpt lat="47.732414" lon="2.2020605">
        <ele>170.0</ele>
        <time>2022-01-13T08:44:16Z</time>
      </trkpt>
      <trkpt lat="47.732426" lon="2.2020555">
        <ele>169.0</ele>
        <time>2022-01-13T08:44:17Z</time>
      </trkpt>
      <trkpt lat="47.732437" lon="2.2020457">
        <ele>170.0</ele>
        <time>2022-01-13T08:44:18Z</time>
      </trkpt>
      <trkpt lat="47.732445" lon="2.2020378">
        <ele>170.0</ele>
        <time>2022-01-13T08:44:19Z</time>
      </trkpt>
      <trkpt lat="47.73245" lon="2.202029">
        <ele>170.0</ele>
        <time>2022-01-13T08:44:20Z</time>
      </trkpt>
      <trkpt lat="47.732456" lon="2.2020214">
        <ele>169.0</ele>
        <time>2022-01-13T08:44:21Z</time>
      </trkpt>
      <trkpt lat="47.732464" lon="2.2020135">
        <ele>170.0</ele>
        <time>2022-01-13T08:44:22Z</time>
      </trkpt>
      <trkpt lat="47.73248" lon="2.2020042">
        <ele>169.0</ele>
        <time>2022-01-13T08:44:23Z</time>
      </trkpt>
      <trkpt lat="47.732494" lon="2.201991">
        <ele>169.0</ele>
        <time>2022-01-13T08:44:24Z</time>
      </trkpt>
      <trkpt lat="47.732506" lon="2.2019799">
        <ele>169.0</ele>
        <time>2022-01-13T08:44:25Z</time>
      </trkpt>
      <trkpt lat="47.732513" lon="2.2019637">
        <ele>170.0</ele>
        <time>2022-01-13T08:44:26Z</time>
      </trkpt>
      <trkpt lat="47.73252" lon="2.2019486">
        <ele>170.0</ele>
        <time>2022-01-13T08:44:27Z</time>
      </trkpt>
      <trkpt lat="47.732533" lon="2.201936">
        <ele>170.0</ele>
        <time>2022-01-13T08:44:28Z</time>
      </trkpt>
      <trkpt lat="47.732536" lon="2.2019234">
        <ele>170.0</ele>
        <time>2022-01-13T08:44:29Z</time>
      </trkpt>
      <trkpt lat="47.732544" lon="2.201906">
        <ele>170.0</ele>
        <time>2022-01-13T08:44:30Z</time>
      </trkpt>
      <trkpt lat="47.73255" lon="2.2018962">
        <ele>170.0</ele>
        <time>2022-01-13T08:44:31Z</time>
      </trkpt>
      <trkpt lat="47.732567" lon="2.2018867">
        <ele>170.0</ele>
        <time>2022-01-13T08:44:32Z</time>
      </trkpt>
      <trkpt lat="47.732574" lon="2.2018776">
        <ele>169.0</ele>
        <time>2022-01-13T08:44:33Z</time>
      </trkpt>
      <trkpt lat="47.732586" lon="2.2018723">
        <ele>169.0</ele>
        <time>2022-01-13T08:44:34Z</time>
      </trkpt>
      <trkpt lat="47.7326" lon="2.2018669">
        <ele>169.0</ele>
        <time>2022-01-13T08:44:35Z</time>
      </trkpt>
      <trkpt lat="47.732613" lon="2.20186">
        <ele>169.0</ele>
        <time>2022-01-13T08:44:36Z</time>
      </trkpt>
      <trkpt lat="47.732616" lon="2.2018576">
        <ele>169.0</ele>
        <time>2022-01-13T08:44:37Z</time>
      </trkpt>
      <trkpt lat="47.732624" lon="2.201844">
        <ele>169.0</ele>
        <time>2022-01-13T08:44:38Z</time>
      </trkpt>
      <trkpt lat="47.73264" lon="2.2018402">
        <ele>169.0</ele>
        <time>2022-01-13T08:44:39Z</time>
      </trkpt>
      <trkpt lat="47.73265" lon="2.2018318">
        <ele>169.0</ele>
        <time>2022-01-13T08:44:40Z</time>
      </trkpt>
      <trkpt lat="47.73266" lon="2.2018237">
        <ele>169.0</ele>
        <time>2022-01-13T08:44:41Z</time>
      </trkpt>
      <trkpt lat="47.732666" lon="2.2018197">
        <ele>169.0</ele>
        <time>2022-01-13T08:44:42Z</time>
      </trkpt>
      <trkpt lat="47.732674" lon="2.201808">
        <ele>169.0</ele>
        <time>2022-01-13T08:44:43Z</time>
      </trkpt>
      <trkpt lat="47.73268" lon="2.2017915">
        <ele>170.0</ele>
        <time>2022-01-13T08:44:44Z</time>
      </trkpt>
      <trkpt lat="47.732693" lon="2.2017775">
        <ele>170.0</ele>
        <time>2022-01-13T08:44:45Z</time>
      </trkpt>
      <trkpt lat="47.732697" lon="2.2017655">
        <ele>170.0</ele>
        <time>2022-01-13T08:44:46Z</time>
      </trkpt>
      <trkpt lat="47.732704" lon="2.201757">
        <ele>170.0</ele>
        <time>2022-01-13T08:44:47Z</time>
      </trkpt>
      <trkpt lat="47.732708" lon="2.2017443">
        <ele>170.0</ele>
        <time>2022-01-13T08:44:48Z</time>
      </trkpt>
      <trkpt lat="47.732716" lon="2.2017307">
        <ele>170.0</ele>
        <time>2022-01-13T08:44:49Z</time>
      </trkpt>
      <trkpt lat="47.732727" lon="2.2017179">
        <ele>170.0</ele>
        <time>2022-01-13T08:44:50Z</time>
      </trkpt>
      <trkpt lat="47.73274" lon="2.2017083">
        <ele>169.0</ele>
        <time>2022-01-13T08:44:51Z</time>
      </trkpt>
      <trkpt lat="47.732742" lon="2.201691">
        <ele>169.0</ele>
        <time>2022-01-13T08:44:52Z</time>
      </trkpt>
      <trkpt lat="47.73275" lon="2.2016764">
        <ele>169.0</ele>
        <time>2022-01-13T08:44:53Z</time>
      </trkpt>
      <trkpt lat="47.73276" lon="2.2016635">
        <ele>169.0</ele>
        <time>2022-01-13T08:44:54Z</time>
      </trkpt>
      <trkpt lat="47.73277" lon="2.2016513">
        <ele>169.0</ele>
        <time>2022-01-13T08:44:55Z</time>
      </trkpt>
      <trkpt lat="47.73278" lon="2.2016463">
        <ele>169.0</ele>
        <time>2022-01-13T08:44:56Z</time>
      </trkpt>
      <trkpt lat="47.73279" lon="2.201635">
        <ele>169.0</ele>
        <time>2022-01-13T08:44:57Z</time>
      </trkpt>
      <trkpt lat="47.732803" lon="2.201622">
        <ele>169.0</ele>
        <time>2022-01-13T08:44:58Z</time>
      </trkpt>
      <trkpt lat="47.73282" lon="2.2016113">
        <ele>169.0</ele>
        <time>2022-01-13T08:44:59Z</time>
      </trkpt>
      <trkpt lat="47.732838" lon="2.201603">
        <ele>169.0</ele>
        <time>2022-01-13T08:45:00Z</time>
      </trkpt>
      <trkpt lat="47.732845" lon="2.2015886">
        <ele>169.0</ele>
        <time>2022-01-13T08:45:01Z</time>
      </trkpt>
      <trkpt lat="47.73285" lon="2.2015743">
        <ele>169.0</ele>
        <time>2022-01-13T08:45:02Z</time>
      </trkpt>
      <trkpt lat="47.732857" lon="2.2015607">
        <ele>169.0</ele>
        <time>2022-01-13T08:45:03Z</time>
      </trkpt>
      <trkpt lat="47.732872" lon="2.2015467">
        <ele>170.0</ele>
        <time>2022-01-13T08:45:04Z</time>
      </trkpt>
      <trkpt lat="47.732876" lon="2.2015364">
        <ele>170.0</ele>
        <time>2022-01-13T08:45:05Z</time>
      </trkpt>
      <trkpt lat="47.732887" lon="2.201523">
        <ele>170.0</ele>
        <time>2022-01-13T08:45:06Z</time>
      </trkpt>
      <trkpt lat="47.7329" lon="2.2015054">
        <ele>170.0</ele>
        <time>2022-01-13T08:45:07Z</time>
      </trkpt>
      <trkpt lat="47.73291" lon="2.201488">
        <ele>170.0</ele>
        <time>2022-01-13T08:45:08Z</time>
      </trkpt>
      <trkpt lat="47.732914" lon="2.2014754">
        <ele>171.0</ele>
        <time>2022-01-13T08:45:09Z</time>
      </trkpt>
      <trkpt lat="47.732925" lon="2.2014654">
        <ele>171.0</ele>
        <time>2022-01-13T08:45:10Z</time>
      </trkpt>
      <trkpt lat="47.732933" lon="2.2014518">
        <ele>171.0</ele>
        <time>2022-01-13T08:45:11Z</time>
      </trkpt>
      <trkpt lat="47.73294" lon="2.2014391">
        <ele>171.0</ele>
        <time>2022-01-13T08:45:12Z</time>
      </trkpt>
      <trkpt lat="47.73295" lon="2.2014306">
        <ele>170.0</ele>
        <time>2022-01-13T08:45:13Z</time>
      </trkpt>
      <trkpt lat="47.732956" lon="2.2014215">
        <ele>170.0</ele>
        <time>2022-01-13T08:45:14Z</time>
      </trkpt>
      <trkpt lat="47.732964" lon="2.201407">
        <ele>170.0</ele>
        <time>2022-01-13T08:45:15Z</time>
      </trkpt>
      <trkpt lat="47.732967" lon="2.2013898">
        <ele>170.0</ele>
        <time>2022-01-13T08:45:16Z</time>
      </trkpt>
      <trkpt lat="47.73297" lon="2.201377">
        <ele>171.0</ele>
        <time>2022-01-13T08:45:17Z</time>
      </trkpt>
      <trkpt lat="47.732975" lon="2.201366">
        <ele>171.0</ele>
        <time>2022-01-13T08:45:18Z</time>
      </trkpt>
      <trkpt lat="47.732986" lon="2.2013535">
        <ele>171.0</ele>
        <time>2022-01-13T08:45:19Z</time>
      </trkpt>
      <trkpt lat="47.732994" lon="2.2013505">
        <ele>171.0</ele>
        <time>2022-01-13T08:45:20Z</time>
      </trkpt>
      <trkpt lat="47.733006" lon="2.2013443">
        <ele>171.0</ele>
        <time>2022-01-13T08:45:21Z</time>
      </trkpt>
      <trkpt lat="47.733013" lon="2.2013354">
        <ele>171.0</ele>
        <time>2022-01-13T08:45:22Z</time>
      </trkpt>
      <trkpt lat="47.733025" lon="2.2013235">
        <ele>171.0</ele>
        <time>2022-01-13T08:45:23Z</time>
      </trkpt>
      <trkpt lat="47.733036" lon="2.2013116">
        <ele>171.0</ele>
        <time>2022-01-13T08:45:24Z</time>
      </trkpt>
      <trkpt lat="47.733047" lon="2.2012966">
        <ele>171.0</ele>
        <time>2022-01-13T08:45:25Z</time>
      </trkpt>
      <trkpt lat="47.733063" lon="2.2012827">
        <ele>171.0</ele>
        <time>2022-01-13T08:45:26Z</time>
      </trkpt>
      <trkpt lat="47.73307" lon="2.2012691">
        <ele>171.0</ele>
        <time>2022-01-13T08:45:27Z</time>
      </trkpt>
      <trkpt lat="47.73308" lon="2.2012608">
        <ele>171.0</ele>
        <time>2022-01-13T08:45:28Z</time>
      </trkpt>
      <trkpt lat="47.73309" lon="2.2012517">
        <ele>170.0</ele>
        <time>2022-01-13T08:45:29Z</time>
      </trkpt>
      <trkpt lat="47.733093" lon="2.201238">
        <ele>170.0</ele>
        <time>2022-01-13T08:45:30Z</time>
      </trkpt>
      <trkpt lat="47.733093" lon="2.201238">
        <ele>170.0</ele>
        <time>2022-01-13T08:45:31Z</time>
      </trkpt>
      <trkpt lat="47.733112" lon="2.2012231">
        <ele>169.0</ele>
        <time>2022-01-13T08:45:32Z</time>
      </trkpt>
      <trkpt lat="47.733116" lon="2.201213">
        <ele>169.0</ele>
        <time>2022-01-13T08:45:33Z</time>
      </trkpt>
      <trkpt lat="47.733128" lon="2.201202">
        <ele>169.0</ele>
        <time>2022-01-13T08:45:34Z</time>
      </trkpt>
      <trkpt lat="47.733135" lon="2.2011945">
        <ele>169.0</ele>
        <time>2022-01-13T08:45:35Z</time>
      </trkpt>
      <trkpt lat="47.733147" lon="2.2011857">
        <ele>169.0</ele>
        <time>2022-01-13T08:45:36Z</time>
      </trkpt>
      <trkpt lat="47.73316" lon="2.2011726">
        <ele>170.0</ele>
        <time>2022-01-13T08:45:37Z</time>
      </trkpt>
      <trkpt lat="47.73317" lon="2.2011647">
        <ele>170.0</ele>
        <time>2022-01-13T08:45:38Z</time>
      </trkpt>
      <trkpt lat="47.733173" lon="2.2011542">
        <ele>169.0</ele>
        <time>2022-01-13T08:45:39Z</time>
      </trkpt>
      <trkpt lat="47.73318" lon="2.2011425">
        <ele>170.0</ele>
        <time>2022-01-13T08:45:40Z</time>
      </trkpt>
      <trkpt lat="47.733185" lon="2.2011182">
        <ele>169.0</ele>
        <time>2022-01-13T08:45:41Z</time>
      </trkpt>
      <trkpt lat="47.733196" lon="2.2011027">
        <ele>169.0</ele>
        <time>2022-01-13T08:45:42Z</time>
      </trkpt>
      <trkpt lat="47.733208" lon="2.20109">
        <ele>169.0</ele>
        <time>2022-01-13T08:45:43Z</time>
      </trkpt>
      <trkpt lat="47.73322" lon="2.2010863">
        <ele>169.0</ele>
        <time>2022-01-13T08:45:44Z</time>
      </trkpt>
      <trkpt lat="47.733223" lon="2.2010772">
        <ele>169.0</ele>
        <time>2022-01-13T08:45:45Z</time>
      </trkpt>
      <trkpt lat="47.733234" lon="2.2010713">
        <ele>169.0</ele>
        <time>2022-01-13T08:45:46Z</time>
      </trkpt>
      <trkpt lat="47.733246" lon="2.2010593">
        <ele>169.0</ele>
        <time>2022-01-13T08:45:47Z</time>
      </trkpt>
      <trkpt lat="47.733257" lon="2.2010465">
        <ele>169.0</ele>
        <time>2022-01-13T08:45:48Z</time>
      </trkpt>
      <trkpt lat="47.733265" lon="2.2010348">
        <ele>169.0</ele>
        <time>2022-01-13T08:45:49Z</time>
      </trkpt>
      <trkpt lat="47.733276" lon="2.2010214">
        <ele>169.0</ele>
        <time>2022-01-13T08:45:50Z</time>
      </trkpt>
      <trkpt lat="47.733284" lon="2.2010102">
        <ele>169.0</ele>
        <time>2022-01-13T08:45:51Z</time>
      </trkpt>
      <trkpt lat="47.73329" lon="2.2009988">
        <ele>169.0</ele>
        <time>2022-01-13T08:45:52Z</time>
      </trkpt>
      <trkpt lat="47.733303" lon="2.200984">
        <ele>169.0</ele>
        <time>2022-01-13T08:45:53Z</time>
      </trkpt>
      <trkpt lat="47.733315" lon="2.2009742">
        <ele>169.0</ele>
        <time>2022-01-13T08:45:54Z</time>
      </trkpt>
      <trkpt lat="47.733326" lon="2.2009628">
        <ele>169.0</ele>
        <time>2022-01-13T08:45:55Z</time>
      </trkpt>
      <trkpt lat="47.73333" lon="2.2009437">
        <ele>169.0</ele>
        <time>2022-01-13T08:45:56Z</time>
      </trkpt>
      <trkpt lat="47.733334" lon="2.2009277">
        <ele>169.0</ele>
        <time>2022-01-13T08:45:57Z</time>
      </trkpt>
      <trkpt lat="47.733345" lon="2.2009106">
        <ele>169.0</ele>
        <time>2022-01-13T08:45:58Z</time>
      </trkpt>
      <trkpt lat="47.733356" lon="2.2008934">
        <ele>169.0</ele>
        <time>2022-01-13T08:45:59Z</time>
      </trkpt>
      <trkpt lat="47.733368" lon="2.2008755">
        <ele>170.0</ele>
        <time>2022-01-13T08:46:00Z</time>
      </trkpt>
      <trkpt lat="47.733376" lon="2.2008655">
        <ele>170.0</ele>
        <time>2022-01-13T08:46:01Z</time>
      </trkpt>
      <trkpt lat="47.733387" lon="2.2008572">
        <ele>171.0</ele>
        <time>2022-01-13T08:46:02Z</time>
      </trkpt>
      <trkpt lat="47.733402" lon="2.2008498">
        <ele>171.0</ele>
        <time>2022-01-13T08:46:03Z</time>
      </trkpt>
      <trkpt lat="47.733414" lon="2.200835">
        <ele>171.0</ele>
        <time>2022-01-13T08:46:04Z</time>
      </trkpt>
      <trkpt lat="47.733425" lon="2.2008243">
        <ele>171.0</ele>
        <time>2022-01-13T08:46:05Z</time>
      </trkpt>
      <trkpt lat="47.73344" lon="2.2008207">
        <ele>171.0</ele>
        <time>2022-01-13T08:46:06Z</time>
      </trkpt>
      <trkpt lat="47.73345" lon="2.2008138">
        <ele>171.0</ele>
        <time>2022-01-13T08:46:07Z</time>
      </trkpt>
      <trkpt lat="47.733463" lon="2.200805">
        <ele>171.0</ele>
        <time>2022-01-13T08:46:08Z</time>
      </trkpt>
      <trkpt lat="47.73348" lon="2.200797">
        <ele>171.0</ele>
        <time>2022-01-13T08:46:09Z</time>
      </trkpt>
      <trkpt lat="47.73349" lon="2.200785">
        <ele>171.0</ele>
        <time>2022-01-13T08:46:10Z</time>
      </trkpt>
      <trkpt lat="47.733498" lon="2.2007725">
        <ele>171.0</ele>
        <time>2022-01-13T08:46:11Z</time>
      </trkpt>
      <trkpt lat="47.733505" lon="2.2007556">
        <ele>171.0</ele>
        <time>2022-01-13T08:46:12Z</time>
      </trkpt>
      <trkpt lat="47.733517" lon="2.2007408">
        <ele>171.0</ele>
        <time>2022-01-13T08:46:13Z</time>
      </trkpt>
      <trkpt lat="47.733532" lon="2.2007287">
        <ele>171.0</ele>
        <time>2022-01-13T08:46:14Z</time>
      </trkpt>
      <trkpt lat="47.73354" lon="2.2007182">
        <ele>171.0</ele>
        <time>2022-01-13T08:46:15Z</time>
      </trkpt>
      <trkpt lat="47.733543" lon="2.2007127">
        <ele>171.0</ele>
        <time>2022-01-13T08:46:16Z</time>
      </trkpt>
      <trkpt lat="47.733555" lon="2.200708">
        <ele>171.0</ele>
        <time>2022-01-13T08:46:17Z</time>
      </trkpt>
      <trkpt lat="47.733566" lon="2.2006958">
        <ele>171.0</ele>
        <time>2022-01-13T08:46:18Z</time>
      </trkpt>
      <trkpt lat="47.73358" lon="2.2006826">
        <ele>171.0</ele>
        <time>2022-01-13T08:46:19Z</time>
      </trkpt>
      <trkpt lat="47.733593" lon="2.2006702">
        <ele>171.0</ele>
        <time>2022-01-13T08:46:20Z</time>
      </trkpt>
      <trkpt lat="47.7336" lon="2.2006648">
        <ele>171.0</ele>
        <time>2022-01-13T08:46:21Z</time>
      </trkpt>
      <trkpt lat="47.733612" lon="2.2006552">
        <ele>171.0</ele>
        <time>2022-01-13T08:46:22Z</time>
      </trkpt>
      <trkpt lat="47.733616" lon="2.2006452">
        <ele>172.0</ele>
        <time>2022-01-13T08:46:23Z</time>
      </trkpt>
      <trkpt lat="47.73362" lon="2.200637">
        <ele>172.0</ele>
        <time>2022-01-13T08:46:24Z</time>
      </trkpt>
      <trkpt lat="47.733627" lon="2.2006252">
        <ele>172.0</ele>
        <time>2022-01-13T08:46:25Z</time>
      </trkpt>
      <trkpt lat="47.733635" lon="2.200611">
        <ele>173.0</ele>
        <time>2022-01-13T08:46:26Z</time>
      </trkpt>
      <trkpt lat="47.733643" lon="2.2005975">
        <ele>173.0</ele>
        <time>2022-01-13T08:46:27Z</time>
      </trkpt>
      <trkpt lat="47.73365" lon="2.2005842">
        <ele>173.0</ele>
        <time>2022-01-13T08:46:28Z</time>
      </trkpt>
      <trkpt lat="47.733658" lon="2.2005754">
        <ele>173.0</ele>
        <time>2022-01-13T08:46:29Z</time>
      </trkpt>
      <trkpt lat="47.73366" lon="2.2005677">
        <ele>173.0</ele>
        <time>2022-01-13T08:46:30Z</time>
      </trkpt>
      <trkpt lat="47.73367" lon="2.2005625">
        <ele>174.0</ele>
        <time>2022-01-13T08:46:31Z</time>
      </trkpt>
      <trkpt lat="47.733685" lon="2.200562">
        <ele>174.0</ele>
        <time>2022-01-13T08:46:32Z</time>
      </trkpt>
      <trkpt lat="47.733696" lon="2.200561">
        <ele>174.0</ele>
        <time>2022-01-13T08:46:33Z</time>
      </trkpt>
      <trkpt lat="47.733704" lon="2.2005622">
        <ele>174.0</ele>
        <time>2022-01-13T08:46:34Z</time>
      </trkpt>
      <trkpt lat="47.73371" lon="2.2005637">
        <ele>174.0</ele>
        <time>2022-01-13T08:46:35Z</time>
      </trkpt>
      <trkpt lat="47.73372" lon="2.2005608">
        <ele>174.0</ele>
        <time>2022-01-13T08:46:36Z</time>
      </trkpt>
      <trkpt lat="47.733727" lon="2.2005613">
        <ele>174.0</ele>
        <time>2022-01-13T08:46:37Z</time>
      </trkpt>
      <trkpt lat="47.733738" lon="2.2005615">
        <ele>174.0</ele>
        <time>2022-01-13T08:46:38Z</time>
      </trkpt>
      <trkpt lat="47.733746" lon="2.2005708">
        <ele>173.0</ele>
        <time>2022-01-13T08:46:39Z</time>
      </trkpt>
      <trkpt lat="47.733753" lon="2.2005823">
        <ele>173.0</ele>
        <time>2022-01-13T08:46:40Z</time>
      </trkpt>
      <trkpt lat="47.73377" lon="2.200594">
        <ele>173.0</ele>
        <time>2022-01-13T08:46:41Z</time>
      </trkpt>
      <trkpt lat="47.733776" lon="2.2006035">
        <ele>173.0</ele>
        <time>2022-01-13T08:46:42Z</time>
      </trkpt>
      <trkpt lat="47.733784" lon="2.2006104">
        <ele>172.0</ele>
        <time>2022-01-13T08:46:43Z</time>
      </trkpt>
      <trkpt lat="47.73379" lon="2.2006197">
        <ele>172.0</ele>
        <time>2022-01-13T08:46:44Z</time>
      </trkpt>
      <trkpt lat="47.733803" lon="2.2006252">
        <ele>172.0</ele>
        <time>2022-01-13T08:46:45Z</time>
      </trkpt>
      <trkpt lat="47.733818" lon="2.200629">
        <ele>172.0</ele>
        <time>2022-01-13T08:46:46Z</time>
      </trkpt>
      <trkpt lat="47.73382" lon="2.2006361">
        <ele>173.0</ele>
        <time>2022-01-13T08:46:47Z</time>
      </trkpt>
      <trkpt lat="47.733826" lon="2.2006395">
        <ele>172.0</ele>
        <time>2022-01-13T08:46:48Z</time>
      </trkpt>
      <trkpt lat="47.733837" lon="2.2006443">
        <ele>172.0</ele>
        <time>2022-01-13T08:46:49Z</time>
      </trkpt>
      <trkpt lat="47.73385" lon="2.200651">
        <ele>172.0</ele>
        <time>2022-01-13T08:46:50Z</time>
      </trkpt>
      <trkpt lat="47.733852" lon="2.2006598">
        <ele>172.0</ele>
        <time>2022-01-13T08:46:51Z</time>
      </trkpt>
      <trkpt lat="47.733864" lon="2.200665">
        <ele>172.0</ele>
        <time>2022-01-13T08:46:52Z</time>
      </trkpt>
      <trkpt lat="47.733868" lon="2.200673">
        <ele>172.0</ele>
        <time>2022-01-13T08:46:53Z</time>
      </trkpt>
      <trkpt lat="47.733875" lon="2.2006788">
        <ele>173.0</ele>
        <time>2022-01-13T08:46:54Z</time>
      </trkpt>
      <trkpt lat="47.733883" lon="2.200688">
        <ele>173.0</ele>
        <time>2022-01-13T08:46:55Z</time>
      </trkpt>
      <trkpt lat="47.73389" lon="2.2006996">
        <ele>172.0</ele>
        <time>2022-01-13T08:46:56Z</time>
      </trkpt>
      <trkpt lat="47.733894" lon="2.2007077">
        <ele>172.0</ele>
        <time>2022-01-13T08:46:57Z</time>
      </trkpt>
      <trkpt lat="47.7339" lon="2.2007153">
        <ele>172.0</ele>
        <time>2022-01-13T08:46:58Z</time>
      </trkpt>
      <trkpt lat="47.733906" lon="2.2007208">
        <ele>172.0</ele>
        <time>2022-01-13T08:46:59Z</time>
      </trkpt>
      <trkpt lat="47.733913" lon="2.2007225">
        <ele>172.0</ele>
        <time>2022-01-13T08:47:00Z</time>
      </trkpt>
      <trkpt lat="47.73393" lon="2.200725">
        <ele>171.0</ele>
        <time>2022-01-13T08:47:01Z</time>
      </trkpt>
      <trkpt lat="47.733936" lon="2.2007232">
        <ele>171.0</ele>
        <time>2022-01-13T08:47:02Z</time>
      </trkpt>
      <trkpt lat="47.733944" lon="2.2007248">
        <ele>171.0</ele>
        <time>2022-01-13T08:47:03Z</time>
      </trkpt>
      <trkpt lat="47.733944" lon="2.2007244">
        <ele>171.0</ele>
        <time>2022-01-13T08:47:04Z</time>
      </trkpt>
      <trkpt lat="47.733944" lon="2.2007244">
        <ele>171.0</ele>
        <time>2022-01-13T08:47:05Z</time>
      </trkpt>
      <trkpt lat="47.733944" lon="2.2007244">
        <ele>171.0</ele>
        <time>2022-01-13T08:47:06Z</time>
      </trkpt>
      <trkpt lat="47.733944" lon="2.2007244">
        <ele>171.0</ele>
        <time>2022-01-13T08:47:07Z</time>
      </trkpt>
      <trkpt lat="47.733967" lon="2.200708">
        <ele>170.0</ele>
        <time>2022-01-13T08:47:08Z</time>
      </trkpt>
      <trkpt lat="47.73398" lon="2.2006996">
        <ele>170.0</ele>
        <time>2022-01-13T08:47:09Z</time>
      </trkpt>
      <trkpt lat="47.73399" lon="2.2006934">
        <ele>170.0</ele>
        <time>2022-01-13T08:47:10Z</time>
      </trkpt>
      <trkpt lat="47.733997" lon="2.2006917">
        <ele>170.0</ele>
        <time>2022-01-13T08:47:11Z</time>
      </trkpt>
      <trkpt lat="47.73401" lon="2.2006814">
        <ele>170.0</ele>
        <time>2022-01-13T08:47:12Z</time>
      </trkpt>
      <trkpt lat="47.73402" lon="2.200674">
        <ele>169.0</ele>
        <time>2022-01-13T08:47:13Z</time>
      </trkpt>
      <trkpt lat="47.734028" lon="2.2006593">
        <ele>169.0</ele>
        <time>2022-01-13T08:47:14Z</time>
      </trkpt>
      <trkpt lat="47.734035" lon="2.200647">
        <ele>169.0</ele>
        <time>2022-01-13T08:47:15Z</time>
      </trkpt>
      <trkpt lat="47.734047" lon="2.200634">
        <ele>169.0</ele>
        <time>2022-01-13T08:47:16Z</time>
      </trkpt>
      <trkpt lat="47.734062" lon="2.2006254">
        <ele>169.0</ele>
        <time>2022-01-13T08:47:17Z</time>
      </trkpt>
      <trkpt lat="47.734074" lon="2.200614">
        <ele>169.0</ele>
        <time>2022-01-13T08:47:18Z</time>
      </trkpt>
      <trkpt lat="47.734085" lon="2.200598">
        <ele>169.0</ele>
        <time>2022-01-13T08:47:19Z</time>
      </trkpt>
      <trkpt lat="47.734097" lon="2.2005858">
        <ele>170.0</ele>
        <time>2022-01-13T08:47:20Z</time>
      </trkpt>
      <trkpt lat="47.7341" lon="2.200579">
        <ele>170.0</ele>
        <time>2022-01-13T08:47:21Z</time>
      </trkpt>
      <trkpt lat="47.734108" lon="2.200569">
        <ele>170.0</ele>
        <time>2022-01-13T08:47:22Z</time>
      </trkpt>
      <trkpt lat="47.73412" lon="2.2005584">
        <ele>170.0</ele>
        <time>2022-01-13T08:47:23Z</time>
      </trkpt>
      <trkpt lat="47.734135" lon="2.2005472">
        <ele>170.0</ele>
        <time>2022-01-13T08:47:24Z</time>
      </trkpt>
      <trkpt lat="47.734146" lon="2.2005346">
        <ele>169.0</ele>
        <time>2022-01-13T08:47:25Z</time>
      </trkpt>
      <trkpt lat="47.73416" lon="2.2005231">
        <ele>169.0</ele>
        <time>2022-01-13T08:47:26Z</time>
      </trkpt>
      <trkpt lat="47.734177" lon="2.2005138">
        <ele>170.0</ele>
        <time>2022-01-13T08:47:27Z</time>
      </trkpt>
      <trkpt lat="47.734188" lon="2.2005007">
        <ele>170.0</ele>
        <time>2022-01-13T08:47:28Z</time>
      </trkpt>
      <trkpt lat="47.734196" lon="2.200488">
        <ele>170.0</ele>
        <time>2022-01-13T08:47:29Z</time>
      </trkpt>
      <trkpt lat="47.734207" lon="2.2004793">
        <ele>170.0</ele>
        <time>2022-01-13T08:47:30Z</time>
      </trkpt>
      <trkpt lat="47.73421" lon="2.2004724">
        <ele>170.0</ele>
        <time>2022-01-13T08:47:31Z</time>
      </trkpt>
      <trkpt lat="47.734222" lon="2.2004628">
        <ele>170.0</ele>
        <time>2022-01-13T08:47:32Z</time>
      </trkpt>
      <trkpt lat="47.734234" lon="2.2004533">
        <ele>169.0</ele>
        <time>2022-01-13T08:47:33Z</time>
      </trkpt>
      <trkpt lat="47.73424" lon="2.2004426">
        <ele>169.0</ele>
        <time>2022-01-13T08:47:34Z</time>
      </trkpt>
      <trkpt lat="47.734253" lon="2.2004302">
        <ele>169.0</ele>
        <time>2022-01-13T08:47:35Z</time>
      </trkpt>
      <trkpt lat="47.734264" lon="2.20042">
        <ele>170.0</ele>
        <time>2022-01-13T08:47:36Z</time>
      </trkpt>
      <trkpt lat="47.734272" lon="2.2004087">
        <ele>170.0</ele>
        <time>2022-01-13T08:47:37Z</time>
      </trkpt>
      <trkpt lat="47.73428" lon="2.2003982">
        <ele>170.0</ele>
        <time>2022-01-13T08:47:38Z</time>
      </trkpt>
      <trkpt lat="47.734287" lon="2.2003877">
        <ele>170.0</ele>
        <time>2022-01-13T08:47:39Z</time>
      </trkpt>
      <trkpt lat="47.734295" lon="2.2003775">
        <ele>170.0</ele>
        <time>2022-01-13T08:47:40Z</time>
      </trkpt>
      <trkpt lat="47.734306" lon="2.2003648">
        <ele>170.0</ele>
        <time>2022-01-13T08:47:41Z</time>
      </trkpt>
      <trkpt lat="47.734318" lon="2.2003498">
        <ele>171.0</ele>
        <time>2022-01-13T08:47:42Z</time>
      </trkpt>
      <trkpt lat="47.73432" lon="2.2003386">
        <ele>171.0</ele>
        <time>2022-01-13T08:47:43Z</time>
      </trkpt>
      <trkpt lat="47.734325" lon="2.2003255">
        <ele>170.0</ele>
        <time>2022-01-13T08:47:44Z</time>
      </trkpt>
      <trkpt lat="47.734333" lon="2.2003086">
        <ele>170.0</ele>
        <time>2022-01-13T08:47:45Z</time>
      </trkpt>
      <trkpt lat="47.73434" lon="2.2002928">
        <ele>171.0</ele>
        <time>2022-01-13T08:47:46Z</time>
      </trkpt>
      <trkpt lat="47.73435" lon="2.2002807">
        <ele>171.0</ele>
        <time>2022-01-13T08:47:47Z</time>
      </trkpt>
      <trkpt lat="47.73436" lon="2.2002697">
        <ele>171.0</ele>
        <time>2022-01-13T08:47:48Z</time>
      </trkpt>
      <trkpt lat="47.734364" lon="2.2002556">
        <ele>171.0</ele>
        <time>2022-01-13T08:47:49Z</time>
      </trkpt>
      <trkpt lat="47.73437" lon="2.2002463">
        <ele>171.0</ele>
        <time>2022-01-13T08:47:50Z</time>
      </trkpt>
      <trkpt lat="47.734383" lon="2.2002366">
        <ele>171.0</ele>
        <time>2022-01-13T08:47:51Z</time>
      </trkpt>
      <trkpt lat="47.734394" lon="2.200229">
        <ele>171.0</ele>
        <time>2022-01-13T08:47:52Z</time>
      </trkpt>
      <trkpt lat="47.7344" lon="2.2002218">
        <ele>171.0</ele>
        <time>2022-01-13T08:47:53Z</time>
      </trkpt>
      <trkpt lat="47.73441" lon="2.2002094">
        <ele>171.0</ele>
        <time>2022-01-13T08:47:54Z</time>
      </trkpt>
      <trkpt lat="47.734417" lon="2.2001963">
        <ele>172.0</ele>
        <time>2022-01-13T08:47:55Z</time>
      </trkpt>
      <trkpt lat="47.73443" lon="2.2001855">
        <ele>172.0</ele>
        <time>2022-01-13T08:47:56Z</time>
      </trkpt>
      <trkpt lat="47.734432" lon="2.200172">
        <ele>171.0</ele>
        <time>2022-01-13T08:47:57Z</time>
      </trkpt>
      <trkpt lat="47.734444" lon="2.2001598">
        <ele>171.0</ele>
        <time>2022-01-13T08:47:58Z</time>
      </trkpt>
      <trkpt lat="47.734455" lon="2.20015">
        <ele>171.0</ele>
        <time>2022-01-13T08:47:59Z</time>
      </trkpt>
      <trkpt lat="47.734463" lon="2.2001367">
        <ele>171.0</ele>
        <time>2022-01-13T08:48:00Z</time>
      </trkpt>
      <trkpt lat="47.73447" lon="2.2001238">
        <ele>172.0</ele>
        <time>2022-01-13T08:48:01Z</time>
      </trkpt>
      <trkpt lat="47.734474" lon="2.200111">
        <ele>172.0</ele>
        <time>2022-01-13T08:48:02Z</time>
      </trkpt>
      <trkpt lat="47.73448" lon="2.2000976">
        <ele>172.0</ele>
        <time>2022-01-13T08:48:03Z</time>
      </trkpt>
      <trkpt lat="47.734493" lon="2.200086">
        <ele>173.0</ele>
        <time>2022-01-13T08:48:04Z</time>
      </trkpt>
      <trkpt lat="47.734505" lon="2.200074">
        <ele>173.0</ele>
        <time>2022-01-13T08:48:05Z</time>
      </trkpt>
      <trkpt lat="47.734516" lon="2.2000644">
        <ele>173.0</ele>
        <time>2022-01-13T08:48:06Z</time>
      </trkpt>
      <trkpt lat="47.734528" lon="2.2000515">
        <ele>173.0</ele>
        <time>2022-01-13T08:48:07Z</time>
      </trkpt>
      <trkpt lat="47.73454" lon="2.2000403">
        <ele>173.0</ele>
        <time>2022-01-13T08:48:08Z</time>
      </trkpt>
      <trkpt lat="47.734547" lon="2.2000237">
        <ele>173.0</ele>
        <time>2022-01-13T08:48:09Z</time>
      </trkpt>
      <trkpt lat="47.73456" lon="2.2000103">
        <ele>173.0</ele>
        <time>2022-01-13T08:48:10Z</time>
      </trkpt>
      <trkpt lat="47.734566" lon="2.2000036">
        <ele>173.0</ele>
        <time>2022-01-13T08:48:11Z</time>
      </trkpt>
      <trkpt lat="47.734573" lon="2.1999955">
        <ele>173.0</ele>
        <time>2022-01-13T08:48:12Z</time>
      </trkpt>
      <trkpt lat="47.734585" lon="2.1999853">
        <ele>174.0</ele>
        <time>2022-01-13T08:48:13Z</time>
      </trkpt>
      <trkpt lat="47.734592" lon="2.1999767">
        <ele>173.0</ele>
        <time>2022-01-13T08:48:14Z</time>
      </trkpt>
      <trkpt lat="47.7346" lon="2.1999652">
        <ele>173.0</ele>
        <time>2022-01-13T08:48:15Z</time>
      </trkpt>
      <trkpt lat="47.73461" lon="2.1999564">
        <ele>173.0</ele>
        <time>2022-01-13T08:48:16Z</time>
      </trkpt>
      <trkpt lat="47.734623" lon="2.1999466">
        <ele>173.0</ele>
        <time>2022-01-13T08:48:17Z</time>
      </trkpt>
      <trkpt lat="47.73463" lon="2.1999378">
        <ele>174.0</ele>
        <time>2022-01-13T08:48:18Z</time>
      </trkpt>
      <trkpt lat="47.734642" lon="2.1999235">
        <ele>173.0</ele>
        <time>2022-01-13T08:48:19Z</time>
      </trkpt>
      <trkpt lat="47.73465" lon="2.1999075">
        <ele>173.0</ele>
        <time>2022-01-13T08:48:20Z</time>
      </trkpt>
      <trkpt lat="47.734657" lon="2.1998973">
        <ele>173.0</ele>
        <time>2022-01-13T08:48:21Z</time>
      </trkpt>
      <trkpt lat="47.73467" lon="2.199885">
        <ele>173.0</ele>
        <time>2022-01-13T08:48:22Z</time>
      </trkpt>
      <trkpt lat="47.734676" lon="2.199877">
        <ele>173.0</ele>
        <time>2022-01-13T08:48:23Z</time>
      </trkpt>
      <trkpt lat="47.734684" lon="2.1998665">
        <ele>174.0</ele>
        <time>2022-01-13T08:48:24Z</time>
      </trkpt>
      <trkpt lat="47.734695" lon="2.1998494">
        <ele>174.0</ele>
        <time>2022-01-13T08:48:25Z</time>
      </trkpt>
      <trkpt lat="47.734707" lon="2.1998372">
        <ele>173.0</ele>
        <time>2022-01-13T08:48:26Z</time>
      </trkpt>
      <trkpt lat="47.73472" lon="2.1998308">
        <ele>173.0</ele>
        <time>2022-01-13T08:48:27Z</time>
      </trkpt>
      <trkpt lat="47.73473" lon="2.1998205">
        <ele>173.0</ele>
        <time>2022-01-13T08:48:28Z</time>
      </trkpt>
      <trkpt lat="47.734737" lon="2.1998072">
        <ele>173.0</ele>
        <time>2022-01-13T08:48:29Z</time>
      </trkpt>
      <trkpt lat="47.73475" lon="2.199789">
        <ele>173.0</ele>
        <time>2022-01-13T08:48:30Z</time>
      </trkpt>
      <trkpt lat="47.734756" lon="2.1997762">
        <ele>173.0</ele>
        <time>2022-01-13T08:48:31Z</time>
      </trkpt>
      <trkpt lat="47.734764" lon="2.199767">
        <ele>173.0</ele>
        <time>2022-01-13T08:48:32Z</time>
      </trkpt>
      <trkpt lat="47.734768" lon="2.1997564">
        <ele>173.0</ele>
        <time>2022-01-13T08:48:33Z</time>
      </trkpt>
      <trkpt lat="47.734776" lon="2.1997423">
        <ele>173.0</ele>
        <time>2022-01-13T08:48:34Z</time>
      </trkpt>
      <trkpt lat="47.73479" lon="2.199731">
        <ele>173.0</ele>
        <time>2022-01-13T08:48:35Z</time>
      </trkpt>
      <trkpt lat="47.7348" lon="2.199719">
        <ele>173.0</ele>
        <time>2022-01-13T08:48:36Z</time>
      </trkpt>
      <trkpt lat="47.734806" lon="2.199703">
        <ele>173.0</ele>
        <time>2022-01-13T08:48:37Z</time>
      </trkpt>
      <trkpt lat="47.734814" lon="2.1996918">
        <ele>173.0</ele>
        <time>2022-01-13T08:48:38Z</time>
      </trkpt>
      <trkpt lat="47.734818" lon="2.1996796">
        <ele>174.0</ele>
        <time>2022-01-13T08:48:39Z</time>
      </trkpt>
      <trkpt lat="47.734825" lon="2.1996694">
        <ele>174.0</ele>
        <time>2022-01-13T08:48:40Z</time>
      </trkpt>
      <trkpt lat="47.734837" lon="2.1996572">
        <ele>174.0</ele>
        <time>2022-01-13T08:48:41Z</time>
      </trkpt>
      <trkpt lat="47.734844" lon="2.1996446">
        <ele>173.0</ele>
        <time>2022-01-13T08:48:42Z</time>
      </trkpt>
      <trkpt lat="47.734856" lon="2.1996293">
        <ele>174.0</ele>
        <time>2022-01-13T08:48:43Z</time>
      </trkpt>
      <trkpt lat="47.734867" lon="2.1996136">
        <ele>174.0</ele>
        <time>2022-01-13T08:48:44Z</time>
      </trkpt>
      <trkpt lat="47.73488" lon="2.1996028">
        <ele>174.0</ele>
        <time>2022-01-13T08:48:45Z</time>
      </trkpt>
      <trkpt lat="47.73489" lon="2.1995897">
        <ele>174.0</ele>
        <time>2022-01-13T08:48:46Z</time>
      </trkpt>
      <trkpt lat="47.7349" lon="2.1995769">
        <ele>174.0</ele>
        <time>2022-01-13T08:48:47Z</time>
      </trkpt>
      <trkpt lat="47.73491" lon="2.199566">
        <ele>175.0</ele>
        <time>2022-01-13T08:48:48Z</time>
      </trkpt>
      <trkpt lat="47.734917" lon="2.1995564">
        <ele>175.0</ele>
        <time>2022-01-13T08:48:49Z</time>
      </trkpt>
      <trkpt lat="47.734924" lon="2.1995468">
        <ele>175.0</ele>
        <time>2022-01-13T08:48:50Z</time>
      </trkpt>
      <trkpt lat="47.734932" lon="2.1995335">
        <ele>175.0</ele>
        <time>2022-01-13T08:48:51Z</time>
      </trkpt>
      <trkpt lat="47.73494" lon="2.199523">
        <ele>174.0</ele>
        <time>2022-01-13T08:48:52Z</time>
      </trkpt>
      <trkpt lat="47.73495" lon="2.1995099">
        <ele>174.0</ele>
        <time>2022-01-13T08:48:53Z</time>
      </trkpt>
      <trkpt lat="47.734962" lon="2.1994963">
        <ele>175.0</ele>
        <time>2022-01-13T08:48:54Z</time>
      </trkpt>
      <trkpt lat="47.73497" lon="2.1994805">
        <ele>174.0</ele>
        <time>2022-01-13T08:48:55Z</time>
      </trkpt>
      <trkpt lat="47.734978" lon="2.1994708">
        <ele>174.0</ele>
        <time>2022-01-13T08:48:56Z</time>
      </trkpt>
      <trkpt lat="47.734985" lon="2.1994584">
        <ele>174.0</ele>
        <time>2022-01-13T08:48:57Z</time>
      </trkpt>
      <trkpt lat="47.734997" lon="2.1994438">
        <ele>174.0</ele>
        <time>2022-01-13T08:48:58Z</time>
      </trkpt>
      <trkpt lat="47.73501" lon="2.1994295">
        <ele>174.0</ele>
        <time>2022-01-13T08:48:59Z</time>
      </trkpt>
      <trkpt lat="47.735016" lon="2.199414">
        <ele>174.0</ele>
        <time>2022-01-13T08:49:00Z</time>
      </trkpt>
      <trkpt lat="47.735023" lon="2.199401">
        <ele>174.0</ele>
        <time>2022-01-13T08:49:01Z</time>
      </trkpt>
      <trkpt lat="47.735027" lon="2.1993873">
        <ele>174.0</ele>
        <time>2022-01-13T08:49:02Z</time>
      </trkpt>
      <trkpt lat="47.735035" lon="2.1993759">
        <ele>174.0</ele>
        <time>2022-01-13T08:49:03Z</time>
      </trkpt>
      <trkpt lat="47.735043" lon="2.1993656">
        <ele>173.0</ele>
        <time>2022-01-13T08:49:04Z</time>
      </trkpt>
      <trkpt lat="47.735046" lon="2.199353">
        <ele>173.0</ele>
        <time>2022-01-13T08:49:05Z</time>
      </trkpt>
      <trkpt lat="47.73505" lon="2.1993384">
        <ele>173.0</ele>
        <time>2022-01-13T08:49:06Z</time>
      </trkpt>
      <trkpt lat="47.735058" lon="2.1993253">
        <ele>173.0</ele>
        <time>2022-01-13T08:49:07Z</time>
      </trkpt>
      <trkpt lat="47.73507" lon="2.199313">
        <ele>173.0</ele>
        <time>2022-01-13T08:49:08Z</time>
      </trkpt>
      <trkpt lat="47.735077" lon="2.199302">
        <ele>174.0</ele>
        <time>2022-01-13T08:49:09Z</time>
      </trkpt>
      <trkpt lat="47.735085" lon="2.1992884">
        <ele>174.0</ele>
        <time>2022-01-13T08:49:10Z</time>
      </trkpt>
      <trkpt lat="47.735092" lon="2.1992743">
        <ele>173.0</ele>
        <time>2022-01-13T08:49:11Z</time>
      </trkpt>
      <trkpt lat="47.735104" lon="2.199254">
        <ele>173.0</ele>
        <time>2022-01-13T08:49:12Z</time>
      </trkpt>
      <trkpt lat="47.73511" lon="2.1992354">
        <ele>174.0</ele>
        <time>2022-01-13T08:49:13Z</time>
      </trkpt>
      <trkpt lat="47.735126" lon="2.199219">
        <ele>174.0</ele>
        <time>2022-01-13T08:49:14Z</time>
      </trkpt>
      <trkpt lat="47.735138" lon="2.1992025">
        <ele>174.0</ele>
        <time>2022-01-13T08:49:15Z</time>
      </trkpt>
      <trkpt lat="47.73515" lon="2.199184">
        <ele>174.0</ele>
        <time>2022-01-13T08:49:16Z</time>
      </trkpt>
      <trkpt lat="47.735157" lon="2.1991653">
        <ele>174.0</ele>
        <time>2022-01-13T08:49:17Z</time>
      </trkpt>
      <trkpt lat="47.73516" lon="2.1991487">
        <ele>174.0</ele>
        <time>2022-01-13T08:49:18Z</time>
      </trkpt>
      <trkpt lat="47.73517" lon="2.1991286">
        <ele>173.0</ele>
        <time>2022-01-13T08:49:19Z</time>
      </trkpt>
      <trkpt lat="47.735172" lon="2.1991081">
        <ele>173.0</ele>
        <time>2022-01-13T08:49:20Z</time>
      </trkpt>
      <trkpt lat="47.735176" lon="2.1990833">
        <ele>173.0</ele>
        <time>2022-01-13T08:49:21Z</time>
      </trkpt>
      <trkpt lat="47.735184" lon="2.1990607">
        <ele>173.0</ele>
        <time>2022-01-13T08:49:22Z</time>
      </trkpt>
      <trkpt lat="47.73519" lon="2.1990445">
        <ele>173.0</ele>
        <time>2022-01-13T08:49:23Z</time>
      </trkpt>
      <trkpt lat="47.7352" lon="2.1990309">
        <ele>173.0</ele>
        <time>2022-01-13T08:49:24Z</time>
      </trkpt>
      <trkpt lat="47.735207" lon="2.19902">
        <ele>173.0</ele>
        <time>2022-01-13T08:49:25Z</time>
      </trkpt>
      <trkpt lat="47.73521" lon="2.1990097">
        <ele>173.0</ele>
        <time>2022-01-13T08:49:26Z</time>
      </trkpt>
      <trkpt lat="47.735218" lon="2.1989934">
        <ele>173.0</ele>
        <time>2022-01-13T08:49:27Z</time>
      </trkpt>
      <trkpt lat="47.735226" lon="2.1989791">
        <ele>172.0</ele>
        <time>2022-01-13T08:49:28Z</time>
      </trkpt>
      <trkpt lat="47.735233" lon="2.1989696">
        <ele>172.0</ele>
        <time>2022-01-13T08:49:29Z</time>
      </trkpt>
      <trkpt lat="47.73524" lon="2.198956">
        <ele>172.0</ele>
        <time>2022-01-13T08:49:30Z</time>
      </trkpt>
      <trkpt lat="47.73525" lon="2.1989405">
        <ele>172.0</ele>
        <time>2022-01-13T08:49:31Z</time>
      </trkpt>
      <trkpt lat="47.735256" lon="2.1989267">
        <ele>173.0</ele>
        <time>2022-01-13T08:49:32Z</time>
      </trkpt>
      <trkpt lat="47.735268" lon="2.1989117">
        <ele>173.0</ele>
        <time>2022-01-13T08:49:33Z</time>
      </trkpt>
      <trkpt lat="47.73527" lon="2.1988974">
        <ele>173.0</ele>
        <time>2022-01-13T08:49:34Z</time>
      </trkpt>
      <trkpt lat="47.735275" lon="2.198878">
        <ele>173.0</ele>
        <time>2022-01-13T08:49:35Z</time>
      </trkpt>
      <trkpt lat="47.735283" lon="2.1988611">
        <ele>172.0</ele>
        <time>2022-01-13T08:49:36Z</time>
      </trkpt>
      <trkpt lat="47.735294" lon="2.1988456">
        <ele>172.0</ele>
        <time>2022-01-13T08:49:37Z</time>
      </trkpt>
      <trkpt lat="47.735306" lon="2.1988268">
        <ele>173.0</ele>
        <time>2022-01-13T08:49:38Z</time>
      </trkpt>
      <trkpt lat="47.735313" lon="2.198813">
        <ele>173.0</ele>
        <time>2022-01-13T08:49:39Z</time>
      </trkpt>
      <trkpt lat="47.735317" lon="2.198805">
        <ele>173.0</ele>
        <time>2022-01-13T08:49:40Z</time>
      </trkpt>
      <trkpt lat="47.735325" lon="2.1987953">
        <ele>174.0</ele>
        <time>2022-01-13T08:49:41Z</time>
      </trkpt>
      <trkpt lat="47.735332" lon="2.1987824">
        <ele>173.0</ele>
        <time>2022-01-13T08:49:42Z</time>
      </trkpt>
      <trkpt lat="47.73534" lon="2.1987665">
        <ele>174.0</ele>
        <time>2022-01-13T08:49:43Z</time>
      </trkpt>
      <trkpt lat="47.735348" lon="2.1987584">
        <ele>174.0</ele>
        <time>2022-01-13T08:49:44Z</time>
      </trkpt>
      <trkpt lat="47.73535" lon="2.198751">
        <ele>173.0</ele>
        <time>2022-01-13T08:49:45Z</time>
      </trkpt>
      <trkpt lat="47.735355" lon="2.1987453">
        <ele>173.0</ele>
        <time>2022-01-13T08:49:46Z</time>
      </trkpt>
      <trkpt lat="47.735363" lon="2.198737">
        <ele>173.0</ele>
        <time>2022-01-13T08:49:47Z</time>
      </trkpt>
      <trkpt lat="47.73537" lon="2.1987238">
        <ele>172.0</ele>
        <time>2022-01-13T08:49:48Z</time>
      </trkpt>
      <trkpt lat="47.73538" lon="2.1987102">
        <ele>173.0</ele>
        <time>2022-01-13T08:49:49Z</time>
      </trkpt>
      <trkpt lat="47.735386" lon="2.198702">
        <ele>173.0</ele>
        <time>2022-01-13T08:49:50Z</time>
      </trkpt>
      <trkpt lat="47.735394" lon="2.1986938">
        <ele>173.0</ele>
        <time>2022-01-13T08:49:51Z</time>
      </trkpt>
      <trkpt lat="47.7354" lon="2.1986842">
        <ele>173.0</ele>
        <time>2022-01-13T08:49:52Z</time>
      </trkpt>
      <trkpt lat="47.73541" lon="2.1986701">
        <ele>173.0</ele>
        <time>2022-01-13T08:49:53Z</time>
      </trkpt>
      <trkpt lat="47.735416" lon="2.1986523">
        <ele>173.0</ele>
        <time>2022-01-13T08:49:54Z</time>
      </trkpt>
      <trkpt lat="47.73542" lon="2.1986446">
        <ele>173.0</ele>
        <time>2022-01-13T08:49:55Z</time>
      </trkpt>
      <trkpt lat="47.735428" lon="2.198635">
        <ele>173.0</ele>
        <time>2022-01-13T08:49:56Z</time>
      </trkpt>
      <trkpt lat="47.735435" lon="2.1986244">
        <ele>173.0</ele>
        <time>2022-01-13T08:49:57Z</time>
      </trkpt>
      <trkpt lat="47.735443" lon="2.1986027">
        <ele>172.0</ele>
        <time>2022-01-13T08:49:58Z</time>
      </trkpt>
      <trkpt lat="47.735447" lon="2.1985877">
        <ele>172.0</ele>
        <time>2022-01-13T08:49:59Z</time>
      </trkpt>
      <trkpt lat="47.735455" lon="2.1985729">
        <ele>172.0</ele>
        <time>2022-01-13T08:50:00Z</time>
      </trkpt>
      <trkpt lat="47.735462" lon="2.1985607">
        <ele>172.0</ele>
        <time>2022-01-13T08:50:01Z</time>
      </trkpt>
      <trkpt lat="47.735474" lon="2.1985457">
        <ele>172.0</ele>
        <time>2022-01-13T08:50:02Z</time>
      </trkpt>
      <trkpt lat="47.73548" lon="2.1985333">
        <ele>172.0</ele>
        <time>2022-01-13T08:50:03Z</time>
      </trkpt>
      <trkpt lat="47.73549" lon="2.1985261">
        <ele>172.0</ele>
        <time>2022-01-13T08:50:04Z</time>
      </trkpt>
      <trkpt lat="47.7355" lon="2.1985147">
        <ele>172.0</ele>
        <time>2022-01-13T08:50:05Z</time>
      </trkpt>
      <trkpt lat="47.7355" lon="2.1984997">
        <ele>173.0</ele>
        <time>2022-01-13T08:50:06Z</time>
      </trkpt>
      <trkpt lat="47.735504" lon="2.1984854">
        <ele>173.0</ele>
        <time>2022-01-13T08:50:07Z</time>
      </trkpt>
      <trkpt lat="47.73551" lon="2.1984777">
        <ele>173.0</ele>
        <time>2022-01-13T08:50:08Z</time>
      </trkpt>
      <trkpt lat="47.73552" lon="2.1984665">
        <ele>173.0</ele>
        <time>2022-01-13T08:50:09Z</time>
      </trkpt>
      <trkpt lat="47.735535" lon="2.1984565">
        <ele>173.0</ele>
        <time>2022-01-13T08:50:10Z</time>
      </trkpt>
      <trkpt lat="47.735542" lon="2.1984522">
        <ele>173.0</ele>
        <time>2022-01-13T08:50:11Z</time>
      </trkpt>
      <trkpt lat="47.735554" lon="2.1984446">
        <ele>173.0</ele>
        <time>2022-01-13T08:50:12Z</time>
      </trkpt>
      <trkpt lat="47.735565" lon="2.1984394">
        <ele>173.0</ele>
        <time>2022-01-13T08:50:13Z</time>
      </trkpt>
      <trkpt lat="47.735577" lon="2.1984327">
        <ele>174.0</ele>
        <time>2022-01-13T08:50:14Z</time>
      </trkpt>
      <trkpt lat="47.73559" lon="2.1984231">
        <ele>174.0</ele>
        <time>2022-01-13T08:50:15Z</time>
      </trkpt>
      <trkpt lat="47.735603" lon="2.1984093">
        <ele>174.0</ele>
        <time>2022-01-13T08:50:16Z</time>
      </trkpt>
      <trkpt lat="47.73562" lon="2.1984031">
        <ele>173.0</ele>
        <time>2022-01-13T08:50:17Z</time>
      </trkpt>
      <trkpt lat="47.73563" lon="2.1984015">
        <ele>173.0</ele>
        <time>2022-01-13T08:50:18Z</time>
      </trkpt>
      <trkpt lat="47.73565" lon="2.1983938">
        <ele>173.0</ele>
        <time>2022-01-13T08:50:19Z</time>
      </trkpt>
      <trkpt lat="47.735664" lon="2.1983824">
        <ele>173.0</ele>
        <time>2022-01-13T08:50:20Z</time>
      </trkpt>
      <trkpt lat="47.735672" lon="2.19838">
        <ele>173.0</ele>
        <time>2022-01-13T08:50:21Z</time>
      </trkpt>
      <trkpt lat="47.73568" lon="2.198382">
        <ele>173.0</ele>
        <time>2022-01-13T08:50:22Z</time>
      </trkpt>
      <trkpt lat="47.735687" lon="2.1983817">
        <ele>173.0</ele>
        <time>2022-01-13T08:50:23Z</time>
      </trkpt>
      <trkpt lat="47.735695" lon="2.198381">
        <ele>173.0</ele>
        <time>2022-01-13T08:50:24Z</time>
      </trkpt>
      <trkpt lat="47.735703" lon="2.198375">
        <ele>173.0</ele>
        <time>2022-01-13T08:50:25Z</time>
      </trkpt>
      <trkpt lat="47.735714" lon="2.1983702">
        <ele>173.0</ele>
        <time>2022-01-13T08:50:26Z</time>
      </trkpt>
      <trkpt lat="47.735725" lon="2.1983678">
        <ele>174.0</ele>
        <time>2022-01-13T08:50:27Z</time>
      </trkpt>
      <trkpt lat="47.735725" lon="2.1983678">
        <ele>174.0</ele>
        <time>2022-01-13T08:50:28Z</time>
      </trkpt>
      <trkpt lat="47.735733" lon="2.198368">
        <ele>174.0</ele>
        <time>2022-01-13T08:50:29Z</time>
      </trkpt>
      <trkpt lat="47.73574" lon="2.1983707">
        <ele>174.0</ele>
        <time>2022-01-13T08:50:30Z</time>
      </trkpt>
      <trkpt lat="47.73574" lon="2.1983707">
        <ele>174.0</ele>
        <time>2022-01-13T08:50:31Z</time>
      </trkpt>
      <trkpt lat="47.735744" lon="2.1983721">
        <ele>174.0</ele>
        <time>2022-01-13T08:50:32Z</time>
      </trkpt>
      <trkpt lat="47.735752" lon="2.1983695">
        <ele>174.0</ele>
        <time>2022-01-13T08:50:33Z</time>
      </trkpt>
      <trkpt lat="47.735756" lon="2.1983628">
        <ele>174.0</ele>
        <time>2022-01-13T08:50:34Z</time>
      </trkpt>
      <trkpt lat="47.735764" lon="2.1983595">
        <ele>174.0</ele>
        <time>2022-01-13T08:50:35Z</time>
      </trkpt>
      <trkpt lat="47.735775" lon="2.198358">
        <ele>174.0</ele>
        <time>2022-01-13T08:50:36Z</time>
      </trkpt>
      <trkpt lat="47.73579" lon="2.1983542">
        <ele>174.0</ele>
        <time>2022-01-13T08:50:37Z</time>
      </trkpt>
      <trkpt lat="47.7358" lon="2.1983538">
        <ele>174.0</ele>
        <time>2022-01-13T08:50:38Z</time>
      </trkpt>
      <trkpt lat="47.73581" lon="2.1983538">
        <ele>173.0</ele>
        <time>2022-01-13T08:50:39Z</time>
      </trkpt>
      <trkpt lat="47.735817" lon="2.1983542">
        <ele>173.0</ele>
        <time>2022-01-13T08:50:40Z</time>
      </trkpt>
      <trkpt lat="47.73583" lon="2.1983528">
        <ele>173.0</ele>
        <time>2022-01-13T08:50:41Z</time>
      </trkpt>
      <trkpt lat="47.735832" lon="2.1983542">
        <ele>173.0</ele>
        <time>2022-01-13T08:50:42Z</time>
      </trkpt>
      <trkpt lat="47.73584" lon="2.1983523">
        <ele>173.0</ele>
        <time>2022-01-13T08:50:43Z</time>
      </trkpt>
      <trkpt lat="47.735847" lon="2.1983585">
        <ele>173.0</ele>
        <time>2022-01-13T08:50:44Z</time>
      </trkpt>
      <trkpt lat="47.735847" lon="2.1983585">
        <ele>173.0</ele>
        <time>2022-01-13T08:50:45Z</time>
      </trkpt>
      <trkpt lat="47.735847" lon="2.1983585">
        <ele>173.0</ele>
        <time>2022-01-13T08:50:46Z</time>
      </trkpt>
      <trkpt lat="47.73587" lon="2.198363">
        <ele>172.0</ele>
        <time>2022-01-13T08:50:47Z</time>
      </trkpt>
      <trkpt lat="47.73588" lon="2.1983578">
        <ele>172.0</ele>
        <time>2022-01-13T08:50:48Z</time>
      </trkpt>
      <trkpt lat="47.735893" lon="2.1983545">
        <ele>173.0</ele>
        <time>2022-01-13T08:50:49Z</time>
      </trkpt>
      <trkpt lat="47.7359" lon="2.1983542">
        <ele>173.0</ele>
        <time>2022-01-13T08:50:50Z</time>
      </trkpt>
      <trkpt lat="47.7359" lon="2.1983542">
        <ele>173.0</ele>
        <time>2022-01-13T08:50:51Z</time>
      </trkpt>
      <trkpt lat="47.7359" lon="2.1983542">
        <ele>173.0</ele>
        <time>2022-01-13T08:50:52Z</time>
      </trkpt>
      <trkpt lat="47.735924" lon="2.1983538">
        <ele>173.0</ele>
        <time>2022-01-13T08:50:53Z</time>
      </trkpt>
      <trkpt lat="47.73593" lon="2.1983519">
        <ele>173.0</ele>
        <time>2022-01-13T08:50:54Z</time>
      </trkpt>
      <trkpt lat="47.73594" lon="2.1983507">
        <ele>173.0</ele>
        <time>2022-01-13T08:50:55Z</time>
      </trkpt>
      <trkpt lat="47.735947" lon="2.1983523">
        <ele>173.0</ele>
        <time>2022-01-13T08:50:56Z</time>
      </trkpt>
      <trkpt lat="47.735947" lon="2.1983523">
        <ele>173.0</ele>
        <time>2022-01-13T08:50:56Z</time>
      </trkpt>
    </trkseg>
    <trkseg>
      <trkpt lat="47.735947" lon="2.1983523">
        <ele>173.0</ele>
        <time>2022-01-13T08:50:56Z</time>
      </trkpt>
      <trkpt lat="47.7361" lon="2.1983724">
        <ele>178.0</ele>
        <time>2022-01-13T08:51:34Z</time>
      </trkpt>
      <trkpt lat="47.73613" lon="2.1983635">
        <ele>177.0</ele>
        <time>2022-01-13T08:51:35Z</time>
      </trkpt>
      <trkpt lat="47.736145" lon="2.1983604">
        <ele>177.0</ele>
        <time>2022-01-13T08:51:36Z</time>
      </trkpt>
      <trkpt lat="47.73616" lon="2.198356">
        <ele>177.0</ele>
        <time>2022-01-13T08:51:37Z</time>
      </trkpt>
      <trkpt lat="47.736168" lon="2.1983428">
        <ele>177.0</ele>
        <time>2022-01-13T08:51:38Z</time>
      </trkpt>
      <trkpt lat="47.736176" lon="2.1983366">
        <ele>177.0</ele>
        <time>2022-01-13T08:51:39Z</time>
      </trkpt>
      <trkpt lat="47.736183" lon="2.1983297">
        <ele>176.0</ele>
        <time>2022-01-13T08:51:40Z</time>
      </trkpt>
      <trkpt lat="47.736195" lon="2.1983266">
        <ele>176.0</ele>
        <time>2022-01-13T08:51:41Z</time>
      </trkpt>
      <trkpt lat="47.736206" lon="2.198316">
        <ele>176.0</ele>
        <time>2022-01-13T08:51:42Z</time>
      </trkpt>
      <trkpt lat="47.736217" lon="2.1983">
        <ele>176.0</ele>
        <time>2022-01-13T08:51:43Z</time>
      </trkpt>
      <trkpt lat="47.736225" lon="2.198287">
        <ele>175.0</ele>
        <time>2022-01-13T08:51:44Z</time>
      </trkpt>
      <trkpt lat="47.736233" lon="2.1982756">
        <ele>174.0</ele>
        <time>2022-01-13T08:51:45Z</time>
      </trkpt>
      <trkpt lat="47.73624" lon="2.1982725">
        <ele>173.0</ele>
        <time>2022-01-13T08:51:46Z</time>
      </trkpt>
      <trkpt lat="47.736248" lon="2.198264">
        <ele>173.0</ele>
        <time>2022-01-13T08:51:47Z</time>
      </trkpt>
      <trkpt lat="47.736256" lon="2.1982548">
        <ele>174.0</ele>
        <time>2022-01-13T08:51:48Z</time>
      </trkpt>
      <trkpt lat="47.736263" lon="2.198233">
        <ele>174.0</ele>
        <time>2022-01-13T08:51:49Z</time>
      </trkpt>
      <trkpt lat="47.73627" lon="2.1982179">
        <ele>173.0</ele>
        <time>2022-01-13T08:51:50Z</time>
      </trkpt>
      <trkpt lat="47.73628" lon="2.1982026">
        <ele>173.0</ele>
        <time>2022-01-13T08:51:51Z</time>
      </trkpt>
      <trkpt lat="47.736286" lon="2.1981874">
        <ele>173.0</ele>
        <time>2022-01-13T08:51:52Z</time>
      </trkpt>
      <trkpt lat="47.736286" lon="2.1981711">
        <ele>173.0</ele>
        <time>2022-01-13T08:51:53Z</time>
      </trkpt>
      <trkpt lat="47.73629" lon="2.1981533">
        <ele>173.0</ele>
        <time>2022-01-13T08:51:54Z</time>
      </trkpt>
      <trkpt lat="47.736298" lon="2.1981404">
        <ele>173.0</ele>
        <time>2022-01-13T08:51:55Z</time>
      </trkpt>
      <trkpt lat="47.736305" lon="2.1981268">
        <ele>173.0</ele>
        <time>2022-01-13T08:51:56Z</time>
      </trkpt>
      <trkpt lat="47.73631" lon="2.1981149">
        <ele>173.0</ele>
        <time>2022-01-13T08:51:57Z</time>
      </trkpt>
      <trkpt lat="47.736313" lon="2.1980984">
        <ele>173.0</ele>
        <time>2022-01-13T08:51:58Z</time>
      </trkpt>
      <trkpt lat="47.736317" lon="2.1980846">
        <ele>173.0</ele>
        <time>2022-01-13T08:51:59Z</time>
      </trkpt>
      <trkpt lat="47.73632" lon="2.19807">
        <ele>173.0</ele>
        <time>2022-01-13T08:52:00Z</time>
      </trkpt>
      <trkpt lat="47.73632" lon="2.1980488">
        <ele>173.0</ele>
        <time>2022-01-13T08:52:01Z</time>
      </trkpt>
      <trkpt lat="47.73632" lon="2.1980338">
        <ele>172.0</ele>
        <time>2022-01-13T08:52:02Z</time>
      </trkpt>
      <trkpt lat="47.736324" lon="2.1980143">
        <ele>172.0</ele>
        <time>2022-01-13T08:52:03Z</time>
      </trkpt>
      <trkpt lat="47.736332" lon="2.1979961">
        <ele>172.0</ele>
        <time>2022-01-13T08:52:04Z</time>
      </trkpt>
      <trkpt lat="47.736343" lon="2.197981">
        <ele>172.0</ele>
        <time>2022-01-13T08:52:05Z</time>
      </trkpt>
      <trkpt lat="47.73636" lon="2.1979706">
        <ele>173.0</ele>
        <time>2022-01-13T08:52:06Z</time>
      </trkpt>
      <trkpt lat="47.73637" lon="2.1979556">
        <ele>173.0</ele>
        <time>2022-01-13T08:52:07Z</time>
      </trkpt>
      <trkpt lat="47.736378" lon="2.197942">
        <ele>172.0</ele>
        <time>2022-01-13T08:52:08Z</time>
      </trkpt>
      <trkpt lat="47.736393" lon="2.1979294">
        <ele>173.0</ele>
        <time>2022-01-13T08:52:09Z</time>
      </trkpt>
      <trkpt lat="47.7364" lon="2.197918">
        <ele>173.0</ele>
        <time>2022-01-13T08:52:10Z</time>
      </trkpt>
      <trkpt lat="47.73641" lon="2.1979032">
        <ele>173.0</ele>
        <time>2022-01-13T08:52:11Z</time>
      </trkpt>
      <trkpt lat="47.736412" lon="2.1978798">
        <ele>174.0</ele>
        <time>2022-01-13T08:52:12Z</time>
      </trkpt>
      <trkpt lat="47.73642" lon="2.1978626">
        <ele>174.0</ele>
        <time>2022-01-13T08:52:13Z</time>
      </trkpt>
      <trkpt lat="47.736423" lon="2.1978524">
        <ele>174.0</ele>
        <time>2022-01-13T08:52:14Z</time>
      </trkpt>
      <trkpt lat="47.736435" lon="2.197839">
        <ele>174.0</ele>
        <time>2022-01-13T08:52:15Z</time>
      </trkpt>
      <trkpt lat="47.736446" lon="2.197823">
        <ele>174.0</ele>
        <time>2022-01-13T08:52:16Z</time>
      </trkpt>
      <trkpt lat="47.736454" lon="2.1978114">
        <ele>174.0</ele>
        <time>2022-01-13T08:52:17Z</time>
      </trkpt>
      <trkpt lat="47.73646" lon="2.1977963">
        <ele>173.0</ele>
        <time>2022-01-13T08:52:18Z</time>
      </trkpt>
      <trkpt lat="47.73647" lon="2.1977823">
        <ele>174.0</ele>
        <time>2022-01-13T08:52:19Z</time>
      </trkpt>
      <trkpt lat="47.736473" lon="2.1977632">
        <ele>174.0</ele>
        <time>2022-01-13T08:52:20Z</time>
      </trkpt>
      <trkpt lat="47.736477" lon="2.1977472">
        <ele>174.0</ele>
        <time>2022-01-13T08:52:21Z</time>
      </trkpt>
      <trkpt lat="47.73648" lon="2.1977258">
        <ele>174.0</ele>
        <time>2022-01-13T08:52:22Z</time>
      </trkpt>
      <trkpt lat="47.736485" lon="2.1977081">
        <ele>175.0</ele>
        <time>2022-01-13T08:52:23Z</time>
      </trkpt>
      <trkpt lat="47.73649" lon="2.1976953">
        <ele>175.0</ele>
        <time>2022-01-13T08:52:24Z</time>
      </trkpt>
      <trkpt lat="47.736496" lon="2.1976788">
        <ele>175.0</ele>
        <time>2022-01-13T08:52:25Z</time>
      </trkpt>
      <trkpt lat="47.736504" lon="2.197664">
        <ele>175.0</ele>
        <time>2022-01-13T08:52:26Z</time>
      </trkpt>
      <trkpt lat="47.736507" lon="2.1976507">
        <ele>176.0</ele>
        <time>2022-01-13T08:52:27Z</time>
      </trkpt>
      <trkpt lat="47.736515" lon="2.1976416">
        <ele>177.0</ele>
        <time>2022-01-13T08:52:28Z</time>
      </trkpt>
      <trkpt lat="47.73652" lon="2.1976335">
        <ele>177.0</ele>
        <time>2022-01-13T08:52:29Z</time>
      </trkpt>
      <trkpt lat="47.736523" lon="2.1976278">
        <ele>177.0</ele>
        <time>2022-01-13T08:52:30Z</time>
      </trkpt>
      <trkpt lat="47.736526" lon="2.197617">
        <ele>177.0</ele>
        <time>2022-01-13T08:52:31Z</time>
      </trkpt>
      <trkpt lat="47.736534" lon="2.1976056">
        <ele>178.0</ele>
        <time>2022-01-13T08:52:32Z</time>
      </trkpt>
      <trkpt lat="47.73654" lon="2.1975908">
        <ele>178.0</ele>
        <time>2022-01-13T08:52:33Z</time>
      </trkpt>
      <trkpt lat="47.73655" lon="2.197576">
        <ele>177.0</ele>
        <time>2022-01-13T08:52:34Z</time>
      </trkpt>
      <trkpt lat="47.736557" lon="2.1975567">
        <ele>177.0</ele>
        <time>2022-01-13T08:52:35Z</time>
      </trkpt>
      <trkpt lat="47.736565" lon="2.1975436">
        <ele>177.0</ele>
        <time>2022-01-13T08:52:36Z</time>
      </trkpt>
      <trkpt lat="47.73657" lon="2.1975293">
        <ele>177.0</ele>
        <time>2022-01-13T08:52:37Z</time>
      </trkpt>
      <trkpt lat="47.73658" lon="2.1975188">
        <ele>177.0</ele>
        <time>2022-01-13T08:52:38Z</time>
      </trkpt>
      <trkpt lat="47.736588" lon="2.1975026">
        <ele>177.0</ele>
        <time>2022-01-13T08:52:39Z</time>
      </trkpt>
      <trkpt lat="47.736595" lon="2.19749">
        <ele>177.0</ele>
        <time>2022-01-13T08:52:40Z</time>
      </trkpt>
      <trkpt lat="47.736607" lon="2.197478">
        <ele>177.0</ele>
        <time>2022-01-13T08:52:41Z</time>
      </trkpt>
      <trkpt lat="47.736618" lon="2.197468">
        <ele>177.0</ele>
        <time>2022-01-13T08:52:42Z</time>
      </trkpt>
      <trkpt lat="47.73662" lon="2.197449">
        <ele>177.0</ele>
        <time>2022-01-13T08:52:43Z</time>
      </trkpt>
      <trkpt lat="47.73663" lon="2.1974359">
        <ele>177.0</ele>
        <time>2022-01-13T08:52:44Z</time>
      </trkpt>
      <trkpt lat="47.736637" lon="2.1974247">
        <ele>177.0</ele>
        <time>2022-01-13T08:52:45Z</time>
      </trkpt>
      <trkpt lat="47.73664" lon="2.1974127">
        <ele>178.0</ele>
        <time>2022-01-13T08:52:46Z</time>
      </trkpt>
      <trkpt lat="47.736645" lon="2.1973958">
        <ele>178.0</ele>
        <time>2022-01-13T08:52:47Z</time>
      </trkpt>
      <trkpt lat="47.736652" lon="2.197377">
        <ele>178.0</ele>
        <time>2022-01-13T08:52:48Z</time>
      </trkpt>
      <trkpt lat="47.73666" lon="2.1973605">
        <ele>178.0</ele>
        <time>2022-01-13T08:52:49Z</time>
      </trkpt>
      <trkpt lat="47.736664" lon="2.1973348">
        <ele>178.0</ele>
        <time>2022-01-13T08:52:50Z</time>
      </trkpt>
      <trkpt lat="47.73667" lon="2.197315">
        <ele>179.0</ele>
        <time>2022-01-13T08:52:51Z</time>
      </trkpt>
      <trkpt lat="47.73668" lon="2.1973002">
        <ele>179.0</ele>
        <time>2022-01-13T08:52:52Z</time>
      </trkpt>
      <trkpt lat="47.736687" lon="2.1972861">
        <ele>179.0</ele>
        <time>2022-01-13T08:52:53Z</time>
      </trkpt>
      <trkpt lat="47.736694" lon="2.19727">
        <ele>179.0</ele>
        <time>2022-01-13T08:52:54Z</time>
      </trkpt>
      <trkpt lat="47.736702" lon="2.197249">
        <ele>179.0</ele>
        <time>2022-01-13T08:52:55Z</time>
      </trkpt>
      <trkpt lat="47.736706" lon="2.1972363">
        <ele>179.0</ele>
        <time>2022-01-13T08:52:56Z</time>
      </trkpt>
      <trkpt lat="47.736706" lon="2.197223">
        <ele>179.0</ele>
        <time>2022-01-13T08:52:57Z</time>
      </trkpt>
      <trkpt lat="47.73671" lon="2.1972005">
        <ele>179.0</ele>
        <time>2022-01-13T08:52:58Z</time>
      </trkpt>
      <trkpt lat="47.736713" lon="2.1971812">
        <ele>179.0</ele>
        <time>2022-01-13T08:52:59Z</time>
      </trkpt>
      <trkpt lat="47.73672" lon="2.1971686">
        <ele>179.0</ele>
        <time>2022-01-13T08:53:00Z</time>
      </trkpt>
      <trkpt lat="47.73673" lon="2.197149">
        <ele>178.0</ele>
        <time>2022-01-13T08:53:01Z</time>
      </trkpt>
      <trkpt lat="47.73673" lon="2.1971288">
        <ele>178.0</ele>
        <time>2022-01-13T08:53:02Z</time>
      </trkpt>
      <trkpt lat="47.73673" lon="2.197108">
        <ele>178.0</ele>
        <time>2022-01-13T08:53:03Z</time>
      </trkpt>
      <trkpt lat="47.736732" lon="2.1970887">
        <ele>179.0</ele>
        <time>2022-01-13T08:53:04Z</time>
      </trkpt>
      <trkpt lat="47.736736" lon="2.1970782">
        <ele>178.0</ele>
        <time>2022-01-13T08:53:05Z</time>
      </trkpt>
      <trkpt lat="47.73674" lon="2.1970637">
        <ele>178.0</ele>
        <time>2022-01-13T08:53:06Z</time>
      </trkpt>
      <trkpt lat="47.736744" lon="2.1970468">
        <ele>178.0</ele>
        <time>2022-01-13T08:53:07Z</time>
      </trkpt>
      <trkpt lat="47.73675" lon="2.1970272">
        <ele>178.0</ele>
        <time>2022-01-13T08:53:08Z</time>
      </trkpt>
      <trkpt lat="47.736755" lon="2.1970074">
        <ele>178.0</ele>
        <time>2022-01-13T08:53:09Z</time>
      </trkpt>
      <trkpt lat="47.736755" lon="2.1969845">
        <ele>178.0</ele>
        <time>2022-01-13T08:53:10Z</time>
      </trkpt>
      <trkpt lat="47.73676" lon="2.196969">
        <ele>178.0</ele>
        <time>2022-01-13T08:53:11Z</time>
      </trkpt>
      <trkpt lat="47.736767" lon="2.196955">
        <ele>178.0</ele>
        <time>2022-01-13T08:53:12Z</time>
      </trkpt>
      <trkpt lat="47.736774" lon="2.1969452">
        <ele>178.0</ele>
        <time>2022-01-13T08:53:13Z</time>
      </trkpt>
      <trkpt lat="47.736774" lon="2.1969402">
        <ele>178.0</ele>
        <time>2022-01-13T08:53:14Z</time>
      </trkpt>
      <trkpt lat="47.736774" lon="2.1969402">
        <ele>178.0</ele>
        <time>2022-01-13T08:53:15Z</time>
      </trkpt>
      <trkpt lat="47.73678" lon="2.1969275">
        <ele>178.0</ele>
        <time>2022-01-13T08:53:16Z</time>
      </trkpt>
      <trkpt lat="47.736782" lon="2.1969097">
        <ele>178.0</ele>
        <time>2022-01-13T08:53:17Z</time>
      </trkpt>
      <trkpt lat="47.73679" lon="2.1968937">
        <ele>179.0</ele>
        <time>2022-01-13T08:53:18Z</time>
      </trkpt>
      <trkpt lat="47.736797" lon="2.1968741">
        <ele>179.0</ele>
        <time>2022-01-13T08:53:19Z</time>
      </trkpt>
      <trkpt lat="47.736805" lon="2.1968563">
        <ele>179.0</ele>
        <time>2022-01-13T08:53:20Z</time>
      </trkpt>
      <trkpt lat="47.736813" lon="2.1968412">
        <ele>179.0</ele>
        <time>2022-01-13T08:53:21Z</time>
      </trkpt>
      <trkpt lat="47.736816" lon="2.1968265">
        <ele>179.0</ele>
        <time>2022-01-13T08:53:22Z</time>
      </trkpt>
      <trkpt lat="47.73682" lon="2.1968148">
        <ele>179.0</ele>
        <time>2022-01-13T08:53:23Z</time>
      </trkpt>
      <trkpt lat="47.73682" lon="2.1968029">
        <ele>179.0</ele>
        <time>2022-01-13T08:53:24Z</time>
      </trkpt>
      <trkpt lat="47.736828" lon="2.1967826">
        <ele>179.0</ele>
        <time>2022-01-13T08:53:25Z</time>
      </trkpt>
      <trkpt lat="47.73683" lon="2.1967642">
        <ele>179.0</ele>
        <time>2022-01-13T08:53:26Z</time>
      </trkpt>
      <trkpt lat="47.736843" lon="2.1967485">
        <ele>179.0</ele>
        <time>2022-01-13T08:53:27Z</time>
      </trkpt>
      <trkpt lat="47.736847" lon="2.1967278">
        <ele>179.0</ele>
        <time>2022-01-13T08:53:28Z</time>
      </trkpt>
      <trkpt lat="47.736855" lon="2.1967137">
        <ele>179.0</ele>
        <time>2022-01-13T08:53:29Z</time>
      </trkpt>
      <trkpt lat="47.736866" lon="2.1967003">
        <ele>180.0</ele>
        <time>2022-01-13T08:53:30Z</time>
      </trkpt>
      <trkpt lat="47.736874" lon="2.1966865">
        <ele>180.0</ele>
        <time>2022-01-13T08:53:31Z</time>
      </trkpt>
      <trkpt lat="47.736877" lon="2.196671">
        <ele>180.0</ele>
        <time>2022-01-13T08:53:32Z</time>
      </trkpt>
      <trkpt lat="47.73688" lon="2.1966562">
        <ele>180.0</ele>
        <time>2022-01-13T08:53:33Z</time>
      </trkpt>
      <trkpt lat="47.736885" lon="2.1966424">
        <ele>180.0</ele>
        <time>2022-01-13T08:53:34Z</time>
      </trkpt>
      <trkpt lat="47.73689" lon="2.1966274">
        <ele>180.0</ele>
        <time>2022-01-13T08:53:35Z</time>
      </trkpt>
      <trkpt lat="47.736893" lon="2.1966126">
        <ele>179.0</ele>
        <time>2022-01-13T08:53:36Z</time>
      </trkpt>
      <trkpt lat="47.7369" lon="2.196599">
        <ele>179.0</ele>
        <time>2022-01-13T08:53:37Z</time>
      </trkpt>
      <trkpt lat="47.736904" lon="2.1965816">
        <ele>179.0</ele>
        <time>2022-01-13T08:53:38Z</time>
      </trkpt>
      <trkpt lat="47.736908" lon="2.1965635">
        <ele>179.0</ele>
        <time>2022-01-13T08:53:39Z</time>
      </trkpt>
      <trkpt lat="47.736916" lon="2.196547">
        <ele>179.0</ele>
        <time>2022-01-13T08:53:40Z</time>
      </trkpt>
      <trkpt lat="47.736923" lon="2.1965349">
        <ele>180.0</ele>
        <time>2022-01-13T08:53:41Z</time>
      </trkpt>
      <trkpt lat="47.736927" lon="2.196518">
        <ele>180.0</ele>
        <time>2022-01-13T08:53:42Z</time>
      </trkpt>
      <trkpt lat="47.73693" lon="2.1964998">
        <ele>180.0</ele>
        <time>2022-01-13T08:53:43Z</time>
      </trkpt>
      <trkpt lat="47.73693" lon="2.1964843">
        <ele>180.0</ele>
        <time>2022-01-13T08:53:44Z</time>
      </trkpt>
      <trkpt lat="47.73694" lon="2.1964726">
        <ele>180.0</ele>
        <time>2022-01-13T08:53:45Z</time>
      </trkpt>
      <trkpt lat="47.736946" lon="2.1964638">
        <ele>180.0</ele>
        <time>2022-01-13T08:53:46Z</time>
      </trkpt>
      <trkpt lat="47.73695" lon="2.1964512">
        <ele>180.0</ele>
        <time>2022-01-13T08:53:47Z</time>
      </trkpt>
      <trkpt lat="47.736954" lon="2.196442">
        <ele>180.0</ele>
        <time>2022-01-13T08:53:48Z</time>
      </trkpt>
      <trkpt lat="47.73696" lon="2.19643">
        <ele>181.0</ele>
        <time>2022-01-13T08:53:49Z</time>
      </trkpt>
      <trkpt lat="47.73697" lon="2.1964157">
        <ele>181.0</ele>
        <time>2022-01-13T08:53:50Z</time>
      </trkpt>
      <trkpt lat="47.736973" lon="2.1964023">
        <ele>181.0</ele>
        <time>2022-01-13T08:53:51Z</time>
      </trkpt>
      <trkpt lat="47.73698" lon="2.1963923">
        <ele>181.0</ele>
        <time>2022-01-13T08:53:52Z</time>
      </trkpt>
      <trkpt lat="47.736988" lon="2.196389">
        <ele>180.0</ele>
        <time>2022-01-13T08:53:53Z</time>
      </trkpt>
      <trkpt lat="47.73699" lon="2.1963751">
        <ele>180.0</ele>
        <time>2022-01-13T08:53:54Z</time>
      </trkpt>
      <trkpt lat="47.736996" lon="2.1963649">
        <ele>180.0</ele>
        <time>2022-01-13T08:53:55Z</time>
      </trkpt>
      <trkpt lat="47.737007" lon="2.1963491">
        <ele>180.0</ele>
        <time>2022-01-13T08:53:56Z</time>
      </trkpt>
      <trkpt lat="47.737015" lon="2.1963305">
        <ele>179.0</ele>
        <time>2022-01-13T08:53:57Z</time>
      </trkpt>
      <trkpt lat="47.737022" lon="2.196311">
        <ele>180.0</ele>
        <time>2022-01-13T08:53:58Z</time>
      </trkpt>
      <trkpt lat="47.73703" lon="2.1962936">
        <ele>180.0</ele>
        <time>2022-01-13T08:53:59Z</time>
      </trkpt>
      <trkpt lat="47.737034" lon="2.1962752">
        <ele>180.0</ele>
        <time>2022-01-13T08:54:00Z</time>
      </trkpt>
      <trkpt lat="47.737038" lon="2.1962557">
        <ele>180.0</ele>
        <time>2022-01-13T08:54:01Z</time>
      </trkpt>
      <trkpt lat="47.737045" lon="2.1962347">
        <ele>179.0</ele>
        <time>2022-01-13T08:54:02Z</time>
      </trkpt>
      <trkpt lat="47.73705" lon="2.1962166">
        <ele>179.0</ele>
        <time>2022-01-13T08:54:03Z</time>
      </trkpt>
      <trkpt lat="47.737053" lon="2.1962006">
        <ele>178.0</ele>
        <time>2022-01-13T08:54:04Z</time>
      </trkpt>
      <trkpt lat="47.73706" lon="2.1961825">
        <ele>178.0</ele>
        <time>2022-01-13T08:54:05Z</time>
      </trkpt>
      <trkpt lat="47.73707" lon="2.1961734">
        <ele>178.0</ele>
        <time>2022-01-13T08:54:06Z</time>
      </trkpt>
      <trkpt lat="47.737072" lon="2.1961553">
        <ele>179.0</ele>
        <time>2022-01-13T08:54:07Z</time>
      </trkpt>
      <trkpt lat="47.73708" lon="2.1961365">
        <ele>178.0</ele>
        <time>2022-01-13T08:54:08Z</time>
      </trkpt>
      <trkpt lat="47.73709" lon="2.1961217">
        <ele>178.0</ele>
        <time>2022-01-13T08:54:09Z</time>
      </trkpt>
      <trkpt lat="47.7371" lon="2.1961064">
        <ele>178.0</ele>
        <time>2022-01-13T08:54:10Z</time>
      </trkpt>
      <trkpt lat="47.737106" lon="2.1960926">
        <ele>178.0</ele>
        <time>2022-01-13T08:54:11Z</time>
      </trkpt>
      <trkpt lat="47.73711" lon="2.1960762">
        <ele>177.0</ele>
        <time>2022-01-13T08:54:12Z</time>
      </trkpt>
      <trkpt lat="47.737118" lon="2.1960623">
        <ele>177.0</ele>
        <time>2022-01-13T08:54:13Z</time>
      </trkpt>
      <trkpt lat="47.73712" lon="2.196045">
        <ele>177.0</ele>
        <time>2022-01-13T08:54:14Z</time>
      </trkpt>
      <trkpt lat="47.73712" lon="2.196029">
        <ele>178.0</ele>
        <time>2022-01-13T08:54:15Z</time>
      </trkpt>
      <trkpt lat="47.737125" lon="2.1960125">
        <ele>178.0</ele>
        <time>2022-01-13T08:54:16Z</time>
      </trkpt>
      <trkpt lat="47.73713" lon="2.195995">
        <ele>178.0</ele>
        <time>2022-01-13T08:54:17Z</time>
      </trkpt>
      <trkpt lat="47.737137" lon="2.1959774">
        <ele>178.0</ele>
        <time>2022-01-13T08:54:18Z</time>
      </trkpt>
      <trkpt lat="47.737144" lon="2.1959589">
        <ele>178.0</ele>
        <time>2022-01-13T08:54:19Z</time>
      </trkpt>
      <trkpt lat="47.737152" lon="2.1959395">
        <ele>177.0</ele>
        <time>2022-01-13T08:54:20Z</time>
      </trkpt>
      <trkpt lat="47.73716" lon="2.1959224">
        <ele>178.0</ele>
        <time>2022-01-13T08:54:21Z</time>
      </trkpt>
      <trkpt lat="47.737167" lon="2.1959052">
        <ele>178.0</ele>
        <time>2022-01-13T08:54:22Z</time>
      </trkpt>
      <trkpt lat="47.737175" lon="2.1958861">
        <ele>178.0</ele>
        <time>2022-01-13T08:54:23Z</time>
      </trkpt>
      <trkpt lat="47.73718" lon="2.19587">
        <ele>178.0</ele>
        <time>2022-01-13T08:54:24Z</time>
      </trkpt>
      <trkpt lat="47.737186" lon="2.1958523">
        <ele>178.0</ele>
        <time>2022-01-13T08:54:25Z</time>
      </trkpt>
      <trkpt lat="47.737194" lon="2.1958332">
        <ele>178.0</ele>
        <time>2022-01-13T08:54:26Z</time>
      </trkpt>
      <trkpt lat="47.737198" lon="2.1958196">
        <ele>178.0</ele>
        <time>2022-01-13T08:54:27Z</time>
      </trkpt>
      <trkpt lat="47.7372" lon="2.195803">
        <ele>178.0</ele>
        <time>2022-01-13T08:54:28Z</time>
      </trkpt>
      <trkpt lat="47.73721" lon="2.1957908">
        <ele>177.0</ele>
        <time>2022-01-13T08:54:29Z</time>
      </trkpt>
      <trkpt lat="47.737217" lon="2.1957762">
        <ele>177.0</ele>
        <time>2022-01-13T08:54:30Z</time>
      </trkpt>
      <trkpt lat="47.73722" lon="2.1957662">
        <ele>177.0</ele>
        <time>2022-01-13T08:54:31Z</time>
      </trkpt>
      <trkpt lat="47.737225" lon="2.1957502">
        <ele>176.0</ele>
        <time>2022-01-13T08:54:32Z</time>
      </trkpt>
      <trkpt lat="47.737232" lon="2.1957352">
        <ele>176.0</ele>
        <time>2022-01-13T08:54:33Z</time>
      </trkpt>
      <trkpt lat="47.73724" lon="2.1957197">
        <ele>177.0</ele>
        <time>2022-01-13T08:54:34Z</time>
      </trkpt>
      <trkpt lat="47.737247" lon="2.1957085">
        <ele>176.0</ele>
        <time>2022-01-13T08:54:35Z</time>
      </trkpt>
      <trkpt lat="47.737255" lon="2.195698">
        <ele>176.0</ele>
        <time>2022-01-13T08:54:36Z</time>
      </trkpt>
      <trkpt lat="47.73726" lon="2.1956813">
        <ele>176.0</ele>
        <time>2022-01-13T08:54:37Z</time>
      </trkpt>
      <trkpt lat="47.737263" lon="2.195669">
        <ele>176.0</ele>
        <time>2022-01-13T08:54:38Z</time>
      </trkpt>
      <trkpt lat="47.737267" lon="2.195651">
        <ele>176.0</ele>
        <time>2022-01-13T08:54:39Z</time>
      </trkpt>
      <trkpt lat="47.737274" lon="2.1956341">
        <ele>176.0</ele>
        <time>2022-01-13T08:54:40Z</time>
      </trkpt>
      <trkpt lat="47.737278" lon="2.195617">
        <ele>177.0</ele>
        <time>2022-01-13T08:54:41Z</time>
      </trkpt>
      <trkpt lat="47.737286" lon="2.1956065">
        <ele>177.0</ele>
        <time>2022-01-13T08:54:42Z</time>
      </trkpt>
      <trkpt lat="47.737293" lon="2.195597">
        <ele>177.0</ele>
        <time>2022-01-13T08:54:43Z</time>
      </trkpt>
      <trkpt lat="47.737297" lon="2.195581">
        <ele>178.0</ele>
        <time>2022-01-13T08:54:44Z</time>
      </trkpt>
      <trkpt lat="47.7373" lon="2.1955628">
        <ele>178.0</ele>
        <time>2022-01-13T08:54:45Z</time>
      </trkpt>
      <trkpt lat="47.73731" lon="2.1955488">
        <ele>178.0</ele>
        <time>2022-01-13T08:54:46Z</time>
      </trkpt>
      <trkpt lat="47.737312" lon="2.1955369">
        <ele>177.0</ele>
        <time>2022-01-13T08:54:47Z</time>
      </trkpt>
      <trkpt lat="47.737316" lon="2.1955216">
        <ele>178.0</ele>
        <time>2022-01-13T08:54:48Z</time>
      </trkpt>
      <trkpt lat="47.737324" lon="2.1955051">
        <ele>178.0</ele>
        <time>2022-01-13T08:54:49Z</time>
      </trkpt>
      <trkpt lat="47.737328" lon="2.1954908">
        <ele>178.0</ele>
        <time>2022-01-13T08:54:50Z</time>
      </trkpt>
      <trkpt lat="47.737335" lon="2.1954782">
        <ele>178.0</ele>
        <time>2022-01-13T08:54:51Z</time>
      </trkpt>
      <trkpt lat="47.73734" lon="2.1954641">
        <ele>178.0</ele>
        <time>2022-01-13T08:54:52Z</time>
      </trkpt>
      <trkpt lat="47.737347" lon="2.195449">
        <ele>178.0</ele>
        <time>2022-01-13T08:54:53Z</time>
      </trkpt>
      <trkpt lat="47.73736" lon="2.1954377">
        <ele>179.0</ele>
        <time>2022-01-13T08:54:54Z</time>
      </trkpt>
      <trkpt lat="47.737366" lon="2.1954212">
        <ele>179.0</ele>
        <time>2022-01-13T08:54:55Z</time>
      </trkpt>
      <trkpt lat="47.737373" lon="2.195409">
        <ele>179.0</ele>
        <time>2022-01-13T08:54:56Z</time>
      </trkpt>
      <trkpt lat="47.737377" lon="2.195385">
        <ele>179.0</ele>
        <time>2022-01-13T08:54:57Z</time>
      </trkpt>
      <trkpt lat="47.73738" lon="2.1953595">
        <ele>179.0</ele>
        <time>2022-01-13T08:54:58Z</time>
      </trkpt>
      <trkpt lat="47.73739" lon="2.195336">
        <ele>179.0</ele>
        <time>2022-01-13T08:54:59Z</time>
      </trkpt>
      <trkpt lat="47.737396" lon="2.1953197">
        <ele>179.0</ele>
        <time>2022-01-13T08:55:00Z</time>
      </trkpt>
      <trkpt lat="47.737404" lon="2.1953118">
        <ele>179.0</ele>
        <time>2022-01-13T08:55:01Z</time>
      </trkpt>
      <trkpt lat="47.737415" lon="2.195294">
        <ele>179.0</ele>
        <time>2022-01-13T08:55:02Z</time>
      </trkpt>
      <trkpt lat="47.73742" lon="2.1952746">
        <ele>178.0</ele>
        <time>2022-01-13T08:55:03Z</time>
      </trkpt>
      <trkpt lat="47.737423" lon="2.1952534">
        <ele>178.0</ele>
        <time>2022-01-13T08:55:04Z</time>
      </trkpt>
      <trkpt lat="47.73743" lon="2.1952415">
        <ele>178.0</ele>
        <time>2022-01-13T08:55:05Z</time>
      </trkpt>
      <trkpt lat="47.73744" lon="2.1952264">
        <ele>178.0</ele>
        <time>2022-01-13T08:55:06Z</time>
      </trkpt>
      <trkpt lat="47.737446" lon="2.1952088">
        <ele>178.0</ele>
        <time>2022-01-13T08:55:07Z</time>
      </trkpt>
      <trkpt lat="47.737453" lon="2.19519">
        <ele>178.0</ele>
        <time>2022-01-13T08:55:08Z</time>
      </trkpt>
      <trkpt lat="47.737457" lon="2.195177">
        <ele>178.0</ele>
        <time>2022-01-13T08:55:09Z</time>
      </trkpt>
      <trkpt lat="47.73747" lon="2.1951635">
        <ele>178.0</ele>
        <time>2022-01-13T08:55:10Z</time>
      </trkpt>
      <trkpt lat="47.737476" lon="2.1951585">
        <ele>178.0</ele>
        <time>2022-01-13T08:55:11Z</time>
      </trkpt>
      <trkpt lat="47.737484" lon="2.1951451">
        <ele>178.0</ele>
        <time>2022-01-13T08:55:12Z</time>
      </trkpt>
      <trkpt lat="47.737488" lon="2.1951354">
        <ele>178.0</ele>
        <time>2022-01-13T08:55:13Z</time>
      </trkpt>
      <trkpt lat="47.737495" lon="2.1951263">
        <ele>179.0</ele>
        <time>2022-01-13T08:55:14Z</time>
      </trkpt>
      <trkpt lat="47.737503" lon="2.1951141">
        <ele>179.0</ele>
        <time>2022-01-13T08:55:15Z</time>
      </trkpt>
      <trkpt lat="47.737514" lon="2.1951075">
        <ele>180.0</ele>
        <time>2022-01-13T08:55:16Z</time>
      </trkpt>
      <trkpt lat="47.737526" lon="2.1950955">
        <ele>180.0</ele>
        <time>2022-01-13T08:55:17Z</time>
      </trkpt>
      <trkpt lat="47.737534" lon="2.1950815">
        <ele>179.0</ele>
        <time>2022-01-13T08:55:18Z</time>
      </trkpt>
      <trkpt lat="47.73754" lon="2.1950705">
        <ele>179.0</ele>
        <time>2022-01-13T08:55:19Z</time>
      </trkpt>
      <trkpt lat="47.73755" lon="2.1950598">
        <ele>179.0</ele>
        <time>2022-01-13T08:55:20Z</time>
      </trkpt>
      <trkpt lat="47.73756" lon="2.1950495">
        <ele>179.0</ele>
        <time>2022-01-13T08:55:21Z</time>
      </trkpt>
      <trkpt lat="47.73757" lon="2.1950397">
        <ele>179.0</ele>
        <time>2022-01-13T08:55:22Z</time>
      </trkpt>
      <trkpt lat="47.73758" lon="2.1950321">
        <ele>179.0</ele>
        <time>2022-01-13T08:55:23Z</time>
      </trkpt>
      <trkpt lat="47.73759" lon="2.195026">
        <ele>179.0</ele>
        <time>2022-01-13T08:55:24Z</time>
      </trkpt>
      <trkpt lat="47.737602" lon="2.1950192">
        <ele>179.0</ele>
        <time>2022-01-13T08:55:25Z</time>
      </trkpt>
      <trkpt lat="47.737614" lon="2.195014">
        <ele>179.0</ele>
        <time>2022-01-13T08:55:26Z</time>
      </trkpt>
      <trkpt lat="47.737625" lon="2.1950073">
        <ele>179.0</ele>
        <time>2022-01-13T08:55:27Z</time>
      </trkpt>
      <trkpt lat="47.737637" lon="2.1949992">
        <ele>179.0</ele>
        <time>2022-01-13T08:55:28Z</time>
      </trkpt>
      <trkpt lat="47.737648" lon="2.1949904">
        <ele>179.0</ele>
        <time>2022-01-13T08:55:29Z</time>
      </trkpt>
      <trkpt lat="47.73766" lon="2.1949863">
        <ele>179.0</ele>
        <time>2022-01-13T08:55:30Z</time>
      </trkpt>
      <trkpt lat="47.737667" lon="2.1949792">
        <ele>179.0</ele>
        <time>2022-01-13T08:55:31Z</time>
      </trkpt>
      <trkpt lat="47.737675" lon="2.1949782">
        <ele>179.0</ele>
        <time>2022-01-13T08:55:32Z</time>
      </trkpt>
      <trkpt lat="47.737682" lon="2.1949742">
        <ele>179.0</ele>
        <time>2022-01-13T08:55:33Z</time>
      </trkpt>
      <trkpt lat="47.73769" lon="2.1949716">
        <ele>179.0</ele>
        <time>2022-01-13T08:55:34Z</time>
      </trkpt>
      <trkpt lat="47.7377" lon="2.1949675">
        <ele>180.0</ele>
        <time>2022-01-13T08:55:35Z</time>
      </trkpt>
      <trkpt lat="47.737717" lon="2.1949575">
        <ele>179.0</ele>
        <time>2022-01-13T08:55:36Z</time>
      </trkpt>
      <trkpt lat="47.73773" lon="2.1949475">
        <ele>180.0</ele>
        <time>2022-01-13T08:55:37Z</time>
      </trkpt>
      <trkpt lat="47.73774" lon="2.1949403">
        <ele>179.0</ele>
        <time>2022-01-13T08:55:38Z</time>
      </trkpt>
      <trkpt lat="47.737755" lon="2.1949363">
        <ele>179.0</ele>
        <time>2022-01-13T08:55:39Z</time>
      </trkpt>
      <trkpt lat="47.737762" lon="2.1949315">
        <ele>179.0</ele>
        <time>2022-01-13T08:55:40Z</time>
      </trkpt>
      <trkpt lat="47.737774" lon="2.1949253">
        <ele>179.0</ele>
        <time>2022-01-13T08:55:41Z</time>
      </trkpt>
      <trkpt lat="47.737785" lon="2.1949277">
        <ele>180.0</ele>
        <time>2022-01-13T08:55:42Z</time>
      </trkpt>
      <trkpt lat="47.737793" lon="2.194926">
        <ele>179.0</ele>
        <time>2022-01-13T08:55:43Z</time>
      </trkpt>
      <trkpt lat="47.737793" lon="2.194922">
        <ele>179.0</ele>
        <time>2022-01-13T08:55:44Z</time>
      </trkpt>
      <trkpt lat="47.7378" lon="2.1949174">
        <ele>179.0</ele>
        <time>2022-01-13T08:55:45Z</time>
      </trkpt>
      <trkpt lat="47.73781" lon="2.1949139">
        <ele>179.0</ele>
        <time>2022-01-13T08:55:46Z</time>
      </trkpt>
      <trkpt lat="47.737816" lon="2.194909">
        <ele>179.0</ele>
        <time>2022-01-13T08:55:47Z</time>
      </trkpt>
      <trkpt lat="47.737823" lon="2.1949043">
        <ele>179.0</ele>
        <time>2022-01-13T08:55:48Z</time>
      </trkpt>
      <trkpt lat="47.73783" lon="2.1949005">
        <ele>179.0</ele>
        <time>2022-01-13T08:55:49Z</time>
      </trkpt>
      <trkpt lat="47.73783" lon="2.1949005">
        <ele>179.0</ele>
        <time>2022-01-13T08:55:50Z</time>
      </trkpt>
      <trkpt lat="47.73783" lon="2.1949005">
        <ele>179.0</ele>
        <time>2022-01-13T08:55:51Z</time>
      </trkpt>
      <trkpt lat="47.737846" lon="2.1948876">
        <ele>180.0</ele>
        <time>2022-01-13T08:55:52Z</time>
      </trkpt>
      <trkpt lat="47.737854" lon="2.1948826">
        <ele>179.0</ele>
        <time>2022-01-13T08:55:53Z</time>
      </trkpt>
      <trkpt lat="47.73786" lon="2.194876">
        <ele>180.0</ele>
        <time>2022-01-13T08:55:54Z</time>
      </trkpt>
      <trkpt lat="47.737873" lon="2.1948707">
        <ele>179.0</ele>
        <time>2022-01-13T08:55:55Z</time>
      </trkpt>
      <trkpt lat="47.737885" lon="2.1948617">
        <ele>180.0</ele>
        <time>2022-01-13T08:55:56Z</time>
      </trkpt>
      <trkpt lat="47.737896" lon="2.1948514">
        <ele>180.0</ele>
        <time>2022-01-13T08:55:57Z</time>
      </trkpt>
      <trkpt lat="47.737907" lon="2.194843">
        <ele>180.0</ele>
        <time>2022-01-13T08:55:58Z</time>
      </trkpt>
      <trkpt lat="47.73792" lon="2.1948326">
        <ele>181.0</ele>
        <time>2022-01-13T08:55:59Z</time>
      </trkpt>
      <trkpt lat="47.737923" lon="2.1948228">
        <ele>181.0</ele>
        <time>2022-01-13T08:56:00Z</time>
      </trkpt>
      <trkpt lat="47.737926" lon="2.1948164">
        <ele>181.0</ele>
        <time>2022-01-13T08:56:01Z</time>
      </trkpt>
      <trkpt lat="47.737938" lon="2.194804">
        <ele>181.0</ele>
        <time>2022-01-13T08:56:02Z</time>
      </trkpt>
      <trkpt lat="47.737946" lon="2.1947916">
        <ele>181.0</ele>
        <time>2022-01-13T08:56:03Z</time>
      </trkpt>
      <trkpt lat="47.737953" lon="2.1947806">
        <ele>181.0</ele>
        <time>2022-01-13T08:56:04Z</time>
      </trkpt>
      <trkpt lat="47.737965" lon="2.1947734">
        <ele>181.0</ele>
        <time>2022-01-13T08:56:05Z</time>
      </trkpt>
      <trkpt lat="47.73797" lon="2.1947694">
        <ele>180.0</ele>
        <time>2022-01-13T08:56:06Z</time>
      </trkpt>
      <trkpt lat="47.737972" lon="2.1947649">
        <ele>180.0</ele>
        <time>2022-01-13T08:56:07Z</time>
      </trkpt>
      <trkpt lat="47.737984" lon="2.1947637">
        <ele>179.0</ele>
        <time>2022-01-13T08:56:08Z</time>
      </trkpt>
      <trkpt lat="47.737995" lon="2.1947608">
        <ele>178.0</ele>
        <time>2022-01-13T08:56:09Z</time>
      </trkpt>
      <trkpt lat="47.738018" lon="2.1947553">
        <ele>178.0</ele>
        <time>2022-01-13T08:56:10Z</time>
      </trkpt>
      <trkpt lat="47.73803" lon="2.1947494">
        <ele>179.0</ele>
        <time>2022-01-13T08:56:11Z</time>
      </trkpt>
      <trkpt lat="47.738033" lon="2.1947415">
        <ele>178.0</ele>
        <time>2022-01-13T08:56:12Z</time>
      </trkpt>
      <trkpt lat="47.738033" lon="2.1947415">
        <ele>178.0</ele>
        <time>2022-01-13T08:56:13Z</time>
      </trkpt>
      <trkpt lat="47.738056" lon="2.194731">
        <ele>178.0</ele>
        <time>2022-01-13T08:56:14Z</time>
      </trkpt>
      <trkpt lat="47.738068" lon="2.1947253">
        <ele>178.0</ele>
        <time>2022-01-13T08:56:15Z</time>
      </trkpt>
      <trkpt lat="47.738083" lon="2.1947265">
        <ele>178.0</ele>
        <time>2022-01-13T08:56:16Z</time>
      </trkpt>
      <trkpt lat="47.7381" lon="2.1947193">
        <ele>178.0</ele>
        <time>2022-01-13T08:56:17Z</time>
      </trkpt>
      <trkpt lat="47.738113" lon="2.1947126">
        <ele>178.0</ele>
        <time>2022-01-13T08:56:18Z</time>
      </trkpt>
      <trkpt lat="47.73813" lon="2.194708">
        <ele>178.0</ele>
        <time>2022-01-13T08:56:19Z</time>
      </trkpt>
      <trkpt lat="47.738144" lon="2.1947076">
        <ele>177.0</ele>
        <time>2022-01-13T08:56:20Z</time>
      </trkpt>
      <trkpt lat="47.738163" lon="2.1946993">
        <ele>177.0</ele>
        <time>2022-01-13T08:56:21Z</time>
      </trkpt>
      <trkpt lat="47.738174" lon="2.1947">
        <ele>177.0</ele>
        <time>2022-01-13T08:56:22Z</time>
      </trkpt>
      <trkpt lat="47.738186" lon="2.1946993">
        <ele>176.0</ele>
        <time>2022-01-13T08:56:23Z</time>
      </trkpt>
      <trkpt lat="47.7382" lon="2.1947036">
        <ele>177.0</ele>
        <time>2022-01-13T08:56:24Z</time>
      </trkpt>
      <trkpt lat="47.738213" lon="2.1947064">
        <ele>177.0</ele>
        <time>2022-01-13T08:56:25Z</time>
      </trkpt>
      <trkpt lat="47.73822" lon="2.1947124">
        <ele>176.0</ele>
        <time>2022-01-13T08:56:26Z</time>
      </trkpt>
      <trkpt lat="47.73823" lon="2.194714">
        <ele>176.0</ele>
        <time>2022-01-13T08:56:27Z</time>
      </trkpt>
      <trkpt lat="47.73824" lon="2.1947145">
        <ele>176.0</ele>
        <time>2022-01-13T08:56:28Z</time>
      </trkpt>
      <trkpt lat="47.738247" lon="2.1947148">
        <ele>175.0</ele>
        <time>2022-01-13T08:56:29Z</time>
      </trkpt>
      <trkpt lat="47.73826" lon="2.194712">
        <ele>176.0</ele>
        <time>2022-01-13T08:56:30Z</time>
      </trkpt>
      <trkpt lat="47.73827" lon="2.1947079">
        <ele>176.0</ele>
        <time>2022-01-13T08:56:31Z</time>
      </trkpt>
      <trkpt lat="47.73828" lon="2.1946955">
        <ele>176.0</ele>
        <time>2022-01-13T08:56:32Z</time>
      </trkpt>
      <trkpt lat="47.738297" lon="2.194687">
        <ele>176.0</ele>
        <time>2022-01-13T08:56:33Z</time>
      </trkpt>
      <trkpt lat="47.738308" lon="2.194675">
        <ele>175.0</ele>
        <time>2022-01-13T08:56:34Z</time>
      </trkpt>
      <trkpt lat="47.738323" lon="2.194662">
        <ele>175.0</ele>
        <time>2022-01-13T08:56:35Z</time>
      </trkpt>
      <trkpt lat="47.738335" lon="2.1946595">
        <ele>175.0</ele>
        <time>2022-01-13T08:56:36Z</time>
      </trkpt>
      <trkpt lat="47.738342" lon="2.1946588">
        <ele>174.0</ele>
        <time>2022-01-13T08:56:37Z</time>
      </trkpt>
      <trkpt lat="47.738346" lon="2.1946578">
        <ele>174.0</ele>
        <time>2022-01-13T08:56:38Z</time>
      </trkpt>
      <trkpt lat="47.738354" lon="2.194659">
        <ele>175.0</ele>
        <time>2022-01-13T08:56:39Z</time>
      </trkpt>
      <trkpt lat="47.738354" lon="2.194659">
        <ele>175.0</ele>
        <time>2022-01-13T08:56:40Z</time>
      </trkpt>
      <trkpt lat="47.73837" lon="2.1946497">
        <ele>176.0</ele>
        <time>2022-01-13T08:56:41Z</time>
      </trkpt>
      <trkpt lat="47.738377" lon="2.1946502">
        <ele>175.0</ele>
        <time>2022-01-13T08:56:42Z</time>
      </trkpt>
      <trkpt lat="47.738384" lon="2.1946518">
        <ele>175.0</ele>
        <time>2022-01-13T08:56:43Z</time>
      </trkpt>
      <trkpt lat="47.738388" lon="2.1946554">
        <ele>175.0</ele>
        <time>2022-01-13T08:56:44Z</time>
      </trkpt>
      <trkpt lat="47.738388" lon="2.1946554">
        <ele>175.0</ele>
        <time>2022-01-13T08:56:45Z</time>
      </trkpt>
      <trkpt lat="47.738407" lon="2.1946537">
        <ele>176.0</ele>
        <time>2022-01-13T08:56:46Z</time>
      </trkpt>
      <trkpt lat="47.73842" lon="2.1946557">
        <ele>176.0</ele>
        <time>2022-01-13T08:56:47Z</time>
      </trkpt>
      <trkpt lat="47.738434" lon="2.194656">
        <ele>176.0</ele>
        <time>2022-01-13T08:56:48Z</time>
      </trkpt>
      <trkpt lat="47.73845" lon="2.194654">
        <ele>176.0</ele>
        <time>2022-01-13T08:56:49Z</time>
      </trkpt>
      <trkpt lat="47.738464" lon="2.1946537">
        <ele>176.0</ele>
        <time>2022-01-13T08:56:50Z</time>
      </trkpt>
      <trkpt lat="47.73848" lon="2.1946507">
        <ele>177.0</ele>
        <time>2022-01-13T08:56:51Z</time>
      </trkpt>
      <trkpt lat="47.7385" lon="2.1946487">
        <ele>177.0</ele>
        <time>2022-01-13T08:56:52Z</time>
      </trkpt>
      <trkpt lat="47.738514" lon="2.19465">
        <ele>177.0</ele>
        <time>2022-01-13T08:56:53Z</time>
      </trkpt>
      <trkpt lat="47.738525" lon="2.1946487">
        <ele>177.0</ele>
        <time>2022-01-13T08:56:54Z</time>
      </trkpt>
      <trkpt lat="47.738537" lon="2.1946387">
        <ele>177.0</ele>
        <time>2022-01-13T08:56:55Z</time>
      </trkpt>
      <trkpt lat="47.738544" lon="2.194633">
        <ele>177.0</ele>
        <time>2022-01-13T08:56:56Z</time>
      </trkpt>
      <trkpt lat="47.738556" lon="2.1946273">
        <ele>177.0</ele>
        <time>2022-01-13T08:56:57Z</time>
      </trkpt>
      <trkpt lat="47.73857" lon="2.1946275">
        <ele>177.0</ele>
        <time>2022-01-13T08:56:58Z</time>
      </trkpt>
      <trkpt lat="47.738583" lon="2.1946273">
        <ele>177.0</ele>
        <time>2022-01-13T08:56:59Z</time>
      </trkpt>
      <trkpt lat="47.738598" lon="2.1946247">
        <ele>178.0</ele>
        <time>2022-01-13T08:57:00Z</time>
      </trkpt>
      <trkpt lat="47.73861" lon="2.1946235">
        <ele>177.0</ele>
        <time>2022-01-13T08:57:01Z</time>
      </trkpt>
      <trkpt lat="47.73862" lon="2.1946218">
        <ele>177.0</ele>
        <time>2022-01-13T08:57:02Z</time>
      </trkpt>
      <trkpt lat="47.738632" lon="2.1946192">
        <ele>178.0</ele>
        <time>2022-01-13T08:57:03Z</time>
      </trkpt>
      <trkpt lat="47.738644" lon="2.194615">
        <ele>178.0</ele>
        <time>2022-01-13T08:57:04Z</time>
      </trkpt>
      <trkpt lat="47.73865" lon="2.1946125">
        <ele>177.0</ele>
        <time>2022-01-13T08:57:05Z</time>
      </trkpt>
      <trkpt lat="47.738663" lon="2.1946123">
        <ele>177.0</ele>
        <time>2022-01-13T08:57:06Z</time>
      </trkpt>
      <trkpt lat="47.73867" lon="2.1946092">
        <ele>177.0</ele>
        <time>2022-01-13T08:57:07Z</time>
      </trkpt>
      <trkpt lat="47.73868" lon="2.1946096">
        <ele>176.0</ele>
        <time>2022-01-13T08:57:08Z</time>
      </trkpt>
      <trkpt lat="47.738697" lon="2.1946099">
        <ele>176.0</ele>
        <time>2022-01-13T08:57:09Z</time>
      </trkpt>
      <trkpt lat="47.73871" lon="2.1946077">
        <ele>177.0</ele>
        <time>2022-01-13T08:57:10Z</time>
      </trkpt>
      <trkpt lat="47.73872" lon="2.1946065">
        <ele>177.0</ele>
        <time>2022-01-13T08:57:11Z</time>
      </trkpt>
      <trkpt lat="47.738735" lon="2.1946075">
        <ele>177.0</ele>
        <time>2022-01-13T08:57:12Z</time>
      </trkpt>
      <trkpt lat="47.738743" lon="2.194606">
        <ele>177.0</ele>
        <time>2022-01-13T08:57:13Z</time>
      </trkpt>
      <trkpt lat="47.738754" lon="2.194605">
        <ele>177.0</ele>
        <time>2022-01-13T08:57:14Z</time>
      </trkpt>
      <trkpt lat="47.738766" lon="2.1946032">
        <ele>176.0</ele>
        <time>2022-01-13T08:57:15Z</time>
      </trkpt>
      <trkpt lat="47.738773" lon="2.1946044">
        <ele>176.0</ele>
        <time>2022-01-13T08:57:16Z</time>
      </trkpt>
      <trkpt lat="47.738785" lon="2.194599">
        <ele>177.0</ele>
        <time>2022-01-13T08:57:17Z</time>
      </trkpt>
      <trkpt lat="47.738792" lon="2.1945972">
        <ele>177.0</ele>
        <time>2022-01-13T08:57:18Z</time>
      </trkpt>
      <trkpt lat="47.738804" lon="2.1945987">
        <ele>177.0</ele>
        <time>2022-01-13T08:57:19Z</time>
      </trkpt>
      <trkpt lat="47.73881" lon="2.194597">
        <ele>176.0</ele>
        <time>2022-01-13T08:57:20Z</time>
      </trkpt>
      <trkpt lat="47.73882" lon="2.1945968">
        <ele>176.0</ele>
        <time>2022-01-13T08:57:21Z</time>
      </trkpt>
      <trkpt lat="47.73883" lon="2.1945913">
        <ele>176.0</ele>
        <time>2022-01-13T08:57:22Z</time>
      </trkpt>
      <trkpt lat="47.738846" lon="2.1945856">
        <ele>176.0</ele>
        <time>2022-01-13T08:57:23Z</time>
      </trkpt>
      <trkpt lat="47.73886" lon="2.194583">
        <ele>177.0</ele>
        <time>2022-01-13T08:57:24Z</time>
      </trkpt>
      <trkpt lat="47.738876" lon="2.1945863">
        <ele>177.0</ele>
        <time>2022-01-13T08:57:25Z</time>
      </trkpt>
      <trkpt lat="47.738888" lon="2.19459">
        <ele>178.0</ele>
        <time>2022-01-13T08:57:26Z</time>
      </trkpt>
      <trkpt lat="47.738895" lon="2.1945887">
        <ele>178.0</ele>
        <time>2022-01-13T08:57:27Z</time>
      </trkpt>
      <trkpt lat="47.738903" lon="2.1945894">
        <ele>178.0</ele>
        <time>2022-01-13T08:57:28Z</time>
      </trkpt>
      <trkpt lat="47.738914" lon="2.1945884">
        <ele>178.0</ele>
        <time>2022-01-13T08:57:29Z</time>
      </trkpt>
      <trkpt lat="47.738926" lon="2.1945865">
        <ele>178.0</ele>
        <time>2022-01-13T08:57:30Z</time>
      </trkpt>
      <trkpt lat="47.73894" lon="2.1945856">
        <ele>178.0</ele>
        <time>2022-01-13T08:57:31Z</time>
      </trkpt>
      <trkpt lat="47.73895" lon="2.1945841">
        <ele>178.0</ele>
        <time>2022-01-13T08:57:32Z</time>
      </trkpt>
      <trkpt lat="47.738956" lon="2.1945806">
        <ele>178.0</ele>
        <time>2022-01-13T08:57:33Z</time>
      </trkpt>
      <trkpt lat="47.738968" lon="2.1945777">
        <ele>178.0</ele>
        <time>2022-01-13T08:57:34Z</time>
      </trkpt>
      <trkpt lat="47.73898" lon="2.1945755">
        <ele>178.0</ele>
        <time>2022-01-13T08:57:35Z</time>
      </trkpt>
      <trkpt lat="47.739" lon="2.1945708">
        <ele>178.0</ele>
        <time>2022-01-13T08:57:36Z</time>
      </trkpt>
      <trkpt lat="47.739014" lon="2.1945674">
        <ele>178.0</ele>
        <time>2022-01-13T08:57:37Z</time>
      </trkpt>
      <trkpt lat="47.73903" lon="2.1945553">
        <ele>178.0</ele>
        <time>2022-01-13T08:57:38Z</time>
      </trkpt>
      <trkpt lat="47.739044" lon="2.1945524">
        <ele>177.0</ele>
        <time>2022-01-13T08:57:39Z</time>
      </trkpt>
      <trkpt lat="47.739056" lon="2.1945503">
        <ele>177.0</ele>
        <time>2022-01-13T08:57:40Z</time>
      </trkpt>
      <trkpt lat="47.739067" lon="2.194543">
        <ele>177.0</ele>
        <time>2022-01-13T08:57:41Z</time>
      </trkpt>
      <trkpt lat="47.739082" lon="2.1945431">
        <ele>178.0</ele>
        <time>2022-01-13T08:57:42Z</time>
      </trkpt>
      <trkpt lat="47.739098" lon="2.1945393">
        <ele>178.0</ele>
        <time>2022-01-13T08:57:43Z</time>
      </trkpt>
      <trkpt lat="47.739113" lon="2.194532">
        <ele>178.0</ele>
        <time>2022-01-13T08:57:44Z</time>
      </trkpt>
      <trkpt lat="47.739124" lon="2.1945317">
        <ele>178.0</ele>
        <time>2022-01-13T08:57:45Z</time>
      </trkpt>
      <trkpt lat="47.739136" lon="2.1945276">
        <ele>177.0</ele>
        <time>2022-01-13T08:57:46Z</time>
      </trkpt>
      <trkpt lat="47.73915" lon="2.1945126">
        <ele>177.0</ele>
        <time>2022-01-13T08:57:47Z</time>
      </trkpt>
      <trkpt lat="47.739166" lon="2.1945045">
        <ele>178.0</ele>
        <time>2022-01-13T08:57:48Z</time>
      </trkpt>
      <trkpt lat="47.739178" lon="2.1944997">
        <ele>177.0</ele>
        <time>2022-01-13T08:57:49Z</time>
      </trkpt>
      <trkpt lat="47.73919" lon="2.1945014">
        <ele>177.0</ele>
        <time>2022-01-13T08:57:50Z</time>
      </trkpt>
      <trkpt lat="47.739197" lon="2.1945012">
        <ele>177.0</ele>
        <time>2022-01-13T08:57:51Z</time>
      </trkpt>
      <trkpt lat="47.73921" lon="2.1945043">
        <ele>177.0</ele>
        <time>2022-01-13T08:57:52Z</time>
      </trkpt>
      <trkpt lat="47.739223" lon="2.1945047">
        <ele>177.0</ele>
        <time>2022-01-13T08:57:53Z</time>
      </trkpt>
      <trkpt lat="47.739235" lon="2.1945043">
        <ele>177.0</ele>
        <time>2022-01-13T08:57:54Z</time>
      </trkpt>
      <trkpt lat="47.739246" lon="2.194498">
        <ele>177.0</ele>
        <time>2022-01-13T08:57:55Z</time>
      </trkpt>
      <trkpt lat="47.73926" lon="2.1944962">
        <ele>177.0</ele>
        <time>2022-01-13T08:57:56Z</time>
      </trkpt>
      <trkpt lat="47.739273" lon="2.1945038">
        <ele>177.0</ele>
        <time>2022-01-13T08:57:57Z</time>
      </trkpt>
      <trkpt lat="47.73928" lon="2.194506">
        <ele>177.0</ele>
        <time>2022-01-13T08:57:58Z</time>
      </trkpt>
      <trkpt lat="47.739285" lon="2.1945047">
        <ele>176.0</ele>
        <time>2022-01-13T08:57:59Z</time>
      </trkpt>
      <trkpt lat="47.739292" lon="2.1945045">
        <ele>176.0</ele>
        <time>2022-01-13T08:58:00Z</time>
      </trkpt>
      <trkpt lat="47.7393" lon="2.1945007">
        <ele>176.0</ele>
        <time>2022-01-13T08:58:01Z</time>
      </trkpt>
      <trkpt lat="47.7393" lon="2.1945007">
        <ele>176.0</ele>
        <time>2022-01-13T08:58:02Z</time>
      </trkpt>
      <trkpt lat="47.7393" lon="2.1945007">
        <ele>176.0</ele>
        <time>2022-01-13T08:58:03Z</time>
      </trkpt>
      <trkpt lat="47.739323" lon="2.1945033">
        <ele>176.0</ele>
        <time>2022-01-13T08:58:04Z</time>
      </trkpt>
      <trkpt lat="47.739326" lon="2.1945052">
        <ele>175.0</ele>
        <time>2022-01-13T08:58:05Z</time>
      </trkpt>
      <trkpt lat="47.739338" lon="2.1945043">
        <ele>175.0</ele>
        <time>2022-01-13T08:58:06Z</time>
      </trkpt>
      <trkpt lat="47.739353" lon="2.194499">
        <ele>175.0</ele>
        <time>2022-01-13T08:58:07Z</time>
      </trkpt>
      <trkpt lat="47.73936" lon="2.1944902">
        <ele>175.0</ele>
        <time>2022-01-13T08:58:08Z</time>
      </trkpt>
      <trkpt lat="47.73937" lon="2.1944847">
        <ele>175.0</ele>
        <time>2022-01-13T08:58:09Z</time>
      </trkpt>
      <trkpt lat="47.739376" lon="2.1944935">
        <ele>175.0</ele>
        <time>2022-01-13T08:58:10Z</time>
      </trkpt>
      <trkpt lat="47.739384" lon="2.1945026">
        <ele>175.0</ele>
        <time>2022-01-13T08:58:11Z</time>
      </trkpt>
      <trkpt lat="47.73939" lon="2.194509">
        <ele>175.0</ele>
        <time>2022-01-13T08:58:12Z</time>
      </trkpt>
      <trkpt lat="47.739403" lon="2.1945019">
        <ele>175.0</ele>
        <time>2022-01-13T08:58:13Z</time>
      </trkpt>
      <trkpt lat="47.739414" lon="2.1944933">
        <ele>175.0</ele>
        <time>2022-01-13T08:58:14Z</time>
      </trkpt>
      <trkpt lat="47.73942" lon="2.194493">
        <ele>175.0</ele>
        <time>2022-01-13T08:58:15Z</time>
      </trkpt>
      <trkpt lat="47.739433" lon="2.1944916">
        <ele>175.0</ele>
        <time>2022-01-13T08:58:16Z</time>
      </trkpt>
      <trkpt lat="47.73945" lon="2.194481">
        <ele>175.0</ele>
        <time>2022-01-13T08:58:17Z</time>
      </trkpt>
      <trkpt lat="47.739456" lon="2.1944764">
        <ele>175.0</ele>
        <time>2022-01-13T08:58:18Z</time>
      </trkpt>
      <trkpt lat="47.739464" lon="2.1944714">
        <ele>175.0</ele>
        <time>2022-01-13T08:58:19Z</time>
      </trkpt>
      <trkpt lat="47.73947" lon="2.194458">
        <ele>176.0</ele>
        <time>2022-01-13T08:58:20Z</time>
      </trkpt>
      <trkpt lat="47.73948" lon="2.1944518">
        <ele>176.0</ele>
        <time>2022-01-13T08:58:21Z</time>
      </trkpt>
      <trkpt lat="47.73949" lon="2.1944485">
        <ele>176.0</ele>
        <time>2022-01-13T08:58:22Z</time>
      </trkpt>
      <trkpt lat="47.739502" lon="2.1944463">
        <ele>176.0</ele>
        <time>2022-01-13T08:58:23Z</time>
      </trkpt>
      <trkpt lat="47.739506" lon="2.1944513">
        <ele>176.0</ele>
        <time>2022-01-13T08:58:24Z</time>
      </trkpt>
      <trkpt lat="47.739513" lon="2.194447">
        <ele>176.0</ele>
        <time>2022-01-13T08:58:25Z</time>
      </trkpt>
      <trkpt lat="47.739525" lon="2.1944478">
        <ele>176.0</ele>
        <time>2022-01-13T08:58:26Z</time>
      </trkpt>
      <trkpt lat="47.739525" lon="2.1944478">
        <ele>176.0</ele>
        <time>2022-01-13T08:58:27Z</time>
      </trkpt>
      <trkpt lat="47.739525" lon="2.1944478">
        <ele>176.0</ele>
        <time>2022-01-13T08:58:28Z</time>
      </trkpt>
      <trkpt lat="47.739548" lon="2.1944485">
        <ele>177.0</ele>
        <time>2022-01-13T08:58:29Z</time>
      </trkpt>
      <trkpt lat="47.739555" lon="2.1944473">
        <ele>177.0</ele>
        <time>2022-01-13T08:58:30Z</time>
      </trkpt>
      <trkpt lat="47.73957" lon="2.1944435">
        <ele>177.0</ele>
        <time>2022-01-13T08:58:31Z</time>
      </trkpt>
      <trkpt lat="47.73958" lon="2.194441">
        <ele>177.0</ele>
        <time>2022-01-13T08:58:32Z</time>
      </trkpt>
      <trkpt lat="47.739594" lon="2.1944342">
        <ele>178.0</ele>
        <time>2022-01-13T08:58:33Z</time>
      </trkpt>
      <trkpt lat="47.739605" lon="2.1944292">
        <ele>178.0</ele>
        <time>2022-01-13T08:58:34Z</time>
      </trkpt>
      <trkpt lat="47.739605" lon="2.1944292">
        <ele>178.0</ele>
        <time>2022-01-13T08:58:35Z</time>
      </trkpt>
      <trkpt lat="47.739605" lon="2.1944292">
        <ele>178.0</ele>
        <time>2022-01-13T08:58:36Z</time>
      </trkpt>
      <trkpt lat="47.73963" lon="2.194423">
        <ele>178.0</ele>
        <time>2022-01-13T08:58:37Z</time>
      </trkpt>
      <trkpt lat="47.73964" lon="2.1944175">
        <ele>179.0</ele>
        <time>2022-01-13T08:58:38Z</time>
      </trkpt>
      <trkpt lat="47.73965" lon="2.194411">
        <ele>179.0</ele>
        <time>2022-01-13T08:58:39Z</time>
      </trkpt>
      <trkpt lat="47.73966" lon="2.1944072">
        <ele>179.0</ele>
        <time>2022-01-13T08:58:40Z</time>
      </trkpt>
      <trkpt lat="47.739666" lon="2.194406">
        <ele>179.0</ele>
        <time>2022-01-13T08:58:41Z</time>
      </trkpt>
      <trkpt lat="47.739674" lon="2.1944008">
        <ele>178.0</ele>
        <time>2022-01-13T08:58:42Z</time>
      </trkpt>
      <trkpt lat="47.739685" lon="2.1943948">
        <ele>178.0</ele>
        <time>2022-01-13T08:58:43Z</time>
      </trkpt>
      <trkpt lat="47.739697" lon="2.194391">
        <ele>178.0</ele>
        <time>2022-01-13T08:58:44Z</time>
      </trkpt>
      <trkpt lat="47.739704" lon="2.1943917">
        <ele>178.0</ele>
        <time>2022-01-13T08:58:45Z</time>
      </trkpt>
      <trkpt lat="47.739716" lon="2.1943989">
        <ele>178.0</ele>
        <time>2022-01-13T08:58:46Z</time>
      </trkpt>
      <trkpt lat="47.73972" lon="2.1944048">
        <ele>178.0</ele>
        <time>2022-01-13T08:58:47Z</time>
      </trkpt>
      <trkpt lat="47.73972" lon="2.1944048">
        <ele>178.0</ele>
        <time>2022-01-13T08:58:48Z</time>
      </trkpt>
      <trkpt lat="47.73973" lon="2.1944065">
        <ele>178.0</ele>
        <time>2022-01-13T08:58:49Z</time>
      </trkpt>
      <trkpt lat="47.739735" lon="2.1944044">
        <ele>178.0</ele>
        <time>2022-01-13T08:58:50Z</time>
      </trkpt>
      <trkpt lat="47.73974" lon="2.1943996">
        <ele>178.0</ele>
        <time>2022-01-13T08:58:51Z</time>
      </trkpt>
      <trkpt lat="47.739746" lon="2.1943886">
        <ele>178.0</ele>
        <time>2022-01-13T08:58:52Z</time>
      </trkpt>
      <trkpt lat="47.739754" lon="2.1943789">
        <ele>178.0</ele>
        <time>2022-01-13T08:58:53Z</time>
      </trkpt>
      <trkpt lat="47.739765" lon="2.1943674">
        <ele>177.0</ele>
        <time>2022-01-13T08:58:54Z</time>
      </trkpt>
      <trkpt lat="47.739773" lon="2.1943648">
        <ele>177.0</ele>
        <time>2022-01-13T08:58:55Z</time>
      </trkpt>
      <trkpt lat="47.73978" lon="2.1943629">
        <ele>177.0</ele>
        <time>2022-01-13T08:58:56Z</time>
      </trkpt>
      <trkpt lat="47.739788" lon="2.1943576">
        <ele>177.0</ele>
        <time>2022-01-13T08:58:57Z</time>
      </trkpt>
      <trkpt lat="47.739803" lon="2.1943524">
        <ele>177.0</ele>
        <time>2022-01-13T08:58:58Z</time>
      </trkpt>
      <trkpt lat="47.73981" lon="2.1943467">
        <ele>177.0</ele>
        <time>2022-01-13T08:58:59Z</time>
      </trkpt>
      <trkpt lat="47.739822" lon="2.19434">
        <ele>177.0</ele>
        <time>2022-01-13T08:59:00Z</time>
      </trkpt>
      <trkpt lat="47.73983" lon="2.1943352">
        <ele>177.0</ele>
        <time>2022-01-13T08:59:01Z</time>
      </trkpt>
      <trkpt lat="47.739838" lon="2.1943364">
        <ele>176.0</ele>
        <time>2022-01-13T08:59:02Z</time>
      </trkpt>
      <trkpt lat="47.73985" lon="2.1943338">
        <ele>176.0</ele>
        <time>2022-01-13T08:59:03Z</time>
      </trkpt>
      <trkpt lat="47.73986" lon="2.1943312">
        <ele>176.0</ele>
        <time>2022-01-13T08:59:04Z</time>
      </trkpt>
      <trkpt lat="47.739872" lon="2.1943238">
        <ele>175.0</ele>
        <time>2022-01-13T08:59:05Z</time>
      </trkpt>
      <trkpt lat="47.739883" lon="2.1943212">
        <ele>175.0</ele>
        <time>2022-01-13T08:59:06Z</time>
      </trkpt>
      <trkpt lat="47.7399" lon="2.1943173">
        <ele>176.0</ele>
        <time>2022-01-13T08:59:07Z</time>
      </trkpt>
      <trkpt lat="47.73991" lon="2.1943192">
        <ele>175.0</ele>
        <time>2022-01-13T08:59:08Z</time>
      </trkpt>
      <trkpt lat="47.739925" lon="2.1943204">
        <ele>176.0</ele>
        <time>2022-01-13T08:59:09Z</time>
      </trkpt>
      <trkpt lat="47.73994" lon="2.1943214">
        <ele>176.0</ele>
        <time>2022-01-13T08:59:10Z</time>
      </trkpt>
      <trkpt lat="47.739956" lon="2.1943204">
        <ele>175.0</ele>
        <time>2022-01-13T08:59:11Z</time>
      </trkpt>
      <trkpt lat="47.739967" lon="2.194318">
        <ele>175.0</ele>
        <time>2022-01-13T08:59:12Z</time>
      </trkpt>
      <trkpt lat="47.73998" lon="2.194318">
        <ele>175.0</ele>
        <time>2022-01-13T08:59:13Z</time>
      </trkpt>
      <trkpt lat="47.739994" lon="2.19431">
        <ele>175.0</ele>
        <time>2022-01-13T08:59:14Z</time>
      </trkpt>
      <trkpt lat="47.74001" lon="2.194305">
        <ele>175.0</ele>
        <time>2022-01-13T08:59:15Z</time>
      </trkpt>
      <trkpt lat="47.74001" lon="2.194305">
        <ele>175.0</ele>
        <time>2022-01-13T08:59:16Z</time>
      </trkpt>
      <trkpt lat="47.74001" lon="2.194305">
        <ele>175.0</ele>
        <time>2022-01-13T08:59:17Z</time>
      </trkpt>
      <trkpt lat="47.740032" lon="2.1942942">
        <ele>174.0</ele>
        <time>2022-01-13T08:59:18Z</time>
      </trkpt>
      <trkpt lat="47.740044" lon="2.194291">
        <ele>174.0</ele>
        <time>2022-01-13T08:59:19Z</time>
      </trkpt>
      <trkpt lat="47.740055" lon="2.1942842">
        <ele>174.0</ele>
        <time>2022-01-13T08:59:20Z</time>
      </trkpt>
      <trkpt lat="47.74007" lon="2.1942766">
        <ele>174.0</ele>
        <time>2022-01-13T08:59:21Z</time>
      </trkpt>
      <trkpt lat="47.74008" lon="2.1942675">
        <ele>174.0</ele>
        <time>2022-01-13T08:59:22Z</time>
      </trkpt>
      <trkpt lat="47.740093" lon="2.1942596">
        <ele>174.0</ele>
        <time>2022-01-13T08:59:23Z</time>
      </trkpt>
      <trkpt lat="47.740093" lon="2.1942596">
        <ele>174.0</ele>
        <time>2022-01-13T08:59:24Z</time>
      </trkpt>
      <trkpt lat="47.740093" lon="2.1942596">
        <ele>174.0</ele>
        <time>2022-01-13T08:59:25Z</time>
      </trkpt>
      <trkpt lat="47.740124" lon="2.1942391">
        <ele>173.0</ele>
        <time>2022-01-13T08:59:26Z</time>
      </trkpt>
      <trkpt lat="47.74013" lon="2.1942365">
        <ele>173.0</ele>
        <time>2022-01-13T08:59:27Z</time>
      </trkpt>
      <trkpt lat="47.74014" lon="2.1942396">
        <ele>173.0</ele>
        <time>2022-01-13T08:59:28Z</time>
      </trkpt>
      <trkpt lat="47.74015" lon="2.1942315">
        <ele>173.0</ele>
        <time>2022-01-13T08:59:29Z</time>
      </trkpt>
      <trkpt lat="47.74016" lon="2.1942196">
        <ele>173.0</ele>
        <time>2022-01-13T08:59:30Z</time>
      </trkpt>
      <trkpt lat="47.74017" lon="2.1942072">
        <ele>173.0</ele>
        <time>2022-01-13T08:59:31Z</time>
      </trkpt>
      <trkpt lat="47.740185" lon="2.194203">
        <ele>173.0</ele>
        <time>2022-01-13T08:59:32Z</time>
      </trkpt>
      <trkpt lat="47.740196" lon="2.1941907">
        <ele>173.0</ele>
        <time>2022-01-13T08:59:33Z</time>
      </trkpt>
      <trkpt lat="47.740215" lon="2.194168">
        <ele>173.0</ele>
        <time>2022-01-13T08:59:34Z</time>
      </trkpt>
      <trkpt lat="47.740215" lon="2.194168">
        <ele>173.0</ele>
        <time>2022-01-13T08:59:34Z</time>
      </trkpt>
      <trkpt lat="47.74023" lon="2.1941683">
        <ele>173.0</ele>
        <time>2022-01-13T08:59:36Z</time>
      </trkpt>
      <trkpt lat="47.740242" lon="2.1941667">
        <ele>174.0</ele>
        <time>2022-01-13T08:59:37Z</time>
      </trkpt>
      <trkpt lat="47.740253" lon="2.1941607">
        <ele>174.0</ele>
        <time>2022-01-13T08:59:38Z</time>
      </trkpt>
      <trkpt lat="47.740265" lon="2.1941557">
        <ele>174.0</ele>
        <time>2022-01-13T08:59:39Z</time>
      </trkpt>
      <trkpt lat="47.740276" lon="2.1941485">
        <ele>174.0</ele>
        <time>2022-01-13T08:59:40Z</time>
      </trkpt>
      <trkpt lat="47.740288" lon="2.1941411">
        <ele>174.0</ele>
        <time>2022-01-13T08:59:41Z</time>
      </trkpt>
      <trkpt lat="47.7403" lon="2.194135">
        <ele>175.0</ele>
        <time>2022-01-13T08:59:42Z</time>
      </trkpt>
      <trkpt lat="47.740314" lon="2.1941285">
        <ele>175.0</ele>
        <time>2022-01-13T08:59:43Z</time>
      </trkpt>
      <trkpt lat="47.740326" lon="2.1941206">
        <ele>175.0</ele>
        <time>2022-01-13T08:59:44Z</time>
      </trkpt>
      <trkpt lat="47.740334" lon="2.194115">
        <ele>175.0</ele>
        <time>2022-01-13T08:59:45Z</time>
      </trkpt>
      <trkpt lat="47.740345" lon="2.194106">
        <ele>175.0</ele>
        <time>2022-01-13T08:59:46Z</time>
      </trkpt>
      <trkpt lat="47.74035" lon="2.1940913">
        <ele>174.0</ele>
        <time>2022-01-13T08:59:47Z</time>
      </trkpt>
      <trkpt lat="47.740353" lon="2.1940708">
        <ele>174.0</ele>
        <time>2022-01-13T08:59:48Z</time>
      </trkpt>
      <trkpt lat="47.740368" lon="2.1940517">
        <ele>173.0</ele>
        <time>2022-01-13T08:59:49Z</time>
      </trkpt>
      <trkpt lat="47.740383" lon="2.194035">
        <ele>173.0</ele>
        <time>2022-01-13T08:59:50Z</time>
      </trkpt>
      <trkpt lat="47.740406" lon="2.1940212">
        <ele>174.0</ele>
        <time>2022-01-13T08:59:51Z</time>
      </trkpt>
      <trkpt lat="47.740433" lon="2.1940148">
        <ele>174.0</ele>
        <time>2022-01-13T08:59:52Z</time>
      </trkpt>
      <trkpt lat="47.74045" lon="2.194005">
        <ele>174.0</ele>
        <time>2022-01-13T08:59:53Z</time>
      </trkpt>
      <trkpt lat="47.740467" lon="2.193999">
        <ele>174.0</ele>
        <time>2022-01-13T08:59:54Z</time>
      </trkpt>
      <trkpt lat="47.74049" lon="2.1939921">
        <ele>175.0</ele>
        <time>2022-01-13T08:59:55Z</time>
      </trkpt>
      <trkpt lat="47.74051" lon="2.1939836">
        <ele>175.0</ele>
        <time>2022-01-13T08:59:56Z</time>
      </trkpt>
      <trkpt lat="47.74053" lon="2.1939747">
        <ele>176.0</ele>
        <time>2022-01-13T08:59:57Z</time>
      </trkpt>
      <trkpt lat="47.740547" lon="2.193961">
        <ele>175.0</ele>
        <time>2022-01-13T08:59:58Z</time>
      </trkpt>
      <trkpt lat="47.740562" lon="2.1939516">
        <ele>175.0</ele>
        <time>2022-01-13T08:59:59Z</time>
      </trkpt>
      <trkpt lat="47.740578" lon="2.193945">
        <ele>176.0</ele>
        <time>2022-01-13T09:00:00Z</time>
      </trkpt>
      <trkpt lat="47.740585" lon="2.193932">
        <ele>176.0</ele>
        <time>2022-01-13T09:00:01Z</time>
      </trkpt>
      <trkpt lat="47.7406" lon="2.1939228">
        <ele>176.0</ele>
        <time>2022-01-13T09:00:02Z</time>
      </trkpt>
      <trkpt lat="47.740616" lon="2.1939187">
        <ele>177.0</ele>
        <time>2022-01-13T09:00:03Z</time>
      </trkpt>
      <trkpt lat="47.74063" lon="2.193919">
        <ele>176.0</ele>
        <time>2022-01-13T09:00:04Z</time>
      </trkpt>
      <trkpt lat="47.740654" lon="2.1939132">
        <ele>177.0</ele>
        <time>2022-01-13T09:00:05Z</time>
      </trkpt>
      <trkpt lat="47.74067" lon="2.1939058">
        <ele>177.0</ele>
        <time>2022-01-13T09:00:06Z</time>
      </trkpt>
      <trkpt lat="47.74068" lon="2.1938987">
        <ele>176.0</ele>
        <time>2022-01-13T09:00:07Z</time>
      </trkpt>
      <trkpt lat="47.740707" lon="2.1938865">
        <ele>176.0</ele>
        <time>2022-01-13T09:00:08Z</time>
      </trkpt>
      <trkpt lat="47.74072" lon="2.1938775">
        <ele>176.0</ele>
        <time>2022-01-13T09:00:09Z</time>
      </trkpt>
      <trkpt lat="47.74072" lon="2.1938775">
        <ele>176.0</ele>
        <time>2022-01-13T09:00:09Z</time>
      </trkpt>
      <trkpt lat="47.74073" lon="2.1938694">
        <ele>176.0</ele>
        <time>2022-01-13T09:00:11Z</time>
      </trkpt>
      <trkpt lat="47.740738" lon="2.1938713">
        <ele>177.0</ele>
        <time>2022-01-13T09:00:12Z</time>
      </trkpt>
      <trkpt lat="47.740746" lon="2.1938727">
        <ele>177.0</ele>
        <time>2022-01-13T09:00:13Z</time>
      </trkpt>
      <trkpt lat="47.740753" lon="2.193875">
        <ele>177.0</ele>
        <time>2022-01-13T09:00:14Z</time>
      </trkpt>
      <trkpt lat="47.74076" lon="2.1938875">
        <ele>177.0</ele>
        <time>2022-01-13T09:00:15Z</time>
      </trkpt>
      <trkpt lat="47.740772" lon="2.1938968">
        <ele>177.0</ele>
        <time>2022-01-13T09:00:16Z</time>
      </trkpt>
      <trkpt lat="47.74078" lon="2.1939046">
        <ele>177.0</ele>
        <time>2022-01-13T09:00:17Z</time>
      </trkpt>
      <trkpt lat="47.740795" lon="2.193908">
        <ele>177.0</ele>
        <time>2022-01-13T09:00:18Z</time>
      </trkpt>
      <trkpt lat="47.74081" lon="2.1939175">
        <ele>177.0</ele>
        <time>2022-01-13T09:00:19Z</time>
      </trkpt>
      <trkpt lat="47.74082" lon="2.1939337">
        <ele>178.0</ele>
        <time>2022-01-13T09:00:20Z</time>
      </trkpt>
      <trkpt lat="47.74083" lon="2.1939487">
        <ele>178.0</ele>
        <time>2022-01-13T09:00:21Z</time>
      </trkpt>
      <trkpt lat="47.740837" lon="2.1939595">
        <ele>178.0</ele>
        <time>2022-01-13T09:00:22Z</time>
      </trkpt>
      <trkpt lat="47.740837" lon="2.1939743">
        <ele>178.0</ele>
        <time>2022-01-13T09:00:23Z</time>
      </trkpt>
      <trkpt lat="47.74084" lon="2.1939878">
        <ele>178.0</ele>
        <time>2022-01-13T09:00:24Z</time>
      </trkpt>
      <trkpt lat="47.740845" lon="2.1940014">
        <ele>178.0</ele>
        <time>2022-01-13T09:00:25Z</time>
      </trkpt>
      <trkpt lat="47.74085" lon="2.194018">
        <ele>178.0</ele>
        <time>2022-01-13T09:00:26Z</time>
      </trkpt>
      <trkpt lat="47.740852" lon="2.1940308">
        <ele>178.0</ele>
        <time>2022-01-13T09:00:27Z</time>
      </trkpt>
      <trkpt lat="47.740852" lon="2.194065">
        <ele>180.0</ele>
        <time>2022-01-13T09:00:28Z</time>
      </trkpt>
      <trkpt lat="47.740852" lon="2.194065">
        <ele>180.0</ele>
        <time>2022-01-13T09:00:28Z</time>
      </trkpt>
      <trkpt lat="47.740852" lon="2.1940804">
        <ele>180.0</ele>
        <time>2022-01-13T09:00:30Z</time>
      </trkpt>
      <trkpt lat="47.740856" lon="2.1940954">
        <ele>180.0</ele>
        <time>2022-01-13T09:00:31Z</time>
      </trkpt>
      <trkpt lat="47.740856" lon="2.1941147">
        <ele>179.0</ele>
        <time>2022-01-13T09:00:32Z</time>
      </trkpt>
      <trkpt lat="47.740856" lon="2.1941326">
        <ele>179.0</ele>
        <time>2022-01-13T09:00:33Z</time>
      </trkpt>
      <trkpt lat="47.740856" lon="2.1941495">
        <ele>179.0</ele>
        <time>2022-01-13T09:00:34Z</time>
      </trkpt>
      <trkpt lat="47.740856" lon="2.194165">
        <ele>179.0</ele>
        <time>2022-01-13T09:00:35Z</time>
      </trkpt>
      <trkpt lat="47.740856" lon="2.1941776">
        <ele>178.0</ele>
        <time>2022-01-13T09:00:36Z</time>
      </trkpt>
      <trkpt lat="47.740856" lon="2.1941912">
        <ele>178.0</ele>
        <time>2022-01-13T09:00:37Z</time>
      </trkpt>
      <trkpt lat="47.74086" lon="2.1942039">
        <ele>178.0</ele>
        <time>2022-01-13T09:00:38Z</time>
      </trkpt>
      <trkpt lat="47.74086" lon="2.1942196">
        <ele>178.0</ele>
        <time>2022-01-13T09:00:39Z</time>
      </trkpt>
      <trkpt lat="47.74086" lon="2.194234">
        <ele>178.0</ele>
        <time>2022-01-13T09:00:40Z</time>
      </trkpt>
      <trkpt lat="47.74086" lon="2.1942525">
        <ele>178.0</ele>
        <time>2022-01-13T09:00:41Z</time>
      </trkpt>
      <trkpt lat="47.740856" lon="2.194284">
        <ele>177.0</ele>
        <time>2022-01-13T09:00:42Z</time>
      </trkpt>
      <trkpt lat="47.740856" lon="2.194304">
        <ele>177.0</ele>
        <time>2022-01-13T09:00:43Z</time>
      </trkpt>
      <trkpt lat="47.740856" lon="2.1943228">
        <ele>177.0</ele>
        <time>2022-01-13T09:00:44Z</time>
      </trkpt>
      <trkpt lat="47.740856" lon="2.1943228">
        <ele>177.0</ele>
        <time>2022-01-13T09:00:44Z</time>
      </trkpt>
      <trkpt lat="47.74086" lon="2.1943572">
        <ele>177.0</ele>
        <time>2022-01-13T09:00:46Z</time>
      </trkpt>
      <trkpt lat="47.74086" lon="2.1943572">
        <ele>177.0</ele>
        <time>2022-01-13T09:00:46Z</time>
      </trkpt>
      <trkpt lat="47.74086" lon="2.1943738">
        <ele>177.0</ele>
        <time>2022-01-13T09:00:48Z</time>
      </trkpt>
      <trkpt lat="47.740856" lon="2.1943882">
        <ele>177.0</ele>
        <time>2022-01-13T09:00:49Z</time>
      </trkpt>
      <trkpt lat="47.740856" lon="2.194402">
        <ele>177.0</ele>
        <time>2022-01-13T09:00:50Z</time>
      </trkpt>
      <trkpt lat="47.740856" lon="2.194418">
        <ele>177.0</ele>
        <time>2022-01-13T09:00:51Z</time>
      </trkpt>
      <trkpt lat="47.740864" lon="2.1944368">
        <ele>177.0</ele>
        <time>2022-01-13T09:00:52Z</time>
      </trkpt>
      <trkpt lat="47.740864" lon="2.1944542">
        <ele>177.0</ele>
        <time>2022-01-13T09:00:53Z</time>
      </trkpt>
      <trkpt lat="47.740864" lon="2.194473">
        <ele>178.0</ele>
        <time>2022-01-13T09:00:54Z</time>
      </trkpt>
      <trkpt lat="47.740864" lon="2.1944902">
        <ele>178.0</ele>
        <time>2022-01-13T09:00:55Z</time>
      </trkpt>
      <trkpt lat="47.74086" lon="2.1945217">
        <ele>178.0</ele>
        <time>2022-01-13T09:00:56Z</time>
      </trkpt>
      <trkpt lat="47.740856" lon="2.1945379">
        <ele>178.0</ele>
        <time>2022-01-13T09:00:57Z</time>
      </trkpt>
      <trkpt lat="47.740856" lon="2.1945379">
        <ele>178.0</ele>
        <time>2022-01-13T09:00:57Z</time>
      </trkpt>
      <trkpt lat="47.740852" lon="2.1945572">
        <ele>179.0</ele>
        <time>2022-01-13T09:00:59Z</time>
      </trkpt>
      <trkpt lat="47.740856" lon="2.1945715">
        <ele>179.0</ele>
        <time>2022-01-13T09:01:00Z</time>
      </trkpt>
      <trkpt lat="47.740856" lon="2.1946037">
        <ele>179.0</ele>
        <time>2022-01-13T09:01:01Z</time>
      </trkpt>
      <trkpt lat="47.740856" lon="2.1946037">
        <ele>179.0</ele>
        <time>2022-01-13T09:01:01Z</time>
      </trkpt>
      <trkpt lat="47.740856" lon="2.1946154">
        <ele>179.0</ele>
        <time>2022-01-13T09:01:03Z</time>
      </trkpt>
      <trkpt lat="47.74086" lon="2.1946294">
        <ele>180.0</ele>
        <time>2022-01-13T09:01:04Z</time>
      </trkpt>
      <trkpt lat="47.740856" lon="2.1946425">
        <ele>179.0</ele>
        <time>2022-01-13T09:01:05Z</time>
      </trkpt>
      <trkpt lat="47.740852" lon="2.1946712">
        <ele>179.0</ele>
        <time>2022-01-13T09:01:06Z</time>
      </trkpt>
      <trkpt lat="47.740852" lon="2.194689">
        <ele>179.0</ele>
        <time>2022-01-13T09:01:07Z</time>
      </trkpt>
      <trkpt lat="47.740852" lon="2.194689">
        <ele>179.0</ele>
        <time>2022-01-13T09:01:07Z</time>
      </trkpt>
      <trkpt lat="47.740852" lon="2.1947293">
        <ele>179.0</ele>
        <time>2022-01-13T09:01:09Z</time>
      </trkpt>
      <trkpt lat="47.740852" lon="2.1947293">
        <ele>179.0</ele>
        <time>2022-01-13T09:01:09Z</time>
      </trkpt>
      <trkpt lat="47.740852" lon="2.1947596">
        <ele>179.0</ele>
        <time>2022-01-13T09:01:11Z</time>
      </trkpt>
      <trkpt lat="47.74085" lon="2.1947727">
        <ele>179.0</ele>
        <time>2022-01-13T09:01:12Z</time>
      </trkpt>
      <trkpt lat="47.740845" lon="2.1947837">
        <ele>179.0</ele>
        <time>2022-01-13T09:01:13Z</time>
      </trkpt>
      <trkpt lat="47.740845" lon="2.1947958">
        <ele>179.0</ele>
        <time>2022-01-13T09:01:14Z</time>
      </trkpt>
      <trkpt lat="47.740845" lon="2.1948073">
        <ele>178.0</ele>
        <time>2022-01-13T09:01:15Z</time>
      </trkpt>
      <trkpt lat="47.740845" lon="2.194821">
        <ele>177.0</ele>
        <time>2022-01-13T09:01:16Z</time>
      </trkpt>
      <trkpt lat="47.740845" lon="2.1948354">
        <ele>177.0</ele>
        <time>2022-01-13T09:01:17Z</time>
      </trkpt>
      <trkpt lat="47.740845" lon="2.1948504">
        <ele>177.0</ele>
        <time>2022-01-13T09:01:18Z</time>
      </trkpt>
      <trkpt lat="47.740845" lon="2.1948683">
        <ele>177.0</ele>
        <time>2022-01-13T09:01:19Z</time>
      </trkpt>
      <trkpt lat="47.740845" lon="2.1948848">
        <ele>176.0</ele>
        <time>2022-01-13T09:01:20Z</time>
      </trkpt>
      <trkpt lat="47.740845" lon="2.1949005">
        <ele>176.0</ele>
        <time>2022-01-13T09:01:21Z</time>
      </trkpt>
      <trkpt lat="47.74085" lon="2.1949217">
        <ele>175.0</ele>
        <time>2022-01-13T09:01:22Z</time>
      </trkpt>
      <trkpt lat="47.740845" lon="2.1949387">
        <ele>175.0</ele>
        <time>2022-01-13T09:01:23Z</time>
      </trkpt>
      <trkpt lat="47.740845" lon="2.1949546">
        <ele>174.0</ele>
        <time>2022-01-13T09:01:24Z</time>
      </trkpt>
      <trkpt lat="47.74085" lon="2.1949694">
        <ele>174.0</ele>
        <time>2022-01-13T09:01:25Z</time>
      </trkpt>
      <trkpt lat="47.74085" lon="2.1949847">
        <ele>174.0</ele>
        <time>2022-01-13T09:01:26Z</time>
      </trkpt>
      <trkpt lat="47.740852" lon="2.1949992">
        <ele>174.0</ele>
        <time>2022-01-13T09:01:27Z</time>
      </trkpt>
      <trkpt lat="47.740856" lon="2.1950161">
        <ele>175.0</ele>
        <time>2022-01-13T09:01:28Z</time>
      </trkpt>
      <trkpt lat="47.740856" lon="2.1950293">
        <ele>175.0</ele>
        <time>2022-01-13T09:01:29Z</time>
      </trkpt>
      <trkpt lat="47.740856" lon="2.1950433">
        <ele>175.0</ele>
        <time>2022-01-13T09:01:30Z</time>
      </trkpt>
      <trkpt lat="47.740856" lon="2.1950433">
        <ele>175.0</ele>
        <time>2022-01-13T09:01:30Z</time>
      </trkpt>
      <trkpt lat="47.740856" lon="2.1950574">
        <ele>175.0</ele>
        <time>2022-01-13T09:01:32Z</time>
      </trkpt>
      <trkpt lat="47.74086" lon="2.1950662">
        <ele>175.0</ele>
        <time>2022-01-13T09:01:33Z</time>
      </trkpt>
      <trkpt lat="47.740864" lon="2.1950772">
        <ele>175.0</ele>
        <time>2022-01-13T09:01:34Z</time>
      </trkpt>
      <trkpt lat="47.740864" lon="2.1950936">
        <ele>174.0</ele>
        <time>2022-01-13T09:01:35Z</time>
      </trkpt>
      <trkpt lat="47.740864" lon="2.1951087">
        <ele>174.0</ele>
        <time>2022-01-13T09:01:36Z</time>
      </trkpt>
      <trkpt lat="47.740864" lon="2.1951268">
        <ele>174.0</ele>
        <time>2022-01-13T09:01:37Z</time>
      </trkpt>
      <trkpt lat="47.74086" lon="2.1951425">
        <ele>174.0</ele>
        <time>2022-01-13T09:01:38Z</time>
      </trkpt>
      <trkpt lat="47.74087" lon="2.195169">
        <ele>174.0</ele>
        <time>2022-01-13T09:01:39Z</time>
      </trkpt>
      <trkpt lat="47.740875" lon="2.1951873">
        <ele>174.0</ele>
        <time>2022-01-13T09:01:40Z</time>
      </trkpt>
      <trkpt lat="47.740875" lon="2.1951873">
        <ele>174.0</ele>
        <time>2022-01-13T09:01:40Z</time>
      </trkpt>
      <trkpt lat="47.74088" lon="2.1952012">
        <ele>174.0</ele>
        <time>2022-01-13T09:01:42Z</time>
      </trkpt>
      <trkpt lat="47.74088" lon="2.1952271">
        <ele>174.0</ele>
        <time>2022-01-13T09:01:43Z</time>
      </trkpt>
      <trkpt lat="47.74088" lon="2.1952472">
        <ele>173.0</ele>
        <time>2022-01-13T09:01:44Z</time>
      </trkpt>
      <trkpt lat="47.74088" lon="2.1952693">
        <ele>173.0</ele>
        <time>2022-01-13T09:01:45Z</time>
      </trkpt>
      <trkpt lat="47.74088" lon="2.1952693">
        <ele>173.0</ele>
        <time>2022-01-13T09:01:45Z</time>
      </trkpt>
      <trkpt lat="47.740887" lon="2.195299">
        <ele>174.0</ele>
        <time>2022-01-13T09:01:47Z</time>
      </trkpt>
      <trkpt lat="47.74089" lon="2.195311">
        <ele>174.0</ele>
        <time>2022-01-13T09:01:48Z</time>
      </trkpt>
      <trkpt lat="47.74089" lon="2.195324">
        <ele>174.0</ele>
        <time>2022-01-13T09:01:49Z</time>
      </trkpt>
      <trkpt lat="47.74089" lon="2.1953402">
        <ele>174.0</ele>
        <time>2022-01-13T09:01:50Z</time>
      </trkpt>
      <trkpt lat="47.74089" lon="2.1953402">
        <ele>174.0</ele>
        <time>2022-01-13T09:01:50Z</time>
      </trkpt>
      <trkpt lat="47.74089" lon="2.195356">
        <ele>174.0</ele>
        <time>2022-01-13T09:01:52Z</time>
      </trkpt>
      <trkpt lat="47.74089" lon="2.1953905">
        <ele>173.0</ele>
        <time>2022-01-13T09:01:53Z</time>
      </trkpt>
      <trkpt lat="47.74089" lon="2.1954048">
        <ele>173.0</ele>
        <time>2022-01-13T09:01:54Z</time>
      </trkpt>
      <trkpt lat="47.74089" lon="2.1954048">
        <ele>173.0</ele>
        <time>2022-01-13T09:01:54Z</time>
      </trkpt>
      <trkpt lat="47.74089" lon="2.195419">
        <ele>173.0</ele>
        <time>2022-01-13T09:01:56Z</time>
      </trkpt>
      <trkpt lat="47.740887" lon="2.195453">
        <ele>172.0</ele>
        <time>2022-01-13T09:01:57Z</time>
      </trkpt>
      <trkpt lat="47.740887" lon="2.1954708">
        <ele>171.0</ele>
        <time>2022-01-13T09:01:58Z</time>
      </trkpt>
      <trkpt lat="47.740887" lon="2.1954896">
        <ele>171.0</ele>
        <time>2022-01-13T09:01:59Z</time>
      </trkpt>
      <trkpt lat="47.740887" lon="2.1955087">
        <ele>171.0</ele>
        <time>2022-01-13T09:02:00Z</time>
      </trkpt>
      <trkpt lat="47.740887" lon="2.1955252">
        <ele>170.0</ele>
        <time>2022-01-13T09:02:01Z</time>
      </trkpt>
      <trkpt lat="47.74089" lon="2.1955445">
        <ele>170.0</ele>
        <time>2022-01-13T09:02:02Z</time>
      </trkpt>
      <trkpt lat="47.74089" lon="2.1955655">
        <ele>170.0</ele>
        <time>2022-01-13T09:02:03Z</time>
      </trkpt>
      <trkpt lat="47.74089" lon="2.1955833">
        <ele>170.0</ele>
        <time>2022-01-13T09:02:04Z</time>
      </trkpt>
      <trkpt lat="47.740894" lon="2.195598">
        <ele>170.0</ele>
        <time>2022-01-13T09:02:05Z</time>
      </trkpt>
      <trkpt lat="47.7409" lon="2.1956122">
        <ele>170.0</ele>
        <time>2022-01-13T09:02:06Z</time>
      </trkpt>
      <trkpt lat="47.740902" lon="2.1956275">
        <ele>169.0</ele>
        <time>2022-01-13T09:02:07Z</time>
      </trkpt>
      <trkpt lat="47.740902" lon="2.1956275">
        <ele>169.0</ele>
        <time>2022-01-13T09:02:07Z</time>
      </trkpt>
      <trkpt lat="47.740902" lon="2.1956575">
        <ele>169.0</ele>
        <time>2022-01-13T09:02:09Z</time>
      </trkpt>
      <trkpt lat="47.740902" lon="2.1956575">
        <ele>169.0</ele>
        <time>2022-01-13T09:02:09Z</time>
      </trkpt>
      <trkpt lat="47.7409" lon="2.1956956">
        <ele>169.0</ele>
        <time>2022-01-13T09:02:11Z</time>
      </trkpt>
      <trkpt lat="47.7409" lon="2.195716">
        <ele>169.0</ele>
        <time>2022-01-13T09:02:12Z</time>
      </trkpt>
      <trkpt lat="47.740894" lon="2.1957335">
        <ele>168.0</ele>
        <time>2022-01-13T09:02:13Z</time>
      </trkpt>
      <trkpt lat="47.7409" lon="2.195746">
        <ele>168.0</ele>
        <time>2022-01-13T09:02:14Z</time>
      </trkpt>
      <trkpt lat="47.7409" lon="2.1957633">
        <ele>168.0</ele>
        <time>2022-01-13T09:02:15Z</time>
      </trkpt>
      <trkpt lat="47.740894" lon="2.1957831">
        <ele>169.0</ele>
        <time>2022-01-13T09:02:16Z</time>
      </trkpt>
      <trkpt lat="47.740894" lon="2.1957974">
        <ele>169.0</ele>
        <time>2022-01-13T09:02:17Z</time>
      </trkpt>
      <trkpt lat="47.740894" lon="2.1958113">
        <ele>169.0</ele>
        <time>2022-01-13T09:02:18Z</time>
      </trkpt>
      <trkpt lat="47.740894" lon="2.1958282">
        <ele>169.0</ele>
        <time>2022-01-13T09:02:19Z</time>
      </trkpt>
      <trkpt lat="47.740894" lon="2.1958454">
        <ele>169.0</ele>
        <time>2022-01-13T09:02:20Z</time>
      </trkpt>
      <trkpt lat="47.740894" lon="2.1958618">
        <ele>169.0</ele>
        <time>2022-01-13T09:02:21Z</time>
      </trkpt>
      <trkpt lat="47.7409" lon="2.1958768">
        <ele>169.0</ele>
        <time>2022-01-13T09:02:22Z</time>
      </trkpt>
      <trkpt lat="47.7409" lon="2.1958933">
        <ele>169.0</ele>
        <time>2022-01-13T09:02:23Z</time>
      </trkpt>
      <trkpt lat="47.7409" lon="2.1959093">
        <ele>169.0</ele>
        <time>2022-01-13T09:02:24Z</time>
      </trkpt>
      <trkpt lat="47.7409" lon="2.195929">
        <ele>169.0</ele>
        <time>2022-01-13T09:02:25Z</time>
      </trkpt>
      <trkpt lat="47.7409" lon="2.195947">
        <ele>170.0</ele>
        <time>2022-01-13T09:02:26Z</time>
      </trkpt>
      <trkpt lat="47.7409" lon="2.1959674">
        <ele>170.0</ele>
        <time>2022-01-13T09:02:27Z</time>
      </trkpt>
      <trkpt lat="47.740902" lon="2.195997">
        <ele>169.0</ele>
        <time>2022-01-13T09:02:29Z</time>
      </trkpt>
      <trkpt lat="47.740906" lon="2.1960115">
        <ele>169.0</ele>
        <time>2022-01-13T09:02:30Z</time>
      </trkpt>
      <trkpt lat="47.740902" lon="2.1960294">
        <ele>169.0</ele>
        <time>2022-01-13T09:02:31Z</time>
      </trkpt>
      <trkpt lat="47.7409" lon="2.1960466">
        <ele>169.0</ele>
        <time>2022-01-13T09:02:32Z</time>
      </trkpt>
      <trkpt lat="47.7409" lon="2.1960669">
        <ele>169.0</ele>
        <time>2022-01-13T09:02:33Z</time>
      </trkpt>
      <trkpt lat="47.7409" lon="2.1960838">
        <ele>169.0</ele>
        <time>2022-01-13T09:02:34Z</time>
      </trkpt>
      <trkpt lat="47.740902" lon="2.1961024">
        <ele>169.0</ele>
        <time>2022-01-13T09:02:35Z</time>
      </trkpt>
      <trkpt lat="47.740902" lon="2.1961203">
        <ele>169.0</ele>
        <time>2022-01-13T09:02:36Z</time>
      </trkpt>
      <trkpt lat="47.7409" lon="2.1961362">
        <ele>169.0</ele>
        <time>2022-01-13T09:02:38Z</time>
      </trkpt>
      <trkpt lat="47.7409" lon="2.1961555">
        <ele>170.0</ele>
        <time>2022-01-13T09:02:39Z</time>
      </trkpt>
      <trkpt lat="47.740894" lon="2.1961796">
        <ele>170.0</ele>
        <time>2022-01-13T09:02:40Z</time>
      </trkpt>
      <trkpt lat="47.740894" lon="2.1961985">
        <ele>170.0</ele>
        <time>2022-01-13T09:02:41Z</time>
      </trkpt>
      <trkpt lat="47.740902" lon="2.1962163">
        <ele>170.0</ele>
        <time>2022-01-13T09:02:42Z</time>
      </trkpt>
      <trkpt lat="47.740906" lon="2.1962354">
        <ele>170.0</ele>
        <time>2022-01-13T09:02:43Z</time>
      </trkpt>
      <trkpt lat="47.740906" lon="2.196253">
        <ele>169.0</ele>
        <time>2022-01-13T09:02:44Z</time>
      </trkpt>
      <trkpt lat="47.740902" lon="2.1962688">
        <ele>169.0</ele>
        <time>2022-01-13T09:02:45Z</time>
      </trkpt>
      <trkpt lat="47.740906" lon="2.1962876">
        <ele>170.0</ele>
        <time>2022-01-13T09:02:46Z</time>
      </trkpt>
      <trkpt lat="47.740902" lon="2.196309">
        <ele>169.0</ele>
        <time>2022-01-13T09:02:47Z</time>
      </trkpt>
      <trkpt lat="47.7409" lon="2.196329">
        <ele>169.0</ele>
        <time>2022-01-13T09:02:48Z</time>
      </trkpt>
      <trkpt lat="47.7409" lon="2.1963458">
        <ele>169.0</ele>
        <time>2022-01-13T09:02:49Z</time>
      </trkpt>
      <trkpt lat="47.7409" lon="2.1963608">
        <ele>169.0</ele>
        <time>2022-01-13T09:02:50Z</time>
      </trkpt>
      <trkpt lat="47.7409" lon="2.1963768">
        <ele>169.0</ele>
        <time>2022-01-13T09:02:51Z</time>
      </trkpt>
      <trkpt lat="47.740894" lon="2.196396">
        <ele>169.0</ele>
        <time>2022-01-13T09:02:52Z</time>
      </trkpt>
      <trkpt lat="47.74089" lon="2.1964147">
        <ele>169.0</ele>
        <time>2022-01-13T09:02:53Z</time>
      </trkpt>
      <trkpt lat="47.74089" lon="2.1964307">
        <ele>169.0</ele>
        <time>2022-01-13T09:02:54Z</time>
      </trkpt>
      <trkpt lat="47.740887" lon="2.1964498">
        <ele>169.0</ele>
        <time>2022-01-13T09:02:55Z</time>
      </trkpt>
      <trkpt lat="47.740887" lon="2.1964672">
        <ele>169.0</ele>
        <time>2022-01-13T09:02:56Z</time>
      </trkpt>
      <trkpt lat="47.740887" lon="2.1964934">
        <ele>169.0</ele>
        <time>2022-01-13T09:02:57Z</time>
      </trkpt>
      <trkpt lat="47.740883" lon="2.1965177">
        <ele>170.0</ele>
        <time>2022-01-13T09:02:58Z</time>
      </trkpt>
      <trkpt lat="47.740883" lon="2.1965325">
        <ele>170.0</ele>
        <time>2022-01-13T09:02:59Z</time>
      </trkpt>
      <trkpt lat="47.740883" lon="2.1965516">
        <ele>170.0</ele>
        <time>2022-01-13T09:03:00Z</time>
      </trkpt>
      <trkpt lat="47.74088" lon="2.19657">
        <ele>171.0</ele>
        <time>2022-01-13T09:03:01Z</time>
      </trkpt>
      <trkpt lat="47.74088" lon="2.196586">
        <ele>171.0</ele>
        <time>2022-01-13T09:03:02Z</time>
      </trkpt>
      <trkpt lat="47.74088" lon="2.1966045">
        <ele>171.0</ele>
        <time>2022-01-13T09:03:03Z</time>
      </trkpt>
      <trkpt lat="47.74088" lon="2.1966238">
        <ele>171.0</ele>
        <time>2022-01-13T09:03:04Z</time>
      </trkpt>
      <trkpt lat="47.74088" lon="2.1966414">
        <ele>171.0</ele>
        <time>2022-01-13T09:03:05Z</time>
      </trkpt>
      <trkpt lat="47.740875" lon="2.1966546">
        <ele>172.0</ele>
        <time>2022-01-13T09:03:06Z</time>
      </trkpt>
      <trkpt lat="47.740875" lon="2.1966724">
        <ele>172.0</ele>
        <time>2022-01-13T09:03:07Z</time>
      </trkpt>
      <trkpt lat="47.74087" lon="2.196688">
        <ele>172.0</ele>
        <time>2022-01-13T09:03:08Z</time>
      </trkpt>
      <trkpt lat="47.740868" lon="2.1967046">
        <ele>172.0</ele>
        <time>2022-01-13T09:03:09Z</time>
      </trkpt>
      <trkpt lat="47.740868" lon="2.19672">
        <ele>173.0</ele>
        <time>2022-01-13T09:03:10Z</time>
      </trkpt>
      <trkpt lat="47.740868" lon="2.1967363">
        <ele>173.0</ele>
        <time>2022-01-13T09:03:11Z</time>
      </trkpt>
      <trkpt lat="47.740868" lon="2.1967542">
        <ele>173.0</ele>
        <time>2022-01-13T09:03:12Z</time>
      </trkpt>
      <trkpt lat="47.74087" lon="2.1967723">
        <ele>173.0</ele>
        <time>2022-01-13T09:03:13Z</time>
      </trkpt>
      <trkpt lat="47.74087" lon="2.1967916">
        <ele>172.0</ele>
        <time>2022-01-13T09:03:14Z</time>
      </trkpt>
      <trkpt lat="47.740868" lon="2.1968102">
        <ele>173.0</ele>
        <time>2022-01-13T09:03:15Z</time>
      </trkpt>
      <trkpt lat="47.740868" lon="2.1968272">
        <ele>173.0</ele>
        <time>2022-01-13T09:03:16Z</time>
      </trkpt>
      <trkpt lat="47.740868" lon="2.1968422">
        <ele>173.0</ele>
        <time>2022-01-13T09:03:17Z</time>
      </trkpt>
      <trkpt lat="47.740868" lon="2.1968622">
        <ele>174.0</ele>
        <time>2022-01-13T09:03:18Z</time>
      </trkpt>
      <trkpt lat="47.74087" lon="2.196882">
        <ele>174.0</ele>
        <time>2022-01-13T09:03:19Z</time>
      </trkpt>
      <trkpt lat="47.74087" lon="2.1968973">
        <ele>173.0</ele>
        <time>2022-01-13T09:03:20Z</time>
      </trkpt>
      <trkpt lat="47.74087" lon="2.196909">
        <ele>173.0</ele>
        <time>2022-01-13T09:03:21Z</time>
      </trkpt>
      <trkpt lat="47.74087" lon="2.1969247">
        <ele>173.0</ele>
        <time>2022-01-13T09:03:22Z</time>
      </trkpt>
      <trkpt lat="47.740875" lon="2.1969404">
        <ele>174.0</ele>
        <time>2022-01-13T09:03:23Z</time>
      </trkpt>
      <trkpt lat="47.74087" lon="2.1969595">
        <ele>174.0</ele>
        <time>2022-01-13T09:03:24Z</time>
      </trkpt>
      <trkpt lat="47.740875" lon="2.1969771">
        <ele>173.0</ele>
        <time>2022-01-13T09:03:25Z</time>
      </trkpt>
      <trkpt lat="47.740875" lon="2.1969948">
        <ele>173.0</ele>
        <time>2022-01-13T09:03:26Z</time>
      </trkpt>
      <trkpt lat="47.740875" lon="2.1970108">
        <ele>173.0</ele>
        <time>2022-01-13T09:03:27Z</time>
      </trkpt>
      <trkpt lat="47.740875" lon="2.1970265">
        <ele>172.0</ele>
        <time>2022-01-13T09:03:28Z</time>
      </trkpt>
      <trkpt lat="47.74088" lon="2.1970453">
        <ele>172.0</ele>
        <time>2022-01-13T09:03:29Z</time>
      </trkpt>
      <trkpt lat="47.74088" lon="2.197062">
        <ele>172.0</ele>
        <time>2022-01-13T09:03:30Z</time>
      </trkpt>
      <trkpt lat="47.740875" lon="2.1970768">
        <ele>172.0</ele>
        <time>2022-01-13T09:03:31Z</time>
      </trkpt>
      <trkpt lat="47.74087" lon="2.197093">
        <ele>172.0</ele>
        <time>2022-01-13T09:03:32Z</time>
      </trkpt>
      <trkpt lat="47.74087" lon="2.197108">
        <ele>173.0</ele>
        <time>2022-01-13T09:03:33Z</time>
      </trkpt>
      <trkpt lat="47.74087" lon="2.1971235">
        <ele>173.0</ele>
        <time>2022-01-13T09:03:34Z</time>
      </trkpt>
      <trkpt lat="47.74087" lon="2.1971428">
        <ele>173.0</ele>
        <time>2022-01-13T09:03:35Z</time>
      </trkpt>
      <trkpt lat="47.74087" lon="2.1971636">
        <ele>173.0</ele>
        <time>2022-01-13T09:03:36Z</time>
      </trkpt>
      <trkpt lat="47.74087" lon="2.1971846">
        <ele>173.0</ele>
        <time>2022-01-13T09:03:37Z</time>
      </trkpt>
      <trkpt lat="47.74087" lon="2.197203">
        <ele>173.0</ele>
        <time>2022-01-13T09:03:38Z</time>
      </trkpt>
      <trkpt lat="47.74087" lon="2.1972208">
        <ele>173.0</ele>
        <time>2022-01-13T09:03:39Z</time>
      </trkpt>
      <trkpt lat="47.74087" lon="2.1972368">
        <ele>174.0</ele>
        <time>2022-01-13T09:03:40Z</time>
      </trkpt>
      <trkpt lat="47.74087" lon="2.197255">
        <ele>174.0</ele>
        <time>2022-01-13T09:03:41Z</time>
      </trkpt>
      <trkpt lat="47.74087" lon="2.1972752">
        <ele>174.0</ele>
        <time>2022-01-13T09:03:42Z</time>
      </trkpt>
      <trkpt lat="47.74087" lon="2.1972928">
        <ele>175.0</ele>
        <time>2022-01-13T09:03:43Z</time>
      </trkpt>
      <trkpt lat="47.74087" lon="2.1973145">
        <ele>175.0</ele>
        <time>2022-01-13T09:03:44Z</time>
      </trkpt>
      <trkpt lat="47.74087" lon="2.197332">
        <ele>174.0</ele>
        <time>2022-01-13T09:03:45Z</time>
      </trkpt>
      <trkpt lat="47.74087" lon="2.1973498">
        <ele>174.0</ele>
        <time>2022-01-13T09:03:46Z</time>
      </trkpt>
      <trkpt lat="47.74087" lon="2.1973655">
        <ele>175.0</ele>
        <time>2022-01-13T09:03:47Z</time>
      </trkpt>
      <trkpt lat="47.740868" lon="2.1973803">
        <ele>175.0</ele>
        <time>2022-01-13T09:03:48Z</time>
      </trkpt>
      <trkpt lat="47.740868" lon="2.1973932">
        <ele>175.0</ele>
        <time>2022-01-13T09:03:49Z</time>
      </trkpt>
      <trkpt lat="47.740868" lon="2.1974084">
        <ele>175.0</ele>
        <time>2022-01-13T09:03:50Z</time>
      </trkpt>
      <trkpt lat="47.740868" lon="2.197424">
        <ele>176.0</ele>
        <time>2022-01-13T09:03:51Z</time>
      </trkpt>
      <trkpt lat="47.740868" lon="2.1974387">
        <ele>176.0</ele>
        <time>2022-01-13T09:03:52Z</time>
      </trkpt>
      <trkpt lat="47.740868" lon="2.197452">
        <ele>176.0</ele>
        <time>2022-01-13T09:03:53Z</time>
      </trkpt>
      <trkpt lat="47.74087" lon="2.1974664">
        <ele>176.0</ele>
        <time>2022-01-13T09:03:54Z</time>
      </trkpt>
      <trkpt lat="47.74087" lon="2.1974838">
        <ele>176.0</ele>
        <time>2022-01-13T09:03:55Z</time>
      </trkpt>
      <trkpt lat="47.740875" lon="2.1975021">
        <ele>176.0</ele>
        <time>2022-01-13T09:03:56Z</time>
      </trkpt>
      <trkpt lat="47.740875" lon="2.1975183">
        <ele>175.0</ele>
        <time>2022-01-13T09:03:57Z</time>
      </trkpt>
      <trkpt lat="47.74088" lon="2.1975324">
        <ele>176.0</ele>
        <time>2022-01-13T09:03:58Z</time>
      </trkpt>
      <trkpt lat="47.740883" lon="2.197548">
        <ele>175.0</ele>
        <time>2022-01-13T09:03:59Z</time>
      </trkpt>
      <trkpt lat="47.740883" lon="2.1975665">
        <ele>175.0</ele>
        <time>2022-01-13T09:04:00Z</time>
      </trkpt>
      <trkpt lat="47.740887" lon="2.1975887">
        <ele>175.0</ele>
        <time>2022-01-13T09:04:01Z</time>
      </trkpt>
      <trkpt lat="47.740883" lon="2.1976094">
        <ele>176.0</ele>
        <time>2022-01-13T09:04:02Z</time>
      </trkpt>
      <trkpt lat="47.740883" lon="2.1976302">
        <ele>176.0</ele>
        <time>2022-01-13T09:04:03Z</time>
      </trkpt>
      <trkpt lat="47.740887" lon="2.1976488">
        <ele>176.0</ele>
        <time>2022-01-13T09:04:04Z</time>
      </trkpt>
      <trkpt lat="47.74089" lon="2.197666">
        <ele>176.0</ele>
        <time>2022-01-13T09:04:05Z</time>
      </trkpt>
      <trkpt lat="47.74089" lon="2.1976838">
        <ele>176.0</ele>
        <time>2022-01-13T09:04:06Z</time>
      </trkpt>
      <trkpt lat="47.74089" lon="2.1977005">
        <ele>176.0</ele>
        <time>2022-01-13T09:04:07Z</time>
      </trkpt>
      <trkpt lat="47.740894" lon="2.1977155">
        <ele>176.0</ele>
        <time>2022-01-13T09:04:08Z</time>
      </trkpt>
      <trkpt lat="47.740894" lon="2.1977298">
        <ele>175.0</ele>
        <time>2022-01-13T09:04:09Z</time>
      </trkpt>
      <trkpt lat="47.740894" lon="2.1977434">
        <ele>175.0</ele>
        <time>2022-01-13T09:04:10Z</time>
      </trkpt>
      <trkpt lat="47.740894" lon="2.1977644">
        <ele>175.0</ele>
        <time>2022-01-13T09:04:11Z</time>
      </trkpt>
      <trkpt lat="47.740894" lon="2.1977837">
        <ele>175.0</ele>
        <time>2022-01-13T09:04:12Z</time>
      </trkpt>
      <trkpt lat="47.7409" lon="2.1977978">
        <ele>175.0</ele>
        <time>2022-01-13T09:04:13Z</time>
      </trkpt>
      <trkpt lat="47.7409" lon="2.1978095">
        <ele>175.0</ele>
        <time>2022-01-13T09:04:14Z</time>
      </trkpt>
      <trkpt lat="47.740894" lon="2.1978257">
        <ele>175.0</ele>
        <time>2022-01-13T09:04:15Z</time>
      </trkpt>
      <trkpt lat="47.740894" lon="2.1978424">
        <ele>175.0</ele>
        <time>2022-01-13T09:04:16Z</time>
      </trkpt>
      <trkpt lat="47.740894" lon="2.1978614">
        <ele>175.0</ele>
        <time>2022-01-13T09:04:17Z</time>
      </trkpt>
      <trkpt lat="47.7409" lon="2.1978786">
        <ele>176.0</ele>
        <time>2022-01-13T09:04:18Z</time>
      </trkpt>
      <trkpt lat="47.7409" lon="2.1978936">
        <ele>176.0</ele>
        <time>2022-01-13T09:04:19Z</time>
      </trkpt>
      <trkpt lat="47.7409" lon="2.1979127">
        <ele>176.0</ele>
        <time>2022-01-13T09:04:20Z</time>
      </trkpt>
      <trkpt lat="47.7409" lon="2.1979303">
        <ele>176.0</ele>
        <time>2022-01-13T09:04:21Z</time>
      </trkpt>
      <trkpt lat="47.740902" lon="2.1979487">
        <ele>176.0</ele>
        <time>2022-01-13T09:04:22Z</time>
      </trkpt>
      <trkpt lat="47.740902" lon="2.1979685">
        <ele>176.0</ele>
        <time>2022-01-13T09:04:23Z</time>
      </trkpt>
      <trkpt lat="47.740902" lon="2.1979902">
        <ele>176.0</ele>
        <time>2022-01-13T09:04:24Z</time>
      </trkpt>
      <trkpt lat="47.740902" lon="2.1980078">
        <ele>176.0</ele>
        <time>2022-01-13T09:04:25Z</time>
      </trkpt>
      <trkpt lat="47.740902" lon="2.1980264">
        <ele>176.0</ele>
        <time>2022-01-13T09:04:26Z</time>
      </trkpt>
      <trkpt lat="47.7409" lon="2.1980488">
        <ele>176.0</ele>
        <time>2022-01-13T09:04:27Z</time>
      </trkpt>
      <trkpt lat="47.740902" lon="2.1980655">
        <ele>176.0</ele>
        <time>2022-01-13T09:04:28Z</time>
      </trkpt>
      <trkpt lat="47.7409" lon="2.1980798">
        <ele>176.0</ele>
        <time>2022-01-13T09:04:29Z</time>
      </trkpt>
      <trkpt lat="47.7409" lon="2.1980965">
        <ele>176.0</ele>
        <time>2022-01-13T09:04:30Z</time>
      </trkpt>
      <trkpt lat="47.7409" lon="2.1981137">
        <ele>176.0</ele>
        <time>2022-01-13T09:04:31Z</time>
      </trkpt>
      <trkpt lat="47.7409" lon="2.1981347">
        <ele>176.0</ele>
        <time>2022-01-13T09:04:32Z</time>
      </trkpt>
      <trkpt lat="47.7409" lon="2.1981535">
        <ele>176.0</ele>
        <time>2022-01-13T09:04:33Z</time>
      </trkpt>
      <trkpt lat="47.740902" lon="2.198172">
        <ele>176.0</ele>
        <time>2022-01-13T09:04:34Z</time>
      </trkpt>
      <trkpt lat="47.740902" lon="2.198192">
        <ele>176.0</ele>
        <time>2022-01-13T09:04:35Z</time>
      </trkpt>
      <trkpt lat="47.740902" lon="2.1982076">
        <ele>177.0</ele>
        <time>2022-01-13T09:04:36Z</time>
      </trkpt>
      <trkpt lat="47.740902" lon="2.1982234">
        <ele>176.0</ele>
        <time>2022-01-13T09:04:37Z</time>
      </trkpt>
      <trkpt lat="47.740902" lon="2.198242">
        <ele>176.0</ele>
        <time>2022-01-13T09:04:38Z</time>
      </trkpt>
      <trkpt lat="47.740902" lon="2.1982605">
        <ele>176.0</ele>
        <time>2022-01-13T09:04:39Z</time>
      </trkpt>
      <trkpt lat="47.740902" lon="2.1982772">
        <ele>176.0</ele>
        <time>2022-01-13T09:04:40Z</time>
      </trkpt>
      <trkpt lat="47.740902" lon="2.1982937">
        <ele>176.0</ele>
        <time>2022-01-13T09:04:41Z</time>
      </trkpt>
      <trkpt lat="47.740902" lon="2.198311">
        <ele>176.0</ele>
        <time>2022-01-13T09:04:42Z</time>
      </trkpt>
      <trkpt lat="47.740906" lon="2.198328">
        <ele>176.0</ele>
        <time>2022-01-13T09:04:43Z</time>
      </trkpt>
      <trkpt lat="47.740906" lon="2.1983452">
        <ele>176.0</ele>
        <time>2022-01-13T09:04:44Z</time>
      </trkpt>
      <trkpt lat="47.740906" lon="2.198363">
        <ele>175.0</ele>
        <time>2022-01-13T09:04:45Z</time>
      </trkpt>
      <trkpt lat="47.740906" lon="2.19838">
        <ele>175.0</ele>
        <time>2022-01-13T09:04:46Z</time>
      </trkpt>
      <trkpt lat="47.74091" lon="2.1983962">
        <ele>175.0</ele>
        <time>2022-01-13T09:04:47Z</time>
      </trkpt>
      <trkpt lat="47.740906" lon="2.1984153">
        <ele>175.0</ele>
        <time>2022-01-13T09:04:48Z</time>
      </trkpt>
      <trkpt lat="47.740906" lon="2.1984332">
        <ele>175.0</ele>
        <time>2022-01-13T09:04:49Z</time>
      </trkpt>
      <trkpt lat="47.740906" lon="2.198452">
        <ele>174.0</ele>
        <time>2022-01-13T09:04:50Z</time>
      </trkpt>
      <trkpt lat="47.740906" lon="2.1984694">
        <ele>174.0</ele>
        <time>2022-01-13T09:04:51Z</time>
      </trkpt>
      <trkpt lat="47.74091" lon="2.198488">
        <ele>174.0</ele>
        <time>2022-01-13T09:04:52Z</time>
      </trkpt>
      <trkpt lat="47.74091" lon="2.198504">
        <ele>174.0</ele>
        <time>2022-01-13T09:04:53Z</time>
      </trkpt>
      <trkpt lat="47.74091" lon="2.1985207">
        <ele>174.0</ele>
        <time>2022-01-13T09:04:54Z</time>
      </trkpt>
      <trkpt lat="47.74091" lon="2.198538">
        <ele>174.0</ele>
        <time>2022-01-13T09:04:55Z</time>
      </trkpt>
      <trkpt lat="47.74091" lon="2.1985605">
        <ele>174.0</ele>
        <time>2022-01-13T09:04:56Z</time>
      </trkpt>
      <trkpt lat="47.74091" lon="2.1985836">
        <ele>174.0</ele>
        <time>2022-01-13T09:04:57Z</time>
      </trkpt>
      <trkpt lat="47.740913" lon="2.198604">
        <ele>174.0</ele>
        <time>2022-01-13T09:04:58Z</time>
      </trkpt>
      <trkpt lat="47.740913" lon="2.1986237">
        <ele>174.0</ele>
        <time>2022-01-13T09:04:59Z</time>
      </trkpt>
      <trkpt lat="47.740913" lon="2.1986399">
        <ele>174.0</ele>
        <time>2022-01-13T09:05:00Z</time>
      </trkpt>
      <trkpt lat="47.740913" lon="2.198653">
        <ele>174.0</ele>
        <time>2022-01-13T09:05:01Z</time>
      </trkpt>
      <trkpt lat="47.740913" lon="2.1986625">
        <ele>173.0</ele>
        <time>2022-01-13T09:05:02Z</time>
      </trkpt>
      <trkpt lat="47.74091" lon="2.1986716">
        <ele>173.0</ele>
        <time>2022-01-13T09:05:03Z</time>
      </trkpt>
      <trkpt lat="47.740917" lon="2.1986852">
        <ele>173.0</ele>
        <time>2022-01-13T09:05:04Z</time>
      </trkpt>
      <trkpt lat="47.740913" lon="2.198701">
        <ele>173.0</ele>
        <time>2022-01-13T09:05:05Z</time>
      </trkpt>
      <trkpt lat="47.740917" lon="2.1987135">
        <ele>173.0</ele>
        <time>2022-01-13T09:05:06Z</time>
      </trkpt>
      <trkpt lat="47.74092" lon="2.1987312">
        <ele>173.0</ele>
        <time>2022-01-13T09:05:07Z</time>
      </trkpt>
      <trkpt lat="47.74092" lon="2.198752">
        <ele>173.0</ele>
        <time>2022-01-13T09:05:08Z</time>
      </trkpt>
      <trkpt lat="47.740925" lon="2.198769">
        <ele>173.0</ele>
        <time>2022-01-13T09:05:09Z</time>
      </trkpt>
      <trkpt lat="47.740925" lon="2.198785">
        <ele>173.0</ele>
        <time>2022-01-13T09:05:10Z</time>
      </trkpt>
      <trkpt lat="47.74093" lon="2.1987994">
        <ele>173.0</ele>
        <time>2022-01-13T09:05:11Z</time>
      </trkpt>
      <trkpt lat="47.74093" lon="2.1988165">
        <ele>172.0</ele>
        <time>2022-01-13T09:05:12Z</time>
      </trkpt>
      <trkpt lat="47.740932" lon="2.1988335">
        <ele>172.0</ele>
        <time>2022-01-13T09:05:13Z</time>
      </trkpt>
      <trkpt lat="47.740932" lon="2.1988504">
        <ele>173.0</ele>
        <time>2022-01-13T09:05:14Z</time>
      </trkpt>
      <trkpt lat="47.740932" lon="2.198868">
        <ele>173.0</ele>
        <time>2022-01-13T09:05:15Z</time>
      </trkpt>
      <trkpt lat="47.740932" lon="2.1988852">
        <ele>173.0</ele>
        <time>2022-01-13T09:05:16Z</time>
      </trkpt>
      <trkpt lat="47.740932" lon="2.1989007">
        <ele>173.0</ele>
        <time>2022-01-13T09:05:17Z</time>
      </trkpt>
      <trkpt lat="47.74093" lon="2.1989172">
        <ele>173.0</ele>
        <time>2022-01-13T09:05:18Z</time>
      </trkpt>
      <trkpt lat="47.740925" lon="2.1989346">
        <ele>173.0</ele>
        <time>2022-01-13T09:05:19Z</time>
      </trkpt>
      <trkpt lat="47.74093" lon="2.1989524">
        <ele>173.0</ele>
        <time>2022-01-13T09:05:20Z</time>
      </trkpt>
      <trkpt lat="47.74093" lon="2.1989732">
        <ele>173.0</ele>
        <time>2022-01-13T09:05:21Z</time>
      </trkpt>
      <trkpt lat="47.740932" lon="2.198994">
        <ele>173.0</ele>
        <time>2022-01-13T09:05:22Z</time>
      </trkpt>
      <trkpt lat="47.740936" lon="2.1990097">
        <ele>174.0</ele>
        <time>2022-01-13T09:05:23Z</time>
      </trkpt>
      <trkpt lat="47.740936" lon="2.1990266">
        <ele>174.0</ele>
        <time>2022-01-13T09:05:24Z</time>
      </trkpt>
      <trkpt lat="47.740936" lon="2.1990414">
        <ele>174.0</ele>
        <time>2022-01-13T09:05:25Z</time>
      </trkpt>
      <trkpt lat="47.740936" lon="2.1990526">
        <ele>174.0</ele>
        <time>2022-01-13T09:05:26Z</time>
      </trkpt>
      <trkpt lat="47.74094" lon="2.199066">
        <ele>174.0</ele>
        <time>2022-01-13T09:05:27Z</time>
      </trkpt>
      <trkpt lat="47.74094" lon="2.1990802">
        <ele>174.0</ele>
        <time>2022-01-13T09:05:28Z</time>
      </trkpt>
      <trkpt lat="47.740944" lon="2.1990952">
        <ele>174.0</ele>
        <time>2022-01-13T09:05:29Z</time>
      </trkpt>
      <trkpt lat="47.740948" lon="2.1991076">
        <ele>174.0</ele>
        <time>2022-01-13T09:05:30Z</time>
      </trkpt>
      <trkpt lat="47.740944" lon="2.199128">
        <ele>174.0</ele>
        <time>2022-01-13T09:05:31Z</time>
      </trkpt>
      <trkpt lat="47.740948" lon="2.1991456">
        <ele>174.0</ele>
        <time>2022-01-13T09:05:32Z</time>
      </trkpt>
      <trkpt lat="47.740948" lon="2.199163">
        <ele>173.0</ele>
        <time>2022-01-13T09:05:33Z</time>
      </trkpt>
      <trkpt lat="47.74095" lon="2.1991804">
        <ele>174.0</ele>
        <time>2022-01-13T09:05:34Z</time>
      </trkpt>
      <trkpt lat="47.74095" lon="2.1991982">
        <ele>174.0</ele>
        <time>2022-01-13T09:05:35Z</time>
      </trkpt>
      <trkpt lat="47.74095" lon="2.199213">
        <ele>174.0</ele>
        <time>2022-01-13T09:05:36Z</time>
      </trkpt>
      <trkpt lat="47.74095" lon="2.1992314">
        <ele>174.0</ele>
        <time>2022-01-13T09:05:37Z</time>
      </trkpt>
      <trkpt lat="47.740955" lon="2.19925">
        <ele>173.0</ele>
        <time>2022-01-13T09:05:38Z</time>
      </trkpt>
      <trkpt lat="47.740955" lon="2.1992705">
        <ele>173.0</ele>
        <time>2022-01-13T09:05:39Z</time>
      </trkpt>
      <trkpt lat="47.740955" lon="2.1992846">
        <ele>173.0</ele>
        <time>2022-01-13T09:05:40Z</time>
      </trkpt>
      <trkpt lat="47.740955" lon="2.1992981">
        <ele>173.0</ele>
        <time>2022-01-13T09:05:41Z</time>
      </trkpt>
      <trkpt lat="47.740955" lon="2.1993115">
        <ele>173.0</ele>
        <time>2022-01-13T09:05:42Z</time>
      </trkpt>
      <trkpt lat="47.740955" lon="2.1993291">
        <ele>173.0</ele>
        <time>2022-01-13T09:05:43Z</time>
      </trkpt>
      <trkpt lat="47.74095" lon="2.1993394">
        <ele>174.0</ele>
        <time>2022-01-13T09:05:44Z</time>
      </trkpt>
      <trkpt lat="47.740948" lon="2.1993537">
        <ele>174.0</ele>
        <time>2022-01-13T09:05:45Z</time>
      </trkpt>
      <trkpt lat="47.740948" lon="2.1993728">
        <ele>174.0</ele>
        <time>2022-01-13T09:05:46Z</time>
      </trkpt>
      <trkpt lat="47.740948" lon="2.199393">
        <ele>174.0</ele>
        <time>2022-01-13T09:05:47Z</time>
      </trkpt>
      <trkpt lat="47.740948" lon="2.199413">
        <ele>174.0</ele>
        <time>2022-01-13T09:05:48Z</time>
      </trkpt>
      <trkpt lat="47.74095" lon="2.1994324">
        <ele>174.0</ele>
        <time>2022-01-13T09:05:49Z</time>
      </trkpt>
      <trkpt lat="47.74095" lon="2.1994512">
        <ele>174.0</ele>
        <time>2022-01-13T09:05:50Z</time>
      </trkpt>
      <trkpt lat="47.74095" lon="2.199472">
        <ele>174.0</ele>
        <time>2022-01-13T09:05:51Z</time>
      </trkpt>
      <trkpt lat="47.74095" lon="2.1994936">
        <ele>175.0</ele>
        <time>2022-01-13T09:05:52Z</time>
      </trkpt>
      <trkpt lat="47.74095" lon="2.1995118">
        <ele>175.0</ele>
        <time>2022-01-13T09:05:53Z</time>
      </trkpt>
      <trkpt lat="47.74095" lon="2.1995304">
        <ele>175.0</ele>
        <time>2022-01-13T09:05:54Z</time>
      </trkpt>
      <trkpt lat="47.74095" lon="2.1995506">
        <ele>175.0</ele>
        <time>2022-01-13T09:05:55Z</time>
      </trkpt>
      <trkpt lat="47.74096" lon="2.1995707">
        <ele>175.0</ele>
        <time>2022-01-13T09:05:56Z</time>
      </trkpt>
      <trkpt lat="47.740963" lon="2.1995876">
        <ele>175.0</ele>
        <time>2022-01-13T09:05:57Z</time>
      </trkpt>
      <trkpt lat="47.740967" lon="2.199604">
        <ele>175.0</ele>
        <time>2022-01-13T09:05:58Z</time>
      </trkpt>
      <trkpt lat="47.740963" lon="2.1996202">
        <ele>175.0</ele>
        <time>2022-01-13T09:05:59Z</time>
      </trkpt>
      <trkpt lat="47.740963" lon="2.1996384">
        <ele>175.0</ele>
        <time>2022-01-13T09:06:00Z</time>
      </trkpt>
      <trkpt lat="47.74096" lon="2.1996598">
        <ele>175.0</ele>
        <time>2022-01-13T09:06:01Z</time>
      </trkpt>
      <trkpt lat="47.74096" lon="2.1996784">
        <ele>176.0</ele>
        <time>2022-01-13T09:06:02Z</time>
      </trkpt>
      <trkpt lat="47.74096" lon="2.199694">
        <ele>176.0</ele>
        <time>2022-01-13T09:06:03Z</time>
      </trkpt>
      <trkpt lat="47.740963" lon="2.1997144">
        <ele>176.0</ele>
        <time>2022-01-13T09:06:04Z</time>
      </trkpt>
      <trkpt lat="47.740967" lon="2.199733">
        <ele>176.0</ele>
        <time>2022-01-13T09:06:05Z</time>
      </trkpt>
      <trkpt lat="47.740967" lon="2.199744">
        <ele>176.0</ele>
        <time>2022-01-13T09:06:06Z</time>
      </trkpt>
      <trkpt lat="47.740967" lon="2.1997557">
        <ele>176.0</ele>
        <time>2022-01-13T09:06:07Z</time>
      </trkpt>
      <trkpt lat="47.740967" lon="2.1997674">
        <ele>175.0</ele>
        <time>2022-01-13T09:06:08Z</time>
      </trkpt>
      <trkpt lat="47.740967" lon="2.1997864">
        <ele>175.0</ele>
        <time>2022-01-13T09:06:09Z</time>
      </trkpt>
      <trkpt lat="47.740967" lon="2.19981">
        <ele>175.0</ele>
        <time>2022-01-13T09:06:10Z</time>
      </trkpt>
      <trkpt lat="47.740967" lon="2.1998289">
        <ele>176.0</ele>
        <time>2022-01-13T09:06:11Z</time>
      </trkpt>
      <trkpt lat="47.740963" lon="2.199845">
        <ele>175.0</ele>
        <time>2022-01-13T09:06:12Z</time>
      </trkpt>
      <trkpt lat="47.740963" lon="2.199863">
        <ele>175.0</ele>
        <time>2022-01-13T09:06:13Z</time>
      </trkpt>
      <trkpt lat="47.740963" lon="2.1998804">
        <ele>175.0</ele>
        <time>2022-01-13T09:06:14Z</time>
      </trkpt>
      <trkpt lat="47.740963" lon="2.1998973">
        <ele>175.0</ele>
        <time>2022-01-13T09:06:15Z</time>
      </trkpt>
      <trkpt lat="47.740963" lon="2.1999128">
        <ele>175.0</ele>
        <time>2022-01-13T09:06:16Z</time>
      </trkpt>
      <trkpt lat="47.74097" lon="2.1999276">
        <ele>175.0</ele>
        <time>2022-01-13T09:06:17Z</time>
      </trkpt>
      <trkpt lat="47.74097" lon="2.199946">
        <ele>175.0</ele>
        <time>2022-01-13T09:06:18Z</time>
      </trkpt>
      <trkpt lat="47.740974" lon="2.19997">
        <ele>174.0</ele>
        <time>2022-01-13T09:06:19Z</time>
      </trkpt>
      <trkpt lat="47.740974" lon="2.1999896">
        <ele>174.0</ele>
        <time>2022-01-13T09:06:20Z</time>
      </trkpt>
      <trkpt lat="47.740974" lon="2.200008">
        <ele>174.0</ele>
        <time>2022-01-13T09:06:21Z</time>
      </trkpt>
      <trkpt lat="47.740967" lon="2.2000244">
        <ele>174.0</ele>
        <time>2022-01-13T09:06:22Z</time>
      </trkpt>
      <trkpt lat="47.740967" lon="2.2000358">
        <ele>174.0</ele>
        <time>2022-01-13T09:06:23Z</time>
      </trkpt>
      <trkpt lat="47.74097" lon="2.2000456">
        <ele>174.0</ele>
        <time>2022-01-13T09:06:24Z</time>
      </trkpt>
      <trkpt lat="47.740967" lon="2.200058">
        <ele>174.0</ele>
        <time>2022-01-13T09:06:25Z</time>
      </trkpt>
      <trkpt lat="47.74097" lon="2.2000763">
        <ele>175.0</ele>
        <time>2022-01-13T09:06:26Z</time>
      </trkpt>
      <trkpt lat="47.740967" lon="2.2000968">
        <ele>175.0</ele>
        <time>2022-01-13T09:06:27Z</time>
      </trkpt>
      <trkpt lat="47.74097" lon="2.2001207">
        <ele>175.0</ele>
        <time>2022-01-13T09:06:28Z</time>
      </trkpt>
      <trkpt lat="47.740967" lon="2.2001376">
        <ele>175.0</ele>
        <time>2022-01-13T09:06:29Z</time>
      </trkpt>
      <trkpt lat="47.740963" lon="2.2001572">
        <ele>175.0</ele>
        <time>2022-01-13T09:06:30Z</time>
      </trkpt>
      <trkpt lat="47.74096" lon="2.200178">
        <ele>175.0</ele>
        <time>2022-01-13T09:06:31Z</time>
      </trkpt>
      <trkpt lat="47.740955" lon="2.200199">
        <ele>175.0</ele>
        <time>2022-01-13T09:06:32Z</time>
      </trkpt>
      <trkpt lat="47.74095" lon="2.200218">
        <ele>175.0</ele>
        <time>2022-01-13T09:06:33Z</time>
      </trkpt>
      <trkpt lat="47.74095" lon="2.2002344">
        <ele>174.0</ele>
        <time>2022-01-13T09:06:34Z</time>
      </trkpt>
      <trkpt lat="47.74095" lon="2.2002478">
        <ele>174.0</ele>
        <time>2022-01-13T09:06:35Z</time>
      </trkpt>
      <trkpt lat="47.74095" lon="2.200264">
        <ele>174.0</ele>
        <time>2022-01-13T09:06:36Z</time>
      </trkpt>
      <trkpt lat="47.74095" lon="2.2002807">
        <ele>174.0</ele>
        <time>2022-01-13T09:06:37Z</time>
      </trkpt>
      <trkpt lat="47.740948" lon="2.2002945">
        <ele>174.0</ele>
        <time>2022-01-13T09:06:38Z</time>
      </trkpt>
      <trkpt lat="47.740948" lon="2.2003064">
        <ele>174.0</ele>
        <time>2022-01-13T09:06:39Z</time>
      </trkpt>
      <trkpt lat="47.74095" lon="2.2003157">
        <ele>174.0</ele>
        <time>2022-01-13T09:06:40Z</time>
      </trkpt>
      <trkpt lat="47.740955" lon="2.200332">
        <ele>174.0</ele>
        <time>2022-01-13T09:06:41Z</time>
      </trkpt>
      <trkpt lat="47.740955" lon="2.2003489">
        <ele>174.0</ele>
        <time>2022-01-13T09:06:42Z</time>
      </trkpt>
      <trkpt lat="47.740963" lon="2.2003627">
        <ele>173.0</ele>
        <time>2022-01-13T09:06:43Z</time>
      </trkpt>
      <trkpt lat="47.740963" lon="2.200383">
        <ele>173.0</ele>
        <time>2022-01-13T09:06:44Z</time>
      </trkpt>
      <trkpt lat="47.740967" lon="2.200394">
        <ele>173.0</ele>
        <time>2022-01-13T09:06:45Z</time>
      </trkpt>
      <trkpt lat="47.74097" lon="2.2004056">
        <ele>174.0</ele>
        <time>2022-01-13T09:06:46Z</time>
      </trkpt>
      <trkpt lat="47.74097" lon="2.2004158">
        <ele>174.0</ele>
        <time>2022-01-13T09:06:47Z</time>
      </trkpt>
      <trkpt lat="47.740974" lon="2.2004304">
        <ele>174.0</ele>
        <time>2022-01-13T09:06:48Z</time>
      </trkpt>
      <trkpt lat="47.740974" lon="2.2004461">
        <ele>174.0</ele>
        <time>2022-01-13T09:06:49Z</time>
      </trkpt>
      <trkpt lat="47.740974" lon="2.2004664">
        <ele>174.0</ele>
        <time>2022-01-13T09:06:50Z</time>
      </trkpt>
      <trkpt lat="47.74098" lon="2.200486">
        <ele>174.0</ele>
        <time>2022-01-13T09:06:51Z</time>
      </trkpt>
      <trkpt lat="47.740986" lon="2.2005048">
        <ele>173.0</ele>
        <time>2022-01-13T09:06:52Z</time>
      </trkpt>
      <trkpt lat="47.74099" lon="2.2005212">
        <ele>173.0</ele>
        <time>2022-01-13T09:06:53Z</time>
      </trkpt>
      <trkpt lat="47.740993" lon="2.2005384">
        <ele>173.0</ele>
        <time>2022-01-13T09:06:54Z</time>
      </trkpt>
      <trkpt lat="47.740997" lon="2.200553">
        <ele>173.0</ele>
        <time>2022-01-13T09:06:55Z</time>
      </trkpt>
      <trkpt lat="47.741005" lon="2.2005749">
        <ele>172.0</ele>
        <time>2022-01-13T09:06:56Z</time>
      </trkpt>
      <trkpt lat="47.74101" lon="2.2005963">
        <ele>172.0</ele>
        <time>2022-01-13T09:06:57Z</time>
      </trkpt>
      <trkpt lat="47.74101" lon="2.2006216">
        <ele>170.0</ele>
        <time>2022-01-13T09:06:58Z</time>
      </trkpt>
      <trkpt lat="47.741013" lon="2.2006438">
        <ele>170.0</ele>
        <time>2022-01-13T09:06:59Z</time>
      </trkpt>
      <trkpt lat="47.741013" lon="2.200662">
        <ele>170.0</ele>
        <time>2022-01-13T09:07:00Z</time>
      </trkpt>
      <trkpt lat="47.741016" lon="2.2006779">
        <ele>169.0</ele>
        <time>2022-01-13T09:07:01Z</time>
      </trkpt>
      <trkpt lat="47.741016" lon="2.2006927">
        <ele>169.0</ele>
        <time>2022-01-13T09:07:02Z</time>
      </trkpt>
      <trkpt lat="47.741013" lon="2.200706">
        <ele>169.0</ele>
        <time>2022-01-13T09:07:03Z</time>
      </trkpt>
      <trkpt lat="47.741013" lon="2.2007198">
        <ele>169.0</ele>
        <time>2022-01-13T09:07:04Z</time>
      </trkpt>
      <trkpt lat="47.741013" lon="2.2007365">
        <ele>169.0</ele>
        <time>2022-01-13T09:07:05Z</time>
      </trkpt>
      <trkpt lat="47.741016" lon="2.200754">
        <ele>169.0</ele>
        <time>2022-01-13T09:07:06Z</time>
      </trkpt>
      <trkpt lat="47.741016" lon="2.2007737">
        <ele>169.0</ele>
        <time>2022-01-13T09:07:07Z</time>
      </trkpt>
      <trkpt lat="47.74102" lon="2.2007964">
        <ele>169.0</ele>
        <time>2022-01-13T09:07:08Z</time>
      </trkpt>
      <trkpt lat="47.741024" lon="2.2008147">
        <ele>169.0</ele>
        <time>2022-01-13T09:07:09Z</time>
      </trkpt>
      <trkpt lat="47.741024" lon="2.2008324">
        <ele>169.0</ele>
        <time>2022-01-13T09:07:10Z</time>
      </trkpt>
      <trkpt lat="47.741024" lon="2.2008426">
        <ele>169.0</ele>
        <time>2022-01-13T09:07:11Z</time>
      </trkpt>
      <trkpt lat="47.741028" lon="2.200852">
        <ele>170.0</ele>
        <time>2022-01-13T09:07:12Z</time>
      </trkpt>
      <trkpt lat="47.74103" lon="2.200858">
        <ele>169.0</ele>
        <time>2022-01-13T09:07:13Z</time>
      </trkpt>
      <trkpt lat="47.74103" lon="2.200871">
        <ele>169.0</ele>
        <time>2022-01-13T09:07:14Z</time>
      </trkpt>
      <trkpt lat="47.741028" lon="2.200884">
        <ele>169.0</ele>
        <time>2022-01-13T09:07:15Z</time>
      </trkpt>
      <trkpt lat="47.741028" lon="2.2008955">
        <ele>169.0</ele>
        <time>2022-01-13T09:07:16Z</time>
      </trkpt>
      <trkpt lat="47.741028" lon="2.2009075">
        <ele>168.0</ele>
        <time>2022-01-13T09:07:17Z</time>
      </trkpt>
      <trkpt lat="47.74103" lon="2.200922">
        <ele>168.0</ele>
        <time>2022-01-13T09:07:18Z</time>
      </trkpt>
      <trkpt lat="47.74103" lon="2.200941">
        <ele>168.0</ele>
        <time>2022-01-13T09:07:19Z</time>
      </trkpt>
      <trkpt lat="47.74103" lon="2.2009628">
        <ele>168.0</ele>
        <time>2022-01-13T09:07:20Z</time>
      </trkpt>
      <trkpt lat="47.74103" lon="2.2009833">
        <ele>168.0</ele>
        <time>2022-01-13T09:07:21Z</time>
      </trkpt>
      <trkpt lat="47.741028" lon="2.2010007">
        <ele>168.0</ele>
        <time>2022-01-13T09:07:22Z</time>
      </trkpt>
      <trkpt lat="47.741024" lon="2.2010121">
        <ele>169.0</ele>
        <time>2022-01-13T09:07:23Z</time>
      </trkpt>
      <trkpt lat="47.741024" lon="2.2010257">
        <ele>168.0</ele>
        <time>2022-01-13T09:07:24Z</time>
      </trkpt>
      <trkpt lat="47.741016" lon="2.2010381">
        <ele>169.0</ele>
        <time>2022-01-13T09:07:25Z</time>
      </trkpt>
      <trkpt lat="47.741016" lon="2.2010572">
        <ele>169.0</ele>
        <time>2022-01-13T09:07:26Z</time>
      </trkpt>
      <trkpt lat="47.741013" lon="2.2010772">
        <ele>169.0</ele>
        <time>2022-01-13T09:07:27Z</time>
      </trkpt>
      <trkpt lat="47.74101" lon="2.2010942">
        <ele>169.0</ele>
        <time>2022-01-13T09:07:28Z</time>
      </trkpt>
      <trkpt lat="47.741005" lon="2.201115">
        <ele>168.0</ele>
        <time>2022-01-13T09:07:29Z</time>
      </trkpt>
      <trkpt lat="47.741" lon="2.201136">
        <ele>168.0</ele>
        <time>2022-01-13T09:07:30Z</time>
      </trkpt>
      <trkpt lat="47.740997" lon="2.201154">
        <ele>168.0</ele>
        <time>2022-01-13T09:07:31Z</time>
      </trkpt>
      <trkpt lat="47.740993" lon="2.2011714">
        <ele>168.0</ele>
        <time>2022-01-13T09:07:32Z</time>
      </trkpt>
      <trkpt lat="47.74099" lon="2.2011929">
        <ele>168.0</ele>
        <time>2022-01-13T09:07:33Z</time>
      </trkpt>
      <trkpt lat="47.740986" lon="2.201213">
        <ele>168.0</ele>
        <time>2022-01-13T09:07:34Z</time>
      </trkpt>
      <trkpt lat="47.740982" lon="2.2012377">
        <ele>168.0</ele>
        <time>2022-01-13T09:07:35Z</time>
      </trkpt>
      <trkpt lat="47.74098" lon="2.2012591">
        <ele>167.0</ele>
        <time>2022-01-13T09:07:36Z</time>
      </trkpt>
      <trkpt lat="47.74097" lon="2.2012804">
        <ele>167.0</ele>
        <time>2022-01-13T09:07:37Z</time>
      </trkpt>
      <trkpt lat="47.740967" lon="2.2013023">
        <ele>167.0</ele>
        <time>2022-01-13T09:07:38Z</time>
      </trkpt>
      <trkpt lat="47.74096" lon="2.20132">
        <ele>167.0</ele>
        <time>2022-01-13T09:07:39Z</time>
      </trkpt>
      <trkpt lat="47.740955" lon="2.2013392">
        <ele>167.0</ele>
        <time>2022-01-13T09:07:40Z</time>
      </trkpt>
      <trkpt lat="47.740955" lon="2.2013555">
        <ele>167.0</ele>
        <time>2022-01-13T09:07:41Z</time>
      </trkpt>
      <trkpt lat="47.74095" lon="2.201374">
        <ele>168.0</ele>
        <time>2022-01-13T09:07:42Z</time>
      </trkpt>
      <trkpt lat="47.740944" lon="2.201394">
        <ele>168.0</ele>
        <time>2022-01-13T09:07:43Z</time>
      </trkpt>
      <trkpt lat="47.740936" lon="2.201412">
        <ele>167.0</ele>
        <time>2022-01-13T09:07:44Z</time>
      </trkpt>
      <trkpt lat="47.74093" lon="2.2014306">
        <ele>168.0</ele>
        <time>2022-01-13T09:07:45Z</time>
      </trkpt>
      <trkpt lat="47.74092" lon="2.201442">
        <ele>168.0</ele>
        <time>2022-01-13T09:07:46Z</time>
      </trkpt>
      <trkpt lat="47.740917" lon="2.2014575">
        <ele>169.0</ele>
        <time>2022-01-13T09:07:47Z</time>
      </trkpt>
      <trkpt lat="47.74091" lon="2.2014682">
        <ele>169.0</ele>
        <time>2022-01-13T09:07:48Z</time>
      </trkpt>
      <trkpt lat="47.740902" lon="2.2014778">
        <ele>169.0</ele>
        <time>2022-01-13T09:07:49Z</time>
      </trkpt>
      <trkpt lat="47.740894" lon="2.2014866">
        <ele>169.0</ele>
        <time>2022-01-13T09:07:50Z</time>
      </trkpt>
      <trkpt lat="47.740887" lon="2.2014964">
        <ele>170.0</ele>
        <time>2022-01-13T09:07:51Z</time>
      </trkpt>
      <trkpt lat="47.740875" lon="2.2015064">
        <ele>169.0</ele>
        <time>2022-01-13T09:07:52Z</time>
      </trkpt>
      <trkpt lat="47.740868" lon="2.2015176">
        <ele>170.0</ele>
        <time>2022-01-13T09:07:53Z</time>
      </trkpt>
      <trkpt lat="47.74086" lon="2.2015295">
        <ele>171.0</ele>
        <time>2022-01-13T09:07:54Z</time>
      </trkpt>
      <trkpt lat="47.740856" lon="2.2015417">
        <ele>171.0</ele>
        <time>2022-01-13T09:07:55Z</time>
      </trkpt>
      <trkpt lat="47.740852" lon="2.2015572">
        <ele>171.0</ele>
        <time>2022-01-13T09:07:56Z</time>
      </trkpt>
      <trkpt lat="47.740845" lon="2.201575">
        <ele>171.0</ele>
        <time>2022-01-13T09:07:57Z</time>
      </trkpt>
      <trkpt lat="47.740837" lon="2.201592">
        <ele>171.0</ele>
        <time>2022-01-13T09:07:58Z</time>
      </trkpt>
      <trkpt lat="47.740833" lon="2.2016046">
        <ele>171.0</ele>
        <time>2022-01-13T09:07:59Z</time>
      </trkpt>
      <trkpt lat="47.74082" lon="2.2016234">
        <ele>171.0</ele>
        <time>2022-01-13T09:08:00Z</time>
      </trkpt>
      <trkpt lat="47.740814" lon="2.2016368">
        <ele>171.0</ele>
        <time>2022-01-13T09:08:01Z</time>
      </trkpt>
      <trkpt lat="47.74081" lon="2.201649">
        <ele>171.0</ele>
        <time>2022-01-13T09:08:02Z</time>
      </trkpt>
      <trkpt lat="47.740803" lon="2.2016642">
        <ele>172.0</ele>
        <time>2022-01-13T09:08:03Z</time>
      </trkpt>
      <trkpt lat="47.7408" lon="2.2016788">
        <ele>171.0</ele>
        <time>2022-01-13T09:08:04Z</time>
      </trkpt>
      <trkpt lat="47.74079" lon="2.2016954">
        <ele>172.0</ele>
        <time>2022-01-13T09:08:05Z</time>
      </trkpt>
      <trkpt lat="47.740788" lon="2.2017052">
        <ele>172.0</ele>
        <time>2022-01-13T09:08:06Z</time>
      </trkpt>
      <trkpt lat="47.740784" lon="2.2017193">
        <ele>172.0</ele>
        <time>2022-01-13T09:08:07Z</time>
      </trkpt>
      <trkpt lat="47.740776" lon="2.2017336">
        <ele>172.0</ele>
        <time>2022-01-13T09:08:08Z</time>
      </trkpt>
      <trkpt lat="47.740765" lon="2.2017515">
        <ele>172.0</ele>
        <time>2022-01-13T09:08:09Z</time>
      </trkpt>
      <trkpt lat="47.74076" lon="2.2017677">
        <ele>172.0</ele>
        <time>2022-01-13T09:08:10Z</time>
      </trkpt>
      <trkpt lat="47.740753" lon="2.2017815">
        <ele>172.0</ele>
        <time>2022-01-13T09:08:11Z</time>
      </trkpt>
      <trkpt lat="47.74074" lon="2.2017927">
        <ele>172.0</ele>
        <time>2022-01-13T09:08:12Z</time>
      </trkpt>
      <trkpt lat="47.740738" lon="2.2018054">
        <ele>171.0</ele>
        <time>2022-01-13T09:08:13Z</time>
      </trkpt>
      <trkpt lat="47.74073" lon="2.2018178">
        <ele>172.0</ele>
        <time>2022-01-13T09:08:14Z</time>
      </trkpt>
      <trkpt lat="47.740723" lon="2.201831">
        <ele>172.0</ele>
        <time>2022-01-13T09:08:15Z</time>
      </trkpt>
      <trkpt lat="47.740715" lon="2.2018473">
        <ele>172.0</ele>
        <time>2022-01-13T09:08:16Z</time>
      </trkpt>
      <trkpt lat="47.740707" lon="2.201865">
        <ele>172.0</ele>
        <time>2022-01-13T09:08:17Z</time>
      </trkpt>
      <trkpt lat="47.740696" lon="2.2018795">
        <ele>172.0</ele>
        <time>2022-01-13T09:08:18Z</time>
      </trkpt>
      <trkpt lat="47.74069" lon="2.201894">
        <ele>171.0</ele>
        <time>2022-01-13T09:08:19Z</time>
      </trkpt>
      <trkpt lat="47.74068" lon="2.201909">
        <ele>172.0</ele>
        <time>2022-01-13T09:08:20Z</time>
      </trkpt>
      <trkpt lat="47.740673" lon="2.201928">
        <ele>172.0</ele>
        <time>2022-01-13T09:08:21Z</time>
      </trkpt>
      <trkpt lat="47.740665" lon="2.2019446">
        <ele>171.0</ele>
        <time>2022-01-13T09:08:22Z</time>
      </trkpt>
      <trkpt lat="47.740654" lon="2.201963">
        <ele>172.0</ele>
        <time>2022-01-13T09:08:23Z</time>
      </trkpt>
      <trkpt lat="47.74065" lon="2.2019846">
        <ele>172.0</ele>
        <time>2022-01-13T09:08:24Z</time>
      </trkpt>
      <trkpt lat="47.740646" lon="2.2020073">
        <ele>172.0</ele>
        <time>2022-01-13T09:08:25Z</time>
      </trkpt>
      <trkpt lat="47.740643" lon="2.202028">
        <ele>172.0</ele>
        <time>2022-01-13T09:08:26Z</time>
      </trkpt>
      <trkpt lat="47.74064" lon="2.202051">
        <ele>172.0</ele>
        <time>2022-01-13T09:08:27Z</time>
      </trkpt>
      <trkpt lat="47.740635" lon="2.202072">
        <ele>172.0</ele>
        <time>2022-01-13T09:08:28Z</time>
      </trkpt>
      <trkpt lat="47.74063" lon="2.2020915">
        <ele>171.0</ele>
        <time>2022-01-13T09:08:29Z</time>
      </trkpt>
      <trkpt lat="47.740627" lon="2.2021053">
        <ele>171.0</ele>
        <time>2022-01-13T09:08:30Z</time>
      </trkpt>
      <trkpt lat="47.740623" lon="2.202119">
        <ele>172.0</ele>
        <time>2022-01-13T09:08:31Z</time>
      </trkpt>
      <trkpt lat="47.74062" lon="2.2021341">
        <ele>171.0</ele>
        <time>2022-01-13T09:08:32Z</time>
      </trkpt>
      <trkpt lat="47.740616" lon="2.2021468">
        <ele>171.0</ele>
        <time>2022-01-13T09:08:33Z</time>
      </trkpt>
      <trkpt lat="47.740612" lon="2.2021635">
        <ele>172.0</ele>
        <time>2022-01-13T09:08:34Z</time>
      </trkpt>
      <trkpt lat="47.740616" lon="2.2021759">
        <ele>172.0</ele>
        <time>2022-01-13T09:08:35Z</time>
      </trkpt>
      <trkpt lat="47.740616" lon="2.20219">
        <ele>173.0</ele>
        <time>2022-01-13T09:08:36Z</time>
      </trkpt>
      <trkpt lat="47.74062" lon="2.2022052">
        <ele>173.0</ele>
        <time>2022-01-13T09:08:37Z</time>
      </trkpt>
      <trkpt lat="47.74062" lon="2.2022216">
        <ele>172.0</ele>
        <time>2022-01-13T09:08:38Z</time>
      </trkpt>
      <trkpt lat="47.740623" lon="2.202239">
        <ele>173.0</ele>
        <time>2022-01-13T09:08:39Z</time>
      </trkpt>
      <trkpt lat="47.740623" lon="2.2022533">
        <ele>172.0</ele>
        <time>2022-01-13T09:08:40Z</time>
      </trkpt>
      <trkpt lat="47.740623" lon="2.2022676">
        <ele>172.0</ele>
        <time>2022-01-13T09:08:41Z</time>
      </trkpt>
      <trkpt lat="47.740623" lon="2.2022834">
        <ele>172.0</ele>
        <time>2022-01-13T09:08:42Z</time>
      </trkpt>
      <trkpt lat="47.74062" lon="2.2023003">
        <ele>171.0</ele>
        <time>2022-01-13T09:08:43Z</time>
      </trkpt>
      <trkpt lat="47.740616" lon="2.2023158">
        <ele>171.0</ele>
        <time>2022-01-13T09:08:44Z</time>
      </trkpt>
      <trkpt lat="47.74061" lon="2.2023306">
        <ele>171.0</ele>
        <time>2022-01-13T09:08:45Z</time>
      </trkpt>
      <trkpt lat="47.740604" lon="2.2023437">
        <ele>171.0</ele>
        <time>2022-01-13T09:08:46Z</time>
      </trkpt>
      <trkpt lat="47.7406" lon="2.2023547">
        <ele>171.0</ele>
        <time>2022-01-13T09:08:47Z</time>
      </trkpt>
      <trkpt lat="47.7406" lon="2.2023716">
        <ele>171.0</ele>
        <time>2022-01-13T09:08:48Z</time>
      </trkpt>
      <trkpt lat="47.7406" lon="2.2023838">
        <ele>171.0</ele>
        <time>2022-01-13T09:08:49Z</time>
      </trkpt>
      <trkpt lat="47.740597" lon="2.2023962">
        <ele>171.0</ele>
        <time>2022-01-13T09:08:50Z</time>
      </trkpt>
      <trkpt lat="47.740593" lon="2.2024045">
        <ele>171.0</ele>
        <time>2022-01-13T09:08:51Z</time>
      </trkpt>
      <trkpt lat="47.740597" lon="2.2024112">
        <ele>171.0</ele>
        <time>2022-01-13T09:08:52Z</time>
      </trkpt>
      <trkpt lat="47.740597" lon="2.2024112">
        <ele>171.0</ele>
        <time>2022-01-13T09:08:53Z</time>
      </trkpt>
      <trkpt lat="47.740597" lon="2.2024112">
        <ele>171.0</ele>
        <time>2022-01-13T09:08:54Z</time>
      </trkpt>
      <trkpt lat="47.740597" lon="2.2024412">
        <ele>171.0</ele>
        <time>2022-01-13T09:08:55Z</time>
      </trkpt>
      <trkpt lat="47.74059" lon="2.2024572">
        <ele>170.0</ele>
        <time>2022-01-13T09:08:56Z</time>
      </trkpt>
      <trkpt lat="47.740585" lon="2.2024748">
        <ele>169.0</ele>
        <time>2022-01-13T09:08:57Z</time>
      </trkpt>
      <trkpt lat="47.740585" lon="2.2024941">
        <ele>169.0</ele>
        <time>2022-01-13T09:08:58Z</time>
      </trkpt>
      <trkpt lat="47.740585" lon="2.2025125">
        <ele>169.0</ele>
        <time>2022-01-13T09:08:59Z</time>
      </trkpt>
      <trkpt lat="47.740585" lon="2.2025278">
        <ele>168.0</ele>
        <time>2022-01-13T09:09:00Z</time>
      </trkpt>
      <trkpt lat="47.740585" lon="2.2025454">
        <ele>168.0</ele>
        <time>2022-01-13T09:09:01Z</time>
      </trkpt>
      <trkpt lat="47.740585" lon="2.2025657">
        <ele>168.0</ele>
        <time>2022-01-13T09:09:02Z</time>
      </trkpt>
      <trkpt lat="47.740585" lon="2.2025843">
        <ele>168.0</ele>
        <time>2022-01-13T09:09:03Z</time>
      </trkpt>
      <trkpt lat="47.740585" lon="2.2026067">
        <ele>168.0</ele>
        <time>2022-01-13T09:09:04Z</time>
      </trkpt>
      <trkpt lat="47.74059" lon="2.2026231">
        <ele>168.0</ele>
        <time>2022-01-13T09:09:05Z</time>
      </trkpt>
      <trkpt lat="47.740593" lon="2.2026367">
        <ele>168.0</ele>
        <time>2022-01-13T09:09:06Z</time>
      </trkpt>
      <trkpt lat="47.740593" lon="2.2026544">
        <ele>168.0</ele>
        <time>2022-01-13T09:09:07Z</time>
      </trkpt>
      <trkpt lat="47.740597" lon="2.202674">
        <ele>169.0</ele>
        <time>2022-01-13T09:09:08Z</time>
      </trkpt>
      <trkpt lat="47.740593" lon="2.2026906">
        <ele>169.0</ele>
        <time>2022-01-13T09:09:09Z</time>
      </trkpt>
      <trkpt lat="47.740593" lon="2.2027109">
        <ele>169.0</ele>
        <time>2022-01-13T09:09:10Z</time>
      </trkpt>
      <trkpt lat="47.740585" lon="2.20273">
        <ele>168.0</ele>
        <time>2022-01-13T09:09:11Z</time>
      </trkpt>
      <trkpt lat="47.740585" lon="2.2027545">
        <ele>168.0</ele>
        <time>2022-01-13T09:09:12Z</time>
      </trkpt>
      <trkpt lat="47.74058" lon="2.2027776">
        <ele>168.0</ele>
        <time>2022-01-13T09:09:13Z</time>
      </trkpt>
      <trkpt lat="47.74058" lon="2.2027981">
        <ele>168.0</ele>
        <time>2022-01-13T09:09:14Z</time>
      </trkpt>
      <trkpt lat="47.74058" lon="2.202818">
        <ele>168.0</ele>
        <time>2022-01-13T09:09:15Z</time>
      </trkpt>
      <trkpt lat="47.740585" lon="2.2028353">
        <ele>167.0</ele>
        <time>2022-01-13T09:09:16Z</time>
      </trkpt>
      <trkpt lat="47.740585" lon="2.202851">
        <ele>168.0</ele>
        <time>2022-01-13T09:09:17Z</time>
      </trkpt>
      <trkpt lat="47.740585" lon="2.2028706">
        <ele>168.0</ele>
        <time>2022-01-13T09:09:18Z</time>
      </trkpt>
      <trkpt lat="47.74058" lon="2.2028894">
        <ele>168.0</ele>
        <time>2022-01-13T09:09:19Z</time>
      </trkpt>
      <trkpt lat="47.74058" lon="2.2029068">
        <ele>168.0</ele>
        <time>2022-01-13T09:09:20Z</time>
      </trkpt>
      <trkpt lat="47.74058" lon="2.2029226">
        <ele>168.0</ele>
        <time>2022-01-13T09:09:21Z</time>
      </trkpt>
      <trkpt lat="47.740585" lon="2.2029395">
        <ele>168.0</ele>
        <time>2022-01-13T09:09:22Z</time>
      </trkpt>
      <trkpt lat="47.74059" lon="2.2029536">
        <ele>168.0</ele>
        <time>2022-01-13T09:09:23Z</time>
      </trkpt>
      <trkpt lat="47.740593" lon="2.202973">
        <ele>168.0</ele>
        <time>2022-01-13T09:09:24Z</time>
      </trkpt>
      <trkpt lat="47.740593" lon="2.2029884">
        <ele>168.0</ele>
        <time>2022-01-13T09:09:25Z</time>
      </trkpt>
      <trkpt lat="47.740593" lon="2.203004">
        <ele>168.0</ele>
        <time>2022-01-13T09:09:26Z</time>
      </trkpt>
      <trkpt lat="47.740597" lon="2.2030194">
        <ele>168.0</ele>
        <time>2022-01-13T09:09:27Z</time>
      </trkpt>
      <trkpt lat="47.740597" lon="2.2030332">
        <ele>168.0</ele>
        <time>2022-01-13T09:09:28Z</time>
      </trkpt>
      <trkpt lat="47.740593" lon="2.203052">
        <ele>168.0</ele>
        <time>2022-01-13T09:09:29Z</time>
      </trkpt>
      <trkpt lat="47.74059" lon="2.2030733">
        <ele>168.0</ele>
        <time>2022-01-13T09:09:30Z</time>
      </trkpt>
      <trkpt lat="47.74059" lon="2.203093">
        <ele>167.0</ele>
        <time>2022-01-13T09:09:31Z</time>
      </trkpt>
      <trkpt lat="47.740585" lon="2.2031093">
        <ele>167.0</ele>
        <time>2022-01-13T09:09:32Z</time>
      </trkpt>
      <trkpt lat="47.740585" lon="2.2031252">
        <ele>167.0</ele>
        <time>2022-01-13T09:09:33Z</time>
      </trkpt>
      <trkpt lat="47.740585" lon="2.2031393">
        <ele>167.0</ele>
        <time>2022-01-13T09:09:34Z</time>
      </trkpt>
      <trkpt lat="47.74058" lon="2.2031553">
        <ele>167.0</ele>
        <time>2022-01-13T09:09:35Z</time>
      </trkpt>
      <trkpt lat="47.74058" lon="2.2031758">
        <ele>167.0</ele>
        <time>2022-01-13T09:09:36Z</time>
      </trkpt>
      <trkpt lat="47.740585" lon="2.203192">
        <ele>167.0</ele>
        <time>2022-01-13T09:09:37Z</time>
      </trkpt>
      <trkpt lat="47.740585" lon="2.2032092">
        <ele>166.0</ele>
        <time>2022-01-13T09:09:38Z</time>
      </trkpt>
      <trkpt lat="47.740585" lon="2.2032306">
        <ele>166.0</ele>
        <time>2022-01-13T09:09:39Z</time>
      </trkpt>
      <trkpt lat="47.74059" lon="2.2032514">
        <ele>166.0</ele>
        <time>2022-01-13T09:09:40Z</time>
      </trkpt>
      <trkpt lat="47.740593" lon="2.2032673">
        <ele>165.0</ele>
        <time>2022-01-13T09:09:41Z</time>
      </trkpt>
      <trkpt lat="47.740593" lon="2.2032852">
        <ele>165.0</ele>
        <time>2022-01-13T09:09:42Z</time>
      </trkpt>
      <trkpt lat="47.740593" lon="2.2032998">
        <ele>165.0</ele>
        <time>2022-01-13T09:09:43Z</time>
      </trkpt>
      <trkpt lat="47.740593" lon="2.2033124">
        <ele>165.0</ele>
        <time>2022-01-13T09:09:44Z</time>
      </trkpt>
      <trkpt lat="47.740597" lon="2.2033288">
        <ele>166.0</ele>
        <time>2022-01-13T09:09:45Z</time>
      </trkpt>
      <trkpt lat="47.740597" lon="2.2033482">
        <ele>166.0</ele>
        <time>2022-01-13T09:09:46Z</time>
      </trkpt>
      <trkpt lat="47.740597" lon="2.2033658">
        <ele>167.0</ele>
        <time>2022-01-13T09:09:47Z</time>
      </trkpt>
      <trkpt lat="47.740597" lon="2.203383">
        <ele>166.0</ele>
        <time>2022-01-13T09:09:48Z</time>
      </trkpt>
      <trkpt lat="47.740597" lon="2.2034006">
        <ele>166.0</ele>
        <time>2022-01-13T09:09:49Z</time>
      </trkpt>
      <trkpt lat="47.740593" lon="2.2034183">
        <ele>166.0</ele>
        <time>2022-01-13T09:09:50Z</time>
      </trkpt>
      <trkpt lat="47.740593" lon="2.20344">
        <ele>166.0</ele>
        <time>2022-01-13T09:09:51Z</time>
      </trkpt>
      <trkpt lat="47.740593" lon="2.203463">
        <ele>166.0</ele>
        <time>2022-01-13T09:09:52Z</time>
      </trkpt>
      <trkpt lat="47.74059" lon="2.2034838">
        <ele>167.0</ele>
        <time>2022-01-13T09:09:53Z</time>
      </trkpt>
      <trkpt lat="47.740585" lon="2.2035058">
        <ele>167.0</ele>
        <time>2022-01-13T09:09:54Z</time>
      </trkpt>
      <trkpt lat="47.740585" lon="2.2035267">
        <ele>167.0</ele>
        <time>2022-01-13T09:09:55Z</time>
      </trkpt>
      <trkpt lat="47.740585" lon="2.2035441">
        <ele>167.0</ele>
        <time>2022-01-13T09:09:56Z</time>
      </trkpt>
      <trkpt lat="47.740585" lon="2.2035615">
        <ele>167.0</ele>
        <time>2022-01-13T09:09:57Z</time>
      </trkpt>
      <trkpt lat="47.74058" lon="2.2035773">
        <ele>167.0</ele>
        <time>2022-01-13T09:09:58Z</time>
      </trkpt>
      <trkpt lat="47.74058" lon="2.203591">
        <ele>167.0</ele>
        <time>2022-01-13T09:09:59Z</time>
      </trkpt>
      <trkpt lat="47.74058" lon="2.2036073">
        <ele>167.0</ele>
        <time>2022-01-13T09:10:00Z</time>
      </trkpt>
      <trkpt lat="47.74058" lon="2.2036235">
        <ele>168.0</ele>
        <time>2022-01-13T09:10:01Z</time>
      </trkpt>
      <trkpt lat="47.740578" lon="2.2036407">
        <ele>167.0</ele>
        <time>2022-01-13T09:10:02Z</time>
      </trkpt>
      <trkpt lat="47.740574" lon="2.2036638">
        <ele>168.0</ele>
        <time>2022-01-13T09:10:03Z</time>
      </trkpt>
      <trkpt lat="47.740574" lon="2.2036831">
        <ele>168.0</ele>
        <time>2022-01-13T09:10:04Z</time>
      </trkpt>
      <trkpt lat="47.740574" lon="2.2037024">
        <ele>168.0</ele>
        <time>2022-01-13T09:10:05Z</time>
      </trkpt>
      <trkpt lat="47.740574" lon="2.2037206">
        <ele>167.0</ele>
        <time>2022-01-13T09:10:06Z</time>
      </trkpt>
      <trkpt lat="47.740578" lon="2.2037363">
        <ele>167.0</ele>
        <time>2022-01-13T09:10:07Z</time>
      </trkpt>
      <trkpt lat="47.740578" lon="2.2037542">
        <ele>168.0</ele>
        <time>2022-01-13T09:10:08Z</time>
      </trkpt>
      <trkpt lat="47.740578" lon="2.2037683">
        <ele>168.0</ele>
        <time>2022-01-13T09:10:09Z</time>
      </trkpt>
      <trkpt lat="47.740578" lon="2.2037814">
        <ele>168.0</ele>
        <time>2022-01-13T09:10:10Z</time>
      </trkpt>
      <trkpt lat="47.740578" lon="2.203796">
        <ele>168.0</ele>
        <time>2022-01-13T09:10:11Z</time>
      </trkpt>
      <trkpt lat="47.740574" lon="2.2038083">
        <ele>168.0</ele>
        <time>2022-01-13T09:10:12Z</time>
      </trkpt>
      <trkpt lat="47.740574" lon="2.2038226">
        <ele>168.0</ele>
        <time>2022-01-13T09:10:13Z</time>
      </trkpt>
      <trkpt lat="47.740574" lon="2.2038398">
        <ele>168.0</ele>
        <time>2022-01-13T09:10:14Z</time>
      </trkpt>
      <trkpt lat="47.740574" lon="2.2038589">
        <ele>168.0</ele>
        <time>2022-01-13T09:10:15Z</time>
      </trkpt>
      <trkpt lat="47.74057" lon="2.203877">
        <ele>169.0</ele>
        <time>2022-01-13T09:10:16Z</time>
      </trkpt>
      <trkpt lat="47.740574" lon="2.2038994">
        <ele>168.0</ele>
        <time>2022-01-13T09:10:17Z</time>
      </trkpt>
      <trkpt lat="47.740574" lon="2.2039192">
        <ele>168.0</ele>
        <time>2022-01-13T09:10:18Z</time>
      </trkpt>
      <trkpt lat="47.740574" lon="2.203937">
        <ele>168.0</ele>
        <time>2022-01-13T09:10:19Z</time>
      </trkpt>
      <trkpt lat="47.740574" lon="2.203953">
        <ele>169.0</ele>
        <time>2022-01-13T09:10:20Z</time>
      </trkpt>
      <trkpt lat="47.740574" lon="2.2039702">
        <ele>169.0</ele>
        <time>2022-01-13T09:10:21Z</time>
      </trkpt>
      <trkpt lat="47.740566" lon="2.2039924">
        <ele>170.0</ele>
        <time>2022-01-13T09:10:22Z</time>
      </trkpt>
      <trkpt lat="47.740566" lon="2.2040157">
        <ele>170.0</ele>
        <time>2022-01-13T09:10:23Z</time>
      </trkpt>
      <trkpt lat="47.740566" lon="2.2040372">
        <ele>170.0</ele>
        <time>2022-01-13T09:10:24Z</time>
      </trkpt>
      <trkpt lat="47.740566" lon="2.204056">
        <ele>169.0</ele>
        <time>2022-01-13T09:10:25Z</time>
      </trkpt>
      <trkpt lat="47.740566" lon="2.2040718">
        <ele>169.0</ele>
        <time>2022-01-13T09:10:26Z</time>
      </trkpt>
      <trkpt lat="47.74057" lon="2.2040908">
        <ele>168.0</ele>
        <time>2022-01-13T09:10:27Z</time>
      </trkpt>
      <trkpt lat="47.740574" lon="2.204109">
        <ele>168.0</ele>
        <time>2022-01-13T09:10:28Z</time>
      </trkpt>
      <trkpt lat="47.740574" lon="2.204126">
        <ele>168.0</ele>
        <time>2022-01-13T09:10:29Z</time>
      </trkpt>
      <trkpt lat="47.740574" lon="2.2041423">
        <ele>169.0</ele>
        <time>2022-01-13T09:10:30Z</time>
      </trkpt>
      <trkpt lat="47.740574" lon="2.2041588">
        <ele>169.0</ele>
        <time>2022-01-13T09:10:31Z</time>
      </trkpt>
      <trkpt lat="47.740574" lon="2.2041771">
        <ele>169.0</ele>
        <time>2022-01-13T09:10:32Z</time>
      </trkpt>
      <trkpt lat="47.740574" lon="2.204194">
        <ele>168.0</ele>
        <time>2022-01-13T09:10:33Z</time>
      </trkpt>
      <trkpt lat="47.74057" lon="2.2042096">
        <ele>168.0</ele>
        <time>2022-01-13T09:10:34Z</time>
      </trkpt>
      <trkpt lat="47.740566" lon="2.2042243">
        <ele>168.0</ele>
        <time>2022-01-13T09:10:35Z</time>
      </trkpt>
      <trkpt lat="47.740566" lon="2.2042358">
        <ele>168.0</ele>
        <time>2022-01-13T09:10:36Z</time>
      </trkpt>
      <trkpt lat="47.740566" lon="2.204246">
        <ele>168.0</ele>
        <time>2022-01-13T09:10:37Z</time>
      </trkpt>
      <trkpt lat="47.74057" lon="2.2042599">
        <ele>168.0</ele>
        <time>2022-01-13T09:10:38Z</time>
      </trkpt>
      <trkpt lat="47.74057" lon="2.2042696">
        <ele>168.0</ele>
        <time>2022-01-13T09:10:39Z</time>
      </trkpt>
      <trkpt lat="47.740566" lon="2.2042832">
        <ele>168.0</ele>
        <time>2022-01-13T09:10:40Z</time>
      </trkpt>
      <trkpt lat="47.740566" lon="2.2042992">
        <ele>168.0</ele>
        <time>2022-01-13T09:10:41Z</time>
      </trkpt>
      <trkpt lat="47.740566" lon="2.2043161">
        <ele>168.0</ele>
        <time>2022-01-13T09:10:42Z</time>
      </trkpt>
      <trkpt lat="47.740566" lon="2.2043297">
        <ele>168.0</ele>
        <time>2022-01-13T09:10:43Z</time>
      </trkpt>
      <trkpt lat="47.740562" lon="2.204343">
        <ele>168.0</ele>
        <time>2022-01-13T09:10:44Z</time>
      </trkpt>
      <trkpt lat="47.740562" lon="2.2043555">
        <ele>168.0</ele>
        <time>2022-01-13T09:10:45Z</time>
      </trkpt>
      <trkpt lat="47.740562" lon="2.2043724">
        <ele>169.0</ele>
        <time>2022-01-13T09:10:46Z</time>
      </trkpt>
      <trkpt lat="47.740562" lon="2.2043867">
        <ele>169.0</ele>
        <time>2022-01-13T09:10:47Z</time>
      </trkpt>
      <trkpt lat="47.740566" lon="2.2044015">
        <ele>169.0</ele>
        <time>2022-01-13T09:10:48Z</time>
      </trkpt>
      <trkpt lat="47.740566" lon="2.2044015">
        <ele>169.0</ele>
        <time>2022-01-13T09:10:49Z</time>
      </trkpt>
      <trkpt lat="47.740566" lon="2.204432">
        <ele>170.0</ele>
        <time>2022-01-13T09:10:50Z</time>
      </trkpt>
      <trkpt lat="47.74057" lon="2.204449">
        <ele>170.0</ele>
        <time>2022-01-13T09:10:51Z</time>
      </trkpt>
      <trkpt lat="47.740578" lon="2.204469">
        <ele>169.0</ele>
        <time>2022-01-13T09:10:52Z</time>
      </trkpt>
      <trkpt lat="47.740578" lon="2.2044866">
        <ele>169.0</ele>
        <time>2022-01-13T09:10:53Z</time>
      </trkpt>
      <trkpt lat="47.740578" lon="2.2044985">
        <ele>168.0</ele>
        <time>2022-01-13T09:10:54Z</time>
      </trkpt>
      <trkpt lat="47.740578" lon="2.2045116">
        <ele>168.0</ele>
        <time>2022-01-13T09:10:55Z</time>
      </trkpt>
      <trkpt lat="47.740574" lon="2.204525">
        <ele>167.0</ele>
        <time>2022-01-13T09:10:56Z</time>
      </trkpt>
      <trkpt lat="47.740574" lon="2.2045414">
        <ele>167.0</ele>
        <time>2022-01-13T09:10:57Z</time>
      </trkpt>
      <trkpt lat="47.740574" lon="2.2045565">
        <ele>167.0</ele>
        <time>2022-01-13T09:10:58Z</time>
      </trkpt>
      <trkpt lat="47.740574" lon="2.2045693">
        <ele>168.0</ele>
        <time>2022-01-13T09:10:59Z</time>
      </trkpt>
      <trkpt lat="47.740574" lon="2.2045908">
        <ele>167.0</ele>
        <time>2022-01-13T09:11:00Z</time>
      </trkpt>
      <trkpt lat="47.740578" lon="2.2046084">
        <ele>167.0</ele>
        <time>2022-01-13T09:11:01Z</time>
      </trkpt>
      <trkpt lat="47.740578" lon="2.204618">
        <ele>167.0</ele>
        <time>2022-01-13T09:11:02Z</time>
      </trkpt>
      <trkpt lat="47.740578" lon="2.2046227">
        <ele>166.0</ele>
        <time>2022-01-13T09:11:03Z</time>
      </trkpt>
      <trkpt lat="47.740578" lon="2.2046304">
        <ele>167.0</ele>
        <time>2022-01-13T09:11:04Z</time>
      </trkpt>
      <trkpt lat="47.74058" lon="2.2046456">
        <ele>166.0</ele>
        <time>2022-01-13T09:11:05Z</time>
      </trkpt>
      <trkpt lat="47.74058" lon="2.2046635">
        <ele>166.0</ele>
        <time>2022-01-13T09:11:06Z</time>
      </trkpt>
      <trkpt lat="47.740574" lon="2.2046795">
        <ele>166.0</ele>
        <time>2022-01-13T09:11:07Z</time>
      </trkpt>
      <trkpt lat="47.74057" lon="2.2046854">
        <ele>167.0</ele>
        <time>2022-01-13T09:11:08Z</time>
      </trkpt>
      <trkpt lat="47.74057" lon="2.2046971">
        <ele>166.0</ele>
        <time>2022-01-13T09:11:09Z</time>
      </trkpt>
      <trkpt lat="47.74057" lon="2.2046971">
        <ele>166.0</ele>
        <time>2022-01-13T09:11:10Z</time>
      </trkpt>
      <trkpt lat="47.740566" lon="2.204711">
        <ele>167.0</ele>
        <time>2022-01-13T09:11:11Z</time>
      </trkpt>
      <trkpt lat="47.740562" lon="2.204722">
        <ele>166.0</ele>
        <time>2022-01-13T09:11:12Z</time>
      </trkpt>
      <trkpt lat="47.740566" lon="2.2047353">
        <ele>166.0</ele>
        <time>2022-01-13T09:11:13Z</time>
      </trkpt>
      <trkpt lat="47.74057" lon="2.2047453">
        <ele>166.0</ele>
        <time>2022-01-13T09:11:14Z</time>
      </trkpt>
      <trkpt lat="47.74057" lon="2.2047555">
        <ele>167.0</ele>
        <time>2022-01-13T09:11:15Z</time>
      </trkpt>
      <trkpt lat="47.74057" lon="2.204768">
        <ele>167.0</ele>
        <time>2022-01-13T09:11:16Z</time>
      </trkpt>
      <trkpt lat="47.740574" lon="2.2047803">
        <ele>167.0</ele>
        <time>2022-01-13T09:11:17Z</time>
      </trkpt>
      <trkpt lat="47.74057" lon="2.2047946">
        <ele>167.0</ele>
        <time>2022-01-13T09:11:18Z</time>
      </trkpt>
      <trkpt lat="47.740566" lon="2.2048056">
        <ele>167.0</ele>
        <time>2022-01-13T09:11:19Z</time>
      </trkpt>
      <trkpt lat="47.740562" lon="2.2048132">
        <ele>167.0</ele>
        <time>2022-01-13T09:11:20Z</time>
      </trkpt>
      <trkpt lat="47.740562" lon="2.2048123">
        <ele>167.0</ele>
        <time>2022-01-13T09:11:21Z</time>
      </trkpt>
      <trkpt lat="47.740562" lon="2.2048123">
        <ele>167.0</ele>
        <time>2022-01-13T09:11:22Z</time>
      </trkpt>
      <trkpt lat="47.740562" lon="2.2048123">
        <ele>167.0</ele>
        <time>2022-01-13T09:11:23Z</time>
      </trkpt>
      <trkpt lat="47.740562" lon="2.2048123">
        <ele>167.0</ele>
        <time>2022-01-13T09:11:24Z</time>
      </trkpt>
      <trkpt lat="47.740562" lon="2.2048123">
        <ele>167.0</ele>
        <time>2022-01-13T09:11:24Z</time>
      </trkpt>
    </trkseg>
    <trkseg>
      <trkpt lat="47.740562" lon="2.2048123">
        <ele>167.0</ele>
        <time>2022-01-13T09:11:24Z</time>
      </trkpt>
      <trkpt lat="47.740498" lon="2.2049358">
        <ele>184.0</ele>
        <time>2022-01-13T09:22:13Z</time>
      </trkpt>
      <trkpt lat="47.7405" lon="2.2049322">
        <ele>184.0</ele>
        <time>2022-01-13T09:22:14Z</time>
      </trkpt>
      <trkpt lat="47.7405" lon="2.2049322">
        <ele>184.0</ele>
        <time>2022-01-13T09:22:15Z</time>
      </trkpt>
      <trkpt lat="47.7405" lon="2.2049322">
        <ele>184.0</ele>
        <time>2022-01-13T09:22:16Z</time>
      </trkpt>
      <trkpt lat="47.74051" lon="2.2049127">
        <ele>184.0</ele>
        <time>2022-01-13T09:22:17Z</time>
      </trkpt>
      <trkpt lat="47.740513" lon="2.2049093">
        <ele>184.0</ele>
        <time>2022-01-13T09:22:18Z</time>
      </trkpt>
      <trkpt lat="47.74052" lon="2.20491">
        <ele>185.0</ele>
        <time>2022-01-13T09:22:19Z</time>
      </trkpt>
      <trkpt lat="47.740532" lon="2.2049196">
        <ele>185.0</ele>
        <time>2022-01-13T09:22:20Z</time>
      </trkpt>
      <trkpt lat="47.740532" lon="2.2049196">
        <ele>185.0</ele>
        <time>2022-01-13T09:22:21Z</time>
      </trkpt>
      <trkpt lat="47.740532" lon="2.2049196">
        <ele>185.0</ele>
        <time>2022-01-13T09:22:21Z</time>
      </trkpt>
    </trkseg>
    <trkseg>
      <trkpt lat="47.740532" lon="2.2049196">
        <ele>185.0</ele>
        <time>2022-01-13T09:22:21Z</time>
      </trkpt>
      <trkpt lat="47.740494" lon="2.2049077">
        <ele>188.0</ele>
        <time>2022-01-13T09:22:34Z</time>
      </trkpt>
      <trkpt lat="47.740494" lon="2.2049077">
        <ele>188.0</ele>
        <time>2022-01-13T09:22:35Z</time>
      </trkpt>
      <trkpt lat="47.740494" lon="2.2049077">
        <ele>188.0</ele>
        <time>2022-01-13T09:22:36Z</time>
      </trkpt>
      <trkpt lat="47.740494" lon="2.2049077">
        <ele>188.0</ele>
        <time>2022-01-13T09:22:36Z</time>
      </trkpt>
    </trkseg>
    <trkseg>
      <trkpt lat="47.740494" lon="2.2049077">
        <ele>188.0</ele>
        <time>2022-01-13T09:22:36Z</time>
      </trkpt>
      <trkpt lat="47.74053" lon="2.204933">
        <ele>185.0</ele>
        <time>2022-01-13T09:23:13Z</time>
      </trkpt>
      <trkpt lat="47.74053" lon="2.2049434">
        <ele>185.0</ele>
        <time>2022-01-13T09:23:14Z</time>
      </trkpt>
      <trkpt lat="47.740536" lon="2.2049675">
        <ele>184.0</ele>
        <time>2022-01-13T09:23:15Z</time>
      </trkpt>
      <trkpt lat="47.740536" lon="2.2049785">
        <ele>184.0</ele>
        <time>2022-01-13T09:23:16Z</time>
      </trkpt>
      <trkpt lat="47.740524" lon="2.204987">
        <ele>184.0</ele>
        <time>2022-01-13T09:23:17Z</time>
      </trkpt>
      <trkpt lat="47.74052" lon="2.204991">
        <ele>183.0</ele>
        <time>2022-01-13T09:23:18Z</time>
      </trkpt>
      <trkpt lat="47.74052" lon="2.204991">
        <ele>183.0</ele>
        <time>2022-01-13T09:23:19Z</time>
      </trkpt>
      <trkpt lat="47.74052" lon="2.204991">
        <ele>183.0</ele>
        <time>2022-01-13T09:23:20Z</time>
      </trkpt>
      <trkpt lat="47.74052" lon="2.204991">
        <ele>183.0</ele>
        <time>2022-01-13T09:23:20Z</time>
      </trkpt>
    </trkseg>
    <trkseg>
      <trkpt lat="47.74052" lon="2.204991">
        <ele>183.0</ele>
        <time>2022-01-13T09:23:20Z</time>
      </trkpt>
      <trkpt lat="47.740513" lon="2.205079">
        <ele>180.0</ele>
        <time>2022-01-13T09:24:37Z</time>
      </trkpt>
      <trkpt lat="47.740513" lon="2.205092">
        <ele>181.0</ele>
        <time>2022-01-13T09:24:38Z</time>
      </trkpt>
      <trkpt lat="47.740517" lon="2.2051017">
        <ele>182.0</ele>
        <time>2022-01-13T09:24:39Z</time>
      </trkpt>
      <trkpt lat="47.740517" lon="2.2051163">
        <ele>182.0</ele>
        <time>2022-01-13T09:24:40Z</time>
      </trkpt>
      <trkpt lat="47.74052" lon="2.20513">
        <ele>182.0</ele>
        <time>2022-01-13T09:24:41Z</time>
      </trkpt>
      <trkpt lat="47.740517" lon="2.205142">
        <ele>182.0</ele>
        <time>2022-01-13T09:24:42Z</time>
      </trkpt>
      <trkpt lat="47.74052" lon="2.2051501">
        <ele>182.0</ele>
        <time>2022-01-13T09:24:43Z</time>
      </trkpt>
      <trkpt lat="47.74053" lon="2.2051682">
        <ele>182.0</ele>
        <time>2022-01-13T09:24:44Z</time>
      </trkpt>
      <trkpt lat="47.74053" lon="2.205185">
        <ele>182.0</ele>
        <time>2022-01-13T09:24:45Z</time>
      </trkpt>
      <trkpt lat="47.740532" lon="2.2051992">
        <ele>182.0</ele>
        <time>2022-01-13T09:24:46Z</time>
      </trkpt>
      <trkpt lat="47.740532" lon="2.2052188">
        <ele>183.0</ele>
        <time>2022-01-13T09:24:47Z</time>
      </trkpt>
      <trkpt lat="47.740536" lon="2.2052376">
        <ele>183.0</ele>
        <time>2022-01-13T09:24:48Z</time>
      </trkpt>
      <trkpt lat="47.740536" lon="2.2052522">
        <ele>184.0</ele>
        <time>2022-01-13T09:24:49Z</time>
      </trkpt>
      <trkpt lat="47.740536" lon="2.205267">
        <ele>184.0</ele>
        <time>2022-01-13T09:24:50Z</time>
      </trkpt>
      <trkpt lat="47.740532" lon="2.2052755">
        <ele>184.0</ele>
        <time>2022-01-13T09:24:51Z</time>
      </trkpt>
      <trkpt lat="47.740532" lon="2.2052903">
        <ele>184.0</ele>
        <time>2022-01-13T09:24:52Z</time>
      </trkpt>
      <trkpt lat="47.74053" lon="2.2053041">
        <ele>184.0</ele>
        <time>2022-01-13T09:24:53Z</time>
      </trkpt>
      <trkpt lat="47.74053" lon="2.2053192">
        <ele>184.0</ele>
        <time>2022-01-13T09:24:54Z</time>
      </trkpt>
      <trkpt lat="47.74053" lon="2.2053335">
        <ele>183.0</ele>
        <time>2022-01-13T09:24:55Z</time>
      </trkpt>
      <trkpt lat="47.74052" lon="2.20535">
        <ele>183.0</ele>
        <time>2022-01-13T09:24:56Z</time>
      </trkpt>
      <trkpt lat="47.74052" lon="2.205363">
        <ele>183.0</ele>
        <time>2022-01-13T09:24:57Z</time>
      </trkpt>
      <trkpt lat="47.740524" lon="2.2053776">
        <ele>183.0</ele>
        <time>2022-01-13T09:24:58Z</time>
      </trkpt>
      <trkpt lat="47.740524" lon="2.2053921">
        <ele>184.0</ele>
        <time>2022-01-13T09:24:59Z</time>
      </trkpt>
      <trkpt lat="47.74052" lon="2.2054157">
        <ele>183.0</ele>
        <time>2022-01-13T09:25:00Z</time>
      </trkpt>
      <trkpt lat="47.74052" lon="2.2054324">
        <ele>182.0</ele>
        <time>2022-01-13T09:25:01Z</time>
      </trkpt>
      <trkpt lat="47.74052" lon="2.2054398">
        <ele>182.0</ele>
        <time>2022-01-13T09:25:02Z</time>
      </trkpt>
      <trkpt lat="47.740513" lon="2.2054534">
        <ele>182.0</ele>
        <time>2022-01-13T09:25:03Z</time>
      </trkpt>
      <trkpt lat="47.74051" lon="2.205464">
        <ele>182.0</ele>
        <time>2022-01-13T09:25:04Z</time>
      </trkpt>
      <trkpt lat="47.740505" lon="2.2054756">
        <ele>183.0</ele>
        <time>2022-01-13T09:25:05Z</time>
      </trkpt>
      <trkpt lat="47.740505" lon="2.2054946">
        <ele>183.0</ele>
        <time>2022-01-13T09:25:06Z</time>
      </trkpt>
      <trkpt lat="47.740505" lon="2.2055123">
        <ele>183.0</ele>
        <time>2022-01-13T09:25:07Z</time>
      </trkpt>
      <trkpt lat="47.74051" lon="2.2055285">
        <ele>182.0</ele>
        <time>2022-01-13T09:25:08Z</time>
      </trkpt>
      <trkpt lat="47.74051" lon="2.2055423">
        <ele>182.0</ele>
        <time>2022-01-13T09:25:09Z</time>
      </trkpt>
      <trkpt lat="47.740513" lon="2.2055578">
        <ele>182.0</ele>
        <time>2022-01-13T09:25:10Z</time>
      </trkpt>
      <trkpt lat="47.740517" lon="2.2055736">
        <ele>182.0</ele>
        <time>2022-01-13T09:25:11Z</time>
      </trkpt>
      <trkpt lat="47.740517" lon="2.2055924">
        <ele>182.0</ele>
        <time>2022-01-13T09:25:12Z</time>
      </trkpt>
      <trkpt lat="47.740517" lon="2.2056098">
        <ele>182.0</ele>
        <time>2022-01-13T09:25:13Z</time>
      </trkpt>
      <trkpt lat="47.74052" lon="2.2056205">
        <ele>182.0</ele>
        <time>2022-01-13T09:25:14Z</time>
      </trkpt>
      <trkpt lat="47.740517" lon="2.2056358">
        <ele>181.0</ele>
        <time>2022-01-13T09:25:15Z</time>
      </trkpt>
      <trkpt lat="47.740513" lon="2.205651">
        <ele>181.0</ele>
        <time>2022-01-13T09:25:16Z</time>
      </trkpt>
      <trkpt lat="47.740513" lon="2.2056684">
        <ele>181.0</ele>
        <time>2022-01-13T09:25:17Z</time>
      </trkpt>
      <trkpt lat="47.740505" lon="2.2056828">
        <ele>181.0</ele>
        <time>2022-01-13T09:25:18Z</time>
      </trkpt>
      <trkpt lat="47.740505" lon="2.2056973">
        <ele>181.0</ele>
        <time>2022-01-13T09:25:19Z</time>
      </trkpt>
      <trkpt lat="47.7405" lon="2.205712">
        <ele>180.0</ele>
        <time>2022-01-13T09:25:20Z</time>
      </trkpt>
      <trkpt lat="47.740498" lon="2.2057245">
        <ele>180.0</ele>
        <time>2022-01-13T09:25:21Z</time>
      </trkpt>
      <trkpt lat="47.740494" lon="2.2057335">
        <ele>180.0</ele>
        <time>2022-01-13T09:25:22Z</time>
      </trkpt>
      <trkpt lat="47.740494" lon="2.2057452">
        <ele>180.0</ele>
        <time>2022-01-13T09:25:23Z</time>
      </trkpt>
      <trkpt lat="47.7405" lon="2.20576">
        <ele>180.0</ele>
        <time>2022-01-13T09:25:24Z</time>
      </trkpt>
      <trkpt lat="47.7405" lon="2.205773">
        <ele>180.0</ele>
        <time>2022-01-13T09:25:25Z</time>
      </trkpt>
      <trkpt lat="47.740505" lon="2.205788">
        <ele>180.0</ele>
        <time>2022-01-13T09:25:26Z</time>
      </trkpt>
      <trkpt lat="47.74051" lon="2.2058048">
        <ele>180.0</ele>
        <time>2022-01-13T09:25:27Z</time>
      </trkpt>
      <trkpt lat="47.740513" lon="2.2058227">
        <ele>180.0</ele>
        <time>2022-01-13T09:25:28Z</time>
      </trkpt>
      <trkpt lat="47.740517" lon="2.2058442">
        <ele>180.0</ele>
        <time>2022-01-13T09:25:29Z</time>
      </trkpt>
      <trkpt lat="47.740517" lon="2.2058635">
        <ele>181.0</ele>
        <time>2022-01-13T09:25:30Z</time>
      </trkpt>
      <trkpt lat="47.74052" lon="2.2058787">
        <ele>181.0</ele>
        <time>2022-01-13T09:25:31Z</time>
      </trkpt>
      <trkpt lat="47.74052" lon="2.2058942">
        <ele>181.0</ele>
        <time>2022-01-13T09:25:32Z</time>
      </trkpt>
      <trkpt lat="47.74052" lon="2.2059147">
        <ele>181.0</ele>
        <time>2022-01-13T09:25:33Z</time>
      </trkpt>
      <trkpt lat="47.740517" lon="2.2059283">
        <ele>181.0</ele>
        <time>2022-01-13T09:25:34Z</time>
      </trkpt>
      <trkpt lat="47.740513" lon="2.205946">
        <ele>181.0</ele>
        <time>2022-01-13T09:25:35Z</time>
      </trkpt>
      <trkpt lat="47.74051" lon="2.205968">
        <ele>181.0</ele>
        <time>2022-01-13T09:25:36Z</time>
      </trkpt>
      <trkpt lat="47.740505" lon="2.2059913">
        <ele>180.0</ele>
        <time>2022-01-13T09:25:37Z</time>
      </trkpt>
      <trkpt lat="47.740505" lon="2.2060075">
        <ele>180.0</ele>
        <time>2022-01-13T09:25:38Z</time>
      </trkpt>
      <trkpt lat="47.74051" lon="2.206022">
        <ele>180.0</ele>
        <time>2022-01-13T09:25:39Z</time>
      </trkpt>
      <trkpt lat="47.740513" lon="2.2060418">
        <ele>179.0</ele>
        <time>2022-01-13T09:25:40Z</time>
      </trkpt>
      <trkpt lat="47.740513" lon="2.2060618">
        <ele>179.0</ele>
        <time>2022-01-13T09:25:41Z</time>
      </trkpt>
      <trkpt lat="47.740517" lon="2.206082">
        <ele>179.0</ele>
        <time>2022-01-13T09:25:42Z</time>
      </trkpt>
      <trkpt lat="47.74052" lon="2.2061005">
        <ele>179.0</ele>
        <time>2022-01-13T09:25:43Z</time>
      </trkpt>
      <trkpt lat="47.740524" lon="2.2061155">
        <ele>179.0</ele>
        <time>2022-01-13T09:25:44Z</time>
      </trkpt>
      <trkpt lat="47.74052" lon="2.206135">
        <ele>179.0</ele>
        <time>2022-01-13T09:25:45Z</time>
      </trkpt>
      <trkpt lat="47.74052" lon="2.2061515">
        <ele>178.0</ele>
        <time>2022-01-13T09:25:46Z</time>
      </trkpt>
      <trkpt lat="47.740517" lon="2.20617">
        <ele>178.0</ele>
        <time>2022-01-13T09:25:47Z</time>
      </trkpt>
      <trkpt lat="47.740517" lon="2.2061877">
        <ele>178.0</ele>
        <time>2022-01-13T09:25:48Z</time>
      </trkpt>
      <trkpt lat="47.740513" lon="2.2062056">
        <ele>178.0</ele>
        <time>2022-01-13T09:25:49Z</time>
      </trkpt>
      <trkpt lat="47.74051" lon="2.2062218">
        <ele>179.0</ele>
        <time>2022-01-13T09:25:50Z</time>
      </trkpt>
      <trkpt lat="47.74051" lon="2.2062364">
        <ele>179.0</ele>
        <time>2022-01-13T09:25:51Z</time>
      </trkpt>
      <trkpt lat="47.74051" lon="2.2062511">
        <ele>179.0</ele>
        <time>2022-01-13T09:25:52Z</time>
      </trkpt>
      <trkpt lat="47.74051" lon="2.2062647">
        <ele>178.0</ele>
        <time>2022-01-13T09:25:53Z</time>
      </trkpt>
      <trkpt lat="47.740513" lon="2.2062836">
        <ele>177.0</ele>
        <time>2022-01-13T09:25:54Z</time>
      </trkpt>
      <trkpt lat="47.74051" lon="2.2063015">
        <ele>178.0</ele>
        <time>2022-01-13T09:25:55Z</time>
      </trkpt>
      <trkpt lat="47.74051" lon="2.2063131">
        <ele>177.0</ele>
        <time>2022-01-13T09:25:56Z</time>
      </trkpt>
      <trkpt lat="47.740505" lon="2.2063298">
        <ele>177.0</ele>
        <time>2022-01-13T09:25:57Z</time>
      </trkpt>
      <trkpt lat="47.740505" lon="2.206344">
        <ele>177.0</ele>
        <time>2022-01-13T09:25:58Z</time>
      </trkpt>
      <trkpt lat="47.740505" lon="2.2063534">
        <ele>177.0</ele>
        <time>2022-01-13T09:25:59Z</time>
      </trkpt>
      <trkpt lat="47.74051" lon="2.2063715">
        <ele>178.0</ele>
        <time>2022-01-13T09:26:00Z</time>
      </trkpt>
      <trkpt lat="47.740505" lon="2.206385">
        <ele>179.0</ele>
        <time>2022-01-13T09:26:01Z</time>
      </trkpt>
      <trkpt lat="47.7405" lon="2.206402">
        <ele>179.0</ele>
        <time>2022-01-13T09:26:02Z</time>
      </trkpt>
      <trkpt lat="47.740505" lon="2.2064185">
        <ele>179.0</ele>
        <time>2022-01-13T09:26:03Z</time>
      </trkpt>
      <trkpt lat="47.740498" lon="2.2064419">
        <ele>179.0</ele>
        <time>2022-01-13T09:26:04Z</time>
      </trkpt>
      <trkpt lat="47.740494" lon="2.2064614">
        <ele>179.0</ele>
        <time>2022-01-13T09:26:05Z</time>
      </trkpt>
      <trkpt lat="47.74049" lon="2.2064817">
        <ele>179.0</ele>
        <time>2022-01-13T09:26:06Z</time>
      </trkpt>
      <trkpt lat="47.74049" lon="2.206499">
        <ele>179.0</ele>
        <time>2022-01-13T09:26:07Z</time>
      </trkpt>
      <trkpt lat="47.74049" lon="2.2065105">
        <ele>179.0</ele>
        <time>2022-01-13T09:26:08Z</time>
      </trkpt>
      <trkpt lat="47.74049" lon="2.2065308">
        <ele>178.0</ele>
        <time>2022-01-13T09:26:09Z</time>
      </trkpt>
      <trkpt lat="47.740486" lon="2.206549">
        <ele>178.0</ele>
        <time>2022-01-13T09:26:10Z</time>
      </trkpt>
      <trkpt lat="47.740482" lon="2.2065656">
        <ele>178.0</ele>
        <time>2022-01-13T09:26:11Z</time>
      </trkpt>
      <trkpt lat="47.740486" lon="2.2065854">
        <ele>178.0</ele>
        <time>2022-01-13T09:26:12Z</time>
      </trkpt>
      <trkpt lat="47.740486" lon="2.206603">
        <ele>179.0</ele>
        <time>2022-01-13T09:26:13Z</time>
      </trkpt>
      <trkpt lat="47.740486" lon="2.2066178">
        <ele>179.0</ele>
        <time>2022-01-13T09:26:14Z</time>
      </trkpt>
      <trkpt lat="47.740486" lon="2.206636">
        <ele>178.0</ele>
        <time>2022-01-13T09:26:15Z</time>
      </trkpt>
      <trkpt lat="47.740486" lon="2.206655">
        <ele>178.0</ele>
        <time>2022-01-13T09:26:16Z</time>
      </trkpt>
      <trkpt lat="47.74049" lon="2.206673">
        <ele>177.0</ele>
        <time>2022-01-13T09:26:17Z</time>
      </trkpt>
      <trkpt lat="47.740486" lon="2.2066908">
        <ele>177.0</ele>
        <time>2022-01-13T09:26:18Z</time>
      </trkpt>
      <trkpt lat="47.740482" lon="2.2067065">
        <ele>178.0</ele>
        <time>2022-01-13T09:26:19Z</time>
      </trkpt>
      <trkpt lat="47.740482" lon="2.2067225">
        <ele>178.0</ele>
        <time>2022-01-13T09:26:20Z</time>
      </trkpt>
      <trkpt lat="47.740482" lon="2.2067416">
        <ele>178.0</ele>
        <time>2022-01-13T09:26:21Z</time>
      </trkpt>
      <trkpt lat="47.740482" lon="2.20676">
        <ele>179.0</ele>
        <time>2022-01-13T09:26:22Z</time>
      </trkpt>
      <trkpt lat="47.740482" lon="2.2067754">
        <ele>179.0</ele>
        <time>2022-01-13T09:26:23Z</time>
      </trkpt>
      <trkpt lat="47.740486" lon="2.2067916">
        <ele>180.0</ele>
        <time>2022-01-13T09:26:24Z</time>
      </trkpt>
      <trkpt lat="47.74049" lon="2.206811">
        <ele>181.0</ele>
        <time>2022-01-13T09:26:25Z</time>
      </trkpt>
      <trkpt lat="47.74049" lon="2.2068357">
        <ele>181.0</ele>
        <time>2022-01-13T09:26:26Z</time>
      </trkpt>
      <trkpt lat="47.740494" lon="2.206852">
        <ele>181.0</ele>
        <time>2022-01-13T09:26:27Z</time>
      </trkpt>
      <trkpt lat="47.740494" lon="2.2068734">
        <ele>182.0</ele>
        <time>2022-01-13T09:26:28Z</time>
      </trkpt>
      <trkpt lat="47.740498" lon="2.2068965">
        <ele>182.0</ele>
        <time>2022-01-13T09:26:29Z</time>
      </trkpt>
      <trkpt lat="47.740498" lon="2.20692">
        <ele>181.0</ele>
        <time>2022-01-13T09:26:30Z</time>
      </trkpt>
      <trkpt lat="47.740498" lon="2.2069395">
        <ele>181.0</ele>
        <time>2022-01-13T09:26:31Z</time>
      </trkpt>
      <trkpt lat="47.740494" lon="2.2069576">
        <ele>181.0</ele>
        <time>2022-01-13T09:26:32Z</time>
      </trkpt>
      <trkpt lat="47.740482" lon="2.2069771">
        <ele>180.0</ele>
        <time>2022-01-13T09:26:33Z</time>
      </trkpt>
      <trkpt lat="47.740482" lon="2.2069914">
        <ele>181.0</ele>
        <time>2022-01-13T09:26:34Z</time>
      </trkpt>
      <trkpt lat="47.74048" lon="2.2070024">
        <ele>181.0</ele>
        <time>2022-01-13T09:26:35Z</time>
      </trkpt>
      <trkpt lat="47.740475" lon="2.2070148">
        <ele>181.0</ele>
        <time>2022-01-13T09:26:36Z</time>
      </trkpt>
      <trkpt lat="47.740467" lon="2.2070305">
        <ele>181.0</ele>
        <time>2022-01-13T09:26:37Z</time>
      </trkpt>
      <trkpt lat="47.740467" lon="2.2070472">
        <ele>181.0</ele>
        <time>2022-01-13T09:26:38Z</time>
      </trkpt>
      <trkpt lat="47.740467" lon="2.2070608">
        <ele>181.0</ele>
        <time>2022-01-13T09:26:39Z</time>
      </trkpt>
      <trkpt lat="47.740463" lon="2.207075">
        <ele>181.0</ele>
        <time>2022-01-13T09:26:40Z</time>
      </trkpt>
      <trkpt lat="47.740463" lon="2.2070928">
        <ele>180.0</ele>
        <time>2022-01-13T09:26:41Z</time>
      </trkpt>
      <trkpt lat="47.74045" lon="2.2071104">
        <ele>180.0</ele>
        <time>2022-01-13T09:26:42Z</time>
      </trkpt>
      <trkpt lat="47.740444" lon="2.2071245">
        <ele>180.0</ele>
        <time>2022-01-13T09:26:43Z</time>
      </trkpt>
      <trkpt lat="47.740433" lon="2.207141">
        <ele>179.0</ele>
        <time>2022-01-13T09:26:44Z</time>
      </trkpt>
      <trkpt lat="47.740425" lon="2.2071545">
        <ele>179.0</ele>
        <time>2022-01-13T09:26:45Z</time>
      </trkpt>
      <trkpt lat="47.740414" lon="2.207169">
        <ele>179.0</ele>
        <time>2022-01-13T09:26:46Z</time>
      </trkpt>
      <trkpt lat="47.740406" lon="2.2071767">
        <ele>179.0</ele>
        <time>2022-01-13T09:26:47Z</time>
      </trkpt>
      <trkpt lat="47.740402" lon="2.2071896">
        <ele>178.0</ele>
        <time>2022-01-13T09:26:48Z</time>
      </trkpt>
      <trkpt lat="47.7404" lon="2.2071972">
        <ele>178.0</ele>
        <time>2022-01-13T09:26:49Z</time>
      </trkpt>
      <trkpt lat="47.740387" lon="2.207204">
        <ele>178.0</ele>
        <time>2022-01-13T09:26:50Z</time>
      </trkpt>
      <trkpt lat="47.74038" lon="2.2072122">
        <ele>178.0</ele>
        <time>2022-01-13T09:26:51Z</time>
      </trkpt>
      <trkpt lat="47.740368" lon="2.2072215">
        <ele>178.0</ele>
        <time>2022-01-13T09:26:52Z</time>
      </trkpt>
      <trkpt lat="47.74036" lon="2.2072294">
        <ele>178.0</ele>
        <time>2022-01-13T09:26:53Z</time>
      </trkpt>
      <trkpt lat="47.740353" lon="2.2072346">
        <ele>178.0</ele>
        <time>2022-01-13T09:26:54Z</time>
      </trkpt>
      <trkpt lat="47.74035" lon="2.2072365">
        <ele>178.0</ele>
        <time>2022-01-13T09:26:55Z</time>
      </trkpt>
      <trkpt lat="47.74034" lon="2.2072382">
        <ele>178.0</ele>
        <time>2022-01-13T09:26:56Z</time>
      </trkpt>
      <trkpt lat="47.740334" lon="2.2072387">
        <ele>178.0</ele>
        <time>2022-01-13T09:26:57Z</time>
      </trkpt>
      <trkpt lat="47.740322" lon="2.2072368">
        <ele>178.0</ele>
        <time>2022-01-13T09:26:58Z</time>
      </trkpt>
      <trkpt lat="47.74031" lon="2.2072415">
        <ele>178.0</ele>
        <time>2022-01-13T09:26:59Z</time>
      </trkpt>
      <trkpt lat="47.7403" lon="2.2072515">
        <ele>178.0</ele>
        <time>2022-01-13T09:27:00Z</time>
      </trkpt>
      <trkpt lat="47.740288" lon="2.2072587">
        <ele>178.0</ele>
        <time>2022-01-13T09:27:01Z</time>
      </trkpt>
      <trkpt lat="47.74028" lon="2.2072654">
        <ele>177.0</ele>
        <time>2022-01-13T09:27:02Z</time>
      </trkpt>
      <trkpt lat="47.740276" lon="2.20727">
        <ele>177.0</ele>
        <time>2022-01-13T09:27:03Z</time>
      </trkpt>
      <trkpt lat="47.740265" lon="2.2072766">
        <ele>177.0</ele>
        <time>2022-01-13T09:27:04Z</time>
      </trkpt>
      <trkpt lat="47.740253" lon="2.2072773">
        <ele>177.0</ele>
        <time>2022-01-13T09:27:05Z</time>
      </trkpt>
      <trkpt lat="47.74024" lon="2.2072818">
        <ele>178.0</ele>
        <time>2022-01-13T09:27:06Z</time>
      </trkpt>
      <trkpt lat="47.74023" lon="2.2072864">
        <ele>177.0</ele>
        <time>2022-01-13T09:27:07Z</time>
      </trkpt>
      <trkpt lat="47.740223" lon="2.20729">
        <ele>177.0</ele>
        <time>2022-01-13T09:27:08Z</time>
      </trkpt>
      <trkpt lat="47.74021" lon="2.207296">
        <ele>177.0</ele>
        <time>2022-01-13T09:27:09Z</time>
      </trkpt>
      <trkpt lat="47.7402" lon="2.207306">
        <ele>177.0</ele>
        <time>2022-01-13T09:27:10Z</time>
      </trkpt>
      <trkpt lat="47.74019" lon="2.2073104">
        <ele>177.0</ele>
        <time>2022-01-13T09:27:11Z</time>
      </trkpt>
      <trkpt lat="47.740173" lon="2.207314">
        <ele>177.0</ele>
        <time>2022-01-13T09:27:12Z</time>
      </trkpt>
      <trkpt lat="47.740158" lon="2.207319">
        <ele>177.0</ele>
        <time>2022-01-13T09:27:13Z</time>
      </trkpt>
      <trkpt lat="47.740147" lon="2.207319">
        <ele>177.0</ele>
        <time>2022-01-13T09:27:14Z</time>
      </trkpt>
      <trkpt lat="47.740135" lon="2.2073274">
        <ele>177.0</ele>
        <time>2022-01-13T09:27:15Z</time>
      </trkpt>
      <trkpt lat="47.740124" lon="2.2073362">
        <ele>177.0</ele>
        <time>2022-01-13T09:27:16Z</time>
      </trkpt>
      <trkpt lat="47.740116" lon="2.2073467">
        <ele>177.0</ele>
        <time>2022-01-13T09:27:17Z</time>
      </trkpt>
      <trkpt lat="47.74011" lon="2.207358">
        <ele>177.0</ele>
        <time>2022-01-13T09:27:18Z</time>
      </trkpt>
      <trkpt lat="47.740093" lon="2.2073646">
        <ele>177.0</ele>
        <time>2022-01-13T09:27:19Z</time>
      </trkpt>
      <trkpt lat="47.740086" lon="2.2073689">
        <ele>177.0</ele>
        <time>2022-01-13T09:27:20Z</time>
      </trkpt>
      <trkpt lat="47.740074" lon="2.2073698">
        <ele>177.0</ele>
        <time>2022-01-13T09:27:21Z</time>
      </trkpt>
      <trkpt lat="47.740067" lon="2.2073786">
        <ele>177.0</ele>
        <time>2022-01-13T09:27:22Z</time>
      </trkpt>
      <trkpt lat="47.74005" lon="2.207381">
        <ele>178.0</ele>
        <time>2022-01-13T09:27:23Z</time>
      </trkpt>
      <trkpt lat="47.740036" lon="2.207383">
        <ele>178.0</ele>
        <time>2022-01-13T09:27:24Z</time>
      </trkpt>
      <trkpt lat="47.740025" lon="2.207387">
        <ele>178.0</ele>
        <time>2022-01-13T09:27:25Z</time>
      </trkpt>
      <trkpt lat="47.740013" lon="2.2073922">
        <ele>177.0</ele>
        <time>2022-01-13T09:27:26Z</time>
      </trkpt>
      <trkpt lat="47.740005" lon="2.2073915">
        <ele>177.0</ele>
        <time>2022-01-13T09:27:27Z</time>
      </trkpt>
      <trkpt lat="47.739998" lon="2.2073982">
        <ele>177.0</ele>
        <time>2022-01-13T09:27:28Z</time>
      </trkpt>
      <trkpt lat="47.739986" lon="2.2074049">
        <ele>177.0</ele>
        <time>2022-01-13T09:27:29Z</time>
      </trkpt>
      <trkpt lat="47.73998" lon="2.2074082">
        <ele>177.0</ele>
        <time>2022-01-13T09:27:30Z</time>
      </trkpt>
      <trkpt lat="47.73997" lon="2.2074177">
        <ele>178.0</ele>
        <time>2022-01-13T09:27:31Z</time>
      </trkpt>
      <trkpt lat="47.73996" lon="2.2074268">
        <ele>178.0</ele>
        <time>2022-01-13T09:27:32Z</time>
      </trkpt>
      <trkpt lat="47.739952" lon="2.2074387">
        <ele>178.0</ele>
        <time>2022-01-13T09:27:33Z</time>
      </trkpt>
      <trkpt lat="47.73994" lon="2.2074463">
        <ele>179.0</ele>
        <time>2022-01-13T09:27:34Z</time>
      </trkpt>
      <trkpt lat="47.73993" lon="2.2074513">
        <ele>179.0</ele>
        <time>2022-01-13T09:27:35Z</time>
      </trkpt>
      <trkpt lat="47.73992" lon="2.2074578">
        <ele>178.0</ele>
        <time>2022-01-13T09:27:36Z</time>
      </trkpt>
      <trkpt lat="47.739914" lon="2.2074654">
        <ele>178.0</ele>
        <time>2022-01-13T09:27:37Z</time>
      </trkpt>
      <trkpt lat="47.739902" lon="2.2074726">
        <ele>178.0</ele>
        <time>2022-01-13T09:27:38Z</time>
      </trkpt>
      <trkpt lat="47.73989" lon="2.207476">
        <ele>178.0</ele>
        <time>2022-01-13T09:27:39Z</time>
      </trkpt>
      <trkpt lat="47.739883" lon="2.207478">
        <ele>178.0</ele>
        <time>2022-01-13T09:27:40Z</time>
      </trkpt>
      <trkpt lat="47.739872" lon="2.207478">
        <ele>178.0</ele>
        <time>2022-01-13T09:27:41Z</time>
      </trkpt>
      <trkpt lat="47.739864" lon="2.2074792">
        <ele>177.0</ele>
        <time>2022-01-13T09:27:42Z</time>
      </trkpt>
      <trkpt lat="47.739853" lon="2.2074785">
        <ele>177.0</ele>
        <time>2022-01-13T09:27:43Z</time>
      </trkpt>
      <trkpt lat="47.739845" lon="2.20748">
        <ele>177.0</ele>
        <time>2022-01-13T09:27:44Z</time>
      </trkpt>
      <trkpt lat="47.73983" lon="2.2074864">
        <ele>177.0</ele>
        <time>2022-01-13T09:27:45Z</time>
      </trkpt>
      <trkpt lat="47.739815" lon="2.2074926">
        <ele>177.0</ele>
        <time>2022-01-13T09:27:46Z</time>
      </trkpt>
      <trkpt lat="47.739803" lon="2.2074964">
        <ele>178.0</ele>
        <time>2022-01-13T09:27:47Z</time>
      </trkpt>
      <trkpt lat="47.739796" lon="2.2075005">
        <ele>178.0</ele>
        <time>2022-01-13T09:27:48Z</time>
      </trkpt>
      <trkpt lat="47.739784" lon="2.2075071">
        <ele>178.0</ele>
        <time>2022-01-13T09:27:49Z</time>
      </trkpt>
      <trkpt lat="47.739773" lon="2.2075117">
        <ele>178.0</ele>
        <time>2022-01-13T09:27:50Z</time>
      </trkpt>
      <trkpt lat="47.73976" lon="2.2075171">
        <ele>178.0</ele>
        <time>2022-01-13T09:27:51Z</time>
      </trkpt>
      <trkpt lat="47.739754" lon="2.207521">
        <ele>178.0</ele>
        <time>2022-01-13T09:27:52Z</time>
      </trkpt>
      <trkpt lat="47.73974" lon="2.2075262">
        <ele>178.0</ele>
        <time>2022-01-13T09:27:53Z</time>
      </trkpt>
      <trkpt lat="47.73973" lon="2.2075326">
        <ele>178.0</ele>
        <time>2022-01-13T09:27:54Z</time>
      </trkpt>
      <trkpt lat="47.739723" lon="2.2075374">
        <ele>178.0</ele>
        <time>2022-01-13T09:27:55Z</time>
      </trkpt>
      <trkpt lat="47.73971" lon="2.2075422">
        <ele>178.0</ele>
        <time>2022-01-13T09:27:56Z</time>
      </trkpt>
      <trkpt lat="47.7397" lon="2.20755">
        <ele>177.0</ele>
        <time>2022-01-13T09:27:57Z</time>
      </trkpt>
      <trkpt lat="47.73969" lon="2.2075546">
        <ele>177.0</ele>
        <time>2022-01-13T09:27:58Z</time>
      </trkpt>
      <trkpt lat="47.739677" lon="2.2075555">
        <ele>177.0</ele>
        <time>2022-01-13T09:27:59Z</time>
      </trkpt>
      <trkpt lat="47.739666" lon="2.2075589">
        <ele>177.0</ele>
        <time>2022-01-13T09:28:00Z</time>
      </trkpt>
      <trkpt lat="47.73965" lon="2.2075658">
        <ele>177.0</ele>
        <time>2022-01-13T09:28:01Z</time>
      </trkpt>
      <trkpt lat="47.73964" lon="2.2075741">
        <ele>176.0</ele>
        <time>2022-01-13T09:28:02Z</time>
      </trkpt>
      <trkpt lat="47.739624" lon="2.207578">
        <ele>176.0</ele>
        <time>2022-01-13T09:28:03Z</time>
      </trkpt>
      <trkpt lat="47.739613" lon="2.2075849">
        <ele>176.0</ele>
        <time>2022-01-13T09:28:04Z</time>
      </trkpt>
      <trkpt lat="47.739605" lon="2.2075942">
        <ele>176.0</ele>
        <time>2022-01-13T09:28:05Z</time>
      </trkpt>
      <trkpt lat="47.73959" lon="2.2075994">
        <ele>177.0</ele>
        <time>2022-01-13T09:28:06Z</time>
      </trkpt>
      <trkpt lat="47.73958" lon="2.2076077">
        <ele>177.0</ele>
        <time>2022-01-13T09:28:07Z</time>
      </trkpt>
      <trkpt lat="47.739567" lon="2.2076163">
        <ele>177.0</ele>
        <time>2022-01-13T09:28:08Z</time>
      </trkpt>
      <trkpt lat="47.739555" lon="2.2076216">
        <ele>177.0</ele>
        <time>2022-01-13T09:28:09Z</time>
      </trkpt>
      <trkpt lat="47.739544" lon="2.2076302">
        <ele>177.0</ele>
        <time>2022-01-13T09:28:10Z</time>
      </trkpt>
      <trkpt lat="47.73953" lon="2.2076316">
        <ele>177.0</ele>
        <time>2022-01-13T09:28:11Z</time>
      </trkpt>
      <trkpt lat="47.739517" lon="2.2076347">
        <ele>177.0</ele>
        <time>2022-01-13T09:28:12Z</time>
      </trkpt>
      <trkpt lat="47.739513" lon="2.207637">
        <ele>177.0</ele>
        <time>2022-01-13T09:28:13Z</time>
      </trkpt>
      <trkpt lat="47.73951" lon="2.2076428">
        <ele>177.0</ele>
        <time>2022-01-13T09:28:14Z</time>
      </trkpt>
      <trkpt lat="47.739502" lon="2.2076485">
        <ele>177.0</ele>
        <time>2022-01-13T09:28:15Z</time>
      </trkpt>
      <trkpt lat="47.7395" lon="2.2076578">
        <ele>177.0</ele>
        <time>2022-01-13T09:28:16Z</time>
      </trkpt>
      <trkpt lat="47.73949" lon="2.2076645">
        <ele>177.0</ele>
        <time>2022-01-13T09:28:17Z</time>
      </trkpt>
      <trkpt lat="47.739483" lon="2.2076733">
        <ele>177.0</ele>
        <time>2022-01-13T09:28:18Z</time>
      </trkpt>
      <trkpt lat="47.73947" lon="2.207688">
        <ele>177.0</ele>
        <time>2022-01-13T09:28:19Z</time>
      </trkpt>
      <trkpt lat="47.739456" lon="2.2077003">
        <ele>177.0</ele>
        <time>2022-01-13T09:28:20Z</time>
      </trkpt>
      <trkpt lat="47.73944" lon="2.2077115">
        <ele>178.0</ele>
        <time>2022-01-13T09:28:21Z</time>
      </trkpt>
      <trkpt lat="47.73943" lon="2.2077181">
        <ele>178.0</ele>
        <time>2022-01-13T09:28:22Z</time>
      </trkpt>
      <trkpt lat="47.739418" lon="2.2077243">
        <ele>178.0</ele>
        <time>2022-01-13T09:28:23Z</time>
      </trkpt>
      <trkpt lat="47.739407" lon="2.2077277">
        <ele>178.0</ele>
        <time>2022-01-13T09:28:24Z</time>
      </trkpt>
      <trkpt lat="47.73939" lon="2.2077308">
        <ele>178.0</ele>
        <time>2022-01-13T09:28:25Z</time>
      </trkpt>
      <trkpt lat="47.73938" lon="2.207737">
        <ele>179.0</ele>
        <time>2022-01-13T09:28:26Z</time>
      </trkpt>
      <trkpt lat="47.739365" lon="2.2077434">
        <ele>179.0</ele>
        <time>2022-01-13T09:28:27Z</time>
      </trkpt>
      <trkpt lat="47.739357" lon="2.2077465">
        <ele>179.0</ele>
        <time>2022-01-13T09:28:28Z</time>
      </trkpt>
      <trkpt lat="47.73935" lon="2.2077525">
        <ele>178.0</ele>
        <time>2022-01-13T09:28:29Z</time>
      </trkpt>
      <trkpt lat="47.739338" lon="2.2077587">
        <ele>178.0</ele>
        <time>2022-01-13T09:28:30Z</time>
      </trkpt>
      <trkpt lat="47.73933" lon="2.2077627">
        <ele>178.0</ele>
        <time>2022-01-13T09:28:31Z</time>
      </trkpt>
      <trkpt lat="47.73932" lon="2.20777">
        <ele>178.0</ele>
        <time>2022-01-13T09:28:32Z</time>
      </trkpt>
      <trkpt lat="47.739307" lon="2.207777">
        <ele>178.0</ele>
        <time>2022-01-13T09:28:33Z</time>
      </trkpt>
      <trkpt lat="47.7393" lon="2.2077804">
        <ele>177.0</ele>
        <time>2022-01-13T09:28:34Z</time>
      </trkpt>
      <trkpt lat="47.73929" lon="2.20778">
        <ele>177.0</ele>
        <time>2022-01-13T09:28:35Z</time>
      </trkpt>
      <trkpt lat="47.739277" lon="2.207782">
        <ele>177.0</ele>
        <time>2022-01-13T09:28:36Z</time>
      </trkpt>
      <trkpt lat="47.73927" lon="2.2077832">
        <ele>177.0</ele>
        <time>2022-01-13T09:28:37Z</time>
      </trkpt>
      <trkpt lat="47.739254" lon="2.2077847">
        <ele>177.0</ele>
        <time>2022-01-13T09:28:38Z</time>
      </trkpt>
      <trkpt lat="47.739246" lon="2.207788">
        <ele>177.0</ele>
        <time>2022-01-13T09:28:39Z</time>
      </trkpt>
      <trkpt lat="47.73924" lon="2.2077959">
        <ele>177.0</ele>
        <time>2022-01-13T09:28:40Z</time>
      </trkpt>
      <trkpt lat="47.73923" lon="2.207801">
        <ele>177.0</ele>
        <time>2022-01-13T09:28:41Z</time>
      </trkpt>
      <trkpt lat="47.73922" lon="2.2078063">
        <ele>177.0</ele>
        <time>2022-01-13T09:28:42Z</time>
      </trkpt>
      <trkpt lat="47.73921" lon="2.207804">
        <ele>177.0</ele>
        <time>2022-01-13T09:28:43Z</time>
      </trkpt>
      <trkpt lat="47.739197" lon="2.2078035">
        <ele>177.0</ele>
        <time>2022-01-13T09:28:44Z</time>
      </trkpt>
      <trkpt lat="47.739185" lon="2.2078135">
        <ele>177.0</ele>
        <time>2022-01-13T09:28:45Z</time>
      </trkpt>
      <trkpt lat="47.739178" lon="2.2078187">
        <ele>177.0</ele>
        <time>2022-01-13T09:28:46Z</time>
      </trkpt>
      <trkpt lat="47.73917" lon="2.207821">
        <ele>177.0</ele>
        <time>2022-01-13T09:28:47Z</time>
      </trkpt>
      <trkpt lat="47.73916" lon="2.2078211">
        <ele>177.0</ele>
        <time>2022-01-13T09:28:48Z</time>
      </trkpt>
      <trkpt lat="47.73915" lon="2.2078187">
        <ele>178.0</ele>
        <time>2022-01-13T09:28:49Z</time>
      </trkpt>
      <trkpt lat="47.739143" lon="2.207823">
        <ele>178.0</ele>
        <time>2022-01-13T09:28:50Z</time>
      </trkpt>
      <trkpt lat="47.739132" lon="2.2078247">
        <ele>177.0</ele>
        <time>2022-01-13T09:28:51Z</time>
      </trkpt>
      <trkpt lat="47.73912" lon="2.2078242">
        <ele>177.0</ele>
        <time>2022-01-13T09:28:52Z</time>
      </trkpt>
      <trkpt lat="47.73911" lon="2.2078235">
        <ele>177.0</ele>
        <time>2022-01-13T09:28:53Z</time>
      </trkpt>
      <trkpt lat="47.739098" lon="2.2078319">
        <ele>178.0</ele>
        <time>2022-01-13T09:28:54Z</time>
      </trkpt>
      <trkpt lat="47.73909" lon="2.2078352">
        <ele>178.0</ele>
        <time>2022-01-13T09:28:55Z</time>
      </trkpt>
      <trkpt lat="47.739082" lon="2.2078393">
        <ele>178.0</ele>
        <time>2022-01-13T09:28:56Z</time>
      </trkpt>
      <trkpt lat="47.73907" lon="2.2078424">
        <ele>178.0</ele>
        <time>2022-01-13T09:28:57Z</time>
      </trkpt>
      <trkpt lat="47.73906" lon="2.2078454">
        <ele>178.0</ele>
        <time>2022-01-13T09:28:58Z</time>
      </trkpt>
      <trkpt lat="47.73905" lon="2.2078474">
        <ele>178.0</ele>
        <time>2022-01-13T09:28:59Z</time>
      </trkpt>
      <trkpt lat="47.739044" lon="2.2078493">
        <ele>178.0</ele>
        <time>2022-01-13T09:29:00Z</time>
      </trkpt>
      <trkpt lat="47.739033" lon="2.2078543">
        <ele>178.0</ele>
        <time>2022-01-13T09:29:01Z</time>
      </trkpt>
      <trkpt lat="47.73902" lon="2.2078598">
        <ele>177.0</ele>
        <time>2022-01-13T09:29:02Z</time>
      </trkpt>
      <trkpt lat="47.73901" lon="2.2078648">
        <ele>177.0</ele>
        <time>2022-01-13T09:29:03Z</time>
      </trkpt>
      <trkpt lat="47.739" lon="2.207867">
        <ele>177.0</ele>
        <time>2022-01-13T09:29:04Z</time>
      </trkpt>
      <trkpt lat="47.73899" lon="2.2078738">
        <ele>176.0</ele>
        <time>2022-01-13T09:29:05Z</time>
      </trkpt>
      <trkpt lat="47.73898" lon="2.207878">
        <ele>176.0</ele>
        <time>2022-01-13T09:29:06Z</time>
      </trkpt>
      <trkpt lat="47.73897" lon="2.2078822">
        <ele>176.0</ele>
        <time>2022-01-13T09:29:07Z</time>
      </trkpt>
      <trkpt lat="47.73896" lon="2.207887">
        <ele>176.0</ele>
        <time>2022-01-13T09:29:08Z</time>
      </trkpt>
      <trkpt lat="47.73895" lon="2.2078915">
        <ele>176.0</ele>
        <time>2022-01-13T09:29:09Z</time>
      </trkpt>
      <trkpt lat="47.73894" lon="2.2078922">
        <ele>175.0</ele>
        <time>2022-01-13T09:29:10Z</time>
      </trkpt>
      <trkpt lat="47.738937" lon="2.207893">
        <ele>175.0</ele>
        <time>2022-01-13T09:29:11Z</time>
      </trkpt>
      <trkpt lat="47.738926" lon="2.2078967">
        <ele>175.0</ele>
        <time>2022-01-13T09:29:12Z</time>
      </trkpt>
      <trkpt lat="47.738914" lon="2.2079036">
        <ele>175.0</ele>
        <time>2022-01-13T09:29:13Z</time>
      </trkpt>
      <trkpt lat="47.7389" lon="2.2079117">
        <ele>174.0</ele>
        <time>2022-01-13T09:29:14Z</time>
      </trkpt>
      <trkpt lat="47.738888" lon="2.2079172">
        <ele>174.0</ele>
        <time>2022-01-13T09:29:15Z</time>
      </trkpt>
      <trkpt lat="47.73888" lon="2.2079256">
        <ele>174.0</ele>
        <time>2022-01-13T09:29:16Z</time>
      </trkpt>
      <trkpt lat="47.738873" lon="2.2079303">
        <ele>174.0</ele>
        <time>2022-01-13T09:29:17Z</time>
      </trkpt>
      <trkpt lat="47.73886" lon="2.2079353">
        <ele>173.0</ele>
        <time>2022-01-13T09:29:18Z</time>
      </trkpt>
      <trkpt lat="47.73885" lon="2.2079365">
        <ele>174.0</ele>
        <time>2022-01-13T09:29:19Z</time>
      </trkpt>
      <trkpt lat="47.738842" lon="2.2079332">
        <ele>174.0</ele>
        <time>2022-01-13T09:29:20Z</time>
      </trkpt>
      <trkpt lat="47.73883" lon="2.2079344">
        <ele>174.0</ele>
        <time>2022-01-13T09:29:21Z</time>
      </trkpt>
      <trkpt lat="47.738823" lon="2.207935">
        <ele>173.0</ele>
        <time>2022-01-13T09:29:22Z</time>
      </trkpt>
      <trkpt lat="47.738815" lon="2.207938">
        <ele>173.0</ele>
        <time>2022-01-13T09:29:23Z</time>
      </trkpt>
      <trkpt lat="47.738804" lon="2.2079391">
        <ele>173.0</ele>
        <time>2022-01-13T09:29:24Z</time>
      </trkpt>
      <trkpt lat="47.738792" lon="2.207938">
        <ele>173.0</ele>
        <time>2022-01-13T09:29:25Z</time>
      </trkpt>
      <trkpt lat="47.73878" lon="2.2079365">
        <ele>173.0</ele>
        <time>2022-01-13T09:29:26Z</time>
      </trkpt>
      <trkpt lat="47.738773" lon="2.2079375">
        <ele>173.0</ele>
        <time>2022-01-13T09:29:27Z</time>
      </trkpt>
      <trkpt lat="47.738758" lon="2.2079418">
        <ele>173.0</ele>
        <time>2022-01-13T09:29:28Z</time>
      </trkpt>
      <trkpt lat="47.73875" lon="2.2079482">
        <ele>173.0</ele>
        <time>2022-01-13T09:29:29Z</time>
      </trkpt>
      <trkpt lat="47.738743" lon="2.2079546">
        <ele>173.0</ele>
        <time>2022-01-13T09:29:30Z</time>
      </trkpt>
      <trkpt lat="47.73873" lon="2.2079582">
        <ele>173.0</ele>
        <time>2022-01-13T09:29:31Z</time>
      </trkpt>
      <trkpt lat="47.73872" lon="2.2079628">
        <ele>174.0</ele>
        <time>2022-01-13T09:29:32Z</time>
      </trkpt>
      <trkpt lat="47.738705" lon="2.2079644">
        <ele>173.0</ele>
        <time>2022-01-13T09:29:33Z</time>
      </trkpt>
      <trkpt lat="47.738693" lon="2.2079682">
        <ele>174.0</ele>
        <time>2022-01-13T09:29:34Z</time>
      </trkpt>
      <trkpt lat="47.738686" lon="2.2079716">
        <ele>174.0</ele>
        <time>2022-01-13T09:29:35Z</time>
      </trkpt>
      <trkpt lat="47.738674" lon="2.2079718">
        <ele>174.0</ele>
        <time>2022-01-13T09:29:36Z</time>
      </trkpt>
      <trkpt lat="47.738663" lon="2.2079759">
        <ele>174.0</ele>
        <time>2022-01-13T09:29:37Z</time>
      </trkpt>
      <trkpt lat="47.73865" lon="2.2079806">
        <ele>174.0</ele>
        <time>2022-01-13T09:29:38Z</time>
      </trkpt>
      <trkpt lat="47.73864" lon="2.2079852">
        <ele>174.0</ele>
        <time>2022-01-13T09:29:39Z</time>
      </trkpt>
      <trkpt lat="47.73863" lon="2.2079916">
        <ele>174.0</ele>
        <time>2022-01-13T09:29:40Z</time>
      </trkpt>
      <trkpt lat="47.738617" lon="2.2079973">
        <ele>174.0</ele>
        <time>2022-01-13T09:29:41Z</time>
      </trkpt>
      <trkpt lat="47.73861" lon="2.2080007">
        <ele>174.0</ele>
        <time>2022-01-13T09:29:42Z</time>
      </trkpt>
      <trkpt lat="47.738598" lon="2.2080078">
        <ele>174.0</ele>
        <time>2022-01-13T09:29:43Z</time>
      </trkpt>
      <trkpt lat="47.73859" lon="2.2080138">
        <ele>174.0</ele>
        <time>2022-01-13T09:29:44Z</time>
      </trkpt>
      <trkpt lat="47.73858" lon="2.2080238">
        <ele>174.0</ele>
        <time>2022-01-13T09:29:45Z</time>
      </trkpt>
      <trkpt lat="47.73857" lon="2.2080338">
        <ele>174.0</ele>
        <time>2022-01-13T09:29:46Z</time>
      </trkpt>
      <trkpt lat="47.73856" lon="2.2080429">
        <ele>173.0</ele>
        <time>2022-01-13T09:29:47Z</time>
      </trkpt>
      <trkpt lat="47.738552" lon="2.2080512">
        <ele>173.0</ele>
        <time>2022-01-13T09:29:48Z</time>
      </trkpt>
      <trkpt lat="47.73854" lon="2.208056">
        <ele>173.0</ele>
        <time>2022-01-13T09:29:49Z</time>
      </trkpt>
      <trkpt lat="47.73853" lon="2.2080603">
        <ele>173.0</ele>
        <time>2022-01-13T09:29:50Z</time>
      </trkpt>
      <trkpt lat="47.73851" lon="2.2080686">
        <ele>173.0</ele>
        <time>2022-01-13T09:29:51Z</time>
      </trkpt>
      <trkpt lat="47.73851" lon="2.2080686">
        <ele>173.0</ele>
        <time>2022-01-13T09:29:51Z</time>
      </trkpt>
      <trkpt lat="47.7385" lon="2.208075">
        <ele>173.0</ele>
        <time>2022-01-13T09:29:53Z</time>
      </trkpt>
      <trkpt lat="47.73849" lon="2.2080805">
        <ele>173.0</ele>
        <time>2022-01-13T09:29:54Z</time>
      </trkpt>
      <trkpt lat="47.738476" lon="2.2080824">
        <ele>173.0</ele>
        <time>2022-01-13T09:29:55Z</time>
      </trkpt>
      <trkpt lat="47.738464" lon="2.2080846">
        <ele>173.0</ele>
        <time>2022-01-13T09:29:56Z</time>
      </trkpt>
      <trkpt lat="47.738457" lon="2.208095">
        <ele>173.0</ele>
        <time>2022-01-13T09:29:57Z</time>
      </trkpt>
      <trkpt lat="47.73844" lon="2.2081025">
        <ele>173.0</ele>
        <time>2022-01-13T09:29:58Z</time>
      </trkpt>
      <trkpt lat="47.73843" lon="2.208113">
        <ele>173.0</ele>
        <time>2022-01-13T09:29:59Z</time>
      </trkpt>
      <trkpt lat="47.738415" lon="2.2081206">
        <ele>172.0</ele>
        <time>2022-01-13T09:30:00Z</time>
      </trkpt>
      <trkpt lat="47.738388" lon="2.2081316">
        <ele>173.0</ele>
        <time>2022-01-13T09:30:01Z</time>
      </trkpt>
      <trkpt lat="47.738373" lon="2.208135">
        <ele>173.0</ele>
        <time>2022-01-13T09:30:02Z</time>
      </trkpt>
      <trkpt lat="47.738373" lon="2.208135">
        <ele>173.0</ele>
        <time>2022-01-13T09:30:02Z</time>
      </trkpt>
      <trkpt lat="47.73836" lon="2.2081447">
        <ele>172.0</ele>
        <time>2022-01-13T09:30:04Z</time>
      </trkpt>
      <trkpt lat="47.738346" lon="2.2081487">
        <ele>173.0</ele>
        <time>2022-01-13T09:30:05Z</time>
      </trkpt>
      <trkpt lat="47.73833" lon="2.208152">
        <ele>173.0</ele>
        <time>2022-01-13T09:30:06Z</time>
      </trkpt>
      <trkpt lat="47.73832" lon="2.2081542">
        <ele>172.0</ele>
        <time>2022-01-13T09:30:07Z</time>
      </trkpt>
      <trkpt lat="47.738308" lon="2.2081606">
        <ele>172.0</ele>
        <time>2022-01-13T09:30:08Z</time>
      </trkpt>
      <trkpt lat="47.738293" lon="2.2081666">
        <ele>172.0</ele>
        <time>2022-01-13T09:30:09Z</time>
      </trkpt>
      <trkpt lat="47.738266" lon="2.2081795">
        <ele>172.0</ele>
        <time>2022-01-13T09:30:10Z</time>
      </trkpt>
      <trkpt lat="47.738266" lon="2.2081795">
        <ele>172.0</ele>
        <time>2022-01-13T09:30:10Z</time>
      </trkpt>
      <trkpt lat="47.73826" lon="2.208185">
        <ele>172.0</ele>
        <time>2022-01-13T09:30:12Z</time>
      </trkpt>
      <trkpt lat="47.738235" lon="2.2081928">
        <ele>172.0</ele>
        <time>2022-01-13T09:30:13Z</time>
      </trkpt>
      <trkpt lat="47.738235" lon="2.2081928">
        <ele>172.0</ele>
        <time>2022-01-13T09:30:13Z</time>
      </trkpt>
      <trkpt lat="47.738224" lon="2.2081978">
        <ele>172.0</ele>
        <time>2022-01-13T09:30:15Z</time>
      </trkpt>
      <trkpt lat="47.738213" lon="2.2082038">
        <ele>172.0</ele>
        <time>2022-01-13T09:30:16Z</time>
      </trkpt>
      <trkpt lat="47.7382" lon="2.2082095">
        <ele>172.0</ele>
        <time>2022-01-13T09:30:17Z</time>
      </trkpt>
      <trkpt lat="47.738186" lon="2.2082157">
        <ele>172.0</ele>
        <time>2022-01-13T09:30:18Z</time>
      </trkpt>
      <trkpt lat="47.73817" lon="2.2082257">
        <ele>172.0</ele>
        <time>2022-01-13T09:30:19Z</time>
      </trkpt>
      <trkpt lat="47.738144" lon="2.20824">
        <ele>172.0</ele>
        <time>2022-01-13T09:30:20Z</time>
      </trkpt>
      <trkpt lat="47.738144" lon="2.20824">
        <ele>172.0</ele>
        <time>2022-01-13T09:30:20Z</time>
      </trkpt>
      <trkpt lat="47.73813" lon="2.2082462">
        <ele>172.0</ele>
        <time>2022-01-13T09:30:22Z</time>
      </trkpt>
      <trkpt lat="47.738117" lon="2.2082527">
        <ele>171.0</ele>
        <time>2022-01-13T09:30:23Z</time>
      </trkpt>
      <trkpt lat="47.73811" lon="2.208257">
        <ele>171.0</ele>
        <time>2022-01-13T09:30:24Z</time>
      </trkpt>
      <trkpt lat="47.7381" lon="2.2082636">
        <ele>171.0</ele>
        <time>2022-01-13T09:30:25Z</time>
      </trkpt>
      <trkpt lat="47.73809" lon="2.2082705">
        <ele>171.0</ele>
        <time>2022-01-13T09:30:26Z</time>
      </trkpt>
      <trkpt lat="47.73808" lon="2.2082715">
        <ele>171.0</ele>
        <time>2022-01-13T09:30:27Z</time>
      </trkpt>
      <trkpt lat="47.738068" lon="2.2082727">
        <ele>171.0</ele>
        <time>2022-01-13T09:30:28Z</time>
      </trkpt>
      <trkpt lat="47.738056" lon="2.208277">
        <ele>171.0</ele>
        <time>2022-01-13T09:30:29Z</time>
      </trkpt>
      <trkpt lat="47.73804" lon="2.2082832">
        <ele>171.0</ele>
        <time>2022-01-13T09:30:30Z</time>
      </trkpt>
      <trkpt lat="47.738026" lon="2.2082875">
        <ele>171.0</ele>
        <time>2022-01-13T09:30:31Z</time>
      </trkpt>
      <trkpt lat="47.738014" lon="2.2082908">
        <ele>171.0</ele>
        <time>2022-01-13T09:30:32Z</time>
      </trkpt>
      <trkpt lat="47.738007" lon="2.208297">
        <ele>171.0</ele>
        <time>2022-01-13T09:30:33Z</time>
      </trkpt>
      <trkpt lat="47.737984" lon="2.2083087">
        <ele>171.0</ele>
        <time>2022-01-13T09:30:34Z</time>
      </trkpt>
      <trkpt lat="47.737984" lon="2.2083087">
        <ele>171.0</ele>
        <time>2022-01-13T09:30:34Z</time>
      </trkpt>
      <trkpt lat="47.737972" lon="2.208312">
        <ele>171.0</ele>
        <time>2022-01-13T09:30:36Z</time>
      </trkpt>
      <trkpt lat="47.737953" lon="2.208319">
        <ele>171.0</ele>
        <time>2022-01-13T09:30:37Z</time>
      </trkpt>
      <trkpt lat="47.737938" lon="2.2083228">
        <ele>171.0</ele>
        <time>2022-01-13T09:30:38Z</time>
      </trkpt>
      <trkpt lat="47.737938" lon="2.2083228">
        <ele>171.0</ele>
        <time>2022-01-13T09:30:38Z</time>
      </trkpt>
      <trkpt lat="47.73792" lon="2.208334">
        <ele>171.0</ele>
        <time>2022-01-13T09:30:40Z</time>
      </trkpt>
      <trkpt lat="47.73792" lon="2.208334">
        <ele>171.0</ele>
        <time>2022-01-13T09:30:40Z</time>
      </trkpt>
      <trkpt lat="47.73791" lon="2.2083402">
        <ele>171.0</ele>
        <time>2022-01-13T09:30:42Z</time>
      </trkpt>
      <trkpt lat="47.7379" lon="2.2083461">
        <ele>171.0</ele>
        <time>2022-01-13T09:30:43Z</time>
      </trkpt>
      <trkpt lat="47.737892" lon="2.2083514">
        <ele>172.0</ele>
        <time>2022-01-13T09:30:44Z</time>
      </trkpt>
      <trkpt lat="47.73788" lon="2.2083566">
        <ele>172.0</ele>
        <time>2022-01-13T09:30:45Z</time>
      </trkpt>
      <trkpt lat="47.737865" lon="2.208361">
        <ele>172.0</ele>
        <time>2022-01-13T09:30:46Z</time>
      </trkpt>
      <trkpt lat="47.737843" lon="2.2083697">
        <ele>172.0</ele>
        <time>2022-01-13T09:30:47Z</time>
      </trkpt>
      <trkpt lat="47.73783" lon="2.2083755">
        <ele>172.0</ele>
        <time>2022-01-13T09:30:48Z</time>
      </trkpt>
      <trkpt lat="47.73782" lon="2.2083795">
        <ele>171.0</ele>
        <time>2022-01-13T09:30:49Z</time>
      </trkpt>
      <trkpt lat="47.73782" lon="2.2083795">
        <ele>171.0</ele>
        <time>2022-01-13T09:30:49Z</time>
      </trkpt>
      <trkpt lat="47.73781" lon="2.2083874">
        <ele>171.0</ele>
        <time>2022-01-13T09:30:51Z</time>
      </trkpt>
      <trkpt lat="47.737785" lon="2.2083998">
        <ele>171.0</ele>
        <time>2022-01-13T09:30:52Z</time>
      </trkpt>
      <trkpt lat="47.737785" lon="2.2083998">
        <ele>171.0</ele>
        <time>2022-01-13T09:30:52Z</time>
      </trkpt>
      <trkpt lat="47.73777" lon="2.2084074">
        <ele>171.0</ele>
        <time>2022-01-13T09:30:54Z</time>
      </trkpt>
      <trkpt lat="47.73776" lon="2.2084146">
        <ele>171.0</ele>
        <time>2022-01-13T09:30:55Z</time>
      </trkpt>
      <trkpt lat="47.737743" lon="2.2084239">
        <ele>171.0</ele>
        <time>2022-01-13T09:30:56Z</time>
      </trkpt>
      <trkpt lat="47.737717" lon="2.2084413">
        <ele>170.0</ele>
        <time>2022-01-13T09:30:57Z</time>
      </trkpt>
      <trkpt lat="47.737705" lon="2.2084465">
        <ele>170.0</ele>
        <time>2022-01-13T09:30:58Z</time>
      </trkpt>
      <trkpt lat="47.73769" lon="2.2084484">
        <ele>170.0</ele>
        <time>2022-01-13T09:30:59Z</time>
      </trkpt>
      <trkpt lat="47.73768" lon="2.2084584">
        <ele>170.0</ele>
        <time>2022-01-13T09:31:00Z</time>
      </trkpt>
      <trkpt lat="47.73768" lon="2.2084584">
        <ele>170.0</ele>
        <time>2022-01-13T09:31:00Z</time>
      </trkpt>
      <trkpt lat="47.73765" lon="2.208477">
        <ele>170.0</ele>
        <time>2022-01-13T09:31:02Z</time>
      </trkpt>
      <trkpt lat="47.737637" lon="2.2084808">
        <ele>170.0</ele>
        <time>2022-01-13T09:31:03Z</time>
      </trkpt>
      <trkpt lat="47.737637" lon="2.2084808">
        <ele>170.0</ele>
        <time>2022-01-13T09:31:03Z</time>
      </trkpt>
      <trkpt lat="47.737625" lon="2.2084868">
        <ele>170.0</ele>
        <time>2022-01-13T09:31:05Z</time>
      </trkpt>
      <trkpt lat="47.737614" lon="2.2084932">
        <ele>170.0</ele>
        <time>2022-01-13T09:31:06Z</time>
      </trkpt>
      <trkpt lat="47.737587" lon="2.208505">
        <ele>170.0</ele>
        <time>2022-01-13T09:31:07Z</time>
      </trkpt>
      <trkpt lat="47.737587" lon="2.208505">
        <ele>170.0</ele>
        <time>2022-01-13T09:31:07Z</time>
      </trkpt>
      <trkpt lat="47.73757" lon="2.2085083">
        <ele>170.0</ele>
        <time>2022-01-13T09:31:09Z</time>
      </trkpt>
      <trkpt lat="47.73755" lon="2.2085192">
        <ele>170.0</ele>
        <time>2022-01-13T09:31:10Z</time>
      </trkpt>
      <trkpt lat="47.73755" lon="2.2085192">
        <ele>170.0</ele>
        <time>2022-01-13T09:31:10Z</time>
      </trkpt>
      <trkpt lat="47.737522" lon="2.208526">
        <ele>170.0</ele>
        <time>2022-01-13T09:31:12Z</time>
      </trkpt>
      <trkpt lat="47.737522" lon="2.208526">
        <ele>170.0</ele>
        <time>2022-01-13T09:31:12Z</time>
      </trkpt>
      <trkpt lat="47.737495" lon="2.2085366">
        <ele>170.0</ele>
        <time>2022-01-13T09:31:14Z</time>
      </trkpt>
      <trkpt lat="47.737484" lon="2.2085416">
        <ele>170.0</ele>
        <time>2022-01-13T09:31:15Z</time>
      </trkpt>
      <trkpt lat="47.737476" lon="2.20855">
        <ele>170.0</ele>
        <time>2022-01-13T09:31:16Z</time>
      </trkpt>
      <trkpt lat="47.737465" lon="2.208553">
        <ele>169.0</ele>
        <time>2022-01-13T09:31:17Z</time>
      </trkpt>
      <trkpt lat="47.737457" lon="2.208559">
        <ele>169.0</ele>
        <time>2022-01-13T09:31:18Z</time>
      </trkpt>
      <trkpt lat="47.737446" lon="2.2085648">
        <ele>170.0</ele>
        <time>2022-01-13T09:31:19Z</time>
      </trkpt>
      <trkpt lat="47.73744" lon="2.208572">
        <ele>169.0</ele>
        <time>2022-01-13T09:31:20Z</time>
      </trkpt>
      <trkpt lat="47.737427" lon="2.2085798">
        <ele>169.0</ele>
        <time>2022-01-13T09:31:21Z</time>
      </trkpt>
      <trkpt lat="47.737415" lon="2.2085881">
        <ele>169.0</ele>
        <time>2022-01-13T09:31:22Z</time>
      </trkpt>
      <trkpt lat="47.737404" lon="2.2085922">
        <ele>169.0</ele>
        <time>2022-01-13T09:31:23Z</time>
      </trkpt>
      <trkpt lat="47.73739" lon="2.2085924">
        <ele>169.0</ele>
        <time>2022-01-13T09:31:24Z</time>
      </trkpt>
      <trkpt lat="47.737377" lon="2.2085962">
        <ele>169.0</ele>
        <time>2022-01-13T09:31:25Z</time>
      </trkpt>
      <trkpt lat="47.737366" lon="2.2086077">
        <ele>169.0</ele>
        <time>2022-01-13T09:31:26Z</time>
      </trkpt>
      <trkpt lat="47.737354" lon="2.20861">
        <ele>169.0</ele>
        <time>2022-01-13T09:31:27Z</time>
      </trkpt>
      <trkpt lat="47.73734" lon="2.2086184">
        <ele>169.0</ele>
        <time>2022-01-13T09:31:28Z</time>
      </trkpt>
      <trkpt lat="47.737328" lon="2.2086215">
        <ele>169.0</ele>
        <time>2022-01-13T09:31:29Z</time>
      </trkpt>
      <trkpt lat="47.737316" lon="2.2086284">
        <ele>169.0</ele>
        <time>2022-01-13T09:31:30Z</time>
      </trkpt>
      <trkpt lat="47.737305" lon="2.208637">
        <ele>170.0</ele>
        <time>2022-01-13T09:31:31Z</time>
      </trkpt>
      <trkpt lat="47.737293" lon="2.2086425">
        <ele>169.0</ele>
        <time>2022-01-13T09:31:32Z</time>
      </trkpt>
      <trkpt lat="47.73728" lon="2.2086508">
        <ele>169.0</ele>
        <time>2022-01-13T09:31:33Z</time>
      </trkpt>
      <trkpt lat="47.73727" lon="2.2086587">
        <ele>170.0</ele>
        <time>2022-01-13T09:31:34Z</time>
      </trkpt>
      <trkpt lat="47.73726" lon="2.2086663">
        <ele>170.0</ele>
        <time>2022-01-13T09:31:35Z</time>
      </trkpt>
      <trkpt lat="47.737247" lon="2.208673">
        <ele>170.0</ele>
        <time>2022-01-13T09:31:36Z</time>
      </trkpt>
      <trkpt lat="47.737236" lon="2.2086787">
        <ele>169.0</ele>
        <time>2022-01-13T09:31:37Z</time>
      </trkpt>
      <trkpt lat="47.737225" lon="2.2086835">
        <ele>169.0</ele>
        <time>2022-01-13T09:31:38Z</time>
      </trkpt>
      <trkpt lat="47.737213" lon="2.2086902">
        <ele>170.0</ele>
        <time>2022-01-13T09:31:39Z</time>
      </trkpt>
      <trkpt lat="47.7372" lon="2.2086864">
        <ele>170.0</ele>
        <time>2022-01-13T09:31:40Z</time>
      </trkpt>
      <trkpt lat="47.73719" lon="2.208688">
        <ele>170.0</ele>
        <time>2022-01-13T09:31:41Z</time>
      </trkpt>
      <trkpt lat="47.737175" lon="2.2086957">
        <ele>170.0</ele>
        <time>2022-01-13T09:31:42Z</time>
      </trkpt>
      <trkpt lat="47.737164" lon="2.2087045">
        <ele>170.0</ele>
        <time>2022-01-13T09:31:44Z</time>
      </trkpt>
      <trkpt lat="47.737152" lon="2.2087083">
        <ele>170.0</ele>
        <time>2022-01-13T09:31:45Z</time>
      </trkpt>
      <trkpt lat="47.73714" lon="2.2087126">
        <ele>170.0</ele>
        <time>2022-01-13T09:31:46Z</time>
      </trkpt>
      <trkpt lat="47.737133" lon="2.208718">
        <ele>170.0</ele>
        <time>2022-01-13T09:31:47Z</time>
      </trkpt>
      <trkpt lat="47.73712" lon="2.208725">
        <ele>170.0</ele>
        <time>2022-01-13T09:31:48Z</time>
      </trkpt>
      <trkpt lat="47.737114" lon="2.2087302">
        <ele>169.0</ele>
        <time>2022-01-13T09:31:49Z</time>
      </trkpt>
      <trkpt lat="47.73711" lon="2.2087417">
        <ele>170.0</ele>
        <time>2022-01-13T09:31:50Z</time>
      </trkpt>
      <trkpt lat="47.7371" lon="2.2087607">
        <ele>170.0</ele>
        <time>2022-01-13T09:31:51Z</time>
      </trkpt>
      <trkpt lat="47.737083" lon="2.2087772">
        <ele>170.0</ele>
        <time>2022-01-13T09:31:52Z</time>
      </trkpt>
      <trkpt lat="47.737072" lon="2.208787">
        <ele>170.0</ele>
        <time>2022-01-13T09:31:53Z</time>
      </trkpt>
      <trkpt lat="47.737064" lon="2.2087944">
        <ele>170.0</ele>
        <time>2022-01-13T09:31:54Z</time>
      </trkpt>
      <trkpt lat="47.737053" lon="2.2088027">
        <ele>170.0</ele>
        <time>2022-01-13T09:31:55Z</time>
      </trkpt>
      <trkpt lat="47.737038" lon="2.2088065">
        <ele>170.0</ele>
        <time>2022-01-13T09:31:56Z</time>
      </trkpt>
      <trkpt lat="47.73703" lon="2.2088113">
        <ele>169.0</ele>
        <time>2022-01-13T09:31:57Z</time>
      </trkpt>
      <trkpt lat="47.737015" lon="2.208817">
        <ele>170.0</ele>
        <time>2022-01-13T09:31:58Z</time>
      </trkpt>
      <trkpt lat="47.737003" lon="2.2088244">
        <ele>170.0</ele>
        <time>2022-01-13T09:31:59Z</time>
      </trkpt>
      <trkpt lat="47.736988" lon="2.2088287">
        <ele>170.0</ele>
        <time>2022-01-13T09:32:00Z</time>
      </trkpt>
      <trkpt lat="47.73698" lon="2.2088296">
        <ele>170.0</ele>
        <time>2022-01-13T09:32:01Z</time>
      </trkpt>
      <trkpt lat="47.736965" lon="2.208833">
        <ele>170.0</ele>
        <time>2022-01-13T09:32:02Z</time>
      </trkpt>
      <trkpt lat="47.736954" lon="2.208833">
        <ele>171.0</ele>
        <time>2022-01-13T09:32:03Z</time>
      </trkpt>
      <trkpt lat="47.736942" lon="2.2088318">
        <ele>171.0</ele>
        <time>2022-01-13T09:32:04Z</time>
      </trkpt>
      <trkpt lat="47.73693" lon="2.2088342">
        <ele>171.0</ele>
        <time>2022-01-13T09:32:05Z</time>
      </trkpt>
      <trkpt lat="47.73692" lon="2.2088408">
        <ele>171.0</ele>
        <time>2022-01-13T09:32:06Z</time>
      </trkpt>
      <trkpt lat="47.73691" lon="2.2088468">
        <ele>171.0</ele>
        <time>2022-01-13T09:32:07Z</time>
      </trkpt>
      <trkpt lat="47.7369" lon="2.208848">
        <ele>171.0</ele>
        <time>2022-01-13T09:32:08Z</time>
      </trkpt>
      <trkpt lat="47.73689" lon="2.20885">
        <ele>170.0</ele>
        <time>2022-01-13T09:32:09Z</time>
      </trkpt>
      <trkpt lat="47.736877" lon="2.2088552">
        <ele>170.0</ele>
        <time>2022-01-13T09:32:10Z</time>
      </trkpt>
      <trkpt lat="47.736862" lon="2.2088614">
        <ele>170.0</ele>
        <time>2022-01-13T09:32:11Z</time>
      </trkpt>
      <trkpt lat="47.73685" lon="2.208864">
        <ele>170.0</ele>
        <time>2022-01-13T09:32:12Z</time>
      </trkpt>
      <trkpt lat="47.73684" lon="2.2088695">
        <ele>170.0</ele>
        <time>2022-01-13T09:32:13Z</time>
      </trkpt>
      <trkpt lat="47.736828" lon="2.2088742">
        <ele>170.0</ele>
        <time>2022-01-13T09:32:14Z</time>
      </trkpt>
      <trkpt lat="47.736813" lon="2.2088842">
        <ele>170.0</ele>
        <time>2022-01-13T09:32:15Z</time>
      </trkpt>
      <trkpt lat="47.7368" lon="2.2088876">
        <ele>170.0</ele>
        <time>2022-01-13T09:32:16Z</time>
      </trkpt>
      <trkpt lat="47.73679" lon="2.20889">
        <ele>170.0</ele>
        <time>2022-01-13T09:32:17Z</time>
      </trkpt>
      <trkpt lat="47.73678" lon="2.2088919">
        <ele>170.0</ele>
        <time>2022-01-13T09:32:18Z</time>
      </trkpt>
      <trkpt lat="47.73677" lon="2.2088914">
        <ele>170.0</ele>
        <time>2022-01-13T09:32:19Z</time>
      </trkpt>
      <trkpt lat="47.73676" lon="2.2088945">
        <ele>170.0</ele>
        <time>2022-01-13T09:32:20Z</time>
      </trkpt>
      <trkpt lat="47.736748" lon="2.208898">
        <ele>170.0</ele>
        <time>2022-01-13T09:32:21Z</time>
      </trkpt>
      <trkpt lat="47.736732" lon="2.2089007">
        <ele>170.0</ele>
        <time>2022-01-13T09:32:22Z</time>
      </trkpt>
      <trkpt lat="47.736717" lon="2.2089078">
        <ele>170.0</ele>
        <time>2022-01-13T09:32:23Z</time>
      </trkpt>
      <trkpt lat="47.736706" lon="2.2089095">
        <ele>170.0</ele>
        <time>2022-01-13T09:32:24Z</time>
      </trkpt>
      <trkpt lat="47.736694" lon="2.208914">
        <ele>170.0</ele>
        <time>2022-01-13T09:32:25Z</time>
      </trkpt>
      <trkpt lat="47.73668" lon="2.208916">
        <ele>170.0</ele>
        <time>2022-01-13T09:32:26Z</time>
      </trkpt>
      <trkpt lat="47.736668" lon="2.2089186">
        <ele>170.0</ele>
        <time>2022-01-13T09:32:27Z</time>
      </trkpt>
      <trkpt lat="47.736656" lon="2.2089238">
        <ele>170.0</ele>
        <time>2022-01-13T09:32:28Z</time>
      </trkpt>
      <trkpt lat="47.73664" lon="2.2089298">
        <ele>169.0</ele>
        <time>2022-01-13T09:32:29Z</time>
      </trkpt>
      <trkpt lat="47.73663" lon="2.208937">
        <ele>169.0</ele>
        <time>2022-01-13T09:32:30Z</time>
      </trkpt>
      <trkpt lat="47.736614" lon="2.208947">
        <ele>169.0</ele>
        <time>2022-01-13T09:32:31Z</time>
      </trkpt>
      <trkpt lat="47.736603" lon="2.2089515">
        <ele>169.0</ele>
        <time>2022-01-13T09:32:32Z</time>
      </trkpt>
      <trkpt lat="47.736588" lon="2.2089572">
        <ele>169.0</ele>
        <time>2022-01-13T09:32:33Z</time>
      </trkpt>
      <trkpt lat="47.736576" lon="2.2089643">
        <ele>169.0</ele>
        <time>2022-01-13T09:32:34Z</time>
      </trkpt>
      <trkpt lat="47.73657" lon="2.2089698">
        <ele>169.0</ele>
        <time>2022-01-13T09:32:35Z</time>
      </trkpt>
      <trkpt lat="47.73656" lon="2.2089715">
        <ele>169.0</ele>
        <time>2022-01-13T09:32:36Z</time>
      </trkpt>
      <trkpt lat="47.73655" lon="2.208973">
        <ele>169.0</ele>
        <time>2022-01-13T09:32:37Z</time>
      </trkpt>
      <trkpt lat="47.736538" lon="2.2089798">
        <ele>169.0</ele>
        <time>2022-01-13T09:32:38Z</time>
      </trkpt>
      <trkpt lat="47.736526" lon="2.2089827">
        <ele>169.0</ele>
        <time>2022-01-13T09:32:39Z</time>
      </trkpt>
      <trkpt lat="47.73651" lon="2.2089825">
        <ele>169.0</ele>
        <time>2022-01-13T09:32:40Z</time>
      </trkpt>
      <trkpt lat="47.736504" lon="2.208986">
        <ele>169.0</ele>
        <time>2022-01-13T09:32:41Z</time>
      </trkpt>
      <trkpt lat="47.736492" lon="2.2089918">
        <ele>169.0</ele>
        <time>2022-01-13T09:32:42Z</time>
      </trkpt>
      <trkpt lat="47.73648" lon="2.2089937">
        <ele>169.0</ele>
        <time>2022-01-13T09:32:43Z</time>
      </trkpt>
      <trkpt lat="47.73647" lon="2.2089963">
        <ele>168.0</ele>
        <time>2022-01-13T09:32:44Z</time>
      </trkpt>
      <trkpt lat="47.736458" lon="2.2090025">
        <ele>168.0</ele>
        <time>2022-01-13T09:32:45Z</time>
      </trkpt>
      <trkpt lat="47.73645" lon="2.2090106">
        <ele>168.0</ele>
        <time>2022-01-13T09:32:46Z</time>
      </trkpt>
      <trkpt lat="47.73644" lon="2.209017">
        <ele>167.0</ele>
        <time>2022-01-13T09:32:47Z</time>
      </trkpt>
      <trkpt lat="47.73643" lon="2.2090266">
        <ele>167.0</ele>
        <time>2022-01-13T09:32:48Z</time>
      </trkpt>
      <trkpt lat="47.736427" lon="2.209035">
        <ele>167.0</ele>
        <time>2022-01-13T09:32:49Z</time>
      </trkpt>
      <trkpt lat="47.73642" lon="2.209045">
        <ele>167.0</ele>
        <time>2022-01-13T09:32:50Z</time>
      </trkpt>
      <trkpt lat="47.73641" lon="2.209052">
        <ele>167.0</ele>
        <time>2022-01-13T09:32:51Z</time>
      </trkpt>
      <trkpt lat="47.7364" lon="2.2090583">
        <ele>167.0</ele>
        <time>2022-01-13T09:32:52Z</time>
      </trkpt>
      <trkpt lat="47.73639" lon="2.2090642">
        <ele>167.0</ele>
        <time>2022-01-13T09:32:53Z</time>
      </trkpt>
      <trkpt lat="47.736374" lon="2.209067">
        <ele>166.0</ele>
        <time>2022-01-13T09:32:54Z</time>
      </trkpt>
      <trkpt lat="47.73636" lon="2.2090743">
        <ele>166.0</ele>
        <time>2022-01-13T09:32:55Z</time>
      </trkpt>
      <trkpt lat="47.736347" lon="2.209083">
        <ele>166.0</ele>
        <time>2022-01-13T09:32:56Z</time>
      </trkpt>
      <trkpt lat="47.736332" lon="2.2090917">
        <ele>166.0</ele>
        <time>2022-01-13T09:32:57Z</time>
      </trkpt>
      <trkpt lat="47.73632" lon="2.2091012">
        <ele>166.0</ele>
        <time>2022-01-13T09:32:58Z</time>
      </trkpt>
      <trkpt lat="47.736305" lon="2.2091036">
        <ele>166.0</ele>
        <time>2022-01-13T09:32:59Z</time>
      </trkpt>
      <trkpt lat="47.73629" lon="2.2091134">
        <ele>166.0</ele>
        <time>2022-01-13T09:33:00Z</time>
      </trkpt>
      <trkpt lat="47.736275" lon="2.2091212">
        <ele>166.0</ele>
        <time>2022-01-13T09:33:01Z</time>
      </trkpt>
      <trkpt lat="47.73626" lon="2.2091296">
        <ele>166.0</ele>
        <time>2022-01-13T09:33:02Z</time>
      </trkpt>
      <trkpt lat="47.736244" lon="2.2091362">
        <ele>166.0</ele>
        <time>2022-01-13T09:33:03Z</time>
      </trkpt>
      <trkpt lat="47.73623" lon="2.20914">
        <ele>166.0</ele>
        <time>2022-01-13T09:33:04Z</time>
      </trkpt>
      <trkpt lat="47.73621" lon="2.2091496">
        <ele>166.0</ele>
        <time>2022-01-13T09:33:05Z</time>
      </trkpt>
      <trkpt lat="47.7362" lon="2.2091491">
        <ele>166.0</ele>
        <time>2022-01-13T09:33:06Z</time>
      </trkpt>
      <trkpt lat="47.736187" lon="2.2091458">
        <ele>166.0</ele>
        <time>2022-01-13T09:33:07Z</time>
      </trkpt>
      <trkpt lat="47.73617" lon="2.2091486">
        <ele>167.0</ele>
        <time>2022-01-13T09:33:08Z</time>
      </trkpt>
      <trkpt lat="47.73616" lon="2.2091525">
        <ele>166.0</ele>
        <time>2022-01-13T09:33:09Z</time>
      </trkpt>
      <trkpt lat="47.736153" lon="2.2091563">
        <ele>166.0</ele>
        <time>2022-01-13T09:33:10Z</time>
      </trkpt>
      <trkpt lat="47.73614" lon="2.2091608">
        <ele>166.0</ele>
        <time>2022-01-13T09:33:11Z</time>
      </trkpt>
      <trkpt lat="47.736134" lon="2.209168">
        <ele>167.0</ele>
        <time>2022-01-13T09:33:12Z</time>
      </trkpt>
      <trkpt lat="47.736122" lon="2.2091713">
        <ele>167.0</ele>
        <time>2022-01-13T09:33:13Z</time>
      </trkpt>
      <trkpt lat="47.73611" lon="2.2091694">
        <ele>167.0</ele>
        <time>2022-01-13T09:33:14Z</time>
      </trkpt>
      <trkpt lat="47.736103" lon="2.2091794">
        <ele>167.0</ele>
        <time>2022-01-13T09:33:15Z</time>
      </trkpt>
      <trkpt lat="47.73609" lon="2.2091877">
        <ele>167.0</ele>
        <time>2022-01-13T09:33:16Z</time>
      </trkpt>
      <trkpt lat="47.73608" lon="2.2091975">
        <ele>167.0</ele>
        <time>2022-01-13T09:33:17Z</time>
      </trkpt>
      <trkpt lat="47.736073" lon="2.2092035">
        <ele>167.0</ele>
        <time>2022-01-13T09:33:18Z</time>
      </trkpt>
      <trkpt lat="47.73606" lon="2.2092116">
        <ele>167.0</ele>
        <time>2022-01-13T09:33:19Z</time>
      </trkpt>
      <trkpt lat="47.736057" lon="2.2092226">
        <ele>166.0</ele>
        <time>2022-01-13T09:33:20Z</time>
      </trkpt>
      <trkpt lat="47.73605" lon="2.209232">
        <ele>166.0</ele>
        <time>2022-01-13T09:33:21Z</time>
      </trkpt>
      <trkpt lat="47.73604" lon="2.209242">
        <ele>166.0</ele>
        <time>2022-01-13T09:33:22Z</time>
      </trkpt>
      <trkpt lat="47.736027" lon="2.2092507">
        <ele>166.0</ele>
        <time>2022-01-13T09:33:23Z</time>
      </trkpt>
      <trkpt lat="47.73601" lon="2.2092576">
        <ele>166.0</ele>
        <time>2022-01-13T09:33:24Z</time>
      </trkpt>
      <trkpt lat="47.736" lon="2.2092628">
        <ele>166.0</ele>
        <time>2022-01-13T09:33:25Z</time>
      </trkpt>
      <trkpt lat="47.73599" lon="2.2092671">
        <ele>166.0</ele>
        <time>2022-01-13T09:33:26Z</time>
      </trkpt>
      <trkpt lat="47.735977" lon="2.2092705">
        <ele>166.0</ele>
        <time>2022-01-13T09:33:27Z</time>
      </trkpt>
      <trkpt lat="47.735966" lon="2.2092745">
        <ele>166.0</ele>
        <time>2022-01-13T09:33:28Z</time>
      </trkpt>
      <trkpt lat="47.735954" lon="2.209278">
        <ele>166.0</ele>
        <time>2022-01-13T09:33:29Z</time>
      </trkpt>
      <trkpt lat="47.735943" lon="2.2092865">
        <ele>166.0</ele>
        <time>2022-01-13T09:33:30Z</time>
      </trkpt>
      <trkpt lat="47.73593" lon="2.2092977">
        <ele>166.0</ele>
        <time>2022-01-13T09:33:31Z</time>
      </trkpt>
      <trkpt lat="47.735916" lon="2.2093046">
        <ele>167.0</ele>
        <time>2022-01-13T09:33:32Z</time>
      </trkpt>
      <trkpt lat="47.7359" lon="2.2093127">
        <ele>167.0</ele>
        <time>2022-01-13T09:33:33Z</time>
      </trkpt>
      <trkpt lat="47.73589" lon="2.2093205">
        <ele>166.0</ele>
        <time>2022-01-13T09:33:34Z</time>
      </trkpt>
      <trkpt lat="47.735874" lon="2.2093282">
        <ele>166.0</ele>
        <time>2022-01-13T09:33:35Z</time>
      </trkpt>
      <trkpt lat="47.73586" lon="2.2093353">
        <ele>166.0</ele>
        <time>2022-01-13T09:33:36Z</time>
      </trkpt>
      <trkpt lat="47.735847" lon="2.2093403">
        <ele>166.0</ele>
        <time>2022-01-13T09:33:37Z</time>
      </trkpt>
      <trkpt lat="47.735836" lon="2.2093472">
        <ele>166.0</ele>
        <time>2022-01-13T09:33:38Z</time>
      </trkpt>
      <trkpt lat="47.735825" lon="2.2093573">
        <ele>166.0</ele>
        <time>2022-01-13T09:33:39Z</time>
      </trkpt>
      <trkpt lat="47.735813" lon="2.2093594">
        <ele>165.0</ele>
        <time>2022-01-13T09:33:40Z</time>
      </trkpt>
      <trkpt lat="47.735798" lon="2.2093606">
        <ele>165.0</ele>
        <time>2022-01-13T09:33:41Z</time>
      </trkpt>
      <trkpt lat="47.73578" lon="2.2093604">
        <ele>165.0</ele>
        <time>2022-01-13T09:33:42Z</time>
      </trkpt>
      <trkpt lat="47.735767" lon="2.2093668">
        <ele>165.0</ele>
        <time>2022-01-13T09:33:43Z</time>
      </trkpt>
      <trkpt lat="47.735756" lon="2.2093754">
        <ele>165.0</ele>
        <time>2022-01-13T09:33:44Z</time>
      </trkpt>
      <trkpt lat="47.73575" lon="2.2093825">
        <ele>166.0</ele>
        <time>2022-01-13T09:33:45Z</time>
      </trkpt>
      <trkpt lat="47.735737" lon="2.2093914">
        <ele>166.0</ele>
        <time>2022-01-13T09:33:46Z</time>
      </trkpt>
      <trkpt lat="47.73573" lon="2.2093942">
        <ele>166.0</ele>
        <time>2022-01-13T09:33:47Z</time>
      </trkpt>
      <trkpt lat="47.735718" lon="2.2093978">
        <ele>166.0</ele>
        <time>2022-01-13T09:33:48Z</time>
      </trkpt>
      <trkpt lat="47.735706" lon="2.2094011">
        <ele>166.0</ele>
        <time>2022-01-13T09:33:49Z</time>
      </trkpt>
      <trkpt lat="47.7357" lon="2.2094018">
        <ele>166.0</ele>
        <time>2022-01-13T09:33:50Z</time>
      </trkpt>
      <trkpt lat="47.735687" lon="2.209411">
        <ele>165.0</ele>
        <time>2022-01-13T09:33:51Z</time>
      </trkpt>
      <trkpt lat="47.73568" lon="2.2094204">
        <ele>165.0</ele>
        <time>2022-01-13T09:33:52Z</time>
      </trkpt>
      <trkpt lat="47.73567" lon="2.2094238">
        <ele>165.0</ele>
        <time>2022-01-13T09:33:53Z</time>
      </trkpt>
      <trkpt lat="47.735657" lon="2.2094238">
        <ele>165.0</ele>
        <time>2022-01-13T09:33:54Z</time>
      </trkpt>
      <trkpt lat="47.73564" lon="2.2094269">
        <ele>165.0</ele>
        <time>2022-01-13T09:33:55Z</time>
      </trkpt>
      <trkpt lat="47.735634" lon="2.2094326">
        <ele>165.0</ele>
        <time>2022-01-13T09:33:56Z</time>
      </trkpt>
      <trkpt lat="47.735622" lon="2.2094364">
        <ele>165.0</ele>
        <time>2022-01-13T09:33:57Z</time>
      </trkpt>
      <trkpt lat="47.73561" lon="2.2094393">
        <ele>165.0</ele>
        <time>2022-01-13T09:33:58Z</time>
      </trkpt>
      <trkpt lat="47.7356" lon="2.2094448">
        <ele>165.0</ele>
        <time>2022-01-13T09:33:59Z</time>
      </trkpt>
      <trkpt lat="47.735588" lon="2.2094438">
        <ele>165.0</ele>
        <time>2022-01-13T09:34:00Z</time>
      </trkpt>
      <trkpt lat="47.735573" lon="2.2094429">
        <ele>165.0</ele>
        <time>2022-01-13T09:34:01Z</time>
      </trkpt>
      <trkpt lat="47.735558" lon="2.2094455">
        <ele>165.0</ele>
        <time>2022-01-13T09:34:02Z</time>
      </trkpt>
      <trkpt lat="47.735546" lon="2.2094495">
        <ele>164.0</ele>
        <time>2022-01-13T09:34:03Z</time>
      </trkpt>
      <trkpt lat="47.735535" lon="2.209459">
        <ele>164.0</ele>
        <time>2022-01-13T09:34:04Z</time>
      </trkpt>
      <trkpt lat="47.735523" lon="2.2094698">
        <ele>164.0</ele>
        <time>2022-01-13T09:34:05Z</time>
      </trkpt>
      <trkpt lat="47.735508" lon="2.2094824">
        <ele>164.0</ele>
        <time>2022-01-13T09:34:06Z</time>
      </trkpt>
      <trkpt lat="47.735493" lon="2.2094886">
        <ele>163.0</ele>
        <time>2022-01-13T09:34:07Z</time>
      </trkpt>
      <trkpt lat="47.735477" lon="2.2094965">
        <ele>163.0</ele>
        <time>2022-01-13T09:34:08Z</time>
      </trkpt>
      <trkpt lat="47.735462" lon="2.2095003">
        <ele>164.0</ele>
        <time>2022-01-13T09:34:09Z</time>
      </trkpt>
      <trkpt lat="47.73545" lon="2.2095096">
        <ele>164.0</ele>
        <time>2022-01-13T09:34:10Z</time>
      </trkpt>
      <trkpt lat="47.735435" lon="2.2095132">
        <ele>164.0</ele>
        <time>2022-01-13T09:34:11Z</time>
      </trkpt>
      <trkpt lat="47.73542" lon="2.2095172">
        <ele>164.0</ele>
        <time>2022-01-13T09:34:12Z</time>
      </trkpt>
      <trkpt lat="47.735405" lon="2.2095218">
        <ele>164.0</ele>
        <time>2022-01-13T09:34:13Z</time>
      </trkpt>
      <trkpt lat="47.73539" lon="2.2095265">
        <ele>164.0</ele>
        <time>2022-01-13T09:34:14Z</time>
      </trkpt>
      <trkpt lat="47.735374" lon="2.209536">
        <ele>164.0</ele>
        <time>2022-01-13T09:34:15Z</time>
      </trkpt>
      <trkpt lat="47.735355" lon="2.2095456">
        <ele>164.0</ele>
        <time>2022-01-13T09:34:16Z</time>
      </trkpt>
      <trkpt lat="47.73534" lon="2.2095532">
        <ele>164.0</ele>
        <time>2022-01-13T09:34:17Z</time>
      </trkpt>
      <trkpt lat="47.735325" lon="2.2095644">
        <ele>164.0</ele>
        <time>2022-01-13T09:34:18Z</time>
      </trkpt>
      <trkpt lat="47.73531" lon="2.209569">
        <ele>164.0</ele>
        <time>2022-01-13T09:34:19Z</time>
      </trkpt>
      <trkpt lat="47.735294" lon="2.2095764">
        <ele>164.0</ele>
        <time>2022-01-13T09:34:20Z</time>
      </trkpt>
      <trkpt lat="47.735283" lon="2.2095816">
        <ele>164.0</ele>
        <time>2022-01-13T09:34:21Z</time>
      </trkpt>
      <trkpt lat="47.735268" lon="2.2095842">
        <ele>164.0</ele>
        <time>2022-01-13T09:34:22Z</time>
      </trkpt>
      <trkpt lat="47.735256" lon="2.2095845">
        <ele>164.0</ele>
        <time>2022-01-13T09:34:23Z</time>
      </trkpt>
      <trkpt lat="47.73525" lon="2.2095945">
        <ele>163.0</ele>
        <time>2022-01-13T09:34:24Z</time>
      </trkpt>
      <trkpt lat="47.735245" lon="2.2096095">
        <ele>164.0</ele>
        <time>2022-01-13T09:34:25Z</time>
      </trkpt>
      <trkpt lat="47.73524" lon="2.2096164">
        <ele>164.0</ele>
        <time>2022-01-13T09:34:26Z</time>
      </trkpt>
      <trkpt lat="47.735237" lon="2.2096262">
        <ele>165.0</ele>
        <time>2022-01-13T09:34:27Z</time>
      </trkpt>
      <trkpt lat="47.735233" lon="2.20963">
        <ele>165.0</ele>
        <time>2022-01-13T09:34:28Z</time>
      </trkpt>
      <trkpt lat="47.73523" lon="2.2096403">
        <ele>165.0</ele>
        <time>2022-01-13T09:34:29Z</time>
      </trkpt>
      <trkpt lat="47.73522" lon="2.209649">
        <ele>164.0</ele>
        <time>2022-01-13T09:34:30Z</time>
      </trkpt>
      <trkpt lat="47.73521" lon="2.209662">
        <ele>164.0</ele>
        <time>2022-01-13T09:34:31Z</time>
      </trkpt>
      <trkpt lat="47.735203" lon="2.2096672">
        <ele>164.0</ele>
        <time>2022-01-13T09:34:32Z</time>
      </trkpt>
      <trkpt lat="47.73519" lon="2.209675">
        <ele>164.0</ele>
        <time>2022-01-13T09:34:33Z</time>
      </trkpt>
      <trkpt lat="47.735184" lon="2.2096748">
        <ele>164.0</ele>
        <time>2022-01-13T09:34:34Z</time>
      </trkpt>
      <trkpt lat="47.735172" lon="2.2096703">
        <ele>164.0</ele>
        <time>2022-01-13T09:34:35Z</time>
      </trkpt>
      <trkpt lat="47.735165" lon="2.2096646">
        <ele>164.0</ele>
        <time>2022-01-13T09:34:36Z</time>
      </trkpt>
      <trkpt lat="47.735153" lon="2.2096598">
        <ele>164.0</ele>
        <time>2022-01-13T09:34:37Z</time>
      </trkpt>
      <trkpt lat="47.73514" lon="2.2096605">
        <ele>164.0</ele>
        <time>2022-01-13T09:34:38Z</time>
      </trkpt>
      <trkpt lat="47.735123" lon="2.2096596">
        <ele>164.0</ele>
        <time>2022-01-13T09:34:39Z</time>
      </trkpt>
      <trkpt lat="47.735107" lon="2.2096565">
        <ele>165.0</ele>
        <time>2022-01-13T09:34:40Z</time>
      </trkpt>
      <trkpt lat="47.735092" lon="2.2096598">
        <ele>165.0</ele>
        <time>2022-01-13T09:34:41Z</time>
      </trkpt>
      <trkpt lat="47.735073" lon="2.2096634">
        <ele>165.0</ele>
        <time>2022-01-13T09:34:42Z</time>
      </trkpt>
      <trkpt lat="47.73505" lon="2.2096694">
        <ele>166.0</ele>
        <time>2022-01-13T09:34:43Z</time>
      </trkpt>
      <trkpt lat="47.735035" lon="2.2096763">
        <ele>165.0</ele>
        <time>2022-01-13T09:34:44Z</time>
      </trkpt>
      <trkpt lat="47.735023" lon="2.209686">
        <ele>166.0</ele>
        <time>2022-01-13T09:34:45Z</time>
      </trkpt>
      <trkpt lat="47.73501" lon="2.2096956">
        <ele>166.0</ele>
        <time>2022-01-13T09:34:46Z</time>
      </trkpt>
      <trkpt lat="47.734997" lon="2.2097049">
        <ele>166.0</ele>
        <time>2022-01-13T09:34:47Z</time>
      </trkpt>
      <trkpt lat="47.73499" lon="2.2097118">
        <ele>166.0</ele>
        <time>2022-01-13T09:34:48Z</time>
      </trkpt>
      <trkpt lat="47.734978" lon="2.2097208">
        <ele>166.0</ele>
        <time>2022-01-13T09:34:49Z</time>
      </trkpt>
      <trkpt lat="47.73497" lon="2.2097282">
        <ele>166.0</ele>
        <time>2022-01-13T09:34:50Z</time>
      </trkpt>
      <trkpt lat="47.73496" lon="2.2097385">
        <ele>166.0</ele>
        <time>2022-01-13T09:34:51Z</time>
      </trkpt>
      <trkpt lat="47.734947" lon="2.209745">
        <ele>166.0</ele>
        <time>2022-01-13T09:34:52Z</time>
      </trkpt>
      <trkpt lat="47.734936" lon="2.2097569">
        <ele>166.0</ele>
        <time>2022-01-13T09:34:53Z</time>
      </trkpt>
      <trkpt lat="47.734924" lon="2.209772">
        <ele>166.0</ele>
        <time>2022-01-13T09:34:54Z</time>
      </trkpt>
      <trkpt lat="47.73491" lon="2.2097871">
        <ele>167.0</ele>
        <time>2022-01-13T09:34:55Z</time>
      </trkpt>
      <trkpt lat="47.734898" lon="2.2097957">
        <ele>167.0</ele>
        <time>2022-01-13T09:34:56Z</time>
      </trkpt>
      <trkpt lat="47.73489" lon="2.2098033">
        <ele>167.0</ele>
        <time>2022-01-13T09:34:57Z</time>
      </trkpt>
      <trkpt lat="47.73488" lon="2.2098098">
        <ele>167.0</ele>
        <time>2022-01-13T09:34:58Z</time>
      </trkpt>
      <trkpt lat="47.734867" lon="2.2098167">
        <ele>167.0</ele>
        <time>2022-01-13T09:34:59Z</time>
      </trkpt>
      <trkpt lat="47.734848" lon="2.2098217">
        <ele>167.0</ele>
        <time>2022-01-13T09:35:00Z</time>
      </trkpt>
      <trkpt lat="47.734833" lon="2.2098253">
        <ele>167.0</ele>
        <time>2022-01-13T09:35:01Z</time>
      </trkpt>
      <trkpt lat="47.734814" lon="2.2098284">
        <ele>168.0</ele>
        <time>2022-01-13T09:35:02Z</time>
      </trkpt>
      <trkpt lat="47.734802" lon="2.209829">
        <ele>168.0</ele>
        <time>2022-01-13T09:35:03Z</time>
      </trkpt>
      <trkpt lat="47.73479" lon="2.2098343">
        <ele>169.0</ele>
        <time>2022-01-13T09:35:04Z</time>
      </trkpt>
      <trkpt lat="47.734776" lon="2.209843">
        <ele>169.0</ele>
        <time>2022-01-13T09:35:05Z</time>
      </trkpt>
      <trkpt lat="47.734764" lon="2.2098477">
        <ele>170.0</ele>
        <time>2022-01-13T09:35:06Z</time>
      </trkpt>
      <trkpt lat="47.734753" lon="2.2098598">
        <ele>170.0</ele>
        <time>2022-01-13T09:35:07Z</time>
      </trkpt>
      <trkpt lat="47.73474" lon="2.2098703">
        <ele>170.0</ele>
        <time>2022-01-13T09:35:08Z</time>
      </trkpt>
      <trkpt lat="47.73473" lon="2.209877">
        <ele>170.0</ele>
        <time>2022-01-13T09:35:09Z</time>
      </trkpt>
      <trkpt lat="47.73472" lon="2.209887">
        <ele>171.0</ele>
        <time>2022-01-13T09:35:10Z</time>
      </trkpt>
      <trkpt lat="47.734707" lon="2.2098935">
        <ele>171.0</ele>
        <time>2022-01-13T09:35:11Z</time>
      </trkpt>
      <trkpt lat="47.734695" lon="2.2099028">
        <ele>171.0</ele>
        <time>2022-01-13T09:35:12Z</time>
      </trkpt>
      <trkpt lat="47.73468" lon="2.209912">
        <ele>171.0</ele>
        <time>2022-01-13T09:35:13Z</time>
      </trkpt>
      <trkpt lat="47.734673" lon="2.2099173">
        <ele>172.0</ele>
        <time>2022-01-13T09:35:14Z</time>
      </trkpt>
      <trkpt lat="47.734657" lon="2.20992">
        <ele>172.0</ele>
        <time>2022-01-13T09:35:15Z</time>
      </trkpt>
      <trkpt lat="47.734646" lon="2.2099226">
        <ele>172.0</ele>
        <time>2022-01-13T09:35:16Z</time>
      </trkpt>
      <trkpt lat="47.734634" lon="2.209925">
        <ele>172.0</ele>
        <time>2022-01-13T09:35:17Z</time>
      </trkpt>
      <trkpt lat="47.734623" lon="2.2099257">
        <ele>172.0</ele>
        <time>2022-01-13T09:35:18Z</time>
      </trkpt>
      <trkpt lat="47.73461" lon="2.2099288">
        <ele>173.0</ele>
        <time>2022-01-13T09:35:19Z</time>
      </trkpt>
      <trkpt lat="47.7346" lon="2.2099376">
        <ele>174.0</ele>
        <time>2022-01-13T09:35:20Z</time>
      </trkpt>
      <trkpt lat="47.73459" lon="2.209944">
        <ele>174.0</ele>
        <time>2022-01-13T09:35:21Z</time>
      </trkpt>
      <trkpt lat="47.734577" lon="2.20995">
        <ele>174.0</ele>
        <time>2022-01-13T09:35:22Z</time>
      </trkpt>
      <trkpt lat="47.734566" lon="2.2099564">
        <ele>174.0</ele>
        <time>2022-01-13T09:35:23Z</time>
      </trkpt>
      <trkpt lat="47.73455" lon="2.2099607">
        <ele>174.0</ele>
        <time>2022-01-13T09:35:24Z</time>
      </trkpt>
      <trkpt lat="47.73454" lon="2.2099657">
        <ele>175.0</ele>
        <time>2022-01-13T09:35:25Z</time>
      </trkpt>
      <trkpt lat="47.734528" lon="2.2099676">
        <ele>175.0</ele>
        <time>2022-01-13T09:35:26Z</time>
      </trkpt>
      <trkpt lat="47.734512" lon="2.2099674">
        <ele>174.0</ele>
        <time>2022-01-13T09:35:27Z</time>
      </trkpt>
      <trkpt lat="47.7345" lon="2.2099752">
        <ele>174.0</ele>
        <time>2022-01-13T09:35:28Z</time>
      </trkpt>
      <trkpt lat="47.73449" lon="2.2099814">
        <ele>174.0</ele>
        <time>2022-01-13T09:35:29Z</time>
      </trkpt>
      <trkpt lat="47.734478" lon="2.209985">
        <ele>174.0</ele>
        <time>2022-01-13T09:35:30Z</time>
      </trkpt>
      <trkpt lat="47.734467" lon="2.2099829">
        <ele>175.0</ele>
        <time>2022-01-13T09:35:31Z</time>
      </trkpt>
      <trkpt lat="47.734455" lon="2.2099824">
        <ele>175.0</ele>
        <time>2022-01-13T09:35:32Z</time>
      </trkpt>
      <trkpt lat="47.73444" lon="2.2099843">
        <ele>175.0</ele>
        <time>2022-01-13T09:35:33Z</time>
      </trkpt>
      <trkpt lat="47.734425" lon="2.209992">
        <ele>176.0</ele>
        <time>2022-01-13T09:35:34Z</time>
      </trkpt>
      <trkpt lat="47.73441" lon="2.209998">
        <ele>176.0</ele>
        <time>2022-01-13T09:35:35Z</time>
      </trkpt>
      <trkpt lat="47.734394" lon="2.210007">
        <ele>177.0</ele>
        <time>2022-01-13T09:35:36Z</time>
      </trkpt>
      <trkpt lat="47.73438" lon="2.2100124">
        <ele>177.0</ele>
        <time>2022-01-13T09:35:37Z</time>
      </trkpt>
      <trkpt lat="47.734364" lon="2.2100203">
        <ele>177.0</ele>
        <time>2022-01-13T09:35:38Z</time>
      </trkpt>
      <trkpt lat="47.73435" lon="2.2100253">
        <ele>176.0</ele>
        <time>2022-01-13T09:35:39Z</time>
      </trkpt>
      <trkpt lat="47.734333" lon="2.210027">
        <ele>177.0</ele>
        <time>2022-01-13T09:35:40Z</time>
      </trkpt>
      <trkpt lat="47.73432" lon="2.210033">
        <ele>176.0</ele>
        <time>2022-01-13T09:35:41Z</time>
      </trkpt>
      <trkpt lat="47.73431" lon="2.2100391">
        <ele>177.0</ele>
        <time>2022-01-13T09:35:42Z</time>
      </trkpt>
      <trkpt lat="47.7343" lon="2.2100415">
        <ele>177.0</ele>
        <time>2022-01-13T09:35:43Z</time>
      </trkpt>
      <trkpt lat="47.734287" lon="2.210047">
        <ele>178.0</ele>
        <time>2022-01-13T09:35:44Z</time>
      </trkpt>
      <trkpt lat="47.734276" lon="2.21005">
        <ele>177.0</ele>
        <time>2022-01-13T09:35:45Z</time>
      </trkpt>
      <trkpt lat="47.734264" lon="2.2100549">
        <ele>178.0</ele>
        <time>2022-01-13T09:35:46Z</time>
      </trkpt>
      <trkpt lat="47.734253" lon="2.21006">
        <ele>178.0</ele>
        <time>2022-01-13T09:35:47Z</time>
      </trkpt>
      <trkpt lat="47.73424" lon="2.2100675">
        <ele>178.0</ele>
        <time>2022-01-13T09:35:48Z</time>
      </trkpt>
      <trkpt lat="47.734234" lon="2.2100687">
        <ele>178.0</ele>
        <time>2022-01-13T09:35:49Z</time>
      </trkpt>
      <trkpt lat="47.734222" lon="2.210067">
        <ele>178.0</ele>
        <time>2022-01-13T09:35:50Z</time>
      </trkpt>
      <trkpt lat="47.734222" lon="2.210067">
        <ele>178.0</ele>
        <time>2022-01-13T09:35:50Z</time>
      </trkpt>
      <trkpt lat="47.7342" lon="2.210063">
        <ele>178.0</ele>
        <time>2022-01-13T09:35:52Z</time>
      </trkpt>
      <trkpt lat="47.734188" lon="2.2100692">
        <ele>178.0</ele>
        <time>2022-01-13T09:35:53Z</time>
      </trkpt>
      <trkpt lat="47.734177" lon="2.2100713">
        <ele>178.0</ele>
        <time>2022-01-13T09:35:54Z</time>
      </trkpt>
      <trkpt lat="47.734165" lon="2.210071">
        <ele>178.0</ele>
        <time>2022-01-13T09:35:55Z</time>
      </trkpt>
      <trkpt lat="47.734154" lon="2.2100685">
        <ele>178.0</ele>
        <time>2022-01-13T09:35:56Z</time>
      </trkpt>
      <trkpt lat="47.734142" lon="2.2100713">
        <ele>178.0</ele>
        <time>2022-01-13T09:35:57Z</time>
      </trkpt>
      <trkpt lat="47.73413" lon="2.2100744">
        <ele>178.0</ele>
        <time>2022-01-13T09:35:58Z</time>
      </trkpt>
      <trkpt lat="47.73412" lon="2.2100806">
        <ele>178.0</ele>
        <time>2022-01-13T09:35:59Z</time>
      </trkpt>
      <trkpt lat="47.734108" lon="2.2100809">
        <ele>179.0</ele>
        <time>2022-01-13T09:36:00Z</time>
      </trkpt>
      <trkpt lat="47.734097" lon="2.2100856">
        <ele>179.0</ele>
        <time>2022-01-13T09:36:01Z</time>
      </trkpt>
      <trkpt lat="47.734085" lon="2.2100925">
        <ele>179.0</ele>
        <time>2022-01-13T09:36:02Z</time>
      </trkpt>
      <trkpt lat="47.734077" lon="2.2100973">
        <ele>179.0</ele>
        <time>2022-01-13T09:36:03Z</time>
      </trkpt>
      <trkpt lat="47.734066" lon="2.210104">
        <ele>179.0</ele>
        <time>2022-01-13T09:36:04Z</time>
      </trkpt>
      <trkpt lat="47.734055" lon="2.210108">
        <ele>179.0</ele>
        <time>2022-01-13T09:36:05Z</time>
      </trkpt>
      <trkpt lat="47.734047" lon="2.2101197">
        <ele>179.0</ele>
        <time>2022-01-13T09:36:06Z</time>
      </trkpt>
      <trkpt lat="47.734035" lon="2.2101314">
        <ele>179.0</ele>
        <time>2022-01-13T09:36:07Z</time>
      </trkpt>
      <trkpt lat="47.73402" lon="2.2101424">
        <ele>179.0</ele>
        <time>2022-01-13T09:36:08Z</time>
      </trkpt>
      <trkpt lat="47.73401" lon="2.2101538">
        <ele>179.0</ele>
        <time>2022-01-13T09:36:09Z</time>
      </trkpt>
      <trkpt lat="47.733994" lon="2.2101574">
        <ele>179.0</ele>
        <time>2022-01-13T09:36:10Z</time>
      </trkpt>
      <trkpt lat="47.73398" lon="2.2101672">
        <ele>179.0</ele>
        <time>2022-01-13T09:36:11Z</time>
      </trkpt>
      <trkpt lat="47.733967" lon="2.2101731">
        <ele>180.0</ele>
        <time>2022-01-13T09:36:12Z</time>
      </trkpt>
      <trkpt lat="47.733955" lon="2.2101831">
        <ele>180.0</ele>
        <time>2022-01-13T09:36:13Z</time>
      </trkpt>
      <trkpt lat="47.73394" lon="2.2101927">
        <ele>180.0</ele>
        <time>2022-01-13T09:36:14Z</time>
      </trkpt>
      <trkpt lat="47.73393" lon="2.2101984">
        <ele>180.0</ele>
        <time>2022-01-13T09:36:15Z</time>
      </trkpt>
      <trkpt lat="47.733917" lon="2.210211">
        <ele>180.0</ele>
        <time>2022-01-13T09:36:16Z</time>
      </trkpt>
      <trkpt lat="47.733902" lon="2.210222">
        <ele>181.0</ele>
        <time>2022-01-13T09:36:17Z</time>
      </trkpt>
      <trkpt lat="47.73389" lon="2.2102306">
        <ele>181.0</ele>
        <time>2022-01-13T09:36:18Z</time>
      </trkpt>
      <trkpt lat="47.73388" lon="2.210239">
        <ele>181.0</ele>
        <time>2022-01-13T09:36:19Z</time>
      </trkpt>
      <trkpt lat="47.733864" lon="2.2102427">
        <ele>181.0</ele>
        <time>2022-01-13T09:36:20Z</time>
      </trkpt>
      <trkpt lat="47.733852" lon="2.2102458">
        <ele>181.0</ele>
        <time>2022-01-13T09:36:21Z</time>
      </trkpt>
      <trkpt lat="47.73384" lon="2.2102528">
        <ele>182.0</ele>
        <time>2022-01-13T09:36:22Z</time>
      </trkpt>
      <trkpt lat="47.73383" lon="2.21026">
        <ele>182.0</ele>
        <time>2022-01-13T09:36:23Z</time>
      </trkpt>
      <trkpt lat="47.733814" lon="2.2102652">
        <ele>183.0</ele>
        <time>2022-01-13T09:36:24Z</time>
      </trkpt>
      <trkpt lat="47.7338" lon="2.2102747">
        <ele>183.0</ele>
        <time>2022-01-13T09:36:25Z</time>
      </trkpt>
      <trkpt lat="47.733788" lon="2.2102833">
        <ele>183.0</ele>
        <time>2022-01-13T09:36:26Z</time>
      </trkpt>
      <trkpt lat="47.733776" lon="2.210293">
        <ele>184.0</ele>
        <time>2022-01-13T09:36:27Z</time>
      </trkpt>
      <trkpt lat="47.73376" lon="2.2103014">
        <ele>184.0</ele>
        <time>2022-01-13T09:36:28Z</time>
      </trkpt>
      <trkpt lat="47.73375" lon="2.2103088">
        <ele>184.0</ele>
        <time>2022-01-13T09:36:29Z</time>
      </trkpt>
      <trkpt lat="47.733738" lon="2.210319">
        <ele>184.0</ele>
        <time>2022-01-13T09:36:30Z</time>
      </trkpt>
      <trkpt lat="47.733723" lon="2.210328">
        <ele>184.0</ele>
        <time>2022-01-13T09:36:31Z</time>
      </trkpt>
      <trkpt lat="47.73371" lon="2.2103338">
        <ele>184.0</ele>
        <time>2022-01-13T09:36:32Z</time>
      </trkpt>
      <trkpt lat="47.733704" lon="2.2103393">
        <ele>184.0</ele>
        <time>2022-01-13T09:36:33Z</time>
      </trkpt>
      <trkpt lat="47.733692" lon="2.2103412">
        <ele>183.0</ele>
        <time>2022-01-13T09:36:34Z</time>
      </trkpt>
      <trkpt lat="47.733685" lon="2.2103474">
        <ele>184.0</ele>
        <time>2022-01-13T09:36:35Z</time>
      </trkpt>
      <trkpt lat="47.73367" lon="2.2103548">
        <ele>184.0</ele>
        <time>2022-01-13T09:36:36Z</time>
      </trkpt>
      <trkpt lat="47.733654" lon="2.2103662">
        <ele>184.0</ele>
        <time>2022-01-13T09:36:37Z</time>
      </trkpt>
      <trkpt lat="47.733643" lon="2.210376">
        <ele>185.0</ele>
        <time>2022-01-13T09:36:38Z</time>
      </trkpt>
      <trkpt lat="47.733627" lon="2.2103841">
        <ele>185.0</ele>
        <time>2022-01-13T09:36:39Z</time>
      </trkpt>
      <trkpt lat="47.733612" lon="2.2103899">
        <ele>186.0</ele>
        <time>2022-01-13T09:36:40Z</time>
      </trkpt>
      <trkpt lat="47.733597" lon="2.2103941">
        <ele>186.0</ele>
        <time>2022-01-13T09:36:41Z</time>
      </trkpt>
      <trkpt lat="47.733585" lon="2.2104013">
        <ele>186.0</ele>
        <time>2022-01-13T09:36:42Z</time>
      </trkpt>
      <trkpt lat="47.733574" lon="2.2104068">
        <ele>186.0</ele>
        <time>2022-01-13T09:36:43Z</time>
      </trkpt>
      <trkpt lat="47.73356" lon="2.210415">
        <ele>186.0</ele>
        <time>2022-01-13T09:36:44Z</time>
      </trkpt>
      <trkpt lat="47.733547" lon="2.2104225">
        <ele>186.0</ele>
        <time>2022-01-13T09:36:45Z</time>
      </trkpt>
      <trkpt lat="47.733536" lon="2.2104335">
        <ele>187.0</ele>
        <time>2022-01-13T09:36:46Z</time>
      </trkpt>
      <trkpt lat="47.73353" lon="2.2104366">
        <ele>186.0</ele>
        <time>2022-01-13T09:36:47Z</time>
      </trkpt>
      <trkpt lat="47.73352" lon="2.2104402">
        <ele>187.0</ele>
        <time>2022-01-13T09:36:48Z</time>
      </trkpt>
      <trkpt lat="47.73351" lon="2.2104475">
        <ele>186.0</ele>
        <time>2022-01-13T09:36:49Z</time>
      </trkpt>
      <trkpt lat="47.7335" lon="2.2104573">
        <ele>186.0</ele>
        <time>2022-01-13T09:36:50Z</time>
      </trkpt>
      <trkpt lat="47.73349" lon="2.2104647">
        <ele>186.0</ele>
        <time>2022-01-13T09:36:51Z</time>
      </trkpt>
      <trkpt lat="47.733482" lon="2.210468">
        <ele>186.0</ele>
        <time>2022-01-13T09:36:52Z</time>
      </trkpt>
      <trkpt lat="47.733475" lon="2.2104735">
        <ele>186.0</ele>
        <time>2022-01-13T09:36:53Z</time>
      </trkpt>
      <trkpt lat="47.733463" lon="2.2104785">
        <ele>186.0</ele>
        <time>2022-01-13T09:36:54Z</time>
      </trkpt>
      <trkpt lat="47.73345" lon="2.210481">
        <ele>186.0</ele>
        <time>2022-01-13T09:36:55Z</time>
      </trkpt>
      <trkpt lat="47.733444" lon="2.2104833">
        <ele>186.0</ele>
        <time>2022-01-13T09:36:56Z</time>
      </trkpt>
      <trkpt lat="47.733433" lon="2.2104814">
        <ele>185.0</ele>
        <time>2022-01-13T09:36:57Z</time>
      </trkpt>
      <trkpt lat="47.733425" lon="2.2104862">
        <ele>185.0</ele>
        <time>2022-01-13T09:36:58Z</time>
      </trkpt>
      <trkpt lat="47.733414" lon="2.2104855">
        <ele>185.0</ele>
        <time>2022-01-13T09:36:59Z</time>
      </trkpt>
      <trkpt lat="47.733402" lon="2.2104897">
        <ele>185.0</ele>
        <time>2022-01-13T09:37:00Z</time>
      </trkpt>
      <trkpt lat="47.733387" lon="2.210494">
        <ele>185.0</ele>
        <time>2022-01-13T09:37:01Z</time>
      </trkpt>
      <trkpt lat="47.73337" lon="2.2105024">
        <ele>185.0</ele>
        <time>2022-01-13T09:37:02Z</time>
      </trkpt>
      <trkpt lat="47.733356" lon="2.2105052">
        <ele>185.0</ele>
        <time>2022-01-13T09:37:03Z</time>
      </trkpt>
      <trkpt lat="47.733345" lon="2.2105103">
        <ele>186.0</ele>
        <time>2022-01-13T09:37:04Z</time>
      </trkpt>
      <trkpt lat="47.733337" lon="2.2105136">
        <ele>186.0</ele>
        <time>2022-01-13T09:37:05Z</time>
      </trkpt>
      <trkpt lat="47.733322" lon="2.210525">
        <ele>186.0</ele>
        <time>2022-01-13T09:37:06Z</time>
      </trkpt>
      <trkpt lat="47.73331" lon="2.2105334">
        <ele>186.0</ele>
        <time>2022-01-13T09:37:07Z</time>
      </trkpt>
      <trkpt lat="47.7333" lon="2.21054">
        <ele>186.0</ele>
        <time>2022-01-13T09:37:08Z</time>
      </trkpt>
      <trkpt lat="47.733284" lon="2.2105465">
        <ele>185.0</ele>
        <time>2022-01-13T09:37:09Z</time>
      </trkpt>
      <trkpt lat="47.733273" lon="2.210553">
        <ele>185.0</ele>
        <time>2022-01-13T09:37:10Z</time>
      </trkpt>
      <trkpt lat="47.73326" lon="2.2105598">
        <ele>185.0</ele>
        <time>2022-01-13T09:37:11Z</time>
      </trkpt>
      <trkpt lat="47.73325" lon="2.2105608">
        <ele>184.0</ele>
        <time>2022-01-13T09:37:12Z</time>
      </trkpt>
      <trkpt lat="47.73324" lon="2.2105622">
        <ele>184.0</ele>
        <time>2022-01-13T09:37:13Z</time>
      </trkpt>
      <trkpt lat="47.733227" lon="2.2105641">
        <ele>184.0</ele>
        <time>2022-01-13T09:37:14Z</time>
      </trkpt>
      <trkpt lat="47.733215" lon="2.2105691">
        <ele>184.0</ele>
        <time>2022-01-13T09:37:15Z</time>
      </trkpt>
      <trkpt lat="47.733204" lon="2.2105706">
        <ele>185.0</ele>
        <time>2022-01-13T09:37:16Z</time>
      </trkpt>
      <trkpt lat="47.733196" lon="2.2105732">
        <ele>185.0</ele>
        <time>2022-01-13T09:37:17Z</time>
      </trkpt>
      <trkpt lat="47.733185" lon="2.2105746">
        <ele>185.0</ele>
        <time>2022-01-13T09:37:18Z</time>
      </trkpt>
      <trkpt lat="47.733173" lon="2.2105825">
        <ele>184.0</ele>
        <time>2022-01-13T09:37:19Z</time>
      </trkpt>
      <trkpt lat="47.733166" lon="2.210586">
        <ele>184.0</ele>
        <time>2022-01-13T09:37:20Z</time>
      </trkpt>
      <trkpt lat="47.733154" lon="2.210586">
        <ele>184.0</ele>
        <time>2022-01-13T09:37:21Z</time>
      </trkpt>
      <trkpt lat="47.733143" lon="2.210588">
        <ele>184.0</ele>
        <time>2022-01-13T09:37:22Z</time>
      </trkpt>
      <trkpt lat="47.73313" lon="2.2105947">
        <ele>183.0</ele>
        <time>2022-01-13T09:37:23Z</time>
      </trkpt>
      <trkpt lat="47.733124" lon="2.2105992">
        <ele>183.0</ele>
        <time>2022-01-13T09:37:24Z</time>
      </trkpt>
      <trkpt lat="47.733105" lon="2.2106006">
        <ele>183.0</ele>
        <time>2022-01-13T09:37:25Z</time>
      </trkpt>
      <trkpt lat="47.733093" lon="2.210608">
        <ele>183.0</ele>
        <time>2022-01-13T09:37:26Z</time>
      </trkpt>
      <trkpt lat="47.733078" lon="2.210616">
        <ele>183.0</ele>
        <time>2022-01-13T09:37:27Z</time>
      </trkpt>
      <trkpt lat="47.733067" lon="2.2106206">
        <ele>183.0</ele>
        <time>2022-01-13T09:37:28Z</time>
      </trkpt>
      <trkpt lat="47.733055" lon="2.2106225">
        <ele>183.0</ele>
        <time>2022-01-13T09:37:29Z</time>
      </trkpt>
      <trkpt lat="47.733044" lon="2.2106233">
        <ele>183.0</ele>
        <time>2022-01-13T09:37:30Z</time>
      </trkpt>
      <trkpt lat="47.733032" lon="2.210627">
        <ele>182.0</ele>
        <time>2022-01-13T09:37:31Z</time>
      </trkpt>
      <trkpt lat="47.73302" lon="2.2106323">
        <ele>182.0</ele>
        <time>2022-01-13T09:37:32Z</time>
      </trkpt>
      <trkpt lat="47.73301" lon="2.210635">
        <ele>182.0</ele>
        <time>2022-01-13T09:37:33Z</time>
      </trkpt>
      <trkpt lat="47.732998" lon="2.2106416">
        <ele>182.0</ele>
        <time>2022-01-13T09:37:34Z</time>
      </trkpt>
      <trkpt lat="47.732983" lon="2.2106469">
        <ele>182.0</ele>
        <time>2022-01-13T09:37:35Z</time>
      </trkpt>
      <trkpt lat="47.732975" lon="2.2106512">
        <ele>182.0</ele>
        <time>2022-01-13T09:37:36Z</time>
      </trkpt>
      <trkpt lat="47.73296" lon="2.2106552">
        <ele>182.0</ele>
        <time>2022-01-13T09:37:37Z</time>
      </trkpt>
      <trkpt lat="47.732944" lon="2.210666">
        <ele>183.0</ele>
        <time>2022-01-13T09:37:38Z</time>
      </trkpt>
      <trkpt lat="47.732933" lon="2.2106707">
        <ele>183.0</ele>
        <time>2022-01-13T09:37:39Z</time>
      </trkpt>
      <trkpt lat="47.73293" lon="2.2106724">
        <ele>183.0</ele>
        <time>2022-01-13T09:37:40Z</time>
      </trkpt>
      <trkpt lat="47.732925" lon="2.2106743">
        <ele>182.0</ele>
        <time>2022-01-13T09:37:41Z</time>
      </trkpt>
      <trkpt lat="47.732914" lon="2.2106779">
        <ele>183.0</ele>
        <time>2022-01-13T09:37:42Z</time>
      </trkpt>
      <trkpt lat="47.732906" lon="2.2106845">
        <ele>182.0</ele>
        <time>2022-01-13T09:37:43Z</time>
      </trkpt>
      <trkpt lat="47.732895" lon="2.2106953">
        <ele>182.0</ele>
        <time>2022-01-13T09:37:44Z</time>
      </trkpt>
      <trkpt lat="47.732887" lon="2.2107036">
        <ele>182.0</ele>
        <time>2022-01-13T09:37:45Z</time>
      </trkpt>
      <trkpt lat="47.732876" lon="2.2107067">
        <ele>182.0</ele>
        <time>2022-01-13T09:37:46Z</time>
      </trkpt>
      <trkpt lat="47.73286" lon="2.2107058">
        <ele>183.0</ele>
        <time>2022-01-13T09:37:47Z</time>
      </trkpt>
      <trkpt lat="47.73285" lon="2.210706">
        <ele>183.0</ele>
        <time>2022-01-13T09:37:48Z</time>
      </trkpt>
      <trkpt lat="47.732838" lon="2.2107084">
        <ele>183.0</ele>
        <time>2022-01-13T09:37:49Z</time>
      </trkpt>
      <trkpt lat="47.73283" lon="2.210711">
        <ele>183.0</ele>
        <time>2022-01-13T09:37:50Z</time>
      </trkpt>
      <trkpt lat="47.73282" lon="2.2107172">
        <ele>183.0</ele>
        <time>2022-01-13T09:37:51Z</time>
      </trkpt>
      <trkpt lat="47.732807" lon="2.2107213">
        <ele>183.0</ele>
        <time>2022-01-13T09:37:52Z</time>
      </trkpt>
      <trkpt lat="47.7328" lon="2.210724">
        <ele>183.0</ele>
        <time>2022-01-13T09:37:53Z</time>
      </trkpt>
      <trkpt lat="47.732788" lon="2.210731">
        <ele>183.0</ele>
        <time>2022-01-13T09:37:54Z</time>
      </trkpt>
      <trkpt lat="47.732773" lon="2.2107377">
        <ele>183.0</ele>
        <time>2022-01-13T09:37:55Z</time>
      </trkpt>
      <trkpt lat="47.73276" lon="2.21074">
        <ele>183.0</ele>
        <time>2022-01-13T09:37:56Z</time>
      </trkpt>
      <trkpt lat="47.732754" lon="2.210744">
        <ele>183.0</ele>
        <time>2022-01-13T09:37:57Z</time>
      </trkpt>
      <trkpt lat="47.732746" lon="2.2107444">
        <ele>184.0</ele>
        <time>2022-01-13T09:37:58Z</time>
      </trkpt>
      <trkpt lat="47.732735" lon="2.2107487">
        <ele>184.0</ele>
        <time>2022-01-13T09:37:59Z</time>
      </trkpt>
      <trkpt lat="47.732727" lon="2.2107491">
        <ele>184.0</ele>
        <time>2022-01-13T09:38:00Z</time>
      </trkpt>
      <trkpt lat="47.732716" lon="2.2107515">
        <ele>184.0</ele>
        <time>2022-01-13T09:38:01Z</time>
      </trkpt>
      <trkpt lat="47.732704" lon="2.2107565">
        <ele>184.0</ele>
        <time>2022-01-13T09:38:02Z</time>
      </trkpt>
      <trkpt lat="47.732693" lon="2.2107675">
        <ele>184.0</ele>
        <time>2022-01-13T09:38:03Z</time>
      </trkpt>
      <trkpt lat="47.73268" lon="2.2107737">
        <ele>184.0</ele>
        <time>2022-01-13T09:38:04Z</time>
      </trkpt>
      <trkpt lat="47.73267" lon="2.210781">
        <ele>184.0</ele>
        <time>2022-01-13T09:38:05Z</time>
      </trkpt>
      <trkpt lat="47.73266" lon="2.210789">
        <ele>184.0</ele>
        <time>2022-01-13T09:38:06Z</time>
      </trkpt>
      <trkpt lat="47.732647" lon="2.210795">
        <ele>183.0</ele>
        <time>2022-01-13T09:38:07Z</time>
      </trkpt>
      <trkpt lat="47.73264" lon="2.2108004">
        <ele>184.0</ele>
        <time>2022-01-13T09:38:08Z</time>
      </trkpt>
      <trkpt lat="47.732624" lon="2.2108047">
        <ele>184.0</ele>
        <time>2022-01-13T09:38:09Z</time>
      </trkpt>
      <trkpt lat="47.732616" lon="2.2108097">
        <ele>184.0</ele>
        <time>2022-01-13T09:38:10Z</time>
      </trkpt>
      <trkpt lat="47.7326" lon="2.2108147">
        <ele>184.0</ele>
        <time>2022-01-13T09:38:11Z</time>
      </trkpt>
      <trkpt lat="47.73259" lon="2.2108223">
        <ele>185.0</ele>
        <time>2022-01-13T09:38:12Z</time>
      </trkpt>
      <trkpt lat="47.73258" lon="2.2108302">
        <ele>185.0</ele>
        <time>2022-01-13T09:38:13Z</time>
      </trkpt>
      <trkpt lat="47.732563" lon="2.2108393">
        <ele>185.0</ele>
        <time>2022-01-13T09:38:14Z</time>
      </trkpt>
      <trkpt lat="47.73255" lon="2.2108464">
        <ele>185.0</ele>
        <time>2022-01-13T09:38:15Z</time>
      </trkpt>
      <trkpt lat="47.73254" lon="2.210851">
        <ele>185.0</ele>
        <time>2022-01-13T09:38:16Z</time>
      </trkpt>
      <trkpt lat="47.73253" lon="2.2108545">
        <ele>186.0</ele>
        <time>2022-01-13T09:38:17Z</time>
      </trkpt>
      <trkpt lat="47.732513" lon="2.2108593">
        <ele>186.0</ele>
        <time>2022-01-13T09:38:18Z</time>
      </trkpt>
      <trkpt lat="47.732506" lon="2.2108607">
        <ele>186.0</ele>
        <time>2022-01-13T09:38:19Z</time>
      </trkpt>
      <trkpt lat="47.732494" lon="2.2108655">
        <ele>185.0</ele>
        <time>2022-01-13T09:38:20Z</time>
      </trkpt>
      <trkpt lat="47.73248" lon="2.210876">
        <ele>186.0</ele>
        <time>2022-01-13T09:38:21Z</time>
      </trkpt>
      <trkpt lat="47.732468" lon="2.2108865">
        <ele>186.0</ele>
        <time>2022-01-13T09:38:22Z</time>
      </trkpt>
      <trkpt lat="47.732452" lon="2.2108943">
        <ele>186.0</ele>
        <time>2022-01-13T09:38:23Z</time>
      </trkpt>
      <trkpt lat="47.73244" lon="2.2109">
        <ele>186.0</ele>
        <time>2022-01-13T09:38:24Z</time>
      </trkpt>
      <trkpt lat="47.73243" lon="2.2109034">
        <ele>187.0</ele>
        <time>2022-01-13T09:38:25Z</time>
      </trkpt>
      <trkpt lat="47.73242" lon="2.2109091">
        <ele>187.0</ele>
        <time>2022-01-13T09:38:26Z</time>
      </trkpt>
      <trkpt lat="47.73241" lon="2.2109158">
        <ele>186.0</ele>
        <time>2022-01-13T09:38:27Z</time>
      </trkpt>
      <trkpt lat="47.7324" lon="2.2109177">
        <ele>186.0</ele>
        <time>2022-01-13T09:38:28Z</time>
      </trkpt>
      <trkpt lat="47.732388" lon="2.2109215">
        <ele>187.0</ele>
        <time>2022-01-13T09:38:29Z</time>
      </trkpt>
      <trkpt lat="47.732372" lon="2.210924">
        <ele>187.0</ele>
        <time>2022-01-13T09:38:30Z</time>
      </trkpt>
      <trkpt lat="47.732365" lon="2.210927">
        <ele>187.0</ele>
        <time>2022-01-13T09:38:31Z</time>
      </trkpt>
      <trkpt lat="47.732353" lon="2.2109315">
        <ele>187.0</ele>
        <time>2022-01-13T09:38:32Z</time>
      </trkpt>
      <trkpt lat="47.73235" lon="2.2109368">
        <ele>187.0</ele>
        <time>2022-01-13T09:38:33Z</time>
      </trkpt>
      <trkpt lat="47.732338" lon="2.210943">
        <ele>187.0</ele>
        <time>2022-01-13T09:38:34Z</time>
      </trkpt>
      <trkpt lat="47.732327" lon="2.2109473">
        <ele>187.0</ele>
        <time>2022-01-13T09:38:35Z</time>
      </trkpt>
      <trkpt lat="47.732315" lon="2.210951">
        <ele>187.0</ele>
        <time>2022-01-13T09:38:36Z</time>
      </trkpt>
      <trkpt lat="47.7323" lon="2.2109554">
        <ele>187.0</ele>
        <time>2022-01-13T09:38:37Z</time>
      </trkpt>
      <trkpt lat="47.732292" lon="2.2109623">
        <ele>187.0</ele>
        <time>2022-01-13T09:38:38Z</time>
      </trkpt>
      <trkpt lat="47.732285" lon="2.21097">
        <ele>187.0</ele>
        <time>2022-01-13T09:38:39Z</time>
      </trkpt>
      <trkpt lat="47.732273" lon="2.2109776">
        <ele>188.0</ele>
        <time>2022-01-13T09:38:40Z</time>
      </trkpt>
      <trkpt lat="47.73226" lon="2.2109835">
        <ele>188.0</ele>
        <time>2022-01-13T09:38:41Z</time>
      </trkpt>
      <trkpt lat="47.73225" lon="2.210987">
        <ele>188.0</ele>
        <time>2022-01-13T09:38:42Z</time>
      </trkpt>
      <trkpt lat="47.732246" lon="2.2109983">
        <ele>188.0</ele>
        <time>2022-01-13T09:38:43Z</time>
      </trkpt>
      <trkpt lat="47.73224" lon="2.2110062">
        <ele>188.0</ele>
        <time>2022-01-13T09:38:44Z</time>
      </trkpt>
      <trkpt lat="47.73223" lon="2.211019">
        <ele>188.0</ele>
        <time>2022-01-13T09:38:45Z</time>
      </trkpt>
      <trkpt lat="47.732227" lon="2.2110317">
        <ele>189.0</ele>
        <time>2022-01-13T09:38:46Z</time>
      </trkpt>
      <trkpt lat="47.73222" lon="2.2110393">
        <ele>188.0</ele>
        <time>2022-01-13T09:38:47Z</time>
      </trkpt>
      <trkpt lat="47.73221" lon="2.2110467">
        <ele>188.0</ele>
        <time>2022-01-13T09:38:48Z</time>
      </trkpt>
      <trkpt lat="47.732197" lon="2.2110512">
        <ele>188.0</ele>
        <time>2022-01-13T09:38:49Z</time>
      </trkpt>
      <trkpt lat="47.73219" lon="2.211054">
        <ele>188.0</ele>
        <time>2022-01-13T09:38:50Z</time>
      </trkpt>
      <trkpt lat="47.732178" lon="2.2110562">
        <ele>188.0</ele>
        <time>2022-01-13T09:38:51Z</time>
      </trkpt>
      <trkpt lat="47.732166" lon="2.21106">
        <ele>187.0</ele>
        <time>2022-01-13T09:38:52Z</time>
      </trkpt>
      <trkpt lat="47.73216" lon="2.2110674">
        <ele>187.0</ele>
        <time>2022-01-13T09:38:53Z</time>
      </trkpt>
      <trkpt lat="47.732147" lon="2.2110727">
        <ele>188.0</ele>
        <time>2022-01-13T09:38:54Z</time>
      </trkpt>
      <trkpt lat="47.73214" lon="2.2110753">
        <ele>187.0</ele>
        <time>2022-01-13T09:38:55Z</time>
      </trkpt>
      <trkpt lat="47.73213" lon="2.2110772">
        <ele>187.0</ele>
        <time>2022-01-13T09:38:56Z</time>
      </trkpt>
      <trkpt lat="47.732113" lon="2.2110784">
        <ele>187.0</ele>
        <time>2022-01-13T09:38:57Z</time>
      </trkpt>
      <trkpt lat="47.732098" lon="2.2110796">
        <ele>187.0</ele>
        <time>2022-01-13T09:38:58Z</time>
      </trkpt>
      <trkpt lat="47.732086" lon="2.2110808">
        <ele>187.0</ele>
        <time>2022-01-13T09:38:59Z</time>
      </trkpt>
      <trkpt lat="47.73208" lon="2.2110853">
        <ele>187.0</ele>
        <time>2022-01-13T09:39:00Z</time>
      </trkpt>
      <trkpt lat="47.732067" lon="2.2110865">
        <ele>187.0</ele>
        <time>2022-01-13T09:39:01Z</time>
      </trkpt>
      <trkpt lat="47.732056" lon="2.2110908">
        <ele>187.0</ele>
        <time>2022-01-13T09:39:02Z</time>
      </trkpt>
      <trkpt lat="47.73204" lon="2.2110991">
        <ele>187.0</ele>
        <time>2022-01-13T09:39:03Z</time>
      </trkpt>
      <trkpt lat="47.732025" lon="2.2111044">
        <ele>187.0</ele>
        <time>2022-01-13T09:39:04Z</time>
      </trkpt>
      <trkpt lat="47.732014" lon="2.211111">
        <ele>187.0</ele>
        <time>2022-01-13T09:39:05Z</time>
      </trkpt>
      <trkpt lat="47.732002" lon="2.2111144">
        <ele>188.0</ele>
        <time>2022-01-13T09:39:06Z</time>
      </trkpt>
      <trkpt lat="47.731995" lon="2.21112">
        <ele>188.0</ele>
        <time>2022-01-13T09:39:07Z</time>
      </trkpt>
      <trkpt lat="47.731987" lon="2.211128">
        <ele>188.0</ele>
        <time>2022-01-13T09:39:08Z</time>
      </trkpt>
      <trkpt lat="47.73198" lon="2.2111323">
        <ele>188.0</ele>
        <time>2022-01-13T09:39:09Z</time>
      </trkpt>
      <trkpt lat="47.731968" lon="2.2111382">
        <ele>188.0</ele>
        <time>2022-01-13T09:39:10Z</time>
      </trkpt>
      <trkpt lat="47.73196" lon="2.2111452">
        <ele>188.0</ele>
        <time>2022-01-13T09:39:11Z</time>
      </trkpt>
      <trkpt lat="47.73195" lon="2.2111475">
        <ele>188.0</ele>
        <time>2022-01-13T09:39:12Z</time>
      </trkpt>
      <trkpt lat="47.731937" lon="2.2111528">
        <ele>187.0</ele>
        <time>2022-01-13T09:39:13Z</time>
      </trkpt>
      <trkpt lat="47.73193" lon="2.2111614">
        <ele>187.0</ele>
        <time>2022-01-13T09:39:14Z</time>
      </trkpt>
      <trkpt lat="47.731922" lon="2.2111657">
        <ele>187.0</ele>
        <time>2022-01-13T09:39:15Z</time>
      </trkpt>
      <trkpt lat="47.731907" lon="2.2111716">
        <ele>187.0</ele>
        <time>2022-01-13T09:39:16Z</time>
      </trkpt>
      <trkpt lat="47.731895" lon="2.2111712">
        <ele>187.0</ele>
        <time>2022-01-13T09:39:17Z</time>
      </trkpt>
      <trkpt lat="47.731884" lon="2.2111757">
        <ele>187.0</ele>
        <time>2022-01-13T09:39:18Z</time>
      </trkpt>
      <trkpt lat="47.73187" lon="2.2111866">
        <ele>188.0</ele>
        <time>2022-01-13T09:39:19Z</time>
      </trkpt>
      <trkpt lat="47.731857" lon="2.2111905">
        <ele>188.0</ele>
        <time>2022-01-13T09:39:20Z</time>
      </trkpt>
      <trkpt lat="47.731846" lon="2.2111967">
        <ele>188.0</ele>
        <time>2022-01-13T09:39:21Z</time>
      </trkpt>
      <trkpt lat="47.73184" lon="2.2112026">
        <ele>188.0</ele>
        <time>2022-01-13T09:39:22Z</time>
      </trkpt>
      <trkpt lat="47.731823" lon="2.2112155">
        <ele>188.0</ele>
        <time>2022-01-13T09:39:23Z</time>
      </trkpt>
      <trkpt lat="47.731808" lon="2.2112238">
        <ele>188.0</ele>
        <time>2022-01-13T09:39:24Z</time>
      </trkpt>
      <trkpt lat="47.731792" lon="2.2112281">
        <ele>188.0</ele>
        <time>2022-01-13T09:39:25Z</time>
      </trkpt>
      <trkpt lat="47.73178" lon="2.2112331">
        <ele>188.0</ele>
        <time>2022-01-13T09:39:26Z</time>
      </trkpt>
      <trkpt lat="47.73177" lon="2.2112362">
        <ele>187.0</ele>
        <time>2022-01-13T09:39:27Z</time>
      </trkpt>
      <trkpt lat="47.731754" lon="2.2112417">
        <ele>187.0</ele>
        <time>2022-01-13T09:39:28Z</time>
      </trkpt>
      <trkpt lat="47.731743" lon="2.2112424">
        <ele>187.0</ele>
        <time>2022-01-13T09:39:29Z</time>
      </trkpt>
      <trkpt lat="47.731728" lon="2.21125">
        <ele>187.0</ele>
        <time>2022-01-13T09:39:30Z</time>
      </trkpt>
      <trkpt lat="47.731716" lon="2.2112565">
        <ele>187.0</ele>
        <time>2022-01-13T09:39:31Z</time>
      </trkpt>
      <trkpt lat="47.73171" lon="2.2112575">
        <ele>187.0</ele>
        <time>2022-01-13T09:39:32Z</time>
      </trkpt>
      <trkpt lat="47.731697" lon="2.211261">
        <ele>186.0</ele>
        <time>2022-01-13T09:39:33Z</time>
      </trkpt>
      <trkpt lat="47.73169" lon="2.2112663">
        <ele>186.0</ele>
        <time>2022-01-13T09:39:34Z</time>
      </trkpt>
      <trkpt lat="47.731678" lon="2.211269">
        <ele>186.0</ele>
        <time>2022-01-13T09:39:35Z</time>
      </trkpt>
      <trkpt lat="47.731667" lon="2.2112734">
        <ele>185.0</ele>
        <time>2022-01-13T09:39:36Z</time>
      </trkpt>
      <trkpt lat="47.73166" lon="2.2112832">
        <ele>186.0</ele>
        <time>2022-01-13T09:39:37Z</time>
      </trkpt>
      <trkpt lat="47.731647" lon="2.2112877">
        <ele>186.0</ele>
        <time>2022-01-13T09:39:38Z</time>
      </trkpt>
      <trkpt lat="47.731636" lon="2.2112927">
        <ele>186.0</ele>
        <time>2022-01-13T09:39:39Z</time>
      </trkpt>
      <trkpt lat="47.731625" lon="2.2112963">
        <ele>186.0</ele>
        <time>2022-01-13T09:39:40Z</time>
      </trkpt>
      <trkpt lat="47.731613" lon="2.2112992">
        <ele>185.0</ele>
        <time>2022-01-13T09:39:41Z</time>
      </trkpt>
      <trkpt lat="47.7316" lon="2.2113037">
        <ele>185.0</ele>
        <time>2022-01-13T09:39:42Z</time>
      </trkpt>
      <trkpt lat="47.731594" lon="2.2113097">
        <ele>185.0</ele>
        <time>2022-01-13T09:39:43Z</time>
      </trkpt>
      <trkpt lat="47.73158" lon="2.2113156">
        <ele>185.0</ele>
        <time>2022-01-13T09:39:44Z</time>
      </trkpt>
      <trkpt lat="47.731567" lon="2.2113159">
        <ele>185.0</ele>
        <time>2022-01-13T09:39:45Z</time>
      </trkpt>
      <trkpt lat="47.73156" lon="2.2113156">
        <ele>184.0</ele>
        <time>2022-01-13T09:39:46Z</time>
      </trkpt>
      <trkpt lat="47.73155" lon="2.21132">
        <ele>185.0</ele>
        <time>2022-01-13T09:39:47Z</time>
      </trkpt>
      <trkpt lat="47.731533" lon="2.211328">
        <ele>185.0</ele>
        <time>2022-01-13T09:39:48Z</time>
      </trkpt>
      <trkpt lat="47.73152" lon="2.2113333">
        <ele>185.0</ele>
        <time>2022-01-13T09:39:49Z</time>
      </trkpt>
      <trkpt lat="47.731506" lon="2.2113395">
        <ele>185.0</ele>
        <time>2022-01-13T09:39:50Z</time>
      </trkpt>
      <trkpt lat="47.73149" lon="2.2113502">
        <ele>185.0</ele>
        <time>2022-01-13T09:39:51Z</time>
      </trkpt>
      <trkpt lat="47.73148" lon="2.211353">
        <ele>185.0</ele>
        <time>2022-01-13T09:39:52Z</time>
      </trkpt>
      <trkpt lat="47.73147" lon="2.2113545">
        <ele>185.0</ele>
        <time>2022-01-13T09:39:53Z</time>
      </trkpt>
      <trkpt lat="47.73146" lon="2.211358">
        <ele>184.0</ele>
        <time>2022-01-13T09:39:54Z</time>
      </trkpt>
      <trkpt lat="47.73145" lon="2.2113638">
        <ele>184.0</ele>
        <time>2022-01-13T09:39:55Z</time>
      </trkpt>
      <trkpt lat="47.73144" lon="2.2113726">
        <ele>184.0</ele>
        <time>2022-01-13T09:39:56Z</time>
      </trkpt>
      <trkpt lat="47.731426" lon="2.211374">
        <ele>184.0</ele>
        <time>2022-01-13T09:39:57Z</time>
      </trkpt>
      <trkpt lat="47.73142" lon="2.2113755">
        <ele>184.0</ele>
        <time>2022-01-13T09:39:58Z</time>
      </trkpt>
      <trkpt lat="47.731407" lon="2.2113757">
        <ele>184.0</ele>
        <time>2022-01-13T09:39:59Z</time>
      </trkpt>
      <trkpt lat="47.731396" lon="2.2113798">
        <ele>184.0</ele>
        <time>2022-01-13T09:40:00Z</time>
      </trkpt>
      <trkpt lat="47.731384" lon="2.2113855">
        <ele>184.0</ele>
        <time>2022-01-13T09:40:01Z</time>
      </trkpt>
      <trkpt lat="47.73137" lon="2.2113903">
        <ele>184.0</ele>
        <time>2022-01-13T09:40:02Z</time>
      </trkpt>
      <trkpt lat="47.731358" lon="2.211393">
        <ele>184.0</ele>
        <time>2022-01-13T09:40:03Z</time>
      </trkpt>
      <trkpt lat="47.731346" lon="2.211393">
        <ele>184.0</ele>
        <time>2022-01-13T09:40:04Z</time>
      </trkpt>
      <trkpt lat="47.731335" lon="2.2113974">
        <ele>184.0</ele>
        <time>2022-01-13T09:40:05Z</time>
      </trkpt>
      <trkpt lat="47.731316" lon="2.2114005">
        <ele>184.0</ele>
        <time>2022-01-13T09:40:06Z</time>
      </trkpt>
      <trkpt lat="47.731304" lon="2.211406">
        <ele>184.0</ele>
        <time>2022-01-13T09:40:07Z</time>
      </trkpt>
      <trkpt lat="47.731297" lon="2.2114093">
        <ele>184.0</ele>
        <time>2022-01-13T09:40:08Z</time>
      </trkpt>
      <trkpt lat="47.73128" lon="2.2114108">
        <ele>184.0</ele>
        <time>2022-01-13T09:40:09Z</time>
      </trkpt>
      <trkpt lat="47.73127" lon="2.211409">
        <ele>184.0</ele>
        <time>2022-01-13T09:40:10Z</time>
      </trkpt>
      <trkpt lat="47.73126" lon="2.2114074">
        <ele>184.0</ele>
        <time>2022-01-13T09:40:11Z</time>
      </trkpt>
      <trkpt lat="47.731247" lon="2.2114031">
        <ele>183.0</ele>
        <time>2022-01-13T09:40:12Z</time>
      </trkpt>
      <trkpt lat="47.73123" lon="2.211401">
        <ele>183.0</ele>
        <time>2022-01-13T09:40:13Z</time>
      </trkpt>
      <trkpt lat="47.73122" lon="2.2114015">
        <ele>183.0</ele>
        <time>2022-01-13T09:40:14Z</time>
      </trkpt>
      <trkpt lat="47.73121" lon="2.2114007">
        <ele>183.0</ele>
        <time>2022-01-13T09:40:15Z</time>
      </trkpt>
      <trkpt lat="47.731197" lon="2.2114015">
        <ele>183.0</ele>
        <time>2022-01-13T09:40:16Z</time>
      </trkpt>
      <trkpt lat="47.731182" lon="2.2113998">
        <ele>182.0</ele>
        <time>2022-01-13T09:40:17Z</time>
      </trkpt>
      <trkpt lat="47.73117" lon="2.2113962">
        <ele>182.0</ele>
        <time>2022-01-13T09:40:18Z</time>
      </trkpt>
      <trkpt lat="47.73116" lon="2.2113962">
        <ele>182.0</ele>
        <time>2022-01-13T09:40:19Z</time>
      </trkpt>
      <trkpt lat="47.731148" lon="2.2113934">
        <ele>181.0</ele>
        <time>2022-01-13T09:40:20Z</time>
      </trkpt>
      <trkpt lat="47.731133" lon="2.2113929">
        <ele>181.0</ele>
        <time>2022-01-13T09:40:21Z</time>
      </trkpt>
      <trkpt lat="47.73112" lon="2.211389">
        <ele>181.0</ele>
        <time>2022-01-13T09:40:22Z</time>
      </trkpt>
      <trkpt lat="47.731113" lon="2.2113883">
        <ele>181.0</ele>
        <time>2022-01-13T09:40:23Z</time>
      </trkpt>
      <trkpt lat="47.731106" lon="2.2113895">
        <ele>180.0</ele>
        <time>2022-01-13T09:40:24Z</time>
      </trkpt>
      <trkpt lat="47.731094" lon="2.2113929">
        <ele>179.0</ele>
        <time>2022-01-13T09:40:25Z</time>
      </trkpt>
      <trkpt lat="47.731083" lon="2.2113903">
        <ele>179.0</ele>
        <time>2022-01-13T09:40:26Z</time>
      </trkpt>
      <trkpt lat="47.73107" lon="2.2113805">
        <ele>178.0</ele>
        <time>2022-01-13T09:40:27Z</time>
      </trkpt>
      <trkpt lat="47.731064" lon="2.2113807">
        <ele>178.0</ele>
        <time>2022-01-13T09:40:28Z</time>
      </trkpt>
      <trkpt lat="47.731052" lon="2.2113814">
        <ele>178.0</ele>
        <time>2022-01-13T09:40:29Z</time>
      </trkpt>
      <trkpt lat="47.73104" lon="2.2113798">
        <ele>178.0</ele>
        <time>2022-01-13T09:40:30Z</time>
      </trkpt>
      <trkpt lat="47.73103" lon="2.2113817">
        <ele>178.0</ele>
        <time>2022-01-13T09:40:31Z</time>
      </trkpt>
      <trkpt lat="47.73102" lon="2.2113843">
        <ele>178.0</ele>
        <time>2022-01-13T09:40:32Z</time>
      </trkpt>
      <trkpt lat="47.73101" lon="2.2113867">
        <ele>178.0</ele>
        <time>2022-01-13T09:40:33Z</time>
      </trkpt>
      <trkpt lat="47.731" lon="2.2113893">
        <ele>178.0</ele>
        <time>2022-01-13T09:40:34Z</time>
      </trkpt>
      <trkpt lat="47.730988" lon="2.2113955">
        <ele>178.0</ele>
        <time>2022-01-13T09:40:35Z</time>
      </trkpt>
      <trkpt lat="47.730976" lon="2.2113967">
        <ele>178.0</ele>
        <time>2022-01-13T09:40:36Z</time>
      </trkpt>
      <trkpt lat="47.730965" lon="2.2114007">
        <ele>178.0</ele>
        <time>2022-01-13T09:40:37Z</time>
      </trkpt>
      <trkpt lat="47.730957" lon="2.2114065">
        <ele>177.0</ele>
        <time>2022-01-13T09:40:38Z</time>
      </trkpt>
      <trkpt lat="47.730946" lon="2.2114067">
        <ele>176.0</ele>
        <time>2022-01-13T09:40:39Z</time>
      </trkpt>
      <trkpt lat="47.730934" lon="2.2114034">
        <ele>176.0</ele>
        <time>2022-01-13T09:40:40Z</time>
      </trkpt>
      <trkpt lat="47.730923" lon="2.2113981">
        <ele>176.0</ele>
        <time>2022-01-13T09:40:41Z</time>
      </trkpt>
      <trkpt lat="47.73091" lon="2.2113972">
        <ele>175.0</ele>
        <time>2022-01-13T09:40:42Z</time>
      </trkpt>
      <trkpt lat="47.730896" lon="2.2113936">
        <ele>175.0</ele>
        <time>2022-01-13T09:40:43Z</time>
      </trkpt>
      <trkpt lat="47.73088" lon="2.2113929">
        <ele>175.0</ele>
        <time>2022-01-13T09:40:44Z</time>
      </trkpt>
      <trkpt lat="47.73087" lon="2.211391">
        <ele>174.0</ele>
        <time>2022-01-13T09:40:45Z</time>
      </trkpt>
      <trkpt lat="47.730858" lon="2.2113924">
        <ele>174.0</ele>
        <time>2022-01-13T09:40:46Z</time>
      </trkpt>
      <trkpt lat="47.730843" lon="2.211391">
        <ele>174.0</ele>
        <time>2022-01-13T09:40:47Z</time>
      </trkpt>
      <trkpt lat="47.730827" lon="2.2113895">
        <ele>174.0</ele>
        <time>2022-01-13T09:40:48Z</time>
      </trkpt>
      <trkpt lat="47.730812" lon="2.211387">
        <ele>174.0</ele>
        <time>2022-01-13T09:40:49Z</time>
      </trkpt>
      <trkpt lat="47.7308" lon="2.211387">
        <ele>174.0</ele>
        <time>2022-01-13T09:40:50Z</time>
      </trkpt>
      <trkpt lat="47.73079" lon="2.2113843">
        <ele>174.0</ele>
        <time>2022-01-13T09:40:51Z</time>
      </trkpt>
      <trkpt lat="47.730778" lon="2.2113795">
        <ele>173.0</ele>
        <time>2022-01-13T09:40:52Z</time>
      </trkpt>
      <trkpt lat="47.730766" lon="2.2113767">
        <ele>173.0</ele>
        <time>2022-01-13T09:40:53Z</time>
      </trkpt>
      <trkpt lat="47.730755" lon="2.2113714">
        <ele>173.0</ele>
        <time>2022-01-13T09:40:54Z</time>
      </trkpt>
      <trkpt lat="47.730747" lon="2.2113693">
        <ele>172.0</ele>
        <time>2022-01-13T09:40:55Z</time>
      </trkpt>
      <trkpt lat="47.730736" lon="2.211369">
        <ele>172.0</ele>
        <time>2022-01-13T09:40:56Z</time>
      </trkpt>
      <trkpt lat="47.730724" lon="2.211368">
        <ele>171.0</ele>
        <time>2022-01-13T09:40:57Z</time>
      </trkpt>
      <trkpt lat="47.730713" lon="2.2113729">
        <ele>171.0</ele>
        <time>2022-01-13T09:40:58Z</time>
      </trkpt>
      <trkpt lat="47.7307" lon="2.2113724">
        <ele>171.0</ele>
        <time>2022-01-13T09:40:59Z</time>
      </trkpt>
      <trkpt lat="47.730694" lon="2.2113743">
        <ele>170.0</ele>
        <time>2022-01-13T09:41:00Z</time>
      </trkpt>
      <trkpt lat="47.730682" lon="2.2113776">
        <ele>170.0</ele>
        <time>2022-01-13T09:41:01Z</time>
      </trkpt>
      <trkpt lat="47.730667" lon="2.2113774">
        <ele>170.0</ele>
        <time>2022-01-13T09:41:02Z</time>
      </trkpt>
      <trkpt lat="47.73066" lon="2.21138">
        <ele>170.0</ele>
        <time>2022-01-13T09:41:03Z</time>
      </trkpt>
      <trkpt lat="47.730648" lon="2.2113788">
        <ele>170.0</ele>
        <time>2022-01-13T09:41:04Z</time>
      </trkpt>
      <trkpt lat="47.730633" lon="2.2113848">
        <ele>170.0</ele>
        <time>2022-01-13T09:41:05Z</time>
      </trkpt>
      <trkpt lat="47.73062" lon="2.2113824">
        <ele>170.0</ele>
        <time>2022-01-13T09:41:06Z</time>
      </trkpt>
      <trkpt lat="47.730606" lon="2.211388">
        <ele>169.0</ele>
        <time>2022-01-13T09:41:07Z</time>
      </trkpt>
      <trkpt lat="47.730595" lon="2.2113914">
        <ele>170.0</ele>
        <time>2022-01-13T09:41:08Z</time>
      </trkpt>
      <trkpt lat="47.730576" lon="2.2113926">
        <ele>169.0</ele>
        <time>2022-01-13T09:41:09Z</time>
      </trkpt>
      <trkpt lat="47.73056" lon="2.2113929">
        <ele>169.0</ele>
        <time>2022-01-13T09:41:10Z</time>
      </trkpt>
      <trkpt lat="47.73055" lon="2.2113934">
        <ele>169.0</ele>
        <time>2022-01-13T09:41:11Z</time>
      </trkpt>
      <trkpt lat="47.730537" lon="2.2113914">
        <ele>169.0</ele>
        <time>2022-01-13T09:41:12Z</time>
      </trkpt>
      <trkpt lat="47.730526" lon="2.211388">
        <ele>169.0</ele>
        <time>2022-01-13T09:41:13Z</time>
      </trkpt>
      <trkpt lat="47.730515" lon="2.2113912">
        <ele>169.0</ele>
        <time>2022-01-13T09:41:14Z</time>
      </trkpt>
      <trkpt lat="47.730507" lon="2.211397">
        <ele>169.0</ele>
        <time>2022-01-13T09:41:15Z</time>
      </trkpt>
      <trkpt lat="47.730503" lon="2.2114012">
        <ele>169.0</ele>
        <time>2022-01-13T09:41:16Z</time>
      </trkpt>
      <trkpt lat="47.730503" lon="2.211407">
        <ele>169.0</ele>
        <time>2022-01-13T09:41:17Z</time>
      </trkpt>
      <trkpt lat="47.730503" lon="2.2114112">
        <ele>170.0</ele>
        <time>2022-01-13T09:41:18Z</time>
      </trkpt>
      <trkpt lat="47.7305" lon="2.2114189">
        <ele>170.0</ele>
        <time>2022-01-13T09:41:19Z</time>
      </trkpt>
      <trkpt lat="47.7305" lon="2.2114189">
        <ele>170.0</ele>
        <time>2022-01-13T09:41:19Z</time>
      </trkpt>
    </trkseg>
    <trkseg>
      <trkpt lat="47.730423" lon="2.2114458">
        <ele>174.0</ele>
        <time>2022-01-13T09:42:54Z</time>
      </trkpt>
      <trkpt lat="47.73042" lon="2.211452">
        <ele>175.0</ele>
        <time>2022-01-13T09:42:55Z</time>
      </trkpt>
      <trkpt lat="47.730415" lon="2.2114532">
        <ele>175.0</ele>
        <time>2022-01-13T09:42:56Z</time>
      </trkpt>
      <trkpt lat="47.730415" lon="2.2114527">
        <ele>175.0</ele>
        <time>2022-01-13T09:42:57Z</time>
      </trkpt>
      <trkpt lat="47.73041" lon="2.2114534">
        <ele>175.0</ele>
        <time>2022-01-13T09:42:58Z</time>
      </trkpt>
      <trkpt lat="47.73041" lon="2.2114534">
        <ele>175.0</ele>
        <time>2022-01-13T09:42:59Z</time>
      </trkpt>
      <trkpt lat="47.73041" lon="2.2114534">
        <ele>175.0</ele>
        <time>2022-01-13T09:43:00Z</time>
      </trkpt>
      <trkpt lat="47.73041" lon="2.2114534">
        <ele>175.0</ele>
        <time>2022-01-13T09:43:01Z</time>
      </trkpt>
      <trkpt lat="47.730404" lon="2.2114596">
        <ele>176.0</ele>
        <time>2022-01-13T09:43:02Z</time>
      </trkpt>
      <trkpt lat="47.730396" lon="2.2114708">
        <ele>176.0</ele>
        <time>2022-01-13T09:43:03Z</time>
      </trkpt>
      <trkpt lat="47.730392" lon="2.2114806">
        <ele>175.0</ele>
        <time>2022-01-13T09:43:04Z</time>
      </trkpt>
      <trkpt lat="47.73039" lon="2.2114866">
        <ele>175.0</ele>
        <time>2022-01-13T09:43:05Z</time>
      </trkpt>
      <trkpt lat="47.730385" lon="2.2114892">
        <ele>175.0</ele>
        <time>2022-01-13T09:43:06Z</time>
      </trkpt>
      <trkpt lat="47.730385" lon="2.2114892">
        <ele>175.0</ele>
        <time>2022-01-13T09:43:07Z</time>
      </trkpt>
      <trkpt lat="47.730385" lon="2.2114892">
        <ele>175.0</ele>
        <time>2022-01-13T09:43:08Z</time>
      </trkpt>
      <trkpt lat="47.730385" lon="2.2114892">
        <ele>175.0</ele>
        <time>2022-01-13T09:43:09Z</time>
      </trkpt>
      <trkpt lat="47.73038" lon="2.21151">
        <ele>176.0</ele>
        <time>2022-01-13T09:43:10Z</time>
      </trkpt>
      <trkpt lat="47.73038" lon="2.21152">
        <ele>176.0</ele>
        <time>2022-01-13T09:43:11Z</time>
      </trkpt>
      <trkpt lat="47.730377" lon="2.2115278">
        <ele>176.0</ele>
        <time>2022-01-13T09:43:12Z</time>
      </trkpt>
      <trkpt lat="47.730377" lon="2.2115414">
        <ele>177.0</ele>
        <time>2022-01-13T09:43:13Z</time>
      </trkpt>
      <trkpt lat="47.730377" lon="2.2115562">
        <ele>177.0</ele>
        <time>2022-01-13T09:43:14Z</time>
      </trkpt>
      <trkpt lat="47.730377" lon="2.211575">
        <ele>177.0</ele>
        <time>2022-01-13T09:43:15Z</time>
      </trkpt>
      <trkpt lat="47.730377" lon="2.211594">
        <ele>177.0</ele>
        <time>2022-01-13T09:43:16Z</time>
      </trkpt>
      <trkpt lat="47.730377" lon="2.211612">
        <ele>177.0</ele>
        <time>2022-01-13T09:43:17Z</time>
      </trkpt>
      <trkpt lat="47.730377" lon="2.2116218">
        <ele>177.0</ele>
        <time>2022-01-13T09:43:18Z</time>
      </trkpt>
      <trkpt lat="47.730377" lon="2.211632">
        <ele>177.0</ele>
        <time>2022-01-13T09:43:19Z</time>
      </trkpt>
      <trkpt lat="47.730373" lon="2.2116463">
        <ele>178.0</ele>
        <time>2022-01-13T09:43:20Z</time>
      </trkpt>
      <trkpt lat="47.730373" lon="2.2116573">
        <ele>178.0</ele>
        <time>2022-01-13T09:43:21Z</time>
      </trkpt>
      <trkpt lat="47.730373" lon="2.2116666">
        <ele>178.0</ele>
        <time>2022-01-13T09:43:22Z</time>
      </trkpt>
      <trkpt lat="47.730377" lon="2.2116795">
        <ele>179.0</ele>
        <time>2022-01-13T09:43:23Z</time>
      </trkpt>
      <trkpt lat="47.730377" lon="2.211692">
        <ele>179.0</ele>
        <time>2022-01-13T09:43:24Z</time>
      </trkpt>
      <trkpt lat="47.730377" lon="2.2117038">
        <ele>179.0</ele>
        <time>2022-01-13T09:43:25Z</time>
      </trkpt>
      <trkpt lat="47.730377" lon="2.2117183">
        <ele>179.0</ele>
        <time>2022-01-13T09:43:26Z</time>
      </trkpt>
      <trkpt lat="47.730377" lon="2.2117376">
        <ele>178.0</ele>
        <time>2022-01-13T09:43:27Z</time>
      </trkpt>
      <trkpt lat="47.730377" lon="2.2117553">
        <ele>179.0</ele>
        <time>2022-01-13T09:43:28Z</time>
      </trkpt>
      <trkpt lat="47.73038" lon="2.2117677">
        <ele>179.0</ele>
        <time>2022-01-13T09:43:29Z</time>
      </trkpt>
      <trkpt lat="47.730385" lon="2.2117767">
        <ele>179.0</ele>
        <time>2022-01-13T09:43:30Z</time>
      </trkpt>
      <trkpt lat="47.730385" lon="2.211788">
        <ele>179.0</ele>
        <time>2022-01-13T09:43:31Z</time>
      </trkpt>
      <trkpt lat="47.730385" lon="2.211788">
        <ele>179.0</ele>
        <time>2022-01-13T09:43:32Z</time>
      </trkpt>
      <trkpt lat="47.73039" lon="2.211814">
        <ele>179.0</ele>
        <time>2022-01-13T09:43:33Z</time>
      </trkpt>
      <trkpt lat="47.730392" lon="2.211831">
        <ele>180.0</ele>
        <time>2022-01-13T09:43:34Z</time>
      </trkpt>
      <trkpt lat="47.730396" lon="2.2118456">
        <ele>180.0</ele>
        <time>2022-01-13T09:43:35Z</time>
      </trkpt>
      <trkpt lat="47.7304" lon="2.2118576">
        <ele>179.0</ele>
        <time>2022-01-13T09:43:36Z</time>
      </trkpt>
      <trkpt lat="47.730404" lon="2.2118707">
        <ele>180.0</ele>
        <time>2022-01-13T09:43:37Z</time>
      </trkpt>
      <trkpt lat="47.730408" lon="2.2118888">
        <ele>180.0</ele>
        <time>2022-01-13T09:43:38Z</time>
      </trkpt>
      <trkpt lat="47.73041" lon="2.2119107">
        <ele>180.0</ele>
        <time>2022-01-13T09:43:39Z</time>
      </trkpt>
      <trkpt lat="47.730415" lon="2.2119262">
        <ele>180.0</ele>
        <time>2022-01-13T09:43:40Z</time>
      </trkpt>
      <trkpt lat="47.730415" lon="2.2119458">
        <ele>180.0</ele>
        <time>2022-01-13T09:43:41Z</time>
      </trkpt>
      <trkpt lat="47.730415" lon="2.2119613">
        <ele>180.0</ele>
        <time>2022-01-13T09:43:42Z</time>
      </trkpt>
      <trkpt lat="47.730415" lon="2.2119744">
        <ele>180.0</ele>
        <time>2022-01-13T09:43:43Z</time>
      </trkpt>
      <trkpt lat="47.730415" lon="2.211972">
        <ele>180.0</ele>
        <time>2022-01-13T09:43:44Z</time>
      </trkpt>
      <trkpt lat="47.730415" lon="2.211981">
        <ele>180.0</ele>
        <time>2022-01-13T09:43:45Z</time>
      </trkpt>
      <trkpt lat="47.73042" lon="2.2119884">
        <ele>180.0</ele>
        <time>2022-01-13T09:43:46Z</time>
      </trkpt>
      <trkpt lat="47.730423" lon="2.2120028">
        <ele>180.0</ele>
        <time>2022-01-13T09:43:47Z</time>
      </trkpt>
      <trkpt lat="47.730423" lon="2.2120144">
        <ele>180.0</ele>
        <time>2022-01-13T09:43:48Z</time>
      </trkpt>
      <trkpt lat="47.730423" lon="2.2120278">
        <ele>180.0</ele>
        <time>2022-01-13T09:43:49Z</time>
      </trkpt>
      <trkpt lat="47.730427" lon="2.21205">
        <ele>180.0</ele>
        <time>2022-01-13T09:43:50Z</time>
      </trkpt>
      <trkpt lat="47.73043" lon="2.2120686">
        <ele>180.0</ele>
        <time>2022-01-13T09:43:51Z</time>
      </trkpt>
      <trkpt lat="47.73043" lon="2.2120879">
        <ele>180.0</ele>
        <time>2022-01-13T09:43:52Z</time>
      </trkpt>
      <trkpt lat="47.730434" lon="2.2121055">
        <ele>180.0</ele>
        <time>2022-01-13T09:43:53Z</time>
      </trkpt>
      <trkpt lat="47.73044" lon="2.2121272">
        <ele>180.0</ele>
        <time>2022-01-13T09:43:54Z</time>
      </trkpt>
      <trkpt lat="47.730442" lon="2.2121437">
        <ele>179.0</ele>
        <time>2022-01-13T09:43:55Z</time>
      </trkpt>
      <trkpt lat="47.730442" lon="2.212159">
        <ele>179.0</ele>
        <time>2022-01-13T09:43:56Z</time>
      </trkpt>
      <trkpt lat="47.73045" lon="2.2121775">
        <ele>179.0</ele>
        <time>2022-01-13T09:43:57Z</time>
      </trkpt>
      <trkpt lat="47.73045" lon="2.2122">
        <ele>179.0</ele>
        <time>2022-01-13T09:43:58Z</time>
      </trkpt>
      <trkpt lat="47.730453" lon="2.2122242">
        <ele>179.0</ele>
        <time>2022-01-13T09:43:59Z</time>
      </trkpt>
      <trkpt lat="47.730457" lon="2.2122412">
        <ele>180.0</ele>
        <time>2022-01-13T09:44:00Z</time>
      </trkpt>
      <trkpt lat="47.730465" lon="2.2122502">
        <ele>180.0</ele>
        <time>2022-01-13T09:44:01Z</time>
      </trkpt>
      <trkpt lat="47.73047" lon="2.2122562">
        <ele>180.0</ele>
        <time>2022-01-13T09:44:02Z</time>
      </trkpt>
      <trkpt lat="47.730473" lon="2.212265">
        <ele>179.0</ele>
        <time>2022-01-13T09:44:03Z</time>
      </trkpt>
      <trkpt lat="47.730473" lon="2.2122838">
        <ele>179.0</ele>
        <time>2022-01-13T09:44:04Z</time>
      </trkpt>
      <trkpt lat="47.730473" lon="2.2123034">
        <ele>179.0</ele>
        <time>2022-01-13T09:44:05Z</time>
      </trkpt>
      <trkpt lat="47.730473" lon="2.2123117">
        <ele>179.0</ele>
        <time>2022-01-13T09:44:06Z</time>
      </trkpt>
      <trkpt lat="47.730476" lon="2.21232">
        <ele>180.0</ele>
        <time>2022-01-13T09:44:07Z</time>
      </trkpt>
      <trkpt lat="47.730476" lon="2.2123318">
        <ele>180.0</ele>
        <time>2022-01-13T09:44:08Z</time>
      </trkpt>
      <trkpt lat="47.730484" lon="2.212355">
        <ele>179.0</ele>
        <time>2022-01-13T09:44:09Z</time>
      </trkpt>
      <trkpt lat="47.73048" lon="2.2123723">
        <ele>178.0</ele>
        <time>2022-01-13T09:44:10Z</time>
      </trkpt>
      <trkpt lat="47.730484" lon="2.2123876">
        <ele>178.0</ele>
        <time>2022-01-13T09:44:11Z</time>
      </trkpt>
      <trkpt lat="47.73048" lon="2.2124038">
        <ele>178.0</ele>
        <time>2022-01-13T09:44:12Z</time>
      </trkpt>
      <trkpt lat="47.73048" lon="2.2124252">
        <ele>177.0</ele>
        <time>2022-01-13T09:44:13Z</time>
      </trkpt>
      <trkpt lat="47.73048" lon="2.2124388">
        <ele>177.0</ele>
        <time>2022-01-13T09:44:14Z</time>
      </trkpt>
      <trkpt lat="47.73048" lon="2.2124524">
        <ele>178.0</ele>
        <time>2022-01-13T09:44:15Z</time>
      </trkpt>
      <trkpt lat="47.73048" lon="2.2124736">
        <ele>178.0</ele>
        <time>2022-01-13T09:44:16Z</time>
      </trkpt>
      <trkpt lat="47.73048" lon="2.212493">
        <ele>177.0</ele>
        <time>2022-01-13T09:44:17Z</time>
      </trkpt>
      <trkpt lat="47.730484" lon="2.2125123">
        <ele>177.0</ele>
        <time>2022-01-13T09:44:18Z</time>
      </trkpt>
      <trkpt lat="47.73048" lon="2.2125328">
        <ele>177.0</ele>
        <time>2022-01-13T09:44:19Z</time>
      </trkpt>
      <trkpt lat="47.730476" lon="2.2125485">
        <ele>177.0</ele>
        <time>2022-01-13T09:44:20Z</time>
      </trkpt>
      <trkpt lat="47.730473" lon="2.2125683">
        <ele>177.0</ele>
        <time>2022-01-13T09:44:21Z</time>
      </trkpt>
      <trkpt lat="47.73047" lon="2.212588">
        <ele>177.0</ele>
        <time>2022-01-13T09:44:22Z</time>
      </trkpt>
      <trkpt lat="47.730465" lon="2.2126012">
        <ele>176.0</ele>
        <time>2022-01-13T09:44:23Z</time>
      </trkpt>
      <trkpt lat="47.730453" lon="2.212613">
        <ele>176.0</ele>
        <time>2022-01-13T09:44:24Z</time>
      </trkpt>
      <trkpt lat="47.730442" lon="2.2126276">
        <ele>176.0</ele>
        <time>2022-01-13T09:44:25Z</time>
      </trkpt>
      <trkpt lat="47.730434" lon="2.2126389">
        <ele>176.0</ele>
        <time>2022-01-13T09:44:26Z</time>
      </trkpt>
      <trkpt lat="47.73043" lon="2.2126508">
        <ele>176.0</ele>
        <time>2022-01-13T09:44:27Z</time>
      </trkpt>
      <trkpt lat="47.730423" lon="2.212663">
        <ele>175.0</ele>
        <time>2022-01-13T09:44:28Z</time>
      </trkpt>
      <trkpt lat="47.730415" lon="2.2126758">
        <ele>176.0</ele>
        <time>2022-01-13T09:44:29Z</time>
      </trkpt>
      <trkpt lat="47.730408" lon="2.212685">
        <ele>175.0</ele>
        <time>2022-01-13T09:44:30Z</time>
      </trkpt>
      <trkpt lat="47.730396" lon="2.2126973">
        <ele>175.0</ele>
        <time>2022-01-13T09:44:31Z</time>
      </trkpt>
      <trkpt lat="47.730392" lon="2.2127087">
        <ele>175.0</ele>
        <time>2022-01-13T09:44:32Z</time>
      </trkpt>
      <trkpt lat="47.730385" lon="2.212722">
        <ele>176.0</ele>
        <time>2022-01-13T09:44:33Z</time>
      </trkpt>
      <trkpt lat="47.730385" lon="2.2127366">
        <ele>176.0</ele>
        <time>2022-01-13T09:44:34Z</time>
      </trkpt>
      <trkpt lat="47.730377" lon="2.2127447">
        <ele>176.0</ele>
        <time>2022-01-13T09:44:35Z</time>
      </trkpt>
      <trkpt lat="47.73037" lon="2.2127516">
        <ele>177.0</ele>
        <time>2022-01-13T09:44:36Z</time>
      </trkpt>
      <trkpt lat="47.73036" lon="2.2127569">
        <ele>176.0</ele>
        <time>2022-01-13T09:44:37Z</time>
      </trkpt>
      <trkpt lat="47.730347" lon="2.212761">
        <ele>176.0</ele>
        <time>2022-01-13T09:44:38Z</time>
      </trkpt>
      <trkpt lat="47.730335" lon="2.212764">
        <ele>176.0</ele>
        <time>2022-01-13T09:44:39Z</time>
      </trkpt>
      <trkpt lat="47.730328" lon="2.2127674">
        <ele>176.0</ele>
        <time>2022-01-13T09:44:40Z</time>
      </trkpt>
      <trkpt lat="47.73032" lon="2.212769">
        <ele>176.0</ele>
        <time>2022-01-13T09:44:41Z</time>
      </trkpt>
      <trkpt lat="47.73031" lon="2.2127743">
        <ele>176.0</ele>
        <time>2022-01-13T09:44:42Z</time>
      </trkpt>
      <trkpt lat="47.730297" lon="2.2127786">
        <ele>175.0</ele>
        <time>2022-01-13T09:44:43Z</time>
      </trkpt>
      <trkpt lat="47.730286" lon="2.2127867">
        <ele>175.0</ele>
        <time>2022-01-13T09:44:44Z</time>
      </trkpt>
      <trkpt lat="47.730274" lon="2.2127993">
        <ele>175.0</ele>
        <time>2022-01-13T09:44:45Z</time>
      </trkpt>
      <trkpt lat="47.730263" lon="2.2128093">
        <ele>175.0</ele>
        <time>2022-01-13T09:44:46Z</time>
      </trkpt>
      <trkpt lat="47.73025" lon="2.2128208">
        <ele>174.0</ele>
        <time>2022-01-13T09:44:47Z</time>
      </trkpt>
      <trkpt lat="47.730244" lon="2.2128322">
        <ele>174.0</ele>
        <time>2022-01-13T09:44:48Z</time>
      </trkpt>
      <trkpt lat="47.730232" lon="2.2128367">
        <ele>174.0</ele>
        <time>2022-01-13T09:44:49Z</time>
      </trkpt>
      <trkpt lat="47.730225" lon="2.2128417">
        <ele>174.0</ele>
        <time>2022-01-13T09:44:50Z</time>
      </trkpt>
      <trkpt lat="47.730217" lon="2.212849">
        <ele>175.0</ele>
        <time>2022-01-13T09:44:51Z</time>
      </trkpt>
      <trkpt lat="47.73021" lon="2.2128534">
        <ele>175.0</ele>
        <time>2022-01-13T09:44:52Z</time>
      </trkpt>
      <trkpt lat="47.730198" lon="2.2128625">
        <ele>174.0</ele>
        <time>2022-01-13T09:44:53Z</time>
      </trkpt>
      <trkpt lat="47.730194" lon="2.2128723">
        <ele>174.0</ele>
        <time>2022-01-13T09:44:54Z</time>
      </trkpt>
      <trkpt lat="47.730186" lon="2.2128797">
        <ele>175.0</ele>
        <time>2022-01-13T09:44:55Z</time>
      </trkpt>
      <trkpt lat="47.73018" lon="2.21289">
        <ele>174.0</ele>
        <time>2022-01-13T09:44:56Z</time>
      </trkpt>
      <trkpt lat="47.730167" lon="2.2128954">
        <ele>174.0</ele>
        <time>2022-01-13T09:44:57Z</time>
      </trkpt>
      <trkpt lat="47.730152" lon="2.2129033">
        <ele>174.0</ele>
        <time>2022-01-13T09:44:58Z</time>
      </trkpt>
      <trkpt lat="47.730145" lon="2.2129133">
        <ele>174.0</ele>
        <time>2022-01-13T09:44:59Z</time>
      </trkpt>
      <trkpt lat="47.730133" lon="2.2129173">
        <ele>174.0</ele>
        <time>2022-01-13T09:45:00Z</time>
      </trkpt>
      <trkpt lat="47.730118" lon="2.2129269">
        <ele>174.0</ele>
        <time>2022-01-13T09:45:01Z</time>
      </trkpt>
      <trkpt lat="47.730103" lon="2.2129378">
        <ele>174.0</ele>
        <time>2022-01-13T09:45:02Z</time>
      </trkpt>
      <trkpt lat="47.730095" lon="2.212949">
        <ele>173.0</ele>
        <time>2022-01-13T09:45:03Z</time>
      </trkpt>
      <trkpt lat="47.730087" lon="2.2129607">
        <ele>173.0</ele>
        <time>2022-01-13T09:45:04Z</time>
      </trkpt>
      <trkpt lat="47.730076" lon="2.2129693">
        <ele>173.0</ele>
        <time>2022-01-13T09:45:05Z</time>
      </trkpt>
      <trkpt lat="47.73007" lon="2.2129793">
        <ele>172.0</ele>
        <time>2022-01-13T09:45:06Z</time>
      </trkpt>
      <trkpt lat="47.73006" lon="2.2129898">
        <ele>172.0</ele>
        <time>2022-01-13T09:45:07Z</time>
      </trkpt>
      <trkpt lat="47.73005" lon="2.2129974">
        <ele>173.0</ele>
        <time>2022-01-13T09:45:08Z</time>
      </trkpt>
      <trkpt lat="47.730038" lon="2.2130065">
        <ele>172.0</ele>
        <time>2022-01-13T09:45:09Z</time>
      </trkpt>
      <trkpt lat="47.73003" lon="2.2130175">
        <ele>172.0</ele>
        <time>2022-01-13T09:45:10Z</time>
      </trkpt>
      <trkpt lat="47.730022" lon="2.2130282">
        <ele>173.0</ele>
        <time>2022-01-13T09:45:11Z</time>
      </trkpt>
      <trkpt lat="47.73001" lon="2.2130365">
        <ele>173.0</ele>
        <time>2022-01-13T09:45:12Z</time>
      </trkpt>
      <trkpt lat="47.73" lon="2.2130456">
        <ele>173.0</ele>
        <time>2022-01-13T09:45:13Z</time>
      </trkpt>
      <trkpt lat="47.72999" lon="2.2130566">
        <ele>173.0</ele>
        <time>2022-01-13T09:45:14Z</time>
      </trkpt>
      <trkpt lat="47.729973" lon="2.2130697">
        <ele>174.0</ele>
        <time>2022-01-13T09:45:15Z</time>
      </trkpt>
      <trkpt lat="47.72996" lon="2.2130754">
        <ele>174.0</ele>
        <time>2022-01-13T09:45:16Z</time>
      </trkpt>
      <trkpt lat="47.72995" lon="2.213077">
        <ele>174.0</ele>
        <time>2022-01-13T09:45:17Z</time>
      </trkpt>
      <trkpt lat="47.729942" lon="2.213083">
        <ele>173.0</ele>
        <time>2022-01-13T09:45:18Z</time>
      </trkpt>
      <trkpt lat="47.729935" lon="2.2130952">
        <ele>173.0</ele>
        <time>2022-01-13T09:45:19Z</time>
      </trkpt>
      <trkpt lat="47.729923" lon="2.2131066">
        <ele>173.0</ele>
        <time>2022-01-13T09:45:20Z</time>
      </trkpt>
      <trkpt lat="47.72991" lon="2.2131195">
        <ele>173.0</ele>
        <time>2022-01-13T09:45:21Z</time>
      </trkpt>
      <trkpt lat="47.729904" lon="2.213128">
        <ele>173.0</ele>
        <time>2022-01-13T09:45:22Z</time>
      </trkpt>
      <trkpt lat="47.729893" lon="2.2131371">
        <ele>173.0</ele>
        <time>2022-01-13T09:45:23Z</time>
      </trkpt>
      <trkpt lat="47.72988" lon="2.2131493">
        <ele>173.0</ele>
        <time>2022-01-13T09:45:24Z</time>
      </trkpt>
      <trkpt lat="47.729874" lon="2.2131553">
        <ele>173.0</ele>
        <time>2022-01-13T09:45:25Z</time>
      </trkpt>
      <trkpt lat="47.729866" lon="2.2131622">
        <ele>174.0</ele>
        <time>2022-01-13T09:45:26Z</time>
      </trkpt>
      <trkpt lat="47.72986" lon="2.2131634">
        <ele>174.0</ele>
        <time>2022-01-13T09:45:27Z</time>
      </trkpt>
      <trkpt lat="47.72985" lon="2.2131674">
        <ele>174.0</ele>
        <time>2022-01-13T09:45:28Z</time>
      </trkpt>
      <trkpt lat="47.72984" lon="2.2131763">
        <ele>174.0</ele>
        <time>2022-01-13T09:45:29Z</time>
      </trkpt>
      <trkpt lat="47.729828" lon="2.2131863">
        <ele>175.0</ele>
        <time>2022-01-13T09:45:30Z</time>
      </trkpt>
      <trkpt lat="47.729816" lon="2.2131984">
        <ele>174.0</ele>
        <time>2022-01-13T09:45:31Z</time>
      </trkpt>
      <trkpt lat="47.72981" lon="2.2132015">
        <ele>174.0</ele>
        <time>2022-01-13T09:45:32Z</time>
      </trkpt>
      <trkpt lat="47.729797" lon="2.2132082">
        <ele>175.0</ele>
        <time>2022-01-13T09:45:33Z</time>
      </trkpt>
      <trkpt lat="47.729786" lon="2.2132156">
        <ele>175.0</ele>
        <time>2022-01-13T09:45:34Z</time>
      </trkpt>
      <trkpt lat="47.729774" lon="2.2132156">
        <ele>175.0</ele>
        <time>2022-01-13T09:45:35Z</time>
      </trkpt>
      <trkpt lat="47.729763" lon="2.2132182">
        <ele>175.0</ele>
        <time>2022-01-13T09:45:36Z</time>
      </trkpt>
      <trkpt lat="47.72976" lon="2.21322">
        <ele>175.0</ele>
        <time>2022-01-13T09:45:37Z</time>
      </trkpt>
      <trkpt lat="47.729748" lon="2.2132275">
        <ele>175.0</ele>
        <time>2022-01-13T09:45:38Z</time>
      </trkpt>
      <trkpt lat="47.72974" lon="2.213233">
        <ele>175.0</ele>
        <time>2022-01-13T09:45:39Z</time>
      </trkpt>
      <trkpt lat="47.729733" lon="2.2132475">
        <ele>175.0</ele>
        <time>2022-01-13T09:45:40Z</time>
      </trkpt>
      <trkpt lat="47.729725" lon="2.2132545">
        <ele>174.0</ele>
        <time>2022-01-13T09:45:41Z</time>
      </trkpt>
      <trkpt lat="47.729717" lon="2.2132602">
        <ele>174.0</ele>
        <time>2022-01-13T09:45:42Z</time>
      </trkpt>
      <trkpt lat="47.72971" lon="2.213267">
        <ele>173.0</ele>
        <time>2022-01-13T09:45:43Z</time>
      </trkpt>
      <trkpt lat="47.729706" lon="2.2132714">
        <ele>173.0</ele>
        <time>2022-01-13T09:45:44Z</time>
      </trkpt>
      <trkpt lat="47.7297" lon="2.2132814">
        <ele>173.0</ele>
        <time>2022-01-13T09:45:45Z</time>
      </trkpt>
      <trkpt lat="47.72969" lon="2.213287">
        <ele>173.0</ele>
        <time>2022-01-13T09:45:46Z</time>
      </trkpt>
      <trkpt lat="47.72968" lon="2.2132914">
        <ele>173.0</ele>
        <time>2022-01-13T09:45:47Z</time>
      </trkpt>
      <trkpt lat="47.72967" lon="2.2132986">
        <ele>173.0</ele>
        <time>2022-01-13T09:45:48Z</time>
      </trkpt>
      <trkpt lat="47.729664" lon="2.2133062">
        <ele>172.0</ele>
        <time>2022-01-13T09:45:49Z</time>
      </trkpt>
      <trkpt lat="47.729656" lon="2.2133195">
        <ele>172.0</ele>
        <time>2022-01-13T09:45:50Z</time>
      </trkpt>
      <trkpt lat="47.72965" lon="2.213332">
        <ele>172.0</ele>
        <time>2022-01-13T09:45:51Z</time>
      </trkpt>
      <trkpt lat="47.729637" lon="2.21334">
        <ele>172.0</ele>
        <time>2022-01-13T09:45:52Z</time>
      </trkpt>
      <trkpt lat="47.729626" lon="2.2133484">
        <ele>172.0</ele>
        <time>2022-01-13T09:45:53Z</time>
      </trkpt>
      <trkpt lat="47.729614" lon="2.2133553">
        <ele>172.0</ele>
        <time>2022-01-13T09:45:54Z</time>
      </trkpt>
      <trkpt lat="47.729603" lon="2.213367">
        <ele>172.0</ele>
        <time>2022-01-13T09:45:55Z</time>
      </trkpt>
      <trkpt lat="47.72959" lon="2.2133772">
        <ele>173.0</ele>
        <time>2022-01-13T09:45:56Z</time>
      </trkpt>
      <trkpt lat="47.729584" lon="2.2133842">
        <ele>173.0</ele>
        <time>2022-01-13T09:45:57Z</time>
      </trkpt>
      <trkpt lat="47.729572" lon="2.2133927">
        <ele>173.0</ele>
        <time>2022-01-13T09:45:58Z</time>
      </trkpt>
      <trkpt lat="47.72956" lon="2.213401">
        <ele>173.0</ele>
        <time>2022-01-13T09:45:59Z</time>
      </trkpt>
      <trkpt lat="47.72955" lon="2.2134082">
        <ele>173.0</ele>
        <time>2022-01-13T09:46:00Z</time>
      </trkpt>
      <trkpt lat="47.729538" lon="2.2134142">
        <ele>173.0</ele>
        <time>2022-01-13T09:46:01Z</time>
      </trkpt>
      <trkpt lat="47.729527" lon="2.213425">
        <ele>173.0</ele>
        <time>2022-01-13T09:46:02Z</time>
      </trkpt>
      <trkpt lat="47.729515" lon="2.2134361">
        <ele>173.0</ele>
        <time>2022-01-13T09:46:03Z</time>
      </trkpt>
      <trkpt lat="47.729504" lon="2.213449">
        <ele>173.0</ele>
        <time>2022-01-13T09:46:04Z</time>
      </trkpt>
      <trkpt lat="47.729492" lon="2.2134578">
        <ele>173.0</ele>
        <time>2022-01-13T09:46:05Z</time>
      </trkpt>
      <trkpt lat="47.72948" lon="2.2134676">
        <ele>172.0</ele>
        <time>2022-01-13T09:46:06Z</time>
      </trkpt>
      <trkpt lat="47.72947" lon="2.2134764">
        <ele>173.0</ele>
        <time>2022-01-13T09:46:07Z</time>
      </trkpt>
      <trkpt lat="47.729458" lon="2.2134767">
        <ele>173.0</ele>
        <time>2022-01-13T09:46:08Z</time>
      </trkpt>
      <trkpt lat="47.729446" lon="2.2134764">
        <ele>173.0</ele>
        <time>2022-01-13T09:46:09Z</time>
      </trkpt>
      <trkpt lat="47.729435" lon="2.213476">
        <ele>173.0</ele>
        <time>2022-01-13T09:46:10Z</time>
      </trkpt>
      <trkpt lat="47.729427" lon="2.2134755">
        <ele>173.0</ele>
        <time>2022-01-13T09:46:11Z</time>
      </trkpt>
      <trkpt lat="47.729416" lon="2.213478">
        <ele>173.0</ele>
        <time>2022-01-13T09:46:12Z</time>
      </trkpt>
      <trkpt lat="47.7294" lon="2.2134895">
        <ele>173.0</ele>
        <time>2022-01-13T09:46:13Z</time>
      </trkpt>
      <trkpt lat="47.729393" lon="2.2135005">
        <ele>172.0</ele>
        <time>2022-01-13T09:46:14Z</time>
      </trkpt>
      <trkpt lat="47.729385" lon="2.2135074">
        <ele>172.0</ele>
        <time>2022-01-13T09:46:15Z</time>
      </trkpt>
      <trkpt lat="47.729378" lon="2.2135162">
        <ele>172.0</ele>
        <time>2022-01-13T09:46:16Z</time>
      </trkpt>
      <trkpt lat="47.729366" lon="2.2135239">
        <ele>172.0</ele>
        <time>2022-01-13T09:46:17Z</time>
      </trkpt>
      <trkpt lat="47.729355" lon="2.2135298">
        <ele>171.0</ele>
        <time>2022-01-13T09:46:18Z</time>
      </trkpt>
      <trkpt lat="47.72934" lon="2.2135336">
        <ele>171.0</ele>
        <time>2022-01-13T09:46:19Z</time>
      </trkpt>
      <trkpt lat="47.72933" lon="2.213544">
        <ele>171.0</ele>
        <time>2022-01-13T09:46:20Z</time>
      </trkpt>
      <trkpt lat="47.729313" lon="2.2135527">
        <ele>171.0</ele>
        <time>2022-01-13T09:46:21Z</time>
      </trkpt>
      <trkpt lat="47.729298" lon="2.2135642">
        <ele>171.0</ele>
        <time>2022-01-13T09:46:22Z</time>
      </trkpt>
      <trkpt lat="47.729294" lon="2.2135792">
        <ele>171.0</ele>
        <time>2022-01-13T09:46:23Z</time>
      </trkpt>
      <trkpt lat="47.72929" lon="2.2135897">
        <ele>171.0</ele>
        <time>2022-01-13T09:46:24Z</time>
      </trkpt>
      <trkpt lat="47.729282" lon="2.2135968">
        <ele>171.0</ele>
        <time>2022-01-13T09:46:25Z</time>
      </trkpt>
      <trkpt lat="47.72927" lon="2.213606">
        <ele>171.0</ele>
        <time>2022-01-13T09:46:26Z</time>
      </trkpt>
      <trkpt lat="47.72926" lon="2.2136147">
        <ele>171.0</ele>
        <time>2022-01-13T09:46:27Z</time>
      </trkpt>
      <trkpt lat="47.72925" lon="2.2136238">
        <ele>170.0</ele>
        <time>2022-01-13T09:46:28Z</time>
      </trkpt>
      <trkpt lat="47.72924" lon="2.213638">
        <ele>170.0</ele>
        <time>2022-01-13T09:46:29Z</time>
      </trkpt>
      <trkpt lat="47.72923" lon="2.2136478">
        <ele>170.0</ele>
        <time>2022-01-13T09:46:30Z</time>
      </trkpt>
      <trkpt lat="47.72922" lon="2.2136471">
        <ele>171.0</ele>
        <time>2022-01-13T09:46:31Z</time>
      </trkpt>
      <trkpt lat="47.729206" lon="2.2136543">
        <ele>171.0</ele>
        <time>2022-01-13T09:46:32Z</time>
      </trkpt>
      <trkpt lat="47.7292" lon="2.2136626">
        <ele>171.0</ele>
        <time>2022-01-13T09:46:33Z</time>
      </trkpt>
      <trkpt lat="47.729187" lon="2.2136729">
        <ele>171.0</ele>
        <time>2022-01-13T09:46:34Z</time>
      </trkpt>
      <trkpt lat="47.729176" lon="2.213682">
        <ele>171.0</ele>
        <time>2022-01-13T09:46:35Z</time>
      </trkpt>
      <trkpt lat="47.729164" lon="2.2136865">
        <ele>171.0</ele>
        <time>2022-01-13T09:46:36Z</time>
      </trkpt>
      <trkpt lat="47.729156" lon="2.2136898">
        <ele>171.0</ele>
        <time>2022-01-13T09:46:37Z</time>
      </trkpt>
      <trkpt lat="47.729145" lon="2.2136953">
        <ele>171.0</ele>
        <time>2022-01-13T09:46:38Z</time>
      </trkpt>
      <trkpt lat="47.729134" lon="2.2137063">
        <ele>171.0</ele>
        <time>2022-01-13T09:46:39Z</time>
      </trkpt>
      <trkpt lat="47.729126" lon="2.2137086">
        <ele>171.0</ele>
        <time>2022-01-13T09:46:40Z</time>
      </trkpt>
      <trkpt lat="47.729115" lon="2.2137082">
        <ele>171.0</ele>
        <time>2022-01-13T09:46:41Z</time>
      </trkpt>
      <trkpt lat="47.729103" lon="2.2137098">
        <ele>171.0</ele>
        <time>2022-01-13T09:46:42Z</time>
      </trkpt>
      <trkpt lat="47.72909" lon="2.2137125">
        <ele>170.0</ele>
        <time>2022-01-13T09:46:43Z</time>
      </trkpt>
      <trkpt lat="47.72908" lon="2.213721">
        <ele>170.0</ele>
        <time>2022-01-13T09:46:44Z</time>
      </trkpt>
      <trkpt lat="47.72907" lon="2.2137258">
        <ele>170.0</ele>
        <time>2022-01-13T09:46:45Z</time>
      </trkpt>
      <trkpt lat="47.729057" lon="2.2137341">
        <ele>170.0</ele>
        <time>2022-01-13T09:46:46Z</time>
      </trkpt>
      <trkpt lat="47.72905" lon="2.2137432">
        <ele>170.0</ele>
        <time>2022-01-13T09:46:47Z</time>
      </trkpt>
      <trkpt lat="47.729042" lon="2.2137465">
        <ele>170.0</ele>
        <time>2022-01-13T09:46:48Z</time>
      </trkpt>
      <trkpt lat="47.729034" lon="2.2137523">
        <ele>170.0</ele>
        <time>2022-01-13T09:46:49Z</time>
      </trkpt>
      <trkpt lat="47.729027" lon="2.2137609">
        <ele>170.0</ele>
        <time>2022-01-13T09:46:50Z</time>
      </trkpt>
      <trkpt lat="47.72902" lon="2.2137735">
        <ele>170.0</ele>
        <time>2022-01-13T09:46:51Z</time>
      </trkpt>
      <trkpt lat="47.72901" lon="2.21378">
        <ele>170.0</ele>
        <time>2022-01-13T09:46:52Z</time>
      </trkpt>
      <trkpt lat="47.729" lon="2.2137887">
        <ele>170.0</ele>
        <time>2022-01-13T09:46:53Z</time>
      </trkpt>
      <trkpt lat="47.72899" lon="2.2138042">
        <ele>171.0</ele>
        <time>2022-01-13T09:46:54Z</time>
      </trkpt>
      <trkpt lat="47.728977" lon="2.213809">
        <ele>170.0</ele>
        <time>2022-01-13T09:46:55Z</time>
      </trkpt>
      <trkpt lat="47.728962" lon="2.213816">
        <ele>169.0</ele>
        <time>2022-01-13T09:46:56Z</time>
      </trkpt>
      <trkpt lat="47.72895" lon="2.2138257">
        <ele>169.0</ele>
        <time>2022-01-13T09:46:57Z</time>
      </trkpt>
      <trkpt lat="47.72894" lon="2.2138371">
        <ele>170.0</ele>
        <time>2022-01-13T09:46:58Z</time>
      </trkpt>
      <trkpt lat="47.72893" lon="2.2138445">
        <ele>170.0</ele>
        <time>2022-01-13T09:46:59Z</time>
      </trkpt>
      <trkpt lat="47.728924" lon="2.2138603">
        <ele>170.0</ele>
        <time>2022-01-13T09:47:00Z</time>
      </trkpt>
      <trkpt lat="47.72892" lon="2.2138717">
        <ele>170.0</ele>
        <time>2022-01-13T09:47:01Z</time>
      </trkpt>
      <trkpt lat="47.72891" lon="2.2138817">
        <ele>169.0</ele>
        <time>2022-01-13T09:47:02Z</time>
      </trkpt>
      <trkpt lat="47.728897" lon="2.213894">
        <ele>169.0</ele>
        <time>2022-01-13T09:47:03Z</time>
      </trkpt>
      <trkpt lat="47.72889" lon="2.2139049">
        <ele>169.0</ele>
        <time>2022-01-13T09:47:04Z</time>
      </trkpt>
      <trkpt lat="47.728878" lon="2.213918">
        <ele>169.0</ele>
        <time>2022-01-13T09:47:05Z</time>
      </trkpt>
      <trkpt lat="47.728874" lon="2.2139254">
        <ele>168.0</ele>
        <time>2022-01-13T09:47:06Z</time>
      </trkpt>
      <trkpt lat="47.728863" lon="2.2139313">
        <ele>168.0</ele>
        <time>2022-01-13T09:47:07Z</time>
      </trkpt>
      <trkpt lat="47.72885" lon="2.2139342">
        <ele>168.0</ele>
        <time>2022-01-13T09:47:08Z</time>
      </trkpt>
      <trkpt lat="47.728844" lon="2.21394">
        <ele>168.0</ele>
        <time>2022-01-13T09:47:09Z</time>
      </trkpt>
      <trkpt lat="47.728832" lon="2.2139494">
        <ele>167.0</ele>
        <time>2022-01-13T09:47:10Z</time>
      </trkpt>
      <trkpt lat="47.72882" lon="2.2139585">
        <ele>167.0</ele>
        <time>2022-01-13T09:47:11Z</time>
      </trkpt>
      <trkpt lat="47.72881" lon="2.2139707">
        <ele>167.0</ele>
        <time>2022-01-13T09:47:12Z</time>
      </trkpt>
      <trkpt lat="47.728798" lon="2.2139804">
        <ele>167.0</ele>
        <time>2022-01-13T09:47:13Z</time>
      </trkpt>
      <trkpt lat="47.728783" lon="2.2139933">
        <ele>167.0</ele>
        <time>2022-01-13T09:47:14Z</time>
      </trkpt>
      <trkpt lat="47.72877" lon="2.2140017">
        <ele>167.0</ele>
        <time>2022-01-13T09:47:15Z</time>
      </trkpt>
      <trkpt lat="47.72876" lon="2.2140186">
        <ele>167.0</ele>
        <time>2022-01-13T09:47:16Z</time>
      </trkpt>
      <trkpt lat="47.72875" lon="2.214029">
        <ele>167.0</ele>
        <time>2022-01-13T09:47:17Z</time>
      </trkpt>
      <trkpt lat="47.72874" lon="2.21404">
        <ele>167.0</ele>
        <time>2022-01-13T09:47:18Z</time>
      </trkpt>
      <trkpt lat="47.72873" lon="2.214046">
        <ele>167.0</ele>
        <time>2022-01-13T09:47:19Z</time>
      </trkpt>
      <trkpt lat="47.72872" lon="2.2140548">
        <ele>166.0</ele>
        <time>2022-01-13T09:47:20Z</time>
      </trkpt>
      <trkpt lat="47.728714" lon="2.2140603">
        <ele>166.0</ele>
        <time>2022-01-13T09:47:21Z</time>
      </trkpt>
      <trkpt lat="47.728706" lon="2.214068">
        <ele>166.0</ele>
        <time>2022-01-13T09:47:22Z</time>
      </trkpt>
      <trkpt lat="47.7287" lon="2.2140744">
        <ele>166.0</ele>
        <time>2022-01-13T09:47:23Z</time>
      </trkpt>
      <trkpt lat="47.728687" lon="2.214083">
        <ele>165.0</ele>
        <time>2022-01-13T09:47:24Z</time>
      </trkpt>
      <trkpt lat="47.728676" lon="2.214097">
        <ele>166.0</ele>
        <time>2022-01-13T09:47:25Z</time>
      </trkpt>
      <trkpt lat="47.728664" lon="2.2141027">
        <ele>166.0</ele>
        <time>2022-01-13T09:47:26Z</time>
      </trkpt>
      <trkpt lat="47.728657" lon="2.214115">
        <ele>166.0</ele>
        <time>2022-01-13T09:47:27Z</time>
      </trkpt>
      <trkpt lat="47.72865" lon="2.2141254">
        <ele>166.0</ele>
        <time>2022-01-13T09:47:28Z</time>
      </trkpt>
      <trkpt lat="47.72864" lon="2.2141302">
        <ele>166.0</ele>
        <time>2022-01-13T09:47:29Z</time>
      </trkpt>
      <trkpt lat="47.72863" lon="2.214139">
        <ele>165.0</ele>
        <time>2022-01-13T09:47:30Z</time>
      </trkpt>
      <trkpt lat="47.72862" lon="2.214147">
        <ele>165.0</ele>
        <time>2022-01-13T09:47:31Z</time>
      </trkpt>
      <trkpt lat="47.728607" lon="2.2141562">
        <ele>165.0</ele>
        <time>2022-01-13T09:47:32Z</time>
      </trkpt>
      <trkpt lat="47.728592" lon="2.2141638">
        <ele>165.0</ele>
        <time>2022-01-13T09:47:33Z</time>
      </trkpt>
      <trkpt lat="47.72858" lon="2.2141724">
        <ele>165.0</ele>
        <time>2022-01-13T09:47:34Z</time>
      </trkpt>
      <trkpt lat="47.72857" lon="2.2141838">
        <ele>165.0</ele>
        <time>2022-01-13T09:47:35Z</time>
      </trkpt>
      <trkpt lat="47.728558" lon="2.2141945">
        <ele>165.0</ele>
        <time>2022-01-13T09:47:36Z</time>
      </trkpt>
      <trkpt lat="47.728546" lon="2.2142065">
        <ele>165.0</ele>
        <time>2022-01-13T09:47:37Z</time>
      </trkpt>
      <trkpt lat="47.728535" lon="2.2142146">
        <ele>166.0</ele>
        <time>2022-01-13T09:47:38Z</time>
      </trkpt>
      <trkpt lat="47.72852" lon="2.2142246">
        <ele>166.0</ele>
        <time>2022-01-13T09:47:39Z</time>
      </trkpt>
      <trkpt lat="47.728508" lon="2.2142305">
        <ele>166.0</ele>
        <time>2022-01-13T09:47:40Z</time>
      </trkpt>
      <trkpt lat="47.728497" lon="2.2142344">
        <ele>166.0</ele>
        <time>2022-01-13T09:47:41Z</time>
      </trkpt>
      <trkpt lat="47.728485" lon="2.2142391">
        <ele>166.0</ele>
        <time>2022-01-13T09:47:42Z</time>
      </trkpt>
      <trkpt lat="47.728474" lon="2.2142484">
        <ele>166.0</ele>
        <time>2022-01-13T09:47:43Z</time>
      </trkpt>
      <trkpt lat="47.728466" lon="2.21426">
        <ele>166.0</ele>
        <time>2022-01-13T09:47:44Z</time>
      </trkpt>
      <trkpt lat="47.728455" lon="2.2142696">
        <ele>166.0</ele>
        <time>2022-01-13T09:47:45Z</time>
      </trkpt>
      <trkpt lat="47.728447" lon="2.2142766">
        <ele>166.0</ele>
        <time>2022-01-13T09:47:46Z</time>
      </trkpt>
      <trkpt lat="47.72844" lon="2.214282">
        <ele>166.0</ele>
        <time>2022-01-13T09:47:47Z</time>
      </trkpt>
      <trkpt lat="47.72843" lon="2.2142906">
        <ele>166.0</ele>
        <time>2022-01-13T09:47:48Z</time>
      </trkpt>
      <trkpt lat="47.72842" lon="2.2142982">
        <ele>166.0</ele>
        <time>2022-01-13T09:47:49Z</time>
      </trkpt>
      <trkpt lat="47.728416" lon="2.2143042">
        <ele>166.0</ele>
        <time>2022-01-13T09:47:50Z</time>
      </trkpt>
      <trkpt lat="47.728405" lon="2.2143111">
        <ele>166.0</ele>
        <time>2022-01-13T09:47:51Z</time>
      </trkpt>
      <trkpt lat="47.72839" lon="2.2143166">
        <ele>166.0</ele>
        <time>2022-01-13T09:47:52Z</time>
      </trkpt>
      <trkpt lat="47.728374" lon="2.2143233">
        <ele>166.0</ele>
        <time>2022-01-13T09:47:53Z</time>
      </trkpt>
      <trkpt lat="47.728363" lon="2.2143307">
        <ele>166.0</ele>
        <time>2022-01-13T09:47:54Z</time>
      </trkpt>
      <trkpt lat="47.728348" lon="2.2143402">
        <ele>167.0</ele>
        <time>2022-01-13T09:47:55Z</time>
      </trkpt>
      <trkpt lat="47.72834" lon="2.2143471">
        <ele>167.0</ele>
        <time>2022-01-13T09:47:56Z</time>
      </trkpt>
      <trkpt lat="47.728333" lon="2.2143521">
        <ele>167.0</ele>
        <time>2022-01-13T09:47:57Z</time>
      </trkpt>
      <trkpt lat="47.72832" lon="2.2143605">
        <ele>166.0</ele>
        <time>2022-01-13T09:47:58Z</time>
      </trkpt>
      <trkpt lat="47.72831" lon="2.2143698">
        <ele>167.0</ele>
        <time>2022-01-13T09:47:59Z</time>
      </trkpt>
      <trkpt lat="47.7283" lon="2.214381">
        <ele>167.0</ele>
        <time>2022-01-13T09:48:00Z</time>
      </trkpt>
      <trkpt lat="47.728283" lon="2.2143905">
        <ele>166.0</ele>
        <time>2022-01-13T09:48:01Z</time>
      </trkpt>
      <trkpt lat="47.728275" lon="2.2144005">
        <ele>167.0</ele>
        <time>2022-01-13T09:48:02Z</time>
      </trkpt>
      <trkpt lat="47.728264" lon="2.21441">
        <ele>167.0</ele>
        <time>2022-01-13T09:48:03Z</time>
      </trkpt>
      <trkpt lat="47.72825" lon="2.214416">
        <ele>167.0</ele>
        <time>2022-01-13T09:48:04Z</time>
      </trkpt>
      <trkpt lat="47.728237" lon="2.2144225">
        <ele>167.0</ele>
        <time>2022-01-13T09:48:05Z</time>
      </trkpt>
      <trkpt lat="47.72822" lon="2.2144325">
        <ele>168.0</ele>
        <time>2022-01-13T09:48:06Z</time>
      </trkpt>
      <trkpt lat="47.728214" lon="2.2144444">
        <ele>167.0</ele>
        <time>2022-01-13T09:48:07Z</time>
      </trkpt>
      <trkpt lat="47.728203" lon="2.2144554">
        <ele>167.0</ele>
        <time>2022-01-13T09:48:08Z</time>
      </trkpt>
      <trkpt lat="47.728188" lon="2.2144673">
        <ele>168.0</ele>
        <time>2022-01-13T09:48:09Z</time>
      </trkpt>
      <trkpt lat="47.72818" lon="2.2144775">
        <ele>168.0</ele>
        <time>2022-01-13T09:48:10Z</time>
      </trkpt>
      <trkpt lat="47.72817" lon="2.2144823">
        <ele>168.0</ele>
        <time>2022-01-13T09:48:11Z</time>
      </trkpt>
      <trkpt lat="47.728157" lon="2.2144918">
        <ele>168.0</ele>
        <time>2022-01-13T09:48:12Z</time>
      </trkpt>
      <trkpt lat="47.728146" lon="2.2145026">
        <ele>168.0</ele>
        <time>2022-01-13T09:48:13Z</time>
      </trkpt>
      <trkpt lat="47.728138" lon="2.2145133">
        <ele>168.0</ele>
        <time>2022-01-13T09:48:14Z</time>
      </trkpt>
      <trkpt lat="47.72813" lon="2.2145236">
        <ele>168.0</ele>
        <time>2022-01-13T09:48:15Z</time>
      </trkpt>
      <trkpt lat="47.728127" lon="2.2145357">
        <ele>167.0</ele>
        <time>2022-01-13T09:48:16Z</time>
      </trkpt>
      <trkpt lat="47.72812" lon="2.2145503">
        <ele>167.0</ele>
        <time>2022-01-13T09:48:17Z</time>
      </trkpt>
      <trkpt lat="47.728107" lon="2.2145617">
        <ele>167.0</ele>
        <time>2022-01-13T09:48:18Z</time>
      </trkpt>
      <trkpt lat="47.728096" lon="2.2145727">
        <ele>167.0</ele>
        <time>2022-01-13T09:48:19Z</time>
      </trkpt>
      <trkpt lat="47.72809" lon="2.214579">
        <ele>167.0</ele>
        <time>2022-01-13T09:48:20Z</time>
      </trkpt>
      <trkpt lat="47.728077" lon="2.2145877">
        <ele>167.0</ele>
        <time>2022-01-13T09:48:21Z</time>
      </trkpt>
      <trkpt lat="47.72807" lon="2.2145932">
        <ele>167.0</ele>
        <time>2022-01-13T09:48:22Z</time>
      </trkpt>
      <trkpt lat="47.728058" lon="2.2145956">
        <ele>168.0</ele>
        <time>2022-01-13T09:48:23Z</time>
      </trkpt>
      <trkpt lat="47.728054" lon="2.214599">
        <ele>168.0</ele>
        <time>2022-01-13T09:48:24Z</time>
      </trkpt>
      <trkpt lat="47.728046" lon="2.214605">
        <ele>168.0</ele>
        <time>2022-01-13T09:48:25Z</time>
      </trkpt>
      <trkpt lat="47.728035" lon="2.2146065">
        <ele>168.0</ele>
        <time>2022-01-13T09:48:26Z</time>
      </trkpt>
      <trkpt lat="47.728024" lon="2.2146132">
        <ele>168.0</ele>
        <time>2022-01-13T09:48:27Z</time>
      </trkpt>
      <trkpt lat="47.728016" lon="2.2146184">
        <ele>167.0</ele>
        <time>2022-01-13T09:48:28Z</time>
      </trkpt>
      <trkpt lat="47.72801" lon="2.2146266">
        <ele>167.0</ele>
        <time>2022-01-13T09:48:29Z</time>
      </trkpt>
      <trkpt lat="47.727993" lon="2.2146316">
        <ele>167.0</ele>
        <time>2022-01-13T09:48:30Z</time>
      </trkpt>
      <trkpt lat="47.72798" lon="2.2146392">
        <ele>167.0</ele>
        <time>2022-01-13T09:48:31Z</time>
      </trkpt>
      <trkpt lat="47.72797" lon="2.2146466">
        <ele>167.0</ele>
        <time>2022-01-13T09:48:32Z</time>
      </trkpt>
      <trkpt lat="47.727962" lon="2.2146523">
        <ele>167.0</ele>
        <time>2022-01-13T09:48:33Z</time>
      </trkpt>
      <trkpt lat="47.72795" lon="2.2146606">
        <ele>167.0</ele>
        <time>2022-01-13T09:48:34Z</time>
      </trkpt>
      <trkpt lat="47.727936" lon="2.2146642">
        <ele>166.0</ele>
        <time>2022-01-13T09:48:35Z</time>
      </trkpt>
      <trkpt lat="47.72793" lon="2.2146704">
        <ele>166.0</ele>
        <time>2022-01-13T09:48:36Z</time>
      </trkpt>
      <trkpt lat="47.727917" lon="2.2146773">
        <ele>166.0</ele>
        <time>2022-01-13T09:48:37Z</time>
      </trkpt>
      <trkpt lat="47.72791" lon="2.2146835">
        <ele>166.0</ele>
        <time>2022-01-13T09:48:38Z</time>
      </trkpt>
      <trkpt lat="47.727898" lon="2.2146935">
        <ele>166.0</ele>
        <time>2022-01-13T09:48:39Z</time>
      </trkpt>
      <trkpt lat="47.727886" lon="2.214703">
        <ele>166.0</ele>
        <time>2022-01-13T09:48:40Z</time>
      </trkpt>
      <trkpt lat="47.72787" lon="2.2147164">
        <ele>166.0</ele>
        <time>2022-01-13T09:48:41Z</time>
      </trkpt>
      <trkpt lat="47.727856" lon="2.2147257">
        <ele>166.0</ele>
        <time>2022-01-13T09:48:42Z</time>
      </trkpt>
      <trkpt lat="47.72784" lon="2.2147372">
        <ele>167.0</ele>
        <time>2022-01-13T09:48:43Z</time>
      </trkpt>
      <trkpt lat="47.72783" lon="2.2147453">
        <ele>167.0</ele>
        <time>2022-01-13T09:48:44Z</time>
      </trkpt>
      <trkpt lat="47.727818" lon="2.2147555">
        <ele>167.0</ele>
        <time>2022-01-13T09:48:45Z</time>
      </trkpt>
      <trkpt lat="47.727806" lon="2.2147627">
        <ele>168.0</ele>
        <time>2022-01-13T09:48:46Z</time>
      </trkpt>
      <trkpt lat="47.727795" lon="2.214766">
        <ele>168.0</ele>
        <time>2022-01-13T09:48:47Z</time>
      </trkpt>
      <trkpt lat="47.727783" lon="2.2147734">
        <ele>168.0</ele>
        <time>2022-01-13T09:48:48Z</time>
      </trkpt>
      <trkpt lat="47.72777" lon="2.214783">
        <ele>168.0</ele>
        <time>2022-01-13T09:48:49Z</time>
      </trkpt>
      <trkpt lat="47.72776" lon="2.214794">
        <ele>168.0</ele>
        <time>2022-01-13T09:48:50Z</time>
      </trkpt>
      <trkpt lat="47.72775" lon="2.2148044">
        <ele>168.0</ele>
        <time>2022-01-13T09:48:51Z</time>
      </trkpt>
      <trkpt lat="47.727737" lon="2.214818">
        <ele>168.0</ele>
        <time>2022-01-13T09:48:52Z</time>
      </trkpt>
      <trkpt lat="47.72773" lon="2.2148256">
        <ele>168.0</ele>
        <time>2022-01-13T09:48:53Z</time>
      </trkpt>
      <trkpt lat="47.72772" lon="2.2148397">
        <ele>168.0</ele>
        <time>2022-01-13T09:48:54Z</time>
      </trkpt>
      <trkpt lat="47.727707" lon="2.214854">
        <ele>169.0</ele>
        <time>2022-01-13T09:48:55Z</time>
      </trkpt>
      <trkpt lat="47.7277" lon="2.21486">
        <ele>169.0</ele>
        <time>2022-01-13T09:48:56Z</time>
      </trkpt>
      <trkpt lat="47.727688" lon="2.2148654">
        <ele>169.0</ele>
        <time>2022-01-13T09:48:57Z</time>
      </trkpt>
      <trkpt lat="47.72768" lon="2.2148688">
        <ele>169.0</ele>
        <time>2022-01-13T09:48:58Z</time>
      </trkpt>
      <trkpt lat="47.72767" lon="2.2148771">
        <ele>169.0</ele>
        <time>2022-01-13T09:48:59Z</time>
      </trkpt>
      <trkpt lat="47.727657" lon="2.2148836">
        <ele>169.0</ele>
        <time>2022-01-13T09:49:00Z</time>
      </trkpt>
      <trkpt lat="47.72765" lon="2.2148914">
        <ele>169.0</ele>
        <time>2022-01-13T09:49:01Z</time>
      </trkpt>
      <trkpt lat="47.72764" lon="2.2149026">
        <ele>169.0</ele>
        <time>2022-01-13T09:49:02Z</time>
      </trkpt>
      <trkpt lat="47.72763" lon="2.2149115">
        <ele>169.0</ele>
        <time>2022-01-13T09:49:03Z</time>
      </trkpt>
      <trkpt lat="47.72762" lon="2.2149222">
        <ele>169.0</ele>
        <time>2022-01-13T09:49:04Z</time>
      </trkpt>
      <trkpt lat="47.72761" lon="2.2149327">
        <ele>169.0</ele>
        <time>2022-01-13T09:49:05Z</time>
      </trkpt>
      <trkpt lat="47.727596" lon="2.2149403">
        <ele>169.0</ele>
        <time>2022-01-13T09:49:06Z</time>
      </trkpt>
      <trkpt lat="47.72759" lon="2.2149472">
        <ele>169.0</ele>
        <time>2022-01-13T09:49:07Z</time>
      </trkpt>
      <trkpt lat="47.72758" lon="2.2149563">
        <ele>169.0</ele>
        <time>2022-01-13T09:49:08Z</time>
      </trkpt>
      <trkpt lat="47.727573" lon="2.2149608">
        <ele>168.0</ele>
        <time>2022-01-13T09:49:09Z</time>
      </trkpt>
      <trkpt lat="47.727566" lon="2.214972">
        <ele>168.0</ele>
        <time>2022-01-13T09:49:10Z</time>
      </trkpt>
      <trkpt lat="47.727554" lon="2.2149782">
        <ele>168.0</ele>
        <time>2022-01-13T09:49:11Z</time>
      </trkpt>
      <trkpt lat="47.727543" lon="2.2149868">
        <ele>167.0</ele>
        <time>2022-01-13T09:49:12Z</time>
      </trkpt>
      <trkpt lat="47.72753" lon="2.2150016">
        <ele>167.0</ele>
        <time>2022-01-13T09:49:13Z</time>
      </trkpt>
      <trkpt lat="47.727516" lon="2.215013">
        <ele>167.0</ele>
        <time>2022-01-13T09:49:14Z</time>
      </trkpt>
      <trkpt lat="47.72751" lon="2.2150264">
        <ele>166.0</ele>
        <time>2022-01-13T09:49:15Z</time>
      </trkpt>
      <trkpt lat="47.727497" lon="2.215039">
        <ele>166.0</ele>
        <time>2022-01-13T09:49:16Z</time>
      </trkpt>
      <trkpt lat="47.727486" lon="2.2150452">
        <ele>165.0</ele>
        <time>2022-01-13T09:49:17Z</time>
      </trkpt>
      <trkpt lat="47.72748" lon="2.215054">
        <ele>165.0</ele>
        <time>2022-01-13T09:49:18Z</time>
      </trkpt>
      <trkpt lat="47.727467" lon="2.2150667">
        <ele>165.0</ele>
        <time>2022-01-13T09:49:19Z</time>
      </trkpt>
      <trkpt lat="47.72746" lon="2.2150662">
        <ele>165.0</ele>
        <time>2022-01-13T09:49:20Z</time>
      </trkpt>
      <trkpt lat="47.727448" lon="2.2150683">
        <ele>164.0</ele>
        <time>2022-01-13T09:49:21Z</time>
      </trkpt>
      <trkpt lat="47.727436" lon="2.2150772">
        <ele>164.0</ele>
        <time>2022-01-13T09:49:22Z</time>
      </trkpt>
      <trkpt lat="47.72743" lon="2.215087">
        <ele>165.0</ele>
        <time>2022-01-13T09:49:23Z</time>
      </trkpt>
      <trkpt lat="47.727417" lon="2.215093">
        <ele>165.0</ele>
        <time>2022-01-13T09:49:24Z</time>
      </trkpt>
      <trkpt lat="47.727406" lon="2.2150993">
        <ele>165.0</ele>
        <time>2022-01-13T09:49:25Z</time>
      </trkpt>
      <trkpt lat="47.727398" lon="2.215105">
        <ele>165.0</ele>
        <time>2022-01-13T09:49:26Z</time>
      </trkpt>
      <trkpt lat="47.72739" lon="2.2151084">
        <ele>165.0</ele>
        <time>2022-01-13T09:49:27Z</time>
      </trkpt>
      <trkpt lat="47.72738" lon="2.2151194">
        <ele>165.0</ele>
        <time>2022-01-13T09:49:28Z</time>
      </trkpt>
      <trkpt lat="47.727367" lon="2.2151265">
        <ele>165.0</ele>
        <time>2022-01-13T09:49:29Z</time>
      </trkpt>
      <trkpt lat="47.72736" lon="2.2151353">
        <ele>164.0</ele>
        <time>2022-01-13T09:49:30Z</time>
      </trkpt>
      <trkpt lat="47.727345" lon="2.2151413">
        <ele>164.0</ele>
        <time>2022-01-13T09:49:31Z</time>
      </trkpt>
      <trkpt lat="47.727337" lon="2.2151427">
        <ele>164.0</ele>
        <time>2022-01-13T09:49:32Z</time>
      </trkpt>
      <trkpt lat="47.72732" lon="2.2151456">
        <ele>164.0</ele>
        <time>2022-01-13T09:49:33Z</time>
      </trkpt>
      <trkpt lat="47.727306" lon="2.215151">
        <ele>164.0</ele>
        <time>2022-01-13T09:49:34Z</time>
      </trkpt>
      <trkpt lat="47.727295" lon="2.2151604">
        <ele>164.0</ele>
        <time>2022-01-13T09:49:35Z</time>
      </trkpt>
      <trkpt lat="47.727283" lon="2.2151682">
        <ele>164.0</ele>
        <time>2022-01-13T09:49:36Z</time>
      </trkpt>
      <trkpt lat="47.727276" lon="2.2151816">
        <ele>165.0</ele>
        <time>2022-01-13T09:49:37Z</time>
      </trkpt>
      <trkpt lat="47.72727" lon="2.215191">
        <ele>165.0</ele>
        <time>2022-01-13T09:49:38Z</time>
      </trkpt>
      <trkpt lat="47.72726" lon="2.2151997">
        <ele>164.0</ele>
        <time>2022-01-13T09:49:39Z</time>
      </trkpt>
      <trkpt lat="47.72725" lon="2.2152069">
        <ele>165.0</ele>
        <time>2022-01-13T09:49:40Z</time>
      </trkpt>
      <trkpt lat="47.72724" lon="2.2152145">
        <ele>165.0</ele>
        <time>2022-01-13T09:49:41Z</time>
      </trkpt>
      <trkpt lat="47.72723" lon="2.2152221">
        <ele>165.0</ele>
        <time>2022-01-13T09:49:42Z</time>
      </trkpt>
      <trkpt lat="47.727215" lon="2.215226">
        <ele>165.0</ele>
        <time>2022-01-13T09:49:43Z</time>
      </trkpt>
      <trkpt lat="47.7272" lon="2.2152336">
        <ele>165.0</ele>
        <time>2022-01-13T09:49:44Z</time>
      </trkpt>
      <trkpt lat="47.72719" lon="2.2152426">
        <ele>165.0</ele>
        <time>2022-01-13T09:49:45Z</time>
      </trkpt>
      <trkpt lat="47.727177" lon="2.215253">
        <ele>165.0</ele>
        <time>2022-01-13T09:49:46Z</time>
      </trkpt>
      <trkpt lat="47.72716" lon="2.2152584">
        <ele>166.0</ele>
        <time>2022-01-13T09:49:47Z</time>
      </trkpt>
      <trkpt lat="47.72715" lon="2.2152736">
        <ele>166.0</ele>
        <time>2022-01-13T09:49:48Z</time>
      </trkpt>
      <trkpt lat="47.72714" lon="2.215287">
        <ele>166.0</ele>
        <time>2022-01-13T09:49:49Z</time>
      </trkpt>
      <trkpt lat="47.727127" lon="2.215298">
        <ele>166.0</ele>
        <time>2022-01-13T09:49:50Z</time>
      </trkpt>
      <trkpt lat="47.727116" lon="2.2153075">
        <ele>167.0</ele>
        <time>2022-01-13T09:49:51Z</time>
      </trkpt>
      <trkpt lat="47.7271" lon="2.2153153">
        <ele>167.0</ele>
        <time>2022-01-13T09:49:52Z</time>
      </trkpt>
      <trkpt lat="47.72709" lon="2.215322">
        <ele>167.0</ele>
        <time>2022-01-13T09:49:53Z</time>
      </trkpt>
      <trkpt lat="47.727085" lon="2.2153277">
        <ele>167.0</ele>
        <time>2022-01-13T09:49:54Z</time>
      </trkpt>
      <trkpt lat="47.727077" lon="2.2153347">
        <ele>167.0</ele>
        <time>2022-01-13T09:49:55Z</time>
      </trkpt>
      <trkpt lat="47.727066" lon="2.2153406">
        <ele>167.0</ele>
        <time>2022-01-13T09:49:56Z</time>
      </trkpt>
      <trkpt lat="47.727055" lon="2.2153451">
        <ele>167.0</ele>
        <time>2022-01-13T09:49:57Z</time>
      </trkpt>
      <trkpt lat="47.72704" lon="2.2153497">
        <ele>167.0</ele>
        <time>2022-01-13T09:49:58Z</time>
      </trkpt>
      <trkpt lat="47.727024" lon="2.215355">
        <ele>167.0</ele>
        <time>2022-01-13T09:49:59Z</time>
      </trkpt>
      <trkpt lat="47.727016" lon="2.2153573">
        <ele>167.0</ele>
        <time>2022-01-13T09:50:00Z</time>
      </trkpt>
      <trkpt lat="47.72701" lon="2.2153656">
        <ele>167.0</ele>
        <time>2022-01-13T09:50:01Z</time>
      </trkpt>
      <trkpt lat="47.726997" lon="2.2153823">
        <ele>167.0</ele>
        <time>2022-01-13T09:50:02Z</time>
      </trkpt>
      <trkpt lat="47.726986" lon="2.2153928">
        <ele>168.0</ele>
        <time>2022-01-13T09:50:03Z</time>
      </trkpt>
      <trkpt lat="47.72698" lon="2.2154057">
        <ele>168.0</ele>
        <time>2022-01-13T09:50:04Z</time>
      </trkpt>
      <trkpt lat="47.72697" lon="2.2154138">
        <ele>168.0</ele>
        <time>2022-01-13T09:50:05Z</time>
      </trkpt>
      <trkpt lat="47.72696" lon="2.215421">
        <ele>168.0</ele>
        <time>2022-01-13T09:50:06Z</time>
      </trkpt>
      <trkpt lat="47.726948" lon="2.2154307">
        <ele>168.0</ele>
        <time>2022-01-13T09:50:07Z</time>
      </trkpt>
      <trkpt lat="47.72694" lon="2.2154357">
        <ele>168.0</ele>
        <time>2022-01-13T09:50:08Z</time>
      </trkpt>
      <trkpt lat="47.72693" lon="2.2154422">
        <ele>168.0</ele>
        <time>2022-01-13T09:50:09Z</time>
      </trkpt>
      <trkpt lat="47.726917" lon="2.2154496">
        <ele>168.0</ele>
        <time>2022-01-13T09:50:10Z</time>
      </trkpt>
      <trkpt lat="47.726906" lon="2.2154565">
        <ele>168.0</ele>
        <time>2022-01-13T09:50:11Z</time>
      </trkpt>
      <trkpt lat="47.72689" lon="2.2154684">
        <ele>168.0</ele>
        <time>2022-01-13T09:50:12Z</time>
      </trkpt>
      <trkpt lat="47.726875" lon="2.2154815">
        <ele>168.0</ele>
        <time>2022-01-13T09:50:13Z</time>
      </trkpt>
      <trkpt lat="47.726864" lon="2.2154915">
        <ele>168.0</ele>
        <time>2022-01-13T09:50:14Z</time>
      </trkpt>
      <trkpt lat="47.726852" lon="2.215502">
        <ele>169.0</ele>
        <time>2022-01-13T09:50:15Z</time>
      </trkpt>
      <trkpt lat="47.726845" lon="2.215508">
        <ele>169.0</ele>
        <time>2022-01-13T09:50:16Z</time>
      </trkpt>
      <trkpt lat="47.726833" lon="2.215515">
        <ele>169.0</ele>
        <time>2022-01-13T09:50:17Z</time>
      </trkpt>
      <trkpt lat="47.72683" lon="2.2155263">
        <ele>169.0</ele>
        <time>2022-01-13T09:50:18Z</time>
      </trkpt>
      <trkpt lat="47.726818" lon="2.215535">
        <ele>169.0</ele>
        <time>2022-01-13T09:50:19Z</time>
      </trkpt>
      <trkpt lat="47.726803" lon="2.21554">
        <ele>169.0</ele>
        <time>2022-01-13T09:50:20Z</time>
      </trkpt>
      <trkpt lat="47.72679" lon="2.215552">
        <ele>169.0</ele>
        <time>2022-01-13T09:50:21Z</time>
      </trkpt>
      <trkpt lat="47.72678" lon="2.2155614">
        <ele>170.0</ele>
        <time>2022-01-13T09:50:22Z</time>
      </trkpt>
      <trkpt lat="47.726765" lon="2.2155678">
        <ele>170.0</ele>
        <time>2022-01-13T09:50:23Z</time>
      </trkpt>
      <trkpt lat="47.726753" lon="2.2155726">
        <ele>170.0</ele>
        <time>2022-01-13T09:50:24Z</time>
      </trkpt>
      <trkpt lat="47.72674" lon="2.215586">
        <ele>170.0</ele>
        <time>2022-01-13T09:50:25Z</time>
      </trkpt>
      <trkpt lat="47.72673" lon="2.2155967">
        <ele>170.0</ele>
        <time>2022-01-13T09:50:26Z</time>
      </trkpt>
      <trkpt lat="47.72672" lon="2.215605">
        <ele>170.0</ele>
        <time>2022-01-13T09:50:27Z</time>
      </trkpt>
      <trkpt lat="47.726707" lon="2.2156143">
        <ele>171.0</ele>
        <time>2022-01-13T09:50:28Z</time>
      </trkpt>
      <trkpt lat="47.726696" lon="2.2156231">
        <ele>170.0</ele>
        <time>2022-01-13T09:50:29Z</time>
      </trkpt>
      <trkpt lat="47.72669" lon="2.215635">
        <ele>170.0</ele>
        <time>2022-01-13T09:50:30Z</time>
      </trkpt>
      <trkpt lat="47.72668" lon="2.2156456">
        <ele>171.0</ele>
        <time>2022-01-13T09:50:31Z</time>
      </trkpt>
      <trkpt lat="47.72667" lon="2.2156572">
        <ele>171.0</ele>
        <time>2022-01-13T09:50:32Z</time>
      </trkpt>
      <trkpt lat="47.72666" lon="2.2156734">
        <ele>171.0</ele>
        <time>2022-01-13T09:50:33Z</time>
      </trkpt>
      <trkpt lat="47.726654" lon="2.2156904">
        <ele>171.0</ele>
        <time>2022-01-13T09:50:34Z</time>
      </trkpt>
      <trkpt lat="47.726643" lon="2.2157009">
        <ele>171.0</ele>
        <time>2022-01-13T09:50:35Z</time>
      </trkpt>
      <trkpt lat="47.72663" lon="2.2157066">
        <ele>171.0</ele>
        <time>2022-01-13T09:50:36Z</time>
      </trkpt>
      <trkpt lat="47.72662" lon="2.2157242">
        <ele>171.0</ele>
        <time>2022-01-13T09:50:37Z</time>
      </trkpt>
      <trkpt lat="47.72661" lon="2.2157388">
        <ele>171.0</ele>
        <time>2022-01-13T09:50:38Z</time>
      </trkpt>
      <trkpt lat="47.7266" lon="2.2157557">
        <ele>171.0</ele>
        <time>2022-01-13T09:50:39Z</time>
      </trkpt>
      <trkpt lat="47.72659" lon="2.2157633">
        <ele>172.0</ele>
        <time>2022-01-13T09:50:40Z</time>
      </trkpt>
      <trkpt lat="47.72658" lon="2.215766">
        <ele>172.0</ele>
        <time>2022-01-13T09:50:41Z</time>
      </trkpt>
      <trkpt lat="47.72657" lon="2.2157726">
        <ele>172.0</ele>
        <time>2022-01-13T09:50:42Z</time>
      </trkpt>
      <trkpt lat="47.726562" lon="2.2157772">
        <ele>172.0</ele>
        <time>2022-01-13T09:50:43Z</time>
      </trkpt>
      <trkpt lat="47.726555" lon="2.2157805">
        <ele>172.0</ele>
        <time>2022-01-13T09:50:44Z</time>
      </trkpt>
      <trkpt lat="47.726547" lon="2.2157903">
        <ele>172.0</ele>
        <time>2022-01-13T09:50:45Z</time>
      </trkpt>
      <trkpt lat="47.72654" lon="2.2157962">
        <ele>172.0</ele>
        <time>2022-01-13T09:50:46Z</time>
      </trkpt>
      <trkpt lat="47.72653" lon="2.2157998">
        <ele>172.0</ele>
        <time>2022-01-13T09:50:47Z</time>
      </trkpt>
      <trkpt lat="47.726517" lon="2.2158022">
        <ele>172.0</ele>
        <time>2022-01-13T09:50:48Z</time>
      </trkpt>
      <trkpt lat="47.72651" lon="2.215815">
        <ele>172.0</ele>
        <time>2022-01-13T09:50:49Z</time>
      </trkpt>
      <trkpt lat="47.7265" lon="2.2158217">
        <ele>172.0</ele>
        <time>2022-01-13T09:50:50Z</time>
      </trkpt>
      <trkpt lat="47.72649" lon="2.2158298">
        <ele>171.0</ele>
        <time>2022-01-13T09:50:51Z</time>
      </trkpt>
      <trkpt lat="47.726482" lon="2.2158382">
        <ele>171.0</ele>
        <time>2022-01-13T09:50:52Z</time>
      </trkpt>
      <trkpt lat="47.72647" lon="2.2158508">
        <ele>171.0</ele>
        <time>2022-01-13T09:50:53Z</time>
      </trkpt>
      <trkpt lat="47.726463" lon="2.2158592">
        <ele>171.0</ele>
        <time>2022-01-13T09:50:54Z</time>
      </trkpt>
      <trkpt lat="47.72645" lon="2.2158704">
        <ele>171.0</ele>
        <time>2022-01-13T09:50:55Z</time>
      </trkpt>
      <trkpt lat="47.72644" lon="2.215884">
        <ele>171.0</ele>
        <time>2022-01-13T09:50:56Z</time>
      </trkpt>
      <trkpt lat="47.72643" lon="2.2158983">
        <ele>171.0</ele>
        <time>2022-01-13T09:50:57Z</time>
      </trkpt>
      <trkpt lat="47.72642" lon="2.215908">
        <ele>171.0</ele>
        <time>2022-01-13T09:50:58Z</time>
      </trkpt>
      <trkpt lat="47.726414" lon="2.215919">
        <ele>171.0</ele>
        <time>2022-01-13T09:50:59Z</time>
      </trkpt>
      <trkpt lat="47.726402" lon="2.215929">
        <ele>170.0</ele>
        <time>2022-01-13T09:51:00Z</time>
      </trkpt>
      <trkpt lat="47.72639" lon="2.2159402">
        <ele>171.0</ele>
        <time>2022-01-13T09:51:01Z</time>
      </trkpt>
      <trkpt lat="47.726383" lon="2.2159529">
        <ele>171.0</ele>
        <time>2022-01-13T09:51:02Z</time>
      </trkpt>
      <trkpt lat="47.72637" lon="2.21596">
        <ele>171.0</ele>
        <time>2022-01-13T09:51:03Z</time>
      </trkpt>
      <trkpt lat="47.72636" lon="2.2159634">
        <ele>171.0</ele>
        <time>2022-01-13T09:51:04Z</time>
      </trkpt>
      <trkpt lat="47.72635" lon="2.215969">
        <ele>171.0</ele>
        <time>2022-01-13T09:51:05Z</time>
      </trkpt>
      <trkpt lat="47.726337" lon="2.2159772">
        <ele>171.0</ele>
        <time>2022-01-13T09:51:06Z</time>
      </trkpt>
      <trkpt lat="47.726326" lon="2.2159843">
        <ele>171.0</ele>
        <time>2022-01-13T09:51:07Z</time>
      </trkpt>
      <trkpt lat="47.72632" lon="2.2159958">
        <ele>171.0</ele>
        <time>2022-01-13T09:51:08Z</time>
      </trkpt>
      <trkpt lat="47.726307" lon="2.2160087">
        <ele>171.0</ele>
        <time>2022-01-13T09:51:09Z</time>
      </trkpt>
      <trkpt lat="47.726295" lon="2.216023">
        <ele>171.0</ele>
        <time>2022-01-13T09:51:10Z</time>
      </trkpt>
      <trkpt lat="47.726288" lon="2.2160347">
        <ele>170.0</ele>
        <time>2022-01-13T09:51:11Z</time>
      </trkpt>
      <trkpt lat="47.726276" lon="2.2160454">
        <ele>170.0</ele>
        <time>2022-01-13T09:51:12Z</time>
      </trkpt>
      <trkpt lat="47.72627" lon="2.2160575">
        <ele>170.0</ele>
        <time>2022-01-13T09:51:13Z</time>
      </trkpt>
      <trkpt lat="47.72626" lon="2.216069">
        <ele>171.0</ele>
        <time>2022-01-13T09:51:14Z</time>
      </trkpt>
      <trkpt lat="47.72625" lon="2.2160823">
        <ele>171.0</ele>
        <time>2022-01-13T09:51:15Z</time>
      </trkpt>
      <trkpt lat="47.726242" lon="2.2160926">
        <ele>171.0</ele>
        <time>2022-01-13T09:51:16Z</time>
      </trkpt>
      <trkpt lat="47.72623" lon="2.216099">
        <ele>171.0</ele>
        <time>2022-01-13T09:51:17Z</time>
      </trkpt>
      <trkpt lat="47.726223" lon="2.216106">
        <ele>171.0</ele>
        <time>2022-01-13T09:51:18Z</time>
      </trkpt>
      <trkpt lat="47.726215" lon="2.2161152">
        <ele>171.0</ele>
        <time>2022-01-13T09:51:19Z</time>
      </trkpt>
      <trkpt lat="47.726208" lon="2.2161226">
        <ele>171.0</ele>
        <time>2022-01-13T09:51:20Z</time>
      </trkpt>
      <trkpt lat="47.7262" lon="2.216126">
        <ele>170.0</ele>
        <time>2022-01-13T09:51:21Z</time>
      </trkpt>
      <trkpt lat="47.72619" lon="2.2161388">
        <ele>170.0</ele>
        <time>2022-01-13T09:51:22Z</time>
      </trkpt>
      <trkpt lat="47.72618" lon="2.21615">
        <ele>170.0</ele>
        <time>2022-01-13T09:51:23Z</time>
      </trkpt>
      <trkpt lat="47.726173" lon="2.216158">
        <ele>170.0</ele>
        <time>2022-01-13T09:51:24Z</time>
      </trkpt>
      <trkpt lat="47.726166" lon="2.2161653">
        <ele>170.0</ele>
        <time>2022-01-13T09:51:25Z</time>
      </trkpt>
      <trkpt lat="47.726154" lon="2.2161736">
        <ele>170.0</ele>
        <time>2022-01-13T09:51:26Z</time>
      </trkpt>
      <trkpt lat="47.726143" lon="2.216181">
        <ele>170.0</ele>
        <time>2022-01-13T09:51:27Z</time>
      </trkpt>
      <trkpt lat="47.72613" lon="2.2161999">
        <ele>170.0</ele>
        <time>2022-01-13T09:51:28Z</time>
      </trkpt>
      <trkpt lat="47.726116" lon="2.2162156">
        <ele>169.0</ele>
        <time>2022-01-13T09:51:29Z</time>
      </trkpt>
      <trkpt lat="47.726105" lon="2.2162201">
        <ele>169.0</ele>
        <time>2022-01-13T09:51:30Z</time>
      </trkpt>
      <trkpt lat="47.726093" lon="2.216226">
        <ele>169.0</ele>
        <time>2022-01-13T09:51:31Z</time>
      </trkpt>
      <trkpt lat="47.726086" lon="2.2162364">
        <ele>169.0</ele>
        <time>2022-01-13T09:51:32Z</time>
      </trkpt>
      <trkpt lat="47.726078" lon="2.2162464">
        <ele>169.0</ele>
        <time>2022-01-13T09:51:33Z</time>
      </trkpt>
      <trkpt lat="47.726067" lon="2.2162588">
        <ele>169.0</ele>
        <time>2022-01-13T09:51:34Z</time>
      </trkpt>
      <trkpt lat="47.72606" lon="2.2162688">
        <ele>169.0</ele>
        <time>2022-01-13T09:51:35Z</time>
      </trkpt>
      <trkpt lat="47.72605" lon="2.2162762">
        <ele>169.0</ele>
        <time>2022-01-13T09:51:36Z</time>
      </trkpt>
      <trkpt lat="47.72604" lon="2.2162895">
        <ele>168.0</ele>
        <time>2022-01-13T09:51:37Z</time>
      </trkpt>
      <trkpt lat="47.726032" lon="2.2163033">
        <ele>168.0</ele>
        <time>2022-01-13T09:51:38Z</time>
      </trkpt>
      <trkpt lat="47.726025" lon="2.216317">
        <ele>169.0</ele>
        <time>2022-01-13T09:51:39Z</time>
      </trkpt>
      <trkpt lat="47.72602" lon="2.2163212">
        <ele>168.0</ele>
        <time>2022-01-13T09:51:40Z</time>
      </trkpt>
      <trkpt lat="47.726013" lon="2.2163274">
        <ele>168.0</ele>
        <time>2022-01-13T09:51:41Z</time>
      </trkpt>
      <trkpt lat="47.726" lon="2.2163367">
        <ele>168.0</ele>
        <time>2022-01-13T09:51:42Z</time>
      </trkpt>
      <trkpt lat="47.725994" lon="2.2163405">
        <ele>168.0</ele>
        <time>2022-01-13T09:51:43Z</time>
      </trkpt>
      <trkpt lat="47.725986" lon="2.2163453">
        <ele>168.0</ele>
        <time>2022-01-13T09:51:44Z</time>
      </trkpt>
      <trkpt lat="47.725983" lon="2.2163544">
        <ele>168.0</ele>
        <time>2022-01-13T09:51:45Z</time>
      </trkpt>
      <trkpt lat="47.725967" lon="2.2163644">
        <ele>168.0</ele>
        <time>2022-01-13T09:51:46Z</time>
      </trkpt>
      <trkpt lat="47.725956" lon="2.216374">
        <ele>168.0</ele>
        <time>2022-01-13T09:51:47Z</time>
      </trkpt>
      <trkpt lat="47.72595" lon="2.2163842">
        <ele>168.0</ele>
        <time>2022-01-13T09:51:48Z</time>
      </trkpt>
      <trkpt lat="47.72594" lon="2.2163937">
        <ele>168.0</ele>
        <time>2022-01-13T09:51:49Z</time>
      </trkpt>
      <trkpt lat="47.725933" lon="2.2164023">
        <ele>168.0</ele>
        <time>2022-01-13T09:51:50Z</time>
      </trkpt>
      <trkpt lat="47.725925" lon="2.2164073">
        <ele>168.0</ele>
        <time>2022-01-13T09:51:51Z</time>
      </trkpt>
      <trkpt lat="47.725914" lon="2.216415">
        <ele>168.0</ele>
        <time>2022-01-13T09:51:52Z</time>
      </trkpt>
      <trkpt lat="47.7259" lon="2.2164207">
        <ele>167.0</ele>
        <time>2022-01-13T09:51:53Z</time>
      </trkpt>
      <trkpt lat="47.72589" lon="2.2164257">
        <ele>168.0</ele>
        <time>2022-01-13T09:51:54Z</time>
      </trkpt>
      <trkpt lat="47.72588" lon="2.2164335">
        <ele>167.0</ele>
        <time>2022-01-13T09:51:55Z</time>
      </trkpt>
      <trkpt lat="47.725872" lon="2.2164402">
        <ele>167.0</ele>
        <time>2022-01-13T09:51:56Z</time>
      </trkpt>
      <trkpt lat="47.72586" lon="2.2164462">
        <ele>167.0</ele>
        <time>2022-01-13T09:51:57Z</time>
      </trkpt>
      <trkpt lat="47.72585" lon="2.2164505">
        <ele>167.0</ele>
        <time>2022-01-13T09:51:58Z</time>
      </trkpt>
      <trkpt lat="47.72584" lon="2.2164547">
        <ele>168.0</ele>
        <time>2022-01-13T09:51:59Z</time>
      </trkpt>
      <trkpt lat="47.72583" lon="2.2164593">
        <ele>168.0</ele>
        <time>2022-01-13T09:52:00Z</time>
      </trkpt>
      <trkpt lat="47.725822" lon="2.2164667">
        <ele>168.0</ele>
        <time>2022-01-13T09:52:01Z</time>
      </trkpt>
      <trkpt lat="47.725815" lon="2.2164786">
        <ele>168.0</ele>
        <time>2022-01-13T09:52:02Z</time>
      </trkpt>
      <trkpt lat="47.725807" lon="2.2164907">
        <ele>168.0</ele>
        <time>2022-01-13T09:52:03Z</time>
      </trkpt>
      <trkpt lat="47.725796" lon="2.2165022">
        <ele>168.0</ele>
        <time>2022-01-13T09:52:04Z</time>
      </trkpt>
      <trkpt lat="47.725792" lon="2.2165065">
        <ele>167.0</ele>
        <time>2022-01-13T09:52:05Z</time>
      </trkpt>
      <trkpt lat="47.725784" lon="2.2165103">
        <ele>167.0</ele>
        <time>2022-01-13T09:52:06Z</time>
      </trkpt>
      <trkpt lat="47.725777" lon="2.2165163">
        <ele>167.0</ele>
        <time>2022-01-13T09:52:07Z</time>
      </trkpt>
      <trkpt lat="47.72577" lon="2.2165184">
        <ele>166.0</ele>
        <time>2022-01-13T09:52:08Z</time>
      </trkpt>
      <trkpt lat="47.72576" lon="2.2165203">
        <ele>166.0</ele>
        <time>2022-01-13T09:52:09Z</time>
      </trkpt>
      <trkpt lat="47.725754" lon="2.2165236">
        <ele>166.0</ele>
        <time>2022-01-13T09:52:10Z</time>
      </trkpt>
      <trkpt lat="47.725746" lon="2.2165284">
        <ele>166.0</ele>
        <time>2022-01-13T09:52:11Z</time>
      </trkpt>
      <trkpt lat="47.72574" lon="2.2165394">
        <ele>165.0</ele>
        <time>2022-01-13T09:52:12Z</time>
      </trkpt>
      <trkpt lat="47.72573" lon="2.2165463">
        <ele>165.0</ele>
        <time>2022-01-13T09:52:13Z</time>
      </trkpt>
      <trkpt lat="47.725716" lon="2.2165554">
        <ele>164.0</ele>
        <time>2022-01-13T09:52:14Z</time>
      </trkpt>
      <trkpt lat="47.725704" lon="2.2165616">
        <ele>164.0</ele>
        <time>2022-01-13T09:52:15Z</time>
      </trkpt>
      <trkpt lat="47.725693" lon="2.2165675">
        <ele>164.0</ele>
        <time>2022-01-13T09:52:16Z</time>
      </trkpt>
      <trkpt lat="47.725685" lon="2.216574">
        <ele>164.0</ele>
        <time>2022-01-13T09:52:17Z</time>
      </trkpt>
      <trkpt lat="47.725674" lon="2.216579">
        <ele>164.0</ele>
        <time>2022-01-13T09:52:18Z</time>
      </trkpt>
      <trkpt lat="47.725666" lon="2.2165813">
        <ele>164.0</ele>
        <time>2022-01-13T09:52:19Z</time>
      </trkpt>
      <trkpt lat="47.72566" lon="2.2165835">
        <ele>163.0</ele>
        <time>2022-01-13T09:52:20Z</time>
      </trkpt>
      <trkpt lat="47.725647" lon="2.2165883">
        <ele>163.0</ele>
        <time>2022-01-13T09:52:21Z</time>
      </trkpt>
      <trkpt lat="47.72564" lon="2.216591">
        <ele>163.0</ele>
        <time>2022-01-13T09:52:22Z</time>
      </trkpt>
      <trkpt lat="47.725628" lon="2.2165942">
        <ele>162.0</ele>
        <time>2022-01-13T09:52:23Z</time>
      </trkpt>
      <trkpt lat="47.725616" lon="2.2166002">
        <ele>162.0</ele>
        <time>2022-01-13T09:52:24Z</time>
      </trkpt>
      <trkpt lat="47.72561" lon="2.2166083">
        <ele>162.0</ele>
        <time>2022-01-13T09:52:25Z</time>
      </trkpt>
      <trkpt lat="47.725597" lon="2.2166162">
        <ele>162.0</ele>
        <time>2022-01-13T09:52:26Z</time>
      </trkpt>
      <trkpt lat="47.725582" lon="2.216619">
        <ele>162.0</ele>
        <time>2022-01-13T09:52:27Z</time>
      </trkpt>
      <trkpt lat="47.725574" lon="2.2166228">
        <ele>163.0</ele>
        <time>2022-01-13T09:52:28Z</time>
      </trkpt>
      <trkpt lat="47.725563" lon="2.216622">
        <ele>162.0</ele>
        <time>2022-01-13T09:52:29Z</time>
      </trkpt>
      <trkpt lat="47.72555" lon="2.2166264">
        <ele>162.0</ele>
        <time>2022-01-13T09:52:30Z</time>
      </trkpt>
      <trkpt lat="47.72554" lon="2.2166305">
        <ele>162.0</ele>
        <time>2022-01-13T09:52:31Z</time>
      </trkpt>
      <trkpt lat="47.725525" lon="2.2166376">
        <ele>162.0</ele>
        <time>2022-01-13T09:52:32Z</time>
      </trkpt>
      <trkpt lat="47.725513" lon="2.216646">
        <ele>162.0</ele>
        <time>2022-01-13T09:52:33Z</time>
      </trkpt>
      <trkpt lat="47.725502" lon="2.2166557">
        <ele>162.0</ele>
        <time>2022-01-13T09:52:34Z</time>
      </trkpt>
      <trkpt lat="47.72549" lon="2.2166636">
        <ele>162.0</ele>
        <time>2022-01-13T09:52:35Z</time>
      </trkpt>
      <trkpt lat="47.725475" lon="2.2166684">
        <ele>162.0</ele>
        <time>2022-01-13T09:52:36Z</time>
      </trkpt>
      <trkpt lat="47.725464" lon="2.2166786">
        <ele>162.0</ele>
        <time>2022-01-13T09:52:37Z</time>
      </trkpt>
      <trkpt lat="47.725452" lon="2.216685">
        <ele>162.0</ele>
        <time>2022-01-13T09:52:38Z</time>
      </trkpt>
      <trkpt lat="47.72544" lon="2.2166884">
        <ele>162.0</ele>
        <time>2022-01-13T09:52:39Z</time>
      </trkpt>
      <trkpt lat="47.725433" lon="2.2166889">
        <ele>162.0</ele>
        <time>2022-01-13T09:52:40Z</time>
      </trkpt>
      <trkpt lat="47.72542" lon="2.2166934">
        <ele>162.0</ele>
        <time>2022-01-13T09:52:41Z</time>
      </trkpt>
      <trkpt lat="47.72541" lon="2.2166924">
        <ele>162.0</ele>
        <time>2022-01-13T09:52:42Z</time>
      </trkpt>
      <trkpt lat="47.7254" lon="2.2166924">
        <ele>162.0</ele>
        <time>2022-01-13T09:52:43Z</time>
      </trkpt>
      <trkpt lat="47.72539" lon="2.216689">
        <ele>162.0</ele>
        <time>2022-01-13T09:52:44Z</time>
      </trkpt>
      <trkpt lat="47.725384" lon="2.2166927">
        <ele>162.0</ele>
        <time>2022-01-13T09:52:45Z</time>
      </trkpt>
      <trkpt lat="47.725372" lon="2.2166948">
        <ele>162.0</ele>
        <time>2022-01-13T09:52:46Z</time>
      </trkpt>
      <trkpt lat="47.72536" lon="2.2166939">
        <ele>162.0</ele>
        <time>2022-01-13T09:52:47Z</time>
      </trkpt>
      <trkpt lat="47.725346" lon="2.216697">
        <ele>162.0</ele>
        <time>2022-01-13T09:52:48Z</time>
      </trkpt>
      <trkpt lat="47.725334" lon="2.2167017">
        <ele>161.0</ele>
        <time>2022-01-13T09:52:49Z</time>
      </trkpt>
      <trkpt lat="47.72532" lon="2.216706">
        <ele>161.0</ele>
        <time>2022-01-13T09:52:50Z</time>
      </trkpt>
      <trkpt lat="47.725307" lon="2.2167103">
        <ele>161.0</ele>
        <time>2022-01-13T09:52:51Z</time>
      </trkpt>
      <trkpt lat="47.725292" lon="2.2167165">
        <ele>160.0</ele>
        <time>2022-01-13T09:52:52Z</time>
      </trkpt>
      <trkpt lat="47.725285" lon="2.2167196">
        <ele>159.0</ele>
        <time>2022-01-13T09:52:53Z</time>
      </trkpt>
      <trkpt lat="47.725273" lon="2.2167218">
        <ele>159.0</ele>
        <time>2022-01-13T09:52:54Z</time>
      </trkpt>
      <trkpt lat="47.725266" lon="2.2167332">
        <ele>159.0</ele>
        <time>2022-01-13T09:52:55Z</time>
      </trkpt>
      <trkpt lat="47.725258" lon="2.2167435">
        <ele>158.0</ele>
        <time>2022-01-13T09:52:56Z</time>
      </trkpt>
      <trkpt lat="47.72525" lon="2.2167532">
        <ele>158.0</ele>
        <time>2022-01-13T09:52:57Z</time>
      </trkpt>
      <trkpt lat="47.72524" lon="2.216761">
        <ele>158.0</ele>
        <time>2022-01-13T09:52:58Z</time>
      </trkpt>
      <trkpt lat="47.72523" lon="2.216769">
        <ele>159.0</ele>
        <time>2022-01-13T09:52:59Z</time>
      </trkpt>
      <trkpt lat="47.725224" lon="2.2167795">
        <ele>159.0</ele>
        <time>2022-01-13T09:53:00Z</time>
      </trkpt>
      <trkpt lat="47.725216" lon="2.2167895">
        <ele>159.0</ele>
        <time>2022-01-13T09:53:01Z</time>
      </trkpt>
      <trkpt lat="47.725204" lon="2.216803">
        <ele>159.0</ele>
        <time>2022-01-13T09:53:02Z</time>
      </trkpt>
      <trkpt lat="47.725193" lon="2.216812">
        <ele>159.0</ele>
        <time>2022-01-13T09:53:03Z</time>
      </trkpt>
      <trkpt lat="47.725178" lon="2.216824">
        <ele>159.0</ele>
        <time>2022-01-13T09:53:04Z</time>
      </trkpt>
      <trkpt lat="47.725166" lon="2.2168355">
        <ele>159.0</ele>
        <time>2022-01-13T09:53:05Z</time>
      </trkpt>
      <trkpt lat="47.725155" lon="2.2168415">
        <ele>159.0</ele>
        <time>2022-01-13T09:53:06Z</time>
      </trkpt>
      <trkpt lat="47.725143" lon="2.216847">
        <ele>159.0</ele>
        <time>2022-01-13T09:53:07Z</time>
      </trkpt>
      <trkpt lat="47.725132" lon="2.2168553">
        <ele>159.0</ele>
        <time>2022-01-13T09:53:08Z</time>
      </trkpt>
      <trkpt lat="47.72512" lon="2.216861">
        <ele>159.0</ele>
        <time>2022-01-13T09:53:09Z</time>
      </trkpt>
      <trkpt lat="47.725105" lon="2.2168672">
        <ele>159.0</ele>
        <time>2022-01-13T09:53:10Z</time>
      </trkpt>
      <trkpt lat="47.725094" lon="2.2168722">
        <ele>159.0</ele>
        <time>2022-01-13T09:53:11Z</time>
      </trkpt>
      <trkpt lat="47.725082" lon="2.2168794">
        <ele>159.0</ele>
        <time>2022-01-13T09:53:12Z</time>
      </trkpt>
      <trkpt lat="47.72507" lon="2.2168846">
        <ele>159.0</ele>
        <time>2022-01-13T09:53:13Z</time>
      </trkpt>
      <trkpt lat="47.72506" lon="2.2168941">
        <ele>159.0</ele>
        <time>2022-01-13T09:53:14Z</time>
      </trkpt>
      <trkpt lat="47.72505" lon="2.2169027">
        <ele>160.0</ele>
        <time>2022-01-13T09:53:15Z</time>
      </trkpt>
      <trkpt lat="47.72504" lon="2.216909">
        <ele>160.0</ele>
        <time>2022-01-13T09:53:16Z</time>
      </trkpt>
      <trkpt lat="47.72503" lon="2.21692">
        <ele>160.0</ele>
        <time>2022-01-13T09:53:17Z</time>
      </trkpt>
      <trkpt lat="47.725018" lon="2.216925">
        <ele>160.0</ele>
        <time>2022-01-13T09:53:18Z</time>
      </trkpt>
      <trkpt lat="47.72501" lon="2.2169285">
        <ele>160.0</ele>
        <time>2022-01-13T09:53:19Z</time>
      </trkpt>
      <trkpt lat="47.725" lon="2.2169328">
        <ele>160.0</ele>
        <time>2022-01-13T09:53:20Z</time>
      </trkpt>
      <trkpt lat="47.72499" lon="2.2169385">
        <ele>160.0</ele>
        <time>2022-01-13T09:53:21Z</time>
      </trkpt>
      <trkpt lat="47.724976" lon="2.216944">
        <ele>160.0</ele>
        <time>2022-01-13T09:53:22Z</time>
      </trkpt>
      <trkpt lat="47.724968" lon="2.2169485">
        <ele>160.0</ele>
        <time>2022-01-13T09:53:23Z</time>
      </trkpt>
      <trkpt lat="47.724957" lon="2.216954">
        <ele>160.0</ele>
        <time>2022-01-13T09:53:24Z</time>
      </trkpt>
      <trkpt lat="47.72495" lon="2.2169611">
        <ele>160.0</ele>
        <time>2022-01-13T09:53:25Z</time>
      </trkpt>
      <trkpt lat="47.72494" lon="2.2169697">
        <ele>160.0</ele>
        <time>2022-01-13T09:53:26Z</time>
      </trkpt>
      <trkpt lat="47.72493" lon="2.2169762">
        <ele>159.0</ele>
        <time>2022-01-13T09:53:27Z</time>
      </trkpt>
      <trkpt lat="47.72492" lon="2.2169824">
        <ele>159.0</ele>
        <time>2022-01-13T09:53:28Z</time>
      </trkpt>
      <trkpt lat="47.724907" lon="2.2169826">
        <ele>159.0</ele>
        <time>2022-01-13T09:53:29Z</time>
      </trkpt>
      <trkpt lat="47.7249" lon="2.2169836">
        <ele>159.0</ele>
        <time>2022-01-13T09:53:30Z</time>
      </trkpt>
      <trkpt lat="47.72489" lon="2.216985">
        <ele>159.0</ele>
        <time>2022-01-13T09:53:31Z</time>
      </trkpt>
      <trkpt lat="47.72488" lon="2.2169905">
        <ele>159.0</ele>
        <time>2022-01-13T09:53:32Z</time>
      </trkpt>
      <trkpt lat="47.724865" lon="2.2169979">
        <ele>159.0</ele>
        <time>2022-01-13T09:53:33Z</time>
      </trkpt>
      <trkpt lat="47.724854" lon="2.2170026">
        <ele>159.0</ele>
        <time>2022-01-13T09:53:34Z</time>
      </trkpt>
      <trkpt lat="47.724842" lon="2.2170055">
        <ele>158.0</ele>
        <time>2022-01-13T09:53:35Z</time>
      </trkpt>
      <trkpt lat="47.724827" lon="2.2170146">
        <ele>158.0</ele>
        <time>2022-01-13T09:53:36Z</time>
      </trkpt>
      <trkpt lat="47.724815" lon="2.2170231">
        <ele>157.0</ele>
        <time>2022-01-13T09:53:37Z</time>
      </trkpt>
      <trkpt lat="47.7248" lon="2.2170317">
        <ele>157.0</ele>
        <time>2022-01-13T09:53:38Z</time>
      </trkpt>
      <trkpt lat="47.72479" lon="2.2170427">
        <ele>157.0</ele>
        <time>2022-01-13T09:53:39Z</time>
      </trkpt>
      <trkpt lat="47.72478" lon="2.217051">
        <ele>157.0</ele>
        <time>2022-01-13T09:53:40Z</time>
      </trkpt>
      <trkpt lat="47.724766" lon="2.2170608">
        <ele>156.0</ele>
        <time>2022-01-13T09:53:41Z</time>
      </trkpt>
      <trkpt lat="47.72476" lon="2.2170677">
        <ele>156.0</ele>
        <time>2022-01-13T09:53:42Z</time>
      </trkpt>
      <trkpt lat="47.724747" lon="2.2170756">
        <ele>156.0</ele>
        <time>2022-01-13T09:53:43Z</time>
      </trkpt>
      <trkpt lat="47.724735" lon="2.2170825">
        <ele>156.0</ele>
        <time>2022-01-13T09:53:44Z</time>
      </trkpt>
      <trkpt lat="47.724716" lon="2.2170851">
        <ele>157.0</ele>
        <time>2022-01-13T09:53:45Z</time>
      </trkpt>
      <trkpt lat="47.724705" lon="2.217091">
        <ele>157.0</ele>
        <time>2022-01-13T09:53:46Z</time>
      </trkpt>
      <trkpt lat="47.72469" lon="2.217099">
        <ele>157.0</ele>
        <time>2022-01-13T09:53:47Z</time>
      </trkpt>
      <trkpt lat="47.724678" lon="2.217105">
        <ele>157.0</ele>
        <time>2022-01-13T09:53:48Z</time>
      </trkpt>
      <trkpt lat="47.724667" lon="2.2171102">
        <ele>157.0</ele>
        <time>2022-01-13T09:53:49Z</time>
      </trkpt>
      <trkpt lat="47.724655" lon="2.2171185">
        <ele>157.0</ele>
        <time>2022-01-13T09:53:50Z</time>
      </trkpt>
      <trkpt lat="47.724644" lon="2.2171233">
        <ele>158.0</ele>
        <time>2022-01-13T09:53:51Z</time>
      </trkpt>
      <trkpt lat="47.724632" lon="2.2171352">
        <ele>158.0</ele>
        <time>2022-01-13T09:53:52Z</time>
      </trkpt>
      <trkpt lat="47.724625" lon="2.2171428">
        <ele>158.0</ele>
        <time>2022-01-13T09:53:53Z</time>
      </trkpt>
      <trkpt lat="47.724613" lon="2.21715">
        <ele>158.0</ele>
        <time>2022-01-13T09:53:54Z</time>
      </trkpt>
      <trkpt lat="47.7246" lon="2.2171578">
        <ele>158.0</ele>
        <time>2022-01-13T09:53:55Z</time>
      </trkpt>
      <trkpt lat="47.724594" lon="2.2171633">
        <ele>158.0</ele>
        <time>2022-01-13T09:53:56Z</time>
      </trkpt>
      <trkpt lat="47.724583" lon="2.2171743">
        <ele>158.0</ele>
        <time>2022-01-13T09:53:57Z</time>
      </trkpt>
      <trkpt lat="47.724575" lon="2.217183">
        <ele>158.0</ele>
        <time>2022-01-13T09:53:58Z</time>
      </trkpt>
      <trkpt lat="47.724564" lon="2.2171912">
        <ele>158.0</ele>
        <time>2022-01-13T09:53:59Z</time>
      </trkpt>
      <trkpt lat="47.724552" lon="2.217207">
        <ele>158.0</ele>
        <time>2022-01-13T09:54:00Z</time>
      </trkpt>
      <trkpt lat="47.724545" lon="2.2172198">
        <ele>159.0</ele>
        <time>2022-01-13T09:54:01Z</time>
      </trkpt>
      <trkpt lat="47.724533" lon="2.2172334">
        <ele>159.0</ele>
        <time>2022-01-13T09:54:02Z</time>
      </trkpt>
      <trkpt lat="47.724525" lon="2.2172413">
        <ele>158.0</ele>
        <time>2022-01-13T09:54:03Z</time>
      </trkpt>
      <trkpt lat="47.724518" lon="2.2172515">
        <ele>158.0</ele>
        <time>2022-01-13T09:54:04Z</time>
      </trkpt>
      <trkpt lat="47.72451" lon="2.217262">
        <ele>158.0</ele>
        <time>2022-01-13T09:54:05Z</time>
      </trkpt>
      <trkpt lat="47.724503" lon="2.217271">
        <ele>158.0</ele>
        <time>2022-01-13T09:54:06Z</time>
      </trkpt>
      <trkpt lat="47.724495" lon="2.217283">
        <ele>158.0</ele>
        <time>2022-01-13T09:54:07Z</time>
      </trkpt>
      <trkpt lat="47.724483" lon="2.2172909">
        <ele>157.0</ele>
        <time>2022-01-13T09:54:08Z</time>
      </trkpt>
      <trkpt lat="47.724472" lon="2.2172978">
        <ele>157.0</ele>
        <time>2022-01-13T09:54:09Z</time>
      </trkpt>
      <trkpt lat="47.72446" lon="2.2173054">
        <ele>157.0</ele>
        <time>2022-01-13T09:54:10Z</time>
      </trkpt>
      <trkpt lat="47.72445" lon="2.2173157">
        <ele>157.0</ele>
        <time>2022-01-13T09:54:11Z</time>
      </trkpt>
      <trkpt lat="47.72444" lon="2.2173269">
        <ele>158.0</ele>
        <time>2022-01-13T09:54:12Z</time>
      </trkpt>
      <trkpt lat="47.724426" lon="2.217338">
        <ele>157.0</ele>
        <time>2022-01-13T09:54:13Z</time>
      </trkpt>
      <trkpt lat="47.72442" lon="2.2173486">
        <ele>158.0</ele>
        <time>2022-01-13T09:54:14Z</time>
      </trkpt>
      <trkpt lat="47.72441" lon="2.2173603">
        <ele>158.0</ele>
        <time>2022-01-13T09:54:15Z</time>
      </trkpt>
      <trkpt lat="47.7244" lon="2.2173696">
        <ele>158.0</ele>
        <time>2022-01-13T09:54:16Z</time>
      </trkpt>
      <trkpt lat="47.72438" lon="2.2173853">
        <ele>158.0</ele>
        <time>2022-01-13T09:54:17Z</time>
      </trkpt>
      <trkpt lat="47.72438" lon="2.2173853">
        <ele>158.0</ele>
        <time>2022-01-13T09:54:17Z</time>
      </trkpt>
      <trkpt lat="47.72437" lon="2.217397">
        <ele>158.0</ele>
        <time>2022-01-13T09:54:19Z</time>
      </trkpt>
      <trkpt lat="47.724358" lon="2.2174163">
        <ele>158.0</ele>
        <time>2022-01-13T09:54:20Z</time>
      </trkpt>
      <trkpt lat="47.72435" lon="2.2174306">
        <ele>158.0</ele>
        <time>2022-01-13T09:54:21Z</time>
      </trkpt>
      <trkpt lat="47.72434" lon="2.2174418">
        <ele>158.0</ele>
        <time>2022-01-13T09:54:22Z</time>
      </trkpt>
      <trkpt lat="47.724327" lon="2.2174542">
        <ele>158.0</ele>
        <time>2022-01-13T09:54:23Z</time>
      </trkpt>
      <trkpt lat="47.724316" lon="2.2174668">
        <ele>158.0</ele>
        <time>2022-01-13T09:54:24Z</time>
      </trkpt>
      <trkpt lat="47.724297" lon="2.2174854">
        <ele>159.0</ele>
        <time>2022-01-13T09:54:25Z</time>
      </trkpt>
      <trkpt lat="47.724297" lon="2.2174854">
        <ele>159.0</ele>
        <time>2022-01-13T09:54:25Z</time>
      </trkpt>
      <trkpt lat="47.72429" lon="2.217492">
        <ele>159.0</ele>
        <time>2022-01-13T09:54:27Z</time>
      </trkpt>
      <trkpt lat="47.72428" lon="2.2175066">
        <ele>159.0</ele>
        <time>2022-01-13T09:54:28Z</time>
      </trkpt>
      <trkpt lat="47.72427" lon="2.2175143">
        <ele>160.0</ele>
        <time>2022-01-13T09:54:29Z</time>
      </trkpt>
      <trkpt lat="47.72426" lon="2.2175212">
        <ele>160.0</ele>
        <time>2022-01-13T09:54:30Z</time>
      </trkpt>
      <trkpt lat="47.724236" lon="2.2175362">
        <ele>160.0</ele>
        <time>2022-01-13T09:54:31Z</time>
      </trkpt>
      <trkpt lat="47.724224" lon="2.2175438">
        <ele>160.0</ele>
        <time>2022-01-13T09:54:32Z</time>
      </trkpt>
      <trkpt lat="47.724213" lon="2.2175581">
        <ele>161.0</ele>
        <time>2022-01-13T09:54:33Z</time>
      </trkpt>
      <trkpt lat="47.724205" lon="2.2175655">
        <ele>161.0</ele>
        <time>2022-01-13T09:54:34Z</time>
      </trkpt>
      <trkpt lat="47.724194" lon="2.2175703">
        <ele>161.0</ele>
        <time>2022-01-13T09:54:35Z</time>
      </trkpt>
      <trkpt lat="47.724194" lon="2.2175703">
        <ele>161.0</ele>
        <time>2022-01-13T09:54:35Z</time>
      </trkpt>
      <trkpt lat="47.724182" lon="2.2175777">
        <ele>162.0</ele>
        <time>2022-01-13T09:54:37Z</time>
      </trkpt>
      <trkpt lat="47.724174" lon="2.2175858">
        <ele>161.0</ele>
        <time>2022-01-13T09:54:38Z</time>
      </trkpt>
      <trkpt lat="47.724163" lon="2.2175932">
        <ele>162.0</ele>
        <time>2022-01-13T09:54:39Z</time>
      </trkpt>
      <trkpt lat="47.72415" lon="2.2176013">
        <ele>162.0</ele>
        <time>2022-01-13T09:54:40Z</time>
      </trkpt>
      <trkpt lat="47.72414" lon="2.21761">
        <ele>162.0</ele>
        <time>2022-01-13T09:54:41Z</time>
      </trkpt>
      <trkpt lat="47.72413" lon="2.21762">
        <ele>162.0</ele>
        <time>2022-01-13T09:54:42Z</time>
      </trkpt>
      <trkpt lat="47.72412" lon="2.2176273">
        <ele>162.0</ele>
        <time>2022-01-13T09:54:43Z</time>
      </trkpt>
      <trkpt lat="47.7241" lon="2.2176461">
        <ele>162.0</ele>
        <time>2022-01-13T09:54:44Z</time>
      </trkpt>
      <trkpt lat="47.72409" lon="2.2176576">
        <ele>162.0</ele>
        <time>2022-01-13T09:54:45Z</time>
      </trkpt>
      <trkpt lat="47.72409" lon="2.2176576">
        <ele>162.0</ele>
        <time>2022-01-13T09:54:45Z</time>
      </trkpt>
      <trkpt lat="47.724064" lon="2.2176826">
        <ele>161.0</ele>
        <time>2022-01-13T09:54:47Z</time>
      </trkpt>
      <trkpt lat="47.724052" lon="2.2177014">
        <ele>161.0</ele>
        <time>2022-01-13T09:54:48Z</time>
      </trkpt>
      <trkpt lat="47.724052" lon="2.2177014">
        <ele>161.0</ele>
        <time>2022-01-13T09:54:48Z</time>
      </trkpt>
      <trkpt lat="47.72404" lon="2.2177145">
        <ele>161.0</ele>
        <time>2022-01-13T09:54:50Z</time>
      </trkpt>
      <trkpt lat="47.72402" lon="2.2177281">
        <ele>161.0</ele>
        <time>2022-01-13T09:54:51Z</time>
      </trkpt>
      <trkpt lat="47.724007" lon="2.217735">
        <ele>161.0</ele>
        <time>2022-01-13T09:54:52Z</time>
      </trkpt>
      <trkpt lat="47.723995" lon="2.2177396">
        <ele>160.0</ele>
        <time>2022-01-13T09:54:53Z</time>
      </trkpt>
      <trkpt lat="47.72398" lon="2.2177444">
        <ele>160.0</ele>
        <time>2022-01-13T09:54:54Z</time>
      </trkpt>
      <trkpt lat="47.72397" lon="2.217746">
        <ele>160.0</ele>
        <time>2022-01-13T09:54:55Z</time>
      </trkpt>
      <trkpt lat="47.723957" lon="2.2177453">
        <ele>160.0</ele>
        <time>2022-01-13T09:54:56Z</time>
      </trkpt>
      <trkpt lat="47.723957" lon="2.2177453">
        <ele>160.0</ele>
        <time>2022-01-13T09:54:56Z</time>
      </trkpt>
      <trkpt lat="47.723934" lon="2.2177536">
        <ele>160.0</ele>
        <time>2022-01-13T09:54:58Z</time>
      </trkpt>
      <trkpt lat="47.723927" lon="2.217763">
        <ele>160.0</ele>
        <time>2022-01-13T09:54:59Z</time>
      </trkpt>
      <trkpt lat="47.723915" lon="2.2177715">
        <ele>161.0</ele>
        <time>2022-01-13T09:55:00Z</time>
      </trkpt>
      <trkpt lat="47.723904" lon="2.2177763">
        <ele>160.0</ele>
        <time>2022-01-13T09:55:01Z</time>
      </trkpt>
      <trkpt lat="47.72389" lon="2.2177749">
        <ele>160.0</ele>
        <time>2022-01-13T09:55:02Z</time>
      </trkpt>
      <trkpt lat="47.723873" lon="2.2177794">
        <ele>160.0</ele>
        <time>2022-01-13T09:55:03Z</time>
      </trkpt>
      <trkpt lat="47.72386" lon="2.2177844">
        <ele>160.0</ele>
        <time>2022-01-13T09:55:04Z</time>
      </trkpt>
      <trkpt lat="47.723854" lon="2.2177901">
        <ele>160.0</ele>
        <time>2022-01-13T09:55:05Z</time>
      </trkpt>
      <trkpt lat="47.723843" lon="2.2177958">
        <ele>159.0</ele>
        <time>2022-01-13T09:55:06Z</time>
      </trkpt>
      <trkpt lat="47.72383" lon="2.2178006">
        <ele>159.0</ele>
        <time>2022-01-13T09:55:07Z</time>
      </trkpt>
      <trkpt lat="47.72382" lon="2.217806">
        <ele>159.0</ele>
        <time>2022-01-13T09:55:08Z</time>
      </trkpt>
      <trkpt lat="47.723804" lon="2.217809">
        <ele>159.0</ele>
        <time>2022-01-13T09:55:09Z</time>
      </trkpt>
      <trkpt lat="47.72379" lon="2.217809">
        <ele>159.0</ele>
        <time>2022-01-13T09:55:10Z</time>
      </trkpt>
      <trkpt lat="47.723774" lon="2.2178123">
        <ele>159.0</ele>
        <time>2022-01-13T09:55:11Z</time>
      </trkpt>
      <trkpt lat="47.723763" lon="2.217818">
        <ele>159.0</ele>
        <time>2022-01-13T09:55:12Z</time>
      </trkpt>
      <trkpt lat="47.723747" lon="2.2178247">
        <ele>160.0</ele>
        <time>2022-01-13T09:55:13Z</time>
      </trkpt>
      <trkpt lat="47.723736" lon="2.2178314">
        <ele>160.0</ele>
        <time>2022-01-13T09:55:14Z</time>
      </trkpt>
      <trkpt lat="47.723724" lon="2.217841">
        <ele>160.0</ele>
        <time>2022-01-13T09:55:15Z</time>
      </trkpt>
      <trkpt lat="47.723713" lon="2.2178493">
        <ele>160.0</ele>
        <time>2022-01-13T09:55:16Z</time>
      </trkpt>
      <trkpt lat="47.7237" lon="2.2178526">
        <ele>160.0</ele>
        <time>2022-01-13T09:55:17Z</time>
      </trkpt>
      <trkpt lat="47.723686" lon="2.2178562">
        <ele>161.0</ele>
        <time>2022-01-13T09:55:18Z</time>
      </trkpt>
      <trkpt lat="47.723675" lon="2.2178686">
        <ele>161.0</ele>
        <time>2022-01-13T09:55:19Z</time>
      </trkpt>
      <trkpt lat="47.723663" lon="2.2178776">
        <ele>161.0</ele>
        <time>2022-01-13T09:55:20Z</time>
      </trkpt>
      <trkpt lat="47.72365" lon="2.217883">
        <ele>161.0</ele>
        <time>2022-01-13T09:55:21Z</time>
      </trkpt>
      <trkpt lat="47.723637" lon="2.217882">
        <ele>161.0</ele>
        <time>2022-01-13T09:55:23Z</time>
      </trkpt>
      <trkpt lat="47.72362" lon="2.2178853">
        <ele>161.0</ele>
        <time>2022-01-13T09:55:24Z</time>
      </trkpt>
      <trkpt lat="47.72361" lon="2.21789">
        <ele>161.0</ele>
        <time>2022-01-13T09:55:25Z</time>
      </trkpt>
      <trkpt lat="47.7236" lon="2.2178934">
        <ele>161.0</ele>
        <time>2022-01-13T09:55:26Z</time>
      </trkpt>
      <trkpt lat="47.723587" lon="2.2178984">
        <ele>161.0</ele>
        <time>2022-01-13T09:55:27Z</time>
      </trkpt>
      <trkpt lat="47.72358" lon="2.2179055">
        <ele>162.0</ele>
        <time>2022-01-13T09:55:28Z</time>
      </trkpt>
      <trkpt lat="47.723568" lon="2.2179163">
        <ele>161.0</ele>
        <time>2022-01-13T09:55:29Z</time>
      </trkpt>
      <trkpt lat="47.723557" lon="2.2179203">
        <ele>161.0</ele>
        <time>2022-01-13T09:55:30Z</time>
      </trkpt>
      <trkpt lat="47.723545" lon="2.2179227">
        <ele>162.0</ele>
        <time>2022-01-13T09:55:31Z</time>
      </trkpt>
      <trkpt lat="47.723537" lon="2.2179258">
        <ele>162.0</ele>
        <time>2022-01-13T09:55:32Z</time>
      </trkpt>
      <trkpt lat="47.723526" lon="2.217928">
        <ele>162.0</ele>
        <time>2022-01-13T09:55:33Z</time>
      </trkpt>
      <trkpt lat="47.723515" lon="2.2179334">
        <ele>162.0</ele>
        <time>2022-01-13T09:55:34Z</time>
      </trkpt>
      <trkpt lat="47.723503" lon="2.2179444">
        <ele>162.0</ele>
        <time>2022-01-13T09:55:35Z</time>
      </trkpt>
      <trkpt lat="47.723488" lon="2.2179544">
        <ele>162.0</ele>
        <time>2022-01-13T09:55:36Z</time>
      </trkpt>
      <trkpt lat="47.72348" lon="2.2179651">
        <ele>162.0</ele>
        <time>2022-01-13T09:55:37Z</time>
      </trkpt>
      <trkpt lat="47.72347" lon="2.2179682">
        <ele>162.0</ele>
        <time>2022-01-13T09:55:38Z</time>
      </trkpt>
      <trkpt lat="47.723457" lon="2.2179732">
        <ele>163.0</ele>
        <time>2022-01-13T09:55:39Z</time>
      </trkpt>
      <trkpt lat="47.723446" lon="2.2179756">
        <ele>163.0</ele>
        <time>2022-01-13T09:55:40Z</time>
      </trkpt>
      <trkpt lat="47.72344" lon="2.2179801">
        <ele>163.0</ele>
        <time>2022-01-13T09:55:41Z</time>
      </trkpt>
      <trkpt lat="47.723427" lon="2.217989">
        <ele>163.0</ele>
        <time>2022-01-13T09:55:42Z</time>
      </trkpt>
      <trkpt lat="47.723415" lon="2.2179933">
        <ele>164.0</ele>
        <time>2022-01-13T09:55:43Z</time>
      </trkpt>
      <trkpt lat="47.723404" lon="2.217997">
        <ele>164.0</ele>
        <time>2022-01-13T09:55:44Z</time>
      </trkpt>
      <trkpt lat="47.723392" lon="2.2179997">
        <ele>164.0</ele>
        <time>2022-01-13T09:55:45Z</time>
      </trkpt>
      <trkpt lat="47.72338" lon="2.2180042">
        <ele>164.0</ele>
        <time>2022-01-13T09:55:46Z</time>
      </trkpt>
      <trkpt lat="47.72337" lon="2.218005">
        <ele>164.0</ele>
        <time>2022-01-13T09:55:47Z</time>
      </trkpt>
      <trkpt lat="47.723354" lon="2.218006">
        <ele>164.0</ele>
        <time>2022-01-13T09:55:48Z</time>
      </trkpt>
      <trkpt lat="47.723343" lon="2.2180111">
        <ele>164.0</ele>
        <time>2022-01-13T09:55:49Z</time>
      </trkpt>
      <trkpt lat="47.72333" lon="2.2180176">
        <ele>164.0</ele>
        <time>2022-01-13T09:55:50Z</time>
      </trkpt>
      <trkpt lat="47.72332" lon="2.2180235">
        <ele>164.0</ele>
        <time>2022-01-13T09:55:51Z</time>
      </trkpt>
      <trkpt lat="47.723305" lon="2.2180293">
        <ele>164.0</ele>
        <time>2022-01-13T09:55:52Z</time>
      </trkpt>
      <trkpt lat="47.723293" lon="2.2180362">
        <ele>165.0</ele>
        <time>2022-01-13T09:55:53Z</time>
      </trkpt>
      <trkpt lat="47.72328" lon="2.2180402">
        <ele>165.0</ele>
        <time>2022-01-13T09:55:54Z</time>
      </trkpt>
      <trkpt lat="47.72327" lon="2.2180433">
        <ele>165.0</ele>
        <time>2022-01-13T09:55:55Z</time>
      </trkpt>
      <trkpt lat="47.723255" lon="2.2180429">
        <ele>165.0</ele>
        <time>2022-01-13T09:55:56Z</time>
      </trkpt>
      <trkpt lat="47.723244" lon="2.2180443">
        <ele>165.0</ele>
        <time>2022-01-13T09:55:57Z</time>
      </trkpt>
      <trkpt lat="47.723232" lon="2.218049">
        <ele>165.0</ele>
        <time>2022-01-13T09:55:58Z</time>
      </trkpt>
      <trkpt lat="47.723217" lon="2.2180557">
        <ele>165.0</ele>
        <time>2022-01-13T09:55:59Z</time>
      </trkpt>
      <trkpt lat="47.723206" lon="2.2180614">
        <ele>165.0</ele>
        <time>2022-01-13T09:56:00Z</time>
      </trkpt>
      <trkpt lat="47.72319" lon="2.2180643">
        <ele>165.0</ele>
        <time>2022-01-13T09:56:01Z</time>
      </trkpt>
      <trkpt lat="47.723175" lon="2.2180722">
        <ele>165.0</ele>
        <time>2022-01-13T09:56:02Z</time>
      </trkpt>
      <trkpt lat="47.723164" lon="2.2180738">
        <ele>165.0</ele>
        <time>2022-01-13T09:56:03Z</time>
      </trkpt>
      <trkpt lat="47.723152" lon="2.218071">
        <ele>165.0</ele>
        <time>2022-01-13T09:56:04Z</time>
      </trkpt>
      <trkpt lat="47.72314" lon="2.218072">
        <ele>165.0</ele>
        <time>2022-01-13T09:56:05Z</time>
      </trkpt>
      <trkpt lat="47.723133" lon="2.2180743">
        <ele>165.0</ele>
        <time>2022-01-13T09:56:06Z</time>
      </trkpt>
      <trkpt lat="47.72312" lon="2.218076">
        <ele>165.0</ele>
        <time>2022-01-13T09:56:07Z</time>
      </trkpt>
      <trkpt lat="47.72311" lon="2.2180817">
        <ele>165.0</ele>
        <time>2022-01-13T09:56:08Z</time>
      </trkpt>
      <trkpt lat="47.7231" lon="2.2180903">
        <ele>165.0</ele>
        <time>2022-01-13T09:56:09Z</time>
      </trkpt>
      <trkpt lat="47.723087" lon="2.2180986">
        <ele>165.0</ele>
        <time>2022-01-13T09:56:10Z</time>
      </trkpt>
      <trkpt lat="47.723076" lon="2.2181008">
        <ele>165.0</ele>
        <time>2022-01-13T09:56:11Z</time>
      </trkpt>
      <trkpt lat="47.723064" lon="2.2181022">
        <ele>165.0</ele>
        <time>2022-01-13T09:56:12Z</time>
      </trkpt>
      <trkpt lat="47.72305" lon="2.2181048">
        <ele>165.0</ele>
        <time>2022-01-13T09:56:13Z</time>
      </trkpt>
      <trkpt lat="47.723038" lon="2.218105">
        <ele>165.0</ele>
        <time>2022-01-13T09:56:14Z</time>
      </trkpt>
      <trkpt lat="47.723022" lon="2.2181072">
        <ele>165.0</ele>
        <time>2022-01-13T09:56:15Z</time>
      </trkpt>
      <trkpt lat="47.723015" lon="2.2181098">
        <ele>166.0</ele>
        <time>2022-01-13T09:56:16Z</time>
      </trkpt>
      <trkpt lat="47.723003" lon="2.2181113">
        <ele>166.0</ele>
        <time>2022-01-13T09:56:17Z</time>
      </trkpt>
      <trkpt lat="47.722992" lon="2.218112">
        <ele>166.0</ele>
        <time>2022-01-13T09:56:18Z</time>
      </trkpt>
      <trkpt lat="47.722984" lon="2.2181106">
        <ele>167.0</ele>
        <time>2022-01-13T09:56:19Z</time>
      </trkpt>
      <trkpt lat="47.722977" lon="2.2181137">
        <ele>167.0</ele>
        <time>2022-01-13T09:56:20Z</time>
      </trkpt>
      <trkpt lat="47.72297" lon="2.2181184">
        <ele>167.0</ele>
        <time>2022-01-13T09:56:21Z</time>
      </trkpt>
      <trkpt lat="47.722965" lon="2.218125">
        <ele>168.0</ele>
        <time>2022-01-13T09:56:22Z</time>
      </trkpt>
      <trkpt lat="47.722958" lon="2.2181342">
        <ele>167.0</ele>
        <time>2022-01-13T09:56:23Z</time>
      </trkpt>
      <trkpt lat="47.722958" lon="2.2181346">
        <ele>167.0</ele>
        <time>2022-01-13T09:56:24Z</time>
      </trkpt>
      <trkpt lat="47.722958" lon="2.2181346">
        <ele>167.0</ele>
        <time>2022-01-13T09:56:25Z</time>
      </trkpt>
      <trkpt lat="47.722958" lon="2.2181346">
        <ele>167.0</ele>
        <time>2022-01-13T09:56:26Z</time>
      </trkpt>
      <trkpt lat="47.722958" lon="2.2181346">
        <ele>167.0</ele>
        <time>2022-01-13T09:56:27Z</time>
      </trkpt>
      <trkpt lat="47.722958" lon="2.2181346">
        <ele>167.0</ele>
        <time>2022-01-13T09:56:27Z</time>
      </trkpt>
    </trkseg>
    <trkseg>
      <trkpt lat="47.722958" lon="2.2181346">
        <ele>167.0</ele>
        <time>2022-01-13T09:56:27Z</time>
      </trkpt>
      <trkpt lat="47.722904" lon="2.2181075">
        <ele>169.0</ele>
        <time>2022-01-13T09:56:41Z</time>
      </trkpt>
      <trkpt lat="47.722904" lon="2.2181191">
        <ele>168.0</ele>
        <time>2022-01-13T09:56:42Z</time>
      </trkpt>
      <trkpt lat="47.722897" lon="2.218134">
        <ele>168.0</ele>
        <time>2022-01-13T09:56:43Z</time>
      </trkpt>
      <trkpt lat="47.722893" lon="2.218139">
        <ele>168.0</ele>
        <time>2022-01-13T09:56:44Z</time>
      </trkpt>
      <trkpt lat="47.72289" lon="2.2181485">
        <ele>168.0</ele>
        <time>2022-01-13T09:56:45Z</time>
      </trkpt>
      <trkpt lat="47.722885" lon="2.218169">
        <ele>168.0</ele>
        <time>2022-01-13T09:56:46Z</time>
      </trkpt>
      <trkpt lat="47.722885" lon="2.218169">
        <ele>168.0</ele>
        <time>2022-01-13T09:56:47Z</time>
      </trkpt>
      <trkpt lat="47.722885" lon="2.218169">
        <ele>168.0</ele>
        <time>2022-01-13T09:56:48Z</time>
      </trkpt>
      <trkpt lat="47.722874" lon="2.2181923">
        <ele>169.0</ele>
        <time>2022-01-13T09:56:49Z</time>
      </trkpt>
      <trkpt lat="47.72287" lon="2.2182016">
        <ele>169.0</ele>
        <time>2022-01-13T09:56:50Z</time>
      </trkpt>
      <trkpt lat="47.722866" lon="2.2182148">
        <ele>169.0</ele>
        <time>2022-01-13T09:56:51Z</time>
      </trkpt>
      <trkpt lat="47.722862" lon="2.2182333">
        <ele>170.0</ele>
        <time>2022-01-13T09:56:52Z</time>
      </trkpt>
      <trkpt lat="47.72286" lon="2.2182426">
        <ele>169.0</ele>
        <time>2022-01-13T09:56:53Z</time>
      </trkpt>
      <trkpt lat="47.722862" lon="2.2182472">
        <ele>169.0</ele>
        <time>2022-01-13T09:56:54Z</time>
      </trkpt>
      <trkpt lat="47.722862" lon="2.2182577">
        <ele>169.0</ele>
        <time>2022-01-13T09:56:55Z</time>
      </trkpt>
      <trkpt lat="47.72287" lon="2.2182615">
        <ele>170.0</ele>
        <time>2022-01-13T09:56:56Z</time>
      </trkpt>
      <trkpt lat="47.722874" lon="2.2182693">
        <ele>170.0</ele>
        <time>2022-01-13T09:56:57Z</time>
      </trkpt>
      <trkpt lat="47.722874" lon="2.2182784">
        <ele>170.0</ele>
        <time>2022-01-13T09:56:58Z</time>
      </trkpt>
      <trkpt lat="47.722878" lon="2.218288">
        <ele>171.0</ele>
        <time>2022-01-13T09:56:59Z</time>
      </trkpt>
      <trkpt lat="47.72288" lon="2.218295">
        <ele>171.0</ele>
        <time>2022-01-13T09:57:00Z</time>
      </trkpt>
      <trkpt lat="47.72288" lon="2.2183">
        <ele>171.0</ele>
        <time>2022-01-13T09:57:01Z</time>
      </trkpt>
      <trkpt lat="47.72288" lon="2.2183075">
        <ele>171.0</ele>
        <time>2022-01-13T09:57:02Z</time>
      </trkpt>
      <trkpt lat="47.72288" lon="2.2183075">
        <ele>171.0</ele>
        <time>2022-01-13T09:57:03Z</time>
      </trkpt>
      <trkpt lat="47.72288" lon="2.2183075">
        <ele>171.0</ele>
        <time>2022-01-13T09:57:04Z</time>
      </trkpt>
      <trkpt lat="47.722893" lon="2.2183256">
        <ele>172.0</ele>
        <time>2022-01-13T09:57:05Z</time>
      </trkpt>
      <trkpt lat="47.722904" lon="2.2183294">
        <ele>172.0</ele>
        <time>2022-01-13T09:57:06Z</time>
      </trkpt>
      <trkpt lat="47.72291" lon="2.218337">
        <ele>172.0</ele>
        <time>2022-01-13T09:57:07Z</time>
      </trkpt>
      <trkpt lat="47.72292" lon="2.2183475">
        <ele>172.0</ele>
        <time>2022-01-13T09:57:08Z</time>
      </trkpt>
      <trkpt lat="47.722923" lon="2.218357">
        <ele>172.0</ele>
        <time>2022-01-13T09:57:09Z</time>
      </trkpt>
      <trkpt lat="47.72293" lon="2.2183707">
        <ele>172.0</ele>
        <time>2022-01-13T09:57:10Z</time>
      </trkpt>
      <trkpt lat="47.72294" lon="2.2183845">
        <ele>172.0</ele>
        <time>2022-01-13T09:57:11Z</time>
      </trkpt>
      <trkpt lat="47.72294" lon="2.2183845">
        <ele>172.0</ele>
        <time>2022-01-13T09:57:12Z</time>
      </trkpt>
      <trkpt lat="47.72295" lon="2.2183995">
        <ele>171.0</ele>
        <time>2022-01-13T09:57:13Z</time>
      </trkpt>
      <trkpt lat="47.722958" lon="2.2184067">
        <ele>171.0</ele>
        <time>2022-01-13T09:57:14Z</time>
      </trkpt>
      <trkpt lat="47.72297" lon="2.2184134">
        <ele>172.0</ele>
        <time>2022-01-13T09:57:15Z</time>
      </trkpt>
      <trkpt lat="47.722977" lon="2.2184207">
        <ele>172.0</ele>
        <time>2022-01-13T09:57:16Z</time>
      </trkpt>
      <trkpt lat="47.722984" lon="2.2184243">
        <ele>171.0</ele>
        <time>2022-01-13T09:57:17Z</time>
      </trkpt>
      <trkpt lat="47.72299" lon="2.2184298">
        <ele>171.0</ele>
        <time>2022-01-13T09:57:18Z</time>
      </trkpt>
      <trkpt lat="47.722992" lon="2.2184355">
        <ele>172.0</ele>
        <time>2022-01-13T09:57:19Z</time>
      </trkpt>
      <trkpt lat="47.722996" lon="2.2184434">
        <ele>173.0</ele>
        <time>2022-01-13T09:57:20Z</time>
      </trkpt>
      <trkpt lat="47.723" lon="2.218448">
        <ele>174.0</ele>
        <time>2022-01-13T09:57:21Z</time>
      </trkpt>
      <trkpt lat="47.723003" lon="2.2184489">
        <ele>173.0</ele>
        <time>2022-01-13T09:57:22Z</time>
      </trkpt>
      <trkpt lat="47.723007" lon="2.2184522">
        <ele>173.0</ele>
        <time>2022-01-13T09:57:23Z</time>
      </trkpt>
      <trkpt lat="47.72301" lon="2.2184591">
        <ele>173.0</ele>
        <time>2022-01-13T09:57:24Z</time>
      </trkpt>
      <trkpt lat="47.723015" lon="2.2184641">
        <ele>172.0</ele>
        <time>2022-01-13T09:57:25Z</time>
      </trkpt>
      <trkpt lat="47.723015" lon="2.2184641">
        <ele>172.0</ele>
        <time>2022-01-13T09:57:26Z</time>
      </trkpt>
      <trkpt lat="47.723026" lon="2.2184749">
        <ele>173.0</ele>
        <time>2022-01-13T09:57:27Z</time>
      </trkpt>
      <trkpt lat="47.72303" lon="2.2184818">
        <ele>173.0</ele>
        <time>2022-01-13T09:57:28Z</time>
      </trkpt>
      <trkpt lat="47.723034" lon="2.2184904">
        <ele>173.0</ele>
        <time>2022-01-13T09:57:29Z</time>
      </trkpt>
      <trkpt lat="47.72304" lon="2.2184963">
        <ele>173.0</ele>
        <time>2022-01-13T09:57:30Z</time>
      </trkpt>
      <trkpt lat="47.72304" lon="2.2185047">
        <ele>172.0</ele>
        <time>2022-01-13T09:57:31Z</time>
      </trkpt>
      <trkpt lat="47.72304" lon="2.2185047">
        <ele>172.0</ele>
        <time>2022-01-13T09:57:32Z</time>
      </trkpt>
      <trkpt lat="47.72304" lon="2.2185047">
        <ele>172.0</ele>
        <time>2022-01-13T09:57:33Z</time>
      </trkpt>
      <trkpt lat="47.723057" lon="2.2185225">
        <ele>173.0</ele>
        <time>2022-01-13T09:57:34Z</time>
      </trkpt>
      <trkpt lat="47.72306" lon="2.218534">
        <ele>173.0</ele>
        <time>2022-01-13T09:57:35Z</time>
      </trkpt>
      <trkpt lat="47.72307" lon="2.2185395">
        <ele>172.0</ele>
        <time>2022-01-13T09:57:36Z</time>
      </trkpt>
      <trkpt lat="47.723083" lon="2.2185402">
        <ele>173.0</ele>
        <time>2022-01-13T09:57:37Z</time>
      </trkpt>
      <trkpt lat="47.72309" lon="2.2185462">
        <ele>173.0</ele>
        <time>2022-01-13T09:57:38Z</time>
      </trkpt>
      <trkpt lat="47.7231" lon="2.2185552">
        <ele>173.0</ele>
        <time>2022-01-13T09:57:39Z</time>
      </trkpt>
      <trkpt lat="47.723106" lon="2.2185688">
        <ele>173.0</ele>
        <time>2022-01-13T09:57:40Z</time>
      </trkpt>
      <trkpt lat="47.723118" lon="2.2185764">
        <ele>173.0</ele>
        <time>2022-01-13T09:57:41Z</time>
      </trkpt>
      <trkpt lat="47.723125" lon="2.2185822">
        <ele>173.0</ele>
        <time>2022-01-13T09:57:42Z</time>
      </trkpt>
      <trkpt lat="47.723133" lon="2.218592">
        <ele>173.0</ele>
        <time>2022-01-13T09:57:43Z</time>
      </trkpt>
      <trkpt lat="47.72315" lon="2.2186007">
        <ele>173.0</ele>
        <time>2022-01-13T09:57:44Z</time>
      </trkpt>
      <trkpt lat="47.723156" lon="2.2186055">
        <ele>173.0</ele>
        <time>2022-01-13T09:57:45Z</time>
      </trkpt>
      <trkpt lat="47.723164" lon="2.218616">
        <ele>173.0</ele>
        <time>2022-01-13T09:57:46Z</time>
      </trkpt>
      <trkpt lat="47.723175" lon="2.2186296">
        <ele>173.0</ele>
        <time>2022-01-13T09:57:47Z</time>
      </trkpt>
      <trkpt lat="47.723186" lon="2.2186444">
        <ele>173.0</ele>
        <time>2022-01-13T09:57:48Z</time>
      </trkpt>
      <trkpt lat="47.723198" lon="2.2186527">
        <ele>173.0</ele>
        <time>2022-01-13T09:57:49Z</time>
      </trkpt>
      <trkpt lat="47.723206" lon="2.2186608">
        <ele>174.0</ele>
        <time>2022-01-13T09:57:50Z</time>
      </trkpt>
      <trkpt lat="47.723213" lon="2.2186718">
        <ele>174.0</ele>
        <time>2022-01-13T09:57:51Z</time>
      </trkpt>
      <trkpt lat="47.723225" lon="2.2186766">
        <ele>174.0</ele>
        <time>2022-01-13T09:57:52Z</time>
      </trkpt>
      <trkpt lat="47.723236" lon="2.218689">
        <ele>173.0</ele>
        <time>2022-01-13T09:57:53Z</time>
      </trkpt>
      <trkpt lat="47.723248" lon="2.2186954">
        <ele>174.0</ele>
        <time>2022-01-13T09:57:54Z</time>
      </trkpt>
      <trkpt lat="47.72326" lon="2.2187119">
        <ele>174.0</ele>
        <time>2022-01-13T09:57:55Z</time>
      </trkpt>
      <trkpt lat="47.72327" lon="2.2187262">
        <ele>174.0</ele>
        <time>2022-01-13T09:57:56Z</time>
      </trkpt>
      <trkpt lat="47.723278" lon="2.2187374">
        <ele>174.0</ele>
        <time>2022-01-13T09:57:57Z</time>
      </trkpt>
      <trkpt lat="47.723286" lon="2.2187495">
        <ele>174.0</ele>
        <time>2022-01-13T09:57:58Z</time>
      </trkpt>
      <trkpt lat="47.723293" lon="2.218765">
        <ele>173.0</ele>
        <time>2022-01-13T09:57:59Z</time>
      </trkpt>
      <trkpt lat="47.7233" lon="2.2187743">
        <ele>173.0</ele>
        <time>2022-01-13T09:58:00Z</time>
      </trkpt>
      <trkpt lat="47.72331" lon="2.2187831">
        <ele>173.0</ele>
        <time>2022-01-13T09:58:01Z</time>
      </trkpt>
      <trkpt lat="47.723312" lon="2.2187965">
        <ele>172.0</ele>
        <time>2022-01-13T09:58:02Z</time>
      </trkpt>
      <trkpt lat="47.72332" lon="2.218809">
        <ele>172.0</ele>
        <time>2022-01-13T09:58:03Z</time>
      </trkpt>
      <trkpt lat="47.723328" lon="2.2188206">
        <ele>173.0</ele>
        <time>2022-01-13T09:58:04Z</time>
      </trkpt>
      <trkpt lat="47.72333" lon="2.21883">
        <ele>172.0</ele>
        <time>2022-01-13T09:58:05Z</time>
      </trkpt>
      <trkpt lat="47.723335" lon="2.2188418">
        <ele>173.0</ele>
        <time>2022-01-13T09:58:06Z</time>
      </trkpt>
      <trkpt lat="47.72334" lon="2.218852">
        <ele>173.0</ele>
        <time>2022-01-13T09:58:07Z</time>
      </trkpt>
      <trkpt lat="47.723343" lon="2.21886">
        <ele>173.0</ele>
        <time>2022-01-13T09:58:08Z</time>
      </trkpt>
      <trkpt lat="47.723343" lon="2.2188754">
        <ele>173.0</ele>
        <time>2022-01-13T09:58:09Z</time>
      </trkpt>
      <trkpt lat="47.723347" lon="2.2188957">
        <ele>173.0</ele>
        <time>2022-01-13T09:58:10Z</time>
      </trkpt>
      <trkpt lat="47.72335" lon="2.2189193">
        <ele>173.0</ele>
        <time>2022-01-13T09:58:11Z</time>
      </trkpt>
      <trkpt lat="47.723347" lon="2.2189412">
        <ele>173.0</ele>
        <time>2022-01-13T09:58:12Z</time>
      </trkpt>
      <trkpt lat="47.72335" lon="2.2189567">
        <ele>174.0</ele>
        <time>2022-01-13T09:58:13Z</time>
      </trkpt>
      <trkpt lat="47.72336" lon="2.2189744">
        <ele>174.0</ele>
        <time>2022-01-13T09:58:14Z</time>
      </trkpt>
      <trkpt lat="47.723362" lon="2.2189906">
        <ele>174.0</ele>
        <time>2022-01-13T09:58:15Z</time>
      </trkpt>
      <trkpt lat="47.72337" lon="2.2190065">
        <ele>174.0</ele>
        <time>2022-01-13T09:58:16Z</time>
      </trkpt>
      <trkpt lat="47.72337" lon="2.2190228">
        <ele>174.0</ele>
        <time>2022-01-13T09:58:17Z</time>
      </trkpt>
      <trkpt lat="47.723373" lon="2.219037">
        <ele>174.0</ele>
        <time>2022-01-13T09:58:18Z</time>
      </trkpt>
      <trkpt lat="47.723373" lon="2.2190526">
        <ele>174.0</ele>
        <time>2022-01-13T09:58:19Z</time>
      </trkpt>
      <trkpt lat="47.723373" lon="2.2190683">
        <ele>174.0</ele>
        <time>2022-01-13T09:58:20Z</time>
      </trkpt>
      <trkpt lat="47.723377" lon="2.2190785">
        <ele>173.0</ele>
        <time>2022-01-13T09:58:21Z</time>
      </trkpt>
      <trkpt lat="47.723373" lon="2.219096">
        <ele>173.0</ele>
        <time>2022-01-13T09:58:22Z</time>
      </trkpt>
      <trkpt lat="47.72337" lon="2.2191093">
        <ele>174.0</ele>
        <time>2022-01-13T09:58:23Z</time>
      </trkpt>
      <trkpt lat="47.72337" lon="2.2191277">
        <ele>174.0</ele>
        <time>2022-01-13T09:58:24Z</time>
      </trkpt>
      <trkpt lat="47.72337" lon="2.219148">
        <ele>175.0</ele>
        <time>2022-01-13T09:58:25Z</time>
      </trkpt>
      <trkpt lat="47.72337" lon="2.2191668">
        <ele>175.0</ele>
        <time>2022-01-13T09:58:26Z</time>
      </trkpt>
      <trkpt lat="47.72337" lon="2.219181">
        <ele>175.0</ele>
        <time>2022-01-13T09:58:27Z</time>
      </trkpt>
      <trkpt lat="47.72337" lon="2.219196">
        <ele>176.0</ele>
        <time>2022-01-13T09:58:28Z</time>
      </trkpt>
      <trkpt lat="47.72337" lon="2.219215">
        <ele>176.0</ele>
        <time>2022-01-13T09:58:29Z</time>
      </trkpt>
      <trkpt lat="47.72337" lon="2.2192354">
        <ele>175.0</ele>
        <time>2022-01-13T09:58:30Z</time>
      </trkpt>
      <trkpt lat="47.72337" lon="2.2192504">
        <ele>175.0</ele>
        <time>2022-01-13T09:58:31Z</time>
      </trkpt>
      <trkpt lat="47.723377" lon="2.219262">
        <ele>175.0</ele>
        <time>2022-01-13T09:58:32Z</time>
      </trkpt>
      <trkpt lat="47.72338" lon="2.2192757">
        <ele>175.0</ele>
        <time>2022-01-13T09:58:33Z</time>
      </trkpt>
      <trkpt lat="47.723385" lon="2.219291">
        <ele>175.0</ele>
        <time>2022-01-13T09:58:34Z</time>
      </trkpt>
      <trkpt lat="47.723385" lon="2.2193046">
        <ele>176.0</ele>
        <time>2022-01-13T09:58:35Z</time>
      </trkpt>
      <trkpt lat="47.72339" lon="2.2193177">
        <ele>176.0</ele>
        <time>2022-01-13T09:58:36Z</time>
      </trkpt>
      <trkpt lat="47.723392" lon="2.2193353">
        <ele>175.0</ele>
        <time>2022-01-13T09:58:37Z</time>
      </trkpt>
      <trkpt lat="47.723396" lon="2.219353">
        <ele>176.0</ele>
        <time>2022-01-13T09:58:38Z</time>
      </trkpt>
      <trkpt lat="47.723408" lon="2.2193723">
        <ele>175.0</ele>
        <time>2022-01-13T09:58:39Z</time>
      </trkpt>
      <trkpt lat="47.723415" lon="2.219393">
        <ele>175.0</ele>
        <time>2022-01-13T09:58:40Z</time>
      </trkpt>
      <trkpt lat="47.72342" lon="2.21941">
        <ele>175.0</ele>
        <time>2022-01-13T09:58:41Z</time>
      </trkpt>
      <trkpt lat="47.723423" lon="2.2194293">
        <ele>175.0</ele>
        <time>2022-01-13T09:58:42Z</time>
      </trkpt>
      <trkpt lat="47.723423" lon="2.2194417">
        <ele>175.0</ele>
        <time>2022-01-13T09:58:43Z</time>
      </trkpt>
      <trkpt lat="47.72343" lon="2.2194529">
        <ele>174.0</ele>
        <time>2022-01-13T09:58:44Z</time>
      </trkpt>
      <trkpt lat="47.723434" lon="2.2194698">
        <ele>175.0</ele>
        <time>2022-01-13T09:58:45Z</time>
      </trkpt>
      <trkpt lat="47.72344" lon="2.2194881">
        <ele>175.0</ele>
        <time>2022-01-13T09:58:46Z</time>
      </trkpt>
      <trkpt lat="47.723442" lon="2.2195032">
        <ele>175.0</ele>
        <time>2022-01-13T09:58:47Z</time>
      </trkpt>
      <trkpt lat="47.723442" lon="2.2195158">
        <ele>175.0</ele>
        <time>2022-01-13T09:58:48Z</time>
      </trkpt>
      <trkpt lat="47.72345" lon="2.219531">
        <ele>176.0</ele>
        <time>2022-01-13T09:58:49Z</time>
      </trkpt>
      <trkpt lat="47.723454" lon="2.2195437">
        <ele>175.0</ele>
        <time>2022-01-13T09:58:50Z</time>
      </trkpt>
      <trkpt lat="47.72346" lon="2.2195573">
        <ele>175.0</ele>
        <time>2022-01-13T09:58:51Z</time>
      </trkpt>
      <trkpt lat="47.723465" lon="2.2195725">
        <ele>175.0</ele>
        <time>2022-01-13T09:58:52Z</time>
      </trkpt>
      <trkpt lat="47.723465" lon="2.2195885">
        <ele>175.0</ele>
        <time>2022-01-13T09:58:53Z</time>
      </trkpt>
      <trkpt lat="47.723465" lon="2.2195885">
        <ele>175.0</ele>
        <time>2022-01-13T09:58:54Z</time>
      </trkpt>
      <trkpt lat="47.723465" lon="2.2195885">
        <ele>175.0</ele>
        <time>2022-01-13T09:58:55Z</time>
      </trkpt>
      <trkpt lat="47.72347" lon="2.2196102">
        <ele>176.0</ele>
        <time>2022-01-13T09:58:56Z</time>
      </trkpt>
      <trkpt lat="47.72347" lon="2.21962">
        <ele>176.0</ele>
        <time>2022-01-13T09:58:57Z</time>
      </trkpt>
      <trkpt lat="47.723473" lon="2.2196305">
        <ele>176.0</ele>
        <time>2022-01-13T09:58:58Z</time>
      </trkpt>
      <trkpt lat="47.723476" lon="2.2196398">
        <ele>175.0</ele>
        <time>2022-01-13T09:58:59Z</time>
      </trkpt>
      <trkpt lat="47.72348" lon="2.2196546">
        <ele>175.0</ele>
        <time>2022-01-13T09:59:00Z</time>
      </trkpt>
      <trkpt lat="47.723484" lon="2.2196665">
        <ele>175.0</ele>
        <time>2022-01-13T09:59:01Z</time>
      </trkpt>
      <trkpt lat="47.723484" lon="2.2196739">
        <ele>175.0</ele>
        <time>2022-01-13T09:59:02Z</time>
      </trkpt>
      <trkpt lat="47.723488" lon="2.219681">
        <ele>175.0</ele>
        <time>2022-01-13T09:59:03Z</time>
      </trkpt>
      <trkpt lat="47.723488" lon="2.2196891">
        <ele>175.0</ele>
        <time>2022-01-13T09:59:04Z</time>
      </trkpt>
      <trkpt lat="47.723495" lon="2.2196999">
        <ele>175.0</ele>
        <time>2022-01-13T09:59:05Z</time>
      </trkpt>
      <trkpt lat="47.723507" lon="2.2197104">
        <ele>174.0</ele>
        <time>2022-01-13T09:59:06Z</time>
      </trkpt>
      <trkpt lat="47.723515" lon="2.219722">
        <ele>174.0</ele>
        <time>2022-01-13T09:59:07Z</time>
      </trkpt>
      <trkpt lat="47.723522" lon="2.2197359">
        <ele>175.0</ele>
        <time>2022-01-13T09:59:08Z</time>
      </trkpt>
      <trkpt lat="47.723526" lon="2.2197468">
        <ele>175.0</ele>
        <time>2022-01-13T09:59:09Z</time>
      </trkpt>
      <trkpt lat="47.72353" lon="2.2197585">
        <ele>175.0</ele>
        <time>2022-01-13T09:59:10Z</time>
      </trkpt>
      <trkpt lat="47.723534" lon="2.2197716">
        <ele>175.0</ele>
        <time>2022-01-13T09:59:11Z</time>
      </trkpt>
      <trkpt lat="47.723537" lon="2.2197852">
        <ele>175.0</ele>
        <time>2022-01-13T09:59:12Z</time>
      </trkpt>
      <trkpt lat="47.72354" lon="2.2197957">
        <ele>175.0</ele>
        <time>2022-01-13T09:59:13Z</time>
      </trkpt>
      <trkpt lat="47.72355" lon="2.2198057">
        <ele>175.0</ele>
        <time>2022-01-13T09:59:14Z</time>
      </trkpt>
      <trkpt lat="47.723553" lon="2.2198164">
        <ele>175.0</ele>
        <time>2022-01-13T09:59:15Z</time>
      </trkpt>
      <trkpt lat="47.723557" lon="2.2198238">
        <ele>175.0</ele>
        <time>2022-01-13T09:59:16Z</time>
      </trkpt>
      <trkpt lat="47.723564" lon="2.2198336">
        <ele>175.0</ele>
        <time>2022-01-13T09:59:17Z</time>
      </trkpt>
      <trkpt lat="47.723568" lon="2.2198443">
        <ele>175.0</ele>
        <time>2022-01-13T09:59:18Z</time>
      </trkpt>
      <trkpt lat="47.723568" lon="2.2198443">
        <ele>175.0</ele>
        <time>2022-01-13T09:59:19Z</time>
      </trkpt>
      <trkpt lat="47.72358" lon="2.219858">
        <ele>175.0</ele>
        <time>2022-01-13T09:59:20Z</time>
      </trkpt>
      <trkpt lat="47.723583" lon="2.2198663">
        <ele>176.0</ele>
        <time>2022-01-13T09:59:21Z</time>
      </trkpt>
      <trkpt lat="47.723583" lon="2.219871">
        <ele>175.0</ele>
        <time>2022-01-13T09:59:22Z</time>
      </trkpt>
      <trkpt lat="47.72359" lon="2.2198741">
        <ele>175.0</ele>
        <time>2022-01-13T09:59:23Z</time>
      </trkpt>
      <trkpt lat="47.7236" lon="2.2198856">
        <ele>176.0</ele>
        <time>2022-01-13T09:59:24Z</time>
      </trkpt>
      <trkpt lat="47.723602" lon="2.2198992">
        <ele>176.0</ele>
        <time>2022-01-13T09:59:25Z</time>
      </trkpt>
      <trkpt lat="47.72361" lon="2.2199097">
        <ele>176.0</ele>
        <time>2022-01-13T09:59:26Z</time>
      </trkpt>
      <trkpt lat="47.723618" lon="2.2199218">
        <ele>176.0</ele>
        <time>2022-01-13T09:59:27Z</time>
      </trkpt>
      <trkpt lat="47.723625" lon="2.2199347">
        <ele>176.0</ele>
        <time>2022-01-13T09:59:28Z</time>
      </trkpt>
      <trkpt lat="47.723633" lon="2.2199485">
        <ele>176.0</ele>
        <time>2022-01-13T09:59:29Z</time>
      </trkpt>
      <trkpt lat="47.723637" lon="2.2199578">
        <ele>176.0</ele>
        <time>2022-01-13T09:59:30Z</time>
      </trkpt>
      <trkpt lat="47.723644" lon="2.2199724">
        <ele>176.0</ele>
        <time>2022-01-13T09:59:31Z</time>
      </trkpt>
      <trkpt lat="47.723656" lon="2.2199795">
        <ele>175.0</ele>
        <time>2022-01-13T09:59:32Z</time>
      </trkpt>
      <trkpt lat="47.723663" lon="2.219987">
        <ele>175.0</ele>
        <time>2022-01-13T09:59:33Z</time>
      </trkpt>
      <trkpt lat="47.723675" lon="2.21999">
        <ele>174.0</ele>
        <time>2022-01-13T09:59:34Z</time>
      </trkpt>
      <trkpt lat="47.723682" lon="2.2199912">
        <ele>174.0</ele>
        <time>2022-01-13T09:59:35Z</time>
      </trkpt>
      <trkpt lat="47.72369" lon="2.219998">
        <ele>174.0</ele>
        <time>2022-01-13T09:59:36Z</time>
      </trkpt>
      <trkpt lat="47.723694" lon="2.2200081">
        <ele>175.0</ele>
        <time>2022-01-13T09:59:37Z</time>
      </trkpt>
      <trkpt lat="47.723694" lon="2.220021">
        <ele>174.0</ele>
        <time>2022-01-13T09:59:38Z</time>
      </trkpt>
      <trkpt lat="47.723694" lon="2.2200298">
        <ele>175.0</ele>
        <time>2022-01-13T09:59:39Z</time>
      </trkpt>
      <trkpt lat="47.7237" lon="2.2200384">
        <ele>175.0</ele>
        <time>2022-01-13T09:59:40Z</time>
      </trkpt>
      <trkpt lat="47.723713" lon="2.2200408">
        <ele>175.0</ele>
        <time>2022-01-13T09:59:41Z</time>
      </trkpt>
      <trkpt lat="47.72372" lon="2.220047">
        <ele>175.0</ele>
        <time>2022-01-13T09:59:42Z</time>
      </trkpt>
      <trkpt lat="47.72373" lon="2.2200508">
        <ele>176.0</ele>
        <time>2022-01-13T09:59:43Z</time>
      </trkpt>
      <trkpt lat="47.723736" lon="2.220057">
        <ele>175.0</ele>
        <time>2022-01-13T09:59:44Z</time>
      </trkpt>
      <trkpt lat="47.723743" lon="2.2200632">
        <ele>175.0</ele>
        <time>2022-01-13T09:59:45Z</time>
      </trkpt>
      <trkpt lat="47.723755" lon="2.2200692">
        <ele>174.0</ele>
        <time>2022-01-13T09:59:46Z</time>
      </trkpt>
      <trkpt lat="47.723766" lon="2.2200804">
        <ele>174.0</ele>
        <time>2022-01-13T09:59:47Z</time>
      </trkpt>
      <trkpt lat="47.723778" lon="2.2200933">
        <ele>174.0</ele>
        <time>2022-01-13T09:59:48Z</time>
      </trkpt>
      <trkpt lat="47.723785" lon="2.2200997">
        <ele>173.0</ele>
        <time>2022-01-13T09:59:49Z</time>
      </trkpt>
      <trkpt lat="47.723793" lon="2.2201078">
        <ele>174.0</ele>
        <time>2022-01-13T09:59:50Z</time>
      </trkpt>
      <trkpt lat="47.7238" lon="2.220117">
        <ele>174.0</ele>
        <time>2022-01-13T09:59:51Z</time>
      </trkpt>
      <trkpt lat="47.72381" lon="2.2201154">
        <ele>174.0</ele>
        <time>2022-01-13T09:59:52Z</time>
      </trkpt>
      <trkpt lat="47.723816" lon="2.220125">
        <ele>174.0</ele>
        <time>2022-01-13T09:59:53Z</time>
      </trkpt>
      <trkpt lat="47.723816" lon="2.2201338">
        <ele>174.0</ele>
        <time>2022-01-13T09:59:54Z</time>
      </trkpt>
      <trkpt lat="47.723824" lon="2.2201476">
        <ele>174.0</ele>
        <time>2022-01-13T09:59:55Z</time>
      </trkpt>
      <trkpt lat="47.723827" lon="2.2201622">
        <ele>174.0</ele>
        <time>2022-01-13T09:59:56Z</time>
      </trkpt>
      <trkpt lat="47.72384" lon="2.2201793">
        <ele>174.0</ele>
        <time>2022-01-13T09:59:57Z</time>
      </trkpt>
      <trkpt lat="47.72385" lon="2.2201884">
        <ele>174.0</ele>
        <time>2022-01-13T09:59:58Z</time>
      </trkpt>
      <trkpt lat="47.72386" lon="2.220199">
        <ele>173.0</ele>
        <time>2022-01-13T09:59:59Z</time>
      </trkpt>
      <trkpt lat="47.723866" lon="2.220205">
        <ele>173.0</ele>
        <time>2022-01-13T10:00:00Z</time>
      </trkpt>
      <trkpt lat="47.723873" lon="2.220206">
        <ele>173.0</ele>
        <time>2022-01-13T10:00:01Z</time>
      </trkpt>
      <trkpt lat="47.723873" lon="2.220206">
        <ele>173.0</ele>
        <time>2022-01-13T10:00:02Z</time>
      </trkpt>
      <trkpt lat="47.723873" lon="2.220206">
        <ele>173.0</ele>
        <time>2022-01-13T10:00:03Z</time>
      </trkpt>
      <trkpt lat="47.7239" lon="2.2201965">
        <ele>174.0</ele>
        <time>2022-01-13T10:00:04Z</time>
      </trkpt>
      <trkpt lat="47.72391" lon="2.220196">
        <ele>175.0</ele>
        <time>2022-01-13T10:00:05Z</time>
      </trkpt>
      <trkpt lat="47.72392" lon="2.2201986">
        <ele>175.0</ele>
        <time>2022-01-13T10:00:06Z</time>
      </trkpt>
      <trkpt lat="47.72393" lon="2.2202048">
        <ele>175.0</ele>
        <time>2022-01-13T10:00:07Z</time>
      </trkpt>
      <trkpt lat="47.72394" lon="2.2202077">
        <ele>175.0</ele>
        <time>2022-01-13T10:00:08Z</time>
      </trkpt>
      <trkpt lat="47.72394" lon="2.2202077">
        <ele>175.0</ele>
        <time>2022-01-13T10:00:09Z</time>
      </trkpt>
      <trkpt lat="47.72394" lon="2.2202077">
        <ele>175.0</ele>
        <time>2022-01-13T10:00:10Z</time>
      </trkpt>
      <trkpt lat="47.723972" lon="2.2202103">
        <ele>175.0</ele>
        <time>2022-01-13T10:00:11Z</time>
      </trkpt>
      <trkpt lat="47.723988" lon="2.2202172">
        <ele>175.0</ele>
        <time>2022-01-13T10:00:12Z</time>
      </trkpt>
      <trkpt lat="47.724" lon="2.2202265">
        <ele>175.0</ele>
        <time>2022-01-13T10:00:13Z</time>
      </trkpt>
      <trkpt lat="47.72401" lon="2.2202322">
        <ele>175.0</ele>
        <time>2022-01-13T10:00:14Z</time>
      </trkpt>
      <trkpt lat="47.724022" lon="2.2202406">
        <ele>175.0</ele>
        <time>2022-01-13T10:00:15Z</time>
      </trkpt>
      <trkpt lat="47.724022" lon="2.2202406">
        <ele>175.0</ele>
        <time>2022-01-13T10:00:16Z</time>
      </trkpt>
      <trkpt lat="47.72404" lon="2.22026">
        <ele>174.0</ele>
        <time>2022-01-13T10:00:17Z</time>
      </trkpt>
      <trkpt lat="47.72405" lon="2.2202642">
        <ele>175.0</ele>
        <time>2022-01-13T10:00:18Z</time>
      </trkpt>
      <trkpt lat="47.72406" lon="2.2202778">
        <ele>175.0</ele>
        <time>2022-01-13T10:00:19Z</time>
      </trkpt>
      <trkpt lat="47.724068" lon="2.2202902">
        <ele>174.0</ele>
        <time>2022-01-13T10:00:20Z</time>
      </trkpt>
      <trkpt lat="47.724075" lon="2.2202992">
        <ele>174.0</ele>
        <time>2022-01-13T10:00:21Z</time>
      </trkpt>
      <trkpt lat="47.724083" lon="2.2203088">
        <ele>174.0</ele>
        <time>2022-01-13T10:00:22Z</time>
      </trkpt>
      <trkpt lat="47.72409" lon="2.2203145">
        <ele>174.0</ele>
        <time>2022-01-13T10:00:23Z</time>
      </trkpt>
      <trkpt lat="47.724094" lon="2.2203193">
        <ele>174.0</ele>
        <time>2022-01-13T10:00:24Z</time>
      </trkpt>
      <trkpt lat="47.724106" lon="2.2203288">
        <ele>174.0</ele>
        <time>2022-01-13T10:00:25Z</time>
      </trkpt>
      <trkpt lat="47.724117" lon="2.2203398">
        <ele>174.0</ele>
        <time>2022-01-13T10:00:26Z</time>
      </trkpt>
      <trkpt lat="47.724133" lon="2.220349">
        <ele>175.0</ele>
        <time>2022-01-13T10:00:27Z</time>
      </trkpt>
      <trkpt lat="47.72414" lon="2.2203567">
        <ele>175.0</ele>
        <time>2022-01-13T10:00:28Z</time>
      </trkpt>
      <trkpt lat="47.724148" lon="2.2203555">
        <ele>174.0</ele>
        <time>2022-01-13T10:00:29Z</time>
      </trkpt>
      <trkpt lat="47.72416" lon="2.2203562">
        <ele>174.0</ele>
        <time>2022-01-13T10:00:30Z</time>
      </trkpt>
      <trkpt lat="47.72417" lon="2.2203603">
        <ele>173.0</ele>
        <time>2022-01-13T10:00:31Z</time>
      </trkpt>
      <trkpt lat="47.72418" lon="2.22037">
        <ele>173.0</ele>
        <time>2022-01-13T10:00:32Z</time>
      </trkpt>
      <trkpt lat="47.72419" lon="2.2203703">
        <ele>174.0</ele>
        <time>2022-01-13T10:00:33Z</time>
      </trkpt>
      <trkpt lat="47.7242" lon="2.2203746">
        <ele>174.0</ele>
        <time>2022-01-13T10:00:34Z</time>
      </trkpt>
      <trkpt lat="47.72421" lon="2.2203822">
        <ele>174.0</ele>
        <time>2022-01-13T10:00:35Z</time>
      </trkpt>
      <trkpt lat="47.724224" lon="2.220388">
        <ele>175.0</ele>
        <time>2022-01-13T10:00:36Z</time>
      </trkpt>
      <trkpt lat="47.724236" lon="2.220394">
        <ele>175.0</ele>
        <time>2022-01-13T10:00:37Z</time>
      </trkpt>
      <trkpt lat="47.724247" lon="2.2204049">
        <ele>174.0</ele>
        <time>2022-01-13T10:00:38Z</time>
      </trkpt>
      <trkpt lat="47.72426" lon="2.2204216">
        <ele>175.0</ele>
        <time>2022-01-13T10:00:39Z</time>
      </trkpt>
      <trkpt lat="47.72427" lon="2.2204301">
        <ele>175.0</ele>
        <time>2022-01-13T10:00:40Z</time>
      </trkpt>
      <trkpt lat="47.724285" lon="2.2204342">
        <ele>175.0</ele>
        <time>2022-01-13T10:00:41Z</time>
      </trkpt>
      <trkpt lat="47.724297" lon="2.2204416">
        <ele>175.0</ele>
        <time>2022-01-13T10:00:42Z</time>
      </trkpt>
      <trkpt lat="47.724304" lon="2.220454">
        <ele>174.0</ele>
        <time>2022-01-13T10:00:43Z</time>
      </trkpt>
      <trkpt lat="47.72431" lon="2.220464">
        <ele>173.0</ele>
        <time>2022-01-13T10:00:44Z</time>
      </trkpt>
      <trkpt lat="47.72432" lon="2.2204702">
        <ele>172.0</ele>
        <time>2022-01-13T10:00:45Z</time>
      </trkpt>
      <trkpt lat="47.724327" lon="2.220477">
        <ele>172.0</ele>
        <time>2022-01-13T10:00:46Z</time>
      </trkpt>
      <trkpt lat="47.724335" lon="2.2204862">
        <ele>171.0</ele>
        <time>2022-01-13T10:00:47Z</time>
      </trkpt>
      <trkpt lat="47.724342" lon="2.2204952">
        <ele>171.0</ele>
        <time>2022-01-13T10:00:48Z</time>
      </trkpt>
      <trkpt lat="47.724354" lon="2.2205002">
        <ele>170.0</ele>
        <time>2022-01-13T10:00:49Z</time>
      </trkpt>
      <trkpt lat="47.72436" lon="2.220508">
        <ele>170.0</ele>
        <time>2022-01-13T10:00:50Z</time>
      </trkpt>
      <trkpt lat="47.72437" lon="2.2205048">
        <ele>171.0</ele>
        <time>2022-01-13T10:00:51Z</time>
      </trkpt>
      <trkpt lat="47.724373" lon="2.2205062">
        <ele>171.0</ele>
        <time>2022-01-13T10:00:52Z</time>
      </trkpt>
      <trkpt lat="47.72438" lon="2.2205117">
        <ele>170.0</ele>
        <time>2022-01-13T10:00:53Z</time>
      </trkpt>
      <trkpt lat="47.724392" lon="2.2205207">
        <ele>171.0</ele>
        <time>2022-01-13T10:00:54Z</time>
      </trkpt>
      <trkpt lat="47.724403" lon="2.2205293">
        <ele>171.0</ele>
        <time>2022-01-13T10:00:55Z</time>
      </trkpt>
      <trkpt lat="47.724415" lon="2.2205374">
        <ele>171.0</ele>
        <time>2022-01-13T10:00:56Z</time>
      </trkpt>
      <trkpt lat="47.724426" lon="2.2205448">
        <ele>171.0</ele>
        <time>2022-01-13T10:00:57Z</time>
      </trkpt>
      <trkpt lat="47.724434" lon="2.2205498">
        <ele>171.0</ele>
        <time>2022-01-13T10:00:58Z</time>
      </trkpt>
      <trkpt lat="47.72445" lon="2.2205586">
        <ele>171.0</ele>
        <time>2022-01-13T10:00:59Z</time>
      </trkpt>
      <trkpt lat="47.724457" lon="2.2205637">
        <ele>171.0</ele>
        <time>2022-01-13T10:01:00Z</time>
      </trkpt>
      <trkpt lat="47.72447" lon="2.2205715">
        <ele>171.0</ele>
        <time>2022-01-13T10:01:01Z</time>
      </trkpt>
      <trkpt lat="47.724476" lon="2.2205768">
        <ele>170.0</ele>
        <time>2022-01-13T10:01:02Z</time>
      </trkpt>
      <trkpt lat="47.724483" lon="2.2205827">
        <ele>170.0</ele>
        <time>2022-01-13T10:01:03Z</time>
      </trkpt>
      <trkpt lat="47.724495" lon="2.220585">
        <ele>170.0</ele>
        <time>2022-01-13T10:01:04Z</time>
      </trkpt>
      <trkpt lat="47.724506" lon="2.220595">
        <ele>170.0</ele>
        <time>2022-01-13T10:01:05Z</time>
      </trkpt>
      <trkpt lat="47.724514" lon="2.2206025">
        <ele>170.0</ele>
        <time>2022-01-13T10:01:06Z</time>
      </trkpt>
      <trkpt lat="47.724525" lon="2.2206059">
        <ele>169.0</ele>
        <time>2022-01-13T10:01:07Z</time>
      </trkpt>
      <trkpt lat="47.72453" lon="2.2206085">
        <ele>170.0</ele>
        <time>2022-01-13T10:01:08Z</time>
      </trkpt>
      <trkpt lat="47.72453" lon="2.2206085">
        <ele>170.0</ele>
        <time>2022-01-13T10:01:09Z</time>
      </trkpt>
      <trkpt lat="47.72455" lon="2.2206078">
        <ele>169.0</ele>
        <time>2022-01-13T10:01:10Z</time>
      </trkpt>
      <trkpt lat="47.724556" lon="2.2206073">
        <ele>169.0</ele>
        <time>2022-01-13T10:01:11Z</time>
      </trkpt>
      <trkpt lat="47.724567" lon="2.2206132">
        <ele>169.0</ele>
        <time>2022-01-13T10:01:12Z</time>
      </trkpt>
      <trkpt lat="47.724575" lon="2.220622">
        <ele>170.0</ele>
        <time>2022-01-13T10:01:13Z</time>
      </trkpt>
      <trkpt lat="47.724583" lon="2.2206328">
        <ele>169.0</ele>
        <time>2022-01-13T10:01:14Z</time>
      </trkpt>
      <trkpt lat="47.724586" lon="2.2206445">
        <ele>169.0</ele>
        <time>2022-01-13T10:01:15Z</time>
      </trkpt>
      <trkpt lat="47.724594" lon="2.2206542">
        <ele>169.0</ele>
        <time>2022-01-13T10:01:16Z</time>
      </trkpt>
      <trkpt lat="47.724594" lon="2.2206542">
        <ele>169.0</ele>
        <time>2022-01-13T10:01:17Z</time>
      </trkpt>
      <trkpt lat="47.72461" lon="2.220664">
        <ele>168.0</ele>
        <time>2022-01-13T10:01:18Z</time>
      </trkpt>
      <trkpt lat="47.724617" lon="2.220675">
        <ele>168.0</ele>
        <time>2022-01-13T10:01:19Z</time>
      </trkpt>
      <trkpt lat="47.724625" lon="2.220683">
        <ele>168.0</ele>
        <time>2022-01-13T10:01:20Z</time>
      </trkpt>
      <trkpt lat="47.724632" lon="2.220691">
        <ele>168.0</ele>
        <time>2022-01-13T10:01:21Z</time>
      </trkpt>
      <trkpt lat="47.72464" lon="2.2206979">
        <ele>168.0</ele>
        <time>2022-01-13T10:01:22Z</time>
      </trkpt>
      <trkpt lat="47.724648" lon="2.220708">
        <ele>169.0</ele>
        <time>2022-01-13T10:01:23Z</time>
      </trkpt>
      <trkpt lat="47.724655" lon="2.2207232">
        <ele>169.0</ele>
        <time>2022-01-13T10:01:24Z</time>
      </trkpt>
      <trkpt lat="47.724663" lon="2.2207365">
        <ele>169.0</ele>
        <time>2022-01-13T10:01:25Z</time>
      </trkpt>
      <trkpt lat="47.724667" lon="2.2207472">
        <ele>169.0</ele>
        <time>2022-01-13T10:01:26Z</time>
      </trkpt>
      <trkpt lat="47.724674" lon="2.2207534">
        <ele>169.0</ele>
        <time>2022-01-13T10:01:27Z</time>
      </trkpt>
      <trkpt lat="47.724674" lon="2.2207534">
        <ele>169.0</ele>
        <time>2022-01-13T10:01:28Z</time>
      </trkpt>
      <trkpt lat="47.724674" lon="2.2207534">
        <ele>169.0</ele>
        <time>2022-01-13T10:01:29Z</time>
      </trkpt>
      <trkpt lat="47.724697" lon="2.2207587">
        <ele>168.0</ele>
        <time>2022-01-13T10:01:30Z</time>
      </trkpt>
      <trkpt lat="47.72471" lon="2.2207642">
        <ele>168.0</ele>
        <time>2022-01-13T10:01:31Z</time>
      </trkpt>
      <trkpt lat="47.72472" lon="2.2207634">
        <ele>168.0</ele>
        <time>2022-01-13T10:01:32Z</time>
      </trkpt>
      <trkpt lat="47.724728" lon="2.220767">
        <ele>168.0</ele>
        <time>2022-01-13T10:01:33Z</time>
      </trkpt>
      <trkpt lat="47.724735" lon="2.2207656">
        <ele>168.0</ele>
        <time>2022-01-13T10:01:34Z</time>
      </trkpt>
      <trkpt lat="47.724743" lon="2.2207704">
        <ele>168.0</ele>
        <time>2022-01-13T10:01:35Z</time>
      </trkpt>
      <trkpt lat="47.724743" lon="2.2207704">
        <ele>168.0</ele>
        <time>2022-01-13T10:01:36Z</time>
      </trkpt>
      <trkpt lat="47.724743" lon="2.2207704">
        <ele>168.0</ele>
        <time>2022-01-13T10:01:37Z</time>
      </trkpt>
      <trkpt lat="47.72476" lon="2.2207925">
        <ele>169.0</ele>
        <time>2022-01-13T10:01:38Z</time>
      </trkpt>
      <trkpt lat="47.724766" lon="2.2207985">
        <ele>169.0</ele>
        <time>2022-01-13T10:01:39Z</time>
      </trkpt>
      <trkpt lat="47.724773" lon="2.2208004">
        <ele>169.0</ele>
        <time>2022-01-13T10:01:40Z</time>
      </trkpt>
      <trkpt lat="47.72478" lon="2.2208028">
        <ele>169.0</ele>
        <time>2022-01-13T10:01:41Z</time>
      </trkpt>
      <trkpt lat="47.724792" lon="2.220803">
        <ele>170.0</ele>
        <time>2022-01-13T10:01:42Z</time>
      </trkpt>
      <trkpt lat="47.724808" lon="2.2207983">
        <ele>170.0</ele>
        <time>2022-01-13T10:01:43Z</time>
      </trkpt>
      <trkpt lat="47.724815" lon="2.2208016">
        <ele>171.0</ele>
        <time>2022-01-13T10:01:44Z</time>
      </trkpt>
      <trkpt lat="47.724823" lon="2.2208073">
        <ele>170.0</ele>
        <time>2022-01-13T10:01:45Z</time>
      </trkpt>
      <trkpt lat="47.72484" lon="2.2208166">
        <ele>170.0</ele>
        <time>2022-01-13T10:01:46Z</time>
      </trkpt>
      <trkpt lat="47.72485" lon="2.2208295">
        <ele>170.0</ele>
        <time>2022-01-13T10:01:47Z</time>
      </trkpt>
      <trkpt lat="47.72486" lon="2.2208374">
        <ele>170.0</ele>
        <time>2022-01-13T10:01:48Z</time>
      </trkpt>
      <trkpt lat="47.724865" lon="2.2208474">
        <ele>170.0</ele>
        <time>2022-01-13T10:01:49Z</time>
      </trkpt>
      <trkpt lat="47.724876" lon="2.2208567">
        <ele>169.0</ele>
        <time>2022-01-13T10:01:50Z</time>
      </trkpt>
      <trkpt lat="47.724888" lon="2.2208629">
        <ele>169.0</ele>
        <time>2022-01-13T10:01:51Z</time>
      </trkpt>
      <trkpt lat="47.7249" lon="2.2208714">
        <ele>169.0</ele>
        <time>2022-01-13T10:01:52Z</time>
      </trkpt>
      <trkpt lat="47.72491" lon="2.22088">
        <ele>169.0</ele>
        <time>2022-01-13T10:01:53Z</time>
      </trkpt>
      <trkpt lat="47.72492" lon="2.2208931">
        <ele>169.0</ele>
        <time>2022-01-13T10:01:54Z</time>
      </trkpt>
      <trkpt lat="47.724926" lon="2.2209063">
        <ele>169.0</ele>
        <time>2022-01-13T10:01:55Z</time>
      </trkpt>
      <trkpt lat="47.724937" lon="2.220927">
        <ele>169.0</ele>
        <time>2022-01-13T10:01:56Z</time>
      </trkpt>
      <trkpt lat="47.724945" lon="2.2209437">
        <ele>169.0</ele>
        <time>2022-01-13T10:01:57Z</time>
      </trkpt>
      <trkpt lat="47.724957" lon="2.2209606">
        <ele>169.0</ele>
        <time>2022-01-13T10:01:58Z</time>
      </trkpt>
      <trkpt lat="47.724964" lon="2.2209766">
        <ele>169.0</ele>
        <time>2022-01-13T10:01:59Z</time>
      </trkpt>
      <trkpt lat="47.72497" lon="2.2209933">
        <ele>168.0</ele>
        <time>2022-01-13T10:02:00Z</time>
      </trkpt>
      <trkpt lat="47.724987" lon="2.2210112">
        <ele>169.0</ele>
        <time>2022-01-13T10:02:01Z</time>
      </trkpt>
      <trkpt lat="47.724995" lon="2.221027">
        <ele>168.0</ele>
        <time>2022-01-13T10:02:02Z</time>
      </trkpt>
      <trkpt lat="47.725002" lon="2.22104">
        <ele>169.0</ele>
        <time>2022-01-13T10:02:03Z</time>
      </trkpt>
      <trkpt lat="47.72501" lon="2.221053">
        <ele>169.0</ele>
        <time>2022-01-13T10:02:04Z</time>
      </trkpt>
      <trkpt lat="47.725018" lon="2.2210677">
        <ele>169.0</ele>
        <time>2022-01-13T10:02:05Z</time>
      </trkpt>
      <trkpt lat="47.72503" lon="2.2210834">
        <ele>169.0</ele>
        <time>2022-01-13T10:02:06Z</time>
      </trkpt>
      <trkpt lat="47.725037" lon="2.2210958">
        <ele>169.0</ele>
        <time>2022-01-13T10:02:07Z</time>
      </trkpt>
      <trkpt lat="47.725044" lon="2.2211065">
        <ele>169.0</ele>
        <time>2022-01-13T10:02:08Z</time>
      </trkpt>
      <trkpt lat="47.725056" lon="2.2211127">
        <ele>170.0</ele>
        <time>2022-01-13T10:02:09Z</time>
      </trkpt>
      <trkpt lat="47.72506" lon="2.221122">
        <ele>170.0</ele>
        <time>2022-01-13T10:02:10Z</time>
      </trkpt>
      <trkpt lat="47.725067" lon="2.2211304">
        <ele>170.0</ele>
        <time>2022-01-13T10:02:11Z</time>
      </trkpt>
      <trkpt lat="47.725075" lon="2.2211392">
        <ele>171.0</ele>
        <time>2022-01-13T10:02:12Z</time>
      </trkpt>
      <trkpt lat="47.725082" lon="2.2211492">
        <ele>171.0</ele>
        <time>2022-01-13T10:02:13Z</time>
      </trkpt>
      <trkpt lat="47.725086" lon="2.2211592">
        <ele>171.0</ele>
        <time>2022-01-13T10:02:14Z</time>
      </trkpt>
      <trkpt lat="47.725098" lon="2.221174">
        <ele>171.0</ele>
        <time>2022-01-13T10:02:15Z</time>
      </trkpt>
      <trkpt lat="47.72511" lon="2.2211778">
        <ele>171.0</ele>
        <time>2022-01-13T10:02:16Z</time>
      </trkpt>
      <trkpt lat="47.725117" lon="2.2211845">
        <ele>171.0</ele>
        <time>2022-01-13T10:02:17Z</time>
      </trkpt>
      <trkpt lat="47.72512" lon="2.2211874">
        <ele>171.0</ele>
        <time>2022-01-13T10:02:18Z</time>
      </trkpt>
      <trkpt lat="47.72513" lon="2.2211797">
        <ele>171.0</ele>
        <time>2022-01-13T10:02:19Z</time>
      </trkpt>
      <trkpt lat="47.725136" lon="2.2211852">
        <ele>172.0</ele>
        <time>2022-01-13T10:02:20Z</time>
      </trkpt>
      <trkpt lat="47.725143" lon="2.2211938">
        <ele>172.0</ele>
        <time>2022-01-13T10:02:21Z</time>
      </trkpt>
      <trkpt lat="47.72515" lon="2.2212064">
        <ele>172.0</ele>
        <time>2022-01-13T10:02:22Z</time>
      </trkpt>
      <trkpt lat="47.72516" lon="2.2212293">
        <ele>171.0</ele>
        <time>2022-01-13T10:02:23Z</time>
      </trkpt>
      <trkpt lat="47.725166" lon="2.2212508">
        <ele>171.0</ele>
        <time>2022-01-13T10:02:24Z</time>
      </trkpt>
      <trkpt lat="47.725174" lon="2.2212656">
        <ele>171.0</ele>
        <time>2022-01-13T10:02:25Z</time>
      </trkpt>
      <trkpt lat="47.725185" lon="2.2212799">
        <ele>172.0</ele>
        <time>2022-01-13T10:02:26Z</time>
      </trkpt>
      <trkpt lat="47.725197" lon="2.2212968">
        <ele>172.0</ele>
        <time>2022-01-13T10:02:27Z</time>
      </trkpt>
      <trkpt lat="47.7252" lon="2.221312">
        <ele>171.0</ele>
        <time>2022-01-13T10:02:28Z</time>
      </trkpt>
      <trkpt lat="47.7252" lon="2.2213242">
        <ele>171.0</ele>
        <time>2022-01-13T10:02:29Z</time>
      </trkpt>
      <trkpt lat="47.725204" lon="2.2213395">
        <ele>171.0</ele>
        <time>2022-01-13T10:02:30Z</time>
      </trkpt>
      <trkpt lat="47.72521" lon="2.221348">
        <ele>171.0</ele>
        <time>2022-01-13T10:02:31Z</time>
      </trkpt>
      <trkpt lat="47.725216" lon="2.221355">
        <ele>171.0</ele>
        <time>2022-01-13T10:02:32Z</time>
      </trkpt>
      <trkpt lat="47.725224" lon="2.2213707">
        <ele>171.0</ele>
        <time>2022-01-13T10:02:33Z</time>
      </trkpt>
      <trkpt lat="47.725227" lon="2.2213833">
        <ele>171.0</ele>
        <time>2022-01-13T10:02:34Z</time>
      </trkpt>
      <trkpt lat="47.725235" lon="2.2213953">
        <ele>171.0</ele>
        <time>2022-01-13T10:02:35Z</time>
      </trkpt>
      <trkpt lat="47.725243" lon="2.2214017">
        <ele>171.0</ele>
        <time>2022-01-13T10:02:36Z</time>
      </trkpt>
      <trkpt lat="47.72525" lon="2.2214096">
        <ele>171.0</ele>
        <time>2022-01-13T10:02:37Z</time>
      </trkpt>
      <trkpt lat="47.725258" lon="2.2214208">
        <ele>171.0</ele>
        <time>2022-01-13T10:02:38Z</time>
      </trkpt>
      <trkpt lat="47.72526" lon="2.2214346">
        <ele>171.0</ele>
        <time>2022-01-13T10:02:39Z</time>
      </trkpt>
      <trkpt lat="47.72527" lon="2.2214458">
        <ele>171.0</ele>
        <time>2022-01-13T10:02:40Z</time>
      </trkpt>
      <trkpt lat="47.725273" lon="2.2214592">
        <ele>171.0</ele>
        <time>2022-01-13T10:02:41Z</time>
      </trkpt>
      <trkpt lat="47.725277" lon="2.2214715">
        <ele>171.0</ele>
        <time>2022-01-13T10:02:42Z</time>
      </trkpt>
      <trkpt lat="47.72528" lon="2.2214818">
        <ele>172.0</ele>
        <time>2022-01-13T10:02:43Z</time>
      </trkpt>
      <trkpt lat="47.72529" lon="2.2214947">
        <ele>172.0</ele>
        <time>2022-01-13T10:02:44Z</time>
      </trkpt>
      <trkpt lat="47.725296" lon="2.22151">
        <ele>171.0</ele>
        <time>2022-01-13T10:02:45Z</time>
      </trkpt>
      <trkpt lat="47.725307" lon="2.2215192">
        <ele>171.0</ele>
        <time>2022-01-13T10:02:46Z</time>
      </trkpt>
      <trkpt lat="47.725307" lon="2.2215357">
        <ele>171.0</ele>
        <time>2022-01-13T10:02:47Z</time>
      </trkpt>
      <trkpt lat="47.72531" lon="2.221547">
        <ele>171.0</ele>
        <time>2022-01-13T10:02:48Z</time>
      </trkpt>
      <trkpt lat="47.72532" lon="2.2215667">
        <ele>170.0</ele>
        <time>2022-01-13T10:02:49Z</time>
      </trkpt>
      <trkpt lat="47.725327" lon="2.221588">
        <ele>170.0</ele>
        <time>2022-01-13T10:02:50Z</time>
      </trkpt>
      <trkpt lat="47.725338" lon="2.2216122">
        <ele>171.0</ele>
        <time>2022-01-13T10:02:51Z</time>
      </trkpt>
      <trkpt lat="47.72534" lon="2.2216363">
        <ele>171.0</ele>
        <time>2022-01-13T10:02:52Z</time>
      </trkpt>
      <trkpt lat="47.725346" lon="2.221658">
        <ele>172.0</ele>
        <time>2022-01-13T10:02:53Z</time>
      </trkpt>
      <trkpt lat="47.725346" lon="2.2216778">
        <ele>172.0</ele>
        <time>2022-01-13T10:02:54Z</time>
      </trkpt>
      <trkpt lat="47.72534" lon="2.2216947">
        <ele>171.0</ele>
        <time>2022-01-13T10:02:55Z</time>
      </trkpt>
      <trkpt lat="47.72534" lon="2.2217116">
        <ele>172.0</ele>
        <time>2022-01-13T10:02:56Z</time>
      </trkpt>
      <trkpt lat="47.72535" lon="2.2217262">
        <ele>172.0</ele>
        <time>2022-01-13T10:02:57Z</time>
      </trkpt>
      <trkpt lat="47.725353" lon="2.2217402">
        <ele>173.0</ele>
        <time>2022-01-13T10:02:58Z</time>
      </trkpt>
      <trkpt lat="47.725357" lon="2.221759">
        <ele>173.0</ele>
        <time>2022-01-13T10:02:59Z</time>
      </trkpt>
      <trkpt lat="47.72536" lon="2.2217703">
        <ele>173.0</ele>
        <time>2022-01-13T10:03:00Z</time>
      </trkpt>
      <trkpt lat="47.725365" lon="2.2217836">
        <ele>173.0</ele>
        <time>2022-01-13T10:03:01Z</time>
      </trkpt>
      <trkpt lat="47.725365" lon="2.2217975">
        <ele>173.0</ele>
        <time>2022-01-13T10:03:02Z</time>
      </trkpt>
      <trkpt lat="47.72537" lon="2.221808">
        <ele>173.0</ele>
        <time>2022-01-13T10:03:03Z</time>
      </trkpt>
      <trkpt lat="47.725365" lon="2.221818">
        <ele>173.0</ele>
        <time>2022-01-13T10:03:04Z</time>
      </trkpt>
      <trkpt lat="47.725365" lon="2.221818">
        <ele>173.0</ele>
        <time>2022-01-13T10:03:05Z</time>
      </trkpt>
      <trkpt lat="47.725365" lon="2.221818">
        <ele>173.0</ele>
        <time>2022-01-13T10:03:06Z</time>
      </trkpt>
      <trkpt lat="47.725346" lon="2.2218332">
        <ele>173.0</ele>
        <time>2022-01-13T10:03:07Z</time>
      </trkpt>
      <trkpt lat="47.725338" lon="2.2218397">
        <ele>173.0</ele>
        <time>2022-01-13T10:03:08Z</time>
      </trkpt>
      <trkpt lat="47.72533" lon="2.2218482">
        <ele>173.0</ele>
        <time>2022-01-13T10:03:09Z</time>
      </trkpt>
      <trkpt lat="47.72532" lon="2.2218604">
        <ele>172.0</ele>
        <time>2022-01-13T10:03:10Z</time>
      </trkpt>
      <trkpt lat="47.72531" lon="2.2218733">
        <ele>171.0</ele>
        <time>2022-01-13T10:03:11Z</time>
      </trkpt>
      <trkpt lat="47.7253" lon="2.2218862">
        <ele>171.0</ele>
        <time>2022-01-13T10:03:12Z</time>
      </trkpt>
      <trkpt lat="47.725292" lon="2.221904">
        <ele>171.0</ele>
        <time>2022-01-13T10:03:13Z</time>
      </trkpt>
      <trkpt lat="47.725285" lon="2.2219121">
        <ele>171.0</ele>
        <time>2022-01-13T10:03:14Z</time>
      </trkpt>
      <trkpt lat="47.725277" lon="2.2219183">
        <ele>170.0</ele>
        <time>2022-01-13T10:03:15Z</time>
      </trkpt>
      <trkpt lat="47.725273" lon="2.2219296">
        <ele>170.0</ele>
        <time>2022-01-13T10:03:16Z</time>
      </trkpt>
      <trkpt lat="47.725266" lon="2.221942">
        <ele>171.0</ele>
        <time>2022-01-13T10:03:17Z</time>
      </trkpt>
      <trkpt lat="47.725258" lon="2.2219512">
        <ele>171.0</ele>
        <time>2022-01-13T10:03:18Z</time>
      </trkpt>
      <trkpt lat="47.725246" lon="2.22196">
        <ele>171.0</ele>
        <time>2022-01-13T10:03:19Z</time>
      </trkpt>
      <trkpt lat="47.725243" lon="2.2219684">
        <ele>170.0</ele>
        <time>2022-01-13T10:03:20Z</time>
      </trkpt>
      <trkpt lat="47.725235" lon="2.221984">
        <ele>170.0</ele>
        <time>2022-01-13T10:03:21Z</time>
      </trkpt>
      <trkpt lat="47.725227" lon="2.2219913">
        <ele>170.0</ele>
        <time>2022-01-13T10:03:22Z</time>
      </trkpt>
      <trkpt lat="47.72522" lon="2.2220092">
        <ele>170.0</ele>
        <time>2022-01-13T10:03:23Z</time>
      </trkpt>
      <trkpt lat="47.72521" lon="2.222025">
        <ele>170.0</ele>
        <time>2022-01-13T10:03:24Z</time>
      </trkpt>
      <trkpt lat="47.725197" lon="2.2220337">
        <ele>169.0</ele>
        <time>2022-01-13T10:03:25Z</time>
      </trkpt>
      <trkpt lat="47.72519" lon="2.2220414">
        <ele>170.0</ele>
        <time>2022-01-13T10:03:26Z</time>
      </trkpt>
      <trkpt lat="47.72518" lon="2.222054">
        <ele>170.0</ele>
        <time>2022-01-13T10:03:27Z</time>
      </trkpt>
      <trkpt lat="47.725174" lon="2.2220666">
        <ele>170.0</ele>
        <time>2022-01-13T10:03:28Z</time>
      </trkpt>
      <trkpt lat="47.725166" lon="2.2220778">
        <ele>170.0</ele>
        <time>2022-01-13T10:03:29Z</time>
      </trkpt>
      <trkpt lat="47.725163" lon="2.222081">
        <ele>170.0</ele>
        <time>2022-01-13T10:03:30Z</time>
      </trkpt>
      <trkpt lat="47.725155" lon="2.222085">
        <ele>170.0</ele>
        <time>2022-01-13T10:03:31Z</time>
      </trkpt>
      <trkpt lat="47.725147" lon="2.2220972">
        <ele>170.0</ele>
        <time>2022-01-13T10:03:32Z</time>
      </trkpt>
      <trkpt lat="47.725136" lon="2.222111">
        <ele>169.0</ele>
        <time>2022-01-13T10:03:33Z</time>
      </trkpt>
      <trkpt lat="47.72513" lon="2.222125">
        <ele>169.0</ele>
        <time>2022-01-13T10:03:34Z</time>
      </trkpt>
      <trkpt lat="47.72512" lon="2.2221363">
        <ele>169.0</ele>
        <time>2022-01-13T10:03:35Z</time>
      </trkpt>
      <trkpt lat="47.72511" lon="2.2221446">
        <ele>170.0</ele>
        <time>2022-01-13T10:03:36Z</time>
      </trkpt>
      <trkpt lat="47.725098" lon="2.2221508">
        <ele>170.0</ele>
        <time>2022-01-13T10:03:37Z</time>
      </trkpt>
      <trkpt lat="47.72509" lon="2.22216">
        <ele>169.0</ele>
        <time>2022-01-13T10:03:38Z</time>
      </trkpt>
      <trkpt lat="47.725082" lon="2.2221706">
        <ele>169.0</ele>
        <time>2022-01-13T10:03:39Z</time>
      </trkpt>
      <trkpt lat="47.725075" lon="2.2221777">
        <ele>169.0</ele>
        <time>2022-01-13T10:03:40Z</time>
      </trkpt>
      <trkpt lat="47.725067" lon="2.2221823">
        <ele>169.0</ele>
        <time>2022-01-13T10:03:41Z</time>
      </trkpt>
      <trkpt lat="47.72506" lon="2.2221944">
        <ele>169.0</ele>
        <time>2022-01-13T10:03:42Z</time>
      </trkpt>
      <trkpt lat="47.725056" lon="2.2222078">
        <ele>169.0</ele>
        <time>2022-01-13T10:03:43Z</time>
      </trkpt>
      <trkpt lat="47.725048" lon="2.2222147">
        <ele>169.0</ele>
        <time>2022-01-13T10:03:44Z</time>
      </trkpt>
      <trkpt lat="47.725037" lon="2.2222228">
        <ele>169.0</ele>
        <time>2022-01-13T10:03:45Z</time>
      </trkpt>
      <trkpt lat="47.72503" lon="2.2222357">
        <ele>168.0</ele>
        <time>2022-01-13T10:03:46Z</time>
      </trkpt>
      <trkpt lat="47.725018" lon="2.222249">
        <ele>168.0</ele>
        <time>2022-01-13T10:03:47Z</time>
      </trkpt>
      <trkpt lat="47.72501" lon="2.22226">
        <ele>167.0</ele>
        <time>2022-01-13T10:03:48Z</time>
      </trkpt>
      <trkpt lat="47.725002" lon="2.2222705">
        <ele>167.0</ele>
        <time>2022-01-13T10:03:49Z</time>
      </trkpt>
      <trkpt lat="47.72499" lon="2.2222836">
        <ele>167.0</ele>
        <time>2022-01-13T10:03:50Z</time>
      </trkpt>
      <trkpt lat="47.724987" lon="2.222291">
        <ele>167.0</ele>
        <time>2022-01-13T10:03:51Z</time>
      </trkpt>
      <trkpt lat="47.724976" lon="2.2223024">
        <ele>167.0</ele>
        <time>2022-01-13T10:03:52Z</time>
      </trkpt>
      <trkpt lat="47.724968" lon="2.2223175">
        <ele>166.0</ele>
        <time>2022-01-13T10:03:53Z</time>
      </trkpt>
      <trkpt lat="47.72496" lon="2.2223363">
        <ele>166.0</ele>
        <time>2022-01-13T10:03:54Z</time>
      </trkpt>
      <trkpt lat="47.724957" lon="2.2223582">
        <ele>166.0</ele>
        <time>2022-01-13T10:03:55Z</time>
      </trkpt>
      <trkpt lat="47.72495" lon="2.2223637">
        <ele>167.0</ele>
        <time>2022-01-13T10:03:56Z</time>
      </trkpt>
      <trkpt lat="47.724937" lon="2.2223706">
        <ele>166.0</ele>
        <time>2022-01-13T10:03:57Z</time>
      </trkpt>
      <trkpt lat="47.72493" lon="2.2223785">
        <ele>166.0</ele>
        <time>2022-01-13T10:03:58Z</time>
      </trkpt>
      <trkpt lat="47.72492" lon="2.2223837">
        <ele>166.0</ele>
        <time>2022-01-13T10:03:59Z</time>
      </trkpt>
      <trkpt lat="47.72491" lon="2.222393">
        <ele>166.0</ele>
        <time>2022-01-13T10:04:00Z</time>
      </trkpt>
      <trkpt lat="47.724903" lon="2.2224064">
        <ele>166.0</ele>
        <time>2022-01-13T10:04:01Z</time>
      </trkpt>
      <trkpt lat="47.7249" lon="2.2224195">
        <ele>166.0</ele>
        <time>2022-01-13T10:04:02Z</time>
      </trkpt>
      <trkpt lat="47.72489" lon="2.2224326">
        <ele>166.0</ele>
        <time>2022-01-13T10:04:03Z</time>
      </trkpt>
      <trkpt lat="47.72489" lon="2.2224505">
        <ele>166.0</ele>
        <time>2022-01-13T10:04:04Z</time>
      </trkpt>
      <trkpt lat="47.724884" lon="2.222464">
        <ele>167.0</ele>
        <time>2022-01-13T10:04:05Z</time>
      </trkpt>
      <trkpt lat="47.724876" lon="2.2224743">
        <ele>167.0</ele>
        <time>2022-01-13T10:04:06Z</time>
      </trkpt>
      <trkpt lat="47.724873" lon="2.222487">
        <ele>167.0</ele>
        <time>2022-01-13T10:04:07Z</time>
      </trkpt>
      <trkpt lat="47.72486" lon="2.2224991">
        <ele>167.0</ele>
        <time>2022-01-13T10:04:08Z</time>
      </trkpt>
      <trkpt lat="47.724857" lon="2.222516">
        <ele>166.0</ele>
        <time>2022-01-13T10:04:09Z</time>
      </trkpt>
      <trkpt lat="47.72485" lon="2.2225356">
        <ele>166.0</ele>
        <time>2022-01-13T10:04:10Z</time>
      </trkpt>
      <trkpt lat="47.724846" lon="2.222547">
        <ele>166.0</ele>
        <time>2022-01-13T10:04:11Z</time>
      </trkpt>
      <trkpt lat="47.72484" lon="2.2225575">
        <ele>166.0</ele>
        <time>2022-01-13T10:04:12Z</time>
      </trkpt>
      <trkpt lat="47.724834" lon="2.2225637">
        <ele>166.0</ele>
        <time>2022-01-13T10:04:13Z</time>
      </trkpt>
      <trkpt lat="47.724827" lon="2.222574">
        <ele>166.0</ele>
        <time>2022-01-13T10:04:14Z</time>
      </trkpt>
      <trkpt lat="47.724815" lon="2.222586">
        <ele>166.0</ele>
        <time>2022-01-13T10:04:15Z</time>
      </trkpt>
      <trkpt lat="47.724808" lon="2.2226024">
        <ele>166.0</ele>
        <time>2022-01-13T10:04:16Z</time>
      </trkpt>
      <trkpt lat="47.7248" lon="2.2226167">
        <ele>166.0</ele>
        <time>2022-01-13T10:04:17Z</time>
      </trkpt>
      <trkpt lat="47.72479" lon="2.222624">
        <ele>166.0</ele>
        <time>2022-01-13T10:04:18Z</time>
      </trkpt>
      <trkpt lat="47.72478" lon="2.222634">
        <ele>166.0</ele>
        <time>2022-01-13T10:04:19Z</time>
      </trkpt>
      <trkpt lat="47.72477" lon="2.2226453">
        <ele>166.0</ele>
        <time>2022-01-13T10:04:20Z</time>
      </trkpt>
      <trkpt lat="47.724762" lon="2.2226613">
        <ele>166.0</ele>
        <time>2022-01-13T10:04:21Z</time>
      </trkpt>
      <trkpt lat="47.724754" lon="2.2226775">
        <ele>166.0</ele>
        <time>2022-01-13T10:04:22Z</time>
      </trkpt>
      <trkpt lat="47.724747" lon="2.2226918">
        <ele>166.0</ele>
        <time>2022-01-13T10:04:23Z</time>
      </trkpt>
      <trkpt lat="47.724743" lon="2.2227104">
        <ele>166.0</ele>
        <time>2022-01-13T10:04:24Z</time>
      </trkpt>
      <trkpt lat="47.72474" lon="2.2227266">
        <ele>166.0</ele>
        <time>2022-01-13T10:04:25Z</time>
      </trkpt>
      <trkpt lat="47.724735" lon="2.2227433">
        <ele>167.0</ele>
        <time>2022-01-13T10:04:26Z</time>
      </trkpt>
      <trkpt lat="47.724728" lon="2.222762">
        <ele>167.0</ele>
        <time>2022-01-13T10:04:27Z</time>
      </trkpt>
      <trkpt lat="47.72472" lon="2.2227726">
        <ele>167.0</ele>
        <time>2022-01-13T10:04:28Z</time>
      </trkpt>
      <trkpt lat="47.724716" lon="2.2227857">
        <ele>167.0</ele>
        <time>2022-01-13T10:04:29Z</time>
      </trkpt>
      <trkpt lat="47.724716" lon="2.2228">
        <ele>167.0</ele>
        <time>2022-01-13T10:04:30Z</time>
      </trkpt>
      <trkpt lat="47.724716" lon="2.2228165">
        <ele>167.0</ele>
        <time>2022-01-13T10:04:31Z</time>
      </trkpt>
      <trkpt lat="47.724712" lon="2.222838">
        <ele>167.0</ele>
        <time>2022-01-13T10:04:32Z</time>
      </trkpt>
      <trkpt lat="47.724712" lon="2.2228594">
        <ele>167.0</ele>
        <time>2022-01-13T10:04:33Z</time>
      </trkpt>
      <trkpt lat="47.72471" lon="2.2228715">
        <ele>168.0</ele>
        <time>2022-01-13T10:04:34Z</time>
      </trkpt>
      <trkpt lat="47.724712" lon="2.2228854">
        <ele>168.0</ele>
        <time>2022-01-13T10:04:35Z</time>
      </trkpt>
      <trkpt lat="47.72471" lon="2.2228937">
        <ele>167.0</ele>
        <time>2022-01-13T10:04:36Z</time>
      </trkpt>
      <trkpt lat="47.72471" lon="2.2229118">
        <ele>167.0</ele>
        <time>2022-01-13T10:04:37Z</time>
      </trkpt>
      <trkpt lat="47.7247" lon="2.2229295">
        <ele>167.0</ele>
        <time>2022-01-13T10:04:38Z</time>
      </trkpt>
      <trkpt lat="47.7247" lon="2.222949">
        <ele>167.0</ele>
        <time>2022-01-13T10:04:39Z</time>
      </trkpt>
      <trkpt lat="47.724697" lon="2.222972">
        <ele>168.0</ele>
        <time>2022-01-13T10:04:40Z</time>
      </trkpt>
      <trkpt lat="47.72469" lon="2.2229898">
        <ele>167.0</ele>
        <time>2022-01-13T10:04:41Z</time>
      </trkpt>
      <trkpt lat="47.72468" lon="2.2230098">
        <ele>167.0</ele>
        <time>2022-01-13T10:04:42Z</time>
      </trkpt>
      <trkpt lat="47.724678" lon="2.2230237">
        <ele>168.0</ele>
        <time>2022-01-13T10:04:43Z</time>
      </trkpt>
      <trkpt lat="47.724674" lon="2.223036">
        <ele>168.0</ele>
        <time>2022-01-13T10:04:44Z</time>
      </trkpt>
      <trkpt lat="47.724667" lon="2.2230563">
        <ele>169.0</ele>
        <time>2022-01-13T10:04:45Z</time>
      </trkpt>
      <trkpt lat="47.724663" lon="2.2230713">
        <ele>169.0</ele>
        <time>2022-01-13T10:04:46Z</time>
      </trkpt>
      <trkpt lat="47.724655" lon="2.2230916">
        <ele>169.0</ele>
        <time>2022-01-13T10:04:47Z</time>
      </trkpt>
      <trkpt lat="47.724648" lon="2.2231112">
        <ele>169.0</ele>
        <time>2022-01-13T10:04:48Z</time>
      </trkpt>
      <trkpt lat="47.724644" lon="2.2231274">
        <ele>169.0</ele>
        <time>2022-01-13T10:04:49Z</time>
      </trkpt>
      <trkpt lat="47.724636" lon="2.2231407">
        <ele>169.0</ele>
        <time>2022-01-13T10:04:50Z</time>
      </trkpt>
      <trkpt lat="47.724625" lon="2.223149">
        <ele>170.0</ele>
        <time>2022-01-13T10:04:51Z</time>
      </trkpt>
      <trkpt lat="47.72462" lon="2.2231615">
        <ele>169.0</ele>
        <time>2022-01-13T10:04:52Z</time>
      </trkpt>
      <trkpt lat="47.724617" lon="2.2231731">
        <ele>170.0</ele>
        <time>2022-01-13T10:04:53Z</time>
      </trkpt>
      <trkpt lat="47.724613" lon="2.2231882">
        <ele>170.0</ele>
        <time>2022-01-13T10:04:54Z</time>
      </trkpt>
      <trkpt lat="47.724606" lon="2.2232022">
        <ele>170.0</ele>
        <time>2022-01-13T10:04:55Z</time>
      </trkpt>
      <trkpt lat="47.724598" lon="2.2232163">
        <ele>170.0</ele>
        <time>2022-01-13T10:04:56Z</time>
      </trkpt>
      <trkpt lat="47.72459" lon="2.2232277">
        <ele>170.0</ele>
        <time>2022-01-13T10:04:57Z</time>
      </trkpt>
      <trkpt lat="47.724583" lon="2.223242">
        <ele>170.0</ele>
        <time>2022-01-13T10:04:58Z</time>
      </trkpt>
      <trkpt lat="47.72457" lon="2.2232552">
        <ele>170.0</ele>
        <time>2022-01-13T10:04:59Z</time>
      </trkpt>
      <trkpt lat="47.72456" lon="2.2232652">
        <ele>170.0</ele>
        <time>2022-01-13T10:05:00Z</time>
      </trkpt>
      <trkpt lat="47.724545" lon="2.2232804">
        <ele>171.0</ele>
        <time>2022-01-13T10:05:01Z</time>
      </trkpt>
      <trkpt lat="47.724537" lon="2.2232919">
        <ele>171.0</ele>
        <time>2022-01-13T10:05:02Z</time>
      </trkpt>
      <trkpt lat="47.72453" lon="2.2233033">
        <ele>171.0</ele>
        <time>2022-01-13T10:05:03Z</time>
      </trkpt>
      <trkpt lat="47.72452" lon="2.2233078">
        <ele>170.0</ele>
        <time>2022-01-13T10:05:04Z</time>
      </trkpt>
      <trkpt lat="47.724514" lon="2.223316">
        <ele>170.0</ele>
        <time>2022-01-13T10:05:05Z</time>
      </trkpt>
      <trkpt lat="47.724503" lon="2.223324">
        <ele>171.0</ele>
        <time>2022-01-13T10:05:06Z</time>
      </trkpt>
      <trkpt lat="47.724495" lon="2.223331">
        <ele>171.0</ele>
        <time>2022-01-13T10:05:07Z</time>
      </trkpt>
      <trkpt lat="47.72449" lon="2.223337">
        <ele>171.0</ele>
        <time>2022-01-13T10:05:08Z</time>
      </trkpt>
      <trkpt lat="47.724483" lon="2.2233434">
        <ele>171.0</ele>
        <time>2022-01-13T10:05:09Z</time>
      </trkpt>
      <trkpt lat="47.72448" lon="2.223347">
        <ele>171.0</ele>
        <time>2022-01-13T10:05:10Z</time>
      </trkpt>
      <trkpt lat="47.724472" lon="2.2233512">
        <ele>171.0</ele>
        <time>2022-01-13T10:05:11Z</time>
      </trkpt>
      <trkpt lat="47.72447" lon="2.2233555">
        <ele>171.0</ele>
        <time>2022-01-13T10:05:12Z</time>
      </trkpt>
      <trkpt lat="47.72446" lon="2.2233667">
        <ele>171.0</ele>
        <time>2022-01-13T10:05:13Z</time>
      </trkpt>
      <trkpt lat="47.72446" lon="2.2233627">
        <ele>171.0</ele>
        <time>2022-01-13T10:05:14Z</time>
      </trkpt>
      <trkpt lat="47.724453" lon="2.2233703">
        <ele>171.0</ele>
        <time>2022-01-13T10:05:15Z</time>
      </trkpt>
      <trkpt lat="47.724445" lon="2.2233808">
        <ele>171.0</ele>
        <time>2022-01-13T10:05:16Z</time>
      </trkpt>
      <trkpt lat="47.724438" lon="2.22339">
        <ele>171.0</ele>
        <time>2022-01-13T10:05:17Z</time>
      </trkpt>
      <trkpt lat="47.724426" lon="2.223399">
        <ele>171.0</ele>
        <time>2022-01-13T10:05:18Z</time>
      </trkpt>
      <trkpt lat="47.72442" lon="2.2234118">
        <ele>171.0</ele>
        <time>2022-01-13T10:05:19Z</time>
      </trkpt>
      <trkpt lat="47.724403" lon="2.2234247">
        <ele>171.0</ele>
        <time>2022-01-13T10:05:20Z</time>
      </trkpt>
      <trkpt lat="47.724396" lon="2.2234328">
        <ele>171.0</ele>
        <time>2022-01-13T10:05:21Z</time>
      </trkpt>
      <trkpt lat="47.72439" lon="2.2234437">
        <ele>172.0</ele>
        <time>2022-01-13T10:05:22Z</time>
      </trkpt>
      <trkpt lat="47.72438" lon="2.22345">
        <ele>172.0</ele>
        <time>2022-01-13T10:05:23Z</time>
      </trkpt>
      <trkpt lat="47.724373" lon="2.2234554">
        <ele>172.0</ele>
        <time>2022-01-13T10:05:24Z</time>
      </trkpt>
      <trkpt lat="47.724365" lon="2.2234716">
        <ele>172.0</ele>
        <time>2022-01-13T10:05:25Z</time>
      </trkpt>
      <trkpt lat="47.724354" lon="2.223481">
        <ele>171.0</ele>
        <time>2022-01-13T10:05:26Z</time>
      </trkpt>
      <trkpt lat="47.724346" lon="2.2234898">
        <ele>171.0</ele>
        <time>2022-01-13T10:05:27Z</time>
      </trkpt>
      <trkpt lat="47.72434" lon="2.223502">
        <ele>171.0</ele>
        <time>2022-01-13T10:05:28Z</time>
      </trkpt>
      <trkpt lat="47.724327" lon="2.2235107">
        <ele>171.0</ele>
        <time>2022-01-13T10:05:29Z</time>
      </trkpt>
      <trkpt lat="47.724323" lon="2.2235162">
        <ele>170.0</ele>
        <time>2022-01-13T10:05:30Z</time>
      </trkpt>
      <trkpt lat="47.724316" lon="2.223526">
        <ele>169.0</ele>
        <time>2022-01-13T10:05:31Z</time>
      </trkpt>
      <trkpt lat="47.724308" lon="2.223535">
        <ele>170.0</ele>
        <time>2022-01-13T10:05:32Z</time>
      </trkpt>
      <trkpt lat="47.7243" lon="2.2235427">
        <ele>170.0</ele>
        <time>2022-01-13T10:05:33Z</time>
      </trkpt>
      <trkpt lat="47.724293" lon="2.2235577">
        <ele>170.0</ele>
        <time>2022-01-13T10:05:34Z</time>
      </trkpt>
      <trkpt lat="47.724285" lon="2.2235668">
        <ele>170.0</ele>
        <time>2022-01-13T10:05:35Z</time>
      </trkpt>
      <trkpt lat="47.724274" lon="2.2235775">
        <ele>170.0</ele>
        <time>2022-01-13T10:05:36Z</time>
      </trkpt>
      <trkpt lat="47.724266" lon="2.2235866">
        <ele>170.0</ele>
        <time>2022-01-13T10:05:37Z</time>
      </trkpt>
      <trkpt lat="47.72426" lon="2.2235992">
        <ele>171.0</ele>
        <time>2022-01-13T10:05:38Z</time>
      </trkpt>
      <trkpt lat="47.724247" lon="2.2236063">
        <ele>171.0</ele>
        <time>2022-01-13T10:05:39Z</time>
      </trkpt>
      <trkpt lat="47.72424" lon="2.2236156">
        <ele>170.0</ele>
        <time>2022-01-13T10:05:40Z</time>
      </trkpt>
      <trkpt lat="47.724228" lon="2.2236247">
        <ele>170.0</ele>
        <time>2022-01-13T10:05:41Z</time>
      </trkpt>
      <trkpt lat="47.72422" lon="2.2236297">
        <ele>170.0</ele>
        <time>2022-01-13T10:05:42Z</time>
      </trkpt>
      <trkpt lat="47.724216" lon="2.223641">
        <ele>170.0</ele>
        <time>2022-01-13T10:05:43Z</time>
      </trkpt>
      <trkpt lat="47.72421" lon="2.2236526">
        <ele>170.0</ele>
        <time>2022-01-13T10:05:44Z</time>
      </trkpt>
      <trkpt lat="47.7242" lon="2.2236638">
        <ele>170.0</ele>
        <time>2022-01-13T10:05:45Z</time>
      </trkpt>
      <trkpt lat="47.72419" lon="2.2236729">
        <ele>170.0</ele>
        <time>2022-01-13T10:05:46Z</time>
      </trkpt>
      <trkpt lat="47.724182" lon="2.2236853">
        <ele>170.0</ele>
        <time>2022-01-13T10:05:47Z</time>
      </trkpt>
      <trkpt lat="47.72417" lon="2.223695">
        <ele>170.0</ele>
        <time>2022-01-13T10:05:48Z</time>
      </trkpt>
      <trkpt lat="47.724163" lon="2.2237096">
        <ele>170.0</ele>
        <time>2022-01-13T10:05:49Z</time>
      </trkpt>
      <trkpt lat="47.724155" lon="2.2237213">
        <ele>171.0</ele>
        <time>2022-01-13T10:05:50Z</time>
      </trkpt>
      <trkpt lat="47.724148" lon="2.223736">
        <ele>171.0</ele>
        <time>2022-01-13T10:05:51Z</time>
      </trkpt>
      <trkpt lat="47.724144" lon="2.2237399">
        <ele>170.0</ele>
        <time>2022-01-13T10:05:52Z</time>
      </trkpt>
      <trkpt lat="47.724136" lon="2.2237458">
        <ele>170.0</ele>
        <time>2022-01-13T10:05:53Z</time>
      </trkpt>
      <trkpt lat="47.72413" lon="2.223757">
        <ele>170.0</ele>
        <time>2022-01-13T10:05:54Z</time>
      </trkpt>
      <trkpt lat="47.724117" lon="2.2237685">
        <ele>170.0</ele>
        <time>2022-01-13T10:05:55Z</time>
      </trkpt>
      <trkpt lat="47.724106" lon="2.2237828">
        <ele>170.0</ele>
        <time>2022-01-13T10:05:56Z</time>
      </trkpt>
      <trkpt lat="47.724102" lon="2.2237916">
        <ele>170.0</ele>
        <time>2022-01-13T10:05:57Z</time>
      </trkpt>
      <trkpt lat="47.724094" lon="2.2237964">
        <ele>170.0</ele>
        <time>2022-01-13T10:05:58Z</time>
      </trkpt>
      <trkpt lat="47.724087" lon="2.2238054">
        <ele>170.0</ele>
        <time>2022-01-13T10:05:59Z</time>
      </trkpt>
      <trkpt lat="47.72408" lon="2.2238212">
        <ele>170.0</ele>
        <time>2022-01-13T10:06:00Z</time>
      </trkpt>
      <trkpt lat="47.72407" lon="2.2238333">
        <ele>170.0</ele>
        <time>2022-01-13T10:06:01Z</time>
      </trkpt>
      <trkpt lat="47.72406" lon="2.2238462">
        <ele>170.0</ele>
        <time>2022-01-13T10:06:02Z</time>
      </trkpt>
      <trkpt lat="47.724056" lon="2.2238553">
        <ele>170.0</ele>
        <time>2022-01-13T10:06:03Z</time>
      </trkpt>
      <trkpt lat="47.72405" lon="2.2238662">
        <ele>170.0</ele>
        <time>2022-01-13T10:06:04Z</time>
      </trkpt>
      <trkpt lat="47.724037" lon="2.2238753">
        <ele>170.0</ele>
        <time>2022-01-13T10:06:05Z</time>
      </trkpt>
      <trkpt lat="47.72403" lon="2.2238882">
        <ele>170.0</ele>
        <time>2022-01-13T10:06:06Z</time>
      </trkpt>
      <trkpt lat="47.724022" lon="2.223901">
        <ele>170.0</ele>
        <time>2022-01-13T10:06:07Z</time>
      </trkpt>
      <trkpt lat="47.72401" lon="2.2239144">
        <ele>169.0</ele>
        <time>2022-01-13T10:06:08Z</time>
      </trkpt>
      <trkpt lat="47.724003" lon="2.2239258">
        <ele>169.0</ele>
        <time>2022-01-13T10:06:09Z</time>
      </trkpt>
      <trkpt lat="47.72399" lon="2.2239442">
        <ele>170.0</ele>
        <time>2022-01-13T10:06:10Z</time>
      </trkpt>
      <trkpt lat="47.723984" lon="2.2239559">
        <ele>170.0</ele>
        <time>2022-01-13T10:06:11Z</time>
      </trkpt>
      <trkpt lat="47.723972" lon="2.2239642">
        <ele>169.0</ele>
        <time>2022-01-13T10:06:12Z</time>
      </trkpt>
      <trkpt lat="47.723965" lon="2.2239723">
        <ele>170.0</ele>
        <time>2022-01-13T10:06:13Z</time>
      </trkpt>
      <trkpt lat="47.723957" lon="2.2239854">
        <ele>169.0</ele>
        <time>2022-01-13T10:06:14Z</time>
      </trkpt>
      <trkpt lat="47.72395" lon="2.2239988">
        <ele>169.0</ele>
        <time>2022-01-13T10:06:15Z</time>
      </trkpt>
      <trkpt lat="47.72394" lon="2.2240152">
        <ele>169.0</ele>
        <time>2022-01-13T10:06:16Z</time>
      </trkpt>
      <trkpt lat="47.72393" lon="2.224028">
        <ele>169.0</ele>
        <time>2022-01-13T10:06:17Z</time>
      </trkpt>
      <trkpt lat="47.723923" lon="2.224037">
        <ele>169.0</ele>
        <time>2022-01-13T10:06:18Z</time>
      </trkpt>
      <trkpt lat="47.72391" lon="2.2240357">
        <ele>168.0</ele>
        <time>2022-01-13T10:06:19Z</time>
      </trkpt>
      <trkpt lat="47.7239" lon="2.224043">
        <ele>168.0</ele>
        <time>2022-01-13T10:06:20Z</time>
      </trkpt>
      <trkpt lat="47.723885" lon="2.224055">
        <ele>168.0</ele>
        <time>2022-01-13T10:06:21Z</time>
      </trkpt>
      <trkpt lat="47.723873" lon="2.224062">
        <ele>168.0</ele>
        <time>2022-01-13T10:06:22Z</time>
      </trkpt>
      <trkpt lat="47.72386" lon="2.2240736">
        <ele>168.0</ele>
        <time>2022-01-13T10:06:23Z</time>
      </trkpt>
      <trkpt lat="47.723854" lon="2.224085">
        <ele>168.0</ele>
        <time>2022-01-13T10:06:24Z</time>
      </trkpt>
      <trkpt lat="47.723843" lon="2.2240944">
        <ele>168.0</ele>
        <time>2022-01-13T10:06:25Z</time>
      </trkpt>
      <trkpt lat="47.723835" lon="2.2241085">
        <ele>167.0</ele>
        <time>2022-01-13T10:06:26Z</time>
      </trkpt>
      <trkpt lat="47.723827" lon="2.2241235">
        <ele>168.0</ele>
        <time>2022-01-13T10:06:27Z</time>
      </trkpt>
      <trkpt lat="47.723816" lon="2.224133">
        <ele>168.0</ele>
        <time>2022-01-13T10:06:28Z</time>
      </trkpt>
      <trkpt lat="47.723804" lon="2.2241426">
        <ele>168.0</ele>
        <time>2022-01-13T10:06:29Z</time>
      </trkpt>
      <trkpt lat="47.723793" lon="2.2241542">
        <ele>169.0</ele>
        <time>2022-01-13T10:06:30Z</time>
      </trkpt>
      <trkpt lat="47.723785" lon="2.2241738">
        <ele>169.0</ele>
        <time>2022-01-13T10:06:31Z</time>
      </trkpt>
      <trkpt lat="47.723778" lon="2.2241874">
        <ele>169.0</ele>
        <time>2022-01-13T10:06:32Z</time>
      </trkpt>
      <trkpt lat="47.723766" lon="2.2242045">
        <ele>169.0</ele>
        <time>2022-01-13T10:06:33Z</time>
      </trkpt>
      <trkpt lat="47.723755" lon="2.2242196">
        <ele>169.0</ele>
        <time>2022-01-13T10:06:34Z</time>
      </trkpt>
      <trkpt lat="47.723747" lon="2.2242377">
        <ele>169.0</ele>
        <time>2022-01-13T10:06:35Z</time>
      </trkpt>
      <trkpt lat="47.723743" lon="2.2242513">
        <ele>169.0</ele>
        <time>2022-01-13T10:06:36Z</time>
      </trkpt>
      <trkpt lat="47.723736" lon="2.2242644">
        <ele>170.0</ele>
        <time>2022-01-13T10:06:37Z</time>
      </trkpt>
      <trkpt lat="47.72373" lon="2.224281">
        <ele>170.0</ele>
        <time>2022-01-13T10:06:38Z</time>
      </trkpt>
      <trkpt lat="47.723724" lon="2.224302">
        <ele>170.0</ele>
        <time>2022-01-13T10:06:39Z</time>
      </trkpt>
      <trkpt lat="47.723724" lon="2.2243207">
        <ele>169.0</ele>
        <time>2022-01-13T10:06:40Z</time>
      </trkpt>
      <trkpt lat="47.72372" lon="2.2243404">
        <ele>169.0</ele>
        <time>2022-01-13T10:06:41Z</time>
      </trkpt>
      <trkpt lat="47.723713" lon="2.2243602">
        <ele>170.0</ele>
        <time>2022-01-13T10:06:42Z</time>
      </trkpt>
      <trkpt lat="47.72371" lon="2.2243772">
        <ele>170.0</ele>
        <time>2022-01-13T10:06:43Z</time>
      </trkpt>
      <trkpt lat="47.7237" lon="2.2243893">
        <ele>169.0</ele>
        <time>2022-01-13T10:06:44Z</time>
      </trkpt>
      <trkpt lat="47.723694" lon="2.2244024">
        <ele>170.0</ele>
        <time>2022-01-13T10:06:45Z</time>
      </trkpt>
      <trkpt lat="47.72369" lon="2.2244143">
        <ele>170.0</ele>
        <time>2022-01-13T10:06:46Z</time>
      </trkpt>
      <trkpt lat="47.723686" lon="2.2244291">
        <ele>170.0</ele>
        <time>2022-01-13T10:06:47Z</time>
      </trkpt>
      <trkpt lat="47.72368" lon="2.2244458">
        <ele>170.0</ele>
        <time>2022-01-13T10:06:48Z</time>
      </trkpt>
      <trkpt lat="47.723675" lon="2.2244606">
        <ele>169.0</ele>
        <time>2022-01-13T10:06:49Z</time>
      </trkpt>
      <trkpt lat="47.72367" lon="2.2244756">
        <ele>169.0</ele>
        <time>2022-01-13T10:06:50Z</time>
      </trkpt>
      <trkpt lat="47.72366" lon="2.2244854">
        <ele>169.0</ele>
        <time>2022-01-13T10:06:51Z</time>
      </trkpt>
      <trkpt lat="47.72365" lon="2.224494">
        <ele>169.0</ele>
        <time>2022-01-13T10:06:52Z</time>
      </trkpt>
      <trkpt lat="47.723648" lon="2.224497">
        <ele>169.0</ele>
        <time>2022-01-13T10:06:53Z</time>
      </trkpt>
      <trkpt lat="47.72364" lon="2.2245078">
        <ele>169.0</ele>
        <time>2022-01-13T10:06:54Z</time>
      </trkpt>
      <trkpt lat="47.723633" lon="2.2245173">
        <ele>169.0</ele>
        <time>2022-01-13T10:06:55Z</time>
      </trkpt>
      <trkpt lat="47.72363" lon="2.224533">
        <ele>169.0</ele>
        <time>2022-01-13T10:06:56Z</time>
      </trkpt>
      <trkpt lat="47.72362" lon="2.2245488">
        <ele>169.0</ele>
        <time>2022-01-13T10:06:57Z</time>
      </trkpt>
      <trkpt lat="47.72362" lon="2.2245677">
        <ele>168.0</ele>
        <time>2022-01-13T10:06:58Z</time>
      </trkpt>
      <trkpt lat="47.72362" lon="2.224585">
        <ele>169.0</ele>
        <time>2022-01-13T10:06:59Z</time>
      </trkpt>
      <trkpt lat="47.723618" lon="2.224598">
        <ele>169.0</ele>
        <time>2022-01-13T10:07:00Z</time>
      </trkpt>
      <trkpt lat="47.72361" lon="2.2246144">
        <ele>169.0</ele>
        <time>2022-01-13T10:07:01Z</time>
      </trkpt>
      <trkpt lat="47.723606" lon="2.2246275">
        <ele>169.0</ele>
        <time>2022-01-13T10:07:02Z</time>
      </trkpt>
      <trkpt lat="47.723595" lon="2.2246375">
        <ele>169.0</ele>
        <time>2022-01-13T10:07:03Z</time>
      </trkpt>
      <trkpt lat="47.72358" lon="2.2246459">
        <ele>168.0</ele>
        <time>2022-01-13T10:07:04Z</time>
      </trkpt>
      <trkpt lat="47.723568" lon="2.2246606">
        <ele>168.0</ele>
        <time>2022-01-13T10:07:05Z</time>
      </trkpt>
      <trkpt lat="47.72356" lon="2.224673">
        <ele>169.0</ele>
        <time>2022-01-13T10:07:06Z</time>
      </trkpt>
      <trkpt lat="47.72355" lon="2.2246904">
        <ele>168.0</ele>
        <time>2022-01-13T10:07:07Z</time>
      </trkpt>
      <trkpt lat="47.72354" lon="2.2246974">
        <ele>168.0</ele>
        <time>2022-01-13T10:07:08Z</time>
      </trkpt>
      <trkpt lat="47.723526" lon="2.2247026">
        <ele>168.0</ele>
        <time>2022-01-13T10:07:09Z</time>
      </trkpt>
      <trkpt lat="47.723515" lon="2.2247057">
        <ele>169.0</ele>
        <time>2022-01-13T10:07:10Z</time>
      </trkpt>
      <trkpt lat="47.723507" lon="2.2247052">
        <ele>169.0</ele>
        <time>2022-01-13T10:07:11Z</time>
      </trkpt>
      <trkpt lat="47.723495" lon="2.2247033">
        <ele>168.0</ele>
        <time>2022-01-13T10:07:12Z</time>
      </trkpt>
      <trkpt lat="47.723484" lon="2.224701">
        <ele>168.0</ele>
        <time>2022-01-13T10:07:13Z</time>
      </trkpt>
      <trkpt lat="47.723476" lon="2.2246935">
        <ele>168.0</ele>
        <time>2022-01-13T10:07:14Z</time>
      </trkpt>
      <trkpt lat="47.723465" lon="2.2246902">
        <ele>168.0</ele>
        <time>2022-01-13T10:07:15Z</time>
      </trkpt>
      <trkpt lat="47.723454" lon="2.2246895">
        <ele>168.0</ele>
        <time>2022-01-13T10:07:16Z</time>
      </trkpt>
      <trkpt lat="47.723442" lon="2.224688">
        <ele>168.0</ele>
        <time>2022-01-13T10:07:17Z</time>
      </trkpt>
      <trkpt lat="47.72343" lon="2.2246869">
        <ele>168.0</ele>
        <time>2022-01-13T10:07:18Z</time>
      </trkpt>
      <trkpt lat="47.72342" lon="2.224685">
        <ele>167.0</ele>
        <time>2022-01-13T10:07:19Z</time>
      </trkpt>
      <trkpt lat="47.723408" lon="2.2246835">
        <ele>167.0</ele>
        <time>2022-01-13T10:07:20Z</time>
      </trkpt>
      <trkpt lat="47.723396" lon="2.22468">
        <ele>166.0</ele>
        <time>2022-01-13T10:07:21Z</time>
      </trkpt>
      <trkpt lat="47.723385" lon="2.2246778">
        <ele>166.0</ele>
        <time>2022-01-13T10:07:22Z</time>
      </trkpt>
      <trkpt lat="47.723377" lon="2.2246804">
        <ele>166.0</ele>
        <time>2022-01-13T10:07:23Z</time>
      </trkpt>
      <trkpt lat="47.723362" lon="2.2246811">
        <ele>166.0</ele>
        <time>2022-01-13T10:07:24Z</time>
      </trkpt>
      <trkpt lat="47.723343" lon="2.224677">
        <ele>166.0</ele>
        <time>2022-01-13T10:07:25Z</time>
      </trkpt>
      <trkpt lat="47.72333" lon="2.2246745">
        <ele>166.0</ele>
        <time>2022-01-13T10:07:26Z</time>
      </trkpt>
      <trkpt lat="47.723328" lon="2.2246647">
        <ele>167.0</ele>
        <time>2022-01-13T10:07:27Z</time>
      </trkpt>
      <trkpt lat="47.723324" lon="2.224665">
        <ele>167.0</ele>
        <time>2022-01-13T10:07:28Z</time>
      </trkpt>
      <trkpt lat="47.723316" lon="2.2246592">
        <ele>166.0</ele>
        <time>2022-01-13T10:07:29Z</time>
      </trkpt>
      <trkpt lat="47.72331" lon="2.2246554">
        <ele>167.0</ele>
        <time>2022-01-13T10:07:30Z</time>
      </trkpt>
      <trkpt lat="47.7233" lon="2.2246492">
        <ele>167.0</ele>
        <time>2022-01-13T10:07:31Z</time>
      </trkpt>
      <trkpt lat="47.723293" lon="2.2246437">
        <ele>166.0</ele>
        <time>2022-01-13T10:07:32Z</time>
      </trkpt>
      <trkpt lat="47.723286" lon="2.224638">
        <ele>167.0</ele>
        <time>2022-01-13T10:07:33Z</time>
      </trkpt>
      <trkpt lat="47.723286" lon="2.224638">
        <ele>167.0</ele>
        <time>2022-01-13T10:07:34Z</time>
      </trkpt>
      <trkpt lat="47.723274" lon="2.224629">
        <ele>167.0</ele>
        <time>2022-01-13T10:07:35Z</time>
      </trkpt>
      <trkpt lat="47.723263" lon="2.224621">
        <ele>167.0</ele>
        <time>2022-01-13T10:07:36Z</time>
      </trkpt>
      <trkpt lat="47.723255" lon="2.2246141">
        <ele>167.0</ele>
        <time>2022-01-13T10:07:37Z</time>
      </trkpt>
      <trkpt lat="47.723244" lon="2.224609">
        <ele>167.0</ele>
        <time>2022-01-13T10:07:38Z</time>
      </trkpt>
      <trkpt lat="47.723232" lon="2.2246082">
        <ele>166.0</ele>
        <time>2022-01-13T10:07:39Z</time>
      </trkpt>
      <trkpt lat="47.723225" lon="2.2246087">
        <ele>166.0</ele>
        <time>2022-01-13T10:07:40Z</time>
      </trkpt>
      <trkpt lat="47.723213" lon="2.2246032">
        <ele>166.0</ele>
        <time>2022-01-13T10:07:41Z</time>
      </trkpt>
      <trkpt lat="47.7232" lon="2.2246087">
        <ele>167.0</ele>
        <time>2022-01-13T10:07:42Z</time>
      </trkpt>
      <trkpt lat="47.723194" lon="2.224614">
        <ele>166.0</ele>
        <time>2022-01-13T10:07:43Z</time>
      </trkpt>
      <trkpt lat="47.72319" lon="2.2246213">
        <ele>166.0</ele>
        <time>2022-01-13T10:07:44Z</time>
      </trkpt>
      <trkpt lat="47.72318" lon="2.2246246">
        <ele>166.0</ele>
        <time>2022-01-13T10:07:45Z</time>
      </trkpt>
      <trkpt lat="47.723175" lon="2.2246304">
        <ele>166.0</ele>
        <time>2022-01-13T10:07:46Z</time>
      </trkpt>
      <trkpt lat="47.723175" lon="2.2246304">
        <ele>166.0</ele>
        <time>2022-01-13T10:07:47Z</time>
      </trkpt>
      <trkpt lat="47.723175" lon="2.2246304">
        <ele>166.0</ele>
        <time>2022-01-13T10:07:48Z</time>
      </trkpt>
      <trkpt lat="47.723152" lon="2.2246177">
        <ele>166.0</ele>
        <time>2022-01-13T10:07:49Z</time>
      </trkpt>
      <trkpt lat="47.723145" lon="2.2246225">
        <ele>166.0</ele>
        <time>2022-01-13T10:07:50Z</time>
      </trkpt>
      <trkpt lat="47.723137" lon="2.2246227">
        <ele>166.0</ele>
        <time>2022-01-13T10:07:51Z</time>
      </trkpt>
      <trkpt lat="47.723133" lon="2.2246206">
        <ele>166.0</ele>
        <time>2022-01-13T10:07:52Z</time>
      </trkpt>
      <trkpt lat="47.72313" lon="2.224615">
        <ele>166.0</ele>
        <time>2022-01-13T10:07:53Z</time>
      </trkpt>
      <trkpt lat="47.723118" lon="2.2246046">
        <ele>167.0</ele>
        <time>2022-01-13T10:07:54Z</time>
      </trkpt>
      <trkpt lat="47.72311" lon="2.2245977">
        <ele>167.0</ele>
        <time>2022-01-13T10:07:55Z</time>
      </trkpt>
      <trkpt lat="47.7231" lon="2.22459">
        <ele>167.0</ele>
        <time>2022-01-13T10:07:56Z</time>
      </trkpt>
      <trkpt lat="47.723087" lon="2.224591">
        <ele>166.0</ele>
        <time>2022-01-13T10:07:57Z</time>
      </trkpt>
      <trkpt lat="47.72308" lon="2.2245917">
        <ele>166.0</ele>
        <time>2022-01-13T10:07:58Z</time>
      </trkpt>
      <trkpt lat="47.72307" lon="2.224587">
        <ele>165.0</ele>
        <time>2022-01-13T10:07:59Z</time>
      </trkpt>
      <trkpt lat="47.723057" lon="2.2245812">
        <ele>165.0</ele>
        <time>2022-01-13T10:08:00Z</time>
      </trkpt>
      <trkpt lat="47.72305" lon="2.2245815">
        <ele>165.0</ele>
        <time>2022-01-13T10:08:01Z</time>
      </trkpt>
      <trkpt lat="47.72304" lon="2.224581">
        <ele>165.0</ele>
        <time>2022-01-13T10:08:02Z</time>
      </trkpt>
      <trkpt lat="47.723026" lon="2.224582">
        <ele>165.0</ele>
        <time>2022-01-13T10:08:03Z</time>
      </trkpt>
      <trkpt lat="47.72302" lon="2.2245748">
        <ele>165.0</ele>
        <time>2022-01-13T10:08:04Z</time>
      </trkpt>
      <trkpt lat="47.72301" lon="2.2245758">
        <ele>164.0</ele>
        <time>2022-01-13T10:08:05Z</time>
      </trkpt>
      <trkpt lat="47.723007" lon="2.2245781">
        <ele>163.0</ele>
        <time>2022-01-13T10:08:06Z</time>
      </trkpt>
      <trkpt lat="47.72301" lon="2.2245772">
        <ele>164.0</ele>
        <time>2022-01-13T10:08:07Z</time>
      </trkpt>
      <trkpt lat="47.72301" lon="2.2245777">
        <ele>164.0</ele>
        <time>2022-01-13T10:08:08Z</time>
      </trkpt>
      <trkpt lat="47.72301" lon="2.2245777">
        <ele>164.0</ele>
        <time>2022-01-13T10:08:09Z</time>
      </trkpt>
      <trkpt lat="47.72301" lon="2.2245777">
        <ele>164.0</ele>
        <time>2022-01-13T10:08:09Z</time>
      </trkpt>
    </trkseg>
    <trkseg>
      <trkpt lat="47.72301" lon="2.2245777">
        <ele>164.0</ele>
        <time>2022-01-13T10:08:09Z</time>
      </trkpt>
      <trkpt lat="47.72296" lon="2.2245753">
        <ele>162.0</ele>
        <time>2022-01-13T10:08:15Z</time>
      </trkpt>
      <trkpt lat="47.72296" lon="2.2245753">
        <ele>162.0</ele>
        <time>2022-01-13T10:08:16Z</time>
      </trkpt>
      <trkpt lat="47.72296" lon="2.2245753">
        <ele>162.0</ele>
        <time>2022-01-13T10:08:17Z</time>
      </trkpt>
      <trkpt lat="47.722946" lon="2.2245843">
        <ele>163.0</ele>
        <time>2022-01-13T10:08:18Z</time>
      </trkpt>
      <trkpt lat="47.72294" lon="2.2245939">
        <ele>163.0</ele>
        <time>2022-01-13T10:08:19Z</time>
      </trkpt>
      <trkpt lat="47.72293" lon="2.2245934">
        <ele>163.0</ele>
        <time>2022-01-13T10:08:20Z</time>
      </trkpt>
      <trkpt lat="47.72292" lon="2.224595">
        <ele>163.0</ele>
        <time>2022-01-13T10:08:21Z</time>
      </trkpt>
      <trkpt lat="47.722908" lon="2.2245948">
        <ele>163.0</ele>
        <time>2022-01-13T10:08:22Z</time>
      </trkpt>
      <trkpt lat="47.7229" lon="2.2245982">
        <ele>163.0</ele>
        <time>2022-01-13T10:08:23Z</time>
      </trkpt>
      <trkpt lat="47.7229" lon="2.2245982">
        <ele>163.0</ele>
        <time>2022-01-13T10:08:24Z</time>
      </trkpt>
      <trkpt lat="47.7229" lon="2.2245982">
        <ele>163.0</ele>
        <time>2022-01-13T10:08:25Z</time>
      </trkpt>
      <trkpt lat="47.722885" lon="2.2245955">
        <ele>162.0</ele>
        <time>2022-01-13T10:08:26Z</time>
      </trkpt>
      <trkpt lat="47.722885" lon="2.2245955">
        <ele>162.0</ele>
        <time>2022-01-13T10:08:26Z</time>
      </trkpt>
    </trkseg>
    <trkseg>
      <trkpt lat="47.722885" lon="2.2245955">
        <ele>162.0</ele>
        <time>2022-01-13T10:08:26Z</time>
      </trkpt>
      <trkpt lat="47.72281" lon="2.2245812">
        <ele>163.0</ele>
        <time>2022-01-13T10:08:36Z</time>
      </trkpt>
      <trkpt lat="47.7228" lon="2.224584">
        <ele>163.0</ele>
        <time>2022-01-13T10:08:37Z</time>
      </trkpt>
      <trkpt lat="47.72279" lon="2.224586">
        <ele>163.0</ele>
        <time>2022-01-13T10:08:38Z</time>
      </trkpt>
      <trkpt lat="47.722782" lon="2.2245822">
        <ele>162.0</ele>
        <time>2022-01-13T10:08:39Z</time>
      </trkpt>
      <trkpt lat="47.72277" lon="2.2245781">
        <ele>163.0</ele>
        <time>2022-01-13T10:08:40Z</time>
      </trkpt>
      <trkpt lat="47.722763" lon="2.2245762">
        <ele>163.0</ele>
        <time>2022-01-13T10:08:41Z</time>
      </trkpt>
      <trkpt lat="47.722748" lon="2.2245698">
        <ele>163.0</ele>
        <time>2022-01-13T10:08:42Z</time>
      </trkpt>
      <trkpt lat="47.722736" lon="2.2245657">
        <ele>163.0</ele>
        <time>2022-01-13T10:08:43Z</time>
      </trkpt>
      <trkpt lat="47.72273" lon="2.2245631">
        <ele>163.0</ele>
        <time>2022-01-13T10:08:44Z</time>
      </trkpt>
      <trkpt lat="47.72272" lon="2.2245584">
        <ele>163.0</ele>
        <time>2022-01-13T10:08:45Z</time>
      </trkpt>
      <trkpt lat="47.72271" lon="2.2245562">
        <ele>163.0</ele>
        <time>2022-01-13T10:08:46Z</time>
      </trkpt>
      <trkpt lat="47.722702" lon="2.2245493">
        <ele>163.0</ele>
        <time>2022-01-13T10:08:47Z</time>
      </trkpt>
      <trkpt lat="47.72269" lon="2.2245445">
        <ele>163.0</ele>
        <time>2022-01-13T10:08:48Z</time>
      </trkpt>
      <trkpt lat="47.722683" lon="2.2245426">
        <ele>164.0</ele>
        <time>2022-01-13T10:08:49Z</time>
      </trkpt>
      <trkpt lat="47.72268" lon="2.224542">
        <ele>164.0</ele>
        <time>2022-01-13T10:08:50Z</time>
      </trkpt>
      <trkpt lat="47.72267" lon="2.224543">
        <ele>165.0</ele>
        <time>2022-01-13T10:08:51Z</time>
      </trkpt>
      <trkpt lat="47.72266" lon="2.2245393">
        <ele>165.0</ele>
        <time>2022-01-13T10:08:52Z</time>
      </trkpt>
      <trkpt lat="47.722652" lon="2.2245374">
        <ele>165.0</ele>
        <time>2022-01-13T10:08:53Z</time>
      </trkpt>
      <trkpt lat="47.722645" lon="2.2245266">
        <ele>165.0</ele>
        <time>2022-01-13T10:08:54Z</time>
      </trkpt>
      <trkpt lat="47.722637" lon="2.224518">
        <ele>165.0</ele>
        <time>2022-01-13T10:08:55Z</time>
      </trkpt>
      <trkpt lat="47.72263" lon="2.2245097">
        <ele>165.0</ele>
        <time>2022-01-13T10:08:56Z</time>
      </trkpt>
      <trkpt lat="47.72262" lon="2.224502">
        <ele>164.0</ele>
        <time>2022-01-13T10:08:57Z</time>
      </trkpt>
      <trkpt lat="47.72261" lon="2.2244973">
        <ele>164.0</ele>
        <time>2022-01-13T10:08:58Z</time>
      </trkpt>
      <trkpt lat="47.7226" lon="2.2244966">
        <ele>164.0</ele>
        <time>2022-01-13T10:08:59Z</time>
      </trkpt>
      <trkpt lat="47.722588" lon="2.224493">
        <ele>164.0</ele>
        <time>2022-01-13T10:09:00Z</time>
      </trkpt>
      <trkpt lat="47.722576" lon="2.2244852">
        <ele>164.0</ele>
        <time>2022-01-13T10:09:01Z</time>
      </trkpt>
      <trkpt lat="47.72257" lon="2.224474">
        <ele>164.0</ele>
        <time>2022-01-13T10:09:02Z</time>
      </trkpt>
      <trkpt lat="47.722553" lon="2.2244685">
        <ele>163.0</ele>
        <time>2022-01-13T10:09:03Z</time>
      </trkpt>
      <trkpt lat="47.722538" lon="2.2244663">
        <ele>162.0</ele>
        <time>2022-01-13T10:09:04Z</time>
      </trkpt>
      <trkpt lat="47.722527" lon="2.2244678">
        <ele>162.0</ele>
        <time>2022-01-13T10:09:05Z</time>
      </trkpt>
      <trkpt lat="47.72251" lon="2.2244651">
        <ele>162.0</ele>
        <time>2022-01-13T10:09:06Z</time>
      </trkpt>
      <trkpt lat="47.7225" lon="2.2244637">
        <ele>162.0</ele>
        <time>2022-01-13T10:09:07Z</time>
      </trkpt>
      <trkpt lat="47.72249" lon="2.2244642">
        <ele>162.0</ele>
        <time>2022-01-13T10:09:08Z</time>
      </trkpt>
      <trkpt lat="47.722477" lon="2.224458">
        <ele>162.0</ele>
        <time>2022-01-13T10:09:09Z</time>
      </trkpt>
      <trkpt lat="47.72247" lon="2.224454">
        <ele>162.0</ele>
        <time>2022-01-13T10:09:10Z</time>
      </trkpt>
      <trkpt lat="47.722466" lon="2.224449">
        <ele>163.0</ele>
        <time>2022-01-13T10:09:11Z</time>
      </trkpt>
      <trkpt lat="47.722458" lon="2.2244494">
        <ele>163.0</ele>
        <time>2022-01-13T10:09:12Z</time>
      </trkpt>
      <trkpt lat="47.722446" lon="2.2244463">
        <ele>163.0</ele>
        <time>2022-01-13T10:09:13Z</time>
      </trkpt>
      <trkpt lat="47.72244" lon="2.2244442">
        <ele>163.0</ele>
        <time>2022-01-13T10:09:14Z</time>
      </trkpt>
      <trkpt lat="47.722427" lon="2.2244444">
        <ele>162.0</ele>
        <time>2022-01-13T10:09:15Z</time>
      </trkpt>
      <trkpt lat="47.722416" lon="2.2244422">
        <ele>162.0</ele>
        <time>2022-01-13T10:09:16Z</time>
      </trkpt>
      <trkpt lat="47.722404" lon="2.2244456">
        <ele>162.0</ele>
        <time>2022-01-13T10:09:17Z</time>
      </trkpt>
      <trkpt lat="47.72239" lon="2.2244465">
        <ele>162.0</ele>
        <time>2022-01-13T10:09:18Z</time>
      </trkpt>
      <trkpt lat="47.72238" lon="2.224444">
        <ele>161.0</ele>
        <time>2022-01-13T10:09:19Z</time>
      </trkpt>
      <trkpt lat="47.722366" lon="2.2244422">
        <ele>161.0</ele>
        <time>2022-01-13T10:09:20Z</time>
      </trkpt>
      <trkpt lat="47.722355" lon="2.2244406">
        <ele>162.0</ele>
        <time>2022-01-13T10:09:21Z</time>
      </trkpt>
      <trkpt lat="47.722343" lon="2.2244375">
        <ele>162.0</ele>
        <time>2022-01-13T10:09:22Z</time>
      </trkpt>
      <trkpt lat="47.722332" lon="2.2244363">
        <ele>161.0</ele>
        <time>2022-01-13T10:09:23Z</time>
      </trkpt>
      <trkpt lat="47.72232" lon="2.2244344">
        <ele>161.0</ele>
        <time>2022-01-13T10:09:24Z</time>
      </trkpt>
      <trkpt lat="47.722313" lon="2.22443">
        <ele>161.0</ele>
        <time>2022-01-13T10:09:25Z</time>
      </trkpt>
      <trkpt lat="47.7223" lon="2.2244287">
        <ele>161.0</ele>
        <time>2022-01-13T10:09:26Z</time>
      </trkpt>
      <trkpt lat="47.72229" lon="2.2244253">
        <ele>161.0</ele>
        <time>2022-01-13T10:09:27Z</time>
      </trkpt>
      <trkpt lat="47.72228" lon="2.2244203">
        <ele>161.0</ele>
        <time>2022-01-13T10:09:28Z</time>
      </trkpt>
      <trkpt lat="47.722267" lon="2.2244158">
        <ele>161.0</ele>
        <time>2022-01-13T10:09:29Z</time>
      </trkpt>
      <trkpt lat="47.722256" lon="2.2244146">
        <ele>161.0</ele>
        <time>2022-01-13T10:09:30Z</time>
      </trkpt>
      <trkpt lat="47.722244" lon="2.2244122">
        <ele>161.0</ele>
        <time>2022-01-13T10:09:31Z</time>
      </trkpt>
      <trkpt lat="47.722237" lon="2.224406">
        <ele>160.0</ele>
        <time>2022-01-13T10:09:32Z</time>
      </trkpt>
      <trkpt lat="47.72223" lon="2.2243998">
        <ele>160.0</ele>
        <time>2022-01-13T10:09:33Z</time>
      </trkpt>
      <trkpt lat="47.722218" lon="2.2243965">
        <ele>160.0</ele>
        <time>2022-01-13T10:09:34Z</time>
      </trkpt>
      <trkpt lat="47.72221" lon="2.2243927">
        <ele>160.0</ele>
        <time>2022-01-13T10:09:35Z</time>
      </trkpt>
      <trkpt lat="47.7222" lon="2.2243903">
        <ele>160.0</ele>
        <time>2022-01-13T10:09:36Z</time>
      </trkpt>
      <trkpt lat="47.722183" lon="2.2243853">
        <ele>160.0</ele>
        <time>2022-01-13T10:09:37Z</time>
      </trkpt>
      <trkpt lat="47.72217" lon="2.2243793">
        <ele>160.0</ele>
        <time>2022-01-13T10:09:38Z</time>
      </trkpt>
      <trkpt lat="47.72216" lon="2.2243743">
        <ele>160.0</ele>
        <time>2022-01-13T10:09:39Z</time>
      </trkpt>
      <trkpt lat="47.72215" lon="2.2243676">
        <ele>160.0</ele>
        <time>2022-01-13T10:09:40Z</time>
      </trkpt>
      <trkpt lat="47.72214" lon="2.2243626">
        <ele>160.0</ele>
        <time>2022-01-13T10:09:41Z</time>
      </trkpt>
      <trkpt lat="47.72213" lon="2.2243607">
        <ele>160.0</ele>
        <time>2022-01-13T10:09:42Z</time>
      </trkpt>
      <trkpt lat="47.72212" lon="2.2243593">
        <ele>160.0</ele>
        <time>2022-01-13T10:09:43Z</time>
      </trkpt>
      <trkpt lat="47.72211" lon="2.2243588">
        <ele>160.0</ele>
        <time>2022-01-13T10:09:44Z</time>
      </trkpt>
      <trkpt lat="47.722103" lon="2.2243538">
        <ele>160.0</ele>
        <time>2022-01-13T10:09:45Z</time>
      </trkpt>
      <trkpt lat="47.72209" lon="2.2243521">
        <ele>160.0</ele>
        <time>2022-01-13T10:09:46Z</time>
      </trkpt>
      <trkpt lat="47.72208" lon="2.2243528">
        <ele>160.0</ele>
        <time>2022-01-13T10:09:47Z</time>
      </trkpt>
      <trkpt lat="47.722073" lon="2.224351">
        <ele>161.0</ele>
        <time>2022-01-13T10:09:48Z</time>
      </trkpt>
      <trkpt lat="47.72206" lon="2.2243485">
        <ele>161.0</ele>
        <time>2022-01-13T10:09:49Z</time>
      </trkpt>
      <trkpt lat="47.72205" lon="2.2243464">
        <ele>161.0</ele>
        <time>2022-01-13T10:09:50Z</time>
      </trkpt>
      <trkpt lat="47.722042" lon="2.2243428">
        <ele>161.0</ele>
        <time>2022-01-13T10:09:51Z</time>
      </trkpt>
      <trkpt lat="47.722034" lon="2.2243412">
        <ele>161.0</ele>
        <time>2022-01-13T10:09:52Z</time>
      </trkpt>
      <trkpt lat="47.722023" lon="2.2243388">
        <ele>161.0</ele>
        <time>2022-01-13T10:09:53Z</time>
      </trkpt>
      <trkpt lat="47.722015" lon="2.22434">
        <ele>161.0</ele>
        <time>2022-01-13T10:09:54Z</time>
      </trkpt>
      <trkpt lat="47.722004" lon="2.2243366">
        <ele>161.0</ele>
        <time>2022-01-13T10:09:55Z</time>
      </trkpt>
      <trkpt lat="47.72199" lon="2.2243347">
        <ele>161.0</ele>
        <time>2022-01-13T10:09:56Z</time>
      </trkpt>
      <trkpt lat="47.721977" lon="2.224329">
        <ele>161.0</ele>
        <time>2022-01-13T10:09:57Z</time>
      </trkpt>
      <trkpt lat="47.721966" lon="2.224329">
        <ele>161.0</ele>
        <time>2022-01-13T10:09:58Z</time>
      </trkpt>
      <trkpt lat="47.721954" lon="2.2243207">
        <ele>161.0</ele>
        <time>2022-01-13T10:09:59Z</time>
      </trkpt>
      <trkpt lat="47.721947" lon="2.2243183">
        <ele>161.0</ele>
        <time>2022-01-13T10:10:00Z</time>
      </trkpt>
      <trkpt lat="47.72194" lon="2.2243185">
        <ele>161.0</ele>
        <time>2022-01-13T10:10:01Z</time>
      </trkpt>
      <trkpt lat="47.721928" lon="2.2243204">
        <ele>161.0</ele>
        <time>2022-01-13T10:10:02Z</time>
      </trkpt>
      <trkpt lat="47.721916" lon="2.2243176">
        <ele>161.0</ele>
        <time>2022-01-13T10:10:03Z</time>
      </trkpt>
      <trkpt lat="47.721905" lon="2.2243185">
        <ele>160.0</ele>
        <time>2022-01-13T10:10:04Z</time>
      </trkpt>
      <trkpt lat="47.721893" lon="2.22432">
        <ele>160.0</ele>
        <time>2022-01-13T10:10:05Z</time>
      </trkpt>
      <trkpt lat="47.72188" lon="2.2243154">
        <ele>160.0</ele>
        <time>2022-01-13T10:10:06Z</time>
      </trkpt>
      <trkpt lat="47.72187" lon="2.2243092">
        <ele>161.0</ele>
        <time>2022-01-13T10:10:07Z</time>
      </trkpt>
      <trkpt lat="47.72186" lon="2.2243018">
        <ele>161.0</ele>
        <time>2022-01-13T10:10:08Z</time>
      </trkpt>
      <trkpt lat="47.72185" lon="2.2242928">
        <ele>161.0</ele>
        <time>2022-01-13T10:10:09Z</time>
      </trkpt>
      <trkpt lat="47.72184" lon="2.2242827">
        <ele>161.0</ele>
        <time>2022-01-13T10:10:10Z</time>
      </trkpt>
      <trkpt lat="47.72183" lon="2.224281">
        <ele>161.0</ele>
        <time>2022-01-13T10:10:11Z</time>
      </trkpt>
      <trkpt lat="47.721817" lon="2.2242758">
        <ele>160.0</ele>
        <time>2022-01-13T10:10:12Z</time>
      </trkpt>
      <trkpt lat="47.72181" lon="2.2242715">
        <ele>160.0</ele>
        <time>2022-01-13T10:10:13Z</time>
      </trkpt>
      <trkpt lat="47.721798" lon="2.224263">
        <ele>161.0</ele>
        <time>2022-01-13T10:10:14Z</time>
      </trkpt>
      <trkpt lat="47.721783" lon="2.2242544">
        <ele>161.0</ele>
        <time>2022-01-13T10:10:15Z</time>
      </trkpt>
      <trkpt lat="47.721767" lon="2.224248">
        <ele>161.0</ele>
        <time>2022-01-13T10:10:16Z</time>
      </trkpt>
      <trkpt lat="47.721756" lon="2.2242465">
        <ele>162.0</ele>
        <time>2022-01-13T10:10:17Z</time>
      </trkpt>
      <trkpt lat="47.72175" lon="2.2242439">
        <ele>162.0</ele>
        <time>2022-01-13T10:10:18Z</time>
      </trkpt>
      <trkpt lat="47.721737" lon="2.224242">
        <ele>162.0</ele>
        <time>2022-01-13T10:10:19Z</time>
      </trkpt>
      <trkpt lat="47.72173" lon="2.224239">
        <ele>161.0</ele>
        <time>2022-01-13T10:10:20Z</time>
      </trkpt>
      <trkpt lat="47.721714" lon="2.2242346">
        <ele>161.0</ele>
        <time>2022-01-13T10:10:21Z</time>
      </trkpt>
      <trkpt lat="47.721703" lon="2.22423">
        <ele>161.0</ele>
        <time>2022-01-13T10:10:22Z</time>
      </trkpt>
      <trkpt lat="47.72169" lon="2.224226">
        <ele>161.0</ele>
        <time>2022-01-13T10:10:23Z</time>
      </trkpt>
      <trkpt lat="47.72168" lon="2.2242262">
        <ele>162.0</ele>
        <time>2022-01-13T10:10:24Z</time>
      </trkpt>
      <trkpt lat="47.72167" lon="2.224223">
        <ele>162.0</ele>
        <time>2022-01-13T10:10:25Z</time>
      </trkpt>
      <trkpt lat="47.721657" lon="2.2242203">
        <ele>162.0</ele>
        <time>2022-01-13T10:10:26Z</time>
      </trkpt>
      <trkpt lat="47.721645" lon="2.2242215">
        <ele>162.0</ele>
        <time>2022-01-13T10:10:27Z</time>
      </trkpt>
      <trkpt lat="47.721634" lon="2.2242234">
        <ele>161.0</ele>
        <time>2022-01-13T10:10:28Z</time>
      </trkpt>
      <trkpt lat="47.721622" lon="2.2242172">
        <ele>162.0</ele>
        <time>2022-01-13T10:10:29Z</time>
      </trkpt>
      <trkpt lat="47.721615" lon="2.2242153">
        <ele>162.0</ele>
        <time>2022-01-13T10:10:30Z</time>
      </trkpt>
      <trkpt lat="47.721603" lon="2.2242155">
        <ele>162.0</ele>
        <time>2022-01-13T10:10:31Z</time>
      </trkpt>
      <trkpt lat="47.721592" lon="2.2242165">
        <ele>162.0</ele>
        <time>2022-01-13T10:10:32Z</time>
      </trkpt>
      <trkpt lat="47.721584" lon="2.2242222">
        <ele>162.0</ele>
        <time>2022-01-13T10:10:33Z</time>
      </trkpt>
      <trkpt lat="47.721573" lon="2.2242172">
        <ele>162.0</ele>
        <time>2022-01-13T10:10:34Z</time>
      </trkpt>
      <trkpt lat="47.721558" lon="2.2242162">
        <ele>163.0</ele>
        <time>2022-01-13T10:10:35Z</time>
      </trkpt>
      <trkpt lat="47.721546" lon="2.224208">
        <ele>163.0</ele>
        <time>2022-01-13T10:10:36Z</time>
      </trkpt>
      <trkpt lat="47.721535" lon="2.2242036">
        <ele>162.0</ele>
        <time>2022-01-13T10:10:37Z</time>
      </trkpt>
      <trkpt lat="47.721523" lon="2.224208">
        <ele>162.0</ele>
        <time>2022-01-13T10:10:38Z</time>
      </trkpt>
      <trkpt lat="47.72151" lon="2.2242055">
        <ele>163.0</ele>
        <time>2022-01-13T10:10:39Z</time>
      </trkpt>
      <trkpt lat="47.721497" lon="2.2242033">
        <ele>163.0</ele>
        <time>2022-01-13T10:10:40Z</time>
      </trkpt>
      <trkpt lat="47.72148" lon="2.2241952">
        <ele>163.0</ele>
        <time>2022-01-13T10:10:41Z</time>
      </trkpt>
      <trkpt lat="47.72147" lon="2.2241876">
        <ele>164.0</ele>
        <time>2022-01-13T10:10:42Z</time>
      </trkpt>
      <trkpt lat="47.721462" lon="2.2241824">
        <ele>164.0</ele>
        <time>2022-01-13T10:10:43Z</time>
      </trkpt>
      <trkpt lat="47.721455" lon="2.224182">
        <ele>164.0</ele>
        <time>2022-01-13T10:10:44Z</time>
      </trkpt>
      <trkpt lat="47.721443" lon="2.2241747">
        <ele>164.0</ele>
        <time>2022-01-13T10:10:45Z</time>
      </trkpt>
      <trkpt lat="47.721436" lon="2.2241695">
        <ele>164.0</ele>
        <time>2022-01-13T10:10:46Z</time>
      </trkpt>
      <trkpt lat="47.721428" lon="2.224166">
        <ele>164.0</ele>
        <time>2022-01-13T10:10:47Z</time>
      </trkpt>
      <trkpt lat="47.72142" lon="2.224163">
        <ele>164.0</ele>
        <time>2022-01-13T10:10:48Z</time>
      </trkpt>
      <trkpt lat="47.72141" lon="2.2241588">
        <ele>164.0</ele>
        <time>2022-01-13T10:10:49Z</time>
      </trkpt>
      <trkpt lat="47.721397" lon="2.224158">
        <ele>165.0</ele>
        <time>2022-01-13T10:10:50Z</time>
      </trkpt>
      <trkpt lat="47.72139" lon="2.2241569">
        <ele>165.0</ele>
        <time>2022-01-13T10:10:51Z</time>
      </trkpt>
      <trkpt lat="47.721382" lon="2.2241554">
        <ele>165.0</ele>
        <time>2022-01-13T10:10:52Z</time>
      </trkpt>
      <trkpt lat="47.72137" lon="2.224151">
        <ele>165.0</ele>
        <time>2022-01-13T10:10:53Z</time>
      </trkpt>
      <trkpt lat="47.721367" lon="2.2241402">
        <ele>165.0</ele>
        <time>2022-01-13T10:10:54Z</time>
      </trkpt>
      <trkpt lat="47.721355" lon="2.2241325">
        <ele>165.0</ele>
        <time>2022-01-13T10:10:55Z</time>
      </trkpt>
      <trkpt lat="47.721348" lon="2.224121">
        <ele>165.0</ele>
        <time>2022-01-13T10:10:56Z</time>
      </trkpt>
      <trkpt lat="47.72134" lon="2.2241087">
        <ele>166.0</ele>
        <time>2022-01-13T10:10:57Z</time>
      </trkpt>
      <trkpt lat="47.72133" lon="2.2241035">
        <ele>166.0</ele>
        <time>2022-01-13T10:10:58Z</time>
      </trkpt>
      <trkpt lat="47.721317" lon="2.224099">
        <ele>165.0</ele>
        <time>2022-01-13T10:10:59Z</time>
      </trkpt>
      <trkpt lat="47.721302" lon="2.2240934">
        <ele>165.0</ele>
        <time>2022-01-13T10:11:00Z</time>
      </trkpt>
      <trkpt lat="47.72129" lon="2.2240872">
        <ele>165.0</ele>
        <time>2022-01-13T10:11:01Z</time>
      </trkpt>
      <trkpt lat="47.72128" lon="2.2240841">
        <ele>164.0</ele>
        <time>2022-01-13T10:11:02Z</time>
      </trkpt>
      <trkpt lat="47.721268" lon="2.2240803">
        <ele>164.0</ele>
        <time>2022-01-13T10:11:03Z</time>
      </trkpt>
      <trkpt lat="47.72126" lon="2.2240736">
        <ele>164.0</ele>
        <time>2022-01-13T10:11:04Z</time>
      </trkpt>
      <trkpt lat="47.721252" lon="2.2240686">
        <ele>163.0</ele>
        <time>2022-01-13T10:11:05Z</time>
      </trkpt>
      <trkpt lat="47.72124" lon="2.2240634">
        <ele>163.0</ele>
        <time>2022-01-13T10:11:06Z</time>
      </trkpt>
      <trkpt lat="47.721222" lon="2.2240603">
        <ele>162.0</ele>
        <time>2022-01-13T10:11:07Z</time>
      </trkpt>
      <trkpt lat="47.721214" lon="2.2240546">
        <ele>162.0</ele>
        <time>2022-01-13T10:11:08Z</time>
      </trkpt>
      <trkpt lat="47.7212" lon="2.224048">
        <ele>161.0</ele>
        <time>2022-01-13T10:11:09Z</time>
      </trkpt>
      <trkpt lat="47.721184" lon="2.224048">
        <ele>161.0</ele>
        <time>2022-01-13T10:11:10Z</time>
      </trkpt>
      <trkpt lat="47.721176" lon="2.2240481">
        <ele>161.0</ele>
        <time>2022-01-13T10:11:11Z</time>
      </trkpt>
      <trkpt lat="47.72117" lon="2.224048">
        <ele>161.0</ele>
        <time>2022-01-13T10:11:12Z</time>
      </trkpt>
      <trkpt lat="47.721157" lon="2.2240405">
        <ele>161.0</ele>
        <time>2022-01-13T10:11:13Z</time>
      </trkpt>
      <trkpt lat="47.72115" lon="2.2240357">
        <ele>161.0</ele>
        <time>2022-01-13T10:11:14Z</time>
      </trkpt>
      <trkpt lat="47.721146" lon="2.2240362">
        <ele>161.0</ele>
        <time>2022-01-13T10:11:15Z</time>
      </trkpt>
      <trkpt lat="47.721134" lon="2.2240353">
        <ele>161.0</ele>
        <time>2022-01-13T10:11:16Z</time>
      </trkpt>
      <trkpt lat="47.72112" lon="2.224039">
        <ele>161.0</ele>
        <time>2022-01-13T10:11:17Z</time>
      </trkpt>
      <trkpt lat="47.721107" lon="2.2240355">
        <ele>161.0</ele>
        <time>2022-01-13T10:11:18Z</time>
      </trkpt>
      <trkpt lat="47.721096" lon="2.2240405">
        <ele>162.0</ele>
        <time>2022-01-13T10:11:19Z</time>
      </trkpt>
      <trkpt lat="47.721085" lon="2.2240317">
        <ele>162.0</ele>
        <time>2022-01-13T10:11:20Z</time>
      </trkpt>
      <trkpt lat="47.72107" lon="2.2240298">
        <ele>161.0</ele>
        <time>2022-01-13T10:11:21Z</time>
      </trkpt>
      <trkpt lat="47.721058" lon="2.224029">
        <ele>161.0</ele>
        <time>2022-01-13T10:11:22Z</time>
      </trkpt>
      <trkpt lat="47.721046" lon="2.224022">
        <ele>161.0</ele>
        <time>2022-01-13T10:11:23Z</time>
      </trkpt>
      <trkpt lat="47.72103" lon="2.2240245">
        <ele>161.0</ele>
        <time>2022-01-13T10:11:24Z</time>
      </trkpt>
      <trkpt lat="47.72102" lon="2.224028">
        <ele>161.0</ele>
        <time>2022-01-13T10:11:25Z</time>
      </trkpt>
      <trkpt lat="47.721004" lon="2.2240293">
        <ele>160.0</ele>
        <time>2022-01-13T10:11:26Z</time>
      </trkpt>
      <trkpt lat="47.72099" lon="2.2240238">
        <ele>160.0</ele>
        <time>2022-01-13T10:11:27Z</time>
      </trkpt>
      <trkpt lat="47.720974" lon="2.224019">
        <ele>160.0</ele>
        <time>2022-01-13T10:11:28Z</time>
      </trkpt>
      <trkpt lat="47.720963" lon="2.224013">
        <ele>160.0</ele>
        <time>2022-01-13T10:11:29Z</time>
      </trkpt>
      <trkpt lat="47.72095" lon="2.2240114">
        <ele>160.0</ele>
        <time>2022-01-13T10:11:30Z</time>
      </trkpt>
      <trkpt lat="47.720936" lon="2.2240129">
        <ele>160.0</ele>
        <time>2022-01-13T10:11:31Z</time>
      </trkpt>
      <trkpt lat="47.720924" lon="2.2240193">
        <ele>160.0</ele>
        <time>2022-01-13T10:11:32Z</time>
      </trkpt>
      <trkpt lat="47.72091" lon="2.2240145">
        <ele>161.0</ele>
        <time>2022-01-13T10:11:33Z</time>
      </trkpt>
      <trkpt lat="47.7209" lon="2.2240155">
        <ele>160.0</ele>
        <time>2022-01-13T10:11:34Z</time>
      </trkpt>
      <trkpt lat="47.72089" lon="2.2240121">
        <ele>160.0</ele>
        <time>2022-01-13T10:11:35Z</time>
      </trkpt>
      <trkpt lat="47.72088" lon="2.2240071">
        <ele>160.0</ele>
        <time>2022-01-13T10:11:36Z</time>
      </trkpt>
      <trkpt lat="47.720867" lon="2.2240012">
        <ele>160.0</ele>
        <time>2022-01-13T10:11:37Z</time>
      </trkpt>
      <trkpt lat="47.720856" lon="2.223993">
        <ele>160.0</ele>
        <time>2022-01-13T10:11:38Z</time>
      </trkpt>
      <trkpt lat="47.720844" lon="2.2239904">
        <ele>160.0</ele>
        <time>2022-01-13T10:11:39Z</time>
      </trkpt>
      <trkpt lat="47.720833" lon="2.2239912">
        <ele>160.0</ele>
        <time>2022-01-13T10:11:40Z</time>
      </trkpt>
      <trkpt lat="47.72082" lon="2.2239914">
        <ele>160.0</ele>
        <time>2022-01-13T10:11:41Z</time>
      </trkpt>
      <trkpt lat="47.720806" lon="2.2239854">
        <ele>160.0</ele>
        <time>2022-01-13T10:11:42Z</time>
      </trkpt>
      <trkpt lat="47.72079" lon="2.2239814">
        <ele>160.0</ele>
        <time>2022-01-13T10:11:43Z</time>
      </trkpt>
      <trkpt lat="47.720776" lon="2.2239754">
        <ele>160.0</ele>
        <time>2022-01-13T10:11:44Z</time>
      </trkpt>
      <trkpt lat="47.720764" lon="2.2239683">
        <ele>160.0</ele>
        <time>2022-01-13T10:11:45Z</time>
      </trkpt>
      <trkpt lat="47.720753" lon="2.223961">
        <ele>160.0</ele>
        <time>2022-01-13T10:11:46Z</time>
      </trkpt>
      <trkpt lat="47.72074" lon="2.2239532">
        <ele>160.0</ele>
        <time>2022-01-13T10:11:47Z</time>
      </trkpt>
      <trkpt lat="47.72073" lon="2.2239482">
        <ele>161.0</ele>
        <time>2022-01-13T10:11:48Z</time>
      </trkpt>
      <trkpt lat="47.72072" lon="2.2239366">
        <ele>161.0</ele>
        <time>2022-01-13T10:11:49Z</time>
      </trkpt>
      <trkpt lat="47.720707" lon="2.2239244">
        <ele>161.0</ele>
        <time>2022-01-13T10:11:50Z</time>
      </trkpt>
      <trkpt lat="47.7207" lon="2.22392">
        <ele>161.0</ele>
        <time>2022-01-13T10:11:51Z</time>
      </trkpt>
      <trkpt lat="47.720688" lon="2.2239156">
        <ele>161.0</ele>
        <time>2022-01-13T10:11:52Z</time>
      </trkpt>
      <trkpt lat="47.720676" lon="2.2239075">
        <ele>161.0</ele>
        <time>2022-01-13T10:11:53Z</time>
      </trkpt>
      <trkpt lat="47.720665" lon="2.2239072">
        <ele>161.0</ele>
        <time>2022-01-13T10:11:54Z</time>
      </trkpt>
      <trkpt lat="47.72065" lon="2.2239032">
        <ele>161.0</ele>
        <time>2022-01-13T10:11:55Z</time>
      </trkpt>
      <trkpt lat="47.720634" lon="2.2239013">
        <ele>161.0</ele>
        <time>2022-01-13T10:11:56Z</time>
      </trkpt>
      <trkpt lat="47.72062" lon="2.223896">
        <ele>161.0</ele>
        <time>2022-01-13T10:11:57Z</time>
      </trkpt>
      <trkpt lat="47.720604" lon="2.2238872">
        <ele>161.0</ele>
        <time>2022-01-13T10:11:58Z</time>
      </trkpt>
      <trkpt lat="47.720592" lon="2.2238839">
        <ele>161.0</ele>
        <time>2022-01-13T10:11:59Z</time>
      </trkpt>
      <trkpt lat="47.72058" lon="2.2238834">
        <ele>161.0</ele>
        <time>2022-01-13T10:12:00Z</time>
      </trkpt>
      <trkpt lat="47.72057" lon="2.2238717">
        <ele>161.0</ele>
        <time>2022-01-13T10:12:01Z</time>
      </trkpt>
      <trkpt lat="47.72056" lon="2.2238615">
        <ele>162.0</ele>
        <time>2022-01-13T10:12:02Z</time>
      </trkpt>
      <trkpt lat="47.72055" lon="2.2238605">
        <ele>162.0</ele>
        <time>2022-01-13T10:12:03Z</time>
      </trkpt>
      <trkpt lat="47.720543" lon="2.2238634">
        <ele>162.0</ele>
        <time>2022-01-13T10:12:04Z</time>
      </trkpt>
      <trkpt lat="47.72053" lon="2.2238626">
        <ele>163.0</ele>
        <time>2022-01-13T10:12:05Z</time>
      </trkpt>
      <trkpt lat="47.720524" lon="2.2238567">
        <ele>162.0</ele>
        <time>2022-01-13T10:12:06Z</time>
      </trkpt>
      <trkpt lat="47.720516" lon="2.2238505">
        <ele>162.0</ele>
        <time>2022-01-13T10:12:07Z</time>
      </trkpt>
      <trkpt lat="47.72051" lon="2.223849">
        <ele>163.0</ele>
        <time>2022-01-13T10:12:08Z</time>
      </trkpt>
      <trkpt lat="47.72051" lon="2.223849">
        <ele>163.0</ele>
        <time>2022-01-13T10:12:09Z</time>
      </trkpt>
      <trkpt lat="47.72049" lon="2.223839">
        <ele>163.0</ele>
        <time>2022-01-13T10:12:10Z</time>
      </trkpt>
      <trkpt lat="47.720478" lon="2.2238302">
        <ele>163.0</ele>
        <time>2022-01-13T10:12:11Z</time>
      </trkpt>
      <trkpt lat="47.72047" lon="2.2238245">
        <ele>163.0</ele>
        <time>2022-01-13T10:12:12Z</time>
      </trkpt>
      <trkpt lat="47.72046" lon="2.2238216">
        <ele>163.0</ele>
        <time>2022-01-13T10:12:13Z</time>
      </trkpt>
      <trkpt lat="47.72045" lon="2.223809">
        <ele>163.0</ele>
        <time>2022-01-13T10:12:14Z</time>
      </trkpt>
      <trkpt lat="47.720448" lon="2.2238038">
        <ele>164.0</ele>
        <time>2022-01-13T10:12:15Z</time>
      </trkpt>
      <trkpt lat="47.72044" lon="2.2237978">
        <ele>164.0</ele>
        <time>2022-01-13T10:12:16Z</time>
      </trkpt>
      <trkpt lat="47.72043" lon="2.2237911">
        <ele>164.0</ele>
        <time>2022-01-13T10:12:17Z</time>
      </trkpt>
      <trkpt lat="47.720417" lon="2.2237823">
        <ele>164.0</ele>
        <time>2022-01-13T10:12:18Z</time>
      </trkpt>
      <trkpt lat="47.720406" lon="2.223773">
        <ele>164.0</ele>
        <time>2022-01-13T10:12:19Z</time>
      </trkpt>
      <trkpt lat="47.720394" lon="2.2237744">
        <ele>164.0</ele>
        <time>2022-01-13T10:12:20Z</time>
      </trkpt>
      <trkpt lat="47.720383" lon="2.2237744">
        <ele>164.0</ele>
        <time>2022-01-13T10:12:21Z</time>
      </trkpt>
      <trkpt lat="47.72037" lon="2.2237737">
        <ele>165.0</ele>
        <time>2022-01-13T10:12:22Z</time>
      </trkpt>
      <trkpt lat="47.72036" lon="2.2237718">
        <ele>165.0</ele>
        <time>2022-01-13T10:12:23Z</time>
      </trkpt>
      <trkpt lat="47.72035" lon="2.2237663">
        <ele>165.0</ele>
        <time>2022-01-13T10:12:24Z</time>
      </trkpt>
      <trkpt lat="47.720337" lon="2.2237618">
        <ele>165.0</ele>
        <time>2022-01-13T10:12:25Z</time>
      </trkpt>
      <trkpt lat="47.72032" lon="2.223752">
        <ele>165.0</ele>
        <time>2022-01-13T10:12:26Z</time>
      </trkpt>
      <trkpt lat="47.72031" lon="2.2237444">
        <ele>165.0</ele>
        <time>2022-01-13T10:12:27Z</time>
      </trkpt>
      <trkpt lat="47.720303" lon="2.223738">
        <ele>165.0</ele>
        <time>2022-01-13T10:12:28Z</time>
      </trkpt>
      <trkpt lat="47.72029" lon="2.223727">
        <ele>165.0</ele>
        <time>2022-01-13T10:12:29Z</time>
      </trkpt>
      <trkpt lat="47.720272" lon="2.2237127">
        <ele>165.0</ele>
        <time>2022-01-13T10:12:30Z</time>
      </trkpt>
      <trkpt lat="47.72026" lon="2.2237008">
        <ele>165.0</ele>
        <time>2022-01-13T10:12:31Z</time>
      </trkpt>
      <trkpt lat="47.720253" lon="2.2236948">
        <ele>165.0</ele>
        <time>2022-01-13T10:12:32Z</time>
      </trkpt>
      <trkpt lat="47.720245" lon="2.2236798">
        <ele>165.0</ele>
        <time>2022-01-13T10:12:33Z</time>
      </trkpt>
      <trkpt lat="47.720234" lon="2.2236674">
        <ele>165.0</ele>
        <time>2022-01-13T10:12:34Z</time>
      </trkpt>
      <trkpt lat="47.720222" lon="2.2236528">
        <ele>165.0</ele>
        <time>2022-01-13T10:12:35Z</time>
      </trkpt>
      <trkpt lat="47.72021" lon="2.2236454">
        <ele>165.0</ele>
        <time>2022-01-13T10:12:36Z</time>
      </trkpt>
      <trkpt lat="47.7202" lon="2.2236388">
        <ele>165.0</ele>
        <time>2022-01-13T10:12:37Z</time>
      </trkpt>
      <trkpt lat="47.72019" lon="2.2236366">
        <ele>165.0</ele>
        <time>2022-01-13T10:12:38Z</time>
      </trkpt>
      <trkpt lat="47.720177" lon="2.22363">
        <ele>165.0</ele>
        <time>2022-01-13T10:12:39Z</time>
      </trkpt>
      <trkpt lat="47.720165" lon="2.2236266">
        <ele>165.0</ele>
        <time>2022-01-13T10:12:40Z</time>
      </trkpt>
      <trkpt lat="47.720158" lon="2.2236242">
        <ele>165.0</ele>
        <time>2022-01-13T10:12:41Z</time>
      </trkpt>
      <trkpt lat="47.72015" lon="2.2236187">
        <ele>165.0</ele>
        <time>2022-01-13T10:12:42Z</time>
      </trkpt>
      <trkpt lat="47.720142" lon="2.223608">
        <ele>165.0</ele>
        <time>2022-01-13T10:12:43Z</time>
      </trkpt>
      <trkpt lat="47.72013" lon="2.2235975">
        <ele>165.0</ele>
        <time>2022-01-13T10:12:44Z</time>
      </trkpt>
      <trkpt lat="47.72012" lon="2.2235868">
        <ele>166.0</ele>
        <time>2022-01-13T10:12:45Z</time>
      </trkpt>
      <trkpt lat="47.720104" lon="2.2235727">
        <ele>166.0</ele>
        <time>2022-01-13T10:12:46Z</time>
      </trkpt>
      <trkpt lat="47.720093" lon="2.2235613">
        <ele>166.0</ele>
        <time>2022-01-13T10:12:47Z</time>
      </trkpt>
      <trkpt lat="47.720078" lon="2.223549">
        <ele>166.0</ele>
        <time>2022-01-13T10:12:48Z</time>
      </trkpt>
      <trkpt lat="47.720066" lon="2.223529">
        <ele>166.0</ele>
        <time>2022-01-13T10:12:49Z</time>
      </trkpt>
      <trkpt lat="47.720055" lon="2.2235165">
        <ele>166.0</ele>
        <time>2022-01-13T10:12:50Z</time>
      </trkpt>
      <trkpt lat="47.72004" lon="2.2235081">
        <ele>165.0</ele>
        <time>2022-01-13T10:12:51Z</time>
      </trkpt>
      <trkpt lat="47.720028" lon="2.2234967">
        <ele>165.0</ele>
        <time>2022-01-13T10:12:52Z</time>
      </trkpt>
      <trkpt lat="47.72002" lon="2.2234852">
        <ele>164.0</ele>
        <time>2022-01-13T10:12:53Z</time>
      </trkpt>
      <trkpt lat="47.720013" lon="2.2234747">
        <ele>164.0</ele>
        <time>2022-01-13T10:12:54Z</time>
      </trkpt>
      <trkpt lat="47.72" lon="2.223468">
        <ele>164.0</ele>
        <time>2022-01-13T10:12:55Z</time>
      </trkpt>
      <trkpt lat="47.719994" lon="2.2234597">
        <ele>164.0</ele>
        <time>2022-01-13T10:12:56Z</time>
      </trkpt>
      <trkpt lat="47.719982" lon="2.2234468">
        <ele>165.0</ele>
        <time>2022-01-13T10:12:57Z</time>
      </trkpt>
      <trkpt lat="47.71997" lon="2.2234366">
        <ele>165.0</ele>
        <time>2022-01-13T10:12:58Z</time>
      </trkpt>
      <trkpt lat="47.719963" lon="2.223429">
        <ele>165.0</ele>
        <time>2022-01-13T10:12:59Z</time>
      </trkpt>
      <trkpt lat="47.719955" lon="2.2234225">
        <ele>164.0</ele>
        <time>2022-01-13T10:13:00Z</time>
      </trkpt>
      <trkpt lat="47.719944" lon="2.2234135">
        <ele>164.0</ele>
        <time>2022-01-13T10:13:01Z</time>
      </trkpt>
      <trkpt lat="47.719936" lon="2.2234008">
        <ele>164.0</ele>
        <time>2022-01-13T10:13:02Z</time>
      </trkpt>
      <trkpt lat="47.719925" lon="2.2233846">
        <ele>164.0</ele>
        <time>2022-01-13T10:13:03Z</time>
      </trkpt>
      <trkpt lat="47.719913" lon="2.2233765">
        <ele>164.0</ele>
        <time>2022-01-13T10:13:04Z</time>
      </trkpt>
      <trkpt lat="47.719902" lon="2.2233658">
        <ele>164.0</ele>
        <time>2022-01-13T10:13:05Z</time>
      </trkpt>
      <trkpt lat="47.71989" lon="2.2233639">
        <ele>164.0</ele>
        <time>2022-01-13T10:13:06Z</time>
      </trkpt>
      <trkpt lat="47.719883" lon="2.2233567">
        <ele>164.0</ele>
        <time>2022-01-13T10:13:07Z</time>
      </trkpt>
      <trkpt lat="47.719875" lon="2.2233505">
        <ele>164.0</ele>
        <time>2022-01-13T10:13:08Z</time>
      </trkpt>
      <trkpt lat="47.719868" lon="2.2233462">
        <ele>164.0</ele>
        <time>2022-01-13T10:13:09Z</time>
      </trkpt>
      <trkpt lat="47.719856" lon="2.2233396">
        <ele>164.0</ele>
        <time>2022-01-13T10:13:10Z</time>
      </trkpt>
      <trkpt lat="47.719845" lon="2.2233303">
        <ele>164.0</ele>
        <time>2022-01-13T10:13:11Z</time>
      </trkpt>
      <trkpt lat="47.719833" lon="2.223322">
        <ele>164.0</ele>
        <time>2022-01-13T10:13:12Z</time>
      </trkpt>
      <trkpt lat="47.719826" lon="2.2233133">
        <ele>164.0</ele>
        <time>2022-01-13T10:13:13Z</time>
      </trkpt>
      <trkpt lat="47.719814" lon="2.2233012">
        <ele>164.0</ele>
        <time>2022-01-13T10:13:14Z</time>
      </trkpt>
      <trkpt lat="47.719807" lon="2.2232914">
        <ele>164.0</ele>
        <time>2022-01-13T10:13:15Z</time>
      </trkpt>
      <trkpt lat="47.7198" lon="2.2232862">
        <ele>164.0</ele>
        <time>2022-01-13T10:13:16Z</time>
      </trkpt>
      <trkpt lat="47.719788" lon="2.2232842">
        <ele>164.0</ele>
        <time>2022-01-13T10:13:17Z</time>
      </trkpt>
      <trkpt lat="47.719776" lon="2.223275">
        <ele>164.0</ele>
        <time>2022-01-13T10:13:18Z</time>
      </trkpt>
      <trkpt lat="47.71977" lon="2.2232695">
        <ele>165.0</ele>
        <time>2022-01-13T10:13:19Z</time>
      </trkpt>
      <trkpt lat="47.71976" lon="2.223269">
        <ele>165.0</ele>
        <time>2022-01-13T10:13:20Z</time>
      </trkpt>
      <trkpt lat="47.71975" lon="2.223266">
        <ele>165.0</ele>
        <time>2022-01-13T10:13:21Z</time>
      </trkpt>
      <trkpt lat="47.71974" lon="2.2232594">
        <ele>165.0</ele>
        <time>2022-01-13T10:13:22Z</time>
      </trkpt>
      <trkpt lat="47.719734" lon="2.2232566">
        <ele>164.0</ele>
        <time>2022-01-13T10:13:23Z</time>
      </trkpt>
      <trkpt lat="47.719734" lon="2.2232525">
        <ele>163.0</ele>
        <time>2022-01-13T10:13:24Z</time>
      </trkpt>
      <trkpt lat="47.719734" lon="2.2232513">
        <ele>163.0</ele>
        <time>2022-01-13T10:13:25Z</time>
      </trkpt>
      <trkpt lat="47.71973" lon="2.2232523">
        <ele>162.0</ele>
        <time>2022-01-13T10:13:26Z</time>
      </trkpt>
      <trkpt lat="47.719723" lon="2.2232509">
        <ele>162.0</ele>
        <time>2022-01-13T10:13:27Z</time>
      </trkpt>
      <trkpt lat="47.71971" lon="2.223246">
        <ele>162.0</ele>
        <time>2022-01-13T10:13:28Z</time>
      </trkpt>
      <trkpt lat="47.7197" lon="2.2232394">
        <ele>162.0</ele>
        <time>2022-01-13T10:13:29Z</time>
      </trkpt>
      <trkpt lat="47.71969" lon="2.2232327">
        <ele>162.0</ele>
        <time>2022-01-13T10:13:30Z</time>
      </trkpt>
      <trkpt lat="47.71968" lon="2.2232234">
        <ele>161.0</ele>
        <time>2022-01-13T10:13:31Z</time>
      </trkpt>
      <trkpt lat="47.71967" lon="2.2232158">
        <ele>161.0</ele>
        <time>2022-01-13T10:13:32Z</time>
      </trkpt>
      <trkpt lat="47.71966" lon="2.2232034">
        <ele>161.0</ele>
        <time>2022-01-13T10:13:33Z</time>
      </trkpt>
      <trkpt lat="47.71965" lon="2.2231925">
        <ele>161.0</ele>
        <time>2022-01-13T10:13:34Z</time>
      </trkpt>
      <trkpt lat="47.71964" lon="2.2231867">
        <ele>161.0</ele>
        <time>2022-01-13T10:13:35Z</time>
      </trkpt>
      <trkpt lat="47.719627" lon="2.2231817">
        <ele>160.0</ele>
        <time>2022-01-13T10:13:36Z</time>
      </trkpt>
      <trkpt lat="47.719616" lon="2.2231739">
        <ele>160.0</ele>
        <time>2022-01-13T10:13:37Z</time>
      </trkpt>
      <trkpt lat="47.719604" lon="2.2231665">
        <ele>160.0</ele>
        <time>2022-01-13T10:13:38Z</time>
      </trkpt>
      <trkpt lat="47.719593" lon="2.2231607">
        <ele>161.0</ele>
        <time>2022-01-13T10:13:39Z</time>
      </trkpt>
      <trkpt lat="47.71958" lon="2.223156">
        <ele>161.0</ele>
        <time>2022-01-13T10:13:40Z</time>
      </trkpt>
      <trkpt lat="47.719574" lon="2.2231536">
        <ele>161.0</ele>
        <time>2022-01-13T10:13:41Z</time>
      </trkpt>
      <trkpt lat="47.719563" lon="2.2231517">
        <ele>161.0</ele>
        <time>2022-01-13T10:13:42Z</time>
      </trkpt>
      <trkpt lat="47.719555" lon="2.22315">
        <ele>161.0</ele>
        <time>2022-01-13T10:13:43Z</time>
      </trkpt>
      <trkpt lat="47.71954" lon="2.2231467">
        <ele>160.0</ele>
        <time>2022-01-13T10:13:44Z</time>
      </trkpt>
      <trkpt lat="47.71953" lon="2.2231388">
        <ele>161.0</ele>
        <time>2022-01-13T10:13:45Z</time>
      </trkpt>
      <trkpt lat="47.719517" lon="2.2231262">
        <ele>161.0</ele>
        <time>2022-01-13T10:13:46Z</time>
      </trkpt>
      <trkpt lat="47.719505" lon="2.2231133">
        <ele>162.0</ele>
        <time>2022-01-13T10:13:47Z</time>
      </trkpt>
      <trkpt lat="47.71949" lon="2.223105">
        <ele>162.0</ele>
        <time>2022-01-13T10:13:48Z</time>
      </trkpt>
      <trkpt lat="47.71948" lon="2.2230973">
        <ele>162.0</ele>
        <time>2022-01-13T10:13:49Z</time>
      </trkpt>
      <trkpt lat="47.71947" lon="2.2230911">
        <ele>162.0</ele>
        <time>2022-01-13T10:13:50Z</time>
      </trkpt>
      <trkpt lat="47.719463" lon="2.2230833">
        <ele>162.0</ele>
        <time>2022-01-13T10:13:51Z</time>
      </trkpt>
      <trkpt lat="47.71945" lon="2.2230747">
        <ele>163.0</ele>
        <time>2022-01-13T10:13:52Z</time>
      </trkpt>
      <trkpt lat="47.71944" lon="2.223068">
        <ele>163.0</ele>
        <time>2022-01-13T10:13:53Z</time>
      </trkpt>
      <trkpt lat="47.71943" lon="2.22306">
        <ele>163.0</ele>
        <time>2022-01-13T10:13:54Z</time>
      </trkpt>
      <trkpt lat="47.719418" lon="2.223057">
        <ele>163.0</ele>
        <time>2022-01-13T10:13:55Z</time>
      </trkpt>
      <trkpt lat="47.719414" lon="2.2230582">
        <ele>163.0</ele>
        <time>2022-01-13T10:13:56Z</time>
      </trkpt>
      <trkpt lat="47.71941" lon="2.2230594">
        <ele>163.0</ele>
        <time>2022-01-13T10:13:57Z</time>
      </trkpt>
      <trkpt lat="47.719402" lon="2.2230475">
        <ele>163.0</ele>
        <time>2022-01-13T10:13:58Z</time>
      </trkpt>
      <trkpt lat="47.71939" lon="2.2230413">
        <ele>163.0</ele>
        <time>2022-01-13T10:13:59Z</time>
      </trkpt>
      <trkpt lat="47.719383" lon="2.223037">
        <ele>163.0</ele>
        <time>2022-01-13T10:14:00Z</time>
      </trkpt>
      <trkpt lat="47.719376" lon="2.2230277">
        <ele>163.0</ele>
        <time>2022-01-13T10:14:01Z</time>
      </trkpt>
      <trkpt lat="47.719368" lon="2.2230186">
        <ele>163.0</ele>
        <time>2022-01-13T10:14:02Z</time>
      </trkpt>
      <trkpt lat="47.719357" lon="2.2230084">
        <ele>163.0</ele>
        <time>2022-01-13T10:14:03Z</time>
      </trkpt>
      <trkpt lat="47.71935" lon="2.2230039">
        <ele>163.0</ele>
        <time>2022-01-13T10:14:04Z</time>
      </trkpt>
      <trkpt lat="47.719334" lon="2.2230027">
        <ele>163.0</ele>
        <time>2022-01-13T10:14:05Z</time>
      </trkpt>
      <trkpt lat="47.719326" lon="2.2229943">
        <ele>163.0</ele>
        <time>2022-01-13T10:14:06Z</time>
      </trkpt>
      <trkpt lat="47.719315" lon="2.222988">
        <ele>162.0</ele>
        <time>2022-01-13T10:14:07Z</time>
      </trkpt>
      <trkpt lat="47.719303" lon="2.2229805">
        <ele>162.0</ele>
        <time>2022-01-13T10:14:08Z</time>
      </trkpt>
      <trkpt lat="47.71929" lon="2.2229755">
        <ele>162.0</ele>
        <time>2022-01-13T10:14:09Z</time>
      </trkpt>
      <trkpt lat="47.719284" lon="2.2229698">
        <ele>161.0</ele>
        <time>2022-01-13T10:14:10Z</time>
      </trkpt>
      <trkpt lat="47.719276" lon="2.2229645">
        <ele>161.0</ele>
        <time>2022-01-13T10:14:11Z</time>
      </trkpt>
      <trkpt lat="47.719265" lon="2.2229595">
        <ele>161.0</ele>
        <time>2022-01-13T10:14:12Z</time>
      </trkpt>
      <trkpt lat="47.719254" lon="2.2229588">
        <ele>161.0</ele>
        <time>2022-01-13T10:14:13Z</time>
      </trkpt>
      <trkpt lat="47.719242" lon="2.2229574">
        <ele>161.0</ele>
        <time>2022-01-13T10:14:14Z</time>
      </trkpt>
      <trkpt lat="47.71923" lon="2.2229545">
        <ele>161.0</ele>
        <time>2022-01-13T10:14:15Z</time>
      </trkpt>
      <trkpt lat="47.719223" lon="2.2229505">
        <ele>161.0</ele>
        <time>2022-01-13T10:14:16Z</time>
      </trkpt>
      <trkpt lat="47.719223" lon="2.2229505">
        <ele>161.0</ele>
        <time>2022-01-13T10:14:17Z</time>
      </trkpt>
      <trkpt lat="47.719223" lon="2.2229505">
        <ele>161.0</ele>
        <time>2022-01-13T10:14:18Z</time>
      </trkpt>
      <trkpt lat="47.719196" lon="2.2229393">
        <ele>161.0</ele>
        <time>2022-01-13T10:14:19Z</time>
      </trkpt>
      <trkpt lat="47.719185" lon="2.222933">
        <ele>161.0</ele>
        <time>2022-01-13T10:14:20Z</time>
      </trkpt>
      <trkpt lat="47.719173" lon="2.2229183">
        <ele>162.0</ele>
        <time>2022-01-13T10:14:21Z</time>
      </trkpt>
      <trkpt lat="47.719166" lon="2.2229035">
        <ele>162.0</ele>
        <time>2022-01-13T10:14:22Z</time>
      </trkpt>
      <trkpt lat="47.71915" lon="2.222899">
        <ele>162.0</ele>
        <time>2022-01-13T10:14:23Z</time>
      </trkpt>
      <trkpt lat="47.719147" lon="2.2228954">
        <ele>162.0</ele>
        <time>2022-01-13T10:14:24Z</time>
      </trkpt>
      <trkpt lat="47.719135" lon="2.2228942">
        <ele>162.0</ele>
        <time>2022-01-13T10:14:25Z</time>
      </trkpt>
      <trkpt lat="47.719128" lon="2.2228925">
        <ele>162.0</ele>
        <time>2022-01-13T10:14:26Z</time>
      </trkpt>
      <trkpt lat="47.719112" lon="2.2228882">
        <ele>162.0</ele>
        <time>2022-01-13T10:14:27Z</time>
      </trkpt>
      <trkpt lat="47.7191" lon="2.2228863">
        <ele>162.0</ele>
        <time>2022-01-13T10:14:28Z</time>
      </trkpt>
      <trkpt lat="47.719093" lon="2.2228792">
        <ele>162.0</ele>
        <time>2022-01-13T10:14:29Z</time>
      </trkpt>
      <trkpt lat="47.71908" lon="2.2228744">
        <ele>161.0</ele>
        <time>2022-01-13T10:14:30Z</time>
      </trkpt>
      <trkpt lat="47.71908" lon="2.2228744">
        <ele>161.0</ele>
        <time>2022-01-13T10:14:31Z</time>
      </trkpt>
      <trkpt lat="47.71908" lon="2.2228744">
        <ele>161.0</ele>
        <time>2022-01-13T10:14:32Z</time>
      </trkpt>
      <trkpt lat="47.719063" lon="2.22285">
        <ele>161.0</ele>
        <time>2022-01-13T10:14:33Z</time>
      </trkpt>
      <trkpt lat="47.71905" lon="2.2228417">
        <ele>161.0</ele>
        <time>2022-01-13T10:14:34Z</time>
      </trkpt>
      <trkpt lat="47.71904" lon="2.2228363">
        <ele>160.0</ele>
        <time>2022-01-13T10:14:35Z</time>
      </trkpt>
      <trkpt lat="47.719025" lon="2.222833">
        <ele>160.0</ele>
        <time>2022-01-13T10:14:36Z</time>
      </trkpt>
      <trkpt lat="47.719013" lon="2.2228303">
        <ele>160.0</ele>
        <time>2022-01-13T10:14:37Z</time>
      </trkpt>
      <trkpt lat="47.719006" lon="2.222823">
        <ele>159.0</ele>
        <time>2022-01-13T10:14:38Z</time>
      </trkpt>
      <trkpt lat="47.718994" lon="2.222818">
        <ele>159.0</ele>
        <time>2022-01-13T10:14:39Z</time>
      </trkpt>
      <trkpt lat="47.718983" lon="2.2228117">
        <ele>160.0</ele>
        <time>2022-01-13T10:14:40Z</time>
      </trkpt>
      <trkpt lat="47.71897" lon="2.222801">
        <ele>160.0</ele>
        <time>2022-01-13T10:14:41Z</time>
      </trkpt>
      <trkpt lat="47.718964" lon="2.2227957">
        <ele>160.0</ele>
        <time>2022-01-13T10:14:42Z</time>
      </trkpt>
      <trkpt lat="47.718952" lon="2.222784">
        <ele>160.0</ele>
        <time>2022-01-13T10:14:43Z</time>
      </trkpt>
      <trkpt lat="47.718945" lon="2.22277">
        <ele>161.0</ele>
        <time>2022-01-13T10:14:44Z</time>
      </trkpt>
      <trkpt lat="47.718933" lon="2.2227564">
        <ele>161.0</ele>
        <time>2022-01-13T10:14:45Z</time>
      </trkpt>
      <trkpt lat="47.718925" lon="2.2227366">
        <ele>162.0</ele>
        <time>2022-01-13T10:14:46Z</time>
      </trkpt>
      <trkpt lat="47.718914" lon="2.2227187">
        <ele>162.0</ele>
        <time>2022-01-13T10:14:47Z</time>
      </trkpt>
      <trkpt lat="47.7189" lon="2.2227058">
        <ele>163.0</ele>
        <time>2022-01-13T10:14:48Z</time>
      </trkpt>
      <trkpt lat="47.718884" lon="2.222691">
        <ele>164.0</ele>
        <time>2022-01-13T10:14:49Z</time>
      </trkpt>
      <trkpt lat="47.718872" lon="2.2226803">
        <ele>164.0</ele>
        <time>2022-01-13T10:14:50Z</time>
      </trkpt>
      <trkpt lat="47.718864" lon="2.2226663">
        <ele>164.0</ele>
        <time>2022-01-13T10:14:51Z</time>
      </trkpt>
      <trkpt lat="47.718845" lon="2.2226536">
        <ele>165.0</ele>
        <time>2022-01-13T10:14:52Z</time>
      </trkpt>
      <trkpt lat="47.718834" lon="2.2226458">
        <ele>166.0</ele>
        <time>2022-01-13T10:14:53Z</time>
      </trkpt>
      <trkpt lat="47.718822" lon="2.2226336">
        <ele>166.0</ele>
        <time>2022-01-13T10:14:54Z</time>
      </trkpt>
      <trkpt lat="47.718815" lon="2.222623">
        <ele>166.0</ele>
        <time>2022-01-13T10:14:55Z</time>
      </trkpt>
      <trkpt lat="47.718807" lon="2.2226105">
        <ele>166.0</ele>
        <time>2022-01-13T10:14:56Z</time>
      </trkpt>
      <trkpt lat="47.718796" lon="2.2225978">
        <ele>166.0</ele>
        <time>2022-01-13T10:14:57Z</time>
      </trkpt>
      <trkpt lat="47.71879" lon="2.2225873">
        <ele>166.0</ele>
        <time>2022-01-13T10:14:58Z</time>
      </trkpt>
      <trkpt lat="47.71878" lon="2.222574">
        <ele>166.0</ele>
        <time>2022-01-13T10:14:59Z</time>
      </trkpt>
      <trkpt lat="47.718777" lon="2.2225592">
        <ele>166.0</ele>
        <time>2022-01-13T10:15:00Z</time>
      </trkpt>
      <trkpt lat="47.71877" lon="2.2225428">
        <ele>166.0</ele>
        <time>2022-01-13T10:15:01Z</time>
      </trkpt>
      <trkpt lat="47.71876" lon="2.2225215">
        <ele>166.0</ele>
        <time>2022-01-13T10:15:02Z</time>
      </trkpt>
      <trkpt lat="47.718754" lon="2.222505">
        <ele>166.0</ele>
        <time>2022-01-13T10:15:03Z</time>
      </trkpt>
      <trkpt lat="47.718742" lon="2.2224839">
        <ele>166.0</ele>
        <time>2022-01-13T10:15:04Z</time>
      </trkpt>
      <trkpt lat="47.718735" lon="2.2224648">
        <ele>166.0</ele>
        <time>2022-01-13T10:15:05Z</time>
      </trkpt>
      <trkpt lat="47.71873" lon="2.222442">
        <ele>166.0</ele>
        <time>2022-01-13T10:15:06Z</time>
      </trkpt>
      <trkpt lat="47.71872" lon="2.2224276">
        <ele>166.0</ele>
        <time>2022-01-13T10:15:07Z</time>
      </trkpt>
      <trkpt lat="47.718708" lon="2.2224119">
        <ele>166.0</ele>
        <time>2022-01-13T10:15:08Z</time>
      </trkpt>
      <trkpt lat="47.718697" lon="2.2223988">
        <ele>167.0</ele>
        <time>2022-01-13T10:15:09Z</time>
      </trkpt>
      <trkpt lat="47.71869" lon="2.2223897">
        <ele>167.0</ele>
        <time>2022-01-13T10:15:10Z</time>
      </trkpt>
      <trkpt lat="47.71869" lon="2.2223897">
        <ele>167.0</ele>
        <time>2022-01-13T10:15:11Z</time>
      </trkpt>
      <trkpt lat="47.71869" lon="2.2223897">
        <ele>167.0</ele>
        <time>2022-01-13T10:15:12Z</time>
      </trkpt>
      <trkpt lat="47.718666" lon="2.2223601">
        <ele>167.0</ele>
        <time>2022-01-13T10:15:13Z</time>
      </trkpt>
      <trkpt lat="47.71866" lon="2.222341">
        <ele>167.0</ele>
        <time>2022-01-13T10:15:14Z</time>
      </trkpt>
      <trkpt lat="47.71865" lon="2.2223208">
        <ele>167.0</ele>
        <time>2022-01-13T10:15:15Z</time>
      </trkpt>
      <trkpt lat="47.718647" lon="2.2223053">
        <ele>167.0</ele>
        <time>2022-01-13T10:15:16Z</time>
      </trkpt>
      <trkpt lat="47.718643" lon="2.222293">
        <ele>168.0</ele>
        <time>2022-01-13T10:15:17Z</time>
      </trkpt>
      <trkpt lat="47.718636" lon="2.2222793">
        <ele>167.0</ele>
        <time>2022-01-13T10:15:18Z</time>
      </trkpt>
      <trkpt lat="47.71862" lon="2.2222624">
        <ele>167.0</ele>
        <time>2022-01-13T10:15:19Z</time>
      </trkpt>
      <trkpt lat="47.718616" lon="2.2222447">
        <ele>168.0</ele>
        <time>2022-01-13T10:15:20Z</time>
      </trkpt>
      <trkpt lat="47.71861" lon="2.222234">
        <ele>168.0</ele>
        <time>2022-01-13T10:15:21Z</time>
      </trkpt>
      <trkpt lat="47.7186" lon="2.222223">
        <ele>168.0</ele>
        <time>2022-01-13T10:15:22Z</time>
      </trkpt>
      <trkpt lat="47.718597" lon="2.2222106">
        <ele>167.0</ele>
        <time>2022-01-13T10:15:23Z</time>
      </trkpt>
      <trkpt lat="47.71859" lon="2.2221982">
        <ele>167.0</ele>
        <time>2022-01-13T10:15:24Z</time>
      </trkpt>
      <trkpt lat="47.718586" lon="2.222187">
        <ele>167.0</ele>
        <time>2022-01-13T10:15:25Z</time>
      </trkpt>
      <trkpt lat="47.718575" lon="2.2221694">
        <ele>168.0</ele>
        <time>2022-01-13T10:15:26Z</time>
      </trkpt>
      <trkpt lat="47.71857" lon="2.2221532">
        <ele>167.0</ele>
        <time>2022-01-13T10:15:27Z</time>
      </trkpt>
      <trkpt lat="47.71856" lon="2.2221332">
        <ele>167.0</ele>
        <time>2022-01-13T10:15:28Z</time>
      </trkpt>
      <trkpt lat="47.71856" lon="2.2221105">
        <ele>167.0</ele>
        <time>2022-01-13T10:15:29Z</time>
      </trkpt>
      <trkpt lat="47.71855" lon="2.2220929">
        <ele>167.0</ele>
        <time>2022-01-13T10:15:30Z</time>
      </trkpt>
      <trkpt lat="47.718548" lon="2.2220852">
        <ele>168.0</ele>
        <time>2022-01-13T10:15:31Z</time>
      </trkpt>
      <trkpt lat="47.71854" lon="2.222082">
        <ele>167.0</ele>
        <time>2022-01-13T10:15:32Z</time>
      </trkpt>
      <trkpt lat="47.718536" lon="2.222071">
        <ele>168.0</ele>
        <time>2022-01-13T10:15:33Z</time>
      </trkpt>
      <trkpt lat="47.718525" lon="2.2220528">
        <ele>167.0</ele>
        <time>2022-01-13T10:15:34Z</time>
      </trkpt>
      <trkpt lat="47.718517" lon="2.222043">
        <ele>168.0</ele>
        <time>2022-01-13T10:15:35Z</time>
      </trkpt>
      <trkpt lat="47.718513" lon="2.222031">
        <ele>168.0</ele>
        <time>2022-01-13T10:15:36Z</time>
      </trkpt>
      <trkpt lat="47.718506" lon="2.222025">
        <ele>168.0</ele>
        <time>2022-01-13T10:15:37Z</time>
      </trkpt>
      <trkpt lat="47.7185" lon="2.2220173">
        <ele>167.0</ele>
        <time>2022-01-13T10:15:38Z</time>
      </trkpt>
      <trkpt lat="47.718487" lon="2.2220013">
        <ele>167.0</ele>
        <time>2022-01-13T10:15:39Z</time>
      </trkpt>
      <trkpt lat="47.718487" lon="2.22199">
        <ele>167.0</ele>
        <time>2022-01-13T10:15:40Z</time>
      </trkpt>
      <trkpt lat="47.71848" lon="2.22198">
        <ele>168.0</ele>
        <time>2022-01-13T10:15:41Z</time>
      </trkpt>
      <trkpt lat="47.71847" lon="2.2219658">
        <ele>168.0</ele>
        <time>2022-01-13T10:15:42Z</time>
      </trkpt>
      <trkpt lat="47.718464" lon="2.2219522">
        <ele>168.0</ele>
        <time>2022-01-13T10:15:43Z</time>
      </trkpt>
      <trkpt lat="47.718452" lon="2.221941">
        <ele>168.0</ele>
        <time>2022-01-13T10:15:44Z</time>
      </trkpt>
      <trkpt lat="47.71844" lon="2.2219262">
        <ele>168.0</ele>
        <time>2022-01-13T10:15:45Z</time>
      </trkpt>
      <trkpt lat="47.718433" lon="2.2219102">
        <ele>169.0</ele>
        <time>2022-01-13T10:15:46Z</time>
      </trkpt>
      <trkpt lat="47.718426" lon="2.2218933">
        <ele>169.0</ele>
        <time>2022-01-13T10:15:47Z</time>
      </trkpt>
      <trkpt lat="47.718414" lon="2.2218776">
        <ele>169.0</ele>
        <time>2022-01-13T10:15:48Z</time>
      </trkpt>
      <trkpt lat="47.718403" lon="2.2218666">
        <ele>169.0</ele>
        <time>2022-01-13T10:15:49Z</time>
      </trkpt>
      <trkpt lat="47.718395" lon="2.2218559">
        <ele>168.0</ele>
        <time>2022-01-13T10:15:50Z</time>
      </trkpt>
      <trkpt lat="47.718388" lon="2.2218442">
        <ele>168.0</ele>
        <time>2022-01-13T10:15:51Z</time>
      </trkpt>
      <trkpt lat="47.718376" lon="2.221836">
        <ele>168.0</ele>
        <time>2022-01-13T10:15:52Z</time>
      </trkpt>
      <trkpt lat="47.71837" lon="2.2218204">
        <ele>169.0</ele>
        <time>2022-01-13T10:15:53Z</time>
      </trkpt>
      <trkpt lat="47.718357" lon="2.2218046">
        <ele>170.0</ele>
        <time>2022-01-13T10:15:54Z</time>
      </trkpt>
      <trkpt lat="47.71835" lon="2.221787">
        <ele>169.0</ele>
        <time>2022-01-13T10:15:55Z</time>
      </trkpt>
      <trkpt lat="47.718338" lon="2.2217736">
        <ele>169.0</ele>
        <time>2022-01-13T10:15:56Z</time>
      </trkpt>
      <trkpt lat="47.718334" lon="2.2217603">
        <ele>169.0</ele>
        <time>2022-01-13T10:15:57Z</time>
      </trkpt>
      <trkpt lat="47.718323" lon="2.221754">
        <ele>169.0</ele>
        <time>2022-01-13T10:15:58Z</time>
      </trkpt>
      <trkpt lat="47.718315" lon="2.2217402">
        <ele>169.0</ele>
        <time>2022-01-13T10:15:59Z</time>
      </trkpt>
      <trkpt lat="47.718304" lon="2.221729">
        <ele>169.0</ele>
        <time>2022-01-13T10:16:00Z</time>
      </trkpt>
      <trkpt lat="47.718292" lon="2.2217255">
        <ele>169.0</ele>
        <time>2022-01-13T10:16:01Z</time>
      </trkpt>
      <trkpt lat="47.718285" lon="2.2217171">
        <ele>169.0</ele>
        <time>2022-01-13T10:16:02Z</time>
      </trkpt>
      <trkpt lat="47.718266" lon="2.221708">
        <ele>169.0</ele>
        <time>2022-01-13T10:16:03Z</time>
      </trkpt>
      <trkpt lat="47.71825" lon="2.2217004">
        <ele>168.0</ele>
        <time>2022-01-13T10:16:04Z</time>
      </trkpt>
      <trkpt lat="47.718235" lon="2.2216938">
        <ele>168.0</ele>
        <time>2022-01-13T10:16:05Z</time>
      </trkpt>
      <trkpt lat="47.71822" lon="2.2216852">
        <ele>168.0</ele>
        <time>2022-01-13T10:16:06Z</time>
      </trkpt>
      <trkpt lat="47.71821" lon="2.2216747">
        <ele>168.0</ele>
        <time>2022-01-13T10:16:07Z</time>
      </trkpt>
      <trkpt lat="47.718193" lon="2.2216663">
        <ele>168.0</ele>
        <time>2022-01-13T10:16:08Z</time>
      </trkpt>
      <trkpt lat="47.71818" lon="2.2216551">
        <ele>168.0</ele>
        <time>2022-01-13T10:16:09Z</time>
      </trkpt>
      <trkpt lat="47.71817" lon="2.2216475">
        <ele>168.0</ele>
        <time>2022-01-13T10:16:10Z</time>
      </trkpt>
      <trkpt lat="47.718163" lon="2.2216394">
        <ele>168.0</ele>
        <time>2022-01-13T10:16:11Z</time>
      </trkpt>
      <trkpt lat="47.71815" lon="2.2216268">
        <ele>168.0</ele>
        <time>2022-01-13T10:16:12Z</time>
      </trkpt>
      <trkpt lat="47.718136" lon="2.2216184">
        <ele>168.0</ele>
        <time>2022-01-13T10:16:13Z</time>
      </trkpt>
      <trkpt lat="47.71812" lon="2.2216167">
        <ele>167.0</ele>
        <time>2022-01-13T10:16:14Z</time>
      </trkpt>
      <trkpt lat="47.71811" lon="2.2216136">
        <ele>167.0</ele>
        <time>2022-01-13T10:16:15Z</time>
      </trkpt>
      <trkpt lat="47.718094" lon="2.221611">
        <ele>167.0</ele>
        <time>2022-01-13T10:16:16Z</time>
      </trkpt>
      <trkpt lat="47.718082" lon="2.2216134">
        <ele>167.0</ele>
        <time>2022-01-13T10:16:17Z</time>
      </trkpt>
      <trkpt lat="47.71807" lon="2.2216132">
        <ele>167.0</ele>
        <time>2022-01-13T10:16:18Z</time>
      </trkpt>
      <trkpt lat="47.718056" lon="2.2216077">
        <ele>166.0</ele>
        <time>2022-01-13T10:16:19Z</time>
      </trkpt>
      <trkpt lat="47.718044" lon="2.2216008">
        <ele>166.0</ele>
        <time>2022-01-13T10:16:20Z</time>
      </trkpt>
      <trkpt lat="47.718033" lon="2.2215939">
        <ele>165.0</ele>
        <time>2022-01-13T10:16:21Z</time>
      </trkpt>
      <trkpt lat="47.718018" lon="2.2215855">
        <ele>165.0</ele>
        <time>2022-01-13T10:16:22Z</time>
      </trkpt>
      <trkpt lat="47.718006" lon="2.221582">
        <ele>165.0</ele>
        <time>2022-01-13T10:16:23Z</time>
      </trkpt>
      <trkpt lat="47.717995" lon="2.2215807">
        <ele>165.0</ele>
        <time>2022-01-13T10:16:24Z</time>
      </trkpt>
      <trkpt lat="47.717983" lon="2.221577">
        <ele>165.0</ele>
        <time>2022-01-13T10:16:25Z</time>
      </trkpt>
      <trkpt lat="47.71797" lon="2.2215734">
        <ele>164.0</ele>
        <time>2022-01-13T10:16:26Z</time>
      </trkpt>
      <trkpt lat="47.71796" lon="2.2215712">
        <ele>164.0</ele>
        <time>2022-01-13T10:16:27Z</time>
      </trkpt>
      <trkpt lat="47.71795" lon="2.221566">
        <ele>164.0</ele>
        <time>2022-01-13T10:16:28Z</time>
      </trkpt>
      <trkpt lat="47.717937" lon="2.2215638">
        <ele>164.0</ele>
        <time>2022-01-13T10:16:29Z</time>
      </trkpt>
      <trkpt lat="47.717926" lon="2.2215643">
        <ele>164.0</ele>
        <time>2022-01-13T10:16:30Z</time>
      </trkpt>
      <trkpt lat="47.717915" lon="2.2215645">
        <ele>164.0</ele>
        <time>2022-01-13T10:16:31Z</time>
      </trkpt>
      <trkpt lat="47.717907" lon="2.2215626">
        <ele>164.0</ele>
        <time>2022-01-13T10:16:32Z</time>
      </trkpt>
      <trkpt lat="47.717896" lon="2.2215602">
        <ele>165.0</ele>
        <time>2022-01-13T10:16:33Z</time>
      </trkpt>
      <trkpt lat="47.717884" lon="2.2215571">
        <ele>165.0</ele>
        <time>2022-01-13T10:16:34Z</time>
      </trkpt>
      <trkpt lat="47.717873" lon="2.2215521">
        <ele>165.0</ele>
        <time>2022-01-13T10:16:35Z</time>
      </trkpt>
      <trkpt lat="47.71786" lon="2.2215412">
        <ele>165.0</ele>
        <time>2022-01-13T10:16:36Z</time>
      </trkpt>
      <trkpt lat="47.717854" lon="2.2215388">
        <ele>165.0</ele>
        <time>2022-01-13T10:16:37Z</time>
      </trkpt>
      <trkpt lat="47.717846" lon="2.2215385">
        <ele>165.0</ele>
        <time>2022-01-13T10:16:38Z</time>
      </trkpt>
      <trkpt lat="47.717834" lon="2.2215369">
        <ele>165.0</ele>
        <time>2022-01-13T10:16:39Z</time>
      </trkpt>
      <trkpt lat="47.71782" lon="2.221534">
        <ele>164.0</ele>
        <time>2022-01-13T10:16:40Z</time>
      </trkpt>
      <trkpt lat="47.717808" lon="2.2215316">
        <ele>164.0</ele>
        <time>2022-01-13T10:16:41Z</time>
      </trkpt>
      <trkpt lat="47.7178" lon="2.2215226">
        <ele>164.0</ele>
        <time>2022-01-13T10:16:42Z</time>
      </trkpt>
      <trkpt lat="47.717793" lon="2.221506">
        <ele>165.0</ele>
        <time>2022-01-13T10:16:43Z</time>
      </trkpt>
      <trkpt lat="47.71779" lon="2.2214956">
        <ele>165.0</ele>
        <time>2022-01-13T10:16:44Z</time>
      </trkpt>
      <trkpt lat="47.71778" lon="2.221489">
        <ele>165.0</ele>
        <time>2022-01-13T10:16:45Z</time>
      </trkpt>
      <trkpt lat="47.717773" lon="2.2214806">
        <ele>165.0</ele>
        <time>2022-01-13T10:16:46Z</time>
      </trkpt>
      <trkpt lat="47.717766" lon="2.2214735">
        <ele>165.0</ele>
        <time>2022-01-13T10:16:47Z</time>
      </trkpt>
      <trkpt lat="47.717754" lon="2.2214718">
        <ele>165.0</ele>
        <time>2022-01-13T10:16:48Z</time>
      </trkpt>
      <trkpt lat="47.717743" lon="2.2214694">
        <ele>165.0</ele>
        <time>2022-01-13T10:16:49Z</time>
      </trkpt>
      <trkpt lat="47.71773" lon="2.2214687">
        <ele>165.0</ele>
        <time>2022-01-13T10:16:50Z</time>
      </trkpt>
      <trkpt lat="47.717724" lon="2.2214606">
        <ele>165.0</ele>
        <time>2022-01-13T10:16:51Z</time>
      </trkpt>
      <trkpt lat="47.717712" lon="2.2214515">
        <ele>165.0</ele>
        <time>2022-01-13T10:16:52Z</time>
      </trkpt>
      <trkpt lat="47.717697" lon="2.2214472">
        <ele>165.0</ele>
        <time>2022-01-13T10:16:53Z</time>
      </trkpt>
      <trkpt lat="47.71769" lon="2.2214358">
        <ele>165.0</ele>
        <time>2022-01-13T10:16:54Z</time>
      </trkpt>
      <trkpt lat="47.717678" lon="2.2214203">
        <ele>166.0</ele>
        <time>2022-01-13T10:16:55Z</time>
      </trkpt>
      <trkpt lat="47.717667" lon="2.2214081">
        <ele>166.0</ele>
        <time>2022-01-13T10:16:56Z</time>
      </trkpt>
      <trkpt lat="47.71765" lon="2.221395">
        <ele>166.0</ele>
        <time>2022-01-13T10:16:57Z</time>
      </trkpt>
      <trkpt lat="47.71764" lon="2.2213907">
        <ele>167.0</ele>
        <time>2022-01-13T10:16:58Z</time>
      </trkpt>
      <trkpt lat="47.71763" lon="2.2213788">
        <ele>167.0</ele>
        <time>2022-01-13T10:16:59Z</time>
      </trkpt>
      <trkpt lat="47.717617" lon="2.2213707">
        <ele>167.0</ele>
        <time>2022-01-13T10:17:00Z</time>
      </trkpt>
      <trkpt lat="47.717606" lon="2.22136">
        <ele>168.0</ele>
        <time>2022-01-13T10:17:01Z</time>
      </trkpt>
      <trkpt lat="47.717598" lon="2.2213492">
        <ele>168.0</ele>
        <time>2022-01-13T10:17:02Z</time>
      </trkpt>
      <trkpt lat="47.717587" lon="2.2213385">
        <ele>168.0</ele>
        <time>2022-01-13T10:17:03Z</time>
      </trkpt>
      <trkpt lat="47.71758" lon="2.2213256">
        <ele>168.0</ele>
        <time>2022-01-13T10:17:04Z</time>
      </trkpt>
      <trkpt lat="47.717575" lon="2.2213109">
        <ele>168.0</ele>
        <time>2022-01-13T10:17:05Z</time>
      </trkpt>
      <trkpt lat="47.717567" lon="2.2212996">
        <ele>168.0</ele>
        <time>2022-01-13T10:17:06Z</time>
      </trkpt>
      <trkpt lat="47.71756" lon="2.2212837">
        <ele>168.0</ele>
        <time>2022-01-13T10:17:07Z</time>
      </trkpt>
      <trkpt lat="47.717552" lon="2.2212698">
        <ele>169.0</ele>
        <time>2022-01-13T10:17:08Z</time>
      </trkpt>
      <trkpt lat="47.71755" lon="2.2212565">
        <ele>169.0</ele>
        <time>2022-01-13T10:17:09Z</time>
      </trkpt>
      <trkpt lat="47.717545" lon="2.2212455">
        <ele>169.0</ele>
        <time>2022-01-13T10:17:10Z</time>
      </trkpt>
      <trkpt lat="47.717537" lon="2.2212336">
        <ele>169.0</ele>
        <time>2022-01-13T10:17:11Z</time>
      </trkpt>
      <trkpt lat="47.71753" lon="2.2212226">
        <ele>168.0</ele>
        <time>2022-01-13T10:17:12Z</time>
      </trkpt>
      <trkpt lat="47.71752" lon="2.221209">
        <ele>169.0</ele>
        <time>2022-01-13T10:17:13Z</time>
      </trkpt>
      <trkpt lat="47.717514" lon="2.2211976">
        <ele>169.0</ele>
        <time>2022-01-13T10:17:14Z</time>
      </trkpt>
      <trkpt lat="47.717506" lon="2.2211835">
        <ele>169.0</ele>
        <time>2022-01-13T10:17:15Z</time>
      </trkpt>
      <trkpt lat="47.7175" lon="2.221165">
        <ele>169.0</ele>
        <time>2022-01-13T10:17:16Z</time>
      </trkpt>
      <trkpt lat="47.71749" lon="2.2211478">
        <ele>169.0</ele>
        <time>2022-01-13T10:17:17Z</time>
      </trkpt>
      <trkpt lat="47.717484" lon="2.2211297">
        <ele>170.0</ele>
        <time>2022-01-13T10:17:18Z</time>
      </trkpt>
      <trkpt lat="47.717476" lon="2.2211168">
        <ele>170.0</ele>
        <time>2022-01-13T10:17:19Z</time>
      </trkpt>
      <trkpt lat="47.71747" lon="2.2211068">
        <ele>170.0</ele>
        <time>2022-01-13T10:17:20Z</time>
      </trkpt>
      <trkpt lat="47.717453" lon="2.2210915">
        <ele>170.0</ele>
        <time>2022-01-13T10:17:21Z</time>
      </trkpt>
      <trkpt lat="47.717445" lon="2.2210834">
        <ele>170.0</ele>
        <time>2022-01-13T10:17:22Z</time>
      </trkpt>
      <trkpt lat="47.717438" lon="2.2210715">
        <ele>170.0</ele>
        <time>2022-01-13T10:17:23Z</time>
      </trkpt>
      <trkpt lat="47.71743" lon="2.2210622">
        <ele>170.0</ele>
        <time>2022-01-13T10:17:24Z</time>
      </trkpt>
      <trkpt lat="47.717426" lon="2.2210524">
        <ele>170.0</ele>
        <time>2022-01-13T10:17:25Z</time>
      </trkpt>
      <trkpt lat="47.717422" lon="2.2210462">
        <ele>170.0</ele>
        <time>2022-01-13T10:17:26Z</time>
      </trkpt>
      <trkpt lat="47.717415" lon="2.2210336">
        <ele>170.0</ele>
        <time>2022-01-13T10:17:27Z</time>
      </trkpt>
      <trkpt lat="47.717407" lon="2.2210186">
        <ele>170.0</ele>
        <time>2022-01-13T10:17:28Z</time>
      </trkpt>
      <trkpt lat="47.717396" lon="2.2210042">
        <ele>170.0</ele>
        <time>2022-01-13T10:17:29Z</time>
      </trkpt>
      <trkpt lat="47.717392" lon="2.2209926">
        <ele>170.0</ele>
        <time>2022-01-13T10:17:30Z</time>
      </trkpt>
      <trkpt lat="47.717384" lon="2.220982">
        <ele>170.0</ele>
        <time>2022-01-13T10:17:31Z</time>
      </trkpt>
      <trkpt lat="47.717377" lon="2.2209663">
        <ele>170.0</ele>
        <time>2022-01-13T10:17:32Z</time>
      </trkpt>
      <trkpt lat="47.71737" lon="2.220945">
        <ele>170.0</ele>
        <time>2022-01-13T10:17:33Z</time>
      </trkpt>
      <trkpt lat="47.71736" lon="2.2209275">
        <ele>171.0</ele>
        <time>2022-01-13T10:17:34Z</time>
      </trkpt>
      <trkpt lat="47.717354" lon="2.220913">
        <ele>171.0</ele>
        <time>2022-01-13T10:17:35Z</time>
      </trkpt>
      <trkpt lat="47.717342" lon="2.2208922">
        <ele>171.0</ele>
        <time>2022-01-13T10:17:36Z</time>
      </trkpt>
      <trkpt lat="47.717335" lon="2.2208726">
        <ele>171.0</ele>
        <time>2022-01-13T10:17:37Z</time>
      </trkpt>
      <trkpt lat="47.717327" lon="2.220855">
        <ele>171.0</ele>
        <time>2022-01-13T10:17:38Z</time>
      </trkpt>
      <trkpt lat="47.71732" lon="2.2208364">
        <ele>172.0</ele>
        <time>2022-01-13T10:17:39Z</time>
      </trkpt>
      <trkpt lat="47.71731" lon="2.2208147">
        <ele>171.0</ele>
        <time>2022-01-13T10:17:40Z</time>
      </trkpt>
      <trkpt lat="47.717308" lon="2.2208023">
        <ele>172.0</ele>
        <time>2022-01-13T10:17:41Z</time>
      </trkpt>
      <trkpt lat="47.7173" lon="2.2207913">
        <ele>171.0</ele>
        <time>2022-01-13T10:17:42Z</time>
      </trkpt>
      <trkpt lat="47.71729" lon="2.2207863">
        <ele>172.0</ele>
        <time>2022-01-13T10:17:43Z</time>
      </trkpt>
      <trkpt lat="47.71728" lon="2.2207832">
        <ele>171.0</ele>
        <time>2022-01-13T10:17:44Z</time>
      </trkpt>
      <trkpt lat="47.717274" lon="2.2207701">
        <ele>171.0</ele>
        <time>2022-01-13T10:17:45Z</time>
      </trkpt>
      <trkpt lat="47.71727" lon="2.2207527">
        <ele>171.0</ele>
        <time>2022-01-13T10:17:46Z</time>
      </trkpt>
      <trkpt lat="47.71726" lon="2.2207413">
        <ele>171.0</ele>
        <time>2022-01-13T10:17:47Z</time>
      </trkpt>
      <trkpt lat="47.71725" lon="2.2207274">
        <ele>170.0</ele>
        <time>2022-01-13T10:17:48Z</time>
      </trkpt>
      <trkpt lat="47.717243" lon="2.220714">
        <ele>170.0</ele>
        <time>2022-01-13T10:17:49Z</time>
      </trkpt>
      <trkpt lat="47.71724" lon="2.2207046">
        <ele>171.0</ele>
        <time>2022-01-13T10:17:50Z</time>
      </trkpt>
      <trkpt lat="47.717236" lon="2.2206874">
        <ele>171.0</ele>
        <time>2022-01-13T10:17:51Z</time>
      </trkpt>
      <trkpt lat="47.717228" lon="2.2206788">
        <ele>171.0</ele>
        <time>2022-01-13T10:17:52Z</time>
      </trkpt>
      <trkpt lat="47.71722" lon="2.2206702">
        <ele>171.0</ele>
        <time>2022-01-13T10:17:53Z</time>
      </trkpt>
      <trkpt lat="47.717216" lon="2.2206573">
        <ele>171.0</ele>
        <time>2022-01-13T10:17:54Z</time>
      </trkpt>
      <trkpt lat="47.717205" lon="2.2206447">
        <ele>172.0</ele>
        <time>2022-01-13T10:17:55Z</time>
      </trkpt>
      <trkpt lat="47.717194" lon="2.2206295">
        <ele>172.0</ele>
        <time>2022-01-13T10:17:56Z</time>
      </trkpt>
      <trkpt lat="47.717186" lon="2.2206151">
        <ele>172.0</ele>
        <time>2022-01-13T10:17:57Z</time>
      </trkpt>
      <trkpt lat="47.717175" lon="2.2205992">
        <ele>173.0</ele>
        <time>2022-01-13T10:17:58Z</time>
      </trkpt>
      <trkpt lat="47.71717" lon="2.220587">
        <ele>173.0</ele>
        <time>2022-01-13T10:17:59Z</time>
      </trkpt>
      <trkpt lat="47.717167" lon="2.22057">
        <ele>172.0</ele>
        <time>2022-01-13T10:18:00Z</time>
      </trkpt>
      <trkpt lat="47.71716" lon="2.220562">
        <ele>172.0</ele>
        <time>2022-01-13T10:18:01Z</time>
      </trkpt>
      <trkpt lat="47.717155" lon="2.220551">
        <ele>172.0</ele>
        <time>2022-01-13T10:18:02Z</time>
      </trkpt>
      <trkpt lat="47.717148" lon="2.2205424">
        <ele>172.0</ele>
        <time>2022-01-13T10:18:03Z</time>
      </trkpt>
      <trkpt lat="47.71714" lon="2.220534">
        <ele>172.0</ele>
        <time>2022-01-13T10:18:04Z</time>
      </trkpt>
      <trkpt lat="47.717136" lon="2.2205248">
        <ele>172.0</ele>
        <time>2022-01-13T10:18:05Z</time>
      </trkpt>
      <trkpt lat="47.71713" lon="2.2205107">
        <ele>172.0</ele>
        <time>2022-01-13T10:18:06Z</time>
      </trkpt>
      <trkpt lat="47.717117" lon="2.2205007">
        <ele>173.0</ele>
        <time>2022-01-13T10:18:07Z</time>
      </trkpt>
      <trkpt lat="47.71711" lon="2.2204885">
        <ele>173.0</ele>
        <time>2022-01-13T10:18:08Z</time>
      </trkpt>
      <trkpt lat="47.7171" lon="2.2204776">
        <ele>173.0</ele>
        <time>2022-01-13T10:18:09Z</time>
      </trkpt>
      <trkpt lat="47.71709" lon="2.2204645">
        <ele>173.0</ele>
        <time>2022-01-13T10:18:10Z</time>
      </trkpt>
      <trkpt lat="47.71708" lon="2.2204504">
        <ele>173.0</ele>
        <time>2022-01-13T10:18:11Z</time>
      </trkpt>
      <trkpt lat="47.717068" lon="2.2204363">
        <ele>173.0</ele>
        <time>2022-01-13T10:18:12Z</time>
      </trkpt>
      <trkpt lat="47.717056" lon="2.220425">
        <ele>173.0</ele>
        <time>2022-01-13T10:18:13Z</time>
      </trkpt>
      <trkpt lat="47.71705" lon="2.220418">
        <ele>172.0</ele>
        <time>2022-01-13T10:18:14Z</time>
      </trkpt>
      <trkpt lat="47.71705" lon="2.220405">
        <ele>173.0</ele>
        <time>2022-01-13T10:18:15Z</time>
      </trkpt>
      <trkpt lat="47.71704" lon="2.2203877">
        <ele>173.0</ele>
        <time>2022-01-13T10:18:16Z</time>
      </trkpt>
      <trkpt lat="47.71703" lon="2.2203717">
        <ele>173.0</ele>
        <time>2022-01-13T10:18:17Z</time>
      </trkpt>
      <trkpt lat="47.71702" lon="2.2203586">
        <ele>173.0</ele>
        <time>2022-01-13T10:18:18Z</time>
      </trkpt>
      <trkpt lat="47.71701" lon="2.2203476">
        <ele>172.0</ele>
        <time>2022-01-13T10:18:19Z</time>
      </trkpt>
      <trkpt lat="47.717003" lon="2.2203357">
        <ele>172.0</ele>
        <time>2022-01-13T10:18:20Z</time>
      </trkpt>
      <trkpt lat="47.716995" lon="2.220323">
        <ele>173.0</ele>
        <time>2022-01-13T10:18:21Z</time>
      </trkpt>
      <trkpt lat="47.716988" lon="2.2203085">
        <ele>173.0</ele>
        <time>2022-01-13T10:18:22Z</time>
      </trkpt>
      <trkpt lat="47.716984" lon="2.2203">
        <ele>172.0</ele>
        <time>2022-01-13T10:18:23Z</time>
      </trkpt>
      <trkpt lat="47.716976" lon="2.2202897">
        <ele>172.0</ele>
        <time>2022-01-13T10:18:24Z</time>
      </trkpt>
      <trkpt lat="47.71697" lon="2.2202797">
        <ele>172.0</ele>
        <time>2022-01-13T10:18:25Z</time>
      </trkpt>
      <trkpt lat="47.716965" lon="2.2202652">
        <ele>172.0</ele>
        <time>2022-01-13T10:18:26Z</time>
      </trkpt>
      <trkpt lat="47.716957" lon="2.2202508">
        <ele>172.0</ele>
        <time>2022-01-13T10:18:27Z</time>
      </trkpt>
      <trkpt lat="47.71695" lon="2.2202375">
        <ele>172.0</ele>
        <time>2022-01-13T10:18:28Z</time>
      </trkpt>
      <trkpt lat="47.716938" lon="2.2202241">
        <ele>172.0</ele>
        <time>2022-01-13T10:18:29Z</time>
      </trkpt>
      <trkpt lat="47.71693" lon="2.2202137">
        <ele>172.0</ele>
        <time>2022-01-13T10:18:30Z</time>
      </trkpt>
      <trkpt lat="47.716923" lon="2.2201989">
        <ele>172.0</ele>
        <time>2022-01-13T10:18:31Z</time>
      </trkpt>
      <trkpt lat="47.716915" lon="2.2201803">
        <ele>172.0</ele>
        <time>2022-01-13T10:18:32Z</time>
      </trkpt>
      <trkpt lat="47.71691" lon="2.2201645">
        <ele>172.0</ele>
        <time>2022-01-13T10:18:33Z</time>
      </trkpt>
      <trkpt lat="47.716896" lon="2.2201443">
        <ele>172.0</ele>
        <time>2022-01-13T10:18:34Z</time>
      </trkpt>
      <trkpt lat="47.716892" lon="2.2201335">
        <ele>171.0</ele>
        <time>2022-01-13T10:18:35Z</time>
      </trkpt>
      <trkpt lat="47.71688" lon="2.2201192">
        <ele>171.0</ele>
        <time>2022-01-13T10:18:36Z</time>
      </trkpt>
      <trkpt lat="47.716873" lon="2.220105">
        <ele>171.0</ele>
        <time>2022-01-13T10:18:37Z</time>
      </trkpt>
      <trkpt lat="47.71687" lon="2.2200894">
        <ele>171.0</ele>
        <time>2022-01-13T10:18:38Z</time>
      </trkpt>
      <trkpt lat="47.716866" lon="2.2200787">
        <ele>171.0</ele>
        <time>2022-01-13T10:18:39Z</time>
      </trkpt>
      <trkpt lat="47.71686" lon="2.2200685">
        <ele>171.0</ele>
        <time>2022-01-13T10:18:40Z</time>
      </trkpt>
      <trkpt lat="47.716854" lon="2.2200582">
        <ele>171.0</ele>
        <time>2022-01-13T10:18:41Z</time>
      </trkpt>
      <trkpt lat="47.716846" lon="2.2200518">
        <ele>170.0</ele>
        <time>2022-01-13T10:18:42Z</time>
      </trkpt>
      <trkpt lat="47.71684" lon="2.2200415">
        <ele>170.0</ele>
        <time>2022-01-13T10:18:43Z</time>
      </trkpt>
      <trkpt lat="47.71683" lon="2.220025">
        <ele>170.0</ele>
        <time>2022-01-13T10:18:44Z</time>
      </trkpt>
      <trkpt lat="47.71683" lon="2.220025">
        <ele>170.0</ele>
        <time>2022-01-13T10:18:44Z</time>
      </trkpt>
      <trkpt lat="47.716824" lon="2.2200177">
        <ele>170.0</ele>
        <time>2022-01-13T10:18:46Z</time>
      </trkpt>
      <trkpt lat="47.716812" lon="2.220003">
        <ele>170.0</ele>
        <time>2022-01-13T10:18:47Z</time>
      </trkpt>
      <trkpt lat="47.71681" lon="2.2199874">
        <ele>170.0</ele>
        <time>2022-01-13T10:18:48Z</time>
      </trkpt>
      <trkpt lat="47.7168" lon="2.2199771">
        <ele>171.0</ele>
        <time>2022-01-13T10:18:49Z</time>
      </trkpt>
      <trkpt lat="47.716797" lon="2.219965">
        <ele>171.0</ele>
        <time>2022-01-13T10:18:50Z</time>
      </trkpt>
      <trkpt lat="47.71679" lon="2.2199554">
        <ele>171.0</ele>
        <time>2022-01-13T10:18:51Z</time>
      </trkpt>
      <trkpt lat="47.716785" lon="2.2199512">
        <ele>170.0</ele>
        <time>2022-01-13T10:18:52Z</time>
      </trkpt>
      <trkpt lat="47.716785" lon="2.2199466">
        <ele>171.0</ele>
        <time>2022-01-13T10:18:53Z</time>
      </trkpt>
      <trkpt lat="47.716785" lon="2.2199466">
        <ele>171.0</ele>
        <time>2022-01-13T10:18:53Z</time>
      </trkpt>
      <trkpt lat="47.716785" lon="2.2199385">
        <ele>171.0</ele>
        <time>2022-01-13T10:18:55Z</time>
      </trkpt>
      <trkpt lat="47.716785" lon="2.2199256">
        <ele>171.0</ele>
        <time>2022-01-13T10:18:56Z</time>
      </trkpt>
      <trkpt lat="47.716774" lon="2.2199116">
        <ele>172.0</ele>
        <time>2022-01-13T10:18:57Z</time>
      </trkpt>
      <trkpt lat="47.716763" lon="2.2198994">
        <ele>171.0</ele>
        <time>2022-01-13T10:18:58Z</time>
      </trkpt>
      <trkpt lat="47.716763" lon="2.2198994">
        <ele>171.0</ele>
        <time>2022-01-13T10:18:58Z</time>
      </trkpt>
      <trkpt lat="47.71675" lon="2.2198882">
        <ele>170.0</ele>
        <time>2022-01-13T10:19:00Z</time>
      </trkpt>
      <trkpt lat="47.716747" lon="2.2198787">
        <ele>170.0</ele>
        <time>2022-01-13T10:19:01Z</time>
      </trkpt>
      <trkpt lat="47.71674" lon="2.2198641">
        <ele>170.0</ele>
        <time>2022-01-13T10:19:02Z</time>
      </trkpt>
      <trkpt lat="47.716732" lon="2.2198558">
        <ele>170.0</ele>
        <time>2022-01-13T10:19:03Z</time>
      </trkpt>
      <trkpt lat="47.716724" lon="2.2198439">
        <ele>170.0</ele>
        <time>2022-01-13T10:19:04Z</time>
      </trkpt>
      <trkpt lat="47.716717" lon="2.2198372">
        <ele>170.0</ele>
        <time>2022-01-13T10:19:05Z</time>
      </trkpt>
      <trkpt lat="47.716717" lon="2.219831">
        <ele>171.0</ele>
        <time>2022-01-13T10:19:06Z</time>
      </trkpt>
      <trkpt lat="47.71671" lon="2.2198212">
        <ele>171.0</ele>
        <time>2022-01-13T10:19:07Z</time>
      </trkpt>
      <trkpt lat="47.7167" lon="2.2198088">
        <ele>171.0</ele>
        <time>2022-01-13T10:19:08Z</time>
      </trkpt>
      <trkpt lat="47.716694" lon="2.2198">
        <ele>171.0</ele>
        <time>2022-01-13T10:19:09Z</time>
      </trkpt>
      <trkpt lat="47.716682" lon="2.2197902">
        <ele>171.0</ele>
        <time>2022-01-13T10:19:10Z</time>
      </trkpt>
      <trkpt lat="47.716682" lon="2.2197833">
        <ele>171.0</ele>
        <time>2022-01-13T10:19:11Z</time>
      </trkpt>
      <trkpt lat="47.71667" lon="2.2197766">
        <ele>171.0</ele>
        <time>2022-01-13T10:19:12Z</time>
      </trkpt>
      <trkpt lat="47.716663" lon="2.21977">
        <ele>171.0</ele>
        <time>2022-01-13T10:19:13Z</time>
      </trkpt>
      <trkpt lat="47.716652" lon="2.2197568">
        <ele>171.0</ele>
        <time>2022-01-13T10:19:14Z</time>
      </trkpt>
      <trkpt lat="47.716644" lon="2.2197456">
        <ele>171.0</ele>
        <time>2022-01-13T10:19:15Z</time>
      </trkpt>
      <trkpt lat="47.716633" lon="2.2197416">
        <ele>170.0</ele>
        <time>2022-01-13T10:19:16Z</time>
      </trkpt>
      <trkpt lat="47.716625" lon="2.219735">
        <ele>170.0</ele>
        <time>2022-01-13T10:19:17Z</time>
      </trkpt>
      <trkpt lat="47.716602" lon="2.219716">
        <ele>170.0</ele>
        <time>2022-01-13T10:19:18Z</time>
      </trkpt>
      <trkpt lat="47.716602" lon="2.219716">
        <ele>170.0</ele>
        <time>2022-01-13T10:19:18Z</time>
      </trkpt>
      <trkpt lat="47.71659" lon="2.2197049">
        <ele>170.0</ele>
        <time>2022-01-13T10:19:20Z</time>
      </trkpt>
      <trkpt lat="47.71658" lon="2.2196972">
        <ele>170.0</ele>
        <time>2022-01-13T10:19:21Z</time>
      </trkpt>
      <trkpt lat="47.716568" lon="2.2196925">
        <ele>171.0</ele>
        <time>2022-01-13T10:19:22Z</time>
      </trkpt>
      <trkpt lat="47.71656" lon="2.2196891">
        <ele>171.0</ele>
        <time>2022-01-13T10:19:23Z</time>
      </trkpt>
      <trkpt lat="47.716557" lon="2.2196777">
        <ele>170.0</ele>
        <time>2022-01-13T10:19:24Z</time>
      </trkpt>
      <trkpt lat="47.716553" lon="2.2196672">
        <ele>170.0</ele>
        <time>2022-01-13T10:19:25Z</time>
      </trkpt>
      <trkpt lat="47.716545" lon="2.2196596">
        <ele>170.0</ele>
        <time>2022-01-13T10:19:26Z</time>
      </trkpt>
      <trkpt lat="47.716522" lon="2.2196465">
        <ele>170.0</ele>
        <time>2022-01-13T10:19:27Z</time>
      </trkpt>
      <trkpt lat="47.716515" lon="2.2196426">
        <ele>170.0</ele>
        <time>2022-01-13T10:19:28Z</time>
      </trkpt>
      <trkpt lat="47.71651" lon="2.219637">
        <ele>170.0</ele>
        <time>2022-01-13T10:19:29Z</time>
      </trkpt>
      <trkpt lat="47.716503" lon="2.2196329">
        <ele>170.0</ele>
        <time>2022-01-13T10:19:30Z</time>
      </trkpt>
      <trkpt lat="47.716503" lon="2.2196329">
        <ele>170.0</ele>
        <time>2022-01-13T10:19:30Z</time>
      </trkpt>
      <trkpt lat="47.716496" lon="2.219623">
        <ele>170.0</ele>
        <time>2022-01-13T10:19:32Z</time>
      </trkpt>
      <trkpt lat="47.716484" lon="2.219609">
        <ele>170.0</ele>
        <time>2022-01-13T10:19:33Z</time>
      </trkpt>
      <trkpt lat="47.716484" lon="2.219609">
        <ele>170.0</ele>
        <time>2022-01-13T10:19:33Z</time>
      </trkpt>
      <trkpt lat="47.716476" lon="2.2195961">
        <ele>171.0</ele>
        <time>2022-01-13T10:19:35Z</time>
      </trkpt>
      <trkpt lat="47.716465" lon="2.2195797">
        <ele>171.0</ele>
        <time>2022-01-13T10:19:36Z</time>
      </trkpt>
      <trkpt lat="47.716465" lon="2.2195797">
        <ele>171.0</ele>
        <time>2022-01-13T10:19:36Z</time>
      </trkpt>
      <trkpt lat="47.716446" lon="2.219554">
        <ele>171.0</ele>
        <time>2022-01-13T10:19:38Z</time>
      </trkpt>
      <trkpt lat="47.71644" lon="2.219548">
        <ele>171.0</ele>
        <time>2022-01-13T10:19:39Z</time>
      </trkpt>
      <trkpt lat="47.71643" lon="2.219546">
        <ele>171.0</ele>
        <time>2022-01-13T10:19:40Z</time>
      </trkpt>
      <trkpt lat="47.716423" lon="2.219545">
        <ele>170.0</ele>
        <time>2022-01-13T10:19:41Z</time>
      </trkpt>
      <trkpt lat="47.716423" lon="2.219545">
        <ele>170.0</ele>
        <time>2022-01-13T10:19:41Z</time>
      </trkpt>
      <trkpt lat="47.716404" lon="2.2195377">
        <ele>169.0</ele>
        <time>2022-01-13T10:19:43Z</time>
      </trkpt>
      <trkpt lat="47.716393" lon="2.2195334">
        <ele>169.0</ele>
        <time>2022-01-13T10:19:45Z</time>
      </trkpt>
      <trkpt lat="47.71638" lon="2.219525">
        <ele>168.0</ele>
        <time>2022-01-13T10:19:46Z</time>
      </trkpt>
      <trkpt lat="47.71637" lon="2.2195158">
        <ele>168.0</ele>
        <time>2022-01-13T10:19:47Z</time>
      </trkpt>
      <trkpt lat="47.716362" lon="2.2195144">
        <ele>168.0</ele>
        <time>2022-01-13T10:19:48Z</time>
      </trkpt>
      <trkpt lat="47.71635" lon="2.2195098">
        <ele>168.0</ele>
        <time>2022-01-13T10:19:49Z</time>
      </trkpt>
      <trkpt lat="47.716347" lon="2.2195053">
        <ele>168.0</ele>
        <time>2022-01-13T10:19:50Z</time>
      </trkpt>
      <trkpt lat="47.716335" lon="2.2195017">
        <ele>167.0</ele>
        <time>2022-01-13T10:19:51Z</time>
      </trkpt>
      <trkpt lat="47.716328" lon="2.2194936">
        <ele>167.0</ele>
        <time>2022-01-13T10:19:52Z</time>
      </trkpt>
      <trkpt lat="47.716316" lon="2.2194872">
        <ele>167.0</ele>
        <time>2022-01-13T10:19:53Z</time>
      </trkpt>
      <trkpt lat="47.71631" lon="2.219481">
        <ele>166.0</ele>
        <time>2022-01-13T10:19:54Z</time>
      </trkpt>
      <trkpt lat="47.716297" lon="2.2194753">
        <ele>167.0</ele>
        <time>2022-01-13T10:19:55Z</time>
      </trkpt>
      <trkpt lat="47.716286" lon="2.2194653">
        <ele>167.0</ele>
        <time>2022-01-13T10:19:56Z</time>
      </trkpt>
      <trkpt lat="47.716274" lon="2.2194557">
        <ele>167.0</ele>
        <time>2022-01-13T10:19:57Z</time>
      </trkpt>
      <trkpt lat="47.716263" lon="2.219452">
        <ele>167.0</ele>
        <time>2022-01-13T10:19:58Z</time>
      </trkpt>
      <trkpt lat="47.71625" lon="2.219447">
        <ele>166.0</ele>
        <time>2022-01-13T10:19:59Z</time>
      </trkpt>
      <trkpt lat="47.716244" lon="2.2194412">
        <ele>166.0</ele>
        <time>2022-01-13T10:20:00Z</time>
      </trkpt>
      <trkpt lat="47.716232" lon="2.219437">
        <ele>167.0</ele>
        <time>2022-01-13T10:20:01Z</time>
      </trkpt>
      <trkpt lat="47.716217" lon="2.2194257">
        <ele>167.0</ele>
        <time>2022-01-13T10:20:02Z</time>
      </trkpt>
      <trkpt lat="47.71621" lon="2.2194147">
        <ele>167.0</ele>
        <time>2022-01-13T10:20:03Z</time>
      </trkpt>
      <trkpt lat="47.7162" lon="2.219409">
        <ele>167.0</ele>
        <time>2022-01-13T10:20:04Z</time>
      </trkpt>
      <trkpt lat="47.716194" lon="2.2194028">
        <ele>167.0</ele>
        <time>2022-01-13T10:20:05Z</time>
      </trkpt>
      <trkpt lat="47.716183" lon="2.2193987">
        <ele>167.0</ele>
        <time>2022-01-13T10:20:06Z</time>
      </trkpt>
      <trkpt lat="47.716175" lon="2.219388">
        <ele>167.0</ele>
        <time>2022-01-13T10:20:07Z</time>
      </trkpt>
      <trkpt lat="47.716167" lon="2.2193756">
        <ele>167.0</ele>
        <time>2022-01-13T10:20:08Z</time>
      </trkpt>
      <trkpt lat="47.71616" lon="2.219369">
        <ele>166.0</ele>
        <time>2022-01-13T10:20:09Z</time>
      </trkpt>
      <trkpt lat="47.71615" lon="2.2193532">
        <ele>166.0</ele>
        <time>2022-01-13T10:20:10Z</time>
      </trkpt>
      <trkpt lat="47.716145" lon="2.219343">
        <ele>166.0</ele>
        <time>2022-01-13T10:20:11Z</time>
      </trkpt>
      <trkpt lat="47.71613" lon="2.219335">
        <ele>165.0</ele>
        <time>2022-01-13T10:20:12Z</time>
      </trkpt>
      <trkpt lat="47.71611" lon="2.2193284">
        <ele>165.0</ele>
        <time>2022-01-13T10:20:13Z</time>
      </trkpt>
      <trkpt lat="47.7161" lon="2.2193222">
        <ele>165.0</ele>
        <time>2022-01-13T10:20:14Z</time>
      </trkpt>
      <trkpt lat="47.71609" lon="2.2193098">
        <ele>165.0</ele>
        <time>2022-01-13T10:20:15Z</time>
      </trkpt>
      <trkpt lat="47.716084" lon="2.219301">
        <ele>165.0</ele>
        <time>2022-01-13T10:20:16Z</time>
      </trkpt>
      <trkpt lat="47.71607" lon="2.2192924">
        <ele>165.0</ele>
        <time>2022-01-13T10:20:17Z</time>
      </trkpt>
      <trkpt lat="47.71606" lon="2.2192924">
        <ele>165.0</ele>
        <time>2022-01-13T10:20:18Z</time>
      </trkpt>
      <trkpt lat="47.716045" lon="2.219289">
        <ele>165.0</ele>
        <time>2022-01-13T10:20:19Z</time>
      </trkpt>
      <trkpt lat="47.716038" lon="2.2192829">
        <ele>164.0</ele>
        <time>2022-01-13T10:20:20Z</time>
      </trkpt>
      <trkpt lat="47.71603" lon="2.219277">
        <ele>164.0</ele>
        <time>2022-01-13T10:20:21Z</time>
      </trkpt>
      <trkpt lat="47.71602" lon="2.2192724">
        <ele>163.0</ele>
        <time>2022-01-13T10:20:22Z</time>
      </trkpt>
      <trkpt lat="47.71601" lon="2.2192671">
        <ele>163.0</ele>
        <time>2022-01-13T10:20:23Z</time>
      </trkpt>
      <trkpt lat="47.716" lon="2.219258">
        <ele>163.0</ele>
        <time>2022-01-13T10:20:24Z</time>
      </trkpt>
      <trkpt lat="47.71599" lon="2.2192461">
        <ele>164.0</ele>
        <time>2022-01-13T10:20:25Z</time>
      </trkpt>
      <trkpt lat="47.715977" lon="2.2192385">
        <ele>163.0</ele>
        <time>2022-01-13T10:20:26Z</time>
      </trkpt>
      <trkpt lat="47.71597" lon="2.219231">
        <ele>163.0</ele>
        <time>2022-01-13T10:20:27Z</time>
      </trkpt>
      <trkpt lat="47.71596" lon="2.2192266">
        <ele>163.0</ele>
        <time>2022-01-13T10:20:28Z</time>
      </trkpt>
      <trkpt lat="47.71595" lon="2.219222">
        <ele>163.0</ele>
        <time>2022-01-13T10:20:29Z</time>
      </trkpt>
      <trkpt lat="47.71594" lon="2.2192175">
        <ele>163.0</ele>
        <time>2022-01-13T10:20:30Z</time>
      </trkpt>
      <trkpt lat="47.715927" lon="2.2192128">
        <ele>163.0</ele>
        <time>2022-01-13T10:20:31Z</time>
      </trkpt>
      <trkpt lat="47.71592" lon="2.2192023">
        <ele>163.0</ele>
        <time>2022-01-13T10:20:32Z</time>
      </trkpt>
      <trkpt lat="47.715908" lon="2.2191877">
        <ele>163.0</ele>
        <time>2022-01-13T10:20:33Z</time>
      </trkpt>
      <trkpt lat="47.715897" lon="2.2191734">
        <ele>164.0</ele>
        <time>2022-01-13T10:20:34Z</time>
      </trkpt>
      <trkpt lat="47.715885" lon="2.21916">
        <ele>164.0</ele>
        <time>2022-01-13T10:20:35Z</time>
      </trkpt>
      <trkpt lat="47.715878" lon="2.2191503">
        <ele>164.0</ele>
        <time>2022-01-13T10:20:36Z</time>
      </trkpt>
      <trkpt lat="47.715866" lon="2.219142">
        <ele>164.0</ele>
        <time>2022-01-13T10:20:37Z</time>
      </trkpt>
      <trkpt lat="47.715855" lon="2.21914">
        <ele>164.0</ele>
        <time>2022-01-13T10:20:38Z</time>
      </trkpt>
      <trkpt lat="47.715847" lon="2.2191348">
        <ele>164.0</ele>
        <time>2022-01-13T10:20:39Z</time>
      </trkpt>
      <trkpt lat="47.715836" lon="2.2191265">
        <ele>164.0</ele>
        <time>2022-01-13T10:20:40Z</time>
      </trkpt>
      <trkpt lat="47.715828" lon="2.219119">
        <ele>164.0</ele>
        <time>2022-01-13T10:20:41Z</time>
      </trkpt>
      <trkpt lat="47.715816" lon="2.2191148">
        <ele>164.0</ele>
        <time>2022-01-13T10:20:42Z</time>
      </trkpt>
      <trkpt lat="47.71581" lon="2.2191093">
        <ele>164.0</ele>
        <time>2022-01-13T10:20:43Z</time>
      </trkpt>
      <trkpt lat="47.715797" lon="2.2191074">
        <ele>164.0</ele>
        <time>2022-01-13T10:20:44Z</time>
      </trkpt>
      <trkpt lat="47.71579" lon="2.2191048">
        <ele>164.0</ele>
        <time>2022-01-13T10:20:45Z</time>
      </trkpt>
      <trkpt lat="47.71578" lon="2.2190979">
        <ele>164.0</ele>
        <time>2022-01-13T10:20:46Z</time>
      </trkpt>
      <trkpt lat="47.71577" lon="2.2190933">
        <ele>164.0</ele>
        <time>2022-01-13T10:20:47Z</time>
      </trkpt>
      <trkpt lat="47.715763" lon="2.2190878">
        <ele>164.0</ele>
        <time>2022-01-13T10:20:48Z</time>
      </trkpt>
      <trkpt lat="47.71575" lon="2.2190835">
        <ele>164.0</ele>
        <time>2022-01-13T10:20:49Z</time>
      </trkpt>
      <trkpt lat="47.715736" lon="2.2190802">
        <ele>164.0</ele>
        <time>2022-01-13T10:20:50Z</time>
      </trkpt>
      <trkpt lat="47.71573" lon="2.2190752">
        <ele>164.0</ele>
        <time>2022-01-13T10:20:51Z</time>
      </trkpt>
      <trkpt lat="47.715717" lon="2.219068">
        <ele>164.0</ele>
        <time>2022-01-13T10:20:52Z</time>
      </trkpt>
      <trkpt lat="47.715706" lon="2.219058">
        <ele>164.0</ele>
        <time>2022-01-13T10:20:53Z</time>
      </trkpt>
      <trkpt lat="47.715694" lon="2.2190495">
        <ele>164.0</ele>
        <time>2022-01-13T10:20:54Z</time>
      </trkpt>
      <trkpt lat="47.715683" lon="2.2190464">
        <ele>164.0</ele>
        <time>2022-01-13T10:20:55Z</time>
      </trkpt>
      <trkpt lat="47.71567" lon="2.2190466">
        <ele>164.0</ele>
        <time>2022-01-13T10:20:56Z</time>
      </trkpt>
      <trkpt lat="47.71566" lon="2.2190373">
        <ele>164.0</ele>
        <time>2022-01-13T10:20:57Z</time>
      </trkpt>
      <trkpt lat="47.715645" lon="2.2190337">
        <ele>165.0</ele>
        <time>2022-01-13T10:20:58Z</time>
      </trkpt>
      <trkpt lat="47.715633" lon="2.2190273">
        <ele>165.0</ele>
        <time>2022-01-13T10:20:59Z</time>
      </trkpt>
      <trkpt lat="47.715622" lon="2.2190218">
        <ele>165.0</ele>
        <time>2022-01-13T10:21:00Z</time>
      </trkpt>
      <trkpt lat="47.71561" lon="2.2190135">
        <ele>165.0</ele>
        <time>2022-01-13T10:21:01Z</time>
      </trkpt>
      <trkpt lat="47.7156" lon="2.219005">
        <ele>165.0</ele>
        <time>2022-01-13T10:21:02Z</time>
      </trkpt>
      <trkpt lat="47.71559" lon="2.219002">
        <ele>165.0</ele>
        <time>2022-01-13T10:21:03Z</time>
      </trkpt>
      <trkpt lat="47.71558" lon="2.2189958">
        <ele>164.0</ele>
        <time>2022-01-13T10:21:04Z</time>
      </trkpt>
      <trkpt lat="47.715572" lon="2.2189848">
        <ele>164.0</ele>
        <time>2022-01-13T10:21:05Z</time>
      </trkpt>
      <trkpt lat="47.71556" lon="2.2189765">
        <ele>165.0</ele>
        <time>2022-01-13T10:21:06Z</time>
      </trkpt>
      <trkpt lat="47.71555" lon="2.218965">
        <ele>165.0</ele>
        <time>2022-01-13T10:21:07Z</time>
      </trkpt>
      <trkpt lat="47.715538" lon="2.2189572">
        <ele>165.0</ele>
        <time>2022-01-13T10:21:08Z</time>
      </trkpt>
      <trkpt lat="47.715527" lon="2.2189507">
        <ele>165.0</ele>
        <time>2022-01-13T10:21:09Z</time>
      </trkpt>
      <trkpt lat="47.715515" lon="2.2189443">
        <ele>165.0</ele>
        <time>2022-01-13T10:21:10Z</time>
      </trkpt>
      <trkpt lat="47.715508" lon="2.2189417">
        <ele>166.0</ele>
        <time>2022-01-13T10:21:11Z</time>
      </trkpt>
      <trkpt lat="47.715496" lon="2.2189376">
        <ele>166.0</ele>
        <time>2022-01-13T10:21:12Z</time>
      </trkpt>
      <trkpt lat="47.715485" lon="2.2189276">
        <ele>166.0</ele>
        <time>2022-01-13T10:21:13Z</time>
      </trkpt>
      <trkpt lat="47.71547" lon="2.2189183">
        <ele>166.0</ele>
        <time>2022-01-13T10:21:14Z</time>
      </trkpt>
      <trkpt lat="47.715454" lon="2.2189066">
        <ele>166.0</ele>
        <time>2022-01-13T10:21:15Z</time>
      </trkpt>
      <trkpt lat="47.715443" lon="2.2188969">
        <ele>166.0</ele>
        <time>2022-01-13T10:21:16Z</time>
      </trkpt>
      <trkpt lat="47.71543" lon="2.2188883">
        <ele>166.0</ele>
        <time>2022-01-13T10:21:17Z</time>
      </trkpt>
      <trkpt lat="47.715416" lon="2.218877">
        <ele>166.0</ele>
        <time>2022-01-13T10:21:18Z</time>
      </trkpt>
      <trkpt lat="47.715405" lon="2.2188702">
        <ele>167.0</ele>
        <time>2022-01-13T10:21:19Z</time>
      </trkpt>
      <trkpt lat="47.715393" lon="2.218866">
        <ele>167.0</ele>
        <time>2022-01-13T10:21:20Z</time>
      </trkpt>
      <trkpt lat="47.71538" lon="2.2188573">
        <ele>167.0</ele>
        <time>2022-01-13T10:21:21Z</time>
      </trkpt>
      <trkpt lat="47.71537" lon="2.21885">
        <ele>167.0</ele>
        <time>2022-01-13T10:21:22Z</time>
      </trkpt>
      <trkpt lat="47.71536" lon="2.2188423">
        <ele>167.0</ele>
        <time>2022-01-13T10:21:23Z</time>
      </trkpt>
      <trkpt lat="47.715347" lon="2.2188349">
        <ele>167.0</ele>
        <time>2022-01-13T10:21:24Z</time>
      </trkpt>
      <trkpt lat="47.71534" lon="2.2188272">
        <ele>167.0</ele>
        <time>2022-01-13T10:21:25Z</time>
      </trkpt>
      <trkpt lat="47.71533" lon="2.2188177">
        <ele>167.0</ele>
        <time>2022-01-13T10:21:26Z</time>
      </trkpt>
      <trkpt lat="47.715317" lon="2.2188067">
        <ele>167.0</ele>
        <time>2022-01-13T10:21:27Z</time>
      </trkpt>
      <trkpt lat="47.715305" lon="2.2187963">
        <ele>166.0</ele>
        <time>2022-01-13T10:21:28Z</time>
      </trkpt>
      <trkpt lat="47.71529" lon="2.2187912">
        <ele>166.0</ele>
        <time>2022-01-13T10:21:29Z</time>
      </trkpt>
      <trkpt lat="47.715282" lon="2.218783">
        <ele>166.0</ele>
        <time>2022-01-13T10:21:30Z</time>
      </trkpt>
      <trkpt lat="47.71527" lon="2.2187743">
        <ele>166.0</ele>
        <time>2022-01-13T10:21:31Z</time>
      </trkpt>
      <trkpt lat="47.715263" lon="2.2187707">
        <ele>166.0</ele>
        <time>2022-01-13T10:21:32Z</time>
      </trkpt>
      <trkpt lat="47.715252" lon="2.2187681">
        <ele>166.0</ele>
        <time>2022-01-13T10:21:33Z</time>
      </trkpt>
      <trkpt lat="47.715244" lon="2.2187662">
        <ele>166.0</ele>
        <time>2022-01-13T10:21:34Z</time>
      </trkpt>
      <trkpt lat="47.715233" lon="2.2187648">
        <ele>166.0</ele>
        <time>2022-01-13T10:21:35Z</time>
      </trkpt>
      <trkpt lat="47.71522" lon="2.2187583">
        <ele>166.0</ele>
        <time>2022-01-13T10:21:36Z</time>
      </trkpt>
      <trkpt lat="47.71521" lon="2.2187474">
        <ele>167.0</ele>
        <time>2022-01-13T10:21:37Z</time>
      </trkpt>
      <trkpt lat="47.7152" lon="2.2187366">
        <ele>167.0</ele>
        <time>2022-01-13T10:21:38Z</time>
      </trkpt>
      <trkpt lat="47.715187" lon="2.2187264">
        <ele>167.0</ele>
        <time>2022-01-13T10:21:39Z</time>
      </trkpt>
      <trkpt lat="47.71518" lon="2.2187204">
        <ele>168.0</ele>
        <time>2022-01-13T10:21:40Z</time>
      </trkpt>
      <trkpt lat="47.715168" lon="2.2187164">
        <ele>168.0</ele>
        <time>2022-01-13T10:21:41Z</time>
      </trkpt>
      <trkpt lat="47.715157" lon="2.2187107">
        <ele>167.0</ele>
        <time>2022-01-13T10:21:42Z</time>
      </trkpt>
      <trkpt lat="47.715145" lon="2.2187076">
        <ele>167.0</ele>
        <time>2022-01-13T10:21:43Z</time>
      </trkpt>
      <trkpt lat="47.715134" lon="2.2187033">
        <ele>167.0</ele>
        <time>2022-01-13T10:21:44Z</time>
      </trkpt>
      <trkpt lat="47.715122" lon="2.2186975">
        <ele>168.0</ele>
        <time>2022-01-13T10:21:45Z</time>
      </trkpt>
      <trkpt lat="47.715115" lon="2.2186863">
        <ele>168.0</ele>
        <time>2022-01-13T10:21:46Z</time>
      </trkpt>
      <trkpt lat="47.715107" lon="2.218675">
        <ele>168.0</ele>
        <time>2022-01-13T10:21:47Z</time>
      </trkpt>
      <trkpt lat="47.71509" lon="2.2186677">
        <ele>169.0</ele>
        <time>2022-01-13T10:21:48Z</time>
      </trkpt>
      <trkpt lat="47.71508" lon="2.2186584">
        <ele>169.0</ele>
        <time>2022-01-13T10:21:49Z</time>
      </trkpt>
      <trkpt lat="47.715065" lon="2.2186482">
        <ele>170.0</ele>
        <time>2022-01-13T10:21:50Z</time>
      </trkpt>
      <trkpt lat="47.715057" lon="2.2186406">
        <ele>170.0</ele>
        <time>2022-01-13T10:21:51Z</time>
      </trkpt>
      <trkpt lat="47.715046" lon="2.2186313">
        <ele>170.0</ele>
        <time>2022-01-13T10:21:52Z</time>
      </trkpt>
      <trkpt lat="47.715034" lon="2.2186208">
        <ele>170.0</ele>
        <time>2022-01-13T10:21:53Z</time>
      </trkpt>
      <trkpt lat="47.715023" lon="2.218613">
        <ele>170.0</ele>
        <time>2022-01-13T10:21:54Z</time>
      </trkpt>
      <trkpt lat="47.71501" lon="2.218609">
        <ele>170.0</ele>
        <time>2022-01-13T10:21:55Z</time>
      </trkpt>
      <trkpt lat="47.715004" lon="2.2185998">
        <ele>170.0</ele>
        <time>2022-01-13T10:21:56Z</time>
      </trkpt>
      <trkpt lat="47.714996" lon="2.2185938">
        <ele>170.0</ele>
        <time>2022-01-13T10:21:57Z</time>
      </trkpt>
      <trkpt lat="47.714985" lon="2.2185855">
        <ele>170.0</ele>
        <time>2022-01-13T10:21:58Z</time>
      </trkpt>
      <trkpt lat="47.714977" lon="2.2185783">
        <ele>170.0</ele>
        <time>2022-01-13T10:21:59Z</time>
      </trkpt>
      <trkpt lat="47.714962" lon="2.2185705">
        <ele>169.0</ele>
        <time>2022-01-13T10:22:00Z</time>
      </trkpt>
      <trkpt lat="47.714954" lon="2.2185605">
        <ele>169.0</ele>
        <time>2022-01-13T10:22:01Z</time>
      </trkpt>
      <trkpt lat="47.714943" lon="2.2185497">
        <ele>170.0</ele>
        <time>2022-01-13T10:22:02Z</time>
      </trkpt>
      <trkpt lat="47.71493" lon="2.2185392">
        <ele>170.0</ele>
        <time>2022-01-13T10:22:03Z</time>
      </trkpt>
      <trkpt lat="47.71492" lon="2.218532">
        <ele>170.0</ele>
        <time>2022-01-13T10:22:04Z</time>
      </trkpt>
      <trkpt lat="47.714905" lon="2.2185287">
        <ele>170.0</ele>
        <time>2022-01-13T10:22:05Z</time>
      </trkpt>
      <trkpt lat="47.714893" lon="2.218525">
        <ele>170.0</ele>
        <time>2022-01-13T10:22:06Z</time>
      </trkpt>
      <trkpt lat="47.71488" lon="2.218516">
        <ele>170.0</ele>
        <time>2022-01-13T10:22:07Z</time>
      </trkpt>
      <trkpt lat="47.714874" lon="2.2185104">
        <ele>170.0</ele>
        <time>2022-01-13T10:22:08Z</time>
      </trkpt>
      <trkpt lat="47.714863" lon="2.2185025">
        <ele>170.0</ele>
        <time>2022-01-13T10:22:09Z</time>
      </trkpt>
      <trkpt lat="47.71485" lon="2.2184956">
        <ele>170.0</ele>
        <time>2022-01-13T10:22:10Z</time>
      </trkpt>
      <trkpt lat="47.71484" lon="2.2184887">
        <ele>170.0</ele>
        <time>2022-01-13T10:22:11Z</time>
      </trkpt>
      <trkpt lat="47.71483" lon="2.2184825">
        <ele>170.0</ele>
        <time>2022-01-13T10:22:12Z</time>
      </trkpt>
      <trkpt lat="47.714817" lon="2.218473">
        <ele>170.0</ele>
        <time>2022-01-13T10:22:13Z</time>
      </trkpt>
      <trkpt lat="47.714806" lon="2.2184618">
        <ele>170.0</ele>
        <time>2022-01-13T10:22:14Z</time>
      </trkpt>
      <trkpt lat="47.714794" lon="2.2184436">
        <ele>170.0</ele>
        <time>2022-01-13T10:22:15Z</time>
      </trkpt>
      <trkpt lat="47.714783" lon="2.2184274">
        <ele>170.0</ele>
        <time>2022-01-13T10:22:16Z</time>
      </trkpt>
      <trkpt lat="47.714775" lon="2.2184181">
        <ele>170.0</ele>
        <time>2022-01-13T10:22:17Z</time>
      </trkpt>
      <trkpt lat="47.714764" lon="2.2184138">
        <ele>170.0</ele>
        <time>2022-01-13T10:22:18Z</time>
      </trkpt>
      <trkpt lat="47.714756" lon="2.2184086">
        <ele>171.0</ele>
        <time>2022-01-13T10:22:19Z</time>
      </trkpt>
      <trkpt lat="47.71475" lon="2.218397">
        <ele>171.0</ele>
        <time>2022-01-13T10:22:20Z</time>
      </trkpt>
      <trkpt lat="47.714737" lon="2.2183907">
        <ele>171.0</ele>
        <time>2022-01-13T10:22:21Z</time>
      </trkpt>
      <trkpt lat="47.714725" lon="2.2183855">
        <ele>171.0</ele>
        <time>2022-01-13T10:22:22Z</time>
      </trkpt>
      <trkpt lat="47.714714" lon="2.2183814">
        <ele>171.0</ele>
        <time>2022-01-13T10:22:23Z</time>
      </trkpt>
      <trkpt lat="47.714703" lon="2.2183757">
        <ele>171.0</ele>
        <time>2022-01-13T10:22:24Z</time>
      </trkpt>
      <trkpt lat="47.714687" lon="2.2183673">
        <ele>172.0</ele>
        <time>2022-01-13T10:22:25Z</time>
      </trkpt>
      <trkpt lat="47.714676" lon="2.2183611">
        <ele>172.0</ele>
        <time>2022-01-13T10:22:26Z</time>
      </trkpt>
      <trkpt lat="47.714664" lon="2.2183518">
        <ele>172.0</ele>
        <time>2022-01-13T10:22:27Z</time>
      </trkpt>
      <trkpt lat="47.714653" lon="2.2183459">
        <ele>172.0</ele>
        <time>2022-01-13T10:22:28Z</time>
      </trkpt>
      <trkpt lat="47.714645" lon="2.2183383">
        <ele>172.0</ele>
        <time>2022-01-13T10:22:29Z</time>
      </trkpt>
      <trkpt lat="47.714634" lon="2.2183366">
        <ele>171.0</ele>
        <time>2022-01-13T10:22:30Z</time>
      </trkpt>
      <trkpt lat="47.714622" lon="2.218334">
        <ele>172.0</ele>
        <time>2022-01-13T10:22:31Z</time>
      </trkpt>
      <trkpt lat="47.714622" lon="2.218334">
        <ele>172.0</ele>
        <time>2022-01-13T10:22:31Z</time>
      </trkpt>
      <trkpt lat="47.714596" lon="2.218322">
        <ele>172.0</ele>
        <time>2022-01-13T10:22:33Z</time>
      </trkpt>
      <trkpt lat="47.71459" lon="2.2183137">
        <ele>172.0</ele>
        <time>2022-01-13T10:22:34Z</time>
      </trkpt>
      <trkpt lat="47.714577" lon="2.2183065">
        <ele>172.0</ele>
        <time>2022-01-13T10:22:35Z</time>
      </trkpt>
      <trkpt lat="47.714565" lon="2.218302">
        <ele>172.0</ele>
        <time>2022-01-13T10:22:36Z</time>
      </trkpt>
      <trkpt lat="47.714554" lon="2.2182956">
        <ele>172.0</ele>
        <time>2022-01-13T10:22:37Z</time>
      </trkpt>
      <trkpt lat="47.714542" lon="2.218288">
        <ele>173.0</ele>
        <time>2022-01-13T10:22:38Z</time>
      </trkpt>
      <trkpt lat="47.714535" lon="2.2182794">
        <ele>172.0</ele>
        <time>2022-01-13T10:22:39Z</time>
      </trkpt>
      <trkpt lat="47.714527" lon="2.218277">
        <ele>172.0</ele>
        <time>2022-01-13T10:22:40Z</time>
      </trkpt>
      <trkpt lat="47.71452" lon="2.2182722">
        <ele>172.0</ele>
        <time>2022-01-13T10:22:41Z</time>
      </trkpt>
      <trkpt lat="47.714508" lon="2.218265">
        <ele>172.0</ele>
        <time>2022-01-13T10:22:42Z</time>
      </trkpt>
      <trkpt lat="47.714497" lon="2.2182581">
        <ele>172.0</ele>
        <time>2022-01-13T10:22:43Z</time>
      </trkpt>
      <trkpt lat="47.714485" lon="2.2182515">
        <ele>172.0</ele>
        <time>2022-01-13T10:22:44Z</time>
      </trkpt>
      <trkpt lat="47.714478" lon="2.2182465">
        <ele>172.0</ele>
        <time>2022-01-13T10:22:45Z</time>
      </trkpt>
      <trkpt lat="47.714466" lon="2.218237">
        <ele>172.0</ele>
        <time>2022-01-13T10:22:46Z</time>
      </trkpt>
      <trkpt lat="47.71446" lon="2.2182343">
        <ele>173.0</ele>
        <time>2022-01-13T10:22:47Z</time>
      </trkpt>
      <trkpt lat="47.714447" lon="2.2182271">
        <ele>173.0</ele>
        <time>2022-01-13T10:22:48Z</time>
      </trkpt>
      <trkpt lat="47.714436" lon="2.2182195">
        <ele>172.0</ele>
        <time>2022-01-13T10:22:49Z</time>
      </trkpt>
      <trkpt lat="47.714428" lon="2.218211">
        <ele>172.0</ele>
        <time>2022-01-13T10:22:50Z</time>
      </trkpt>
      <trkpt lat="47.714417" lon="2.2182024">
        <ele>173.0</ele>
        <time>2022-01-13T10:22:51Z</time>
      </trkpt>
      <trkpt lat="47.71441" lon="2.218195">
        <ele>173.0</ele>
        <time>2022-01-13T10:22:52Z</time>
      </trkpt>
      <trkpt lat="47.7144" lon="2.218182">
        <ele>173.0</ele>
        <time>2022-01-13T10:22:53Z</time>
      </trkpt>
      <trkpt lat="47.71439" lon="2.2181735">
        <ele>173.0</ele>
        <time>2022-01-13T10:22:54Z</time>
      </trkpt>
      <trkpt lat="47.714382" lon="2.2181647">
        <ele>172.0</ele>
        <time>2022-01-13T10:22:55Z</time>
      </trkpt>
      <trkpt lat="47.71437" lon="2.2181568">
        <ele>173.0</ele>
        <time>2022-01-13T10:22:56Z</time>
      </trkpt>
      <trkpt lat="47.714363" lon="2.218147">
        <ele>173.0</ele>
        <time>2022-01-13T10:22:57Z</time>
      </trkpt>
      <trkpt lat="47.714348" lon="2.2181382">
        <ele>172.0</ele>
        <time>2022-01-13T10:22:58Z</time>
      </trkpt>
      <trkpt lat="47.714333" lon="2.218133">
        <ele>172.0</ele>
        <time>2022-01-13T10:22:59Z</time>
      </trkpt>
      <trkpt lat="47.71432" lon="2.218126">
        <ele>172.0</ele>
        <time>2022-01-13T10:23:00Z</time>
      </trkpt>
      <trkpt lat="47.714314" lon="2.218119">
        <ele>172.0</ele>
        <time>2022-01-13T10:23:01Z</time>
      </trkpt>
      <trkpt lat="47.71431" lon="2.2181103">
        <ele>172.0</ele>
        <time>2022-01-13T10:23:02Z</time>
      </trkpt>
      <trkpt lat="47.714306" lon="2.2181022">
        <ele>172.0</ele>
        <time>2022-01-13T10:23:03Z</time>
      </trkpt>
      <trkpt lat="47.7143" lon="2.2180903">
        <ele>172.0</ele>
        <time>2022-01-13T10:23:04Z</time>
      </trkpt>
      <trkpt lat="47.714287" lon="2.2180834">
        <ele>172.0</ele>
        <time>2022-01-13T10:23:05Z</time>
      </trkpt>
      <trkpt lat="47.714275" lon="2.2180753">
        <ele>172.0</ele>
        <time>2022-01-13T10:23:06Z</time>
      </trkpt>
      <trkpt lat="47.71426" lon="2.2180715">
        <ele>171.0</ele>
        <time>2022-01-13T10:23:07Z</time>
      </trkpt>
      <trkpt lat="47.71425" lon="2.2180686">
        <ele>171.0</ele>
        <time>2022-01-13T10:23:08Z</time>
      </trkpt>
      <trkpt lat="47.71424" lon="2.2180688">
        <ele>171.0</ele>
        <time>2022-01-13T10:23:09Z</time>
      </trkpt>
      <trkpt lat="47.714233" lon="2.2180705">
        <ele>171.0</ele>
        <time>2022-01-13T10:23:10Z</time>
      </trkpt>
      <trkpt lat="47.71423" lon="2.218068">
        <ele>170.0</ele>
        <time>2022-01-13T10:23:11Z</time>
      </trkpt>
      <trkpt lat="47.71422" lon="2.2180574">
        <ele>170.0</ele>
        <time>2022-01-13T10:23:12Z</time>
      </trkpt>
      <trkpt lat="47.714207" lon="2.218047">
        <ele>171.0</ele>
        <time>2022-01-13T10:23:13Z</time>
      </trkpt>
      <trkpt lat="47.714195" lon="2.2180388">
        <ele>171.0</ele>
        <time>2022-01-13T10:23:14Z</time>
      </trkpt>
      <trkpt lat="47.714184" lon="2.2180324">
        <ele>171.0</ele>
        <time>2022-01-13T10:23:15Z</time>
      </trkpt>
      <trkpt lat="47.714172" lon="2.2180183">
        <ele>171.0</ele>
        <time>2022-01-13T10:23:16Z</time>
      </trkpt>
      <trkpt lat="47.71416" lon="2.2180097">
        <ele>171.0</ele>
        <time>2022-01-13T10:23:17Z</time>
      </trkpt>
      <trkpt lat="47.714153" lon="2.218002">
        <ele>171.0</ele>
        <time>2022-01-13T10:23:18Z</time>
      </trkpt>
      <trkpt lat="47.714138" lon="2.2179904">
        <ele>171.0</ele>
        <time>2022-01-13T10:23:19Z</time>
      </trkpt>
      <trkpt lat="47.714123" lon="2.217983">
        <ele>171.0</ele>
        <time>2022-01-13T10:23:20Z</time>
      </trkpt>
      <trkpt lat="47.714108" lon="2.2179792">
        <ele>171.0</ele>
        <time>2022-01-13T10:23:21Z</time>
      </trkpt>
      <trkpt lat="47.714092" lon="2.2179716">
        <ele>170.0</ele>
        <time>2022-01-13T10:23:22Z</time>
      </trkpt>
      <trkpt lat="47.71408" lon="2.2179644">
        <ele>170.0</ele>
        <time>2022-01-13T10:23:23Z</time>
      </trkpt>
      <trkpt lat="47.714073" lon="2.2179565">
        <ele>170.0</ele>
        <time>2022-01-13T10:23:24Z</time>
      </trkpt>
      <trkpt lat="47.714066" lon="2.2179472">
        <ele>170.0</ele>
        <time>2022-01-13T10:23:25Z</time>
      </trkpt>
      <trkpt lat="47.714054" lon="2.2179313">
        <ele>170.0</ele>
        <time>2022-01-13T10:23:26Z</time>
      </trkpt>
      <trkpt lat="47.714046" lon="2.217915">
        <ele>170.0</ele>
        <time>2022-01-13T10:23:27Z</time>
      </trkpt>
      <trkpt lat="47.71404" lon="2.217905">
        <ele>170.0</ele>
        <time>2022-01-13T10:23:28Z</time>
      </trkpt>
      <trkpt lat="47.714027" lon="2.2178957">
        <ele>170.0</ele>
        <time>2022-01-13T10:23:29Z</time>
      </trkpt>
      <trkpt lat="47.714024" lon="2.2178864">
        <ele>170.0</ele>
        <time>2022-01-13T10:23:30Z</time>
      </trkpt>
      <trkpt lat="47.71401" lon="2.2178738">
        <ele>170.0</ele>
        <time>2022-01-13T10:23:31Z</time>
      </trkpt>
      <trkpt lat="47.713997" lon="2.2178614">
        <ele>170.0</ele>
        <time>2022-01-13T10:23:32Z</time>
      </trkpt>
      <trkpt lat="47.713985" lon="2.2178547">
        <ele>170.0</ele>
        <time>2022-01-13T10:23:33Z</time>
      </trkpt>
      <trkpt lat="47.71397" lon="2.2178452">
        <ele>170.0</ele>
        <time>2022-01-13T10:23:34Z</time>
      </trkpt>
      <trkpt lat="47.71396" lon="2.2178335">
        <ele>170.0</ele>
        <time>2022-01-13T10:23:35Z</time>
      </trkpt>
      <trkpt lat="47.713943" lon="2.2178247">
        <ele>170.0</ele>
        <time>2022-01-13T10:23:36Z</time>
      </trkpt>
      <trkpt lat="47.713936" lon="2.2178166">
        <ele>170.0</ele>
        <time>2022-01-13T10:23:37Z</time>
      </trkpt>
      <trkpt lat="47.71393" lon="2.2178051">
        <ele>170.0</ele>
        <time>2022-01-13T10:23:38Z</time>
      </trkpt>
      <trkpt lat="47.713913" lon="2.2177954">
        <ele>170.0</ele>
        <time>2022-01-13T10:23:39Z</time>
      </trkpt>
      <trkpt lat="47.713898" lon="2.2177823">
        <ele>170.0</ele>
        <time>2022-01-13T10:23:40Z</time>
      </trkpt>
      <trkpt lat="47.713886" lon="2.217772">
        <ele>170.0</ele>
        <time>2022-01-13T10:23:41Z</time>
      </trkpt>
      <trkpt lat="47.713875" lon="2.2177598">
        <ele>170.0</ele>
        <time>2022-01-13T10:23:42Z</time>
      </trkpt>
      <trkpt lat="47.71386" lon="2.2177489">
        <ele>170.0</ele>
        <time>2022-01-13T10:23:43Z</time>
      </trkpt>
      <trkpt lat="47.713852" lon="2.2177396">
        <ele>170.0</ele>
        <time>2022-01-13T10:23:44Z</time>
      </trkpt>
      <trkpt lat="47.713837" lon="2.2177336">
        <ele>170.0</ele>
        <time>2022-01-13T10:23:45Z</time>
      </trkpt>
      <trkpt lat="47.71383" lon="2.2177267">
        <ele>170.0</ele>
        <time>2022-01-13T10:23:46Z</time>
      </trkpt>
      <trkpt lat="47.713818" lon="2.2177188">
        <ele>170.0</ele>
        <time>2022-01-13T10:23:47Z</time>
      </trkpt>
      <trkpt lat="47.713806" lon="2.2177062">
        <ele>170.0</ele>
        <time>2022-01-13T10:23:48Z</time>
      </trkpt>
      <trkpt lat="47.7138" lon="2.217701">
        <ele>169.0</ele>
        <time>2022-01-13T10:23:49Z</time>
      </trkpt>
      <trkpt lat="47.713783" lon="2.2176929">
        <ele>169.0</ele>
        <time>2022-01-13T10:23:50Z</time>
      </trkpt>
      <trkpt lat="47.71377" lon="2.2176855">
        <ele>169.0</ele>
        <time>2022-01-13T10:23:51Z</time>
      </trkpt>
      <trkpt lat="47.71376" lon="2.217676">
        <ele>169.0</ele>
        <time>2022-01-13T10:23:52Z</time>
      </trkpt>
      <trkpt lat="47.71375" lon="2.2176683">
        <ele>168.0</ele>
        <time>2022-01-13T10:23:53Z</time>
      </trkpt>
      <trkpt lat="47.713734" lon="2.2176557">
        <ele>169.0</ele>
        <time>2022-01-13T10:23:54Z</time>
      </trkpt>
      <trkpt lat="47.713722" lon="2.2176464">
        <ele>169.0</ele>
        <time>2022-01-13T10:23:55Z</time>
      </trkpt>
      <trkpt lat="47.71371" lon="2.2176461">
        <ele>169.0</ele>
        <time>2022-01-13T10:23:56Z</time>
      </trkpt>
      <trkpt lat="47.7137" lon="2.2176442">
        <ele>169.0</ele>
        <time>2022-01-13T10:23:57Z</time>
      </trkpt>
      <trkpt lat="47.713688" lon="2.2176354">
        <ele>169.0</ele>
        <time>2022-01-13T10:23:58Z</time>
      </trkpt>
      <trkpt lat="47.713676" lon="2.2176275">
        <ele>170.0</ele>
        <time>2022-01-13T10:23:59Z</time>
      </trkpt>
      <trkpt lat="47.71366" lon="2.2176187">
        <ele>170.0</ele>
        <time>2022-01-13T10:24:00Z</time>
      </trkpt>
      <trkpt lat="47.71365" lon="2.2176087">
        <ele>171.0</ele>
        <time>2022-01-13T10:24:01Z</time>
      </trkpt>
      <trkpt lat="47.71364" lon="2.2175953">
        <ele>171.0</ele>
        <time>2022-01-13T10:24:02Z</time>
      </trkpt>
      <trkpt lat="47.713627" lon="2.2175786">
        <ele>171.0</ele>
        <time>2022-01-13T10:24:03Z</time>
      </trkpt>
      <trkpt lat="47.71362" lon="2.2175696">
        <ele>171.0</ele>
        <time>2022-01-13T10:24:04Z</time>
      </trkpt>
      <trkpt lat="47.713608" lon="2.2175655">
        <ele>171.0</ele>
        <time>2022-01-13T10:24:05Z</time>
      </trkpt>
      <trkpt lat="47.713604" lon="2.2175593">
        <ele>170.0</ele>
        <time>2022-01-13T10:24:06Z</time>
      </trkpt>
      <trkpt lat="47.713596" lon="2.217549">
        <ele>170.0</ele>
        <time>2022-01-13T10:24:07Z</time>
      </trkpt>
      <trkpt lat="47.71359" lon="2.2175415">
        <ele>170.0</ele>
        <time>2022-01-13T10:24:08Z</time>
      </trkpt>
      <trkpt lat="47.71358" lon="2.2175317">
        <ele>169.0</ele>
        <time>2022-01-13T10:24:09Z</time>
      </trkpt>
      <trkpt lat="47.713577" lon="2.217519">
        <ele>169.0</ele>
        <time>2022-01-13T10:24:10Z</time>
      </trkpt>
      <trkpt lat="47.713577" lon="2.2175064">
        <ele>169.0</ele>
        <time>2022-01-13T10:24:11Z</time>
      </trkpt>
      <trkpt lat="47.71358" lon="2.2174952">
        <ele>169.0</ele>
        <time>2022-01-13T10:24:12Z</time>
      </trkpt>
      <trkpt lat="47.71359" lon="2.2174783">
        <ele>168.0</ele>
        <time>2022-01-13T10:24:13Z</time>
      </trkpt>
      <trkpt lat="47.713596" lon="2.217461">
        <ele>168.0</ele>
        <time>2022-01-13T10:24:14Z</time>
      </trkpt>
      <trkpt lat="47.7136" lon="2.2174504">
        <ele>168.0</ele>
        <time>2022-01-13T10:24:15Z</time>
      </trkpt>
      <trkpt lat="47.713608" lon="2.2174425">
        <ele>168.0</ele>
        <time>2022-01-13T10:24:16Z</time>
      </trkpt>
      <trkpt lat="47.71361" lon="2.217436">
        <ele>168.0</ele>
        <time>2022-01-13T10:24:17Z</time>
      </trkpt>
      <trkpt lat="47.71362" lon="2.2174215">
        <ele>168.0</ele>
        <time>2022-01-13T10:24:18Z</time>
      </trkpt>
      <trkpt lat="47.713627" lon="2.2174103">
        <ele>167.0</ele>
        <time>2022-01-13T10:24:19Z</time>
      </trkpt>
      <trkpt lat="47.713634" lon="2.2173972">
        <ele>167.0</ele>
        <time>2022-01-13T10:24:20Z</time>
      </trkpt>
      <trkpt lat="47.71364" lon="2.2173786">
        <ele>167.0</ele>
        <time>2022-01-13T10:24:21Z</time>
      </trkpt>
      <trkpt lat="47.713646" lon="2.2173634">
        <ele>167.0</ele>
        <time>2022-01-13T10:24:22Z</time>
      </trkpt>
      <trkpt lat="47.71365" lon="2.217347">
        <ele>167.0</ele>
        <time>2022-01-13T10:24:23Z</time>
      </trkpt>
      <trkpt lat="47.713654" lon="2.2173283">
        <ele>166.0</ele>
        <time>2022-01-13T10:24:24Z</time>
      </trkpt>
      <trkpt lat="47.713657" lon="2.2173111">
        <ele>166.0</ele>
        <time>2022-01-13T10:24:25Z</time>
      </trkpt>
      <trkpt lat="47.713665" lon="2.217291">
        <ele>166.0</ele>
        <time>2022-01-13T10:24:26Z</time>
      </trkpt>
      <trkpt lat="47.713673" lon="2.217277">
        <ele>166.0</ele>
        <time>2022-01-13T10:24:27Z</time>
      </trkpt>
      <trkpt lat="47.713684" lon="2.2172616">
        <ele>166.0</ele>
        <time>2022-01-13T10:24:28Z</time>
      </trkpt>
      <trkpt lat="47.71369" lon="2.2172494">
        <ele>166.0</ele>
        <time>2022-01-13T10:24:29Z</time>
      </trkpt>
      <trkpt lat="47.713696" lon="2.2172391">
        <ele>166.0</ele>
        <time>2022-01-13T10:24:30Z</time>
      </trkpt>
      <trkpt lat="47.7137" lon="2.2172256">
        <ele>166.0</ele>
        <time>2022-01-13T10:24:31Z</time>
      </trkpt>
      <trkpt lat="47.713703" lon="2.2172074">
        <ele>166.0</ele>
        <time>2022-01-13T10:24:32Z</time>
      </trkpt>
      <trkpt lat="47.713703" lon="2.2171874">
        <ele>166.0</ele>
        <time>2022-01-13T10:24:33Z</time>
      </trkpt>
      <trkpt lat="47.713715" lon="2.2171743">
        <ele>165.0</ele>
        <time>2022-01-13T10:24:34Z</time>
      </trkpt>
      <trkpt lat="47.713722" lon="2.2171583">
        <ele>165.0</ele>
        <time>2022-01-13T10:24:35Z</time>
      </trkpt>
      <trkpt lat="47.71373" lon="2.2171474">
        <ele>166.0</ele>
        <time>2022-01-13T10:24:36Z</time>
      </trkpt>
      <trkpt lat="47.713737" lon="2.2171402">
        <ele>165.0</ele>
        <time>2022-01-13T10:24:37Z</time>
      </trkpt>
      <trkpt lat="47.71375" lon="2.217126">
        <ele>165.0</ele>
        <time>2022-01-13T10:24:38Z</time>
      </trkpt>
      <trkpt lat="47.713753" lon="2.2171106">
        <ele>165.0</ele>
        <time>2022-01-13T10:24:39Z</time>
      </trkpt>
      <trkpt lat="47.71376" lon="2.2170985">
        <ele>165.0</ele>
        <time>2022-01-13T10:24:40Z</time>
      </trkpt>
      <trkpt lat="47.713768" lon="2.2170854">
        <ele>165.0</ele>
        <time>2022-01-13T10:24:41Z</time>
      </trkpt>
      <trkpt lat="47.713776" lon="2.2170722">
        <ele>165.0</ele>
        <time>2022-01-13T10:24:42Z</time>
      </trkpt>
      <trkpt lat="47.713787" lon="2.217065">
        <ele>165.0</ele>
        <time>2022-01-13T10:24:43Z</time>
      </trkpt>
      <trkpt lat="47.71379" lon="2.2170496">
        <ele>165.0</ele>
        <time>2022-01-13T10:24:44Z</time>
      </trkpt>
      <trkpt lat="47.713795" lon="2.217035">
        <ele>165.0</ele>
        <time>2022-01-13T10:24:45Z</time>
      </trkpt>
      <trkpt lat="47.713802" lon="2.2170212">
        <ele>165.0</ele>
        <time>2022-01-13T10:24:46Z</time>
      </trkpt>
      <trkpt lat="47.71381" lon="2.217007">
        <ele>164.0</ele>
        <time>2022-01-13T10:24:47Z</time>
      </trkpt>
      <trkpt lat="47.71381" lon="2.2169964">
        <ele>164.0</ele>
        <time>2022-01-13T10:24:48Z</time>
      </trkpt>
      <trkpt lat="47.713814" lon="2.2169807">
        <ele>164.0</ele>
        <time>2022-01-13T10:24:49Z</time>
      </trkpt>
      <trkpt lat="47.713814" lon="2.2169628">
        <ele>164.0</ele>
        <time>2022-01-13T10:24:50Z</time>
      </trkpt>
      <trkpt lat="47.713814" lon="2.2169442">
        <ele>164.0</ele>
        <time>2022-01-13T10:24:51Z</time>
      </trkpt>
      <trkpt lat="47.713814" lon="2.2169442">
        <ele>164.0</ele>
        <time>2022-01-13T10:24:51Z</time>
      </trkpt>
      <trkpt lat="47.71382" lon="2.2169118">
        <ele>164.0</ele>
        <time>2022-01-13T10:24:53Z</time>
      </trkpt>
      <trkpt lat="47.71382" lon="2.2169118">
        <ele>164.0</ele>
        <time>2022-01-13T10:24:53Z</time>
      </trkpt>
      <trkpt lat="47.713825" lon="2.2168996">
        <ele>165.0</ele>
        <time>2022-01-13T10:24:54Z</time>
      </trkpt>
      <trkpt lat="47.713833" lon="2.2168808">
        <ele>164.0</ele>
        <time>2022-01-13T10:24:55Z</time>
      </trkpt>
      <trkpt lat="47.71384" lon="2.2168715">
        <ele>163.0</ele>
        <time>2022-01-13T10:24:56Z</time>
      </trkpt>
      <trkpt lat="47.71385" lon="2.2168634">
        <ele>163.0</ele>
        <time>2022-01-13T10:24:57Z</time>
      </trkpt>
      <trkpt lat="47.713856" lon="2.2168462">
        <ele>164.0</ele>
        <time>2022-01-13T10:24:59Z</time>
      </trkpt>
      <trkpt lat="47.713856" lon="2.2168462">
        <ele>164.0</ele>
        <time>2022-01-13T10:24:59Z</time>
      </trkpt>
      <trkpt lat="47.713863" lon="2.2168343">
        <ele>164.0</ele>
        <time>2022-01-13T10:25:00Z</time>
      </trkpt>
      <trkpt lat="47.713867" lon="2.2168236">
        <ele>164.0</ele>
        <time>2022-01-13T10:25:01Z</time>
      </trkpt>
      <trkpt lat="47.71387" lon="2.216812">
        <ele>164.0</ele>
        <time>2022-01-13T10:25:02Z</time>
      </trkpt>
      <trkpt lat="47.71388" lon="2.2167966">
        <ele>164.0</ele>
        <time>2022-01-13T10:25:03Z</time>
      </trkpt>
      <trkpt lat="47.713886" lon="2.2167847">
        <ele>163.0</ele>
        <time>2022-01-13T10:25:04Z</time>
      </trkpt>
      <trkpt lat="47.713894" lon="2.2167685">
        <ele>163.0</ele>
        <time>2022-01-13T10:25:05Z</time>
      </trkpt>
      <trkpt lat="47.7139" lon="2.2167528">
        <ele>163.0</ele>
        <time>2022-01-13T10:25:06Z</time>
      </trkpt>
      <trkpt lat="47.71392" lon="2.2167287">
        <ele>163.0</ele>
        <time>2022-01-13T10:25:08Z</time>
      </trkpt>
      <trkpt lat="47.71392" lon="2.2167287">
        <ele>163.0</ele>
        <time>2022-01-13T10:25:08Z</time>
      </trkpt>
      <trkpt lat="47.71393" lon="2.216714">
        <ele>163.0</ele>
        <time>2022-01-13T10:25:09Z</time>
      </trkpt>
      <trkpt lat="47.713936" lon="2.2167006">
        <ele>163.0</ele>
        <time>2022-01-13T10:25:10Z</time>
      </trkpt>
      <trkpt lat="47.71394" lon="2.2166886">
        <ele>163.0</ele>
        <time>2022-01-13T10:25:11Z</time>
      </trkpt>
      <trkpt lat="47.713947" lon="2.2166648">
        <ele>163.0</ele>
        <time>2022-01-13T10:25:12Z</time>
      </trkpt>
      <trkpt lat="47.71395" lon="2.2166455">
        <ele>163.0</ele>
        <time>2022-01-13T10:25:13Z</time>
      </trkpt>
      <trkpt lat="47.71396" lon="2.2166321">
        <ele>163.0</ele>
        <time>2022-01-13T10:25:14Z</time>
      </trkpt>
      <trkpt lat="47.713963" lon="2.216619">
        <ele>163.0</ele>
        <time>2022-01-13T10:25:15Z</time>
      </trkpt>
      <trkpt lat="47.71397" lon="2.216604">
        <ele>163.0</ele>
        <time>2022-01-13T10:25:16Z</time>
      </trkpt>
      <trkpt lat="47.713974" lon="2.2165833">
        <ele>163.0</ele>
        <time>2022-01-13T10:25:17Z</time>
      </trkpt>
      <trkpt lat="47.71398" lon="2.2165687">
        <ele>162.0</ele>
        <time>2022-01-13T10:25:18Z</time>
      </trkpt>
      <trkpt lat="47.71398" lon="2.216552">
        <ele>162.0</ele>
        <time>2022-01-13T10:25:19Z</time>
      </trkpt>
      <trkpt lat="47.713985" lon="2.2165382">
        <ele>162.0</ele>
        <time>2022-01-13T10:25:20Z</time>
      </trkpt>
      <trkpt lat="47.713993" lon="2.216528">
        <ele>161.0</ele>
        <time>2022-01-13T10:25:21Z</time>
      </trkpt>
      <trkpt lat="47.714" lon="2.2165089">
        <ele>161.0</ele>
        <time>2022-01-13T10:25:22Z</time>
      </trkpt>
      <trkpt lat="47.714016" lon="2.216477">
        <ele>161.0</ele>
        <time>2022-01-13T10:25:24Z</time>
      </trkpt>
      <trkpt lat="47.714016" lon="2.216477">
        <ele>161.0</ele>
        <time>2022-01-13T10:25:24Z</time>
      </trkpt>
      <trkpt lat="47.714024" lon="2.2164626">
        <ele>161.0</ele>
        <time>2022-01-13T10:25:25Z</time>
      </trkpt>
      <trkpt lat="47.71403" lon="2.2164488">
        <ele>160.0</ele>
        <time>2022-01-13T10:25:26Z</time>
      </trkpt>
      <trkpt lat="47.714043" lon="2.2164385">
        <ele>160.0</ele>
        <time>2022-01-13T10:25:27Z</time>
      </trkpt>
      <trkpt lat="47.714054" lon="2.2164261">
        <ele>161.0</ele>
        <time>2022-01-13T10:25:28Z</time>
      </trkpt>
      <trkpt lat="47.714058" lon="2.2164142">
        <ele>161.0</ele>
        <time>2022-01-13T10:25:29Z</time>
      </trkpt>
      <trkpt lat="47.71407" lon="2.2164044">
        <ele>161.0</ele>
        <time>2022-01-13T10:25:30Z</time>
      </trkpt>
      <trkpt lat="47.714077" lon="2.2163923">
        <ele>160.0</ele>
        <time>2022-01-13T10:25:31Z</time>
      </trkpt>
      <trkpt lat="47.71409" lon="2.2163775">
        <ele>160.0</ele>
        <time>2022-01-13T10:25:32Z</time>
      </trkpt>
      <trkpt lat="47.714104" lon="2.2163436">
        <ele>160.0</ele>
        <time>2022-01-13T10:25:34Z</time>
      </trkpt>
      <trkpt lat="47.714104" lon="2.2163436">
        <ele>160.0</ele>
        <time>2022-01-13T10:25:34Z</time>
      </trkpt>
      <trkpt lat="47.714115" lon="2.2163227">
        <ele>160.0</ele>
        <time>2022-01-13T10:25:35Z</time>
      </trkpt>
      <trkpt lat="47.71412" lon="2.2163057">
        <ele>160.0</ele>
        <time>2022-01-13T10:25:36Z</time>
      </trkpt>
      <trkpt lat="47.714127" lon="2.2162888">
        <ele>160.0</ele>
        <time>2022-01-13T10:25:37Z</time>
      </trkpt>
      <trkpt lat="47.714134" lon="2.2162735">
        <ele>160.0</ele>
        <time>2022-01-13T10:25:38Z</time>
      </trkpt>
      <trkpt lat="47.714138" lon="2.2162588">
        <ele>160.0</ele>
        <time>2022-01-13T10:25:39Z</time>
      </trkpt>
      <trkpt lat="47.714146" lon="2.216247">
        <ele>160.0</ele>
        <time>2022-01-13T10:25:40Z</time>
      </trkpt>
      <trkpt lat="47.71415" lon="2.2162328">
        <ele>160.0</ele>
        <time>2022-01-13T10:25:41Z</time>
      </trkpt>
      <trkpt lat="47.714157" lon="2.2162201">
        <ele>160.0</ele>
        <time>2022-01-13T10:25:42Z</time>
      </trkpt>
      <trkpt lat="47.714165" lon="2.2162085">
        <ele>160.0</ele>
        <time>2022-01-13T10:25:43Z</time>
      </trkpt>
      <trkpt lat="47.714172" lon="2.216198">
        <ele>161.0</ele>
        <time>2022-01-13T10:25:44Z</time>
      </trkpt>
      <trkpt lat="47.714195" lon="2.2161782">
        <ele>160.0</ele>
        <time>2022-01-13T10:25:46Z</time>
      </trkpt>
      <trkpt lat="47.714195" lon="2.2161782">
        <ele>160.0</ele>
        <time>2022-01-13T10:25:46Z</time>
      </trkpt>
      <trkpt lat="47.714203" lon="2.2161727">
        <ele>160.0</ele>
        <time>2022-01-13T10:25:47Z</time>
      </trkpt>
      <trkpt lat="47.714207" lon="2.216162">
        <ele>160.0</ele>
        <time>2022-01-13T10:25:48Z</time>
      </trkpt>
      <trkpt lat="47.714214" lon="2.216158">
        <ele>159.0</ele>
        <time>2022-01-13T10:25:50Z</time>
      </trkpt>
      <trkpt lat="47.714214" lon="2.216158">
        <ele>159.0</ele>
        <time>2022-01-13T10:25:50Z</time>
      </trkpt>
      <trkpt lat="47.71422" lon="2.2161586">
        <ele>159.0</ele>
        <time>2022-01-13T10:25:51Z</time>
      </trkpt>
      <trkpt lat="47.714226" lon="2.2161548">
        <ele>160.0</ele>
        <time>2022-01-13T10:25:53Z</time>
      </trkpt>
      <trkpt lat="47.714226" lon="2.2161548">
        <ele>160.0</ele>
        <time>2022-01-13T10:25:53Z</time>
      </trkpt>
      <trkpt lat="47.714226" lon="2.2161636">
        <ele>160.0</ele>
        <time>2022-01-13T10:25:54Z</time>
      </trkpt>
      <trkpt lat="47.71423" lon="2.2161791">
        <ele>160.0</ele>
        <time>2022-01-13T10:25:55Z</time>
      </trkpt>
      <trkpt lat="47.714233" lon="2.216181">
        <ele>160.0</ele>
        <time>2022-01-13T10:25:56Z</time>
      </trkpt>
      <trkpt lat="47.714233" lon="2.2161872">
        <ele>160.0</ele>
        <time>2022-01-13T10:25:57Z</time>
      </trkpt>
      <trkpt lat="47.714237" lon="2.216191">
        <ele>160.0</ele>
        <time>2022-01-13T10:25:58Z</time>
      </trkpt>
      <trkpt lat="47.714237" lon="2.2161999">
        <ele>160.0</ele>
        <time>2022-01-13T10:25:59Z</time>
      </trkpt>
      <trkpt lat="47.714233" lon="2.2162037">
        <ele>160.0</ele>
        <time>2022-01-13T10:26:00Z</time>
      </trkpt>
      <trkpt lat="47.714233" lon="2.2161973">
        <ele>161.0</ele>
        <time>2022-01-13T10:26:01Z</time>
      </trkpt>
      <trkpt lat="47.714233" lon="2.2161973">
        <ele>161.0</ele>
        <time>2022-01-13T10:26:01Z</time>
      </trkpt>
    </trkseg>
    <trkseg>
      <trkpt lat="47.714233" lon="2.2161973">
        <ele>161.0</ele>
        <time>2022-01-13T10:26:01Z</time>
      </trkpt>
      <trkpt lat="47.714222" lon="2.2161438">
        <ele>162.0</ele>
        <time>2022-01-13T10:26:29Z</time>
      </trkpt>
      <trkpt lat="47.71422" lon="2.2161148">
        <ele>161.0</ele>
        <time>2022-01-13T10:26:31Z</time>
      </trkpt>
      <trkpt lat="47.714226" lon="2.2160964">
        <ele>162.0</ele>
        <time>2022-01-13T10:26:32Z</time>
      </trkpt>
      <trkpt lat="47.714226" lon="2.2160964">
        <ele>162.0</ele>
        <time>2022-01-13T10:26:32Z</time>
      </trkpt>
      <trkpt lat="47.714226" lon="2.2160804">
        <ele>162.0</ele>
        <time>2022-01-13T10:26:33Z</time>
      </trkpt>
      <trkpt lat="47.714226" lon="2.2160692">
        <ele>162.0</ele>
        <time>2022-01-13T10:26:34Z</time>
      </trkpt>
      <trkpt lat="47.714222" lon="2.2160559">
        <ele>161.0</ele>
        <time>2022-01-13T10:26:35Z</time>
      </trkpt>
      <trkpt lat="47.714226" lon="2.2160432">
        <ele>161.0</ele>
        <time>2022-01-13T10:26:36Z</time>
      </trkpt>
      <trkpt lat="47.71422" lon="2.2160304">
        <ele>161.0</ele>
        <time>2022-01-13T10:26:37Z</time>
      </trkpt>
      <trkpt lat="47.71422" lon="2.216015">
        <ele>161.0</ele>
        <time>2022-01-13T10:26:38Z</time>
      </trkpt>
      <trkpt lat="47.71422" lon="2.2159998">
        <ele>162.0</ele>
        <time>2022-01-13T10:26:39Z</time>
      </trkpt>
      <trkpt lat="47.71421" lon="2.2159839">
        <ele>161.0</ele>
        <time>2022-01-13T10:26:40Z</time>
      </trkpt>
      <trkpt lat="47.714207" lon="2.2159526">
        <ele>161.0</ele>
        <time>2022-01-13T10:26:42Z</time>
      </trkpt>
      <trkpt lat="47.714207" lon="2.2159526">
        <ele>161.0</ele>
        <time>2022-01-13T10:26:42Z</time>
      </trkpt>
      <trkpt lat="47.714203" lon="2.2159393">
        <ele>161.0</ele>
        <time>2022-01-13T10:26:43Z</time>
      </trkpt>
      <trkpt lat="47.7142" lon="2.2159297">
        <ele>161.0</ele>
        <time>2022-01-13T10:26:44Z</time>
      </trkpt>
      <trkpt lat="47.71419" lon="2.2158952">
        <ele>161.0</ele>
        <time>2022-01-13T10:26:46Z</time>
      </trkpt>
      <trkpt lat="47.71419" lon="2.2158952">
        <ele>161.0</ele>
        <time>2022-01-13T10:26:46Z</time>
      </trkpt>
      <trkpt lat="47.71418" lon="2.2158637">
        <ele>161.0</ele>
        <time>2022-01-13T10:26:48Z</time>
      </trkpt>
      <trkpt lat="47.714176" lon="2.2158656">
        <ele>161.0</ele>
        <time>2022-01-13T10:26:49Z</time>
      </trkpt>
      <trkpt lat="47.71418" lon="2.2158647">
        <ele>162.0</ele>
        <time>2022-01-13T10:26:50Z</time>
      </trkpt>
      <trkpt lat="47.71418" lon="2.2158647">
        <ele>162.0</ele>
        <time>2022-01-13T10:26:50Z</time>
      </trkpt>
      <trkpt lat="47.71418" lon="2.2158647">
        <ele>162.0</ele>
        <time>2022-01-13T10:26:51Z</time>
      </trkpt>
      <trkpt lat="47.71418" lon="2.2158647">
        <ele>162.0</ele>
        <time>2022-01-13T10:26:52Z</time>
      </trkpt>
      <trkpt lat="47.71418" lon="2.2158647">
        <ele>162.0</ele>
        <time>2022-01-13T10:26:52Z</time>
      </trkpt>
    </trkseg>
    <trkseg>
      <trkpt lat="47.71418" lon="2.2158647">
        <ele>162.0</ele>
        <time>2022-01-13T10:26:52Z</time>
      </trkpt>
      <trkpt lat="47.714138" lon="2.215784">
        <ele>163.0</ele>
        <time>2022-01-13T10:26:58Z</time>
      </trkpt>
      <trkpt lat="47.714138" lon="2.215784">
        <ele>163.0</ele>
        <time>2022-01-13T10:26:58Z</time>
      </trkpt>
      <trkpt lat="47.714127" lon="2.2157738">
        <ele>163.0</ele>
        <time>2022-01-13T10:26:59Z</time>
      </trkpt>
      <trkpt lat="47.71412" lon="2.2157648">
        <ele>163.0</ele>
        <time>2022-01-13T10:27:00Z</time>
      </trkpt>
      <trkpt lat="47.71411" lon="2.2157595">
        <ele>163.0</ele>
        <time>2022-01-13T10:27:01Z</time>
      </trkpt>
      <trkpt lat="47.714104" lon="2.2157514">
        <ele>163.0</ele>
        <time>2022-01-13T10:27:03Z</time>
      </trkpt>
      <trkpt lat="47.714104" lon="2.2157514">
        <ele>163.0</ele>
        <time>2022-01-13T10:27:03Z</time>
      </trkpt>
      <trkpt lat="47.71409" lon="2.2157145">
        <ele>162.0</ele>
        <time>2022-01-13T10:27:05Z</time>
      </trkpt>
      <trkpt lat="47.71408" lon="2.215703">
        <ele>162.0</ele>
        <time>2022-01-13T10:27:06Z</time>
      </trkpt>
      <trkpt lat="47.71408" lon="2.215703">
        <ele>162.0</ele>
        <time>2022-01-13T10:27:06Z</time>
      </trkpt>
      <trkpt lat="47.714073" lon="2.2156892">
        <ele>162.0</ele>
        <time>2022-01-13T10:27:07Z</time>
      </trkpt>
      <trkpt lat="47.71407" lon="2.2156582">
        <ele>162.0</ele>
        <time>2022-01-13T10:27:09Z</time>
      </trkpt>
      <trkpt lat="47.71407" lon="2.2156582">
        <ele>162.0</ele>
        <time>2022-01-13T10:27:09Z</time>
      </trkpt>
      <trkpt lat="47.71406" lon="2.2156425">
        <ele>162.0</ele>
        <time>2022-01-13T10:27:10Z</time>
      </trkpt>
      <trkpt lat="47.71405" lon="2.2156236">
        <ele>162.0</ele>
        <time>2022-01-13T10:27:11Z</time>
      </trkpt>
      <trkpt lat="47.71405" lon="2.215606">
        <ele>163.0</ele>
        <time>2022-01-13T10:27:12Z</time>
      </trkpt>
      <trkpt lat="47.714043" lon="2.2155883">
        <ele>163.0</ele>
        <time>2022-01-13T10:27:13Z</time>
      </trkpt>
      <trkpt lat="47.714035" lon="2.2155678">
        <ele>163.0</ele>
        <time>2022-01-13T10:27:14Z</time>
      </trkpt>
      <trkpt lat="47.714027" lon="2.2155461">
        <ele>163.0</ele>
        <time>2022-01-13T10:27:15Z</time>
      </trkpt>
      <trkpt lat="47.714016" lon="2.2155235">
        <ele>163.0</ele>
        <time>2022-01-13T10:27:16Z</time>
      </trkpt>
      <trkpt lat="47.71401" lon="2.2155097">
        <ele>163.0</ele>
        <time>2022-01-13T10:27:17Z</time>
      </trkpt>
      <trkpt lat="47.713997" lon="2.2154918">
        <ele>163.0</ele>
        <time>2022-01-13T10:27:18Z</time>
      </trkpt>
      <trkpt lat="47.713993" lon="2.2154694">
        <ele>163.0</ele>
        <time>2022-01-13T10:27:19Z</time>
      </trkpt>
      <trkpt lat="47.713993" lon="2.2154493">
        <ele>163.0</ele>
        <time>2022-01-13T10:27:20Z</time>
      </trkpt>
      <trkpt lat="47.713985" lon="2.2154331">
        <ele>163.0</ele>
        <time>2022-01-13T10:27:21Z</time>
      </trkpt>
      <trkpt lat="47.713966" lon="2.215384">
        <ele>163.0</ele>
        <time>2022-01-13T10:27:23Z</time>
      </trkpt>
      <trkpt lat="47.71395" lon="2.215357">
        <ele>163.0</ele>
        <time>2022-01-13T10:27:24Z</time>
      </trkpt>
      <trkpt lat="47.71393" lon="2.2153232">
        <ele>164.0</ele>
        <time>2022-01-13T10:27:25Z</time>
      </trkpt>
      <trkpt lat="47.713917" lon="2.2153077">
        <ele>165.0</ele>
        <time>2022-01-13T10:27:26Z</time>
      </trkpt>
      <trkpt lat="47.7139" lon="2.215281">
        <ele>166.0</ele>
        <time>2022-01-13T10:27:27Z</time>
      </trkpt>
      <trkpt lat="47.713894" lon="2.2152684">
        <ele>165.0</ele>
        <time>2022-01-13T10:27:28Z</time>
      </trkpt>
      <trkpt lat="47.71389" lon="2.215257">
        <ele>166.0</ele>
        <time>2022-01-13T10:27:29Z</time>
      </trkpt>
      <trkpt lat="47.71389" lon="2.215257">
        <ele>166.0</ele>
        <time>2022-01-13T10:27:29Z</time>
      </trkpt>
      <trkpt lat="47.71388" lon="2.2152233">
        <ele>166.0</ele>
        <time>2022-01-13T10:27:31Z</time>
      </trkpt>
      <trkpt lat="47.71387" lon="2.2152033">
        <ele>167.0</ele>
        <time>2022-01-13T10:27:32Z</time>
      </trkpt>
      <trkpt lat="47.713863" lon="2.215191">
        <ele>167.0</ele>
        <time>2022-01-13T10:27:33Z</time>
      </trkpt>
      <trkpt lat="47.713863" lon="2.215178">
        <ele>167.0</ele>
        <time>2022-01-13T10:27:34Z</time>
      </trkpt>
      <trkpt lat="47.713863" lon="2.215178">
        <ele>167.0</ele>
        <time>2022-01-13T10:27:34Z</time>
      </trkpt>
      <trkpt lat="47.713852" lon="2.2151594">
        <ele>167.0</ele>
        <time>2022-01-13T10:27:35Z</time>
      </trkpt>
      <trkpt lat="47.71384" lon="2.2151465">
        <ele>168.0</ele>
        <time>2022-01-13T10:27:36Z</time>
      </trkpt>
      <trkpt lat="47.71383" lon="2.2151175">
        <ele>168.0</ele>
        <time>2022-01-13T10:27:38Z</time>
      </trkpt>
      <trkpt lat="47.71383" lon="2.2151175">
        <ele>168.0</ele>
        <time>2022-01-13T10:27:38Z</time>
      </trkpt>
      <trkpt lat="47.713818" lon="2.2150996">
        <ele>169.0</ele>
        <time>2022-01-13T10:27:40Z</time>
      </trkpt>
      <trkpt lat="47.713814" lon="2.2150934">
        <ele>170.0</ele>
        <time>2022-01-13T10:27:41Z</time>
      </trkpt>
      <trkpt lat="47.713806" lon="2.2150989">
        <ele>170.0</ele>
        <time>2022-01-13T10:27:42Z</time>
      </trkpt>
      <trkpt lat="47.713806" lon="2.2151017">
        <ele>170.0</ele>
        <time>2022-01-13T10:27:43Z</time>
      </trkpt>
      <trkpt lat="47.713802" lon="2.2150898">
        <ele>170.0</ele>
        <time>2022-01-13T10:27:44Z</time>
      </trkpt>
      <trkpt lat="47.713802" lon="2.2150898">
        <ele>170.0</ele>
        <time>2022-01-13T10:27:44Z</time>
      </trkpt>
      <trkpt lat="47.71379" lon="2.2150664">
        <ele>169.0</ele>
        <time>2022-01-13T10:27:46Z</time>
      </trkpt>
      <trkpt lat="47.713783" lon="2.2150517">
        <ele>170.0</ele>
        <time>2022-01-13T10:27:47Z</time>
      </trkpt>
      <trkpt lat="47.713776" lon="2.2150347">
        <ele>170.0</ele>
        <time>2022-01-13T10:27:48Z</time>
      </trkpt>
      <trkpt lat="47.713764" lon="2.2150195">
        <ele>170.0</ele>
        <time>2022-01-13T10:27:49Z</time>
      </trkpt>
      <trkpt lat="47.713757" lon="2.2150059">
        <ele>170.0</ele>
        <time>2022-01-13T10:27:50Z</time>
      </trkpt>
      <trkpt lat="47.713757" lon="2.2150059">
        <ele>170.0</ele>
        <time>2022-01-13T10:27:50Z</time>
      </trkpt>
      <trkpt lat="47.71374" lon="2.2149866">
        <ele>172.0</ele>
        <time>2022-01-13T10:27:52Z</time>
      </trkpt>
      <trkpt lat="47.71374" lon="2.2149734">
        <ele>172.0</ele>
        <time>2022-01-13T10:27:53Z</time>
      </trkpt>
      <trkpt lat="47.71373" lon="2.2149577">
        <ele>172.0</ele>
        <time>2022-01-13T10:27:54Z</time>
      </trkpt>
      <trkpt lat="47.71372" lon="2.2149458">
        <ele>172.0</ele>
        <time>2022-01-13T10:27:55Z</time>
      </trkpt>
      <trkpt lat="47.71371" lon="2.2149303">
        <ele>173.0</ele>
        <time>2022-01-13T10:27:56Z</time>
      </trkpt>
      <trkpt lat="47.713703" lon="2.2149262">
        <ele>173.0</ele>
        <time>2022-01-13T10:27:57Z</time>
      </trkpt>
      <trkpt lat="47.71369" lon="2.2149172">
        <ele>172.0</ele>
        <time>2022-01-13T10:27:58Z</time>
      </trkpt>
      <trkpt lat="47.713684" lon="2.2149131">
        <ele>172.0</ele>
        <time>2022-01-13T10:27:59Z</time>
      </trkpt>
      <trkpt lat="47.71368" lon="2.214912">
        <ele>173.0</ele>
        <time>2022-01-13T10:28:00Z</time>
      </trkpt>
      <trkpt lat="47.71368" lon="2.214912">
        <ele>173.0</ele>
        <time>2022-01-13T10:28:00Z</time>
      </trkpt>
      <trkpt lat="47.71368" lon="2.2149007">
        <ele>172.0</ele>
        <time>2022-01-13T10:28:02Z</time>
      </trkpt>
      <trkpt lat="47.713676" lon="2.2148824">
        <ele>172.0</ele>
        <time>2022-01-13T10:28:03Z</time>
      </trkpt>
      <trkpt lat="47.713673" lon="2.2148612">
        <ele>171.0</ele>
        <time>2022-01-13T10:28:04Z</time>
      </trkpt>
      <trkpt lat="47.713673" lon="2.2148612">
        <ele>171.0</ele>
        <time>2022-01-13T10:28:04Z</time>
      </trkpt>
      <trkpt lat="47.713654" lon="2.2148278">
        <ele>171.0</ele>
        <time>2022-01-13T10:28:06Z</time>
      </trkpt>
      <trkpt lat="47.71365" lon="2.2148113">
        <ele>172.0</ele>
        <time>2022-01-13T10:28:07Z</time>
      </trkpt>
      <trkpt lat="47.713642" lon="2.2147987">
        <ele>172.0</ele>
        <time>2022-01-13T10:28:08Z</time>
      </trkpt>
      <trkpt lat="47.713634" lon="2.2147875">
        <ele>171.0</ele>
        <time>2022-01-13T10:28:09Z</time>
      </trkpt>
      <trkpt lat="47.713627" lon="2.214773">
        <ele>171.0</ele>
        <time>2022-01-13T10:28:10Z</time>
      </trkpt>
      <trkpt lat="47.71362" lon="2.2147608">
        <ele>172.0</ele>
        <time>2022-01-13T10:28:11Z</time>
      </trkpt>
      <trkpt lat="47.713615" lon="2.214747">
        <ele>172.0</ele>
        <time>2022-01-13T10:28:12Z</time>
      </trkpt>
      <trkpt lat="47.713608" lon="2.2147408">
        <ele>172.0</ele>
        <time>2022-01-13T10:28:13Z</time>
      </trkpt>
      <trkpt lat="47.7136" lon="2.2147279">
        <ele>172.0</ele>
        <time>2022-01-13T10:28:14Z</time>
      </trkpt>
      <trkpt lat="47.713593" lon="2.214716">
        <ele>172.0</ele>
        <time>2022-01-13T10:28:15Z</time>
      </trkpt>
      <trkpt lat="47.713585" lon="2.2147012">
        <ele>172.0</ele>
        <time>2022-01-13T10:28:16Z</time>
      </trkpt>
      <trkpt lat="47.713573" lon="2.2146785">
        <ele>172.0</ele>
        <time>2022-01-13T10:28:17Z</time>
      </trkpt>
      <trkpt lat="47.713573" lon="2.2146785">
        <ele>172.0</ele>
        <time>2022-01-13T10:28:17Z</time>
      </trkpt>
      <trkpt lat="47.71355" lon="2.214634">
        <ele>171.0</ele>
        <time>2022-01-13T10:28:19Z</time>
      </trkpt>
      <trkpt lat="47.713528" lon="2.2145941">
        <ele>170.0</ele>
        <time>2022-01-13T10:28:21Z</time>
      </trkpt>
      <trkpt lat="47.71352" lon="2.2145762">
        <ele>171.0</ele>
        <time>2022-01-13T10:28:22Z</time>
      </trkpt>
      <trkpt lat="47.71351" lon="2.2145543">
        <ele>170.0</ele>
        <time>2022-01-13T10:28:23Z</time>
      </trkpt>
      <trkpt lat="47.7135" lon="2.2145345">
        <ele>169.0</ele>
        <time>2022-01-13T10:28:24Z</time>
      </trkpt>
      <trkpt lat="47.713497" lon="2.2145143">
        <ele>169.0</ele>
        <time>2022-01-13T10:28:25Z</time>
      </trkpt>
      <trkpt lat="47.71349" lon="2.2144964">
        <ele>169.0</ele>
        <time>2022-01-13T10:28:26Z</time>
      </trkpt>
      <trkpt lat="47.71348" lon="2.2144785">
        <ele>170.0</ele>
        <time>2022-01-13T10:28:27Z</time>
      </trkpt>
      <trkpt lat="47.713478" lon="2.2144585">
        <ele>170.0</ele>
        <time>2022-01-13T10:28:28Z</time>
      </trkpt>
      <trkpt lat="47.713474" lon="2.2144296">
        <ele>170.0</ele>
        <time>2022-01-13T10:28:29Z</time>
      </trkpt>
      <trkpt lat="47.71347" lon="2.2144036">
        <ele>170.0</ele>
        <time>2022-01-13T10:28:30Z</time>
      </trkpt>
      <trkpt lat="47.71347" lon="2.2144036">
        <ele>170.0</ele>
        <time>2022-01-13T10:28:30Z</time>
      </trkpt>
      <trkpt lat="47.71347" lon="2.214365">
        <ele>170.0</ele>
        <time>2022-01-13T10:28:32Z</time>
      </trkpt>
      <trkpt lat="47.71347" lon="2.2143478">
        <ele>170.0</ele>
        <time>2022-01-13T10:28:33Z</time>
      </trkpt>
      <trkpt lat="47.71347" lon="2.2143323">
        <ele>171.0</ele>
        <time>2022-01-13T10:28:34Z</time>
      </trkpt>
      <trkpt lat="47.713467" lon="2.2143276">
        <ele>171.0</ele>
        <time>2022-01-13T10:28:35Z</time>
      </trkpt>
      <trkpt lat="47.713463" lon="2.2143252">
        <ele>171.0</ele>
        <time>2022-01-13T10:28:36Z</time>
      </trkpt>
      <trkpt lat="47.71346" lon="2.2143216">
        <ele>171.0</ele>
        <time>2022-01-13T10:28:37Z</time>
      </trkpt>
      <trkpt lat="47.71346" lon="2.2143216">
        <ele>171.0</ele>
        <time>2022-01-13T10:28:37Z</time>
      </trkpt>
      <trkpt lat="47.713455" lon="2.214312">
        <ele>171.0</ele>
        <time>2022-01-13T10:28:39Z</time>
      </trkpt>
      <trkpt lat="47.713448" lon="2.2142901">
        <ele>170.0</ele>
        <time>2022-01-13T10:28:40Z</time>
      </trkpt>
      <trkpt lat="47.713444" lon="2.2142735">
        <ele>171.0</ele>
        <time>2022-01-13T10:28:41Z</time>
      </trkpt>
      <trkpt lat="47.713436" lon="2.2142565">
        <ele>171.0</ele>
        <time>2022-01-13T10:28:42Z</time>
      </trkpt>
      <trkpt lat="47.713432" lon="2.2142422">
        <ele>171.0</ele>
        <time>2022-01-13T10:28:43Z</time>
      </trkpt>
      <trkpt lat="47.71343" lon="2.2142258">
        <ele>171.0</ele>
        <time>2022-01-13T10:28:44Z</time>
      </trkpt>
      <trkpt lat="47.71343" lon="2.2142065">
        <ele>171.0</ele>
        <time>2022-01-13T10:28:45Z</time>
      </trkpt>
      <trkpt lat="47.71343" lon="2.2141893">
        <ele>171.0</ele>
        <time>2022-01-13T10:28:46Z</time>
      </trkpt>
      <trkpt lat="47.713425" lon="2.2141683">
        <ele>170.0</ele>
        <time>2022-01-13T10:28:47Z</time>
      </trkpt>
      <trkpt lat="47.71342" lon="2.2141476">
        <ele>170.0</ele>
        <time>2022-01-13T10:28:48Z</time>
      </trkpt>
      <trkpt lat="47.71342" lon="2.2141476">
        <ele>170.0</ele>
        <time>2022-01-13T10:28:48Z</time>
      </trkpt>
      <trkpt lat="47.713417" lon="2.2141051">
        <ele>170.0</ele>
        <time>2022-01-13T10:28:50Z</time>
      </trkpt>
      <trkpt lat="47.713417" lon="2.2140841">
        <ele>170.0</ele>
        <time>2022-01-13T10:28:51Z</time>
      </trkpt>
      <trkpt lat="47.713413" lon="2.2140667">
        <ele>170.0</ele>
        <time>2022-01-13T10:28:52Z</time>
      </trkpt>
      <trkpt lat="47.7134" lon="2.2140498">
        <ele>171.0</ele>
        <time>2022-01-13T10:28:53Z</time>
      </trkpt>
      <trkpt lat="47.713398" lon="2.2140298">
        <ele>171.0</ele>
        <time>2022-01-13T10:28:54Z</time>
      </trkpt>
      <trkpt lat="47.713398" lon="2.2140298">
        <ele>171.0</ele>
        <time>2022-01-13T10:28:54Z</time>
      </trkpt>
      <trkpt lat="47.713398" lon="2.2140183">
        <ele>171.0</ele>
        <time>2022-01-13T10:28:55Z</time>
      </trkpt>
      <trkpt lat="47.713398" lon="2.2140028">
        <ele>170.0</ele>
        <time>2022-01-13T10:28:56Z</time>
      </trkpt>
      <trkpt lat="47.713394" lon="2.2139926">
        <ele>170.0</ele>
        <time>2022-01-13T10:28:57Z</time>
      </trkpt>
      <trkpt lat="47.71339" lon="2.2139874">
        <ele>171.0</ele>
        <time>2022-01-13T10:28:58Z</time>
      </trkpt>
      <trkpt lat="47.71339" lon="2.2139797">
        <ele>170.0</ele>
        <time>2022-01-13T10:28:59Z</time>
      </trkpt>
      <trkpt lat="47.713387" lon="2.213966">
        <ele>171.0</ele>
        <time>2022-01-13T10:29:00Z</time>
      </trkpt>
      <trkpt lat="47.713383" lon="2.2139556">
        <ele>171.0</ele>
        <time>2022-01-13T10:29:01Z</time>
      </trkpt>
      <trkpt lat="47.71338" lon="2.2139444">
        <ele>171.0</ele>
        <time>2022-01-13T10:29:02Z</time>
      </trkpt>
      <trkpt lat="47.713375" lon="2.2139335">
        <ele>171.0</ele>
        <time>2022-01-13T10:29:03Z</time>
      </trkpt>
      <trkpt lat="47.71337" lon="2.2139208">
        <ele>171.0</ele>
        <time>2022-01-13T10:29:04Z</time>
      </trkpt>
      <trkpt lat="47.713364" lon="2.2139082">
        <ele>171.0</ele>
        <time>2022-01-13T10:29:05Z</time>
      </trkpt>
      <trkpt lat="47.71336" lon="2.213896">
        <ele>171.0</ele>
        <time>2022-01-13T10:29:06Z</time>
      </trkpt>
      <trkpt lat="47.713356" lon="2.2138867">
        <ele>171.0</ele>
        <time>2022-01-13T10:29:07Z</time>
      </trkpt>
      <trkpt lat="47.713352" lon="2.2138703">
        <ele>171.0</ele>
        <time>2022-01-13T10:29:08Z</time>
      </trkpt>
      <trkpt lat="47.71335" lon="2.2138596">
        <ele>171.0</ele>
        <time>2022-01-13T10:29:09Z</time>
      </trkpt>
      <trkpt lat="47.713345" lon="2.2138457">
        <ele>171.0</ele>
        <time>2022-01-13T10:29:10Z</time>
      </trkpt>
      <trkpt lat="47.71334" lon="2.213828">
        <ele>171.0</ele>
        <time>2022-01-13T10:29:11Z</time>
      </trkpt>
      <trkpt lat="47.713333" lon="2.213811">
        <ele>172.0</ele>
        <time>2022-01-13T10:29:12Z</time>
      </trkpt>
      <trkpt lat="47.71333" lon="2.213802">
        <ele>172.0</ele>
        <time>2022-01-13T10:29:13Z</time>
      </trkpt>
      <trkpt lat="47.713326" lon="2.213787">
        <ele>172.0</ele>
        <time>2022-01-13T10:29:14Z</time>
      </trkpt>
      <trkpt lat="47.71332" lon="2.2137759">
        <ele>171.0</ele>
        <time>2022-01-13T10:29:15Z</time>
      </trkpt>
      <trkpt lat="47.713318" lon="2.2137601">
        <ele>171.0</ele>
        <time>2022-01-13T10:29:16Z</time>
      </trkpt>
      <trkpt lat="47.713314" lon="2.2137432">
        <ele>171.0</ele>
        <time>2022-01-13T10:29:17Z</time>
      </trkpt>
      <trkpt lat="47.713314" lon="2.213727">
        <ele>171.0</ele>
        <time>2022-01-13T10:29:18Z</time>
      </trkpt>
      <trkpt lat="47.713314" lon="2.2137177">
        <ele>171.0</ele>
        <time>2022-01-13T10:29:19Z</time>
      </trkpt>
      <trkpt lat="47.713314" lon="2.2137058">
        <ele>171.0</ele>
        <time>2022-01-13T10:29:20Z</time>
      </trkpt>
      <trkpt lat="47.71331" lon="2.2136905">
        <ele>170.0</ele>
        <time>2022-01-13T10:29:21Z</time>
      </trkpt>
      <trkpt lat="47.713306" lon="2.213682">
        <ele>170.0</ele>
        <time>2022-01-13T10:29:22Z</time>
      </trkpt>
      <trkpt lat="47.713306" lon="2.2136703">
        <ele>170.0</ele>
        <time>2022-01-13T10:29:23Z</time>
      </trkpt>
      <trkpt lat="47.713303" lon="2.213657">
        <ele>169.0</ele>
        <time>2022-01-13T10:29:24Z</time>
      </trkpt>
      <trkpt lat="47.7133" lon="2.2136369">
        <ele>169.0</ele>
        <time>2022-01-13T10:29:25Z</time>
      </trkpt>
      <trkpt lat="47.713295" lon="2.2136192">
        <ele>169.0</ele>
        <time>2022-01-13T10:29:26Z</time>
      </trkpt>
      <trkpt lat="47.71329" lon="2.213602">
        <ele>168.0</ele>
        <time>2022-01-13T10:29:27Z</time>
      </trkpt>
      <trkpt lat="47.713287" lon="2.2135892">
        <ele>168.0</ele>
        <time>2022-01-13T10:29:28Z</time>
      </trkpt>
      <trkpt lat="47.713287" lon="2.2135744">
        <ele>168.0</ele>
        <time>2022-01-13T10:29:29Z</time>
      </trkpt>
      <trkpt lat="47.713287" lon="2.213561">
        <ele>169.0</ele>
        <time>2022-01-13T10:29:30Z</time>
      </trkpt>
      <trkpt lat="47.713287" lon="2.2135515">
        <ele>170.0</ele>
        <time>2022-01-13T10:29:31Z</time>
      </trkpt>
      <trkpt lat="47.713287" lon="2.213539">
        <ele>170.0</ele>
        <time>2022-01-13T10:29:32Z</time>
      </trkpt>
      <trkpt lat="47.713284" lon="2.2135243">
        <ele>170.0</ele>
        <time>2022-01-13T10:29:33Z</time>
      </trkpt>
      <trkpt lat="47.71328" lon="2.2135077">
        <ele>170.0</ele>
        <time>2022-01-13T10:29:34Z</time>
      </trkpt>
      <trkpt lat="47.713276" lon="2.2134926">
        <ele>171.0</ele>
        <time>2022-01-13T10:29:35Z</time>
      </trkpt>
      <trkpt lat="47.713276" lon="2.2134793">
        <ele>171.0</ele>
        <time>2022-01-13T10:29:36Z</time>
      </trkpt>
      <trkpt lat="47.713276" lon="2.213465">
        <ele>171.0</ele>
        <time>2022-01-13T10:29:37Z</time>
      </trkpt>
      <trkpt lat="47.713272" lon="2.21345">
        <ele>171.0</ele>
        <time>2022-01-13T10:29:38Z</time>
      </trkpt>
      <trkpt lat="47.71327" lon="2.2134361">
        <ele>172.0</ele>
        <time>2022-01-13T10:29:39Z</time>
      </trkpt>
      <trkpt lat="47.71327" lon="2.2134228">
        <ele>172.0</ele>
        <time>2022-01-13T10:29:40Z</time>
      </trkpt>
      <trkpt lat="47.71327" lon="2.2134132">
        <ele>172.0</ele>
        <time>2022-01-13T10:29:41Z</time>
      </trkpt>
      <trkpt lat="47.713264" lon="2.2133973">
        <ele>172.0</ele>
        <time>2022-01-13T10:29:42Z</time>
      </trkpt>
      <trkpt lat="47.71326" lon="2.2133794">
        <ele>172.0</ele>
        <time>2022-01-13T10:29:43Z</time>
      </trkpt>
      <trkpt lat="47.713257" lon="2.2133636">
        <ele>172.0</ele>
        <time>2022-01-13T10:29:44Z</time>
      </trkpt>
      <trkpt lat="47.713253" lon="2.213347">
        <ele>172.0</ele>
        <time>2022-01-13T10:29:45Z</time>
      </trkpt>
      <trkpt lat="47.71325" lon="2.2133327">
        <ele>172.0</ele>
        <time>2022-01-13T10:29:46Z</time>
      </trkpt>
      <trkpt lat="47.71324" lon="2.2133229">
        <ele>172.0</ele>
        <time>2022-01-13T10:29:47Z</time>
      </trkpt>
      <trkpt lat="47.71324" lon="2.2133052">
        <ele>172.0</ele>
        <time>2022-01-13T10:29:48Z</time>
      </trkpt>
      <trkpt lat="47.713238" lon="2.2132907">
        <ele>172.0</ele>
        <time>2022-01-13T10:29:49Z</time>
      </trkpt>
      <trkpt lat="47.713238" lon="2.2132716">
        <ele>172.0</ele>
        <time>2022-01-13T10:29:50Z</time>
      </trkpt>
      <trkpt lat="47.713234" lon="2.2132578">
        <ele>172.0</ele>
        <time>2022-01-13T10:29:51Z</time>
      </trkpt>
      <trkpt lat="47.713234" lon="2.2132454">
        <ele>172.0</ele>
        <time>2022-01-13T10:29:52Z</time>
      </trkpt>
      <trkpt lat="47.71323" lon="2.2132256">
        <ele>172.0</ele>
        <time>2022-01-13T10:29:53Z</time>
      </trkpt>
      <trkpt lat="47.713234" lon="2.2132077">
        <ele>172.0</ele>
        <time>2022-01-13T10:29:54Z</time>
      </trkpt>
      <trkpt lat="47.713238" lon="2.2131886">
        <ele>172.0</ele>
        <time>2022-01-13T10:29:55Z</time>
      </trkpt>
      <trkpt lat="47.713238" lon="2.21318">
        <ele>172.0</ele>
        <time>2022-01-13T10:29:56Z</time>
      </trkpt>
      <trkpt lat="47.713234" lon="2.2131705">
        <ele>172.0</ele>
        <time>2022-01-13T10:29:57Z</time>
      </trkpt>
      <trkpt lat="47.713226" lon="2.2131622">
        <ele>172.0</ele>
        <time>2022-01-13T10:29:58Z</time>
      </trkpt>
      <trkpt lat="47.713223" lon="2.21315">
        <ele>172.0</ele>
        <time>2022-01-13T10:29:59Z</time>
      </trkpt>
      <trkpt lat="47.71321" lon="2.213141">
        <ele>172.0</ele>
        <time>2022-01-13T10:30:00Z</time>
      </trkpt>
      <trkpt lat="47.713203" lon="2.213143">
        <ele>172.0</ele>
        <time>2022-01-13T10:30:01Z</time>
      </trkpt>
      <trkpt lat="47.713203" lon="2.213134">
        <ele>171.0</ele>
        <time>2022-01-13T10:30:02Z</time>
      </trkpt>
      <trkpt lat="47.713196" lon="2.2131217">
        <ele>171.0</ele>
        <time>2022-01-13T10:30:03Z</time>
      </trkpt>
      <trkpt lat="47.713192" lon="2.213105">
        <ele>170.0</ele>
        <time>2022-01-13T10:30:04Z</time>
      </trkpt>
      <trkpt lat="47.713192" lon="2.2130961">
        <ele>171.0</ele>
        <time>2022-01-13T10:30:05Z</time>
      </trkpt>
      <trkpt lat="47.713184" lon="2.213088">
        <ele>171.0</ele>
        <time>2022-01-13T10:30:06Z</time>
      </trkpt>
      <trkpt lat="47.71318" lon="2.2130668">
        <ele>171.0</ele>
        <time>2022-01-13T10:30:07Z</time>
      </trkpt>
      <trkpt lat="47.713177" lon="2.213053">
        <ele>170.0</ele>
        <time>2022-01-13T10:30:08Z</time>
      </trkpt>
      <trkpt lat="47.71317" lon="2.213033">
        <ele>170.0</ele>
        <time>2022-01-13T10:30:09Z</time>
      </trkpt>
      <trkpt lat="47.71316" lon="2.2130196">
        <ele>170.0</ele>
        <time>2022-01-13T10:30:10Z</time>
      </trkpt>
      <trkpt lat="47.713146" lon="2.2129989">
        <ele>171.0</ele>
        <time>2022-01-13T10:30:11Z</time>
      </trkpt>
      <trkpt lat="47.71314" lon="2.2129824">
        <ele>171.0</ele>
        <time>2022-01-13T10:30:12Z</time>
      </trkpt>
      <trkpt lat="47.713127" lon="2.2129726">
        <ele>171.0</ele>
        <time>2022-01-13T10:30:13Z</time>
      </trkpt>
      <trkpt lat="47.713116" lon="2.2129574">
        <ele>171.0</ele>
        <time>2022-01-13T10:30:14Z</time>
      </trkpt>
      <trkpt lat="47.71311" lon="2.2129412">
        <ele>171.0</ele>
        <time>2022-01-13T10:30:15Z</time>
      </trkpt>
      <trkpt lat="47.713108" lon="2.2129276">
        <ele>171.0</ele>
        <time>2022-01-13T10:30:16Z</time>
      </trkpt>
      <trkpt lat="47.713104" lon="2.21292">
        <ele>171.0</ele>
        <time>2022-01-13T10:30:17Z</time>
      </trkpt>
      <trkpt lat="47.713097" lon="2.2129085">
        <ele>170.0</ele>
        <time>2022-01-13T10:30:18Z</time>
      </trkpt>
      <trkpt lat="47.713085" lon="2.2129018">
        <ele>169.0</ele>
        <time>2022-01-13T10:30:19Z</time>
      </trkpt>
      <trkpt lat="47.713078" lon="2.212898">
        <ele>169.0</ele>
        <time>2022-01-13T10:30:20Z</time>
      </trkpt>
      <trkpt lat="47.71307" lon="2.212889">
        <ele>169.0</ele>
        <time>2022-01-13T10:30:21Z</time>
      </trkpt>
      <trkpt lat="47.713062" lon="2.2128758">
        <ele>169.0</ele>
        <time>2022-01-13T10:30:22Z</time>
      </trkpt>
      <trkpt lat="47.713055" lon="2.2128687">
        <ele>169.0</ele>
        <time>2022-01-13T10:30:23Z</time>
      </trkpt>
      <trkpt lat="47.71304" lon="2.21287">
        <ele>169.0</ele>
        <time>2022-01-13T10:30:24Z</time>
      </trkpt>
      <trkpt lat="47.713028" lon="2.2128706">
        <ele>169.0</ele>
        <time>2022-01-13T10:30:25Z</time>
      </trkpt>
      <trkpt lat="47.71302" lon="2.2128708">
        <ele>168.0</ele>
        <time>2022-01-13T10:30:26Z</time>
      </trkpt>
      <trkpt lat="47.713005" lon="2.2128775">
        <ele>168.0</ele>
        <time>2022-01-13T10:30:27Z</time>
      </trkpt>
      <trkpt lat="47.712997" lon="2.212886">
        <ele>168.0</ele>
        <time>2022-01-13T10:30:28Z</time>
      </trkpt>
      <trkpt lat="47.712994" lon="2.2128966">
        <ele>168.0</ele>
        <time>2022-01-13T10:30:29Z</time>
      </trkpt>
      <trkpt lat="47.712982" lon="2.2129023">
        <ele>168.0</ele>
        <time>2022-01-13T10:30:30Z</time>
      </trkpt>
      <trkpt lat="47.712967" lon="2.212901">
        <ele>168.0</ele>
        <time>2022-01-13T10:30:31Z</time>
      </trkpt>
      <trkpt lat="47.71296" lon="2.2129006">
        <ele>168.0</ele>
        <time>2022-01-13T10:30:32Z</time>
      </trkpt>
      <trkpt lat="47.712948" lon="2.2128978">
        <ele>168.0</ele>
        <time>2022-01-13T10:30:33Z</time>
      </trkpt>
      <trkpt lat="47.71294" lon="2.2128963">
        <ele>167.0</ele>
        <time>2022-01-13T10:30:34Z</time>
      </trkpt>
      <trkpt lat="47.71293" lon="2.2128978">
        <ele>167.0</ele>
        <time>2022-01-13T10:30:35Z</time>
      </trkpt>
      <trkpt lat="47.712914" lon="2.2128978">
        <ele>167.0</ele>
        <time>2022-01-13T10:30:36Z</time>
      </trkpt>
      <trkpt lat="47.712902" lon="2.212896">
        <ele>167.0</ele>
        <time>2022-01-13T10:30:37Z</time>
      </trkpt>
      <trkpt lat="47.712887" lon="2.212899">
        <ele>167.0</ele>
        <time>2022-01-13T10:30:38Z</time>
      </trkpt>
      <trkpt lat="47.712875" lon="2.2129052">
        <ele>167.0</ele>
        <time>2022-01-13T10:30:39Z</time>
      </trkpt>
      <trkpt lat="47.712868" lon="2.212907">
        <ele>167.0</ele>
        <time>2022-01-13T10:30:40Z</time>
      </trkpt>
      <trkpt lat="47.71286" lon="2.212908">
        <ele>167.0</ele>
        <time>2022-01-13T10:30:41Z</time>
      </trkpt>
      <trkpt lat="47.71285" lon="2.2129047">
        <ele>167.0</ele>
        <time>2022-01-13T10:30:42Z</time>
      </trkpt>
      <trkpt lat="47.712837" lon="2.2129037">
        <ele>167.0</ele>
        <time>2022-01-13T10:30:43Z</time>
      </trkpt>
      <trkpt lat="47.712837" lon="2.2129045">
        <ele>167.0</ele>
        <time>2022-01-13T10:30:44Z</time>
      </trkpt>
      <trkpt lat="47.712837" lon="2.2129009">
        <ele>167.0</ele>
        <time>2022-01-13T10:30:45Z</time>
      </trkpt>
      <trkpt lat="47.712837" lon="2.2129009">
        <ele>167.0</ele>
        <time>2022-01-13T10:30:46Z</time>
      </trkpt>
      <trkpt lat="47.712837" lon="2.2129009">
        <ele>167.0</ele>
        <time>2022-01-13T10:30:47Z</time>
      </trkpt>
      <trkpt lat="47.712826" lon="2.212895">
        <ele>167.0</ele>
        <time>2022-01-13T10:30:48Z</time>
      </trkpt>
      <trkpt lat="47.71282" lon="2.2128954">
        <ele>167.0</ele>
        <time>2022-01-13T10:30:49Z</time>
      </trkpt>
      <trkpt lat="47.71281" lon="2.2128909">
        <ele>167.0</ele>
        <time>2022-01-13T10:30:50Z</time>
      </trkpt>
      <trkpt lat="47.712803" lon="2.2128844">
        <ele>166.0</ele>
        <time>2022-01-13T10:30:51Z</time>
      </trkpt>
      <trkpt lat="47.712795" lon="2.2128785">
        <ele>166.0</ele>
        <time>2022-01-13T10:30:52Z</time>
      </trkpt>
      <trkpt lat="47.71279" lon="2.21287">
        <ele>166.0</ele>
        <time>2022-01-13T10:30:53Z</time>
      </trkpt>
      <trkpt lat="47.71278" lon="2.2128565">
        <ele>167.0</ele>
        <time>2022-01-13T10:30:54Z</time>
      </trkpt>
      <trkpt lat="47.712776" lon="2.212842">
        <ele>167.0</ele>
        <time>2022-01-13T10:30:55Z</time>
      </trkpt>
      <trkpt lat="47.712772" lon="2.2128246">
        <ele>167.0</ele>
        <time>2022-01-13T10:30:56Z</time>
      </trkpt>
      <trkpt lat="47.71277" lon="2.212808">
        <ele>167.0</ele>
        <time>2022-01-13T10:30:57Z</time>
      </trkpt>
      <trkpt lat="47.712765" lon="2.2127938">
        <ele>167.0</ele>
        <time>2022-01-13T10:30:58Z</time>
      </trkpt>
      <trkpt lat="47.712757" lon="2.2127812">
        <ele>166.0</ele>
        <time>2022-01-13T10:30:59Z</time>
      </trkpt>
      <trkpt lat="47.712757" lon="2.2127702">
        <ele>166.0</ele>
        <time>2022-01-13T10:31:00Z</time>
      </trkpt>
      <trkpt lat="47.712757" lon="2.2127573">
        <ele>166.0</ele>
        <time>2022-01-13T10:31:01Z</time>
      </trkpt>
      <trkpt lat="47.712753" lon="2.212742">
        <ele>166.0</ele>
        <time>2022-01-13T10:31:02Z</time>
      </trkpt>
      <trkpt lat="47.71275" lon="2.212723">
        <ele>166.0</ele>
        <time>2022-01-13T10:31:03Z</time>
      </trkpt>
      <trkpt lat="47.712746" lon="2.212703">
        <ele>165.0</ele>
        <time>2022-01-13T10:31:04Z</time>
      </trkpt>
      <trkpt lat="47.712746" lon="2.2126853">
        <ele>165.0</ele>
        <time>2022-01-13T10:31:05Z</time>
      </trkpt>
      <trkpt lat="47.712746" lon="2.2126722">
        <ele>166.0</ele>
        <time>2022-01-13T10:31:06Z</time>
      </trkpt>
      <trkpt lat="47.71274" lon="2.212651">
        <ele>165.0</ele>
        <time>2022-01-13T10:31:07Z</time>
      </trkpt>
      <trkpt lat="47.712738" lon="2.212631">
        <ele>165.0</ele>
        <time>2022-01-13T10:31:08Z</time>
      </trkpt>
      <trkpt lat="47.712734" lon="2.2126126">
        <ele>165.0</ele>
        <time>2022-01-13T10:31:09Z</time>
      </trkpt>
      <trkpt lat="47.712738" lon="2.2125895">
        <ele>165.0</ele>
        <time>2022-01-13T10:31:10Z</time>
      </trkpt>
      <trkpt lat="47.712734" lon="2.2125683">
        <ele>165.0</ele>
        <time>2022-01-13T10:31:11Z</time>
      </trkpt>
      <trkpt lat="47.712734" lon="2.212552">
        <ele>165.0</ele>
        <time>2022-01-13T10:31:12Z</time>
      </trkpt>
      <trkpt lat="47.712734" lon="2.2125373">
        <ele>165.0</ele>
        <time>2022-01-13T10:31:13Z</time>
      </trkpt>
      <trkpt lat="47.712734" lon="2.2125158">
        <ele>165.0</ele>
        <time>2022-01-13T10:31:14Z</time>
      </trkpt>
      <trkpt lat="47.71273" lon="2.2125008">
        <ele>166.0</ele>
        <time>2022-01-13T10:31:15Z</time>
      </trkpt>
      <trkpt lat="47.71273" lon="2.212485">
        <ele>166.0</ele>
        <time>2022-01-13T10:31:16Z</time>
      </trkpt>
      <trkpt lat="47.71273" lon="2.212471">
        <ele>166.0</ele>
        <time>2022-01-13T10:31:17Z</time>
      </trkpt>
      <trkpt lat="47.71273" lon="2.2124567">
        <ele>166.0</ele>
        <time>2022-01-13T10:31:18Z</time>
      </trkpt>
      <trkpt lat="47.712727" lon="2.2124438">
        <ele>166.0</ele>
        <time>2022-01-13T10:31:19Z</time>
      </trkpt>
      <trkpt lat="47.712723" lon="2.21243">
        <ele>167.0</ele>
        <time>2022-01-13T10:31:20Z</time>
      </trkpt>
      <trkpt lat="47.712723" lon="2.2124155">
        <ele>167.0</ele>
        <time>2022-01-13T10:31:21Z</time>
      </trkpt>
      <trkpt lat="47.712727" lon="2.2124054">
        <ele>167.0</ele>
        <time>2022-01-13T10:31:22Z</time>
      </trkpt>
      <trkpt lat="47.712727" lon="2.2124085">
        <ele>167.0</ele>
        <time>2022-01-13T10:31:23Z</time>
      </trkpt>
      <trkpt lat="47.712727" lon="2.2124083">
        <ele>167.0</ele>
        <time>2022-01-13T10:31:24Z</time>
      </trkpt>
      <trkpt lat="47.712723" lon="2.212408">
        <ele>167.0</ele>
        <time>2022-01-13T10:31:25Z</time>
      </trkpt>
      <trkpt lat="47.712723" lon="2.212408">
        <ele>167.0</ele>
        <time>2022-01-13T10:31:26Z</time>
      </trkpt>
      <trkpt lat="47.712723" lon="2.212408">
        <ele>167.0</ele>
        <time>2022-01-13T10:31:26Z</time>
      </trkpt>
    </trkseg>
    <trkseg>
      <trkpt lat="47.712723" lon="2.212408">
        <ele>167.0</ele>
        <time>2022-01-13T10:31:26Z</time>
      </trkpt>
      <trkpt lat="47.712708" lon="2.2123148">
        <ele>167.0</ele>
        <time>2022-01-13T10:31:36Z</time>
      </trkpt>
      <trkpt lat="47.712708" lon="2.2123022">
        <ele>167.0</ele>
        <time>2022-01-13T10:31:37Z</time>
      </trkpt>
      <trkpt lat="47.712704" lon="2.2122886">
        <ele>167.0</ele>
        <time>2022-01-13T10:31:38Z</time>
      </trkpt>
      <trkpt lat="47.712704" lon="2.2122793">
        <ele>167.0</ele>
        <time>2022-01-13T10:31:39Z</time>
      </trkpt>
      <trkpt lat="47.712704" lon="2.2122598">
        <ele>168.0</ele>
        <time>2022-01-13T10:31:40Z</time>
      </trkpt>
      <trkpt lat="47.712704" lon="2.2122386">
        <ele>167.0</ele>
        <time>2022-01-13T10:31:41Z</time>
      </trkpt>
      <trkpt lat="47.712704" lon="2.2122211">
        <ele>168.0</ele>
        <time>2022-01-13T10:31:42Z</time>
      </trkpt>
      <trkpt lat="47.7127" lon="2.2122097">
        <ele>168.0</ele>
        <time>2022-01-13T10:31:43Z</time>
      </trkpt>
      <trkpt lat="47.712696" lon="2.212194">
        <ele>168.0</ele>
        <time>2022-01-13T10:31:44Z</time>
      </trkpt>
      <trkpt lat="47.712696" lon="2.2121751">
        <ele>168.0</ele>
        <time>2022-01-13T10:31:45Z</time>
      </trkpt>
      <trkpt lat="47.712696" lon="2.2121584">
        <ele>168.0</ele>
        <time>2022-01-13T10:31:46Z</time>
      </trkpt>
      <trkpt lat="47.712692" lon="2.212145">
        <ele>169.0</ele>
        <time>2022-01-13T10:31:47Z</time>
      </trkpt>
      <trkpt lat="47.712692" lon="2.2121327">
        <ele>169.0</ele>
        <time>2022-01-13T10:31:48Z</time>
      </trkpt>
      <trkpt lat="47.712692" lon="2.2121267">
        <ele>169.0</ele>
        <time>2022-01-13T10:31:49Z</time>
      </trkpt>
      <trkpt lat="47.71269" lon="2.212121">
        <ele>168.0</ele>
        <time>2022-01-13T10:31:50Z</time>
      </trkpt>
      <trkpt lat="47.71269" lon="2.2121167">
        <ele>168.0</ele>
        <time>2022-01-13T10:31:51Z</time>
      </trkpt>
      <trkpt lat="47.712692" lon="2.212102">
        <ele>168.0</ele>
        <time>2022-01-13T10:31:52Z</time>
      </trkpt>
      <trkpt lat="47.712692" lon="2.2120852">
        <ele>168.0</ele>
        <time>2022-01-13T10:31:53Z</time>
      </trkpt>
      <trkpt lat="47.71269" lon="2.2120686">
        <ele>168.0</ele>
        <time>2022-01-13T10:31:54Z</time>
      </trkpt>
      <trkpt lat="47.71269" lon="2.212054">
        <ele>168.0</ele>
        <time>2022-01-13T10:31:55Z</time>
      </trkpt>
      <trkpt lat="47.71269" lon="2.2120368">
        <ele>168.0</ele>
        <time>2022-01-13T10:31:56Z</time>
      </trkpt>
      <trkpt lat="47.71269" lon="2.2120206">
        <ele>168.0</ele>
        <time>2022-01-13T10:31:57Z</time>
      </trkpt>
      <trkpt lat="47.71269" lon="2.2120035">
        <ele>168.0</ele>
        <time>2022-01-13T10:31:58Z</time>
      </trkpt>
      <trkpt lat="47.712685" lon="2.2119966">
        <ele>168.0</ele>
        <time>2022-01-13T10:31:59Z</time>
      </trkpt>
      <trkpt lat="47.71268" lon="2.2119868">
        <ele>168.0</ele>
        <time>2022-01-13T10:32:00Z</time>
      </trkpt>
      <trkpt lat="47.712685" lon="2.211975">
        <ele>169.0</ele>
        <time>2022-01-13T10:32:01Z</time>
      </trkpt>
      <trkpt lat="47.71268" lon="2.2119613">
        <ele>169.0</ele>
        <time>2022-01-13T10:32:02Z</time>
      </trkpt>
      <trkpt lat="47.712685" lon="2.2119474">
        <ele>169.0</ele>
        <time>2022-01-13T10:32:03Z</time>
      </trkpt>
      <trkpt lat="47.71268" lon="2.2119317">
        <ele>169.0</ele>
        <time>2022-01-13T10:32:04Z</time>
      </trkpt>
      <trkpt lat="47.712677" lon="2.2119179">
        <ele>169.0</ele>
        <time>2022-01-13T10:32:05Z</time>
      </trkpt>
      <trkpt lat="47.712677" lon="2.211906">
        <ele>168.0</ele>
        <time>2022-01-13T10:32:06Z</time>
      </trkpt>
      <trkpt lat="47.712677" lon="2.21189">
        <ele>168.0</ele>
        <time>2022-01-13T10:32:07Z</time>
      </trkpt>
      <trkpt lat="47.71267" lon="2.211871">
        <ele>169.0</ele>
        <time>2022-01-13T10:32:08Z</time>
      </trkpt>
      <trkpt lat="47.712666" lon="2.211851">
        <ele>169.0</ele>
        <time>2022-01-13T10:32:09Z</time>
      </trkpt>
      <trkpt lat="47.71266" lon="2.2118328">
        <ele>169.0</ele>
        <time>2022-01-13T10:32:10Z</time>
      </trkpt>
      <trkpt lat="47.712658" lon="2.21182">
        <ele>169.0</ele>
        <time>2022-01-13T10:32:11Z</time>
      </trkpt>
      <trkpt lat="47.712658" lon="2.211806">
        <ele>169.0</ele>
        <time>2022-01-13T10:32:12Z</time>
      </trkpt>
      <trkpt lat="47.712654" lon="2.2117934">
        <ele>169.0</ele>
        <time>2022-01-13T10:32:13Z</time>
      </trkpt>
      <trkpt lat="47.71265" lon="2.2117794">
        <ele>169.0</ele>
        <time>2022-01-13T10:32:14Z</time>
      </trkpt>
      <trkpt lat="47.71265" lon="2.211766">
        <ele>169.0</ele>
        <time>2022-01-13T10:32:15Z</time>
      </trkpt>
      <trkpt lat="47.712646" lon="2.2117505">
        <ele>169.0</ele>
        <time>2022-01-13T10:32:16Z</time>
      </trkpt>
      <trkpt lat="47.712643" lon="2.2117314">
        <ele>168.0</ele>
        <time>2022-01-13T10:32:17Z</time>
      </trkpt>
      <trkpt lat="47.712646" lon="2.211716">
        <ele>168.0</ele>
        <time>2022-01-13T10:32:18Z</time>
      </trkpt>
      <trkpt lat="47.712646" lon="2.2116938">
        <ele>168.0</ele>
        <time>2022-01-13T10:32:19Z</time>
      </trkpt>
      <trkpt lat="47.712646" lon="2.211676">
        <ele>168.0</ele>
        <time>2022-01-13T10:32:20Z</time>
      </trkpt>
      <trkpt lat="47.712646" lon="2.2116625">
        <ele>168.0</ele>
        <time>2022-01-13T10:32:21Z</time>
      </trkpt>
      <trkpt lat="47.712643" lon="2.21165">
        <ele>168.0</ele>
        <time>2022-01-13T10:32:22Z</time>
      </trkpt>
      <trkpt lat="47.71264" lon="2.2116375">
        <ele>168.0</ele>
        <time>2022-01-13T10:32:23Z</time>
      </trkpt>
      <trkpt lat="47.71263" lon="2.2116241">
        <ele>168.0</ele>
        <time>2022-01-13T10:32:24Z</time>
      </trkpt>
      <trkpt lat="47.712627" lon="2.2116096">
        <ele>168.0</ele>
        <time>2022-01-13T10:32:25Z</time>
      </trkpt>
      <trkpt lat="47.712627" lon="2.2115943">
        <ele>168.0</ele>
        <time>2022-01-13T10:32:26Z</time>
      </trkpt>
      <trkpt lat="47.712624" lon="2.2115815">
        <ele>168.0</ele>
        <time>2022-01-13T10:32:27Z</time>
      </trkpt>
      <trkpt lat="47.712624" lon="2.2115736">
        <ele>168.0</ele>
        <time>2022-01-13T10:32:28Z</time>
      </trkpt>
      <trkpt lat="47.712624" lon="2.211556">
        <ele>168.0</ele>
        <time>2022-01-13T10:32:29Z</time>
      </trkpt>
      <trkpt lat="47.712627" lon="2.211541">
        <ele>168.0</ele>
        <time>2022-01-13T10:32:30Z</time>
      </trkpt>
      <trkpt lat="47.712627" lon="2.2115235">
        <ele>168.0</ele>
        <time>2022-01-13T10:32:31Z</time>
      </trkpt>
      <trkpt lat="47.712627" lon="2.211507">
        <ele>168.0</ele>
        <time>2022-01-13T10:32:32Z</time>
      </trkpt>
      <trkpt lat="47.712627" lon="2.2114909">
        <ele>168.0</ele>
        <time>2022-01-13T10:32:33Z</time>
      </trkpt>
      <trkpt lat="47.712627" lon="2.2114813">
        <ele>169.0</ele>
        <time>2022-01-13T10:32:34Z</time>
      </trkpt>
      <trkpt lat="47.712624" lon="2.2114673">
        <ele>169.0</ele>
        <time>2022-01-13T10:32:35Z</time>
      </trkpt>
      <trkpt lat="47.712624" lon="2.2114503">
        <ele>169.0</ele>
        <time>2022-01-13T10:32:36Z</time>
      </trkpt>
      <trkpt lat="47.712616" lon="2.211438">
        <ele>169.0</ele>
        <time>2022-01-13T10:32:37Z</time>
      </trkpt>
      <trkpt lat="47.712612" lon="2.2114232">
        <ele>169.0</ele>
        <time>2022-01-13T10:32:38Z</time>
      </trkpt>
      <trkpt lat="47.712612" lon="2.21141">
        <ele>169.0</ele>
        <time>2022-01-13T10:32:39Z</time>
      </trkpt>
      <trkpt lat="47.71261" lon="2.2113981">
        <ele>168.0</ele>
        <time>2022-01-13T10:32:40Z</time>
      </trkpt>
      <trkpt lat="47.71261" lon="2.2113814">
        <ele>168.0</ele>
        <time>2022-01-13T10:32:41Z</time>
      </trkpt>
      <trkpt lat="47.71261" lon="2.2113683">
        <ele>168.0</ele>
        <time>2022-01-13T10:32:42Z</time>
      </trkpt>
      <trkpt lat="47.71261" lon="2.2113552">
        <ele>168.0</ele>
        <time>2022-01-13T10:32:43Z</time>
      </trkpt>
      <trkpt lat="47.712605" lon="2.21134">
        <ele>168.0</ele>
        <time>2022-01-13T10:32:44Z</time>
      </trkpt>
      <trkpt lat="47.712597" lon="2.2113242">
        <ele>168.0</ele>
        <time>2022-01-13T10:32:45Z</time>
      </trkpt>
      <trkpt lat="47.712593" lon="2.2113101">
        <ele>168.0</ele>
        <time>2022-01-13T10:32:46Z</time>
      </trkpt>
      <trkpt lat="47.71259" lon="2.211294">
        <ele>168.0</ele>
        <time>2022-01-13T10:32:47Z</time>
      </trkpt>
      <trkpt lat="47.712585" lon="2.2112756">
        <ele>168.0</ele>
        <time>2022-01-13T10:32:48Z</time>
      </trkpt>
      <trkpt lat="47.712585" lon="2.2112608">
        <ele>168.0</ele>
        <time>2022-01-13T10:32:49Z</time>
      </trkpt>
      <trkpt lat="47.71258" lon="2.211244">
        <ele>168.0</ele>
        <time>2022-01-13T10:32:50Z</time>
      </trkpt>
      <trkpt lat="47.71258" lon="2.2112305">
        <ele>168.0</ele>
        <time>2022-01-13T10:32:51Z</time>
      </trkpt>
      <trkpt lat="47.71258" lon="2.2112155">
        <ele>168.0</ele>
        <time>2022-01-13T10:32:52Z</time>
      </trkpt>
      <trkpt lat="47.712578" lon="2.2112014">
        <ele>168.0</ele>
        <time>2022-01-13T10:32:53Z</time>
      </trkpt>
      <trkpt lat="47.712578" lon="2.2111866">
        <ele>167.0</ele>
        <time>2022-01-13T10:32:54Z</time>
      </trkpt>
      <trkpt lat="47.712574" lon="2.2111723">
        <ele>167.0</ele>
        <time>2022-01-13T10:32:55Z</time>
      </trkpt>
      <trkpt lat="47.712574" lon="2.2111619">
        <ele>167.0</ele>
        <time>2022-01-13T10:32:56Z</time>
      </trkpt>
      <trkpt lat="47.712578" lon="2.2111526">
        <ele>166.0</ele>
        <time>2022-01-13T10:32:57Z</time>
      </trkpt>
      <trkpt lat="47.712585" lon="2.2111452">
        <ele>166.0</ele>
        <time>2022-01-13T10:32:58Z</time>
      </trkpt>
      <trkpt lat="47.712585" lon="2.211134">
        <ele>166.0</ele>
        <time>2022-01-13T10:32:59Z</time>
      </trkpt>
      <trkpt lat="47.71259" lon="2.2111237">
        <ele>166.0</ele>
        <time>2022-01-13T10:33:00Z</time>
      </trkpt>
      <trkpt lat="47.712597" lon="2.211113">
        <ele>167.0</ele>
        <time>2022-01-13T10:33:01Z</time>
      </trkpt>
      <trkpt lat="47.712597" lon="2.2111018">
        <ele>167.0</ele>
        <time>2022-01-13T10:33:02Z</time>
      </trkpt>
      <trkpt lat="47.712597" lon="2.211093">
        <ele>167.0</ele>
        <time>2022-01-13T10:33:03Z</time>
      </trkpt>
      <trkpt lat="47.712593" lon="2.2110863">
        <ele>167.0</ele>
        <time>2022-01-13T10:33:04Z</time>
      </trkpt>
      <trkpt lat="47.71259" lon="2.21108">
        <ele>167.0</ele>
        <time>2022-01-13T10:33:05Z</time>
      </trkpt>
      <trkpt lat="47.712578" lon="2.2110763">
        <ele>167.0</ele>
        <time>2022-01-13T10:33:06Z</time>
      </trkpt>
      <trkpt lat="47.712574" lon="2.2110677">
        <ele>167.0</ele>
        <time>2022-01-13T10:33:07Z</time>
      </trkpt>
      <trkpt lat="47.712574" lon="2.2110581">
        <ele>168.0</ele>
        <time>2022-01-13T10:33:08Z</time>
      </trkpt>
      <trkpt lat="47.712566" lon="2.2110445">
        <ele>168.0</ele>
        <time>2022-01-13T10:33:09Z</time>
      </trkpt>
      <trkpt lat="47.712563" lon="2.2110417">
        <ele>168.0</ele>
        <time>2022-01-13T10:33:10Z</time>
      </trkpt>
      <trkpt lat="47.712563" lon="2.2110417">
        <ele>168.0</ele>
        <time>2022-01-13T10:33:10Z</time>
      </trkpt>
    </trkseg>
    <trkseg>
      <trkpt lat="47.712563" lon="2.2110417">
        <ele>168.0</ele>
        <time>2022-01-13T10:33:10Z</time>
      </trkpt>
      <trkpt lat="47.712597" lon="2.2110095">
        <ele>169.0</ele>
        <time>2022-01-13T10:33:33Z</time>
      </trkpt>
      <trkpt lat="47.712597" lon="2.2110095">
        <ele>169.0</ele>
        <time>2022-01-13T10:33:34Z</time>
      </trkpt>
      <trkpt lat="47.712597" lon="2.2110095">
        <ele>169.0</ele>
        <time>2022-01-13T10:33:35Z</time>
      </trkpt>
      <trkpt lat="47.712597" lon="2.2110095">
        <ele>169.0</ele>
        <time>2022-01-13T10:33:36Z</time>
      </trkpt>
      <trkpt lat="47.712597" lon="2.2110095">
        <ele>169.0</ele>
        <time>2022-01-13T10:33:37Z</time>
      </trkpt>
      <trkpt lat="47.712597" lon="2.2110095">
        <ele>169.0</ele>
        <time>2022-01-13T10:33:37Z</time>
      </trkpt>
    </trkseg>
    <trkseg>
      <trkpt lat="47.712597" lon="2.2110095">
        <ele>169.0</ele>
        <time>2022-01-13T10:33:37Z</time>
      </trkpt>
      <trkpt lat="47.712646" lon="2.2109323">
        <ele>172.0</ele>
        <time>2022-01-13T10:34:20Z</time>
      </trkpt>
      <trkpt lat="47.71265" lon="2.2109334">
        <ele>171.0</ele>
        <time>2022-01-13T10:34:21Z</time>
      </trkpt>
      <trkpt lat="47.712654" lon="2.210936">
        <ele>172.0</ele>
        <time>2022-01-13T10:34:22Z</time>
      </trkpt>
      <trkpt lat="47.712654" lon="2.2109354">
        <ele>172.0</ele>
        <time>2022-01-13T10:34:23Z</time>
      </trkpt>
      <trkpt lat="47.712654" lon="2.2109354">
        <ele>172.0</ele>
        <time>2022-01-13T10:34:23Z</time>
      </trkpt>
    </trkseg>
    <trkseg>
      <trkpt lat="47.712654" lon="2.2109354">
        <ele>172.0</ele>
        <time>2022-01-13T10:34:23Z</time>
      </trkpt>
      <trkpt lat="47.712547" lon="2.2107856">
        <ele>172.0</ele>
        <time>2022-01-13T10:34:53Z</time>
      </trkpt>
      <trkpt lat="47.712524" lon="2.2106726">
        <ele>172.0</ele>
        <time>2022-01-13T10:34:55Z</time>
      </trkpt>
      <trkpt lat="47.712494" lon="2.2105598">
        <ele>172.0</ele>
        <time>2022-01-13T10:34:57Z</time>
      </trkpt>
      <trkpt lat="47.712482" lon="2.2104998">
        <ele>172.0</ele>
        <time>2022-01-13T10:34:58Z</time>
      </trkpt>
      <trkpt lat="47.71248" lon="2.2104454">
        <ele>173.0</ele>
        <time>2022-01-13T10:34:59Z</time>
      </trkpt>
      <trkpt lat="47.712463" lon="2.2103782">
        <ele>172.0</ele>
        <time>2022-01-13T10:35:00Z</time>
      </trkpt>
    </trkseg>
    <trkseg>
      <trkpt lat="47.712463" lon="2.2103782">
        <ele>172.0</ele>
        <time>2022-01-13T10:35:00Z</time>
      </trkpt>
    </trkseg>
  </trk>
  <exerciseinfo>
    <exercisetype>1001</exercisetype>
    <distance>10239.85</distance>
    <elevationgain>0.0</elevationgain>
    <avggradient>-0.0575680928606461</avggradient>
    <duration>8062442</duration>
    <avgspeed>1.2701386</avgspeed>
  </exerciseinfo>
</gpx>